<?xml version="1.0" encoding="UTF-8" standalone="no" ?>
<gpx xmlns="http://www.topografix.com/GPX/1/1" xmlns:xsi="http://www.w3.org/2001/XMLSchema-instance" xsi:schemaLocation="http://www.topografix.com/GPX/1/1 http://www.topografix.com/GPX/1/1/gpx.xsd" version="1.1" creator="VisuGPX - https://www.visugpx.com">
  <metadata>
    <name>crossac</name>
    <desc><![CDATA[rando crossac]]></desc>
  </metadata>
  <trk>
    <name><![CDATA[2011-11-13 08:52CROSSAC]]></name>
    <desc><![CDATA[]]></desc>
    <trkseg>
      <trkpt lat="47.41154" lon="-2.17284">
        <ele>62</ele>
        <time>2011-11-13T07:52:55Z</time>
      </trkpt>
      <trkpt lat="47.41151" lon="-2.17278">
        <ele>57.4</ele>
        <time>2011-11-13T07:54:00Z</time>
      </trkpt>
      <trkpt lat="47.41149" lon="-2.17271">
        <ele>58.7</ele>
        <time>2011-11-13T07:54:03Z</time>
      </trkpt>
      <trkpt lat="47.4115" lon="-2.17256">
        <ele>61.9</ele>
        <time>2011-11-13T07:54:05Z</time>
      </trkpt>
      <trkpt lat="47.41151" lon="-2.17249">
        <ele>64.8</ele>
        <time>2011-11-13T07:54:08Z</time>
      </trkpt>
      <trkpt lat="47.41154" lon="-2.1724">
        <ele>62.9</ele>
        <time>2011-11-13T07:54:10Z</time>
      </trkpt>
      <trkpt lat="47.41156" lon="-2.17234">
        <ele>61.8</ele>
        <time>2011-11-13T07:54:14Z</time>
      </trkpt>
      <trkpt lat="47.41161" lon="-2.17229">
        <ele>58.4</ele>
        <time>2011-11-13T07:54:17Z</time>
      </trkpt>
      <trkpt lat="47.41157" lon="-2.17222">
        <ele>56.6</ele>
        <time>2011-11-13T07:54:21Z</time>
      </trkpt>
      <trkpt lat="47.41147" lon="-2.17219">
        <ele>57.4</ele>
        <time>2011-11-13T07:54:26Z</time>
      </trkpt>
      <trkpt lat="47.41139" lon="-2.17215">
        <ele>58.7</ele>
        <time>2011-11-13T07:54:28Z</time>
      </trkpt>
      <trkpt lat="47.4113" lon="-2.17211">
        <ele>60</ele>
        <time>2011-11-13T07:54:30Z</time>
      </trkpt>
      <trkpt lat="47.41121" lon="-2.17212">
        <ele>58.8</ele>
        <time>2011-11-13T07:54:34Z</time>
      </trkpt>
      <trkpt lat="47.41118" lon="-2.17217">
        <ele>58.1</ele>
        <time>2011-11-13T07:54:36Z</time>
      </trkpt>
      <trkpt lat="47.41111" lon="-2.1722">
        <ele>57.4</ele>
        <time>2011-11-13T07:54:37Z</time>
      </trkpt>
      <trkpt lat="47.41106" lon="-2.17222">
        <ele>57.6</ele>
        <time>2011-11-13T07:54:38Z</time>
      </trkpt>
      <trkpt lat="47.41103" lon="-2.17227">
        <ele>58.8</ele>
        <time>2011-11-13T07:54:40Z</time>
      </trkpt>
      <trkpt lat="47.41097" lon="-2.17218">
        <ele>57.9</ele>
        <time>2011-11-13T07:54:42Z</time>
      </trkpt>
      <trkpt lat="47.41094" lon="-2.1721">
        <ele>58.3</ele>
        <time>2011-11-13T07:54:45Z</time>
      </trkpt>
      <trkpt lat="47.41088" lon="-2.17203">
        <ele>57.1</ele>
        <time>2011-11-13T07:54:47Z</time>
      </trkpt>
      <trkpt lat="47.41085" lon="-2.17197">
        <ele>57.1</ele>
        <time>2011-11-13T07:54:48Z</time>
      </trkpt>
      <trkpt lat="47.4108" lon="-2.17187">
        <ele>57.4</ele>
        <time>2011-11-13T07:54:50Z</time>
      </trkpt>
      <trkpt lat="47.41072" lon="-2.17176">
        <ele>56</ele>
        <time>2011-11-13T07:54:52Z</time>
      </trkpt>
      <trkpt lat="47.41065" lon="-2.1717">
        <ele>56.9</ele>
        <time>2011-11-13T07:54:53Z</time>
      </trkpt>
      <trkpt lat="47.4106" lon="-2.17156">
        <ele>57</ele>
        <time>2011-11-13T07:54:54Z</time>
      </trkpt>
      <trkpt lat="47.41054" lon="-2.17141">
        <ele>55.9</ele>
        <time>2011-11-13T07:54:56Z</time>
      </trkpt>
      <trkpt lat="47.41052" lon="-2.17127">
        <ele>54.6</ele>
        <time>2011-11-13T07:54:57Z</time>
      </trkpt>
      <trkpt lat="47.4105" lon="-2.17121">
        <ele>54.6</ele>
        <time>2011-11-13T07:54:58Z</time>
      </trkpt>
      <trkpt lat="47.41048" lon="-2.17114">
        <ele>54</ele>
        <time>2011-11-13T07:54:59Z</time>
      </trkpt>
      <trkpt lat="47.41046" lon="-2.17107">
        <ele>54.2</ele>
        <time>2011-11-13T07:55:00Z</time>
      </trkpt>
      <trkpt lat="47.41043" lon="-2.171">
        <ele>54.4</ele>
        <time>2011-11-13T07:55:01Z</time>
      </trkpt>
      <trkpt lat="47.41041" lon="-2.17094">
        <ele>54.4</ele>
        <time>2011-11-13T07:55:02Z</time>
      </trkpt>
      <trkpt lat="47.41039" lon="-2.17087">
        <ele>54.2</ele>
        <time>2011-11-13T07:55:03Z</time>
      </trkpt>
      <trkpt lat="47.41034" lon="-2.17076">
        <ele>53.7</ele>
        <time>2011-11-13T07:55:05Z</time>
      </trkpt>
      <trkpt lat="47.4103" lon="-2.17067">
        <ele>53.7</ele>
        <time>2011-11-13T07:55:07Z</time>
      </trkpt>
      <trkpt lat="47.41026" lon="-2.1706">
        <ele>54.4</ele>
        <time>2011-11-13T07:55:09Z</time>
      </trkpt>
      <trkpt lat="47.41028" lon="-2.17053">
        <ele>53.4</ele>
        <time>2011-11-13T07:55:10Z</time>
      </trkpt>
      <trkpt lat="47.41022" lon="-2.17046">
        <ele>53.6</ele>
        <time>2011-11-13T07:55:11Z</time>
      </trkpt>
      <trkpt lat="47.41019" lon="-2.17039">
        <ele>53.6</ele>
        <time>2011-11-13T07:55:12Z</time>
      </trkpt>
      <trkpt lat="47.41017" lon="-2.17032">
        <ele>54</ele>
        <time>2011-11-13T07:55:13Z</time>
      </trkpt>
      <trkpt lat="47.41014" lon="-2.17025">
        <ele>53.8</ele>
        <time>2011-11-13T07:55:14Z</time>
      </trkpt>
      <trkpt lat="47.41012" lon="-2.17018">
        <ele>54.4</ele>
        <time>2011-11-13T07:55:15Z</time>
      </trkpt>
      <trkpt lat="47.4101" lon="-2.17011">
        <ele>54.6</ele>
        <time>2011-11-13T07:55:16Z</time>
      </trkpt>
      <trkpt lat="47.41008" lon="-2.17002">
        <ele>54</ele>
        <time>2011-11-13T07:55:17Z</time>
      </trkpt>
      <trkpt lat="47.41006" lon="-2.16987">
        <ele>53</ele>
        <time>2011-11-13T07:55:20Z</time>
      </trkpt>
      <trkpt lat="47.41003" lon="-2.16982">
        <ele>54.4</ele>
        <time>2011-11-13T07:55:22Z</time>
      </trkpt>
      <trkpt lat="47.40996" lon="-2.16984">
        <ele>55.9</ele>
        <time>2011-11-13T07:55:24Z</time>
      </trkpt>
      <trkpt lat="47.40987" lon="-2.16984">
        <ele>58.3</ele>
        <time>2011-11-13T07:55:26Z</time>
      </trkpt>
      <trkpt lat="47.40981" lon="-2.16983">
        <ele>58.5</ele>
        <time>2011-11-13T07:55:27Z</time>
      </trkpt>
      <trkpt lat="47.40976" lon="-2.16985">
        <ele>58.2</ele>
        <time>2011-11-13T07:55:28Z</time>
      </trkpt>
      <trkpt lat="47.40971" lon="-2.16987">
        <ele>58.6</ele>
        <time>2011-11-13T07:55:29Z</time>
      </trkpt>
      <trkpt lat="47.40963" lon="-2.16987">
        <ele>58.7</ele>
        <time>2011-11-13T07:55:30Z</time>
      </trkpt>
      <trkpt lat="47.40958" lon="-2.16988">
        <ele>58.6</ele>
        <time>2011-11-13T07:55:31Z</time>
      </trkpt>
      <trkpt lat="47.4095" lon="-2.16989">
        <ele>59.3</ele>
        <time>2011-11-13T07:55:33Z</time>
      </trkpt>
      <trkpt lat="47.40939" lon="-2.16988">
        <ele>60</ele>
        <time>2011-11-13T07:55:35Z</time>
      </trkpt>
      <trkpt lat="47.40934" lon="-2.16989">
        <ele>60.4</ele>
        <time>2011-11-13T07:55:36Z</time>
      </trkpt>
      <trkpt lat="47.40927" lon="-2.16988">
        <ele>60.4</ele>
        <time>2011-11-13T07:55:37Z</time>
      </trkpt>
      <trkpt lat="47.40921" lon="-2.1699">
        <ele>60.1</ele>
        <time>2011-11-13T07:55:38Z</time>
      </trkpt>
      <trkpt lat="47.40912" lon="-2.1699">
        <ele>59.7</ele>
        <time>2011-11-13T07:55:39Z</time>
      </trkpt>
      <trkpt lat="47.40907" lon="-2.16992">
        <ele>60</ele>
        <time>2011-11-13T07:55:40Z</time>
      </trkpt>
      <trkpt lat="47.40901" lon="-2.16991">
        <ele>60.8</ele>
        <time>2011-11-13T07:55:41Z</time>
      </trkpt>
      <trkpt lat="47.40894" lon="-2.16992">
        <ele>61.3</ele>
        <time>2011-11-13T07:55:42Z</time>
      </trkpt>
      <trkpt lat="47.40888" lon="-2.16997">
        <ele>61</ele>
        <time>2011-11-13T07:55:43Z</time>
      </trkpt>
      <trkpt lat="47.40884" lon="-2.16999">
        <ele>60.3</ele>
        <time>2011-11-13T07:55:44Z</time>
      </trkpt>
      <trkpt lat="47.4088" lon="-2.17002">
        <ele>60.3</ele>
        <time>2011-11-13T07:55:45Z</time>
      </trkpt>
      <trkpt lat="47.40871" lon="-2.17007">
        <ele>59.8</ele>
        <time>2011-11-13T07:55:47Z</time>
      </trkpt>
      <trkpt lat="47.40865" lon="-2.17011">
        <ele>60.2</ele>
        <time>2011-11-13T07:55:49Z</time>
      </trkpt>
      <trkpt lat="47.40859" lon="-2.17013">
        <ele>60.1</ele>
        <time>2011-11-13T07:55:50Z</time>
      </trkpt>
      <trkpt lat="47.40854" lon="-2.17017">
        <ele>59.6</ele>
        <time>2011-11-13T07:55:51Z</time>
      </trkpt>
      <trkpt lat="47.40848" lon="-2.17019">
        <ele>58.9</ele>
        <time>2011-11-13T07:55:53Z</time>
      </trkpt>
      <trkpt lat="47.40835" lon="-2.17031">
        <ele>60.3</ele>
        <time>2011-11-13T07:55:56Z</time>
      </trkpt>
      <trkpt lat="47.40828" lon="-2.17038">
        <ele>61.1</ele>
        <time>2011-11-13T07:55:58Z</time>
      </trkpt>
      <trkpt lat="47.40823" lon="-2.17043">
        <ele>61</ele>
        <time>2011-11-13T07:55:59Z</time>
      </trkpt>
      <trkpt lat="47.40812" lon="-2.17053">
        <ele>60</ele>
        <time>2011-11-13T07:56:00Z</time>
      </trkpt>
      <trkpt lat="47.40804" lon="-2.1706">
        <ele>59.4</ele>
        <time>2011-11-13T07:56:02Z</time>
      </trkpt>
      <trkpt lat="47.40791" lon="-2.1707">
        <ele>59.5</ele>
        <time>2011-11-13T07:56:04Z</time>
      </trkpt>
      <trkpt lat="47.40787" lon="-2.17076">
        <ele>59.5</ele>
        <time>2011-11-13T07:56:05Z</time>
      </trkpt>
      <trkpt lat="47.40782" lon="-2.17081">
        <ele>58.9</ele>
        <time>2011-11-13T07:56:06Z</time>
      </trkpt>
      <trkpt lat="47.40776" lon="-2.17085">
        <ele>59</ele>
        <time>2011-11-13T07:56:07Z</time>
      </trkpt>
      <trkpt lat="47.40771" lon="-2.17088">
        <ele>59</ele>
        <time>2011-11-13T07:56:08Z</time>
      </trkpt>
      <trkpt lat="47.40766" lon="-2.17089">
        <ele>58.8</ele>
        <time>2011-11-13T07:56:09Z</time>
      </trkpt>
      <trkpt lat="47.40759" lon="-2.17088">
        <ele>58.9</ele>
        <time>2011-11-13T07:56:11Z</time>
      </trkpt>
      <trkpt lat="47.40752" lon="-2.17086">
        <ele>57.5</ele>
        <time>2011-11-13T07:56:12Z</time>
      </trkpt>
      <trkpt lat="47.4075" lon="-2.1708">
        <ele>56.5</ele>
        <time>2011-11-13T07:56:13Z</time>
      </trkpt>
      <trkpt lat="47.40752" lon="-2.17072">
        <ele>56.3</ele>
        <time>2011-11-13T07:56:14Z</time>
      </trkpt>
      <trkpt lat="47.40754" lon="-2.17065">
        <ele>56.7</ele>
        <time>2011-11-13T07:56:15Z</time>
      </trkpt>
      <trkpt lat="47.40756" lon="-2.17054">
        <ele>56.8</ele>
        <time>2011-11-13T07:56:17Z</time>
      </trkpt>
      <trkpt lat="47.40759" lon="-2.17044">
        <ele>57.4</ele>
        <time>2011-11-13T07:56:19Z</time>
      </trkpt>
      <trkpt lat="47.40762" lon="-2.17033">
        <ele>57.9</ele>
        <time>2011-11-13T07:56:21Z</time>
      </trkpt>
      <trkpt lat="47.40767" lon="-2.17012">
        <ele>59.3</ele>
        <time>2011-11-13T07:56:23Z</time>
      </trkpt>
      <trkpt lat="47.40768" lon="-2.17004">
        <ele>59.4</ele>
        <time>2011-11-13T07:56:24Z</time>
      </trkpt>
      <trkpt lat="47.4077" lon="-2.16997">
        <ele>61</ele>
        <time>2011-11-13T07:56:25Z</time>
      </trkpt>
      <trkpt lat="47.40773" lon="-2.16991">
        <ele>60.5</ele>
        <time>2011-11-13T07:56:26Z</time>
      </trkpt>
      <trkpt lat="47.40776" lon="-2.16986">
        <ele>61.1</ele>
        <time>2011-11-13T07:56:27Z</time>
      </trkpt>
      <trkpt lat="47.40778" lon="-2.16976">
        <ele>61</ele>
        <time>2011-11-13T07:56:29Z</time>
      </trkpt>
      <trkpt lat="47.40779" lon="-2.1697">
        <ele>60.7</ele>
        <time>2011-11-13T07:56:30Z</time>
      </trkpt>
      <trkpt lat="47.40778" lon="-2.16962">
        <ele>61.5</ele>
        <time>2011-11-13T07:56:31Z</time>
      </trkpt>
      <trkpt lat="47.40779" lon="-2.16949">
        <ele>61.5</ele>
        <time>2011-11-13T07:56:33Z</time>
      </trkpt>
      <trkpt lat="47.40779" lon="-2.1694">
        <ele>61.2</ele>
        <time>2011-11-13T07:56:35Z</time>
      </trkpt>
      <trkpt lat="47.40783" lon="-2.16934">
        <ele>60.2</ele>
        <time>2011-11-13T07:56:36Z</time>
      </trkpt>
      <trkpt lat="47.40787" lon="-2.16921">
        <ele>59.3</ele>
        <time>2011-11-13T07:56:37Z</time>
      </trkpt>
      <trkpt lat="47.40792" lon="-2.16909">
        <ele>58.2</ele>
        <time>2011-11-13T07:56:40Z</time>
      </trkpt>
      <trkpt lat="47.40795" lon="-2.16901">
        <ele>58.5</ele>
        <time>2011-11-13T07:56:41Z</time>
      </trkpt>
      <trkpt lat="47.40798" lon="-2.16896">
        <ele>58.2</ele>
        <time>2011-11-13T07:56:42Z</time>
      </trkpt>
      <trkpt lat="47.40803" lon="-2.16888">
        <ele>57.2</ele>
        <time>2011-11-13T07:56:44Z</time>
      </trkpt>
      <trkpt lat="47.40809" lon="-2.16878">
        <ele>57.1</ele>
        <time>2011-11-13T07:56:46Z</time>
      </trkpt>
      <trkpt lat="47.40818" lon="-2.16863">
        <ele>56.6</ele>
        <time>2011-11-13T07:56:48Z</time>
      </trkpt>
      <trkpt lat="47.4082" lon="-2.16857">
        <ele>56.9</ele>
        <time>2011-11-13T07:56:49Z</time>
      </trkpt>
      <trkpt lat="47.40823" lon="-2.16852">
        <ele>56.4</ele>
        <time>2011-11-13T07:56:51Z</time>
      </trkpt>
      <trkpt lat="47.40828" lon="-2.16839">
        <ele>54.8</ele>
        <time>2011-11-13T07:56:53Z</time>
      </trkpt>
      <trkpt lat="47.40828" lon="-2.16827">
        <ele>53.9</ele>
        <time>2011-11-13T07:56:56Z</time>
      </trkpt>
      <trkpt lat="47.40826" lon="-2.1682">
        <ele>53.7</ele>
        <time>2011-11-13T07:56:57Z</time>
      </trkpt>
      <trkpt lat="47.40824" lon="-2.16814">
        <ele>53</ele>
        <time>2011-11-13T07:56:58Z</time>
      </trkpt>
      <trkpt lat="47.40821" lon="-2.16808">
        <ele>53.9</ele>
        <time>2011-11-13T07:56:59Z</time>
      </trkpt>
      <trkpt lat="47.40819" lon="-2.16796">
        <ele>52.8</ele>
        <time>2011-11-13T07:57:00Z</time>
      </trkpt>
      <trkpt lat="47.40816" lon="-2.16789">
        <ele>52.4</ele>
        <time>2011-11-13T07:57:02Z</time>
      </trkpt>
      <trkpt lat="47.40812" lon="-2.16777">
        <ele>53.8</ele>
        <time>2011-11-13T07:57:04Z</time>
      </trkpt>
      <trkpt lat="47.40808" lon="-2.16764">
        <ele>54.3</ele>
        <time>2011-11-13T07:57:06Z</time>
      </trkpt>
      <trkpt lat="47.40806" lon="-2.16758">
        <ele>55.1</ele>
        <time>2011-11-13T07:57:07Z</time>
      </trkpt>
      <trkpt lat="47.40804" lon="-2.16751">
        <ele>55.7</ele>
        <time>2011-11-13T07:57:08Z</time>
      </trkpt>
      <trkpt lat="47.408" lon="-2.16738">
        <ele>55.3</ele>
        <time>2011-11-13T07:57:10Z</time>
      </trkpt>
      <trkpt lat="47.40795" lon="-2.16727">
        <ele>55.8</ele>
        <time>2011-11-13T07:57:12Z</time>
      </trkpt>
      <trkpt lat="47.40791" lon="-2.16715">
        <ele>56.2</ele>
        <time>2011-11-13T07:57:14Z</time>
      </trkpt>
      <trkpt lat="47.40787" lon="-2.16703">
        <ele>56.8</ele>
        <time>2011-11-13T07:57:16Z</time>
      </trkpt>
      <trkpt lat="47.40784" lon="-2.16697">
        <ele>56.7</ele>
        <time>2011-11-13T07:57:17Z</time>
      </trkpt>
      <trkpt lat="47.40783" lon="-2.1669">
        <ele>56.5</ele>
        <time>2011-11-13T07:57:18Z</time>
      </trkpt>
      <trkpt lat="47.40781" lon="-2.16683">
        <ele>57</ele>
        <time>2011-11-13T07:57:19Z</time>
      </trkpt>
      <trkpt lat="47.40778" lon="-2.16677">
        <ele>57.1</ele>
        <time>2011-11-13T07:57:20Z</time>
      </trkpt>
      <trkpt lat="47.40775" lon="-2.16664">
        <ele>57.1</ele>
        <time>2011-11-13T07:57:22Z</time>
      </trkpt>
      <trkpt lat="47.40774" lon="-2.16656">
        <ele>57</ele>
        <time>2011-11-13T07:57:23Z</time>
      </trkpt>
      <trkpt lat="47.40772" lon="-2.16646">
        <ele>57</ele>
        <time>2011-11-13T07:57:24Z</time>
      </trkpt>
      <trkpt lat="47.40771" lon="-2.16638">
        <ele>56.4</ele>
        <time>2011-11-13T07:57:25Z</time>
      </trkpt>
      <trkpt lat="47.40771" lon="-2.16631">
        <ele>56.2</ele>
        <time>2011-11-13T07:57:26Z</time>
      </trkpt>
      <trkpt lat="47.40775" lon="-2.16624">
        <ele>55.9</ele>
        <time>2011-11-13T07:57:28Z</time>
      </trkpt>
      <trkpt lat="47.40772" lon="-2.16631">
        <ele>56.2</ele>
        <time>2011-11-13T07:57:32Z</time>
      </trkpt>
      <trkpt lat="47.40767" lon="-2.16632">
        <ele>56.6</ele>
        <time>2011-11-13T07:57:34Z</time>
      </trkpt>
      <trkpt lat="47.40757" lon="-2.16638">
        <ele>59.4</ele>
        <time>2011-11-13T07:57:35Z</time>
      </trkpt>
      <trkpt lat="47.40751" lon="-2.16642">
        <ele>61.1</ele>
        <time>2011-11-13T07:57:36Z</time>
      </trkpt>
      <trkpt lat="47.40747" lon="-2.16647">
        <ele>62.3</ele>
        <time>2011-11-13T07:57:37Z</time>
      </trkpt>
      <trkpt lat="47.40738" lon="-2.16651">
        <ele>61.3</ele>
        <time>2011-11-13T07:57:38Z</time>
      </trkpt>
      <trkpt lat="47.40732" lon="-2.16655">
        <ele>61.6</ele>
        <time>2011-11-13T07:57:39Z</time>
      </trkpt>
      <trkpt lat="47.40727" lon="-2.16658">
        <ele>61.5</ele>
        <time>2011-11-13T07:57:40Z</time>
      </trkpt>
      <trkpt lat="47.40721" lon="-2.16662">
        <ele>61.8</ele>
        <time>2011-11-13T07:57:41Z</time>
      </trkpt>
      <trkpt lat="47.40719" lon="-2.16668">
        <ele>62.4</ele>
        <time>2011-11-13T07:57:42Z</time>
      </trkpt>
      <trkpt lat="47.40715" lon="-2.16674">
        <ele>62.1</ele>
        <time>2011-11-13T07:57:43Z</time>
      </trkpt>
      <trkpt lat="47.40711" lon="-2.16679">
        <ele>61.8</ele>
        <time>2011-11-13T07:57:44Z</time>
      </trkpt>
      <trkpt lat="47.40707" lon="-2.16685">
        <ele>61.6</ele>
        <time>2011-11-13T07:57:45Z</time>
      </trkpt>
      <trkpt lat="47.40704" lon="-2.16691">
        <ele>60.8</ele>
        <time>2011-11-13T07:57:46Z</time>
      </trkpt>
      <trkpt lat="47.407" lon="-2.167">
        <ele>59.8</ele>
        <time>2011-11-13T07:57:48Z</time>
      </trkpt>
      <trkpt lat="47.40697" lon="-2.16706">
        <ele>59.7</ele>
        <time>2011-11-13T07:57:49Z</time>
      </trkpt>
      <trkpt lat="47.4069" lon="-2.16713">
        <ele>59.7</ele>
        <time>2011-11-13T07:57:50Z</time>
      </trkpt>
      <trkpt lat="47.40687" lon="-2.16717">
        <ele>60.1</ele>
        <time>2011-11-13T07:57:51Z</time>
      </trkpt>
      <trkpt lat="47.40682" lon="-2.16726">
        <ele>60.3</ele>
        <time>2011-11-13T07:57:53Z</time>
      </trkpt>
      <trkpt lat="47.40679" lon="-2.16736">
        <ele>60.1</ele>
        <time>2011-11-13T07:57:55Z</time>
      </trkpt>
      <trkpt lat="47.40674" lon="-2.16746">
        <ele>59.4</ele>
        <time>2011-11-13T07:57:57Z</time>
      </trkpt>
      <trkpt lat="47.40669" lon="-2.16757">
        <ele>58.1</ele>
        <time>2011-11-13T07:57:59Z</time>
      </trkpt>
      <trkpt lat="47.40666" lon="-2.16765">
        <ele>57.2</ele>
        <time>2011-11-13T07:58:01Z</time>
      </trkpt>
      <trkpt lat="47.4066" lon="-2.16775">
        <ele>56.9</ele>
        <time>2011-11-13T07:58:03Z</time>
      </trkpt>
      <trkpt lat="47.40655" lon="-2.16785">
        <ele>55.7</ele>
        <time>2011-11-13T07:58:05Z</time>
      </trkpt>
      <trkpt lat="47.40652" lon="-2.16791">
        <ele>55.8</ele>
        <time>2011-11-13T07:58:07Z</time>
      </trkpt>
      <trkpt lat="47.40646" lon="-2.16797">
        <ele>55.1</ele>
        <time>2011-11-13T07:58:10Z</time>
      </trkpt>
      <trkpt lat="47.40644" lon="-2.16802">
        <ele>55.1</ele>
        <time>2011-11-13T07:58:12Z</time>
      </trkpt>
      <trkpt lat="47.40635" lon="-2.16799">
        <ele>53.8</ele>
        <time>2011-11-13T07:58:15Z</time>
      </trkpt>
      <trkpt lat="47.4063" lon="-2.16795">
        <ele>52.1</ele>
        <time>2011-11-13T07:58:16Z</time>
      </trkpt>
      <trkpt lat="47.40625" lon="-2.16793">
        <ele>52.5</ele>
        <time>2011-11-13T07:58:18Z</time>
      </trkpt>
      <trkpt lat="47.4062" lon="-2.16793">
        <ele>54.7</ele>
        <time>2011-11-13T07:58:25Z</time>
      </trkpt>
      <trkpt lat="47.40614" lon="-2.16786">
        <ele>55</ele>
        <time>2011-11-13T07:58:29Z</time>
      </trkpt>
      <trkpt lat="47.4061" lon="-2.16783">
        <ele>55.9</ele>
        <time>2011-11-13T07:58:31Z</time>
      </trkpt>
      <trkpt lat="47.40606" lon="-2.16778">
        <ele>57.8</ele>
        <time>2011-11-13T07:58:33Z</time>
      </trkpt>
      <trkpt lat="47.40599" lon="-2.16783">
        <ele>57.9</ele>
        <time>2011-11-13T07:58:35Z</time>
      </trkpt>
      <trkpt lat="47.40593" lon="-2.16785">
        <ele>56.4</ele>
        <time>2011-11-13T07:58:36Z</time>
      </trkpt>
      <trkpt lat="47.40583" lon="-2.16784">
        <ele>54.6</ele>
        <time>2011-11-13T07:58:38Z</time>
      </trkpt>
      <trkpt lat="47.40575" lon="-2.16782">
        <ele>54.9</ele>
        <time>2011-11-13T07:58:40Z</time>
      </trkpt>
      <trkpt lat="47.4057" lon="-2.16777">
        <ele>55.9</ele>
        <time>2011-11-13T07:58:41Z</time>
      </trkpt>
      <trkpt lat="47.40559" lon="-2.16763">
        <ele>55.6</ele>
        <time>2011-11-13T07:58:42Z</time>
      </trkpt>
      <trkpt lat="47.40556" lon="-2.16752">
        <ele>56.6</ele>
        <time>2011-11-13T07:58:44Z</time>
      </trkpt>
      <trkpt lat="47.40552" lon="-2.16745">
        <ele>56.5</ele>
        <time>2011-11-13T07:58:46Z</time>
      </trkpt>
      <trkpt lat="47.40549" lon="-2.1674">
        <ele>57.9</ele>
        <time>2011-11-13T07:58:48Z</time>
      </trkpt>
      <trkpt lat="47.40541" lon="-2.16746">
        <ele>58.3</ele>
        <time>2011-11-13T07:58:52Z</time>
      </trkpt>
      <trkpt lat="47.40537" lon="-2.1675">
        <ele>57.4</ele>
        <time>2011-11-13T07:58:53Z</time>
      </trkpt>
      <trkpt lat="47.40533" lon="-2.16754">
        <ele>56.8</ele>
        <time>2011-11-13T07:58:54Z</time>
      </trkpt>
      <trkpt lat="47.40524" lon="-2.1676">
        <ele>56.9</ele>
        <time>2011-11-13T07:58:56Z</time>
      </trkpt>
      <trkpt lat="47.40519" lon="-2.16763">
        <ele>56.9</ele>
        <time>2011-11-13T07:58:57Z</time>
      </trkpt>
      <trkpt lat="47.40515" lon="-2.16766">
        <ele>56.7</ele>
        <time>2011-11-13T07:58:58Z</time>
      </trkpt>
      <trkpt lat="47.4051" lon="-2.16768">
        <ele>56.8</ele>
        <time>2011-11-13T07:58:59Z</time>
      </trkpt>
      <trkpt lat="47.40504" lon="-2.1677">
        <ele>56.9</ele>
        <time>2011-11-13T07:59:00Z</time>
      </trkpt>
      <trkpt lat="47.40498" lon="-2.1677">
        <ele>57.2</ele>
        <time>2011-11-13T07:59:01Z</time>
      </trkpt>
      <trkpt lat="47.40493" lon="-2.1677">
        <ele>57</ele>
        <time>2011-11-13T07:59:02Z</time>
      </trkpt>
      <trkpt lat="47.40488" lon="-2.16772">
        <ele>57.1</ele>
        <time>2011-11-13T07:59:03Z</time>
      </trkpt>
      <trkpt lat="47.40487" lon="-2.1675">
        <ele>56.3</ele>
        <time>2011-11-13T07:59:04Z</time>
      </trkpt>
      <trkpt lat="47.40487" lon="-2.16719">
        <ele>54.9</ele>
        <time>2011-11-13T07:59:05Z</time>
      </trkpt>
      <trkpt lat="47.40498" lon="-2.16705">
        <ele>55</ele>
        <time>2011-11-13T07:59:06Z</time>
      </trkpt>
      <trkpt lat="47.405" lon="-2.16695">
        <ele>55</ele>
        <time>2011-11-13T07:59:08Z</time>
      </trkpt>
      <trkpt lat="47.40494" lon="-2.16691">
        <ele>56.3</ele>
        <time>2011-11-13T07:59:15Z</time>
      </trkpt>
      <trkpt lat="47.40485" lon="-2.1669">
        <ele>56.4</ele>
        <time>2011-11-13T07:59:18Z</time>
      </trkpt>
      <trkpt lat="47.4048" lon="-2.16686">
        <ele>56.8</ele>
        <time>2011-11-13T07:59:21Z</time>
      </trkpt>
      <trkpt lat="47.40474" lon="-2.16684">
        <ele>57.8</ele>
        <time>2011-11-13T07:59:23Z</time>
      </trkpt>
      <trkpt lat="47.40468" lon="-2.1668">
        <ele>60</ele>
        <time>2011-11-13T07:59:26Z</time>
      </trkpt>
      <trkpt lat="47.40463" lon="-2.16678">
        <ele>60.5</ele>
        <time>2011-11-13T07:59:28Z</time>
      </trkpt>
      <trkpt lat="47.40458" lon="-2.16673">
        <ele>61.1</ele>
        <time>2011-11-13T07:59:30Z</time>
      </trkpt>
      <trkpt lat="47.40453" lon="-2.16669">
        <ele>60.2</ele>
        <time>2011-11-13T07:59:31Z</time>
      </trkpt>
      <trkpt lat="47.40446" lon="-2.16665">
        <ele>60.6</ele>
        <time>2011-11-13T07:59:33Z</time>
      </trkpt>
      <trkpt lat="47.40442" lon="-2.16661">
        <ele>61.7</ele>
        <time>2011-11-13T07:59:35Z</time>
      </trkpt>
      <trkpt lat="47.40436" lon="-2.16662">
        <ele>62</ele>
        <time>2011-11-13T07:59:37Z</time>
      </trkpt>
      <trkpt lat="47.4043" lon="-2.16668">
        <ele>64.6</ele>
        <time>2011-11-13T07:59:39Z</time>
      </trkpt>
      <trkpt lat="47.4042" lon="-2.1667">
        <ele>62.4</ele>
        <time>2011-11-13T07:59:41Z</time>
      </trkpt>
      <trkpt lat="47.40414" lon="-2.16675">
        <ele>63</ele>
        <time>2011-11-13T07:59:44Z</time>
      </trkpt>
      <trkpt lat="47.40409" lon="-2.16678">
        <ele>63.5</ele>
        <time>2011-11-13T07:59:46Z</time>
      </trkpt>
      <trkpt lat="47.40408" lon="-2.16671">
        <ele>63.8</ele>
        <time>2011-11-13T07:59:47Z</time>
      </trkpt>
      <trkpt lat="47.40402" lon="-2.16668">
        <ele>64.8</ele>
        <time>2011-11-13T07:59:49Z</time>
      </trkpt>
      <trkpt lat="47.40397" lon="-2.16668">
        <ele>65.2</ele>
        <time>2011-11-13T07:59:51Z</time>
      </trkpt>
      <trkpt lat="47.40393" lon="-2.16669">
        <ele>65.7</ele>
        <time>2011-11-13T07:59:53Z</time>
      </trkpt>
      <trkpt lat="47.40386" lon="-2.16669">
        <ele>64.2</ele>
        <time>2011-11-13T07:59:54Z</time>
      </trkpt>
      <trkpt lat="47.40382" lon="-2.16666">
        <ele>63.7</ele>
        <time>2011-11-13T07:59:56Z</time>
      </trkpt>
      <trkpt lat="47.40373" lon="-2.16666">
        <ele>62.3</ele>
        <time>2011-11-13T07:59:58Z</time>
      </trkpt>
      <trkpt lat="47.40367" lon="-2.16664">
        <ele>58.8</ele>
        <time>2011-11-13T07:59:59Z</time>
      </trkpt>
      <trkpt lat="47.40361" lon="-2.16668">
        <ele>57</ele>
        <time>2011-11-13T08:00:01Z</time>
      </trkpt>
      <trkpt lat="47.40357" lon="-2.16674">
        <ele>56.8</ele>
        <time>2011-11-13T08:00:04Z</time>
      </trkpt>
      <trkpt lat="47.40355" lon="-2.16682">
        <ele>59.3</ele>
        <time>2011-11-13T08:00:07Z</time>
      </trkpt>
      <trkpt lat="47.40349" lon="-2.16687">
        <ele>59.6</ele>
        <time>2011-11-13T08:00:11Z</time>
      </trkpt>
      <trkpt lat="47.40344" lon="-2.16691">
        <ele>59.9</ele>
        <time>2011-11-13T08:00:14Z</time>
      </trkpt>
      <trkpt lat="47.40338" lon="-2.16693">
        <ele>60.2</ele>
        <time>2011-11-13T08:00:16Z</time>
      </trkpt>
      <trkpt lat="47.40334" lon="-2.16697">
        <ele>58.9</ele>
        <time>2011-11-13T08:00:19Z</time>
      </trkpt>
      <trkpt lat="47.40329" lon="-2.167">
        <ele>57.2</ele>
        <time>2011-11-13T08:00:22Z</time>
      </trkpt>
      <trkpt lat="47.40327" lon="-2.16707">
        <ele>56.2</ele>
        <time>2011-11-13T08:00:25Z</time>
      </trkpt>
      <trkpt lat="47.40322" lon="-2.16712">
        <ele>56.4</ele>
        <time>2011-11-13T08:00:27Z</time>
      </trkpt>
      <trkpt lat="47.40317" lon="-2.16715">
        <ele>55</ele>
        <time>2011-11-13T08:00:28Z</time>
      </trkpt>
      <trkpt lat="47.40313" lon="-2.16718">
        <ele>53.2</ele>
        <time>2011-11-13T08:00:30Z</time>
      </trkpt>
      <trkpt lat="47.40308" lon="-2.16722">
        <ele>53.8</ele>
        <time>2011-11-13T08:00:33Z</time>
      </trkpt>
      <trkpt lat="47.40299" lon="-2.16728">
        <ele>53.1</ele>
        <time>2011-11-13T08:00:35Z</time>
      </trkpt>
      <trkpt lat="47.40295" lon="-2.16737">
        <ele>53.7</ele>
        <time>2011-11-13T08:00:37Z</time>
      </trkpt>
      <trkpt lat="47.40299" lon="-2.16744">
        <ele>54.8</ele>
        <time>2011-11-13T08:00:40Z</time>
      </trkpt>
      <trkpt lat="47.403" lon="-2.16754">
        <ele>54.6</ele>
        <time>2011-11-13T08:00:42Z</time>
      </trkpt>
      <trkpt lat="47.40304" lon="-2.16762">
        <ele>54.9</ele>
        <time>2011-11-13T08:00:44Z</time>
      </trkpt>
      <trkpt lat="47.40306" lon="-2.16767">
        <ele>55.1</ele>
        <time>2011-11-13T08:00:45Z</time>
      </trkpt>
      <trkpt lat="47.4031" lon="-2.16775">
        <ele>54.5</ele>
        <time>2011-11-13T08:00:47Z</time>
      </trkpt>
      <trkpt lat="47.40311" lon="-2.16783">
        <ele>56.4</ele>
        <time>2011-11-13T08:00:51Z</time>
      </trkpt>
      <trkpt lat="47.40314" lon="-2.16789">
        <ele>55.4</ele>
        <time>2011-11-13T08:00:54Z</time>
      </trkpt>
      <trkpt lat="47.4032" lon="-2.16786">
        <ele>56.5</ele>
        <time>2011-11-13T08:00:58Z</time>
      </trkpt>
      <trkpt lat="47.40324" lon="-2.16782">
        <ele>56.5</ele>
        <time>2011-11-13T08:01:00Z</time>
      </trkpt>
      <trkpt lat="47.40331" lon="-2.16785">
        <ele>56.4</ele>
        <time>2011-11-13T08:01:02Z</time>
      </trkpt>
      <trkpt lat="47.40336" lon="-2.16783">
        <ele>56.2</ele>
        <time>2011-11-13T08:01:04Z</time>
      </trkpt>
      <trkpt lat="47.40341" lon="-2.16786">
        <ele>55.5</ele>
        <time>2011-11-13T08:01:06Z</time>
      </trkpt>
      <trkpt lat="47.40347" lon="-2.16791">
        <ele>55.9</ele>
        <time>2011-11-13T08:01:09Z</time>
      </trkpt>
      <trkpt lat="47.40351" lon="-2.16788">
        <ele>55.1</ele>
        <time>2011-11-13T08:01:11Z</time>
      </trkpt>
      <trkpt lat="47.40356" lon="-2.16783">
        <ele>54.5</ele>
        <time>2011-11-13T08:01:13Z</time>
      </trkpt>
      <trkpt lat="47.40362" lon="-2.1678">
        <ele>55.9</ele>
        <time>2011-11-13T08:01:16Z</time>
      </trkpt>
      <trkpt lat="47.40365" lon="-2.16784">
        <ele>55.8</ele>
        <time>2011-11-13T08:01:18Z</time>
      </trkpt>
      <trkpt lat="47.4037" lon="-2.16787">
        <ele>54.9</ele>
        <time>2011-11-13T08:01:20Z</time>
      </trkpt>
      <trkpt lat="47.40373" lon="-2.16794">
        <ele>56.2</ele>
        <time>2011-11-13T08:01:22Z</time>
      </trkpt>
      <trkpt lat="47.40377" lon="-2.16802">
        <ele>58.5</ele>
        <time>2011-11-13T08:01:25Z</time>
      </trkpt>
      <trkpt lat="47.40378" lon="-2.1681">
        <ele>59.5</ele>
        <time>2011-11-13T08:01:28Z</time>
      </trkpt>
      <trkpt lat="47.40375" lon="-2.16816">
        <ele>59.6</ele>
        <time>2011-11-13T08:01:30Z</time>
      </trkpt>
      <trkpt lat="47.40372" lon="-2.1682">
        <ele>59.5</ele>
        <time>2011-11-13T08:01:32Z</time>
      </trkpt>
      <trkpt lat="47.40367" lon="-2.16822">
        <ele>58.8</ele>
        <time>2011-11-13T08:01:34Z</time>
      </trkpt>
      <trkpt lat="47.40362" lon="-2.16821">
        <ele>58.7</ele>
        <time>2011-11-13T08:01:36Z</time>
      </trkpt>
      <trkpt lat="47.40356" lon="-2.16819">
        <ele>57.9</ele>
        <time>2011-11-13T08:01:46Z</time>
      </trkpt>
      <trkpt lat="47.40346" lon="-2.16814">
        <ele>56.9</ele>
        <time>2011-11-13T08:01:49Z</time>
      </trkpt>
      <trkpt lat="47.40341" lon="-2.16812">
        <ele>56.8</ele>
        <time>2011-11-13T08:01:50Z</time>
      </trkpt>
      <trkpt lat="47.40341" lon="-2.16805">
        <ele>56.5</ele>
        <time>2011-11-13T08:01:51Z</time>
      </trkpt>
      <trkpt lat="47.40338" lon="-2.16799">
        <ele>56.4</ele>
        <time>2011-11-13T08:01:53Z</time>
      </trkpt>
      <trkpt lat="47.40332" lon="-2.16796">
        <ele>57.6</ele>
        <time>2011-11-13T08:01:56Z</time>
      </trkpt>
      <trkpt lat="47.40328" lon="-2.16795">
        <ele>59</ele>
        <time>2011-11-13T08:01:58Z</time>
      </trkpt>
      <trkpt lat="47.40327" lon="-2.16802">
        <ele>58.7</ele>
        <time>2011-11-13T08:02:01Z</time>
      </trkpt>
      <trkpt lat="47.40327" lon="-2.16809">
        <ele>59</ele>
        <time>2011-11-13T08:02:04Z</time>
      </trkpt>
      <trkpt lat="47.40329" lon="-2.16815">
        <ele>59.6</ele>
        <time>2011-11-13T08:02:07Z</time>
      </trkpt>
      <trkpt lat="47.40334" lon="-2.16819">
        <ele>59.1</ele>
        <time>2011-11-13T08:02:11Z</time>
      </trkpt>
      <trkpt lat="47.40338" lon="-2.16821">
        <ele>59</ele>
        <time>2011-11-13T08:02:14Z</time>
      </trkpt>
      <trkpt lat="47.40341" lon="-2.16829">
        <ele>59.4</ele>
        <time>2011-11-13T08:02:17Z</time>
      </trkpt>
      <trkpt lat="47.40345" lon="-2.16836">
        <ele>59.1</ele>
        <time>2011-11-13T08:02:19Z</time>
      </trkpt>
      <trkpt lat="47.4035" lon="-2.16844">
        <ele>58.1</ele>
        <time>2011-11-13T08:02:21Z</time>
      </trkpt>
      <trkpt lat="47.40354" lon="-2.1685">
        <ele>57.8</ele>
        <time>2011-11-13T08:02:23Z</time>
      </trkpt>
      <trkpt lat="47.40358" lon="-2.16857">
        <ele>57.6</ele>
        <time>2011-11-13T08:02:26Z</time>
      </trkpt>
      <trkpt lat="47.40355" lon="-2.16852">
        <ele>57</ele>
        <time>2011-11-13T08:02:28Z</time>
      </trkpt>
      <trkpt lat="47.40354" lon="-2.16845">
        <ele>56.8</ele>
        <time>2011-11-13T08:02:31Z</time>
      </trkpt>
      <trkpt lat="47.40362" lon="-2.1684">
        <ele>58</ele>
        <time>2011-11-13T08:02:33Z</time>
      </trkpt>
      <trkpt lat="47.40369" lon="-2.16838">
        <ele>58.8</ele>
        <time>2011-11-13T08:02:35Z</time>
      </trkpt>
      <trkpt lat="47.40373" lon="-2.16835">
        <ele>59.2</ele>
        <time>2011-11-13T08:02:37Z</time>
      </trkpt>
      <trkpt lat="47.40379" lon="-2.16831">
        <ele>58.6</ele>
        <time>2011-11-13T08:02:39Z</time>
      </trkpt>
      <trkpt lat="47.40384" lon="-2.16829">
        <ele>58.6</ele>
        <time>2011-11-13T08:02:41Z</time>
      </trkpt>
      <trkpt lat="47.40388" lon="-2.16822">
        <ele>58.6</ele>
        <time>2011-11-13T08:02:44Z</time>
      </trkpt>
      <trkpt lat="47.40394" lon="-2.16816">
        <ele>58.6</ele>
        <time>2011-11-13T08:02:46Z</time>
      </trkpt>
      <trkpt lat="47.40398" lon="-2.16819">
        <ele>58.3</ele>
        <time>2011-11-13T08:02:48Z</time>
      </trkpt>
      <trkpt lat="47.40402" lon="-2.16827">
        <ele>57.9</ele>
        <time>2011-11-13T08:02:50Z</time>
      </trkpt>
      <trkpt lat="47.40398" lon="-2.16835">
        <ele>58.9</ele>
        <time>2011-11-13T08:02:52Z</time>
      </trkpt>
      <trkpt lat="47.40396" lon="-2.16842">
        <ele>59.4</ele>
        <time>2011-11-13T08:02:54Z</time>
      </trkpt>
      <trkpt lat="47.40393" lon="-2.16848">
        <ele>59.8</ele>
        <time>2011-11-13T08:02:57Z</time>
      </trkpt>
      <trkpt lat="47.40383" lon="-2.16847">
        <ele>60.6</ele>
        <time>2011-11-13T08:02:59Z</time>
      </trkpt>
      <trkpt lat="47.40377" lon="-2.16854">
        <ele>61.6</ele>
        <time>2011-11-13T08:03:01Z</time>
      </trkpt>
      <trkpt lat="47.4037" lon="-2.16857">
        <ele>60.7</ele>
        <time>2011-11-13T08:03:02Z</time>
      </trkpt>
      <trkpt lat="47.40366" lon="-2.16862">
        <ele>59.9</ele>
        <time>2011-11-13T08:03:04Z</time>
      </trkpt>
      <trkpt lat="47.40362" lon="-2.16868">
        <ele>60.3</ele>
        <time>2011-11-13T08:03:05Z</time>
      </trkpt>
      <trkpt lat="47.40357" lon="-2.16878">
        <ele>59.9</ele>
        <time>2011-11-13T08:03:07Z</time>
      </trkpt>
      <trkpt lat="47.40354" lon="-2.16889">
        <ele>58.9</ele>
        <time>2011-11-13T08:03:09Z</time>
      </trkpt>
      <trkpt lat="47.40355" lon="-2.16896">
        <ele>59.8</ele>
        <time>2011-11-13T08:03:10Z</time>
      </trkpt>
      <trkpt lat="47.40359" lon="-2.16885">
        <ele>60.7</ele>
        <time>2011-11-13T08:03:13Z</time>
      </trkpt>
      <trkpt lat="47.40365" lon="-2.16877">
        <ele>63</ele>
        <time>2011-11-13T08:03:15Z</time>
      </trkpt>
      <trkpt lat="47.40369" lon="-2.16868">
        <ele>63.8</ele>
        <time>2011-11-13T08:03:17Z</time>
      </trkpt>
      <trkpt lat="47.40374" lon="-2.1686">
        <ele>63.8</ele>
        <time>2011-11-13T08:03:19Z</time>
      </trkpt>
      <trkpt lat="47.40377" lon="-2.16852">
        <ele>62.7</ele>
        <time>2011-11-13T08:03:21Z</time>
      </trkpt>
      <trkpt lat="47.40383" lon="-2.16846">
        <ele>61.8</ele>
        <time>2011-11-13T08:03:23Z</time>
      </trkpt>
      <trkpt lat="47.40389" lon="-2.16843">
        <ele>61.9</ele>
        <time>2011-11-13T08:03:25Z</time>
      </trkpt>
      <trkpt lat="47.40396" lon="-2.16841">
        <ele>61.9</ele>
        <time>2011-11-13T08:03:27Z</time>
      </trkpt>
      <trkpt lat="47.404" lon="-2.16841">
        <ele>61.2</ele>
        <time>2011-11-13T08:03:28Z</time>
      </trkpt>
      <trkpt lat="47.40405" lon="-2.16843">
        <ele>60.8</ele>
        <time>2011-11-13T08:03:29Z</time>
      </trkpt>
      <trkpt lat="47.40413" lon="-2.16846">
        <ele>60.6</ele>
        <time>2011-11-13T08:03:31Z</time>
      </trkpt>
      <trkpt lat="47.40415" lon="-2.16855">
        <ele>59.9</ele>
        <time>2011-11-13T08:03:32Z</time>
      </trkpt>
      <trkpt lat="47.40413" lon="-2.16863">
        <ele>59</ele>
        <time>2011-11-13T08:03:33Z</time>
      </trkpt>
      <trkpt lat="47.40411" lon="-2.16871">
        <ele>58.5</ele>
        <time>2011-11-13T08:03:35Z</time>
      </trkpt>
      <trkpt lat="47.40406" lon="-2.16874">
        <ele>57.7</ele>
        <time>2011-11-13T08:03:38Z</time>
      </trkpt>
      <trkpt lat="47.404" lon="-2.16867">
        <ele>60.1</ele>
        <time>2011-11-13T08:03:41Z</time>
      </trkpt>
      <trkpt lat="47.40392" lon="-2.16874">
        <ele>60.1</ele>
        <time>2011-11-13T08:03:43Z</time>
      </trkpt>
      <trkpt lat="47.40388" lon="-2.16878">
        <ele>61.5</ele>
        <time>2011-11-13T08:03:45Z</time>
      </trkpt>
      <trkpt lat="47.40382" lon="-2.16878">
        <ele>61</ele>
        <time>2011-11-13T08:03:48Z</time>
      </trkpt>
      <trkpt lat="47.40377" lon="-2.16878">
        <ele>59.6</ele>
        <time>2011-11-13T08:03:50Z</time>
      </trkpt>
      <trkpt lat="47.40378" lon="-2.16886">
        <ele>58.1</ele>
        <time>2011-11-13T08:03:53Z</time>
      </trkpt>
      <trkpt lat="47.40384" lon="-2.16892">
        <ele>58</ele>
        <time>2011-11-13T08:03:55Z</time>
      </trkpt>
      <trkpt lat="47.40389" lon="-2.16896">
        <ele>57.1</ele>
        <time>2011-11-13T08:03:57Z</time>
      </trkpt>
      <trkpt lat="47.40395" lon="-2.16897">
        <ele>56.5</ele>
        <time>2011-11-13T08:04:00Z</time>
      </trkpt>
      <trkpt lat="47.40385" lon="-2.16901">
        <ele>58.1</ele>
        <time>2011-11-13T08:04:03Z</time>
      </trkpt>
      <trkpt lat="47.4038" lon="-2.16905">
        <ele>58.8</ele>
        <time>2011-11-13T08:04:05Z</time>
      </trkpt>
      <trkpt lat="47.40374" lon="-2.16907">
        <ele>57.7</ele>
        <time>2011-11-13T08:04:07Z</time>
      </trkpt>
      <trkpt lat="47.40381" lon="-2.1691">
        <ele>56.2</ele>
        <time>2011-11-13T08:04:14Z</time>
      </trkpt>
      <trkpt lat="47.40385" lon="-2.16906">
        <ele>55.9</ele>
        <time>2011-11-13T08:04:17Z</time>
      </trkpt>
      <trkpt lat="47.40383" lon="-2.16915">
        <ele>58.1</ele>
        <time>2011-11-13T08:04:31Z</time>
      </trkpt>
      <trkpt lat="47.40387" lon="-2.1691">
        <ele>57.6</ele>
        <time>2011-11-13T08:04:34Z</time>
      </trkpt>
      <trkpt lat="47.40382" lon="-2.16907">
        <ele>55.8</ele>
        <time>2011-11-13T08:04:38Z</time>
      </trkpt>
      <trkpt lat="47.40383" lon="-2.16896">
        <ele>55</ele>
        <time>2011-11-13T08:04:42Z</time>
      </trkpt>
      <trkpt lat="47.40385" lon="-2.16888">
        <ele>55.8</ele>
        <time>2011-11-13T08:04:44Z</time>
      </trkpt>
      <trkpt lat="47.4039" lon="-2.16881">
        <ele>55.4</ele>
        <time>2011-11-13T08:04:46Z</time>
      </trkpt>
      <trkpt lat="47.40394" lon="-2.16878">
        <ele>54.1</ele>
        <time>2011-11-13T08:04:47Z</time>
      </trkpt>
      <trkpt lat="47.404" lon="-2.16873">
        <ele>54.7</ele>
        <time>2011-11-13T08:04:50Z</time>
      </trkpt>
      <trkpt lat="47.40405" lon="-2.16881">
        <ele>54.7</ele>
        <time>2011-11-13T08:04:52Z</time>
      </trkpt>
      <trkpt lat="47.40408" lon="-2.16888">
        <ele>54.2</ele>
        <time>2011-11-13T08:04:54Z</time>
      </trkpt>
      <trkpt lat="47.40411" lon="-2.16894">
        <ele>56.3</ele>
        <time>2011-11-13T08:04:57Z</time>
      </trkpt>
      <trkpt lat="47.40412" lon="-2.16901">
        <ele>56</ele>
        <time>2011-11-13T08:04:59Z</time>
      </trkpt>
      <trkpt lat="47.40411" lon="-2.16908">
        <ele>56.8</ele>
        <time>2011-11-13T08:05:01Z</time>
      </trkpt>
      <trkpt lat="47.40409" lon="-2.16917">
        <ele>57.5</ele>
        <time>2011-11-13T08:05:04Z</time>
      </trkpt>
      <trkpt lat="47.40406" lon="-2.16923">
        <ele>58.3</ele>
        <time>2011-11-13T08:05:06Z</time>
      </trkpt>
      <trkpt lat="47.404" lon="-2.1693">
        <ele>60.3</ele>
        <time>2011-11-13T08:05:09Z</time>
      </trkpt>
      <trkpt lat="47.40395" lon="-2.16932">
        <ele>60</ele>
        <time>2011-11-13T08:05:12Z</time>
      </trkpt>
      <trkpt lat="47.4039" lon="-2.16932">
        <ele>59.7</ele>
        <time>2011-11-13T08:05:15Z</time>
      </trkpt>
      <trkpt lat="47.40384" lon="-2.16931">
        <ele>59.5</ele>
        <time>2011-11-13T08:05:18Z</time>
      </trkpt>
      <trkpt lat="47.40378" lon="-2.16929">
        <ele>61</ele>
        <time>2011-11-13T08:05:20Z</time>
      </trkpt>
      <trkpt lat="47.40373" lon="-2.16931">
        <ele>62.5</ele>
        <time>2011-11-13T08:05:21Z</time>
      </trkpt>
      <trkpt lat="47.40368" lon="-2.16933">
        <ele>62.4</ele>
        <time>2011-11-13T08:05:22Z</time>
      </trkpt>
      <trkpt lat="47.40364" lon="-2.16936">
        <ele>61.2</ele>
        <time>2011-11-13T08:05:23Z</time>
      </trkpt>
      <trkpt lat="47.4036" lon="-2.16941">
        <ele>59.5</ele>
        <time>2011-11-13T08:05:24Z</time>
      </trkpt>
      <trkpt lat="47.40355" lon="-2.16952">
        <ele>60.8</ele>
        <time>2011-11-13T08:05:26Z</time>
      </trkpt>
      <trkpt lat="47.40348" lon="-2.16958">
        <ele>62.3</ele>
        <time>2011-11-13T08:05:28Z</time>
      </trkpt>
      <trkpt lat="47.40345" lon="-2.16943">
        <ele>59.2</ele>
        <time>2011-11-13T08:05:29Z</time>
      </trkpt>
      <trkpt lat="47.40347" lon="-2.16931">
        <ele>57.6</ele>
        <time>2011-11-13T08:05:30Z</time>
      </trkpt>
      <trkpt lat="47.40346" lon="-2.1692">
        <ele>56.7</ele>
        <time>2011-11-13T08:05:32Z</time>
      </trkpt>
      <trkpt lat="47.40344" lon="-2.16911">
        <ele>56.2</ele>
        <time>2011-11-13T08:05:34Z</time>
      </trkpt>
      <trkpt lat="47.40339" lon="-2.16913">
        <ele>56.9</ele>
        <time>2011-11-13T08:05:37Z</time>
      </trkpt>
      <trkpt lat="47.40339" lon="-2.16924">
        <ele>56.8</ele>
        <time>2011-11-13T08:05:40Z</time>
      </trkpt>
      <trkpt lat="47.40332" lon="-2.1694">
        <ele>56.1</ele>
        <time>2011-11-13T08:05:42Z</time>
      </trkpt>
      <trkpt lat="47.40327" lon="-2.16948">
        <ele>56.1</ele>
        <time>2011-11-13T08:05:43Z</time>
      </trkpt>
      <trkpt lat="47.40322" lon="-2.16956">
        <ele>55.7</ele>
        <time>2011-11-13T08:05:45Z</time>
      </trkpt>
      <trkpt lat="47.4032" lon="-2.16962">
        <ele>55.6</ele>
        <time>2011-11-13T08:05:47Z</time>
      </trkpt>
      <trkpt lat="47.40314" lon="-2.16968">
        <ele>55.5</ele>
        <time>2011-11-13T08:05:48Z</time>
      </trkpt>
      <trkpt lat="47.40306" lon="-2.1697">
        <ele>57.4</ele>
        <time>2011-11-13T08:05:51Z</time>
      </trkpt>
      <trkpt lat="47.40299" lon="-2.16969">
        <ele>58</ele>
        <time>2011-11-13T08:05:53Z</time>
      </trkpt>
      <trkpt lat="47.40295" lon="-2.16973">
        <ele>58</ele>
        <time>2011-11-13T08:05:55Z</time>
      </trkpt>
      <trkpt lat="47.40291" lon="-2.1698">
        <ele>58.4</ele>
        <time>2011-11-13T08:05:57Z</time>
      </trkpt>
      <trkpt lat="47.40287" lon="-2.16988">
        <ele>59.2</ele>
        <time>2011-11-13T08:05:59Z</time>
      </trkpt>
      <trkpt lat="47.40281" lon="-2.16991">
        <ele>59.5</ele>
        <time>2011-11-13T08:06:00Z</time>
      </trkpt>
      <trkpt lat="47.40276" lon="-2.16998">
        <ele>59.3</ele>
        <time>2011-11-13T08:06:02Z</time>
      </trkpt>
      <trkpt lat="47.40269" lon="-2.17">
        <ele>59.2</ele>
        <time>2011-11-13T08:06:04Z</time>
      </trkpt>
      <trkpt lat="47.40262" lon="-2.16999">
        <ele>57.4</ele>
        <time>2011-11-13T08:06:05Z</time>
      </trkpt>
      <trkpt lat="47.40262" lon="-2.16986">
        <ele>57.7</ele>
        <time>2011-11-13T08:06:09Z</time>
      </trkpt>
      <trkpt lat="47.40264" lon="-2.16978">
        <ele>56.4</ele>
        <time>2011-11-13T08:06:14Z</time>
      </trkpt>
      <trkpt lat="47.40261" lon="-2.1697">
        <ele>55.7</ele>
        <time>2011-11-13T08:06:16Z</time>
      </trkpt>
      <trkpt lat="47.40258" lon="-2.16964">
        <ele>56.4</ele>
        <time>2011-11-13T08:06:18Z</time>
      </trkpt>
      <trkpt lat="47.40255" lon="-2.16954">
        <ele>56.1</ele>
        <time>2011-11-13T08:06:21Z</time>
      </trkpt>
      <trkpt lat="47.40253" lon="-2.16946">
        <ele>56</ele>
        <time>2011-11-13T08:06:24Z</time>
      </trkpt>
      <trkpt lat="47.40251" lon="-2.16937">
        <ele>55.4</ele>
        <time>2011-11-13T08:06:25Z</time>
      </trkpt>
      <trkpt lat="47.40252" lon="-2.1693">
        <ele>54.9</ele>
        <time>2011-11-13T08:06:26Z</time>
      </trkpt>
      <trkpt lat="47.40259" lon="-2.1692">
        <ele>55</ele>
        <time>2011-11-13T08:06:29Z</time>
      </trkpt>
      <trkpt lat="47.40264" lon="-2.16918">
        <ele>57.3</ele>
        <time>2011-11-13T08:06:31Z</time>
      </trkpt>
      <trkpt lat="47.40269" lon="-2.16917">
        <ele>58.8</ele>
        <time>2011-11-13T08:06:33Z</time>
      </trkpt>
      <trkpt lat="47.40275" lon="-2.16916">
        <ele>59.5</ele>
        <time>2011-11-13T08:06:35Z</time>
      </trkpt>
      <trkpt lat="47.40278" lon="-2.1692">
        <ele>58.6</ele>
        <time>2011-11-13T08:06:37Z</time>
      </trkpt>
      <trkpt lat="47.40283" lon="-2.16924">
        <ele>56.1</ele>
        <time>2011-11-13T08:06:39Z</time>
      </trkpt>
      <trkpt lat="47.40283" lon="-2.16931">
        <ele>56.7</ele>
        <time>2011-11-13T08:06:42Z</time>
      </trkpt>
      <trkpt lat="47.4029" lon="-2.16935">
        <ele>58.2</ele>
        <time>2011-11-13T08:06:46Z</time>
      </trkpt>
      <trkpt lat="47.40295" lon="-2.16938">
        <ele>57.2</ele>
        <time>2011-11-13T08:06:50Z</time>
      </trkpt>
      <trkpt lat="47.403" lon="-2.16942">
        <ele>55.9</ele>
        <time>2011-11-13T08:06:53Z</time>
      </trkpt>
      <trkpt lat="47.40302" lon="-2.16935">
        <ele>53.2</ele>
        <time>2011-11-13T08:06:56Z</time>
      </trkpt>
      <trkpt lat="47.40306" lon="-2.1693">
        <ele>54.8</ele>
        <time>2011-11-13T08:07:00Z</time>
      </trkpt>
      <trkpt lat="47.40304" lon="-2.16923">
        <ele>54.7</ele>
        <time>2011-11-13T08:07:06Z</time>
      </trkpt>
      <trkpt lat="47.403" lon="-2.16916">
        <ele>54.6</ele>
        <time>2011-11-13T08:07:09Z</time>
      </trkpt>
      <trkpt lat="47.40295" lon="-2.16913">
        <ele>54.6</ele>
        <time>2011-11-13T08:07:13Z</time>
      </trkpt>
      <trkpt lat="47.4029" lon="-2.16917">
        <ele>56.8</ele>
        <time>2011-11-13T08:07:16Z</time>
      </trkpt>
      <trkpt lat="47.40285" lon="-2.1692">
        <ele>57.8</ele>
        <time>2011-11-13T08:07:20Z</time>
      </trkpt>
      <trkpt lat="47.4028" lon="-2.16918">
        <ele>57.6</ele>
        <time>2011-11-13T08:07:25Z</time>
      </trkpt>
      <trkpt lat="47.4028" lon="-2.16918">
        <ele>57.6</ele>
        <time>2011-11-13T08:07:25Z</time>
      </trkpt>
      <trkpt lat="47.4028" lon="-2.16918">
        <ele>57.6</ele>
        <time>2011-11-13T08:07:26Z</time>
      </trkpt>
      <trkpt lat="47.40275" lon="-2.16917">
        <ele>57</ele>
        <time>2011-11-13T08:07:28Z</time>
      </trkpt>
      <trkpt lat="47.40271" lon="-2.16913">
        <ele>54.9</ele>
        <time>2011-11-13T08:07:30Z</time>
      </trkpt>
      <trkpt lat="47.40265" lon="-2.1691">
        <ele>53.6</ele>
        <time>2011-11-13T08:07:34Z</time>
      </trkpt>
      <trkpt lat="47.4026" lon="-2.1691">
        <ele>52.3</ele>
        <time>2011-11-13T08:07:35Z</time>
      </trkpt>
      <trkpt lat="47.40261" lon="-2.16903">
        <ele>51.4</ele>
        <time>2011-11-13T08:07:38Z</time>
      </trkpt>
      <trkpt lat="47.40266" lon="-2.16903">
        <ele>51.9</ele>
        <time>2011-11-13T08:07:40Z</time>
      </trkpt>
      <trkpt lat="47.40272" lon="-2.16899">
        <ele>52.6</ele>
        <time>2011-11-13T08:07:42Z</time>
      </trkpt>
      <trkpt lat="47.40278" lon="-2.16896">
        <ele>54.9</ele>
        <time>2011-11-13T08:07:45Z</time>
      </trkpt>
      <trkpt lat="47.40274" lon="-2.16892">
        <ele>53.5</ele>
        <time>2011-11-13T08:07:49Z</time>
      </trkpt>
      <trkpt lat="47.40274" lon="-2.16882">
        <ele>49.7</ele>
        <time>2011-11-13T08:07:52Z</time>
      </trkpt>
      <trkpt lat="47.40278" lon="-2.16877">
        <ele>50.2</ele>
        <time>2011-11-13T08:07:55Z</time>
      </trkpt>
      <trkpt lat="47.40286" lon="-2.16873">
        <ele>53.9</ele>
        <time>2011-11-13T08:08:01Z</time>
      </trkpt>
      <trkpt lat="47.40283" lon="-2.16864">
        <ele>57</ele>
        <time>2011-11-13T08:08:06Z</time>
      </trkpt>
      <trkpt lat="47.40278" lon="-2.16871">
        <ele>58.2</ele>
        <time>2011-11-13T08:08:11Z</time>
      </trkpt>
      <trkpt lat="47.40269" lon="-2.16872">
        <ele>60.2</ele>
        <time>2011-11-13T08:08:25Z</time>
      </trkpt>
      <trkpt lat="47.40264" lon="-2.1687">
        <ele>59.3</ele>
        <time>2011-11-13T08:08:26Z</time>
      </trkpt>
      <trkpt lat="47.40261" lon="-2.16863">
        <ele>59</ele>
        <time>2011-11-13T08:08:30Z</time>
      </trkpt>
      <trkpt lat="47.40262" lon="-2.16856">
        <ele>61.6</ele>
        <time>2011-11-13T08:08:39Z</time>
      </trkpt>
      <trkpt lat="47.40262" lon="-2.16846">
        <ele>61.9</ele>
        <time>2011-11-13T08:08:43Z</time>
      </trkpt>
      <trkpt lat="47.40256" lon="-2.16844">
        <ele>61.4</ele>
        <time>2011-11-13T08:08:46Z</time>
      </trkpt>
      <trkpt lat="47.4025" lon="-2.16842">
        <ele>59.5</ele>
        <time>2011-11-13T08:08:49Z</time>
      </trkpt>
      <trkpt lat="47.40246" lon="-2.1684">
        <ele>57</ele>
        <time>2011-11-13T08:08:52Z</time>
      </trkpt>
      <trkpt lat="47.40249" lon="-2.16834">
        <ele>56.6</ele>
        <time>2011-11-13T08:08:54Z</time>
      </trkpt>
      <trkpt lat="47.40254" lon="-2.16833">
        <ele>55.8</ele>
        <time>2011-11-13T08:08:56Z</time>
      </trkpt>
      <trkpt lat="47.40259" lon="-2.16832">
        <ele>56</ele>
        <time>2011-11-13T08:08:58Z</time>
      </trkpt>
      <trkpt lat="47.40265" lon="-2.16825">
        <ele>56.8</ele>
        <time>2011-11-13T08:09:00Z</time>
      </trkpt>
      <trkpt lat="47.4027" lon="-2.16821">
        <ele>57.2</ele>
        <time>2011-11-13T08:09:02Z</time>
      </trkpt>
      <trkpt lat="47.40274" lon="-2.16821">
        <ele>57.4</ele>
        <time>2011-11-13T08:09:04Z</time>
      </trkpt>
      <trkpt lat="47.40278" lon="-2.16826">
        <ele>59.9</ele>
        <time>2011-11-13T08:09:06Z</time>
      </trkpt>
      <trkpt lat="47.40282" lon="-2.16831">
        <ele>59.1</ele>
        <time>2011-11-13T08:09:09Z</time>
      </trkpt>
      <trkpt lat="47.4028" lon="-2.16823">
        <ele>58.5</ele>
        <time>2011-11-13T08:09:13Z</time>
      </trkpt>
      <trkpt lat="47.40276" lon="-2.1682">
        <ele>57.1</ele>
        <time>2011-11-13T08:09:17Z</time>
      </trkpt>
      <trkpt lat="47.40274" lon="-2.16812">
        <ele>58</ele>
        <time>2011-11-13T08:09:19Z</time>
      </trkpt>
      <trkpt lat="47.40275" lon="-2.16804">
        <ele>59.8</ele>
        <time>2011-11-13T08:09:20Z</time>
      </trkpt>
      <trkpt lat="47.40281" lon="-2.16796">
        <ele>59.5</ele>
        <time>2011-11-13T08:09:23Z</time>
      </trkpt>
      <trkpt lat="47.40289" lon="-2.16794">
        <ele>57.4</ele>
        <time>2011-11-13T08:09:25Z</time>
      </trkpt>
      <trkpt lat="47.40296" lon="-2.168">
        <ele>57.7</ele>
        <time>2011-11-13T08:09:27Z</time>
      </trkpt>
      <trkpt lat="47.40301" lon="-2.16806">
        <ele>58.2</ele>
        <time>2011-11-13T08:09:29Z</time>
      </trkpt>
      <trkpt lat="47.40302" lon="-2.16813">
        <ele>57.9</ele>
        <time>2011-11-13T08:09:30Z</time>
      </trkpt>
      <trkpt lat="47.40304" lon="-2.16819">
        <ele>58</ele>
        <time>2011-11-13T08:09:31Z</time>
      </trkpt>
      <trkpt lat="47.40306" lon="-2.16824">
        <ele>57.7</ele>
        <time>2011-11-13T08:09:32Z</time>
      </trkpt>
      <trkpt lat="47.40309" lon="-2.16834">
        <ele>59.1</ele>
        <time>2011-11-13T08:09:34Z</time>
      </trkpt>
      <trkpt lat="47.40309" lon="-2.16846">
        <ele>58.5</ele>
        <time>2011-11-13T08:09:36Z</time>
      </trkpt>
      <trkpt lat="47.40315" lon="-2.16853">
        <ele>58.7</ele>
        <time>2011-11-13T08:09:38Z</time>
      </trkpt>
      <trkpt lat="47.40316" lon="-2.1686">
        <ele>58.4</ele>
        <time>2011-11-13T08:09:40Z</time>
      </trkpt>
      <trkpt lat="47.40321" lon="-2.1686">
        <ele>58.3</ele>
        <time>2011-11-13T08:09:42Z</time>
      </trkpt>
      <trkpt lat="47.40327" lon="-2.16855">
        <ele>54.5</ele>
        <time>2011-11-13T08:09:44Z</time>
      </trkpt>
      <trkpt lat="47.4033" lon="-2.16849">
        <ele>52.4</ele>
        <time>2011-11-13T08:09:46Z</time>
      </trkpt>
      <trkpt lat="47.40332" lon="-2.16839">
        <ele>50.5</ele>
        <time>2011-11-13T08:09:48Z</time>
      </trkpt>
      <trkpt lat="47.40328" lon="-2.16832">
        <ele>53.1</ele>
        <time>2011-11-13T08:09:51Z</time>
      </trkpt>
      <trkpt lat="47.40321" lon="-2.16833">
        <ele>53.8</ele>
        <time>2011-11-13T08:09:54Z</time>
      </trkpt>
      <trkpt lat="47.40316" lon="-2.16834">
        <ele>54.7</ele>
        <time>2011-11-13T08:09:56Z</time>
      </trkpt>
      <trkpt lat="47.40311" lon="-2.16835">
        <ele>54.9</ele>
        <time>2011-11-13T08:09:59Z</time>
      </trkpt>
      <trkpt lat="47.40306" lon="-2.16834">
        <ele>55.6</ele>
        <time>2011-11-13T08:10:01Z</time>
      </trkpt>
      <trkpt lat="47.4031" lon="-2.16829">
        <ele>55.7</ele>
        <time>2011-11-13T08:10:03Z</time>
      </trkpt>
      <trkpt lat="47.40312" lon="-2.16823">
        <ele>53.3</ele>
        <time>2011-11-13T08:10:09Z</time>
      </trkpt>
      <trkpt lat="47.40307" lon="-2.16818">
        <ele>52.6</ele>
        <time>2011-11-13T08:10:12Z</time>
      </trkpt>
      <trkpt lat="47.40301" lon="-2.16809">
        <ele>52</ele>
        <time>2011-11-13T08:10:14Z</time>
      </trkpt>
      <trkpt lat="47.40298" lon="-2.16803">
        <ele>52.1</ele>
        <time>2011-11-13T08:10:16Z</time>
      </trkpt>
      <trkpt lat="47.40294" lon="-2.16797">
        <ele>52.4</ele>
        <time>2011-11-13T08:10:18Z</time>
      </trkpt>
      <trkpt lat="47.40288" lon="-2.16796">
        <ele>52.8</ele>
        <time>2011-11-13T08:10:20Z</time>
      </trkpt>
      <trkpt lat="47.40284" lon="-2.16799">
        <ele>54</ele>
        <time>2011-11-13T08:10:21Z</time>
      </trkpt>
      <trkpt lat="47.40278" lon="-2.16803">
        <ele>54.3</ele>
        <time>2011-11-13T08:10:24Z</time>
      </trkpt>
      <trkpt lat="47.40273" lon="-2.16803">
        <ele>55.8</ele>
        <time>2011-11-13T08:10:27Z</time>
      </trkpt>
      <trkpt lat="47.40267" lon="-2.16811">
        <ele>56.2</ele>
        <time>2011-11-13T08:10:30Z</time>
      </trkpt>
      <trkpt lat="47.40262" lon="-2.16818">
        <ele>57</ele>
        <time>2011-11-13T08:10:32Z</time>
      </trkpt>
      <trkpt lat="47.40257" lon="-2.16818">
        <ele>56</ele>
        <time>2011-11-13T08:10:33Z</time>
      </trkpt>
      <trkpt lat="47.4025" lon="-2.16816">
        <ele>54.7</ele>
        <time>2011-11-13T08:10:34Z</time>
      </trkpt>
      <trkpt lat="47.40244" lon="-2.16812">
        <ele>54.3</ele>
        <time>2011-11-13T08:10:36Z</time>
      </trkpt>
      <trkpt lat="47.40244" lon="-2.16804">
        <ele>55.7</ele>
        <time>2011-11-13T08:10:37Z</time>
      </trkpt>
      <trkpt lat="47.40248" lon="-2.16793">
        <ele>57.4</ele>
        <time>2011-11-13T08:10:41Z</time>
      </trkpt>
      <trkpt lat="47.40251" lon="-2.16789">
        <ele>60.3</ele>
        <time>2011-11-13T08:10:42Z</time>
      </trkpt>
      <trkpt lat="47.4026" lon="-2.16781">
        <ele>63.8</ele>
        <time>2011-11-13T08:10:45Z</time>
      </trkpt>
      <trkpt lat="47.40261" lon="-2.16774">
        <ele>64.7</ele>
        <time>2011-11-13T08:10:49Z</time>
      </trkpt>
      <trkpt lat="47.40255" lon="-2.16769">
        <ele>63.7</ele>
        <time>2011-11-13T08:10:52Z</time>
      </trkpt>
      <trkpt lat="47.40249" lon="-2.16761">
        <ele>63.2</ele>
        <time>2011-11-13T08:10:54Z</time>
      </trkpt>
      <trkpt lat="47.4025" lon="-2.16744">
        <ele>65.3</ele>
        <time>2011-11-13T08:10:56Z</time>
      </trkpt>
      <trkpt lat="47.40254" lon="-2.16738">
        <ele>64.7</ele>
        <time>2011-11-13T08:10:58Z</time>
      </trkpt>
      <trkpt lat="47.40253" lon="-2.16731">
        <ele>63.8</ele>
        <time>2011-11-13T08:11:02Z</time>
      </trkpt>
      <trkpt lat="47.40248" lon="-2.16731">
        <ele>65.2</ele>
        <time>2011-11-13T08:11:06Z</time>
      </trkpt>
      <trkpt lat="47.4024" lon="-2.1673">
        <ele>63.8</ele>
        <time>2011-11-13T08:11:07Z</time>
      </trkpt>
      <trkpt lat="47.4023" lon="-2.16727">
        <ele>61.5</ele>
        <time>2011-11-13T08:11:08Z</time>
      </trkpt>
      <trkpt lat="47.40228" lon="-2.16721">
        <ele>60.9</ele>
        <time>2011-11-13T08:11:10Z</time>
      </trkpt>
      <trkpt lat="47.40227" lon="-2.16714">
        <ele>60.6</ele>
        <time>2011-11-13T08:11:15Z</time>
      </trkpt>
      <trkpt lat="47.40222" lon="-2.16707">
        <ele>59.8</ele>
        <time>2011-11-13T08:11:17Z</time>
      </trkpt>
      <trkpt lat="47.40218" lon="-2.16705">
        <ele>58.8</ele>
        <time>2011-11-13T08:11:18Z</time>
      </trkpt>
      <trkpt lat="47.40213" lon="-2.16702">
        <ele>57.5</ele>
        <time>2011-11-13T08:11:19Z</time>
      </trkpt>
      <trkpt lat="47.40209" lon="-2.16699">
        <ele>56.2</ele>
        <time>2011-11-13T08:11:20Z</time>
      </trkpt>
      <trkpt lat="47.40209" lon="-2.16687">
        <ele>55.9</ele>
        <time>2011-11-13T08:11:22Z</time>
      </trkpt>
      <trkpt lat="47.40212" lon="-2.16674">
        <ele>55.2</ele>
        <time>2011-11-13T08:11:23Z</time>
      </trkpt>
      <trkpt lat="47.40218" lon="-2.16669">
        <ele>53.3</ele>
        <time>2011-11-13T08:11:24Z</time>
      </trkpt>
      <trkpt lat="47.40222" lon="-2.16663">
        <ele>53.5</ele>
        <time>2011-11-13T08:11:26Z</time>
      </trkpt>
      <trkpt lat="47.40217" lon="-2.16659">
        <ele>50.7</ele>
        <time>2011-11-13T08:11:31Z</time>
      </trkpt>
      <trkpt lat="47.40211" lon="-2.16662">
        <ele>52</ele>
        <time>2011-11-13T08:11:33Z</time>
      </trkpt>
      <trkpt lat="47.40208" lon="-2.1667">
        <ele>53.2</ele>
        <time>2011-11-13T08:11:35Z</time>
      </trkpt>
      <trkpt lat="47.40205" lon="-2.16676">
        <ele>52.8</ele>
        <time>2011-11-13T08:11:36Z</time>
      </trkpt>
      <trkpt lat="47.40199" lon="-2.16683">
        <ele>52.5</ele>
        <time>2011-11-13T08:11:38Z</time>
      </trkpt>
      <trkpt lat="47.40193" lon="-2.16688">
        <ele>52.4</ele>
        <time>2011-11-13T08:11:40Z</time>
      </trkpt>
      <trkpt lat="47.40188" lon="-2.16688">
        <ele>52.9</ele>
        <time>2011-11-13T08:11:42Z</time>
      </trkpt>
      <trkpt lat="47.40181" lon="-2.16685">
        <ele>56.1</ele>
        <time>2011-11-13T08:11:44Z</time>
      </trkpt>
      <trkpt lat="47.40176" lon="-2.16685">
        <ele>56.5</ele>
        <time>2011-11-13T08:11:45Z</time>
      </trkpt>
      <trkpt lat="47.40171" lon="-2.16683">
        <ele>56.4</ele>
        <time>2011-11-13T08:11:47Z</time>
      </trkpt>
      <trkpt lat="47.40165" lon="-2.16682">
        <ele>56.1</ele>
        <time>2011-11-13T08:11:49Z</time>
      </trkpt>
      <trkpt lat="47.40156" lon="-2.16681">
        <ele>55.9</ele>
        <time>2011-11-13T08:11:51Z</time>
      </trkpt>
      <trkpt lat="47.40145" lon="-2.16679">
        <ele>56.1</ele>
        <time>2011-11-13T08:11:53Z</time>
      </trkpt>
      <trkpt lat="47.40138" lon="-2.1668">
        <ele>57.3</ele>
        <time>2011-11-13T08:11:55Z</time>
      </trkpt>
      <trkpt lat="47.40135" lon="-2.16685">
        <ele>60.6</ele>
        <time>2011-11-13T08:12:00Z</time>
      </trkpt>
      <trkpt lat="47.40134" lon="-2.16678">
        <ele>58.7</ele>
        <time>2011-11-13T08:12:03Z</time>
      </trkpt>
      <trkpt lat="47.40129" lon="-2.16676">
        <ele>58.2</ele>
        <time>2011-11-13T08:12:07Z</time>
      </trkpt>
      <trkpt lat="47.40124" lon="-2.16674">
        <ele>56.6</ele>
        <time>2011-11-13T08:12:11Z</time>
      </trkpt>
      <trkpt lat="47.40117" lon="-2.16674">
        <ele>56.9</ele>
        <time>2011-11-13T08:12:18Z</time>
      </trkpt>
      <trkpt lat="47.40111" lon="-2.16675">
        <ele>56.8</ele>
        <time>2011-11-13T08:12:20Z</time>
      </trkpt>
      <trkpt lat="47.40104" lon="-2.16673">
        <ele>57.5</ele>
        <time>2011-11-13T08:12:22Z</time>
      </trkpt>
      <trkpt lat="47.40097" lon="-2.16673">
        <ele>57.4</ele>
        <time>2011-11-13T08:12:24Z</time>
      </trkpt>
      <trkpt lat="47.4009" lon="-2.16668">
        <ele>58.8</ele>
        <time>2011-11-13T08:12:25Z</time>
      </trkpt>
      <trkpt lat="47.40084" lon="-2.16666">
        <ele>59.2</ele>
        <time>2011-11-13T08:12:26Z</time>
      </trkpt>
      <trkpt lat="47.40079" lon="-2.16664">
        <ele>60.1</ele>
        <time>2011-11-13T08:12:28Z</time>
      </trkpt>
      <trkpt lat="47.40065" lon="-2.16657">
        <ele>57</ele>
        <time>2011-11-13T08:12:30Z</time>
      </trkpt>
      <trkpt lat="47.40058" lon="-2.16653">
        <ele>55.1</ele>
        <time>2011-11-13T08:12:31Z</time>
      </trkpt>
      <trkpt lat="47.40053" lon="-2.16645">
        <ele>53.8</ele>
        <time>2011-11-13T08:12:33Z</time>
      </trkpt>
      <trkpt lat="47.40049" lon="-2.16633">
        <ele>52.7</ele>
        <time>2011-11-13T08:12:35Z</time>
      </trkpt>
      <trkpt lat="47.40048" lon="-2.16624">
        <ele>52.3</ele>
        <time>2011-11-13T08:12:37Z</time>
      </trkpt>
      <trkpt lat="47.40046" lon="-2.16618">
        <ele>53.5</ele>
        <time>2011-11-13T08:12:39Z</time>
      </trkpt>
      <trkpt lat="47.40047" lon="-2.16606">
        <ele>54.7</ele>
        <time>2011-11-13T08:12:41Z</time>
      </trkpt>
      <trkpt lat="47.40046" lon="-2.16593">
        <ele>54.4</ele>
        <time>2011-11-13T08:12:43Z</time>
      </trkpt>
      <trkpt lat="47.40045" lon="-2.16582">
        <ele>53.8</ele>
        <time>2011-11-13T08:12:45Z</time>
      </trkpt>
      <trkpt lat="47.40043" lon="-2.16573">
        <ele>53.4</ele>
        <time>2011-11-13T08:12:47Z</time>
      </trkpt>
      <trkpt lat="47.40039" lon="-2.16564">
        <ele>52.7</ele>
        <time>2011-11-13T08:12:49Z</time>
      </trkpt>
      <trkpt lat="47.4004" lon="-2.16556">
        <ele>52.3</ele>
        <time>2011-11-13T08:12:50Z</time>
      </trkpt>
      <trkpt lat="47.4004" lon="-2.16542">
        <ele>51.6</ele>
        <time>2011-11-13T08:12:52Z</time>
      </trkpt>
      <trkpt lat="47.40037" lon="-2.16534">
        <ele>52.1</ele>
        <time>2011-11-13T08:12:54Z</time>
      </trkpt>
      <trkpt lat="47.40034" lon="-2.16528">
        <ele>51.2</ele>
        <time>2011-11-13T08:12:56Z</time>
      </trkpt>
      <trkpt lat="47.40029" lon="-2.1652">
        <ele>50.5</ele>
        <time>2011-11-13T08:12:58Z</time>
      </trkpt>
      <trkpt lat="47.40024" lon="-2.16521">
        <ele>50.4</ele>
        <time>2011-11-13T08:12:59Z</time>
      </trkpt>
      <trkpt lat="47.40022" lon="-2.16509">
        <ele>50.4</ele>
        <time>2011-11-13T08:13:01Z</time>
      </trkpt>
      <trkpt lat="47.40018" lon="-2.16502">
        <ele>49.8</ele>
        <time>2011-11-13T08:13:03Z</time>
      </trkpt>
      <trkpt lat="47.40013" lon="-2.1649">
        <ele>53</ele>
        <time>2011-11-13T08:13:05Z</time>
      </trkpt>
      <trkpt lat="47.40008" lon="-2.16482">
        <ele>54.7</ele>
        <time>2011-11-13T08:13:07Z</time>
      </trkpt>
      <trkpt lat="47.40004" lon="-2.16475">
        <ele>53.7</ele>
        <time>2011-11-13T08:13:09Z</time>
      </trkpt>
      <trkpt lat="47.40006" lon="-2.16466">
        <ele>53.7</ele>
        <time>2011-11-13T08:13:10Z</time>
      </trkpt>
      <trkpt lat="47.40001" lon="-2.16462">
        <ele>54.3</ele>
        <time>2011-11-13T08:13:12Z</time>
      </trkpt>
      <trkpt lat="47.39998" lon="-2.16451">
        <ele>53.9</ele>
        <time>2011-11-13T08:13:14Z</time>
      </trkpt>
      <trkpt lat="47.39996" lon="-2.16436">
        <ele>53.5</ele>
        <time>2011-11-13T08:13:16Z</time>
      </trkpt>
      <trkpt lat="47.39996" lon="-2.16429">
        <ele>53.5</ele>
        <time>2011-11-13T08:13:17Z</time>
      </trkpt>
      <trkpt lat="47.3999" lon="-2.16417">
        <ele>53</ele>
        <time>2011-11-13T08:13:19Z</time>
      </trkpt>
      <trkpt lat="47.39989" lon="-2.16411">
        <ele>52.5</ele>
        <time>2011-11-13T08:13:20Z</time>
      </trkpt>
      <trkpt lat="47.39988" lon="-2.16399">
        <ele>55.3</ele>
        <time>2011-11-13T08:13:21Z</time>
      </trkpt>
      <trkpt lat="47.39984" lon="-2.16388">
        <ele>56.6</ele>
        <time>2011-11-13T08:13:23Z</time>
      </trkpt>
      <trkpt lat="47.39986" lon="-2.164">
        <ele>59.8</ele>
        <time>2011-11-13T08:13:24Z</time>
      </trkpt>
      <trkpt lat="47.39989" lon="-2.16394">
        <ele>59.4</ele>
        <time>2011-11-13T08:13:25Z</time>
      </trkpt>
      <trkpt lat="47.39984" lon="-2.16395">
        <ele>60.8</ele>
        <time>2011-11-13T08:13:31Z</time>
      </trkpt>
      <trkpt lat="47.39976" lon="-2.16395">
        <ele>61.2</ele>
        <time>2011-11-13T08:13:33Z</time>
      </trkpt>
      <trkpt lat="47.3997" lon="-2.16393">
        <ele>61.4</ele>
        <time>2011-11-13T08:13:35Z</time>
      </trkpt>
      <trkpt lat="47.39964" lon="-2.16389">
        <ele>61.5</ele>
        <time>2011-11-13T08:13:37Z</time>
      </trkpt>
      <trkpt lat="47.39961" lon="-2.16383">
        <ele>61.8</ele>
        <time>2011-11-13T08:13:39Z</time>
      </trkpt>
      <trkpt lat="47.39953" lon="-2.16374">
        <ele>59.5</ele>
        <time>2011-11-13T08:13:41Z</time>
      </trkpt>
      <trkpt lat="47.39949" lon="-2.16364">
        <ele>56.2</ele>
        <time>2011-11-13T08:13:42Z</time>
      </trkpt>
      <trkpt lat="47.3994" lon="-2.16359">
        <ele>55.8</ele>
        <time>2011-11-13T08:13:44Z</time>
      </trkpt>
      <trkpt lat="47.39937" lon="-2.16354">
        <ele>55</ele>
        <time>2011-11-13T08:13:45Z</time>
      </trkpt>
      <trkpt lat="47.39932" lon="-2.16345">
        <ele>55.3</ele>
        <time>2011-11-13T08:13:47Z</time>
      </trkpt>
      <trkpt lat="47.39928" lon="-2.16332">
        <ele>54.8</ele>
        <time>2011-11-13T08:13:49Z</time>
      </trkpt>
      <trkpt lat="47.39924" lon="-2.16318">
        <ele>55.1</ele>
        <time>2011-11-13T08:13:51Z</time>
      </trkpt>
      <trkpt lat="47.39923" lon="-2.16309">
        <ele>54</ele>
        <time>2011-11-13T08:13:52Z</time>
      </trkpt>
      <trkpt lat="47.39922" lon="-2.16299">
        <ele>54.1</ele>
        <time>2011-11-13T08:13:53Z</time>
      </trkpt>
      <trkpt lat="47.3992" lon="-2.16292">
        <ele>54.5</ele>
        <time>2011-11-13T08:13:54Z</time>
      </trkpt>
      <trkpt lat="47.39919" lon="-2.16284">
        <ele>53.9</ele>
        <time>2011-11-13T08:13:55Z</time>
      </trkpt>
      <trkpt lat="47.39919" lon="-2.16272">
        <ele>54.5</ele>
        <time>2011-11-13T08:13:56Z</time>
      </trkpt>
      <trkpt lat="47.39918" lon="-2.16262">
        <ele>54.1</ele>
        <time>2011-11-13T08:13:57Z</time>
      </trkpt>
      <trkpt lat="47.39919" lon="-2.16251">
        <ele>53.9</ele>
        <time>2011-11-13T08:13:58Z</time>
      </trkpt>
      <trkpt lat="47.3992" lon="-2.16242">
        <ele>53.4</ele>
        <time>2011-11-13T08:13:59Z</time>
      </trkpt>
      <trkpt lat="47.39921" lon="-2.16231">
        <ele>53.5</ele>
        <time>2011-11-13T08:14:00Z</time>
      </trkpt>
      <trkpt lat="47.39921" lon="-2.16223">
        <ele>53.4</ele>
        <time>2011-11-13T08:14:01Z</time>
      </trkpt>
      <trkpt lat="47.39922" lon="-2.16215">
        <ele>52.7</ele>
        <time>2011-11-13T08:14:02Z</time>
      </trkpt>
      <trkpt lat="47.39921" lon="-2.16207">
        <ele>52.9</ele>
        <time>2011-11-13T08:14:03Z</time>
      </trkpt>
      <trkpt lat="47.39914" lon="-2.16218">
        <ele>53.3</ele>
        <time>2011-11-13T08:14:04Z</time>
      </trkpt>
      <trkpt lat="47.39908" lon="-2.16224">
        <ele>53</ele>
        <time>2011-11-13T08:14:05Z</time>
      </trkpt>
      <trkpt lat="47.39904" lon="-2.16228">
        <ele>52.8</ele>
        <time>2011-11-13T08:14:06Z</time>
      </trkpt>
      <trkpt lat="47.399" lon="-2.16232">
        <ele>52.6</ele>
        <time>2011-11-13T08:14:07Z</time>
      </trkpt>
      <trkpt lat="47.39895" lon="-2.16235">
        <ele>52.3</ele>
        <time>2011-11-13T08:14:08Z</time>
      </trkpt>
      <trkpt lat="47.39888" lon="-2.16244">
        <ele>52.5</ele>
        <time>2011-11-13T08:14:10Z</time>
      </trkpt>
      <trkpt lat="47.39882" lon="-2.16247">
        <ele>53.2</ele>
        <time>2011-11-13T08:14:11Z</time>
      </trkpt>
      <trkpt lat="47.39874" lon="-2.16248">
        <ele>53.1</ele>
        <time>2011-11-13T08:14:12Z</time>
      </trkpt>
      <trkpt lat="47.39869" lon="-2.16251">
        <ele>53.6</ele>
        <time>2011-11-13T08:14:13Z</time>
      </trkpt>
      <trkpt lat="47.39864" lon="-2.16254">
        <ele>54.4</ele>
        <time>2011-11-13T08:14:14Z</time>
      </trkpt>
      <trkpt lat="47.39855" lon="-2.16255">
        <ele>54.6</ele>
        <time>2011-11-13T08:14:16Z</time>
      </trkpt>
      <trkpt lat="47.3985" lon="-2.16258">
        <ele>54.9</ele>
        <time>2011-11-13T08:14:17Z</time>
      </trkpt>
      <trkpt lat="47.3984" lon="-2.16261">
        <ele>56.2</ele>
        <time>2011-11-13T08:14:19Z</time>
      </trkpt>
      <trkpt lat="47.39832" lon="-2.16263">
        <ele>56.3</ele>
        <time>2011-11-13T08:14:20Z</time>
      </trkpt>
      <trkpt lat="47.39828" lon="-2.16262">
        <ele>56.4</ele>
        <time>2011-11-13T08:14:21Z</time>
      </trkpt>
      <trkpt lat="47.3982" lon="-2.16263">
        <ele>56</ele>
        <time>2011-11-13T08:14:22Z</time>
      </trkpt>
      <trkpt lat="47.39814" lon="-2.16264">
        <ele>55.9</ele>
        <time>2011-11-13T08:14:23Z</time>
      </trkpt>
      <trkpt lat="47.39806" lon="-2.16267">
        <ele>55.6</ele>
        <time>2011-11-13T08:14:24Z</time>
      </trkpt>
      <trkpt lat="47.39799" lon="-2.1627">
        <ele>55.5</ele>
        <time>2011-11-13T08:14:25Z</time>
      </trkpt>
      <trkpt lat="47.39791" lon="-2.16271">
        <ele>55.8</ele>
        <time>2011-11-13T08:14:26Z</time>
      </trkpt>
      <trkpt lat="47.39785" lon="-2.16272">
        <ele>56</ele>
        <time>2011-11-13T08:14:27Z</time>
      </trkpt>
      <trkpt lat="47.39779" lon="-2.16274">
        <ele>56</ele>
        <time>2011-11-13T08:14:28Z</time>
      </trkpt>
      <trkpt lat="47.39774" lon="-2.16276">
        <ele>56.5</ele>
        <time>2011-11-13T08:14:29Z</time>
      </trkpt>
      <trkpt lat="47.39767" lon="-2.16281">
        <ele>56.6</ele>
        <time>2011-11-13T08:14:30Z</time>
      </trkpt>
      <trkpt lat="47.39762" lon="-2.16284">
        <ele>56.4</ele>
        <time>2011-11-13T08:14:31Z</time>
      </trkpt>
      <trkpt lat="47.39756" lon="-2.16287">
        <ele>55.9</ele>
        <time>2011-11-13T08:14:32Z</time>
      </trkpt>
      <trkpt lat="47.3975" lon="-2.1629">
        <ele>56.2</ele>
        <time>2011-11-13T08:14:33Z</time>
      </trkpt>
      <trkpt lat="47.39745" lon="-2.16297">
        <ele>56.3</ele>
        <time>2011-11-13T08:14:34Z</time>
      </trkpt>
      <trkpt lat="47.39742" lon="-2.16306">
        <ele>55.6</ele>
        <time>2011-11-13T08:14:36Z</time>
      </trkpt>
      <trkpt lat="47.39737" lon="-2.16313">
        <ele>55.4</ele>
        <time>2011-11-13T08:14:38Z</time>
      </trkpt>
      <trkpt lat="47.39723" lon="-2.1631">
        <ele>53</ele>
        <time>2011-11-13T08:14:39Z</time>
      </trkpt>
      <trkpt lat="47.39714" lon="-2.16306">
        <ele>52.3</ele>
        <time>2011-11-13T08:14:40Z</time>
      </trkpt>
      <trkpt lat="47.39708" lon="-2.16304">
        <ele>51.1</ele>
        <time>2011-11-13T08:14:41Z</time>
      </trkpt>
      <trkpt lat="47.39702" lon="-2.16296">
        <ele>51.2</ele>
        <time>2011-11-13T08:14:43Z</time>
      </trkpt>
      <trkpt lat="47.39708" lon="-2.16267">
        <ele>50.2</ele>
        <time>2011-11-13T08:14:45Z</time>
      </trkpt>
      <trkpt lat="47.39709" lon="-2.16259">
        <ele>50</ele>
        <time>2011-11-13T08:14:46Z</time>
      </trkpt>
      <trkpt lat="47.39705" lon="-2.16248">
        <ele>48.8</ele>
        <time>2011-11-13T08:14:48Z</time>
      </trkpt>
      <trkpt lat="47.39703" lon="-2.16242">
        <ele>48.5</ele>
        <time>2011-11-13T08:14:49Z</time>
      </trkpt>
      <trkpt lat="47.397" lon="-2.16231">
        <ele>48.4</ele>
        <time>2011-11-13T08:14:51Z</time>
      </trkpt>
      <trkpt lat="47.39699" lon="-2.16224">
        <ele>48.2</ele>
        <time>2011-11-13T08:14:52Z</time>
      </trkpt>
      <trkpt lat="47.39699" lon="-2.16212">
        <ele>49.3</ele>
        <time>2011-11-13T08:14:53Z</time>
      </trkpt>
      <trkpt lat="47.39699" lon="-2.16201">
        <ele>50.4</ele>
        <time>2011-11-13T08:14:54Z</time>
      </trkpt>
      <trkpt lat="47.397" lon="-2.16189">
        <ele>50.9</ele>
        <time>2011-11-13T08:14:55Z</time>
      </trkpt>
      <trkpt lat="47.39701" lon="-2.16181">
        <ele>50.6</ele>
        <time>2011-11-13T08:14:56Z</time>
      </trkpt>
      <trkpt lat="47.39702" lon="-2.1617">
        <ele>50</ele>
        <time>2011-11-13T08:14:57Z</time>
      </trkpt>
      <trkpt lat="47.39702" lon="-2.16161">
        <ele>50.3</ele>
        <time>2011-11-13T08:14:58Z</time>
      </trkpt>
      <trkpt lat="47.39703" lon="-2.16152">
        <ele>50.7</ele>
        <time>2011-11-13T08:14:59Z</time>
      </trkpt>
      <trkpt lat="47.39705" lon="-2.16141">
        <ele>50.1</ele>
        <time>2011-11-13T08:15:00Z</time>
      </trkpt>
      <trkpt lat="47.39706" lon="-2.16131">
        <ele>50.4</ele>
        <time>2011-11-13T08:15:01Z</time>
      </trkpt>
      <trkpt lat="47.39705" lon="-2.16124">
        <ele>50.1</ele>
        <time>2011-11-13T08:15:02Z</time>
      </trkpt>
      <trkpt lat="47.39704" lon="-2.16117">
        <ele>49.6</ele>
        <time>2011-11-13T08:15:03Z</time>
      </trkpt>
      <trkpt lat="47.39705" lon="-2.16107">
        <ele>49.9</ele>
        <time>2011-11-13T08:15:04Z</time>
      </trkpt>
      <trkpt lat="47.39706" lon="-2.16098">
        <ele>50.2</ele>
        <time>2011-11-13T08:15:05Z</time>
      </trkpt>
      <trkpt lat="47.39706" lon="-2.16088">
        <ele>50.2</ele>
        <time>2011-11-13T08:15:06Z</time>
      </trkpt>
      <trkpt lat="47.39705" lon="-2.1608">
        <ele>50.1</ele>
        <time>2011-11-13T08:15:07Z</time>
      </trkpt>
      <trkpt lat="47.397" lon="-2.1608">
        <ele>50.2</ele>
        <time>2011-11-13T08:15:08Z</time>
      </trkpt>
      <trkpt lat="47.39699" lon="-2.16074">
        <ele>49.5</ele>
        <time>2011-11-13T08:15:09Z</time>
      </trkpt>
      <trkpt lat="47.39698" lon="-2.16067">
        <ele>49</ele>
        <time>2011-11-13T08:15:10Z</time>
      </trkpt>
      <trkpt lat="47.39696" lon="-2.1606">
        <ele>48.8</ele>
        <time>2011-11-13T08:15:11Z</time>
      </trkpt>
      <trkpt lat="47.39696" lon="-2.16053">
        <ele>48.7</ele>
        <time>2011-11-13T08:15:12Z</time>
      </trkpt>
      <trkpt lat="47.39694" lon="-2.16038">
        <ele>48.4</ele>
        <time>2011-11-13T08:15:14Z</time>
      </trkpt>
      <trkpt lat="47.39694" lon="-2.1603">
        <ele>48.1</ele>
        <time>2011-11-13T08:15:15Z</time>
      </trkpt>
      <trkpt lat="47.39692" lon="-2.16023">
        <ele>48</ele>
        <time>2011-11-13T08:15:16Z</time>
      </trkpt>
      <trkpt lat="47.39692" lon="-2.16015">
        <ele>47.8</ele>
        <time>2011-11-13T08:15:17Z</time>
      </trkpt>
      <trkpt lat="47.39691" lon="-2.16003">
        <ele>48.8</ele>
        <time>2011-11-13T08:15:18Z</time>
      </trkpt>
      <trkpt lat="47.39691" lon="-2.15994">
        <ele>48.9</ele>
        <time>2011-11-13T08:15:19Z</time>
      </trkpt>
      <trkpt lat="47.39691" lon="-2.15986">
        <ele>48.2</ele>
        <time>2011-11-13T08:15:20Z</time>
      </trkpt>
      <trkpt lat="47.3969" lon="-2.15978">
        <ele>48.4</ele>
        <time>2011-11-13T08:15:21Z</time>
      </trkpt>
      <trkpt lat="47.3969" lon="-2.15968">
        <ele>48.7</ele>
        <time>2011-11-13T08:15:22Z</time>
      </trkpt>
      <trkpt lat="47.3969" lon="-2.15959">
        <ele>48.3</ele>
        <time>2011-11-13T08:15:23Z</time>
      </trkpt>
      <trkpt lat="47.3969" lon="-2.1595">
        <ele>47.9</ele>
        <time>2011-11-13T08:15:24Z</time>
      </trkpt>
      <trkpt lat="47.39689" lon="-2.15943">
        <ele>48.2</ele>
        <time>2011-11-13T08:15:25Z</time>
      </trkpt>
      <trkpt lat="47.39691" lon="-2.15932">
        <ele>47.5</ele>
        <time>2011-11-13T08:15:26Z</time>
      </trkpt>
      <trkpt lat="47.39693" lon="-2.1592">
        <ele>46.8</ele>
        <time>2011-11-13T08:15:27Z</time>
      </trkpt>
      <trkpt lat="47.39694" lon="-2.15911">
        <ele>46.6</ele>
        <time>2011-11-13T08:15:28Z</time>
      </trkpt>
      <trkpt lat="47.39694" lon="-2.15903">
        <ele>47</ele>
        <time>2011-11-13T08:15:29Z</time>
      </trkpt>
      <trkpt lat="47.39694" lon="-2.15894">
        <ele>46.8</ele>
        <time>2011-11-13T08:15:30Z</time>
      </trkpt>
      <trkpt lat="47.39692" lon="-2.15887">
        <ele>46.8</ele>
        <time>2011-11-13T08:15:31Z</time>
      </trkpt>
      <trkpt lat="47.39694" lon="-2.15876">
        <ele>46.9</ele>
        <time>2011-11-13T08:15:32Z</time>
      </trkpt>
      <trkpt lat="47.39695" lon="-2.15866">
        <ele>46.9</ele>
        <time>2011-11-13T08:15:33Z</time>
      </trkpt>
      <trkpt lat="47.39694" lon="-2.15858">
        <ele>47</ele>
        <time>2011-11-13T08:15:34Z</time>
      </trkpt>
      <trkpt lat="47.39687" lon="-2.15859">
        <ele>47.5</ele>
        <time>2011-11-13T08:15:35Z</time>
      </trkpt>
      <trkpt lat="47.39684" lon="-2.15853">
        <ele>47.5</ele>
        <time>2011-11-13T08:15:36Z</time>
      </trkpt>
      <trkpt lat="47.39684" lon="-2.15845">
        <ele>47</ele>
        <time>2011-11-13T08:15:37Z</time>
      </trkpt>
      <trkpt lat="47.39678" lon="-2.15836">
        <ele>47.5</ele>
        <time>2011-11-13T08:15:39Z</time>
      </trkpt>
      <trkpt lat="47.39679" lon="-2.15826">
        <ele>47.4</ele>
        <time>2011-11-13T08:15:40Z</time>
      </trkpt>
      <trkpt lat="47.39678" lon="-2.15819">
        <ele>47.1</ele>
        <time>2011-11-13T08:15:41Z</time>
      </trkpt>
      <trkpt lat="47.39678" lon="-2.15811">
        <ele>47.2</ele>
        <time>2011-11-13T08:15:42Z</time>
      </trkpt>
      <trkpt lat="47.39677" lon="-2.15798">
        <ele>48.2</ele>
        <time>2011-11-13T08:15:44Z</time>
      </trkpt>
      <trkpt lat="47.39675" lon="-2.15791">
        <ele>48.2</ele>
        <time>2011-11-13T08:15:45Z</time>
      </trkpt>
      <trkpt lat="47.39674" lon="-2.15783">
        <ele>48.1</ele>
        <time>2011-11-13T08:15:46Z</time>
      </trkpt>
      <trkpt lat="47.39674" lon="-2.15775">
        <ele>48.1</ele>
        <time>2011-11-13T08:15:47Z</time>
      </trkpt>
      <trkpt lat="47.39671" lon="-2.15764">
        <ele>47.7</ele>
        <time>2011-11-13T08:15:49Z</time>
      </trkpt>
      <trkpt lat="47.39665" lon="-2.15769">
        <ele>47.7</ele>
        <time>2011-11-13T08:15:51Z</time>
      </trkpt>
      <trkpt lat="47.39662" lon="-2.15774">
        <ele>48.6</ele>
        <time>2011-11-13T08:15:52Z</time>
      </trkpt>
      <trkpt lat="47.39657" lon="-2.15784">
        <ele>48.2</ele>
        <time>2011-11-13T08:15:54Z</time>
      </trkpt>
      <trkpt lat="47.39648" lon="-2.15789">
        <ele>48.6</ele>
        <time>2011-11-13T08:15:56Z</time>
      </trkpt>
      <trkpt lat="47.39641" lon="-2.15789">
        <ele>48.1</ele>
        <time>2011-11-13T08:15:57Z</time>
      </trkpt>
      <trkpt lat="47.39639" lon="-2.15779">
        <ele>48.3</ele>
        <time>2011-11-13T08:15:59Z</time>
      </trkpt>
      <trkpt lat="47.39636" lon="-2.15769">
        <ele>48</ele>
        <time>2011-11-13T08:16:01Z</time>
      </trkpt>
      <trkpt lat="47.3964" lon="-2.15752">
        <ele>47.5</ele>
        <time>2011-11-13T08:16:03Z</time>
      </trkpt>
      <trkpt lat="47.39641" lon="-2.15742">
        <ele>48.3</ele>
        <time>2011-11-13T08:16:05Z</time>
      </trkpt>
      <trkpt lat="47.39645" lon="-2.15731">
        <ele>47.9</ele>
        <time>2011-11-13T08:16:06Z</time>
      </trkpt>
      <trkpt lat="47.39646" lon="-2.15722">
        <ele>47.5</ele>
        <time>2011-11-13T08:16:08Z</time>
      </trkpt>
      <trkpt lat="47.39648" lon="-2.15712">
        <ele>47.5</ele>
        <time>2011-11-13T08:16:10Z</time>
      </trkpt>
      <trkpt lat="47.3965" lon="-2.15702">
        <ele>48</ele>
        <time>2011-11-13T08:16:12Z</time>
      </trkpt>
      <trkpt lat="47.39652" lon="-2.15691">
        <ele>48.4</ele>
        <time>2011-11-13T08:16:14Z</time>
      </trkpt>
      <trkpt lat="47.39651" lon="-2.1568">
        <ele>49</ele>
        <time>2011-11-13T08:16:16Z</time>
      </trkpt>
      <trkpt lat="47.3965" lon="-2.15672">
        <ele>48</ele>
        <time>2011-11-13T08:16:18Z</time>
      </trkpt>
      <trkpt lat="47.39652" lon="-2.15658">
        <ele>48.8</ele>
        <time>2011-11-13T08:16:20Z</time>
      </trkpt>
      <trkpt lat="47.39653" lon="-2.15651">
        <ele>48.5</ele>
        <time>2011-11-13T08:16:21Z</time>
      </trkpt>
      <trkpt lat="47.39652" lon="-2.15642">
        <ele>49.1</ele>
        <time>2011-11-13T08:16:23Z</time>
      </trkpt>
      <trkpt lat="47.39651" lon="-2.15633">
        <ele>49.5</ele>
        <time>2011-11-13T08:16:25Z</time>
      </trkpt>
      <trkpt lat="47.39648" lon="-2.15625">
        <ele>49.3</ele>
        <time>2011-11-13T08:16:27Z</time>
      </trkpt>
      <trkpt lat="47.39645" lon="-2.15615">
        <ele>49.8</ele>
        <time>2011-11-13T08:16:29Z</time>
      </trkpt>
      <trkpt lat="47.39643" lon="-2.15606">
        <ele>50</ele>
        <time>2011-11-13T08:16:31Z</time>
      </trkpt>
      <trkpt lat="47.3964" lon="-2.15597">
        <ele>50.3</ele>
        <time>2011-11-13T08:16:33Z</time>
      </trkpt>
      <trkpt lat="47.39637" lon="-2.15588">
        <ele>50.7</ele>
        <time>2011-11-13T08:16:35Z</time>
      </trkpt>
      <trkpt lat="47.39635" lon="-2.15579">
        <ele>50.5</ele>
        <time>2011-11-13T08:16:37Z</time>
      </trkpt>
      <trkpt lat="47.39632" lon="-2.15571">
        <ele>50.3</ele>
        <time>2011-11-13T08:16:39Z</time>
      </trkpt>
      <trkpt lat="47.3963" lon="-2.15563">
        <ele>50.7</ele>
        <time>2011-11-13T08:16:41Z</time>
      </trkpt>
      <trkpt lat="47.39627" lon="-2.15554">
        <ele>50.6</ele>
        <time>2011-11-13T08:16:43Z</time>
      </trkpt>
      <trkpt lat="47.39623" lon="-2.15545">
        <ele>50.2</ele>
        <time>2011-11-13T08:16:45Z</time>
      </trkpt>
      <trkpt lat="47.39619" lon="-2.15535">
        <ele>50</ele>
        <time>2011-11-13T08:16:47Z</time>
      </trkpt>
      <trkpt lat="47.39616" lon="-2.15524">
        <ele>50.3</ele>
        <time>2011-11-13T08:16:49Z</time>
      </trkpt>
      <trkpt lat="47.39612" lon="-2.15514">
        <ele>50.1</ele>
        <time>2011-11-13T08:16:51Z</time>
      </trkpt>
      <trkpt lat="47.39608" lon="-2.15505">
        <ele>50.5</ele>
        <time>2011-11-13T08:16:53Z</time>
      </trkpt>
      <trkpt lat="47.39605" lon="-2.15496">
        <ele>50.6</ele>
        <time>2011-11-13T08:16:55Z</time>
      </trkpt>
      <trkpt lat="47.39602" lon="-2.15489">
        <ele>51.1</ele>
        <time>2011-11-13T08:16:57Z</time>
      </trkpt>
      <trkpt lat="47.39599" lon="-2.1548">
        <ele>51.5</ele>
        <time>2011-11-13T08:16:59Z</time>
      </trkpt>
      <trkpt lat="47.39596" lon="-2.15471">
        <ele>51.7</ele>
        <time>2011-11-13T08:17:01Z</time>
      </trkpt>
      <trkpt lat="47.39593" lon="-2.15463">
        <ele>52.2</ele>
        <time>2011-11-13T08:17:03Z</time>
      </trkpt>
      <trkpt lat="47.3959" lon="-2.15454">
        <ele>52.5</ele>
        <time>2011-11-13T08:17:05Z</time>
      </trkpt>
      <trkpt lat="47.39587" lon="-2.15445">
        <ele>52.6</ele>
        <time>2011-11-13T08:17:07Z</time>
      </trkpt>
      <trkpt lat="47.39584" lon="-2.15439">
        <ele>53.2</ele>
        <time>2011-11-13T08:17:09Z</time>
      </trkpt>
      <trkpt lat="47.39581" lon="-2.1543">
        <ele>53.7</ele>
        <time>2011-11-13T08:17:11Z</time>
      </trkpt>
      <trkpt lat="47.39578" lon="-2.1542">
        <ele>53.9</ele>
        <time>2011-11-13T08:17:13Z</time>
      </trkpt>
      <trkpt lat="47.39574" lon="-2.15408">
        <ele>53.6</ele>
        <time>2011-11-13T08:17:15Z</time>
      </trkpt>
      <trkpt lat="47.39571" lon="-2.15397">
        <ele>53.8</ele>
        <time>2011-11-13T08:17:17Z</time>
      </trkpt>
      <trkpt lat="47.39568" lon="-2.15386">
        <ele>53.9</ele>
        <time>2011-11-13T08:17:19Z</time>
      </trkpt>
      <trkpt lat="47.39565" lon="-2.15374">
        <ele>53.1</ele>
        <time>2011-11-13T08:17:21Z</time>
      </trkpt>
      <trkpt lat="47.39562" lon="-2.15363">
        <ele>52.7</ele>
        <time>2011-11-13T08:17:23Z</time>
      </trkpt>
      <trkpt lat="47.39558" lon="-2.15351">
        <ele>52.6</ele>
        <time>2011-11-13T08:17:25Z</time>
      </trkpt>
      <trkpt lat="47.39554" lon="-2.1534">
        <ele>52.6</ele>
        <time>2011-11-13T08:17:27Z</time>
      </trkpt>
      <trkpt lat="47.3955" lon="-2.15328">
        <ele>52.8</ele>
        <time>2011-11-13T08:17:29Z</time>
      </trkpt>
      <trkpt lat="47.39547" lon="-2.15318">
        <ele>52.6</ele>
        <time>2011-11-13T08:17:31Z</time>
      </trkpt>
      <trkpt lat="47.39543" lon="-2.15307">
        <ele>52.5</ele>
        <time>2011-11-13T08:17:33Z</time>
      </trkpt>
      <trkpt lat="47.39539" lon="-2.15296">
        <ele>52.6</ele>
        <time>2011-11-13T08:17:35Z</time>
      </trkpt>
      <trkpt lat="47.39536" lon="-2.15286">
        <ele>52.6</ele>
        <time>2011-11-13T08:17:37Z</time>
      </trkpt>
      <trkpt lat="47.39532" lon="-2.1528">
        <ele>51.8</ele>
        <time>2011-11-13T08:17:39Z</time>
      </trkpt>
      <trkpt lat="47.3953" lon="-2.15272">
        <ele>51.5</ele>
        <time>2011-11-13T08:17:41Z</time>
      </trkpt>
      <trkpt lat="47.39531" lon="-2.1526">
        <ele>51.6</ele>
        <time>2011-11-13T08:17:43Z</time>
      </trkpt>
      <trkpt lat="47.39532" lon="-2.15251">
        <ele>51.2</ele>
        <time>2011-11-13T08:17:44Z</time>
      </trkpt>
      <trkpt lat="47.39533" lon="-2.15238">
        <ele>50.9</ele>
        <time>2011-11-13T08:17:46Z</time>
      </trkpt>
      <trkpt lat="47.39531" lon="-2.15226">
        <ele>51.6</ele>
        <time>2011-11-13T08:17:48Z</time>
      </trkpt>
      <trkpt lat="47.39532" lon="-2.15218">
        <ele>51.6</ele>
        <time>2011-11-13T08:17:49Z</time>
      </trkpt>
      <trkpt lat="47.3953" lon="-2.1521">
        <ele>51.3</ele>
        <time>2011-11-13T08:17:50Z</time>
      </trkpt>
      <trkpt lat="47.39528" lon="-2.15201">
        <ele>51.4</ele>
        <time>2011-11-13T08:17:51Z</time>
      </trkpt>
      <trkpt lat="47.39525" lon="-2.15194">
        <ele>51</ele>
        <time>2011-11-13T08:17:52Z</time>
      </trkpt>
      <trkpt lat="47.39523" lon="-2.15187">
        <ele>52.5</ele>
        <time>2011-11-13T08:17:53Z</time>
      </trkpt>
      <trkpt lat="47.39524" lon="-2.15178">
        <ele>52.3</ele>
        <time>2011-11-13T08:17:54Z</time>
      </trkpt>
      <trkpt lat="47.39524" lon="-2.15152">
        <ele>52</ele>
        <time>2011-11-13T08:17:57Z</time>
      </trkpt>
      <trkpt lat="47.39523" lon="-2.15134">
        <ele>53.1</ele>
        <time>2011-11-13T08:18:00Z</time>
      </trkpt>
      <trkpt lat="47.3952" lon="-2.15118">
        <ele>52.7</ele>
        <time>2011-11-13T08:18:02Z</time>
      </trkpt>
      <trkpt lat="47.39517" lon="-2.15109">
        <ele>52.6</ele>
        <time>2011-11-13T08:18:03Z</time>
      </trkpt>
      <trkpt lat="47.39516" lon="-2.15096">
        <ele>53.2</ele>
        <time>2011-11-13T08:18:04Z</time>
      </trkpt>
      <trkpt lat="47.39517" lon="-2.15078">
        <ele>53</ele>
        <time>2011-11-13T08:18:06Z</time>
      </trkpt>
      <trkpt lat="47.39518" lon="-2.15053">
        <ele>53</ele>
        <time>2011-11-13T08:18:08Z</time>
      </trkpt>
      <trkpt lat="47.39517" lon="-2.1503">
        <ele>54.4</ele>
        <time>2011-11-13T08:18:10Z</time>
      </trkpt>
      <trkpt lat="47.39515" lon="-2.1501">
        <ele>54.9</ele>
        <time>2011-11-13T08:18:12Z</time>
      </trkpt>
      <trkpt lat="47.39512" lon="-2.14995">
        <ele>54.5</ele>
        <time>2011-11-13T08:18:15Z</time>
      </trkpt>
      <trkpt lat="47.39509" lon="-2.14985">
        <ele>54</ele>
        <time>2011-11-13T08:18:16Z</time>
      </trkpt>
      <trkpt lat="47.39503" lon="-2.14969">
        <ele>53.7</ele>
        <time>2011-11-13T08:18:17Z</time>
      </trkpt>
      <trkpt lat="47.39495" lon="-2.14953">
        <ele>53.3</ele>
        <time>2011-11-13T08:18:19Z</time>
      </trkpt>
      <trkpt lat="47.39485" lon="-2.14934">
        <ele>53.4</ele>
        <time>2011-11-13T08:18:22Z</time>
      </trkpt>
      <trkpt lat="47.39481" lon="-2.14928">
        <ele>53.6</ele>
        <time>2011-11-13T08:18:23Z</time>
      </trkpt>
      <trkpt lat="47.39478" lon="-2.14921">
        <ele>54.2</ele>
        <time>2011-11-13T08:18:24Z</time>
      </trkpt>
      <trkpt lat="47.39473" lon="-2.14914">
        <ele>53.5</ele>
        <time>2011-11-13T08:18:25Z</time>
      </trkpt>
      <trkpt lat="47.39472" lon="-2.14907">
        <ele>54.5</ele>
        <time>2011-11-13T08:18:26Z</time>
      </trkpt>
      <trkpt lat="47.39465" lon="-2.14898">
        <ele>54.4</ele>
        <time>2011-11-13T08:18:27Z</time>
      </trkpt>
      <trkpt lat="47.39459" lon="-2.14887">
        <ele>54.4</ele>
        <time>2011-11-13T08:18:28Z</time>
      </trkpt>
      <trkpt lat="47.39452" lon="-2.14874">
        <ele>55.9</ele>
        <time>2011-11-13T08:18:30Z</time>
      </trkpt>
      <trkpt lat="47.39446" lon="-2.14868">
        <ele>55.7</ele>
        <time>2011-11-13T08:18:31Z</time>
      </trkpt>
      <trkpt lat="47.39437" lon="-2.14861">
        <ele>56</ele>
        <time>2011-11-13T08:18:32Z</time>
      </trkpt>
      <trkpt lat="47.39428" lon="-2.1485">
        <ele>55.9</ele>
        <time>2011-11-13T08:18:34Z</time>
      </trkpt>
      <trkpt lat="47.39415" lon="-2.14842">
        <ele>55.9</ele>
        <time>2011-11-13T08:18:36Z</time>
      </trkpt>
      <trkpt lat="47.39404" lon="-2.14838">
        <ele>56.1</ele>
        <time>2011-11-13T08:18:38Z</time>
      </trkpt>
      <trkpt lat="47.39397" lon="-2.14827">
        <ele>56.4</ele>
        <time>2011-11-13T08:18:40Z</time>
      </trkpt>
      <trkpt lat="47.39385" lon="-2.14807">
        <ele>55.8</ele>
        <time>2011-11-13T08:18:42Z</time>
      </trkpt>
      <trkpt lat="47.39373" lon="-2.14795">
        <ele>55.4</ele>
        <time>2011-11-13T08:18:44Z</time>
      </trkpt>
      <trkpt lat="47.39361" lon="-2.14788">
        <ele>57.1</ele>
        <time>2011-11-13T08:18:46Z</time>
      </trkpt>
      <trkpt lat="47.39347" lon="-2.14776">
        <ele>57.9</ele>
        <time>2011-11-13T08:18:48Z</time>
      </trkpt>
      <trkpt lat="47.39335" lon="-2.14756">
        <ele>57.1</ele>
        <time>2011-11-13T08:18:50Z</time>
      </trkpt>
      <trkpt lat="47.39325" lon="-2.14742">
        <ele>56.1</ele>
        <time>2011-11-13T08:18:52Z</time>
      </trkpt>
      <trkpt lat="47.39317" lon="-2.14737">
        <ele>55.7</ele>
        <time>2011-11-13T08:18:54Z</time>
      </trkpt>
      <trkpt lat="47.3931" lon="-2.1473">
        <ele>54.5</ele>
        <time>2011-11-13T08:18:55Z</time>
      </trkpt>
      <trkpt lat="47.39293" lon="-2.14722">
        <ele>54.5</ele>
        <time>2011-11-13T08:18:58Z</time>
      </trkpt>
      <trkpt lat="47.39288" lon="-2.1472">
        <ele>54.5</ele>
        <time>2011-11-13T08:18:59Z</time>
      </trkpt>
      <trkpt lat="47.39278" lon="-2.14715">
        <ele>54.7</ele>
        <time>2011-11-13T08:19:01Z</time>
      </trkpt>
      <trkpt lat="47.39272" lon="-2.14712">
        <ele>54.7</ele>
        <time>2011-11-13T08:19:02Z</time>
      </trkpt>
      <trkpt lat="47.39267" lon="-2.14706">
        <ele>54.8</ele>
        <time>2011-11-13T08:19:03Z</time>
      </trkpt>
      <trkpt lat="47.39257" lon="-2.14711">
        <ele>55.1</ele>
        <time>2011-11-13T08:19:04Z</time>
      </trkpt>
      <trkpt lat="47.39248" lon="-2.14702">
        <ele>54.8</ele>
        <time>2011-11-13T08:19:06Z</time>
      </trkpt>
      <trkpt lat="47.39243" lon="-2.14698">
        <ele>54.6</ele>
        <time>2011-11-13T08:19:07Z</time>
      </trkpt>
      <trkpt lat="47.39234" lon="-2.14687">
        <ele>55</ele>
        <time>2011-11-13T08:19:09Z</time>
      </trkpt>
      <trkpt lat="47.39228" lon="-2.14674">
        <ele>54</ele>
        <time>2011-11-13T08:19:10Z</time>
      </trkpt>
      <trkpt lat="47.39223" lon="-2.1467">
        <ele>54.2</ele>
        <time>2011-11-13T08:19:11Z</time>
      </trkpt>
      <trkpt lat="47.39218" lon="-2.14666">
        <ele>54</ele>
        <time>2011-11-13T08:19:12Z</time>
      </trkpt>
      <trkpt lat="47.39214" lon="-2.14663">
        <ele>54.1</ele>
        <time>2011-11-13T08:19:13Z</time>
      </trkpt>
      <trkpt lat="47.39208" lon="-2.14656">
        <ele>53.9</ele>
        <time>2011-11-13T08:19:14Z</time>
      </trkpt>
      <trkpt lat="47.39203" lon="-2.14652">
        <ele>53.9</ele>
        <time>2011-11-13T08:19:15Z</time>
      </trkpt>
      <trkpt lat="47.39198" lon="-2.14647">
        <ele>53.9</ele>
        <time>2011-11-13T08:19:16Z</time>
      </trkpt>
      <trkpt lat="47.39193" lon="-2.14642">
        <ele>53.8</ele>
        <time>2011-11-13T08:19:17Z</time>
      </trkpt>
      <trkpt lat="47.39188" lon="-2.14638">
        <ele>53.8</ele>
        <time>2011-11-13T08:19:18Z</time>
      </trkpt>
      <trkpt lat="47.39182" lon="-2.14634">
        <ele>54.2</ele>
        <time>2011-11-13T08:19:19Z</time>
      </trkpt>
      <trkpt lat="47.39178" lon="-2.1463">
        <ele>54.3</ele>
        <time>2011-11-13T08:19:20Z</time>
      </trkpt>
      <trkpt lat="47.39172" lon="-2.14626">
        <ele>54.4</ele>
        <time>2011-11-13T08:19:21Z</time>
      </trkpt>
      <trkpt lat="47.39166" lon="-2.1462">
        <ele>54.9</ele>
        <time>2011-11-13T08:19:22Z</time>
      </trkpt>
      <trkpt lat="47.39161" lon="-2.14616">
        <ele>54.9</ele>
        <time>2011-11-13T08:19:23Z</time>
      </trkpt>
      <trkpt lat="47.39157" lon="-2.14612">
        <ele>55.3</ele>
        <time>2011-11-13T08:19:24Z</time>
      </trkpt>
      <trkpt lat="47.39152" lon="-2.14613">
        <ele>55.2</ele>
        <time>2011-11-13T08:19:25Z</time>
      </trkpt>
      <trkpt lat="47.39148" lon="-2.14608">
        <ele>55.5</ele>
        <time>2011-11-13T08:19:26Z</time>
      </trkpt>
      <trkpt lat="47.39143" lon="-2.14602">
        <ele>55.4</ele>
        <time>2011-11-13T08:19:27Z</time>
      </trkpt>
      <trkpt lat="47.39138" lon="-2.14597">
        <ele>55.2</ele>
        <time>2011-11-13T08:19:28Z</time>
      </trkpt>
      <trkpt lat="47.39133" lon="-2.1459">
        <ele>54.7</ele>
        <time>2011-11-13T08:19:29Z</time>
      </trkpt>
      <trkpt lat="47.39128" lon="-2.14583">
        <ele>54.5</ele>
        <time>2011-11-13T08:19:30Z</time>
      </trkpt>
      <trkpt lat="47.39124" lon="-2.14576">
        <ele>54.9</ele>
        <time>2011-11-13T08:19:31Z</time>
      </trkpt>
      <trkpt lat="47.39121" lon="-2.1457">
        <ele>54.7</ele>
        <time>2011-11-13T08:19:32Z</time>
      </trkpt>
      <trkpt lat="47.39117" lon="-2.14564">
        <ele>54.9</ele>
        <time>2011-11-13T08:19:33Z</time>
      </trkpt>
      <trkpt lat="47.39114" lon="-2.14558">
        <ele>54.7</ele>
        <time>2011-11-13T08:19:34Z</time>
      </trkpt>
      <trkpt lat="47.3911" lon="-2.14551">
        <ele>54.5</ele>
        <time>2011-11-13T08:19:35Z</time>
      </trkpt>
      <trkpt lat="47.39106" lon="-2.14545">
        <ele>54.8</ele>
        <time>2011-11-13T08:19:36Z</time>
      </trkpt>
      <trkpt lat="47.39103" lon="-2.14538">
        <ele>55</ele>
        <time>2011-11-13T08:19:37Z</time>
      </trkpt>
      <trkpt lat="47.39099" lon="-2.14533">
        <ele>55.5</ele>
        <time>2011-11-13T08:19:38Z</time>
      </trkpt>
      <trkpt lat="47.39095" lon="-2.14528">
        <ele>55.6</ele>
        <time>2011-11-13T08:19:39Z</time>
      </trkpt>
      <trkpt lat="47.39092" lon="-2.14522">
        <ele>55.7</ele>
        <time>2011-11-13T08:19:40Z</time>
      </trkpt>
      <trkpt lat="47.39089" lon="-2.14517">
        <ele>55.7</ele>
        <time>2011-11-13T08:19:41Z</time>
      </trkpt>
      <trkpt lat="47.39085" lon="-2.14511">
        <ele>55.7</ele>
        <time>2011-11-13T08:19:42Z</time>
      </trkpt>
      <trkpt lat="47.39083" lon="-2.14503">
        <ele>55.8</ele>
        <time>2011-11-13T08:19:43Z</time>
      </trkpt>
      <trkpt lat="47.39079" lon="-2.14495">
        <ele>56</ele>
        <time>2011-11-13T08:19:44Z</time>
      </trkpt>
      <trkpt lat="47.39072" lon="-2.14486">
        <ele>56.3</ele>
        <time>2011-11-13T08:19:46Z</time>
      </trkpt>
      <trkpt lat="47.39068" lon="-2.14478">
        <ele>56.4</ele>
        <time>2011-11-13T08:19:47Z</time>
      </trkpt>
      <trkpt lat="47.39065" lon="-2.14473">
        <ele>56.5</ele>
        <time>2011-11-13T08:19:48Z</time>
      </trkpt>
      <trkpt lat="47.3906" lon="-2.14467">
        <ele>55.9</ele>
        <time>2011-11-13T08:19:49Z</time>
      </trkpt>
      <trkpt lat="47.39056" lon="-2.1446">
        <ele>55.7</ele>
        <time>2011-11-13T08:19:50Z</time>
      </trkpt>
      <trkpt lat="47.39053" lon="-2.14455">
        <ele>56.3</ele>
        <time>2011-11-13T08:19:51Z</time>
      </trkpt>
      <trkpt lat="47.3905" lon="-2.1445">
        <ele>56.6</ele>
        <time>2011-11-13T08:19:52Z</time>
      </trkpt>
      <trkpt lat="47.39046" lon="-2.14444">
        <ele>57.1</ele>
        <time>2011-11-13T08:19:53Z</time>
      </trkpt>
      <trkpt lat="47.39042" lon="-2.14437">
        <ele>57.3</ele>
        <time>2011-11-13T08:19:54Z</time>
      </trkpt>
      <trkpt lat="47.39039" lon="-2.14432">
        <ele>57.8</ele>
        <time>2011-11-13T08:19:55Z</time>
      </trkpt>
      <trkpt lat="47.39036" lon="-2.14426">
        <ele>58.1</ele>
        <time>2011-11-13T08:19:56Z</time>
      </trkpt>
      <trkpt lat="47.39031" lon="-2.14417">
        <ele>56.8</ele>
        <time>2011-11-13T08:19:57Z</time>
      </trkpt>
      <trkpt lat="47.39028" lon="-2.1441">
        <ele>56.7</ele>
        <time>2011-11-13T08:19:58Z</time>
      </trkpt>
      <trkpt lat="47.39024" lon="-2.14404">
        <ele>57.2</ele>
        <time>2011-11-13T08:19:59Z</time>
      </trkpt>
      <trkpt lat="47.39017" lon="-2.14395">
        <ele>57.7</ele>
        <time>2011-11-13T08:20:01Z</time>
      </trkpt>
      <trkpt lat="47.39014" lon="-2.1439">
        <ele>57.3</ele>
        <time>2011-11-13T08:20:02Z</time>
      </trkpt>
      <trkpt lat="47.3901" lon="-2.14385">
        <ele>57.4</ele>
        <time>2011-11-13T08:20:03Z</time>
      </trkpt>
      <trkpt lat="47.39008" lon="-2.14378">
        <ele>57.5</ele>
        <time>2011-11-13T08:20:04Z</time>
      </trkpt>
      <trkpt lat="47.39004" lon="-2.14367">
        <ele>57.8</ele>
        <time>2011-11-13T08:20:06Z</time>
      </trkpt>
      <trkpt lat="47.39001" lon="-2.14361">
        <ele>57.9</ele>
        <time>2011-11-13T08:20:07Z</time>
      </trkpt>
      <trkpt lat="47.38998" lon="-2.14356">
        <ele>58</ele>
        <time>2011-11-13T08:20:08Z</time>
      </trkpt>
      <trkpt lat="47.38995" lon="-2.1435">
        <ele>58.1</ele>
        <time>2011-11-13T08:20:09Z</time>
      </trkpt>
      <trkpt lat="47.38993" lon="-2.14344">
        <ele>57.7</ele>
        <time>2011-11-13T08:20:10Z</time>
      </trkpt>
      <trkpt lat="47.3899" lon="-2.14338">
        <ele>57.7</ele>
        <time>2011-11-13T08:20:11Z</time>
      </trkpt>
      <trkpt lat="47.38987" lon="-2.14331">
        <ele>57.7</ele>
        <time>2011-11-13T08:20:12Z</time>
      </trkpt>
      <trkpt lat="47.38984" lon="-2.14325">
        <ele>57.7</ele>
        <time>2011-11-13T08:20:13Z</time>
      </trkpt>
      <trkpt lat="47.38978" lon="-2.14316">
        <ele>58</ele>
        <time>2011-11-13T08:20:15Z</time>
      </trkpt>
      <trkpt lat="47.38973" lon="-2.14308">
        <ele>58.3</ele>
        <time>2011-11-13T08:20:17Z</time>
      </trkpt>
      <trkpt lat="47.38967" lon="-2.14303">
        <ele>58.3</ele>
        <time>2011-11-13T08:20:19Z</time>
      </trkpt>
      <trkpt lat="47.38963" lon="-2.14309">
        <ele>58.9</ele>
        <time>2011-11-13T08:20:20Z</time>
      </trkpt>
      <trkpt lat="47.38959" lon="-2.14312">
        <ele>58.9</ele>
        <time>2011-11-13T08:20:21Z</time>
      </trkpt>
      <trkpt lat="47.38954" lon="-2.14316">
        <ele>58.5</ele>
        <time>2011-11-13T08:20:22Z</time>
      </trkpt>
      <trkpt lat="47.3895" lon="-2.14322">
        <ele>58.2</ele>
        <time>2011-11-13T08:20:23Z</time>
      </trkpt>
      <trkpt lat="47.38944" lon="-2.14329">
        <ele>57.5</ele>
        <time>2011-11-13T08:20:24Z</time>
      </trkpt>
      <trkpt lat="47.38938" lon="-2.14335">
        <ele>56.8</ele>
        <time>2011-11-13T08:20:25Z</time>
      </trkpt>
      <trkpt lat="47.38932" lon="-2.14342">
        <ele>55.9</ele>
        <time>2011-11-13T08:20:26Z</time>
      </trkpt>
      <trkpt lat="47.38925" lon="-2.1435">
        <ele>55.3</ele>
        <time>2011-11-13T08:20:27Z</time>
      </trkpt>
      <trkpt lat="47.38918" lon="-2.14355">
        <ele>54.8</ele>
        <time>2011-11-13T08:20:28Z</time>
      </trkpt>
      <trkpt lat="47.38909" lon="-2.1436">
        <ele>54.3</ele>
        <time>2011-11-13T08:20:29Z</time>
      </trkpt>
      <trkpt lat="47.389" lon="-2.14363">
        <ele>54</ele>
        <time>2011-11-13T08:20:30Z</time>
      </trkpt>
      <trkpt lat="47.38891" lon="-2.14365">
        <ele>53.8</ele>
        <time>2011-11-13T08:20:31Z</time>
      </trkpt>
      <trkpt lat="47.38883" lon="-2.14368">
        <ele>53.7</ele>
        <time>2011-11-13T08:20:32Z</time>
      </trkpt>
      <trkpt lat="47.38875" lon="-2.14371">
        <ele>53.7</ele>
        <time>2011-11-13T08:20:33Z</time>
      </trkpt>
      <trkpt lat="47.38868" lon="-2.14374">
        <ele>54.2</ele>
        <time>2011-11-13T08:20:34Z</time>
      </trkpt>
      <trkpt lat="47.38861" lon="-2.14378">
        <ele>54.7</ele>
        <time>2011-11-13T08:20:35Z</time>
      </trkpt>
      <trkpt lat="47.38854" lon="-2.14382">
        <ele>54.8</ele>
        <time>2011-11-13T08:20:36Z</time>
      </trkpt>
      <trkpt lat="47.38849" lon="-2.14386">
        <ele>55.1</ele>
        <time>2011-11-13T08:20:37Z</time>
      </trkpt>
      <trkpt lat="47.38844" lon="-2.14389">
        <ele>54.9</ele>
        <time>2011-11-13T08:20:38Z</time>
      </trkpt>
      <trkpt lat="47.38838" lon="-2.14392">
        <ele>55.1</ele>
        <time>2011-11-13T08:20:39Z</time>
      </trkpt>
      <trkpt lat="47.38832" lon="-2.14394">
        <ele>55</ele>
        <time>2011-11-13T08:20:40Z</time>
      </trkpt>
      <trkpt lat="47.38826" lon="-2.14396">
        <ele>55.3</ele>
        <time>2011-11-13T08:20:41Z</time>
      </trkpt>
      <trkpt lat="47.38818" lon="-2.14399">
        <ele>54.9</ele>
        <time>2011-11-13T08:20:42Z</time>
      </trkpt>
      <trkpt lat="47.38811" lon="-2.14401">
        <ele>54.6</ele>
        <time>2011-11-13T08:20:43Z</time>
      </trkpt>
      <trkpt lat="47.38797" lon="-2.14405">
        <ele>54.7</ele>
        <time>2011-11-13T08:20:45Z</time>
      </trkpt>
      <trkpt lat="47.38791" lon="-2.14405">
        <ele>54.9</ele>
        <time>2011-11-13T08:20:46Z</time>
      </trkpt>
      <trkpt lat="47.38783" lon="-2.14405">
        <ele>55.2</ele>
        <time>2011-11-13T08:20:47Z</time>
      </trkpt>
      <trkpt lat="47.38776" lon="-2.14405">
        <ele>55.1</ele>
        <time>2011-11-13T08:20:48Z</time>
      </trkpt>
      <trkpt lat="47.38768" lon="-2.14408">
        <ele>54.9</ele>
        <time>2011-11-13T08:20:49Z</time>
      </trkpt>
      <trkpt lat="47.38762" lon="-2.1441">
        <ele>54.9</ele>
        <time>2011-11-13T08:20:50Z</time>
      </trkpt>
      <trkpt lat="47.38755" lon="-2.14412">
        <ele>54.6</ele>
        <time>2011-11-13T08:20:51Z</time>
      </trkpt>
      <trkpt lat="47.38749" lon="-2.14414">
        <ele>54.5</ele>
        <time>2011-11-13T08:20:52Z</time>
      </trkpt>
      <trkpt lat="47.38742" lon="-2.14417">
        <ele>54.5</ele>
        <time>2011-11-13T08:20:53Z</time>
      </trkpt>
      <trkpt lat="47.38735" lon="-2.14421">
        <ele>54.5</ele>
        <time>2011-11-13T08:20:54Z</time>
      </trkpt>
      <trkpt lat="47.38728" lon="-2.14426">
        <ele>54.8</ele>
        <time>2011-11-13T08:20:55Z</time>
      </trkpt>
      <trkpt lat="47.38722" lon="-2.1443">
        <ele>54.6</ele>
        <time>2011-11-13T08:20:56Z</time>
      </trkpt>
      <trkpt lat="47.38719" lon="-2.14435">
        <ele>54.8</ele>
        <time>2011-11-13T08:20:57Z</time>
      </trkpt>
      <trkpt lat="47.38714" lon="-2.14442">
        <ele>55.6</ele>
        <time>2011-11-13T08:20:58Z</time>
      </trkpt>
      <trkpt lat="47.38709" lon="-2.14448">
        <ele>56.2</ele>
        <time>2011-11-13T08:20:59Z</time>
      </trkpt>
      <trkpt lat="47.38705" lon="-2.14454">
        <ele>56.1</ele>
        <time>2011-11-13T08:21:00Z</time>
      </trkpt>
      <trkpt lat="47.38701" lon="-2.14462">
        <ele>56.4</ele>
        <time>2011-11-13T08:21:01Z</time>
      </trkpt>
      <trkpt lat="47.38698" lon="-2.14469">
        <ele>56.7</ele>
        <time>2011-11-13T08:21:02Z</time>
      </trkpt>
      <trkpt lat="47.38694" lon="-2.14476">
        <ele>57.1</ele>
        <time>2011-11-13T08:21:03Z</time>
      </trkpt>
      <trkpt lat="47.38691" lon="-2.14484">
        <ele>57</ele>
        <time>2011-11-13T08:21:04Z</time>
      </trkpt>
      <trkpt lat="47.38689" lon="-2.14492">
        <ele>57</ele>
        <time>2011-11-13T08:21:05Z</time>
      </trkpt>
      <trkpt lat="47.38686" lon="-2.14501">
        <ele>57</ele>
        <time>2011-11-13T08:21:06Z</time>
      </trkpt>
      <trkpt lat="47.38686" lon="-2.14513">
        <ele>57.6</ele>
        <time>2011-11-13T08:21:08Z</time>
      </trkpt>
      <trkpt lat="47.38685" lon="-2.1452">
        <ele>57.9</ele>
        <time>2011-11-13T08:21:09Z</time>
      </trkpt>
      <trkpt lat="47.38678" lon="-2.14529">
        <ele>57.6</ele>
        <time>2011-11-13T08:21:10Z</time>
      </trkpt>
      <trkpt lat="47.38673" lon="-2.14536">
        <ele>57.1</ele>
        <time>2011-11-13T08:21:11Z</time>
      </trkpt>
      <trkpt lat="47.38664" lon="-2.14539">
        <ele>56.1</ele>
        <time>2011-11-13T08:21:13Z</time>
      </trkpt>
      <trkpt lat="47.3866" lon="-2.14538">
        <ele>56</ele>
        <time>2011-11-13T08:21:14Z</time>
      </trkpt>
      <trkpt lat="47.38652" lon="-2.14533">
        <ele>55</ele>
        <time>2011-11-13T08:21:16Z</time>
      </trkpt>
      <trkpt lat="47.38651" lon="-2.14526">
        <ele>55.2</ele>
        <time>2011-11-13T08:21:17Z</time>
      </trkpt>
      <trkpt lat="47.38648" lon="-2.1452">
        <ele>55.4</ele>
        <time>2011-11-13T08:21:18Z</time>
      </trkpt>
      <trkpt lat="47.38646" lon="-2.14514">
        <ele>55.6</ele>
        <time>2011-11-13T08:21:19Z</time>
      </trkpt>
      <trkpt lat="47.38643" lon="-2.14509">
        <ele>55.7</ele>
        <time>2011-11-13T08:21:20Z</time>
      </trkpt>
      <trkpt lat="47.38638" lon="-2.145">
        <ele>55.9</ele>
        <time>2011-11-13T08:21:22Z</time>
      </trkpt>
      <trkpt lat="47.38632" lon="-2.14501">
        <ele>56.2</ele>
        <time>2011-11-13T08:21:24Z</time>
      </trkpt>
      <trkpt lat="47.38623" lon="-2.14503">
        <ele>56.4</ele>
        <time>2011-11-13T08:21:26Z</time>
      </trkpt>
      <trkpt lat="47.38618" lon="-2.14503">
        <ele>56.1</ele>
        <time>2011-11-13T08:21:27Z</time>
      </trkpt>
      <trkpt lat="47.38609" lon="-2.14504">
        <ele>56.3</ele>
        <time>2011-11-13T08:21:29Z</time>
      </trkpt>
      <trkpt lat="47.38601" lon="-2.14504">
        <ele>55.9</ele>
        <time>2011-11-13T08:21:31Z</time>
      </trkpt>
      <trkpt lat="47.38596" lon="-2.14506">
        <ele>56</ele>
        <time>2011-11-13T08:21:32Z</time>
      </trkpt>
      <trkpt lat="47.3859" lon="-2.14507">
        <ele>55.9</ele>
        <time>2011-11-13T08:21:33Z</time>
      </trkpt>
      <trkpt lat="47.38585" lon="-2.14507">
        <ele>55.4</ele>
        <time>2011-11-13T08:21:34Z</time>
      </trkpt>
      <trkpt lat="47.38579" lon="-2.14507">
        <ele>55</ele>
        <time>2011-11-13T08:21:35Z</time>
      </trkpt>
      <trkpt lat="47.38573" lon="-2.14507">
        <ele>54.5</ele>
        <time>2011-11-13T08:21:36Z</time>
      </trkpt>
      <trkpt lat="47.38567" lon="-2.14507">
        <ele>54</ele>
        <time>2011-11-13T08:21:37Z</time>
      </trkpt>
      <trkpt lat="47.38561" lon="-2.14507">
        <ele>53.5</ele>
        <time>2011-11-13T08:21:38Z</time>
      </trkpt>
      <trkpt lat="47.38554" lon="-2.14507">
        <ele>53.4</ele>
        <time>2011-11-13T08:21:39Z</time>
      </trkpt>
      <trkpt lat="47.38548" lon="-2.14507">
        <ele>53.3</ele>
        <time>2011-11-13T08:21:40Z</time>
      </trkpt>
      <trkpt lat="47.38542" lon="-2.14506">
        <ele>53.1</ele>
        <time>2011-11-13T08:21:41Z</time>
      </trkpt>
      <trkpt lat="47.38537" lon="-2.14506">
        <ele>52.7</ele>
        <time>2011-11-13T08:21:42Z</time>
      </trkpt>
      <trkpt lat="47.38531" lon="-2.14506">
        <ele>52.6</ele>
        <time>2011-11-13T08:21:43Z</time>
      </trkpt>
      <trkpt lat="47.38523" lon="-2.14507">
        <ele>52.8</ele>
        <time>2011-11-13T08:21:45Z</time>
      </trkpt>
      <trkpt lat="47.38518" lon="-2.14507">
        <ele>52.6</ele>
        <time>2011-11-13T08:21:46Z</time>
      </trkpt>
      <trkpt lat="47.38513" lon="-2.14504">
        <ele>52.3</ele>
        <time>2011-11-13T08:21:47Z</time>
      </trkpt>
      <trkpt lat="47.38508" lon="-2.14501">
        <ele>52.8</ele>
        <time>2011-11-13T08:21:48Z</time>
      </trkpt>
      <trkpt lat="47.38504" lon="-2.14496">
        <ele>53.2</ele>
        <time>2011-11-13T08:21:49Z</time>
      </trkpt>
      <trkpt lat="47.38503" lon="-2.14486">
        <ele>52.8</ele>
        <time>2011-11-13T08:21:50Z</time>
      </trkpt>
      <trkpt lat="47.38501" lon="-2.14475">
        <ele>52.1</ele>
        <time>2011-11-13T08:21:51Z</time>
      </trkpt>
      <trkpt lat="47.38501" lon="-2.14466">
        <ele>52.2</ele>
        <time>2011-11-13T08:21:52Z</time>
      </trkpt>
      <trkpt lat="47.385" lon="-2.14457">
        <ele>51.9</ele>
        <time>2011-11-13T08:21:53Z</time>
      </trkpt>
      <trkpt lat="47.38502" lon="-2.14447">
        <ele>52</ele>
        <time>2011-11-13T08:21:54Z</time>
      </trkpt>
      <trkpt lat="47.38503" lon="-2.14439">
        <ele>52</ele>
        <time>2011-11-13T08:21:55Z</time>
      </trkpt>
      <trkpt lat="47.38504" lon="-2.14431">
        <ele>52.2</ele>
        <time>2011-11-13T08:21:56Z</time>
      </trkpt>
      <trkpt lat="47.38505" lon="-2.14422">
        <ele>52.1</ele>
        <time>2011-11-13T08:21:57Z</time>
      </trkpt>
      <trkpt lat="47.3851" lon="-2.14413">
        <ele>51.9</ele>
        <time>2011-11-13T08:21:58Z</time>
      </trkpt>
      <trkpt lat="47.38513" lon="-2.14405">
        <ele>51.5</ele>
        <time>2011-11-13T08:21:59Z</time>
      </trkpt>
      <trkpt lat="47.38516" lon="-2.14398">
        <ele>51.4</ele>
        <time>2011-11-13T08:22:00Z</time>
      </trkpt>
      <trkpt lat="47.38519" lon="-2.14392">
        <ele>51.3</ele>
        <time>2011-11-13T08:22:01Z</time>
      </trkpt>
      <trkpt lat="47.38524" lon="-2.14384">
        <ele>50.7</ele>
        <time>2011-11-13T08:22:02Z</time>
      </trkpt>
      <trkpt lat="47.38527" lon="-2.14379">
        <ele>50.6</ele>
        <time>2011-11-13T08:22:03Z</time>
      </trkpt>
      <trkpt lat="47.38533" lon="-2.14373">
        <ele>50.5</ele>
        <time>2011-11-13T08:22:04Z</time>
      </trkpt>
      <trkpt lat="47.38538" lon="-2.14367">
        <ele>50.5</ele>
        <time>2011-11-13T08:22:05Z</time>
      </trkpt>
      <trkpt lat="47.38542" lon="-2.14361">
        <ele>50.8</ele>
        <time>2011-11-13T08:22:06Z</time>
      </trkpt>
      <trkpt lat="47.38546" lon="-2.14355">
        <ele>50.5</ele>
        <time>2011-11-13T08:22:07Z</time>
      </trkpt>
      <trkpt lat="47.3855" lon="-2.14349">
        <ele>50.5</ele>
        <time>2011-11-13T08:22:08Z</time>
      </trkpt>
      <trkpt lat="47.38553" lon="-2.14341">
        <ele>50.3</ele>
        <time>2011-11-13T08:22:09Z</time>
      </trkpt>
      <trkpt lat="47.38558" lon="-2.14334">
        <ele>50.7</ele>
        <time>2011-11-13T08:22:10Z</time>
      </trkpt>
      <trkpt lat="47.38561" lon="-2.14327">
        <ele>50.1</ele>
        <time>2011-11-13T08:22:11Z</time>
      </trkpt>
      <trkpt lat="47.38563" lon="-2.14319">
        <ele>50.3</ele>
        <time>2011-11-13T08:22:12Z</time>
      </trkpt>
      <trkpt lat="47.38565" lon="-2.1431">
        <ele>49.8</ele>
        <time>2011-11-13T08:22:13Z</time>
      </trkpt>
      <trkpt lat="47.38564" lon="-2.14301">
        <ele>50.3</ele>
        <time>2011-11-13T08:22:14Z</time>
      </trkpt>
      <trkpt lat="47.38564" lon="-2.14294">
        <ele>49.9</ele>
        <time>2011-11-13T08:22:15Z</time>
      </trkpt>
      <trkpt lat="47.38566" lon="-2.14285">
        <ele>49.7</ele>
        <time>2011-11-13T08:22:16Z</time>
      </trkpt>
      <trkpt lat="47.38569" lon="-2.14278">
        <ele>50.2</ele>
        <time>2011-11-13T08:22:17Z</time>
      </trkpt>
      <trkpt lat="47.38571" lon="-2.1427">
        <ele>49.9</ele>
        <time>2011-11-13T08:22:18Z</time>
      </trkpt>
      <trkpt lat="47.38573" lon="-2.14263">
        <ele>50.3</ele>
        <time>2011-11-13T08:22:19Z</time>
      </trkpt>
      <trkpt lat="47.38575" lon="-2.14256">
        <ele>50.4</ele>
        <time>2011-11-13T08:22:20Z</time>
      </trkpt>
      <trkpt lat="47.38577" lon="-2.14247">
        <ele>49.9</ele>
        <time>2011-11-13T08:22:21Z</time>
      </trkpt>
      <trkpt lat="47.38579" lon="-2.1424">
        <ele>49.9</ele>
        <time>2011-11-13T08:22:22Z</time>
      </trkpt>
      <trkpt lat="47.3858" lon="-2.14232">
        <ele>50.1</ele>
        <time>2011-11-13T08:22:23Z</time>
      </trkpt>
      <trkpt lat="47.38581" lon="-2.14225">
        <ele>50</ele>
        <time>2011-11-13T08:22:24Z</time>
      </trkpt>
      <trkpt lat="47.38585" lon="-2.14212">
        <ele>50.2</ele>
        <time>2011-11-13T08:22:26Z</time>
      </trkpt>
      <trkpt lat="47.38588" lon="-2.14199">
        <ele>50.9</ele>
        <time>2011-11-13T08:22:28Z</time>
      </trkpt>
      <trkpt lat="47.38591" lon="-2.14192">
        <ele>51.1</ele>
        <time>2011-11-13T08:22:29Z</time>
      </trkpt>
      <trkpt lat="47.38593" lon="-2.14184">
        <ele>50.9</ele>
        <time>2011-11-13T08:22:30Z</time>
      </trkpt>
      <trkpt lat="47.38596" lon="-2.14175">
        <ele>51.2</ele>
        <time>2011-11-13T08:22:31Z</time>
      </trkpt>
      <trkpt lat="47.38598" lon="-2.14167">
        <ele>51.5</ele>
        <time>2011-11-13T08:22:32Z</time>
      </trkpt>
      <trkpt lat="47.38602" lon="-2.14159">
        <ele>51.5</ele>
        <time>2011-11-13T08:22:33Z</time>
      </trkpt>
      <trkpt lat="47.38604" lon="-2.14152">
        <ele>51.6</ele>
        <time>2011-11-13T08:22:34Z</time>
      </trkpt>
      <trkpt lat="47.38607" lon="-2.14143">
        <ele>51.7</ele>
        <time>2011-11-13T08:22:35Z</time>
      </trkpt>
      <trkpt lat="47.38606" lon="-2.14136">
        <ele>52.4</ele>
        <time>2011-11-13T08:22:36Z</time>
      </trkpt>
      <trkpt lat="47.38606" lon="-2.14129">
        <ele>52.5</ele>
        <time>2011-11-13T08:22:37Z</time>
      </trkpt>
      <trkpt lat="47.38607" lon="-2.14122">
        <ele>52.7</ele>
        <time>2011-11-13T08:22:38Z</time>
      </trkpt>
      <trkpt lat="47.38597" lon="-2.14117">
        <ele>54</ele>
        <time>2011-11-13T08:22:40Z</time>
      </trkpt>
      <trkpt lat="47.38592" lon="-2.14113">
        <ele>54.1</ele>
        <time>2011-11-13T08:22:41Z</time>
      </trkpt>
      <trkpt lat="47.38586" lon="-2.14111">
        <ele>54.2</ele>
        <time>2011-11-13T08:22:42Z</time>
      </trkpt>
      <trkpt lat="47.38581" lon="-2.14109">
        <ele>54.4</ele>
        <time>2011-11-13T08:22:43Z</time>
      </trkpt>
      <trkpt lat="47.38576" lon="-2.14107">
        <ele>54.5</ele>
        <time>2011-11-13T08:22:44Z</time>
      </trkpt>
      <trkpt lat="47.3857" lon="-2.14106">
        <ele>54.9</ele>
        <time>2011-11-13T08:22:45Z</time>
      </trkpt>
      <trkpt lat="47.38565" lon="-2.14104">
        <ele>55.4</ele>
        <time>2011-11-13T08:22:46Z</time>
      </trkpt>
      <trkpt lat="47.3856" lon="-2.14102">
        <ele>55.5</ele>
        <time>2011-11-13T08:22:47Z</time>
      </trkpt>
      <trkpt lat="47.38554" lon="-2.14097">
        <ele>55.6</ele>
        <time>2011-11-13T08:22:48Z</time>
      </trkpt>
      <trkpt lat="47.38545" lon="-2.14091">
        <ele>56.7</ele>
        <time>2011-11-13T08:22:50Z</time>
      </trkpt>
      <trkpt lat="47.38539" lon="-2.14084">
        <ele>57.1</ele>
        <time>2011-11-13T08:22:51Z</time>
      </trkpt>
      <trkpt lat="47.38532" lon="-2.14079">
        <ele>56.8</ele>
        <time>2011-11-13T08:22:52Z</time>
      </trkpt>
      <trkpt lat="47.38525" lon="-2.14072">
        <ele>57</ele>
        <time>2011-11-13T08:22:53Z</time>
      </trkpt>
      <trkpt lat="47.38519" lon="-2.14065">
        <ele>56.6</ele>
        <time>2011-11-13T08:22:54Z</time>
      </trkpt>
      <trkpt lat="47.38513" lon="-2.14058">
        <ele>56.5</ele>
        <time>2011-11-13T08:22:55Z</time>
      </trkpt>
      <trkpt lat="47.38507" lon="-2.14052">
        <ele>56.2</ele>
        <time>2011-11-13T08:22:56Z</time>
      </trkpt>
      <trkpt lat="47.38501" lon="-2.14046">
        <ele>56.4</ele>
        <time>2011-11-13T08:22:57Z</time>
      </trkpt>
      <trkpt lat="47.38496" lon="-2.1404">
        <ele>56.1</ele>
        <time>2011-11-13T08:22:58Z</time>
      </trkpt>
      <trkpt lat="47.38489" lon="-2.14035">
        <ele>56.2</ele>
        <time>2011-11-13T08:22:59Z</time>
      </trkpt>
      <trkpt lat="47.38483" lon="-2.14031">
        <ele>56.3</ele>
        <time>2011-11-13T08:23:00Z</time>
      </trkpt>
      <trkpt lat="47.38477" lon="-2.14029">
        <ele>56.7</ele>
        <time>2011-11-13T08:23:01Z</time>
      </trkpt>
      <trkpt lat="47.38471" lon="-2.14027">
        <ele>57.4</ele>
        <time>2011-11-13T08:23:02Z</time>
      </trkpt>
      <trkpt lat="47.38466" lon="-2.14021">
        <ele>57.7</ele>
        <time>2011-11-13T08:23:03Z</time>
      </trkpt>
      <trkpt lat="47.38461" lon="-2.14014">
        <ele>57.8</ele>
        <time>2011-11-13T08:23:04Z</time>
      </trkpt>
      <trkpt lat="47.38456" lon="-2.14008">
        <ele>58</ele>
        <time>2011-11-13T08:23:05Z</time>
      </trkpt>
      <trkpt lat="47.3845" lon="-2.14001">
        <ele>58.5</ele>
        <time>2011-11-13T08:23:06Z</time>
      </trkpt>
      <trkpt lat="47.38444" lon="-2.13993">
        <ele>58.7</ele>
        <time>2011-11-13T08:23:07Z</time>
      </trkpt>
      <trkpt lat="47.38438" lon="-2.13986">
        <ele>58.7</ele>
        <time>2011-11-13T08:23:08Z</time>
      </trkpt>
      <trkpt lat="47.38429" lon="-2.13969">
        <ele>58.7</ele>
        <time>2011-11-13T08:23:09Z</time>
      </trkpt>
      <trkpt lat="47.38423" lon="-2.13962">
        <ele>58.7</ele>
        <time>2011-11-13T08:23:10Z</time>
      </trkpt>
      <trkpt lat="47.3842" lon="-2.13957">
        <ele>58.5</ele>
        <time>2011-11-13T08:23:11Z</time>
      </trkpt>
      <trkpt lat="47.38412" lon="-2.13946">
        <ele>58.3</ele>
        <time>2011-11-13T08:23:12Z</time>
      </trkpt>
      <trkpt lat="47.38407" lon="-2.13938">
        <ele>57.5</ele>
        <time>2011-11-13T08:23:13Z</time>
      </trkpt>
      <trkpt lat="47.384" lon="-2.13941">
        <ele>59.6</ele>
        <time>2011-11-13T08:23:15Z</time>
      </trkpt>
      <trkpt lat="47.38393" lon="-2.13941">
        <ele>60.8</ele>
        <time>2011-11-13T08:23:17Z</time>
      </trkpt>
      <trkpt lat="47.38389" lon="-2.13926">
        <ele>57.8</ele>
        <time>2011-11-13T08:23:18Z</time>
      </trkpt>
      <trkpt lat="47.38384" lon="-2.1392">
        <ele>57.3</ele>
        <time>2011-11-13T08:23:19Z</time>
      </trkpt>
      <trkpt lat="47.38378" lon="-2.13915">
        <ele>57.1</ele>
        <time>2011-11-13T08:23:20Z</time>
      </trkpt>
      <trkpt lat="47.3837" lon="-2.1391">
        <ele>56.5</ele>
        <time>2011-11-13T08:23:21Z</time>
      </trkpt>
      <trkpt lat="47.38363" lon="-2.13907">
        <ele>56.4</ele>
        <time>2011-11-13T08:23:22Z</time>
      </trkpt>
      <trkpt lat="47.38356" lon="-2.13905">
        <ele>56.2</ele>
        <time>2011-11-13T08:23:23Z</time>
      </trkpt>
      <trkpt lat="47.38351" lon="-2.13904">
        <ele>55.7</ele>
        <time>2011-11-13T08:23:24Z</time>
      </trkpt>
      <trkpt lat="47.38342" lon="-2.13903">
        <ele>55.3</ele>
        <time>2011-11-13T08:23:25Z</time>
      </trkpt>
      <trkpt lat="47.38335" lon="-2.13899">
        <ele>54.6</ele>
        <time>2011-11-13T08:23:26Z</time>
      </trkpt>
      <trkpt lat="47.3833" lon="-2.13898">
        <ele>54.9</ele>
        <time>2011-11-13T08:23:27Z</time>
      </trkpt>
      <trkpt lat="47.38323" lon="-2.13896">
        <ele>54.5</ele>
        <time>2011-11-13T08:23:28Z</time>
      </trkpt>
      <trkpt lat="47.38314" lon="-2.13892">
        <ele>54.3</ele>
        <time>2011-11-13T08:23:29Z</time>
      </trkpt>
      <trkpt lat="47.38307" lon="-2.1389">
        <ele>54.4</ele>
        <time>2011-11-13T08:23:30Z</time>
      </trkpt>
      <trkpt lat="47.38301" lon="-2.13888">
        <ele>54.2</ele>
        <time>2011-11-13T08:23:31Z</time>
      </trkpt>
      <trkpt lat="47.38296" lon="-2.13886">
        <ele>54</ele>
        <time>2011-11-13T08:23:32Z</time>
      </trkpt>
      <trkpt lat="47.3829" lon="-2.13883">
        <ele>54</ele>
        <time>2011-11-13T08:23:33Z</time>
      </trkpt>
      <trkpt lat="47.38283" lon="-2.13881">
        <ele>53.8</ele>
        <time>2011-11-13T08:23:34Z</time>
      </trkpt>
      <trkpt lat="47.38279" lon="-2.13877">
        <ele>53.9</ele>
        <time>2011-11-13T08:23:35Z</time>
      </trkpt>
      <trkpt lat="47.38274" lon="-2.13872">
        <ele>53.8</ele>
        <time>2011-11-13T08:23:36Z</time>
      </trkpt>
      <trkpt lat="47.38269" lon="-2.13861">
        <ele>52.6</ele>
        <time>2011-11-13T08:23:37Z</time>
      </trkpt>
      <trkpt lat="47.38264" lon="-2.13854">
        <ele>52.8</ele>
        <time>2011-11-13T08:23:38Z</time>
      </trkpt>
      <trkpt lat="47.3826" lon="-2.13846">
        <ele>52.9</ele>
        <time>2011-11-13T08:23:39Z</time>
      </trkpt>
      <trkpt lat="47.38256" lon="-2.13837">
        <ele>52.3</ele>
        <time>2011-11-13T08:23:40Z</time>
      </trkpt>
      <trkpt lat="47.38252" lon="-2.13828">
        <ele>52.6</ele>
        <time>2011-11-13T08:23:41Z</time>
      </trkpt>
      <trkpt lat="47.38248" lon="-2.13821">
        <ele>52.1</ele>
        <time>2011-11-13T08:23:42Z</time>
      </trkpt>
      <trkpt lat="47.38244" lon="-2.13814">
        <ele>52.1</ele>
        <time>2011-11-13T08:23:43Z</time>
      </trkpt>
      <trkpt lat="47.3824" lon="-2.13806">
        <ele>52.1</ele>
        <time>2011-11-13T08:23:44Z</time>
      </trkpt>
      <trkpt lat="47.38237" lon="-2.13799">
        <ele>52.7</ele>
        <time>2011-11-13T08:23:45Z</time>
      </trkpt>
      <trkpt lat="47.38234" lon="-2.13791">
        <ele>52.6</ele>
        <time>2011-11-13T08:23:46Z</time>
      </trkpt>
      <trkpt lat="47.38231" lon="-2.13783">
        <ele>52.4</ele>
        <time>2011-11-13T08:23:47Z</time>
      </trkpt>
      <trkpt lat="47.38228" lon="-2.13775">
        <ele>52.2</ele>
        <time>2011-11-13T08:23:48Z</time>
      </trkpt>
      <trkpt lat="47.38225" lon="-2.13768">
        <ele>52.2</ele>
        <time>2011-11-13T08:23:49Z</time>
      </trkpt>
      <trkpt lat="47.3822" lon="-2.13754">
        <ele>52.4</ele>
        <time>2011-11-13T08:23:50Z</time>
      </trkpt>
      <trkpt lat="47.38214" lon="-2.13742">
        <ele>52.3</ele>
        <time>2011-11-13T08:23:52Z</time>
      </trkpt>
      <trkpt lat="47.38206" lon="-2.13725">
        <ele>53.5</ele>
        <time>2011-11-13T08:23:54Z</time>
      </trkpt>
      <trkpt lat="47.38206" lon="-2.13718">
        <ele>53.6</ele>
        <time>2011-11-13T08:23:55Z</time>
      </trkpt>
      <trkpt lat="47.38207" lon="-2.1371">
        <ele>53.2</ele>
        <time>2011-11-13T08:23:57Z</time>
      </trkpt>
      <trkpt lat="47.38209" lon="-2.13703">
        <ele>53.2</ele>
        <time>2011-11-13T08:23:58Z</time>
      </trkpt>
      <trkpt lat="47.38213" lon="-2.13697">
        <ele>53.4</ele>
        <time>2011-11-13T08:23:59Z</time>
      </trkpt>
      <trkpt lat="47.38216" lon="-2.1369">
        <ele>53</ele>
        <time>2011-11-13T08:24:00Z</time>
      </trkpt>
      <trkpt lat="47.38219" lon="-2.13684">
        <ele>53.1</ele>
        <time>2011-11-13T08:24:01Z</time>
      </trkpt>
      <trkpt lat="47.38223" lon="-2.13679">
        <ele>53.5</ele>
        <time>2011-11-13T08:24:02Z</time>
      </trkpt>
      <trkpt lat="47.38228" lon="-2.13674">
        <ele>53.4</ele>
        <time>2011-11-13T08:24:03Z</time>
      </trkpt>
      <trkpt lat="47.38232" lon="-2.13669">
        <ele>53.2</ele>
        <time>2011-11-13T08:24:04Z</time>
      </trkpt>
      <trkpt lat="47.38239" lon="-2.13665">
        <ele>53.4</ele>
        <time>2011-11-13T08:24:05Z</time>
      </trkpt>
      <trkpt lat="47.38246" lon="-2.13658">
        <ele>53</ele>
        <time>2011-11-13T08:24:07Z</time>
      </trkpt>
      <trkpt lat="47.38254" lon="-2.13647">
        <ele>53.3</ele>
        <time>2011-11-13T08:24:09Z</time>
      </trkpt>
      <trkpt lat="47.38264" lon="-2.13637">
        <ele>53.6</ele>
        <time>2011-11-13T08:24:11Z</time>
      </trkpt>
      <trkpt lat="47.38268" lon="-2.13634">
        <ele>53.8</ele>
        <time>2011-11-13T08:24:12Z</time>
      </trkpt>
      <trkpt lat="47.38273" lon="-2.1363">
        <ele>53.8</ele>
        <time>2011-11-13T08:24:13Z</time>
      </trkpt>
      <trkpt lat="47.38278" lon="-2.1363">
        <ele>51.9</ele>
        <time>2011-11-13T08:24:14Z</time>
      </trkpt>
      <trkpt lat="47.38287" lon="-2.13624">
        <ele>53.1</ele>
        <time>2011-11-13T08:24:15Z</time>
      </trkpt>
      <trkpt lat="47.38293" lon="-2.13619">
        <ele>52.6</ele>
        <time>2011-11-13T08:24:17Z</time>
      </trkpt>
      <trkpt lat="47.38296" lon="-2.13608">
        <ele>52.6</ele>
        <time>2011-11-13T08:24:19Z</time>
      </trkpt>
      <trkpt lat="47.38296" lon="-2.13598">
        <ele>53.9</ele>
        <time>2011-11-13T08:24:21Z</time>
      </trkpt>
      <trkpt lat="47.38293" lon="-2.1359">
        <ele>55.2</ele>
        <time>2011-11-13T08:24:22Z</time>
      </trkpt>
      <trkpt lat="47.38294" lon="-2.13584">
        <ele>55.9</ele>
        <time>2011-11-13T08:24:23Z</time>
      </trkpt>
      <trkpt lat="47.38295" lon="-2.13578">
        <ele>55.8</ele>
        <time>2011-11-13T08:24:24Z</time>
      </trkpt>
      <trkpt lat="47.383" lon="-2.13568">
        <ele>54.5</ele>
        <time>2011-11-13T08:24:25Z</time>
      </trkpt>
      <trkpt lat="47.38304" lon="-2.13562">
        <ele>54</ele>
        <time>2011-11-13T08:24:26Z</time>
      </trkpt>
      <trkpt lat="47.38309" lon="-2.13555">
        <ele>53.9</ele>
        <time>2011-11-13T08:24:27Z</time>
      </trkpt>
      <trkpt lat="47.38314" lon="-2.1355">
        <ele>53.7</ele>
        <time>2011-11-13T08:24:28Z</time>
      </trkpt>
      <trkpt lat="47.38315" lon="-2.13543">
        <ele>54.8</ele>
        <time>2011-11-13T08:24:29Z</time>
      </trkpt>
      <trkpt lat="47.3832" lon="-2.13538">
        <ele>54.6</ele>
        <time>2011-11-13T08:24:30Z</time>
      </trkpt>
      <trkpt lat="47.38322" lon="-2.13527">
        <ele>54.8</ele>
        <time>2011-11-13T08:24:32Z</time>
      </trkpt>
      <trkpt lat="47.38326" lon="-2.13519">
        <ele>54.5</ele>
        <time>2011-11-13T08:24:34Z</time>
      </trkpt>
      <trkpt lat="47.38327" lon="-2.13512">
        <ele>54.7</ele>
        <time>2011-11-13T08:24:35Z</time>
      </trkpt>
      <trkpt lat="47.38326" lon="-2.13504">
        <ele>53</ele>
        <time>2011-11-13T08:24:37Z</time>
      </trkpt>
      <trkpt lat="47.38322" lon="-2.13499">
        <ele>53.8</ele>
        <time>2011-11-13T08:24:38Z</time>
      </trkpt>
      <trkpt lat="47.38315" lon="-2.13494">
        <ele>54.7</ele>
        <time>2011-11-13T08:24:40Z</time>
      </trkpt>
      <trkpt lat="47.3831" lon="-2.13489">
        <ele>53.8</ele>
        <time>2011-11-13T08:24:41Z</time>
      </trkpt>
      <trkpt lat="47.38303" lon="-2.13487">
        <ele>54</ele>
        <time>2011-11-13T08:24:42Z</time>
      </trkpt>
      <trkpt lat="47.38299" lon="-2.1348">
        <ele>54.3</ele>
        <time>2011-11-13T08:24:43Z</time>
      </trkpt>
      <trkpt lat="47.38293" lon="-2.13474">
        <ele>54.4</ele>
        <time>2011-11-13T08:24:44Z</time>
      </trkpt>
      <trkpt lat="47.38287" lon="-2.13468">
        <ele>54.1</ele>
        <time>2011-11-13T08:24:45Z</time>
      </trkpt>
      <trkpt lat="47.38278" lon="-2.13461">
        <ele>53.8</ele>
        <time>2011-11-13T08:24:47Z</time>
      </trkpt>
      <trkpt lat="47.38272" lon="-2.13454">
        <ele>53.6</ele>
        <time>2011-11-13T08:24:48Z</time>
      </trkpt>
      <trkpt lat="47.38266" lon="-2.13449">
        <ele>53.9</ele>
        <time>2011-11-13T08:24:49Z</time>
      </trkpt>
      <trkpt lat="47.38261" lon="-2.13444">
        <ele>54</ele>
        <time>2011-11-13T08:24:50Z</time>
      </trkpt>
      <trkpt lat="47.38256" lon="-2.13438">
        <ele>53.9</ele>
        <time>2011-11-13T08:24:51Z</time>
      </trkpt>
      <trkpt lat="47.3825" lon="-2.13433">
        <ele>53.9</ele>
        <time>2011-11-13T08:24:52Z</time>
      </trkpt>
      <trkpt lat="47.38245" lon="-2.13426">
        <ele>54.1</ele>
        <time>2011-11-13T08:24:53Z</time>
      </trkpt>
      <trkpt lat="47.38239" lon="-2.1342">
        <ele>54.5</ele>
        <time>2011-11-13T08:24:54Z</time>
      </trkpt>
      <trkpt lat="47.38235" lon="-2.13413">
        <ele>54.7</ele>
        <time>2011-11-13T08:24:55Z</time>
      </trkpt>
      <trkpt lat="47.3823" lon="-2.13407">
        <ele>54.9</ele>
        <time>2011-11-13T08:24:56Z</time>
      </trkpt>
      <trkpt lat="47.38225" lon="-2.13403">
        <ele>55</ele>
        <time>2011-11-13T08:24:57Z</time>
      </trkpt>
      <trkpt lat="47.38221" lon="-2.13398">
        <ele>55.1</ele>
        <time>2011-11-13T08:24:58Z</time>
      </trkpt>
      <trkpt lat="47.38219" lon="-2.13388">
        <ele>55.4</ele>
        <time>2011-11-13T08:24:59Z</time>
      </trkpt>
      <trkpt lat="47.38214" lon="-2.13385">
        <ele>54.8</ele>
        <time>2011-11-13T08:25:00Z</time>
      </trkpt>
      <trkpt lat="47.38209" lon="-2.13378">
        <ele>55</ele>
        <time>2011-11-13T08:25:01Z</time>
      </trkpt>
      <trkpt lat="47.38201" lon="-2.13372">
        <ele>55.6</ele>
        <time>2011-11-13T08:25:03Z</time>
      </trkpt>
      <trkpt lat="47.38199" lon="-2.13361">
        <ele>55.2</ele>
        <time>2011-11-13T08:25:04Z</time>
      </trkpt>
      <trkpt lat="47.38194" lon="-2.13354">
        <ele>54.7</ele>
        <time>2011-11-13T08:25:05Z</time>
      </trkpt>
      <trkpt lat="47.3819" lon="-2.13345">
        <ele>53.6</ele>
        <time>2011-11-13T08:25:06Z</time>
      </trkpt>
      <trkpt lat="47.38186" lon="-2.13341">
        <ele>53.9</ele>
        <time>2011-11-13T08:25:07Z</time>
      </trkpt>
      <trkpt lat="47.38182" lon="-2.13332">
        <ele>53.8</ele>
        <time>2011-11-13T08:25:08Z</time>
      </trkpt>
      <trkpt lat="47.38178" lon="-2.13326">
        <ele>54</ele>
        <time>2011-11-13T08:25:09Z</time>
      </trkpt>
      <trkpt lat="47.38175" lon="-2.1332">
        <ele>54.6</ele>
        <time>2011-11-13T08:25:10Z</time>
      </trkpt>
      <trkpt lat="47.38171" lon="-2.13316">
        <ele>55.1</ele>
        <time>2011-11-13T08:25:11Z</time>
      </trkpt>
      <trkpt lat="47.38167" lon="-2.1331">
        <ele>54.9</ele>
        <time>2011-11-13T08:25:12Z</time>
      </trkpt>
      <trkpt lat="47.38163" lon="-2.13305">
        <ele>55.4</ele>
        <time>2011-11-13T08:25:13Z</time>
      </trkpt>
      <trkpt lat="47.38159" lon="-2.13299">
        <ele>55.8</ele>
        <time>2011-11-13T08:25:14Z</time>
      </trkpt>
      <trkpt lat="47.38154" lon="-2.13292">
        <ele>56</ele>
        <time>2011-11-13T08:25:15Z</time>
      </trkpt>
      <trkpt lat="47.38151" lon="-2.13284">
        <ele>56.2</ele>
        <time>2011-11-13T08:25:16Z</time>
      </trkpt>
      <trkpt lat="47.38148" lon="-2.13278">
        <ele>56</ele>
        <time>2011-11-13T08:25:17Z</time>
      </trkpt>
      <trkpt lat="47.38144" lon="-2.13271">
        <ele>56.1</ele>
        <time>2011-11-13T08:25:18Z</time>
      </trkpt>
      <trkpt lat="47.38141" lon="-2.13264">
        <ele>56.5</ele>
        <time>2011-11-13T08:25:19Z</time>
      </trkpt>
      <trkpt lat="47.38132" lon="-2.13254">
        <ele>57.4</ele>
        <time>2011-11-13T08:25:20Z</time>
      </trkpt>
      <trkpt lat="47.3813" lon="-2.13242">
        <ele>57</ele>
        <time>2011-11-13T08:25:21Z</time>
      </trkpt>
      <trkpt lat="47.38126" lon="-2.13238">
        <ele>57.5</ele>
        <time>2011-11-13T08:25:22Z</time>
      </trkpt>
      <trkpt lat="47.38122" lon="-2.13226">
        <ele>57</ele>
        <time>2011-11-13T08:25:23Z</time>
      </trkpt>
      <trkpt lat="47.38118" lon="-2.13216">
        <ele>57</ele>
        <time>2011-11-13T08:25:24Z</time>
      </trkpt>
      <trkpt lat="47.38111" lon="-2.13208">
        <ele>57.3</ele>
        <time>2011-11-13T08:25:25Z</time>
      </trkpt>
      <trkpt lat="47.38113" lon="-2.13201">
        <ele>57.6</ele>
        <time>2011-11-13T08:25:26Z</time>
      </trkpt>
      <trkpt lat="47.38112" lon="-2.13191">
        <ele>57.7</ele>
        <time>2011-11-13T08:25:27Z</time>
      </trkpt>
      <trkpt lat="47.38103" lon="-2.13199">
        <ele>56.6</ele>
        <time>2011-11-13T08:25:28Z</time>
      </trkpt>
      <trkpt lat="47.38099" lon="-2.13194">
        <ele>56.9</ele>
        <time>2011-11-13T08:25:30Z</time>
      </trkpt>
      <trkpt lat="47.38095" lon="-2.13191">
        <ele>57</ele>
        <time>2011-11-13T08:25:31Z</time>
      </trkpt>
      <trkpt lat="47.38087" lon="-2.13193">
        <ele>56.9</ele>
        <time>2011-11-13T08:25:32Z</time>
      </trkpt>
      <trkpt lat="47.38078" lon="-2.13179">
        <ele>56.9</ele>
        <time>2011-11-13T08:25:35Z</time>
      </trkpt>
      <trkpt lat="47.38073" lon="-2.13175">
        <ele>57.1</ele>
        <time>2011-11-13T08:25:36Z</time>
      </trkpt>
      <trkpt lat="47.38062" lon="-2.13169">
        <ele>57.2</ele>
        <time>2011-11-13T08:25:38Z</time>
      </trkpt>
      <trkpt lat="47.38055" lon="-2.13165">
        <ele>55.1</ele>
        <time>2011-11-13T08:25:40Z</time>
      </trkpt>
      <trkpt lat="47.3805" lon="-2.13165">
        <ele>55.2</ele>
        <time>2011-11-13T08:25:41Z</time>
      </trkpt>
      <trkpt lat="47.38044" lon="-2.13162">
        <ele>54.9</ele>
        <time>2011-11-13T08:25:42Z</time>
      </trkpt>
      <trkpt lat="47.38036" lon="-2.13157">
        <ele>54.8</ele>
        <time>2011-11-13T08:25:44Z</time>
      </trkpt>
      <trkpt lat="47.38031" lon="-2.13154">
        <ele>54.7</ele>
        <time>2011-11-13T08:25:45Z</time>
      </trkpt>
      <trkpt lat="47.38021" lon="-2.13151">
        <ele>55</ele>
        <time>2011-11-13T08:25:47Z</time>
      </trkpt>
      <trkpt lat="47.38017" lon="-2.13145">
        <ele>56</ele>
        <time>2011-11-13T08:25:48Z</time>
      </trkpt>
      <trkpt lat="47.38008" lon="-2.1314">
        <ele>57.7</ele>
        <time>2011-11-13T08:25:50Z</time>
      </trkpt>
      <trkpt lat="47.38002" lon="-2.13138">
        <ele>57.7</ele>
        <time>2011-11-13T08:25:51Z</time>
      </trkpt>
      <trkpt lat="47.37996" lon="-2.13133">
        <ele>57.9</ele>
        <time>2011-11-13T08:25:52Z</time>
      </trkpt>
      <trkpt lat="47.3799" lon="-2.1313">
        <ele>58.6</ele>
        <time>2011-11-13T08:25:53Z</time>
      </trkpt>
      <trkpt lat="47.37985" lon="-2.13128">
        <ele>58.8</ele>
        <time>2011-11-13T08:25:54Z</time>
      </trkpt>
      <trkpt lat="47.3798" lon="-2.13122">
        <ele>57.2</ele>
        <time>2011-11-13T08:25:55Z</time>
      </trkpt>
      <trkpt lat="47.37974" lon="-2.13125">
        <ele>55.1</ele>
        <time>2011-11-13T08:25:57Z</time>
      </trkpt>
      <trkpt lat="47.37974" lon="-2.13132">
        <ele>54.9</ele>
        <time>2011-11-13T08:25:58Z</time>
      </trkpt>
      <trkpt lat="47.37976" lon="-2.13139">
        <ele>55.5</ele>
        <time>2011-11-13T08:25:59Z</time>
      </trkpt>
      <trkpt lat="47.37977" lon="-2.13146">
        <ele>55.2</ele>
        <time>2011-11-13T08:26:00Z</time>
      </trkpt>
      <trkpt lat="47.3798" lon="-2.13152">
        <ele>54.4</ele>
        <time>2011-11-13T08:26:01Z</time>
      </trkpt>
      <trkpt lat="47.37983" lon="-2.13161">
        <ele>54.8</ele>
        <time>2011-11-13T08:26:02Z</time>
      </trkpt>
      <trkpt lat="47.37985" lon="-2.1317">
        <ele>54.8</ele>
        <time>2011-11-13T08:26:03Z</time>
      </trkpt>
      <trkpt lat="47.37987" lon="-2.1318">
        <ele>54.8</ele>
        <time>2011-11-13T08:26:04Z</time>
      </trkpt>
      <trkpt lat="47.37992" lon="-2.1319">
        <ele>54.9</ele>
        <time>2011-11-13T08:26:05Z</time>
      </trkpt>
      <trkpt lat="47.37997" lon="-2.13196">
        <ele>54.5</ele>
        <time>2011-11-13T08:26:06Z</time>
      </trkpt>
      <trkpt lat="47.37994" lon="-2.13211">
        <ele>53.2</ele>
        <time>2011-11-13T08:26:07Z</time>
      </trkpt>
      <trkpt lat="47.37994" lon="-2.13219">
        <ele>52.4</ele>
        <time>2011-11-13T08:26:08Z</time>
      </trkpt>
      <trkpt lat="47.37992" lon="-2.13228">
        <ele>52.4</ele>
        <time>2011-11-13T08:26:09Z</time>
      </trkpt>
      <trkpt lat="47.37986" lon="-2.13234">
        <ele>52.5</ele>
        <time>2011-11-13T08:26:10Z</time>
      </trkpt>
      <trkpt lat="47.37981" lon="-2.13241">
        <ele>52.6</ele>
        <time>2011-11-13T08:26:11Z</time>
      </trkpt>
      <trkpt lat="47.37975" lon="-2.13245">
        <ele>53</ele>
        <time>2011-11-13T08:26:12Z</time>
      </trkpt>
      <trkpt lat="47.3797" lon="-2.13248">
        <ele>53.4</ele>
        <time>2011-11-13T08:26:13Z</time>
      </trkpt>
      <trkpt lat="47.37964" lon="-2.13251">
        <ele>53.4</ele>
        <time>2011-11-13T08:26:14Z</time>
      </trkpt>
      <trkpt lat="47.37958" lon="-2.13252">
        <ele>53.1</ele>
        <time>2011-11-13T08:26:15Z</time>
      </trkpt>
      <trkpt lat="47.37953" lon="-2.13254">
        <ele>54.3</ele>
        <time>2011-11-13T08:26:16Z</time>
      </trkpt>
      <trkpt lat="47.37948" lon="-2.13255">
        <ele>54.5</ele>
        <time>2011-11-13T08:26:17Z</time>
      </trkpt>
      <trkpt lat="47.37942" lon="-2.13256">
        <ele>54.7</ele>
        <time>2011-11-13T08:26:18Z</time>
      </trkpt>
      <trkpt lat="47.37936" lon="-2.1326">
        <ele>54.6</ele>
        <time>2011-11-13T08:26:19Z</time>
      </trkpt>
      <trkpt lat="47.37929" lon="-2.13263">
        <ele>54.3</ele>
        <time>2011-11-13T08:26:20Z</time>
      </trkpt>
      <trkpt lat="47.37924" lon="-2.13265">
        <ele>54.2</ele>
        <time>2011-11-13T08:26:21Z</time>
      </trkpt>
      <trkpt lat="47.3792" lon="-2.13272">
        <ele>54.7</ele>
        <time>2011-11-13T08:26:22Z</time>
      </trkpt>
      <trkpt lat="47.37915" lon="-2.13267">
        <ele>54.4</ele>
        <time>2011-11-13T08:26:23Z</time>
      </trkpt>
      <trkpt lat="47.37907" lon="-2.13266">
        <ele>54.7</ele>
        <time>2011-11-13T08:26:24Z</time>
      </trkpt>
      <trkpt lat="47.37901" lon="-2.13265">
        <ele>54.9</ele>
        <time>2011-11-13T08:26:25Z</time>
      </trkpt>
      <trkpt lat="47.37895" lon="-2.13264">
        <ele>55.7</ele>
        <time>2011-11-13T08:26:26Z</time>
      </trkpt>
      <trkpt lat="47.3789" lon="-2.13265">
        <ele>56</ele>
        <time>2011-11-13T08:26:27Z</time>
      </trkpt>
      <trkpt lat="47.37885" lon="-2.13265">
        <ele>56.2</ele>
        <time>2011-11-13T08:26:28Z</time>
      </trkpt>
      <trkpt lat="47.37878" lon="-2.13266">
        <ele>56.5</ele>
        <time>2011-11-13T08:26:29Z</time>
      </trkpt>
      <trkpt lat="47.37874" lon="-2.13266">
        <ele>56.5</ele>
        <time>2011-11-13T08:26:30Z</time>
      </trkpt>
      <trkpt lat="47.37868" lon="-2.13265">
        <ele>56.3</ele>
        <time>2011-11-13T08:26:31Z</time>
      </trkpt>
      <trkpt lat="47.37863" lon="-2.13265">
        <ele>56.4</ele>
        <time>2011-11-13T08:26:32Z</time>
      </trkpt>
      <trkpt lat="47.37857" lon="-2.13265">
        <ele>56.4</ele>
        <time>2011-11-13T08:26:33Z</time>
      </trkpt>
      <trkpt lat="47.37851" lon="-2.13267">
        <ele>56.4</ele>
        <time>2011-11-13T08:26:34Z</time>
      </trkpt>
      <trkpt lat="47.37845" lon="-2.13266">
        <ele>56.6</ele>
        <time>2011-11-13T08:26:35Z</time>
      </trkpt>
      <trkpt lat="47.37839" lon="-2.13267">
        <ele>56.5</ele>
        <time>2011-11-13T08:26:36Z</time>
      </trkpt>
      <trkpt lat="47.37833" lon="-2.13267">
        <ele>56.7</ele>
        <time>2011-11-13T08:26:37Z</time>
      </trkpt>
      <trkpt lat="47.37823" lon="-2.13267">
        <ele>57.5</ele>
        <time>2011-11-13T08:26:38Z</time>
      </trkpt>
      <trkpt lat="47.37816" lon="-2.13266">
        <ele>57.5</ele>
        <time>2011-11-13T08:26:40Z</time>
      </trkpt>
      <trkpt lat="47.37811" lon="-2.13266">
        <ele>57.5</ele>
        <time>2011-11-13T08:26:41Z</time>
      </trkpt>
      <trkpt lat="47.378" lon="-2.13267">
        <ele>58.4</ele>
        <time>2011-11-13T08:26:42Z</time>
      </trkpt>
      <trkpt lat="47.37792" lon="-2.13267">
        <ele>58.5</ele>
        <time>2011-11-13T08:26:44Z</time>
      </trkpt>
      <trkpt lat="47.37781" lon="-2.13268">
        <ele>59.3</ele>
        <time>2011-11-13T08:26:45Z</time>
      </trkpt>
      <trkpt lat="47.37773" lon="-2.13267">
        <ele>58.9</ele>
        <time>2011-11-13T08:26:47Z</time>
      </trkpt>
      <trkpt lat="47.37765" lon="-2.13267">
        <ele>58.9</ele>
        <time>2011-11-13T08:26:48Z</time>
      </trkpt>
      <trkpt lat="47.37758" lon="-2.13269">
        <ele>58.8</ele>
        <time>2011-11-13T08:26:49Z</time>
      </trkpt>
      <trkpt lat="47.37752" lon="-2.1327">
        <ele>58.7</ele>
        <time>2011-11-13T08:26:50Z</time>
      </trkpt>
      <trkpt lat="47.37747" lon="-2.13271">
        <ele>58.8</ele>
        <time>2011-11-13T08:26:51Z</time>
      </trkpt>
      <trkpt lat="47.3774" lon="-2.13272">
        <ele>58.6</ele>
        <time>2011-11-13T08:26:52Z</time>
      </trkpt>
      <trkpt lat="47.37734" lon="-2.13272">
        <ele>58.5</ele>
        <time>2011-11-13T08:26:53Z</time>
      </trkpt>
      <trkpt lat="47.37728" lon="-2.13273">
        <ele>58.4</ele>
        <time>2011-11-13T08:26:54Z</time>
      </trkpt>
      <trkpt lat="47.37722" lon="-2.13274">
        <ele>58.4</ele>
        <time>2011-11-13T08:26:55Z</time>
      </trkpt>
      <trkpt lat="47.37716" lon="-2.13276">
        <ele>58.2</ele>
        <time>2011-11-13T08:26:56Z</time>
      </trkpt>
      <trkpt lat="47.37712" lon="-2.1328">
        <ele>57.5</ele>
        <time>2011-11-13T08:26:57Z</time>
      </trkpt>
      <trkpt lat="47.37704" lon="-2.13284">
        <ele>58.3</ele>
        <time>2011-11-13T08:26:59Z</time>
      </trkpt>
      <trkpt lat="47.37698" lon="-2.13285">
        <ele>57.9</ele>
        <time>2011-11-13T08:27:00Z</time>
      </trkpt>
      <trkpt lat="47.37692" lon="-2.13287">
        <ele>57.6</ele>
        <time>2011-11-13T08:27:01Z</time>
      </trkpt>
      <trkpt lat="47.37686" lon="-2.1329">
        <ele>57.3</ele>
        <time>2011-11-13T08:27:02Z</time>
      </trkpt>
      <trkpt lat="47.3768" lon="-2.13293">
        <ele>57.3</ele>
        <time>2011-11-13T08:27:03Z</time>
      </trkpt>
      <trkpt lat="47.37675" lon="-2.13296">
        <ele>57.3</ele>
        <time>2011-11-13T08:27:04Z</time>
      </trkpt>
      <trkpt lat="47.37668" lon="-2.133">
        <ele>57.2</ele>
        <time>2011-11-13T08:27:05Z</time>
      </trkpt>
      <trkpt lat="47.37663" lon="-2.13303">
        <ele>57.2</ele>
        <time>2011-11-13T08:27:06Z</time>
      </trkpt>
      <trkpt lat="47.37657" lon="-2.13306">
        <ele>57.1</ele>
        <time>2011-11-13T08:27:07Z</time>
      </trkpt>
      <trkpt lat="47.37651" lon="-2.13308">
        <ele>57.4</ele>
        <time>2011-11-13T08:27:08Z</time>
      </trkpt>
      <trkpt lat="47.37646" lon="-2.1331">
        <ele>57.5</ele>
        <time>2011-11-13T08:27:09Z</time>
      </trkpt>
      <trkpt lat="47.37636" lon="-2.13314">
        <ele>57.7</ele>
        <time>2011-11-13T08:27:11Z</time>
      </trkpt>
      <trkpt lat="47.37631" lon="-2.13316">
        <ele>57.3</ele>
        <time>2011-11-13T08:27:12Z</time>
      </trkpt>
      <trkpt lat="47.37624" lon="-2.13318">
        <ele>57</ele>
        <time>2011-11-13T08:27:13Z</time>
      </trkpt>
      <trkpt lat="47.37618" lon="-2.1332">
        <ele>57.1</ele>
        <time>2011-11-13T08:27:14Z</time>
      </trkpt>
      <trkpt lat="47.37612" lon="-2.13322">
        <ele>56.8</ele>
        <time>2011-11-13T08:27:15Z</time>
      </trkpt>
      <trkpt lat="47.37606" lon="-2.13323">
        <ele>56.9</ele>
        <time>2011-11-13T08:27:16Z</time>
      </trkpt>
      <trkpt lat="47.376" lon="-2.13324">
        <ele>57</ele>
        <time>2011-11-13T08:27:17Z</time>
      </trkpt>
      <trkpt lat="47.37593" lon="-2.13325">
        <ele>56.7</ele>
        <time>2011-11-13T08:27:18Z</time>
      </trkpt>
      <trkpt lat="47.37588" lon="-2.13322">
        <ele>56.3</ele>
        <time>2011-11-13T08:27:19Z</time>
      </trkpt>
      <trkpt lat="47.37582" lon="-2.1332">
        <ele>56.8</ele>
        <time>2011-11-13T08:27:20Z</time>
      </trkpt>
      <trkpt lat="47.37576" lon="-2.13319">
        <ele>57</ele>
        <time>2011-11-13T08:27:21Z</time>
      </trkpt>
      <trkpt lat="47.3757" lon="-2.13317">
        <ele>57.2</ele>
        <time>2011-11-13T08:27:22Z</time>
      </trkpt>
      <trkpt lat="47.37565" lon="-2.13314">
        <ele>57.3</ele>
        <time>2011-11-13T08:27:23Z</time>
      </trkpt>
      <trkpt lat="47.37558" lon="-2.1331">
        <ele>57.5</ele>
        <time>2011-11-13T08:27:24Z</time>
      </trkpt>
      <trkpt lat="47.37553" lon="-2.13308">
        <ele>57.3</ele>
        <time>2011-11-13T08:27:25Z</time>
      </trkpt>
      <trkpt lat="47.37546" lon="-2.13306">
        <ele>56.8</ele>
        <time>2011-11-13T08:27:27Z</time>
      </trkpt>
      <trkpt lat="47.37541" lon="-2.13306">
        <ele>57</ele>
        <time>2011-11-13T08:27:28Z</time>
      </trkpt>
      <trkpt lat="47.37529" lon="-2.13304">
        <ele>57.3</ele>
        <time>2011-11-13T08:27:30Z</time>
      </trkpt>
      <trkpt lat="47.3752" lon="-2.1331">
        <ele>56.8</ele>
        <time>2011-11-13T08:27:33Z</time>
      </trkpt>
      <trkpt lat="47.37515" lon="-2.13308">
        <ele>56.7</ele>
        <time>2011-11-13T08:27:34Z</time>
      </trkpt>
      <trkpt lat="47.37503" lon="-2.13312">
        <ele>57.2</ele>
        <time>2011-11-13T08:27:36Z</time>
      </trkpt>
      <trkpt lat="47.37498" lon="-2.13314">
        <ele>57.9</ele>
        <time>2011-11-13T08:27:37Z</time>
      </trkpt>
      <trkpt lat="47.37486" lon="-2.13307">
        <ele>60.5</ele>
        <time>2011-11-13T08:27:38Z</time>
      </trkpt>
      <trkpt lat="47.37475" lon="-2.13304">
        <ele>60.2</ele>
        <time>2011-11-13T08:27:39Z</time>
      </trkpt>
      <trkpt lat="47.37472" lon="-2.13296">
        <ele>58.1</ele>
        <time>2011-11-13T08:27:40Z</time>
      </trkpt>
      <trkpt lat="47.37463" lon="-2.1329">
        <ele>57.1</ele>
        <time>2011-11-13T08:27:41Z</time>
      </trkpt>
      <trkpt lat="47.37455" lon="-2.1329">
        <ele>57.4</ele>
        <time>2011-11-13T08:27:42Z</time>
      </trkpt>
      <trkpt lat="47.37447" lon="-2.13289">
        <ele>57.1</ele>
        <time>2011-11-13T08:27:43Z</time>
      </trkpt>
      <trkpt lat="47.37442" lon="-2.13288">
        <ele>56.5</ele>
        <time>2011-11-13T08:27:45Z</time>
      </trkpt>
      <trkpt lat="47.37437" lon="-2.1329">
        <ele>57.9</ele>
        <time>2011-11-13T08:27:46Z</time>
      </trkpt>
      <trkpt lat="47.3743" lon="-2.13289">
        <ele>58.2</ele>
        <time>2011-11-13T08:27:47Z</time>
      </trkpt>
      <trkpt lat="47.37425" lon="-2.13286">
        <ele>58.7</ele>
        <time>2011-11-13T08:27:48Z</time>
      </trkpt>
      <trkpt lat="47.37417" lon="-2.1328">
        <ele>59.9</ele>
        <time>2011-11-13T08:27:50Z</time>
      </trkpt>
      <trkpt lat="47.3741" lon="-2.1328">
        <ele>60.1</ele>
        <time>2011-11-13T08:27:51Z</time>
      </trkpt>
      <trkpt lat="47.37404" lon="-2.1328">
        <ele>60.5</ele>
        <time>2011-11-13T08:27:52Z</time>
      </trkpt>
      <trkpt lat="47.374" lon="-2.13282">
        <ele>60.2</ele>
        <time>2011-11-13T08:27:53Z</time>
      </trkpt>
      <trkpt lat="47.37395" lon="-2.13281">
        <ele>60.7</ele>
        <time>2011-11-13T08:27:54Z</time>
      </trkpt>
      <trkpt lat="47.37388" lon="-2.1328">
        <ele>61</ele>
        <time>2011-11-13T08:27:56Z</time>
      </trkpt>
      <trkpt lat="47.37382" lon="-2.1328">
        <ele>61.4</ele>
        <time>2011-11-13T08:27:57Z</time>
      </trkpt>
      <trkpt lat="47.37371" lon="-2.13278">
        <ele>61.6</ele>
        <time>2011-11-13T08:27:59Z</time>
      </trkpt>
      <trkpt lat="47.37365" lon="-2.13277">
        <ele>61.7</ele>
        <time>2011-11-13T08:28:00Z</time>
      </trkpt>
      <trkpt lat="47.37355" lon="-2.13281">
        <ele>61.7</ele>
        <time>2011-11-13T08:28:02Z</time>
      </trkpt>
      <trkpt lat="47.37345" lon="-2.13273">
        <ele>63.3</ele>
        <time>2011-11-13T08:28:04Z</time>
      </trkpt>
      <trkpt lat="47.37341" lon="-2.13271">
        <ele>63.2</ele>
        <time>2011-11-13T08:28:05Z</time>
      </trkpt>
      <trkpt lat="47.37336" lon="-2.13269">
        <ele>63.9</ele>
        <time>2011-11-13T08:28:06Z</time>
      </trkpt>
      <trkpt lat="47.37329" lon="-2.13269">
        <ele>63.9</ele>
        <time>2011-11-13T08:28:08Z</time>
      </trkpt>
      <trkpt lat="47.37324" lon="-2.1327">
        <ele>64.3</ele>
        <time>2011-11-13T08:28:09Z</time>
      </trkpt>
      <trkpt lat="47.37318" lon="-2.13268">
        <ele>63.9</ele>
        <time>2011-11-13T08:28:10Z</time>
      </trkpt>
      <trkpt lat="47.37313" lon="-2.13266">
        <ele>63.6</ele>
        <time>2011-11-13T08:28:11Z</time>
      </trkpt>
      <trkpt lat="47.37308" lon="-2.13264">
        <ele>63</ele>
        <time>2011-11-13T08:28:12Z</time>
      </trkpt>
      <trkpt lat="47.37302" lon="-2.13262">
        <ele>62.6</ele>
        <time>2011-11-13T08:28:13Z</time>
      </trkpt>
      <trkpt lat="47.37296" lon="-2.1326">
        <ele>62.2</ele>
        <time>2011-11-13T08:28:14Z</time>
      </trkpt>
      <trkpt lat="47.37284" lon="-2.13258">
        <ele>62.3</ele>
        <time>2011-11-13T08:28:16Z</time>
      </trkpt>
      <trkpt lat="47.37272" lon="-2.13256">
        <ele>62.9</ele>
        <time>2011-11-13T08:28:17Z</time>
      </trkpt>
      <trkpt lat="47.37263" lon="-2.13253">
        <ele>62.8</ele>
        <time>2011-11-13T08:28:19Z</time>
      </trkpt>
      <trkpt lat="47.37257" lon="-2.13248">
        <ele>61.9</ele>
        <time>2011-11-13T08:28:20Z</time>
      </trkpt>
      <trkpt lat="47.3725" lon="-2.13241">
        <ele>59.8</ele>
        <time>2011-11-13T08:28:21Z</time>
      </trkpt>
      <trkpt lat="47.37244" lon="-2.13236">
        <ele>58</ele>
        <time>2011-11-13T08:28:22Z</time>
      </trkpt>
      <trkpt lat="47.37238" lon="-2.13234">
        <ele>57.6</ele>
        <time>2011-11-13T08:28:23Z</time>
      </trkpt>
      <trkpt lat="47.37232" lon="-2.13231">
        <ele>57</ele>
        <time>2011-11-13T08:28:24Z</time>
      </trkpt>
      <trkpt lat="47.37226" lon="-2.13229">
        <ele>56.7</ele>
        <time>2011-11-13T08:28:25Z</time>
      </trkpt>
      <trkpt lat="47.3722" lon="-2.13227">
        <ele>56.2</ele>
        <time>2011-11-13T08:28:26Z</time>
      </trkpt>
      <trkpt lat="47.37214" lon="-2.13226">
        <ele>56.2</ele>
        <time>2011-11-13T08:28:27Z</time>
      </trkpt>
      <trkpt lat="47.37208" lon="-2.13224">
        <ele>55.8</ele>
        <time>2011-11-13T08:28:28Z</time>
      </trkpt>
      <trkpt lat="47.37202" lon="-2.13222">
        <ele>55.8</ele>
        <time>2011-11-13T08:28:29Z</time>
      </trkpt>
      <trkpt lat="47.37195" lon="-2.1322">
        <ele>55.7</ele>
        <time>2011-11-13T08:28:30Z</time>
      </trkpt>
      <trkpt lat="47.37189" lon="-2.13218">
        <ele>55.6</ele>
        <time>2011-11-13T08:28:31Z</time>
      </trkpt>
      <trkpt lat="47.37183" lon="-2.13216">
        <ele>55.8</ele>
        <time>2011-11-13T08:28:32Z</time>
      </trkpt>
      <trkpt lat="47.37178" lon="-2.13214">
        <ele>55.9</ele>
        <time>2011-11-13T08:28:33Z</time>
      </trkpt>
      <trkpt lat="47.37172" lon="-2.13212">
        <ele>55.8</ele>
        <time>2011-11-13T08:28:34Z</time>
      </trkpt>
      <trkpt lat="47.37166" lon="-2.1321">
        <ele>55.4</ele>
        <time>2011-11-13T08:28:35Z</time>
      </trkpt>
      <trkpt lat="47.3716" lon="-2.13207">
        <ele>55.2</ele>
        <time>2011-11-13T08:28:36Z</time>
      </trkpt>
      <trkpt lat="47.37154" lon="-2.13206">
        <ele>55.1</ele>
        <time>2011-11-13T08:28:37Z</time>
      </trkpt>
      <trkpt lat="47.37148" lon="-2.13203">
        <ele>55.2</ele>
        <time>2011-11-13T08:28:38Z</time>
      </trkpt>
      <trkpt lat="47.37142" lon="-2.13201">
        <ele>55</ele>
        <time>2011-11-13T08:28:39Z</time>
      </trkpt>
      <trkpt lat="47.37136" lon="-2.132">
        <ele>54.9</ele>
        <time>2011-11-13T08:28:40Z</time>
      </trkpt>
      <trkpt lat="47.37131" lon="-2.13198">
        <ele>54.6</ele>
        <time>2011-11-13T08:28:41Z</time>
      </trkpt>
      <trkpt lat="47.37125" lon="-2.13196">
        <ele>54.5</ele>
        <time>2011-11-13T08:28:42Z</time>
      </trkpt>
      <trkpt lat="47.3712" lon="-2.13194">
        <ele>54.2</ele>
        <time>2011-11-13T08:28:43Z</time>
      </trkpt>
      <trkpt lat="47.37115" lon="-2.13192">
        <ele>54</ele>
        <time>2011-11-13T08:28:44Z</time>
      </trkpt>
      <trkpt lat="47.37109" lon="-2.13191">
        <ele>54</ele>
        <time>2011-11-13T08:28:45Z</time>
      </trkpt>
      <trkpt lat="47.37104" lon="-2.13189">
        <ele>54</ele>
        <time>2011-11-13T08:28:46Z</time>
      </trkpt>
      <trkpt lat="47.371" lon="-2.13188">
        <ele>53.9</ele>
        <time>2011-11-13T08:28:47Z</time>
      </trkpt>
      <trkpt lat="47.37095" lon="-2.13186">
        <ele>54.1</ele>
        <time>2011-11-13T08:28:48Z</time>
      </trkpt>
      <trkpt lat="47.3709" lon="-2.13185">
        <ele>53.5</ele>
        <time>2011-11-13T08:28:49Z</time>
      </trkpt>
      <trkpt lat="47.37085" lon="-2.13183">
        <ele>53.4</ele>
        <time>2011-11-13T08:28:50Z</time>
      </trkpt>
      <trkpt lat="47.3708" lon="-2.13179">
        <ele>53.2</ele>
        <time>2011-11-13T08:28:51Z</time>
      </trkpt>
      <trkpt lat="47.37076" lon="-2.13176">
        <ele>53.4</ele>
        <time>2011-11-13T08:28:52Z</time>
      </trkpt>
      <trkpt lat="47.37071" lon="-2.13169">
        <ele>54.7</ele>
        <time>2011-11-13T08:28:53Z</time>
      </trkpt>
      <trkpt lat="47.37068" lon="-2.13162">
        <ele>55.6</ele>
        <time>2011-11-13T08:28:54Z</time>
      </trkpt>
      <trkpt lat="47.37071" lon="-2.13151">
        <ele>54.5</ele>
        <time>2011-11-13T08:28:55Z</time>
      </trkpt>
      <trkpt lat="47.37073" lon="-2.13142">
        <ele>54.5</ele>
        <time>2011-11-13T08:28:56Z</time>
      </trkpt>
      <trkpt lat="47.37075" lon="-2.1313">
        <ele>54</ele>
        <time>2011-11-13T08:28:57Z</time>
      </trkpt>
      <trkpt lat="47.37077" lon="-2.13121">
        <ele>53.9</ele>
        <time>2011-11-13T08:28:58Z</time>
      </trkpt>
      <trkpt lat="47.37081" lon="-2.13112">
        <ele>53.6</ele>
        <time>2011-11-13T08:28:59Z</time>
      </trkpt>
      <trkpt lat="47.37085" lon="-2.13102">
        <ele>53.6</ele>
        <time>2011-11-13T08:29:00Z</time>
      </trkpt>
      <trkpt lat="47.37088" lon="-2.13092">
        <ele>53.6</ele>
        <time>2011-11-13T08:29:01Z</time>
      </trkpt>
      <trkpt lat="47.37091" lon="-2.13082">
        <ele>53.2</ele>
        <time>2011-11-13T08:29:02Z</time>
      </trkpt>
      <trkpt lat="47.37095" lon="-2.13073">
        <ele>52.9</ele>
        <time>2011-11-13T08:29:03Z</time>
      </trkpt>
      <trkpt lat="47.37098" lon="-2.13063">
        <ele>53.1</ele>
        <time>2011-11-13T08:29:04Z</time>
      </trkpt>
      <trkpt lat="47.37102" lon="-2.13055">
        <ele>53.1</ele>
        <time>2011-11-13T08:29:05Z</time>
      </trkpt>
      <trkpt lat="47.37105" lon="-2.13045">
        <ele>52.8</ele>
        <time>2011-11-13T08:29:06Z</time>
      </trkpt>
      <trkpt lat="47.37109" lon="-2.13036">
        <ele>52.7</ele>
        <time>2011-11-13T08:29:07Z</time>
      </trkpt>
      <trkpt lat="47.37112" lon="-2.13028">
        <ele>52.9</ele>
        <time>2011-11-13T08:29:08Z</time>
      </trkpt>
      <trkpt lat="47.37116" lon="-2.1302">
        <ele>53</ele>
        <time>2011-11-13T08:29:09Z</time>
      </trkpt>
      <trkpt lat="47.37125" lon="-2.13005">
        <ele>51.6</ele>
        <time>2011-11-13T08:29:10Z</time>
      </trkpt>
      <trkpt lat="47.37134" lon="-2.12994">
        <ele>51.2</ele>
        <time>2011-11-13T08:29:12Z</time>
      </trkpt>
      <trkpt lat="47.37134" lon="-2.12987">
        <ele>51.4</ele>
        <time>2011-11-13T08:29:13Z</time>
      </trkpt>
      <trkpt lat="47.3714" lon="-2.1298">
        <ele>53</ele>
        <time>2011-11-13T08:29:14Z</time>
      </trkpt>
      <trkpt lat="47.37142" lon="-2.12972">
        <ele>52.9</ele>
        <time>2011-11-13T08:29:16Z</time>
      </trkpt>
      <trkpt lat="47.3714" lon="-2.12962">
        <ele>52.4</ele>
        <time>2011-11-13T08:29:18Z</time>
      </trkpt>
      <trkpt lat="47.37142" lon="-2.1295">
        <ele>51.8</ele>
        <time>2011-11-13T08:29:20Z</time>
      </trkpt>
      <trkpt lat="47.37145" lon="-2.12937">
        <ele>51.4</ele>
        <time>2011-11-13T08:29:22Z</time>
      </trkpt>
      <trkpt lat="47.37146" lon="-2.1293">
        <ele>51.7</ele>
        <time>2011-11-13T08:29:23Z</time>
      </trkpt>
      <trkpt lat="47.37147" lon="-2.12923">
        <ele>51.7</ele>
        <time>2011-11-13T08:29:24Z</time>
      </trkpt>
      <trkpt lat="47.37148" lon="-2.12915">
        <ele>51.9</ele>
        <time>2011-11-13T08:29:25Z</time>
      </trkpt>
      <trkpt lat="47.3715" lon="-2.12907">
        <ele>51.9</ele>
        <time>2011-11-13T08:29:26Z</time>
      </trkpt>
      <trkpt lat="47.37151" lon="-2.12899">
        <ele>52</ele>
        <time>2011-11-13T08:29:27Z</time>
      </trkpt>
      <trkpt lat="47.37152" lon="-2.12892">
        <ele>51.9</ele>
        <time>2011-11-13T08:29:28Z</time>
      </trkpt>
      <trkpt lat="47.37154" lon="-2.12884">
        <ele>52.1</ele>
        <time>2011-11-13T08:29:29Z</time>
      </trkpt>
      <trkpt lat="47.37155" lon="-2.12876">
        <ele>52.1</ele>
        <time>2011-11-13T08:29:30Z</time>
      </trkpt>
      <trkpt lat="47.37155" lon="-2.12869">
        <ele>52</ele>
        <time>2011-11-13T08:29:31Z</time>
      </trkpt>
      <trkpt lat="47.37156" lon="-2.1286">
        <ele>51.9</ele>
        <time>2011-11-13T08:29:32Z</time>
      </trkpt>
      <trkpt lat="47.37158" lon="-2.12848">
        <ele>53.4</ele>
        <time>2011-11-13T08:29:34Z</time>
      </trkpt>
      <trkpt lat="47.3716" lon="-2.12837">
        <ele>54.3</ele>
        <time>2011-11-13T08:29:36Z</time>
      </trkpt>
      <trkpt lat="47.3716" lon="-2.12827">
        <ele>54.1</ele>
        <time>2011-11-13T08:29:38Z</time>
      </trkpt>
      <trkpt lat="47.37159" lon="-2.12812">
        <ele>53.4</ele>
        <time>2011-11-13T08:29:40Z</time>
      </trkpt>
      <trkpt lat="47.3716" lon="-2.12805">
        <ele>53.4</ele>
        <time>2011-11-13T08:29:41Z</time>
      </trkpt>
      <trkpt lat="47.37162" lon="-2.12796">
        <ele>53.1</ele>
        <time>2011-11-13T08:29:42Z</time>
      </trkpt>
      <trkpt lat="47.37164" lon="-2.12787">
        <ele>52.8</ele>
        <time>2011-11-13T08:29:43Z</time>
      </trkpt>
      <trkpt lat="47.37166" lon="-2.12778">
        <ele>52.9</ele>
        <time>2011-11-13T08:29:44Z</time>
      </trkpt>
      <trkpt lat="47.37168" lon="-2.1277">
        <ele>52.6</ele>
        <time>2011-11-13T08:29:45Z</time>
      </trkpt>
      <trkpt lat="47.3717" lon="-2.12762">
        <ele>52.9</ele>
        <time>2011-11-13T08:29:46Z</time>
      </trkpt>
      <trkpt lat="47.37171" lon="-2.12755">
        <ele>52.7</ele>
        <time>2011-11-13T08:29:47Z</time>
      </trkpt>
      <trkpt lat="47.37172" lon="-2.12747">
        <ele>52.6</ele>
        <time>2011-11-13T08:29:48Z</time>
      </trkpt>
      <trkpt lat="47.37173" lon="-2.12738">
        <ele>52.3</ele>
        <time>2011-11-13T08:29:49Z</time>
      </trkpt>
      <trkpt lat="47.37174" lon="-2.12731">
        <ele>52.5</ele>
        <time>2011-11-13T08:29:50Z</time>
      </trkpt>
      <trkpt lat="47.37177" lon="-2.12721">
        <ele>52.8</ele>
        <time>2011-11-13T08:29:51Z</time>
      </trkpt>
      <trkpt lat="47.37178" lon="-2.12713">
        <ele>53</ele>
        <time>2011-11-13T08:29:52Z</time>
      </trkpt>
      <trkpt lat="47.37181" lon="-2.12704">
        <ele>52.8</ele>
        <time>2011-11-13T08:29:53Z</time>
      </trkpt>
      <trkpt lat="47.37184" lon="-2.12693">
        <ele>52.7</ele>
        <time>2011-11-13T08:29:54Z</time>
      </trkpt>
      <trkpt lat="47.37186" lon="-2.12684">
        <ele>53.7</ele>
        <time>2011-11-13T08:29:55Z</time>
      </trkpt>
      <trkpt lat="47.37187" lon="-2.1267">
        <ele>53.4</ele>
        <time>2011-11-13T08:29:57Z</time>
      </trkpt>
      <trkpt lat="47.37189" lon="-2.12661">
        <ele>53.1</ele>
        <time>2011-11-13T08:29:58Z</time>
      </trkpt>
      <trkpt lat="47.37191" lon="-2.12653">
        <ele>53.1</ele>
        <time>2011-11-13T08:29:59Z</time>
      </trkpt>
      <trkpt lat="47.37193" lon="-2.12645">
        <ele>52.7</ele>
        <time>2011-11-13T08:30:00Z</time>
      </trkpt>
      <trkpt lat="47.37196" lon="-2.12638">
        <ele>52</ele>
        <time>2011-11-13T08:30:01Z</time>
      </trkpt>
      <trkpt lat="47.37196" lon="-2.1263">
        <ele>52.4</ele>
        <time>2011-11-13T08:30:02Z</time>
      </trkpt>
      <trkpt lat="47.37196" lon="-2.12622">
        <ele>52.7</ele>
        <time>2011-11-13T08:30:03Z</time>
      </trkpt>
      <trkpt lat="47.37198" lon="-2.12612">
        <ele>52.6</ele>
        <time>2011-11-13T08:30:04Z</time>
      </trkpt>
      <trkpt lat="47.372" lon="-2.12604">
        <ele>52.8</ele>
        <time>2011-11-13T08:30:05Z</time>
      </trkpt>
      <trkpt lat="47.37201" lon="-2.12595">
        <ele>52.4</ele>
        <time>2011-11-13T08:30:06Z</time>
      </trkpt>
      <trkpt lat="47.37204" lon="-2.12589">
        <ele>52</ele>
        <time>2011-11-13T08:30:07Z</time>
      </trkpt>
      <trkpt lat="47.37208" lon="-2.12581">
        <ele>52.5</ele>
        <time>2011-11-13T08:30:08Z</time>
      </trkpt>
      <trkpt lat="47.37209" lon="-2.12574">
        <ele>53.3</ele>
        <time>2011-11-13T08:30:09Z</time>
      </trkpt>
      <trkpt lat="47.37214" lon="-2.12564">
        <ele>54</ele>
        <time>2011-11-13T08:30:11Z</time>
      </trkpt>
      <trkpt lat="47.37219" lon="-2.12555">
        <ele>53.9</ele>
        <time>2011-11-13T08:30:12Z</time>
      </trkpt>
      <trkpt lat="47.37225" lon="-2.12552">
        <ele>54.7</ele>
        <time>2011-11-13T08:30:13Z</time>
      </trkpt>
      <trkpt lat="47.37231" lon="-2.1255">
        <ele>54.4</ele>
        <time>2011-11-13T08:30:14Z</time>
      </trkpt>
      <trkpt lat="47.37238" lon="-2.12548">
        <ele>53.6</ele>
        <time>2011-11-13T08:30:15Z</time>
      </trkpt>
      <trkpt lat="47.37245" lon="-2.12545">
        <ele>53.7</ele>
        <time>2011-11-13T08:30:16Z</time>
      </trkpt>
      <trkpt lat="47.37251" lon="-2.12544">
        <ele>54</ele>
        <time>2011-11-13T08:30:17Z</time>
      </trkpt>
      <trkpt lat="47.37262" lon="-2.12542">
        <ele>53.7</ele>
        <time>2011-11-13T08:30:20Z</time>
      </trkpt>
      <trkpt lat="47.37269" lon="-2.12538">
        <ele>53.6</ele>
        <time>2011-11-13T08:30:22Z</time>
      </trkpt>
      <trkpt lat="47.37279" lon="-2.12535">
        <ele>53.7</ele>
        <time>2011-11-13T08:30:24Z</time>
      </trkpt>
      <trkpt lat="47.37283" lon="-2.12537">
        <ele>53.6</ele>
        <time>2011-11-13T08:30:25Z</time>
      </trkpt>
      <trkpt lat="47.37292" lon="-2.12537">
        <ele>53.5</ele>
        <time>2011-11-13T08:30:26Z</time>
      </trkpt>
      <trkpt lat="47.37298" lon="-2.12533">
        <ele>53.1</ele>
        <time>2011-11-13T08:30:27Z</time>
      </trkpt>
      <trkpt lat="47.37307" lon="-2.1253">
        <ele>52.4</ele>
        <time>2011-11-13T08:30:28Z</time>
      </trkpt>
      <trkpt lat="47.37316" lon="-2.12528">
        <ele>52.5</ele>
        <time>2011-11-13T08:30:29Z</time>
      </trkpt>
      <trkpt lat="47.37322" lon="-2.12525">
        <ele>53.1</ele>
        <time>2011-11-13T08:30:30Z</time>
      </trkpt>
      <trkpt lat="47.37327" lon="-2.12521">
        <ele>53.1</ele>
        <time>2011-11-13T08:30:31Z</time>
      </trkpt>
      <trkpt lat="47.37332" lon="-2.12518">
        <ele>53.3</ele>
        <time>2011-11-13T08:30:32Z</time>
      </trkpt>
      <trkpt lat="47.37339" lon="-2.12515">
        <ele>53.2</ele>
        <time>2011-11-13T08:30:33Z</time>
      </trkpt>
      <trkpt lat="47.37345" lon="-2.12513">
        <ele>52.5</ele>
        <time>2011-11-13T08:30:34Z</time>
      </trkpt>
      <trkpt lat="47.37352" lon="-2.12508">
        <ele>52.5</ele>
        <time>2011-11-13T08:30:35Z</time>
      </trkpt>
      <trkpt lat="47.37358" lon="-2.12503">
        <ele>52.1</ele>
        <time>2011-11-13T08:30:36Z</time>
      </trkpt>
      <trkpt lat="47.37364" lon="-2.12499">
        <ele>51.8</ele>
        <time>2011-11-13T08:30:37Z</time>
      </trkpt>
      <trkpt lat="47.3737" lon="-2.12496">
        <ele>51.4</ele>
        <time>2011-11-13T08:30:38Z</time>
      </trkpt>
      <trkpt lat="47.37376" lon="-2.12492">
        <ele>51.6</ele>
        <time>2011-11-13T08:30:39Z</time>
      </trkpt>
      <trkpt lat="47.37383" lon="-2.12488">
        <ele>51.5</ele>
        <time>2011-11-13T08:30:40Z</time>
      </trkpt>
      <trkpt lat="47.37389" lon="-2.12483">
        <ele>51.2</ele>
        <time>2011-11-13T08:30:41Z</time>
      </trkpt>
      <trkpt lat="47.37394" lon="-2.12479">
        <ele>51.1</ele>
        <time>2011-11-13T08:30:42Z</time>
      </trkpt>
      <trkpt lat="47.37399" lon="-2.12474">
        <ele>51.2</ele>
        <time>2011-11-13T08:30:43Z</time>
      </trkpt>
      <trkpt lat="47.37404" lon="-2.12468">
        <ele>51.1</ele>
        <time>2011-11-13T08:30:44Z</time>
      </trkpt>
      <trkpt lat="47.37409" lon="-2.12462">
        <ele>51.1</ele>
        <time>2011-11-13T08:30:45Z</time>
      </trkpt>
      <trkpt lat="47.37414" lon="-2.12457">
        <ele>51.3</ele>
        <time>2011-11-13T08:30:46Z</time>
      </trkpt>
      <trkpt lat="47.37418" lon="-2.12451">
        <ele>51.4</ele>
        <time>2011-11-13T08:30:47Z</time>
      </trkpt>
      <trkpt lat="47.37423" lon="-2.12443">
        <ele>51.6</ele>
        <time>2011-11-13T08:30:48Z</time>
      </trkpt>
      <trkpt lat="47.37428" lon="-2.12437">
        <ele>52</ele>
        <time>2011-11-13T08:30:49Z</time>
      </trkpt>
      <trkpt lat="47.37433" lon="-2.12429">
        <ele>52.3</ele>
        <time>2011-11-13T08:30:50Z</time>
      </trkpt>
      <trkpt lat="47.37436" lon="-2.12423">
        <ele>51.7</ele>
        <time>2011-11-13T08:30:51Z</time>
      </trkpt>
      <trkpt lat="47.37439" lon="-2.12416">
        <ele>51.1</ele>
        <time>2011-11-13T08:30:52Z</time>
      </trkpt>
      <trkpt lat="47.37446" lon="-2.12406">
        <ele>52.1</ele>
        <time>2011-11-13T08:30:54Z</time>
      </trkpt>
      <trkpt lat="47.37458" lon="-2.12393">
        <ele>52.7</ele>
        <time>2011-11-13T08:30:56Z</time>
      </trkpt>
      <trkpt lat="47.37462" lon="-2.12386">
        <ele>52.4</ele>
        <time>2011-11-13T08:30:57Z</time>
      </trkpt>
      <trkpt lat="47.37465" lon="-2.1238">
        <ele>52.5</ele>
        <time>2011-11-13T08:30:58Z</time>
      </trkpt>
      <trkpt lat="47.3747" lon="-2.12374">
        <ele>52.6</ele>
        <time>2011-11-13T08:30:59Z</time>
      </trkpt>
      <trkpt lat="47.37474" lon="-2.12368">
        <ele>52.8</ele>
        <time>2011-11-13T08:31:00Z</time>
      </trkpt>
      <trkpt lat="47.3748" lon="-2.12363">
        <ele>52.7</ele>
        <time>2011-11-13T08:31:01Z</time>
      </trkpt>
      <trkpt lat="47.37484" lon="-2.12358">
        <ele>52.2</ele>
        <time>2011-11-13T08:31:02Z</time>
      </trkpt>
      <trkpt lat="47.37488" lon="-2.12353">
        <ele>52.6</ele>
        <time>2011-11-13T08:31:03Z</time>
      </trkpt>
      <trkpt lat="47.37493" lon="-2.12346">
        <ele>53.6</ele>
        <time>2011-11-13T08:31:04Z</time>
      </trkpt>
      <trkpt lat="47.37497" lon="-2.12341">
        <ele>53.6</ele>
        <time>2011-11-13T08:31:05Z</time>
      </trkpt>
      <trkpt lat="47.37504" lon="-2.12337">
        <ele>52.7</ele>
        <time>2011-11-13T08:31:06Z</time>
      </trkpt>
      <trkpt lat="47.3751" lon="-2.12332">
        <ele>52.6</ele>
        <time>2011-11-13T08:31:07Z</time>
      </trkpt>
      <trkpt lat="47.37518" lon="-2.12331">
        <ele>52.1</ele>
        <time>2011-11-13T08:31:08Z</time>
      </trkpt>
      <trkpt lat="47.37524" lon="-2.12328">
        <ele>51.3</ele>
        <time>2011-11-13T08:31:09Z</time>
      </trkpt>
      <trkpt lat="47.37531" lon="-2.12328">
        <ele>51.8</ele>
        <time>2011-11-13T08:31:10Z</time>
      </trkpt>
      <trkpt lat="47.37538" lon="-2.12328">
        <ele>51.7</ele>
        <time>2011-11-13T08:31:11Z</time>
      </trkpt>
      <trkpt lat="47.37545" lon="-2.12332">
        <ele>51.3</ele>
        <time>2011-11-13T08:31:12Z</time>
      </trkpt>
      <trkpt lat="47.37552" lon="-2.12336">
        <ele>51.6</ele>
        <time>2011-11-13T08:31:13Z</time>
      </trkpt>
      <trkpt lat="47.37558" lon="-2.12339">
        <ele>51</ele>
        <time>2011-11-13T08:31:14Z</time>
      </trkpt>
      <trkpt lat="47.37565" lon="-2.12342">
        <ele>50.6</ele>
        <time>2011-11-13T08:31:15Z</time>
      </trkpt>
      <trkpt lat="47.37572" lon="-2.12346">
        <ele>51</ele>
        <time>2011-11-13T08:31:16Z</time>
      </trkpt>
      <trkpt lat="47.37578" lon="-2.1235">
        <ele>51.2</ele>
        <time>2011-11-13T08:31:17Z</time>
      </trkpt>
      <trkpt lat="47.37585" lon="-2.12354">
        <ele>51.1</ele>
        <time>2011-11-13T08:31:18Z</time>
      </trkpt>
      <trkpt lat="47.37591" lon="-2.12357">
        <ele>51.1</ele>
        <time>2011-11-13T08:31:19Z</time>
      </trkpt>
      <trkpt lat="47.37598" lon="-2.12359">
        <ele>50.7</ele>
        <time>2011-11-13T08:31:20Z</time>
      </trkpt>
      <trkpt lat="47.37604" lon="-2.12363">
        <ele>50.8</ele>
        <time>2011-11-13T08:31:21Z</time>
      </trkpt>
      <trkpt lat="47.3761" lon="-2.12367">
        <ele>50.9</ele>
        <time>2011-11-13T08:31:22Z</time>
      </trkpt>
      <trkpt lat="47.37617" lon="-2.1237">
        <ele>50.8</ele>
        <time>2011-11-13T08:31:23Z</time>
      </trkpt>
      <trkpt lat="47.37624" lon="-2.12372">
        <ele>50.8</ele>
        <time>2011-11-13T08:31:24Z</time>
      </trkpt>
      <trkpt lat="47.37628" lon="-2.12379">
        <ele>50.6</ele>
        <time>2011-11-13T08:31:25Z</time>
      </trkpt>
      <trkpt lat="47.37634" lon="-2.12384">
        <ele>50.1</ele>
        <time>2011-11-13T08:31:26Z</time>
      </trkpt>
      <trkpt lat="47.3764" lon="-2.12392">
        <ele>49.5</ele>
        <time>2011-11-13T08:31:27Z</time>
      </trkpt>
      <trkpt lat="47.37646" lon="-2.12394">
        <ele>49</ele>
        <time>2011-11-13T08:31:28Z</time>
      </trkpt>
      <trkpt lat="47.37652" lon="-2.12398">
        <ele>48.8</ele>
        <time>2011-11-13T08:31:29Z</time>
      </trkpt>
      <trkpt lat="47.37658" lon="-2.12401">
        <ele>48.9</ele>
        <time>2011-11-13T08:31:30Z</time>
      </trkpt>
      <trkpt lat="47.37664" lon="-2.12403">
        <ele>49.4</ele>
        <time>2011-11-13T08:31:31Z</time>
      </trkpt>
      <trkpt lat="47.37669" lon="-2.12407">
        <ele>49.2</ele>
        <time>2011-11-13T08:31:32Z</time>
      </trkpt>
      <trkpt lat="47.37676" lon="-2.12413">
        <ele>49.2</ele>
        <time>2011-11-13T08:31:33Z</time>
      </trkpt>
      <trkpt lat="47.37682" lon="-2.12416">
        <ele>50.2</ele>
        <time>2011-11-13T08:31:34Z</time>
      </trkpt>
      <trkpt lat="47.37688" lon="-2.12419">
        <ele>49.2</ele>
        <time>2011-11-13T08:31:35Z</time>
      </trkpt>
      <trkpt lat="47.37695" lon="-2.12424">
        <ele>49.7</ele>
        <time>2011-11-13T08:31:36Z</time>
      </trkpt>
      <trkpt lat="47.377" lon="-2.12426">
        <ele>49.6</ele>
        <time>2011-11-13T08:31:37Z</time>
      </trkpt>
      <trkpt lat="47.37706" lon="-2.12431">
        <ele>49.7</ele>
        <time>2011-11-13T08:31:38Z</time>
      </trkpt>
      <trkpt lat="47.37712" lon="-2.12436">
        <ele>49.6</ele>
        <time>2011-11-13T08:31:39Z</time>
      </trkpt>
      <trkpt lat="47.37718" lon="-2.1244">
        <ele>50.2</ele>
        <time>2011-11-13T08:31:40Z</time>
      </trkpt>
      <trkpt lat="47.37724" lon="-2.12444">
        <ele>50.6</ele>
        <time>2011-11-13T08:31:41Z</time>
      </trkpt>
      <trkpt lat="47.3773" lon="-2.12448">
        <ele>50.4</ele>
        <time>2011-11-13T08:31:42Z</time>
      </trkpt>
      <trkpt lat="47.37736" lon="-2.12453">
        <ele>51</ele>
        <time>2011-11-13T08:31:43Z</time>
      </trkpt>
      <trkpt lat="47.37742" lon="-2.12456">
        <ele>51.1</ele>
        <time>2011-11-13T08:31:44Z</time>
      </trkpt>
      <trkpt lat="47.37748" lon="-2.12458">
        <ele>51</ele>
        <time>2011-11-13T08:31:45Z</time>
      </trkpt>
      <trkpt lat="47.37753" lon="-2.1246">
        <ele>50.5</ele>
        <time>2011-11-13T08:31:46Z</time>
      </trkpt>
      <trkpt lat="47.37758" lon="-2.12463">
        <ele>51.2</ele>
        <time>2011-11-13T08:31:47Z</time>
      </trkpt>
      <trkpt lat="47.37762" lon="-2.12468">
        <ele>51.8</ele>
        <time>2011-11-13T08:31:48Z</time>
      </trkpt>
      <trkpt lat="47.37766" lon="-2.1247">
        <ele>51.8</ele>
        <time>2011-11-13T08:31:49Z</time>
      </trkpt>
      <trkpt lat="47.37772" lon="-2.12475">
        <ele>52.4</ele>
        <time>2011-11-13T08:31:50Z</time>
      </trkpt>
      <trkpt lat="47.37777" lon="-2.12482">
        <ele>52.8</ele>
        <time>2011-11-13T08:31:51Z</time>
      </trkpt>
      <trkpt lat="47.37783" lon="-2.12488">
        <ele>52.8</ele>
        <time>2011-11-13T08:31:52Z</time>
      </trkpt>
      <trkpt lat="47.37788" lon="-2.12494">
        <ele>52.8</ele>
        <time>2011-11-13T08:31:53Z</time>
      </trkpt>
      <trkpt lat="47.37793" lon="-2.12498">
        <ele>52.8</ele>
        <time>2011-11-13T08:31:54Z</time>
      </trkpt>
      <trkpt lat="47.37798" lon="-2.12504">
        <ele>53</ele>
        <time>2011-11-13T08:31:55Z</time>
      </trkpt>
      <trkpt lat="47.37809" lon="-2.12515">
        <ele>52.9</ele>
        <time>2011-11-13T08:31:57Z</time>
      </trkpt>
      <trkpt lat="47.37815" lon="-2.1252">
        <ele>53</ele>
        <time>2011-11-13T08:31:58Z</time>
      </trkpt>
      <trkpt lat="47.3782" lon="-2.12526">
        <ele>52.7</ele>
        <time>2011-11-13T08:31:59Z</time>
      </trkpt>
      <trkpt lat="47.37825" lon="-2.1253">
        <ele>52.7</ele>
        <time>2011-11-13T08:32:00Z</time>
      </trkpt>
      <trkpt lat="47.3783" lon="-2.12536">
        <ele>52.7</ele>
        <time>2011-11-13T08:32:01Z</time>
      </trkpt>
      <trkpt lat="47.37834" lon="-2.12542">
        <ele>52.8</ele>
        <time>2011-11-13T08:32:02Z</time>
      </trkpt>
      <trkpt lat="47.37839" lon="-2.12544">
        <ele>52.8</ele>
        <time>2011-11-13T08:32:03Z</time>
      </trkpt>
      <trkpt lat="47.37844" lon="-2.1255">
        <ele>52.2</ele>
        <time>2011-11-13T08:32:04Z</time>
      </trkpt>
      <trkpt lat="47.3785" lon="-2.12555">
        <ele>52.3</ele>
        <time>2011-11-13T08:32:05Z</time>
      </trkpt>
      <trkpt lat="47.37855" lon="-2.12561">
        <ele>52.5</ele>
        <time>2011-11-13T08:32:06Z</time>
      </trkpt>
      <trkpt lat="47.37861" lon="-2.12565">
        <ele>52.2</ele>
        <time>2011-11-13T08:32:07Z</time>
      </trkpt>
      <trkpt lat="47.37864" lon="-2.12568">
        <ele>52.2</ele>
        <time>2011-11-13T08:32:08Z</time>
      </trkpt>
      <trkpt lat="47.37869" lon="-2.12572">
        <ele>52.5</ele>
        <time>2011-11-13T08:32:09Z</time>
      </trkpt>
      <trkpt lat="47.37874" lon="-2.12577">
        <ele>52.6</ele>
        <time>2011-11-13T08:32:10Z</time>
      </trkpt>
      <trkpt lat="47.37879" lon="-2.12581">
        <ele>52.9</ele>
        <time>2011-11-13T08:32:11Z</time>
      </trkpt>
      <trkpt lat="47.37884" lon="-2.12586">
        <ele>53</ele>
        <time>2011-11-13T08:32:12Z</time>
      </trkpt>
      <trkpt lat="47.37888" lon="-2.12593">
        <ele>53.1</ele>
        <time>2011-11-13T08:32:13Z</time>
      </trkpt>
      <trkpt lat="47.37893" lon="-2.12597">
        <ele>53.5</ele>
        <time>2011-11-13T08:32:14Z</time>
      </trkpt>
      <trkpt lat="47.37899" lon="-2.12605">
        <ele>53.5</ele>
        <time>2011-11-13T08:32:15Z</time>
      </trkpt>
      <trkpt lat="47.37903" lon="-2.1261">
        <ele>54.1</ele>
        <time>2011-11-13T08:32:16Z</time>
      </trkpt>
      <trkpt lat="47.37911" lon="-2.12617">
        <ele>54.1</ele>
        <time>2011-11-13T08:32:18Z</time>
      </trkpt>
      <trkpt lat="47.37916" lon="-2.12624">
        <ele>53.9</ele>
        <time>2011-11-13T08:32:19Z</time>
      </trkpt>
      <trkpt lat="47.37921" lon="-2.12631">
        <ele>54.2</ele>
        <time>2011-11-13T08:32:20Z</time>
      </trkpt>
      <trkpt lat="47.37927" lon="-2.12639">
        <ele>54</ele>
        <time>2011-11-13T08:32:21Z</time>
      </trkpt>
      <trkpt lat="47.37931" lon="-2.12644">
        <ele>54.1</ele>
        <time>2011-11-13T08:32:22Z</time>
      </trkpt>
      <trkpt lat="47.37936" lon="-2.1265">
        <ele>54.1</ele>
        <time>2011-11-13T08:32:23Z</time>
      </trkpt>
      <trkpt lat="47.37942" lon="-2.12656">
        <ele>54.6</ele>
        <time>2011-11-13T08:32:24Z</time>
      </trkpt>
      <trkpt lat="47.37946" lon="-2.1266">
        <ele>54.6</ele>
        <time>2011-11-13T08:32:25Z</time>
      </trkpt>
      <trkpt lat="47.37951" lon="-2.12665">
        <ele>54.8</ele>
        <time>2011-11-13T08:32:26Z</time>
      </trkpt>
      <trkpt lat="47.37957" lon="-2.12673">
        <ele>54.5</ele>
        <time>2011-11-13T08:32:27Z</time>
      </trkpt>
      <trkpt lat="47.37962" lon="-2.12681">
        <ele>54.4</ele>
        <time>2011-11-13T08:32:28Z</time>
      </trkpt>
      <trkpt lat="47.37967" lon="-2.12688">
        <ele>54.3</ele>
        <time>2011-11-13T08:32:29Z</time>
      </trkpt>
      <trkpt lat="47.37972" lon="-2.12694">
        <ele>53.8</ele>
        <time>2011-11-13T08:32:30Z</time>
      </trkpt>
      <trkpt lat="47.37978" lon="-2.12702">
        <ele>53.6</ele>
        <time>2011-11-13T08:32:31Z</time>
      </trkpt>
      <trkpt lat="47.37987" lon="-2.12713">
        <ele>52.5</ele>
        <time>2011-11-13T08:32:32Z</time>
      </trkpt>
      <trkpt lat="47.37992" lon="-2.12718">
        <ele>51.9</ele>
        <time>2011-11-13T08:32:33Z</time>
      </trkpt>
      <trkpt lat="47.37996" lon="-2.1273">
        <ele>52.4</ele>
        <time>2011-11-13T08:32:34Z</time>
      </trkpt>
      <trkpt lat="47.38" lon="-2.12745">
        <ele>52.9</ele>
        <time>2011-11-13T08:32:35Z</time>
      </trkpt>
      <trkpt lat="47.38006" lon="-2.12755">
        <ele>53</ele>
        <time>2011-11-13T08:32:36Z</time>
      </trkpt>
      <trkpt lat="47.38009" lon="-2.12765">
        <ele>53.1</ele>
        <time>2011-11-13T08:32:37Z</time>
      </trkpt>
      <trkpt lat="47.38011" lon="-2.12772">
        <ele>52.6</ele>
        <time>2011-11-13T08:32:38Z</time>
      </trkpt>
      <trkpt lat="47.38019" lon="-2.12778">
        <ele>54.6</ele>
        <time>2011-11-13T08:32:40Z</time>
      </trkpt>
      <trkpt lat="47.38022" lon="-2.12787">
        <ele>55.2</ele>
        <time>2011-11-13T08:32:41Z</time>
      </trkpt>
      <trkpt lat="47.38028" lon="-2.12794">
        <ele>55.1</ele>
        <time>2011-11-13T08:32:42Z</time>
      </trkpt>
      <trkpt lat="47.38032" lon="-2.12805">
        <ele>55.7</ele>
        <time>2011-11-13T08:32:43Z</time>
      </trkpt>
      <trkpt lat="47.38035" lon="-2.12812">
        <ele>55.6</ele>
        <time>2011-11-13T08:32:44Z</time>
      </trkpt>
      <trkpt lat="47.38042" lon="-2.12824">
        <ele>55.3</ele>
        <time>2011-11-13T08:32:46Z</time>
      </trkpt>
      <trkpt lat="47.38046" lon="-2.12835">
        <ele>55.2</ele>
        <time>2011-11-13T08:32:48Z</time>
      </trkpt>
      <trkpt lat="47.3805" lon="-2.12844">
        <ele>55.5</ele>
        <time>2011-11-13T08:32:49Z</time>
      </trkpt>
      <trkpt lat="47.38054" lon="-2.12852">
        <ele>56.2</ele>
        <time>2011-11-13T08:32:50Z</time>
      </trkpt>
      <trkpt lat="47.38059" lon="-2.12865">
        <ele>55.7</ele>
        <time>2011-11-13T08:32:51Z</time>
      </trkpt>
      <trkpt lat="47.38062" lon="-2.12873">
        <ele>55.8</ele>
        <time>2011-11-13T08:32:52Z</time>
      </trkpt>
      <trkpt lat="47.38067" lon="-2.12887">
        <ele>55.2</ele>
        <time>2011-11-13T08:32:53Z</time>
      </trkpt>
      <trkpt lat="47.38072" lon="-2.12905">
        <ele>55.5</ele>
        <time>2011-11-13T08:32:54Z</time>
      </trkpt>
      <trkpt lat="47.38075" lon="-2.12913">
        <ele>55.2</ele>
        <time>2011-11-13T08:32:55Z</time>
      </trkpt>
      <trkpt lat="47.38079" lon="-2.12929">
        <ele>54.1</ele>
        <time>2011-11-13T08:32:56Z</time>
      </trkpt>
      <trkpt lat="47.38083" lon="-2.12944">
        <ele>54.3</ele>
        <time>2011-11-13T08:32:57Z</time>
      </trkpt>
      <trkpt lat="47.38087" lon="-2.12952">
        <ele>54.7</ele>
        <time>2011-11-13T08:32:58Z</time>
      </trkpt>
      <trkpt lat="47.38092" lon="-2.12955">
        <ele>54.5</ele>
        <time>2011-11-13T08:32:59Z</time>
      </trkpt>
      <trkpt lat="47.38098" lon="-2.12965">
        <ele>55.9</ele>
        <time>2011-11-13T08:33:00Z</time>
      </trkpt>
      <trkpt lat="47.38104" lon="-2.12978">
        <ele>55.9</ele>
        <time>2011-11-13T08:33:02Z</time>
      </trkpt>
      <trkpt lat="47.38108" lon="-2.12989">
        <ele>55.8</ele>
        <time>2011-11-13T08:33:03Z</time>
      </trkpt>
      <trkpt lat="47.38112" lon="-2.12997">
        <ele>55.8</ele>
        <time>2011-11-13T08:33:04Z</time>
      </trkpt>
      <trkpt lat="47.38119" lon="-2.13007">
        <ele>54.9</ele>
        <time>2011-11-13T08:33:05Z</time>
      </trkpt>
      <trkpt lat="47.38124" lon="-2.13008">
        <ele>55.3</ele>
        <time>2011-11-13T08:33:06Z</time>
      </trkpt>
      <trkpt lat="47.38134" lon="-2.12999">
        <ele>54.6</ele>
        <time>2011-11-13T08:33:09Z</time>
      </trkpt>
      <trkpt lat="47.3814" lon="-2.12993">
        <ele>54.3</ele>
        <time>2011-11-13T08:33:11Z</time>
      </trkpt>
      <trkpt lat="47.38151" lon="-2.12977">
        <ele>53.6</ele>
        <time>2011-11-13T08:33:14Z</time>
      </trkpt>
      <trkpt lat="47.38162" lon="-2.12966">
        <ele>52.8</ele>
        <time>2011-11-13T08:33:16Z</time>
      </trkpt>
      <trkpt lat="47.38164" lon="-2.12959">
        <ele>52.7</ele>
        <time>2011-11-13T08:33:17Z</time>
      </trkpt>
      <trkpt lat="47.38179" lon="-2.12944">
        <ele>53.4</ele>
        <time>2011-11-13T08:33:19Z</time>
      </trkpt>
      <trkpt lat="47.38186" lon="-2.12935">
        <ele>52.9</ele>
        <time>2011-11-13T08:33:20Z</time>
      </trkpt>
      <trkpt lat="47.38188" lon="-2.12924">
        <ele>51.5</ele>
        <time>2011-11-13T08:33:22Z</time>
      </trkpt>
      <trkpt lat="47.38193" lon="-2.12913">
        <ele>50.4</ele>
        <time>2011-11-13T08:33:23Z</time>
      </trkpt>
      <trkpt lat="47.38197" lon="-2.12902">
        <ele>50.5</ele>
        <time>2011-11-13T08:33:24Z</time>
      </trkpt>
      <trkpt lat="47.382" lon="-2.1289">
        <ele>50.2</ele>
        <time>2011-11-13T08:33:25Z</time>
      </trkpt>
      <trkpt lat="47.38202" lon="-2.1288">
        <ele>49.7</ele>
        <time>2011-11-13T08:33:26Z</time>
      </trkpt>
      <trkpt lat="47.38204" lon="-2.1287">
        <ele>48.9</ele>
        <time>2011-11-13T08:33:27Z</time>
      </trkpt>
      <trkpt lat="47.38206" lon="-2.12859">
        <ele>49.8</ele>
        <time>2011-11-13T08:33:28Z</time>
      </trkpt>
      <trkpt lat="47.38206" lon="-2.12847">
        <ele>49.9</ele>
        <time>2011-11-13T08:33:29Z</time>
      </trkpt>
      <trkpt lat="47.38208" lon="-2.12837">
        <ele>49.7</ele>
        <time>2011-11-13T08:33:30Z</time>
      </trkpt>
      <trkpt lat="47.38209" lon="-2.12827">
        <ele>49.8</ele>
        <time>2011-11-13T08:33:31Z</time>
      </trkpt>
      <trkpt lat="47.3821" lon="-2.12816">
        <ele>50.6</ele>
        <time>2011-11-13T08:33:32Z</time>
      </trkpt>
      <trkpt lat="47.38211" lon="-2.12806">
        <ele>50.4</ele>
        <time>2011-11-13T08:33:33Z</time>
      </trkpt>
      <trkpt lat="47.38211" lon="-2.12796">
        <ele>50.3</ele>
        <time>2011-11-13T08:33:34Z</time>
      </trkpt>
      <trkpt lat="47.38211" lon="-2.12785">
        <ele>49.4</ele>
        <time>2011-11-13T08:33:35Z</time>
      </trkpt>
      <trkpt lat="47.38211" lon="-2.12775">
        <ele>49.1</ele>
        <time>2011-11-13T08:33:36Z</time>
      </trkpt>
      <trkpt lat="47.38211" lon="-2.12765">
        <ele>48.6</ele>
        <time>2011-11-13T08:33:37Z</time>
      </trkpt>
      <trkpt lat="47.3821" lon="-2.12755">
        <ele>48.7</ele>
        <time>2011-11-13T08:33:38Z</time>
      </trkpt>
      <trkpt lat="47.38208" lon="-2.12745">
        <ele>48.5</ele>
        <time>2011-11-13T08:33:39Z</time>
      </trkpt>
      <trkpt lat="47.38207" lon="-2.12735">
        <ele>48.4</ele>
        <time>2011-11-13T08:33:40Z</time>
      </trkpt>
      <trkpt lat="47.38204" lon="-2.12725">
        <ele>48.6</ele>
        <time>2011-11-13T08:33:41Z</time>
      </trkpt>
      <trkpt lat="47.38201" lon="-2.12717">
        <ele>48.6</ele>
        <time>2011-11-13T08:33:42Z</time>
      </trkpt>
      <trkpt lat="47.38197" lon="-2.12709">
        <ele>49.4</ele>
        <time>2011-11-13T08:33:43Z</time>
      </trkpt>
      <trkpt lat="47.38193" lon="-2.12701">
        <ele>49.6</ele>
        <time>2011-11-13T08:33:44Z</time>
      </trkpt>
      <trkpt lat="47.38189" lon="-2.12693">
        <ele>49.6</ele>
        <time>2011-11-13T08:33:45Z</time>
      </trkpt>
      <trkpt lat="47.38185" lon="-2.12685">
        <ele>49.7</ele>
        <time>2011-11-13T08:33:46Z</time>
      </trkpt>
      <trkpt lat="47.3818" lon="-2.12677">
        <ele>49.7</ele>
        <time>2011-11-13T08:33:47Z</time>
      </trkpt>
      <trkpt lat="47.38175" lon="-2.1267">
        <ele>49.6</ele>
        <time>2011-11-13T08:33:48Z</time>
      </trkpt>
      <trkpt lat="47.3817" lon="-2.12662">
        <ele>50</ele>
        <time>2011-11-13T08:33:49Z</time>
      </trkpt>
      <trkpt lat="47.38165" lon="-2.12655">
        <ele>50</ele>
        <time>2011-11-13T08:33:50Z</time>
      </trkpt>
      <trkpt lat="47.38159" lon="-2.12649">
        <ele>50.1</ele>
        <time>2011-11-13T08:33:51Z</time>
      </trkpt>
      <trkpt lat="47.38154" lon="-2.12644">
        <ele>50.4</ele>
        <time>2011-11-13T08:33:52Z</time>
      </trkpt>
      <trkpt lat="47.38148" lon="-2.12637">
        <ele>50.8</ele>
        <time>2011-11-13T08:33:53Z</time>
      </trkpt>
      <trkpt lat="47.38142" lon="-2.12632">
        <ele>50.9</ele>
        <time>2011-11-13T08:33:54Z</time>
      </trkpt>
      <trkpt lat="47.38137" lon="-2.12627">
        <ele>50.5</ele>
        <time>2011-11-13T08:33:55Z</time>
      </trkpt>
      <trkpt lat="47.38125" lon="-2.12617">
        <ele>51.1</ele>
        <time>2011-11-13T08:33:57Z</time>
      </trkpt>
      <trkpt lat="47.3812" lon="-2.12611">
        <ele>51.2</ele>
        <time>2011-11-13T08:33:58Z</time>
      </trkpt>
      <trkpt lat="47.38116" lon="-2.12603">
        <ele>51</ele>
        <time>2011-11-13T08:33:59Z</time>
      </trkpt>
      <trkpt lat="47.38113" lon="-2.12595">
        <ele>51.1</ele>
        <time>2011-11-13T08:34:00Z</time>
      </trkpt>
      <trkpt lat="47.38114" lon="-2.12585">
        <ele>51</ele>
        <time>2011-11-13T08:34:01Z</time>
      </trkpt>
      <trkpt lat="47.38116" lon="-2.12576">
        <ele>50.8</ele>
        <time>2011-11-13T08:34:02Z</time>
      </trkpt>
      <trkpt lat="47.38119" lon="-2.12568">
        <ele>50.8</ele>
        <time>2011-11-13T08:34:03Z</time>
      </trkpt>
      <trkpt lat="47.38123" lon="-2.1256">
        <ele>51</ele>
        <time>2011-11-13T08:34:04Z</time>
      </trkpt>
      <trkpt lat="47.38127" lon="-2.12553">
        <ele>50.9</ele>
        <time>2011-11-13T08:34:05Z</time>
      </trkpt>
      <trkpt lat="47.38131" lon="-2.12546">
        <ele>50.9</ele>
        <time>2011-11-13T08:34:06Z</time>
      </trkpt>
      <trkpt lat="47.38134" lon="-2.12539">
        <ele>50.7</ele>
        <time>2011-11-13T08:34:07Z</time>
      </trkpt>
      <trkpt lat="47.38139" lon="-2.12533">
        <ele>51</ele>
        <time>2011-11-13T08:34:08Z</time>
      </trkpt>
      <trkpt lat="47.38143" lon="-2.12526">
        <ele>51.2</ele>
        <time>2011-11-13T08:34:09Z</time>
      </trkpt>
      <trkpt lat="47.38148" lon="-2.12519">
        <ele>51.1</ele>
        <time>2011-11-13T08:34:10Z</time>
      </trkpt>
      <trkpt lat="47.38153" lon="-2.12512">
        <ele>50.8</ele>
        <time>2011-11-13T08:34:11Z</time>
      </trkpt>
      <trkpt lat="47.38158" lon="-2.12505">
        <ele>50.2</ele>
        <time>2011-11-13T08:34:12Z</time>
      </trkpt>
      <trkpt lat="47.38162" lon="-2.12498">
        <ele>50.2</ele>
        <time>2011-11-13T08:34:13Z</time>
      </trkpt>
      <trkpt lat="47.38165" lon="-2.12487">
        <ele>50</ele>
        <time>2011-11-13T08:34:14Z</time>
      </trkpt>
      <trkpt lat="47.38169" lon="-2.1248">
        <ele>49.1</ele>
        <time>2011-11-13T08:34:15Z</time>
      </trkpt>
      <trkpt lat="47.38176" lon="-2.12473">
        <ele>49</ele>
        <time>2011-11-13T08:34:16Z</time>
      </trkpt>
      <trkpt lat="47.38179" lon="-2.12468">
        <ele>49.6</ele>
        <time>2011-11-13T08:34:17Z</time>
      </trkpt>
      <trkpt lat="47.38185" lon="-2.1246">
        <ele>49.3</ele>
        <time>2011-11-13T08:34:18Z</time>
      </trkpt>
      <trkpt lat="47.38188" lon="-2.12451">
        <ele>49.1</ele>
        <time>2011-11-13T08:34:19Z</time>
      </trkpt>
      <trkpt lat="47.38197" lon="-2.12444">
        <ele>48.7</ele>
        <time>2011-11-13T08:34:21Z</time>
      </trkpt>
      <trkpt lat="47.38199" lon="-2.12438">
        <ele>49.3</ele>
        <time>2011-11-13T08:34:22Z</time>
      </trkpt>
      <trkpt lat="47.38206" lon="-2.12426">
        <ele>48.2</ele>
        <time>2011-11-13T08:34:23Z</time>
      </trkpt>
      <trkpt lat="47.38213" lon="-2.12412">
        <ele>48.7</ele>
        <time>2011-11-13T08:34:25Z</time>
      </trkpt>
      <trkpt lat="47.38222" lon="-2.12407">
        <ele>49</ele>
        <time>2011-11-13T08:34:26Z</time>
      </trkpt>
      <trkpt lat="47.38228" lon="-2.12399">
        <ele>48.6</ele>
        <time>2011-11-13T08:34:28Z</time>
      </trkpt>
      <trkpt lat="47.3823" lon="-2.12392">
        <ele>48.4</ele>
        <time>2011-11-13T08:34:29Z</time>
      </trkpt>
      <trkpt lat="47.38234" lon="-2.12379">
        <ele>49.5</ele>
        <time>2011-11-13T08:34:30Z</time>
      </trkpt>
      <trkpt lat="47.3824" lon="-2.1237">
        <ele>49.8</ele>
        <time>2011-11-13T08:34:32Z</time>
      </trkpt>
      <trkpt lat="47.38245" lon="-2.12359">
        <ele>49.6</ele>
        <time>2011-11-13T08:34:34Z</time>
      </trkpt>
      <trkpt lat="47.3825" lon="-2.1235">
        <ele>49.4</ele>
        <time>2011-11-13T08:34:35Z</time>
      </trkpt>
      <trkpt lat="47.38254" lon="-2.12344">
        <ele>49.1</ele>
        <time>2011-11-13T08:34:36Z</time>
      </trkpt>
      <trkpt lat="47.38257" lon="-2.12337">
        <ele>49.1</ele>
        <time>2011-11-13T08:34:37Z</time>
      </trkpt>
      <trkpt lat="47.3826" lon="-2.1233">
        <ele>49.1</ele>
        <time>2011-11-13T08:34:38Z</time>
      </trkpt>
      <trkpt lat="47.38261" lon="-2.12317">
        <ele>47.7</ele>
        <time>2011-11-13T08:34:39Z</time>
      </trkpt>
      <trkpt lat="47.38269" lon="-2.12308">
        <ele>47.9</ele>
        <time>2011-11-13T08:34:41Z</time>
      </trkpt>
      <trkpt lat="47.38277" lon="-2.12294">
        <ele>48.2</ele>
        <time>2011-11-13T08:34:42Z</time>
      </trkpt>
      <trkpt lat="47.38281" lon="-2.12286">
        <ele>48.2</ele>
        <time>2011-11-13T08:34:43Z</time>
      </trkpt>
      <trkpt lat="47.38289" lon="-2.12279">
        <ele>48.9</ele>
        <time>2011-11-13T08:34:44Z</time>
      </trkpt>
      <trkpt lat="47.38293" lon="-2.12274">
        <ele>49</ele>
        <time>2011-11-13T08:34:45Z</time>
      </trkpt>
      <trkpt lat="47.38293" lon="-2.12262">
        <ele>49</ele>
        <time>2011-11-13T08:34:48Z</time>
      </trkpt>
      <trkpt lat="47.38288" lon="-2.12254">
        <ele>49.8</ele>
        <time>2011-11-13T08:34:50Z</time>
      </trkpt>
      <trkpt lat="47.38283" lon="-2.1225">
        <ele>50.6</ele>
        <time>2011-11-13T08:34:51Z</time>
      </trkpt>
      <trkpt lat="47.38278" lon="-2.12247">
        <ele>50.8</ele>
        <time>2011-11-13T08:34:52Z</time>
      </trkpt>
      <trkpt lat="47.38274" lon="-2.12243">
        <ele>50.5</ele>
        <time>2011-11-13T08:34:53Z</time>
      </trkpt>
      <trkpt lat="47.38269" lon="-2.1224">
        <ele>50.8</ele>
        <time>2011-11-13T08:34:54Z</time>
      </trkpt>
      <trkpt lat="47.38264" lon="-2.12238">
        <ele>50.9</ele>
        <time>2011-11-13T08:34:55Z</time>
      </trkpt>
      <trkpt lat="47.38259" lon="-2.12235">
        <ele>50.6</ele>
        <time>2011-11-13T08:34:56Z</time>
      </trkpt>
      <trkpt lat="47.38254" lon="-2.12232">
        <ele>50.8</ele>
        <time>2011-11-13T08:34:57Z</time>
      </trkpt>
      <trkpt lat="47.3825" lon="-2.12228">
        <ele>51</ele>
        <time>2011-11-13T08:34:58Z</time>
      </trkpt>
      <trkpt lat="47.38245" lon="-2.12225">
        <ele>50.7</ele>
        <time>2011-11-13T08:34:59Z</time>
      </trkpt>
      <trkpt lat="47.3824" lon="-2.12222">
        <ele>50</ele>
        <time>2011-11-13T08:35:00Z</time>
      </trkpt>
      <trkpt lat="47.38234" lon="-2.1222">
        <ele>49.5</ele>
        <time>2011-11-13T08:35:01Z</time>
      </trkpt>
      <trkpt lat="47.3823" lon="-2.12219">
        <ele>49.9</ele>
        <time>2011-11-13T08:35:02Z</time>
      </trkpt>
      <trkpt lat="47.38225" lon="-2.12216">
        <ele>50</ele>
        <time>2011-11-13T08:35:03Z</time>
      </trkpt>
      <trkpt lat="47.38218" lon="-2.12211">
        <ele>50.7</ele>
        <time>2011-11-13T08:35:05Z</time>
      </trkpt>
      <trkpt lat="47.3821" lon="-2.12209">
        <ele>51.4</ele>
        <time>2011-11-13T08:35:07Z</time>
      </trkpt>
      <trkpt lat="47.38202" lon="-2.12202">
        <ele>51</ele>
        <time>2011-11-13T08:35:09Z</time>
      </trkpt>
      <trkpt lat="47.38195" lon="-2.12195">
        <ele>51.4</ele>
        <time>2011-11-13T08:35:11Z</time>
      </trkpt>
      <trkpt lat="47.38192" lon="-2.12189">
        <ele>50.9</ele>
        <time>2011-11-13T08:35:12Z</time>
      </trkpt>
      <trkpt lat="47.38186" lon="-2.12186">
        <ele>50.7</ele>
        <time>2011-11-13T08:35:13Z</time>
      </trkpt>
      <trkpt lat="47.3818" lon="-2.1218">
        <ele>51</ele>
        <time>2011-11-13T08:35:14Z</time>
      </trkpt>
      <trkpt lat="47.38174" lon="-2.12174">
        <ele>51.3</ele>
        <time>2011-11-13T08:35:15Z</time>
      </trkpt>
      <trkpt lat="47.38168" lon="-2.1217">
        <ele>51.5</ele>
        <time>2011-11-13T08:35:16Z</time>
      </trkpt>
      <trkpt lat="47.38163" lon="-2.12162">
        <ele>51.5</ele>
        <time>2011-11-13T08:35:17Z</time>
      </trkpt>
      <trkpt lat="47.38158" lon="-2.12156">
        <ele>52.4</ele>
        <time>2011-11-13T08:35:18Z</time>
      </trkpt>
      <trkpt lat="47.38151" lon="-2.12144">
        <ele>51.1</ele>
        <time>2011-11-13T08:35:19Z</time>
      </trkpt>
      <trkpt lat="47.38147" lon="-2.12137">
        <ele>51.2</ele>
        <time>2011-11-13T08:35:20Z</time>
      </trkpt>
      <trkpt lat="47.38142" lon="-2.1213">
        <ele>51.7</ele>
        <time>2011-11-13T08:35:21Z</time>
      </trkpt>
      <trkpt lat="47.38137" lon="-2.12126">
        <ele>51.2</ele>
        <time>2011-11-13T08:35:22Z</time>
      </trkpt>
      <trkpt lat="47.38135" lon="-2.12119">
        <ele>50.5</ele>
        <time>2011-11-13T08:35:23Z</time>
      </trkpt>
      <trkpt lat="47.38132" lon="-2.12114">
        <ele>51.4</ele>
        <time>2011-11-13T08:35:24Z</time>
      </trkpt>
      <trkpt lat="47.3813" lon="-2.12107">
        <ele>52.6</ele>
        <time>2011-11-13T08:35:25Z</time>
      </trkpt>
      <trkpt lat="47.38127" lon="-2.12096">
        <ele>51.8</ele>
        <time>2011-11-13T08:35:26Z</time>
      </trkpt>
      <trkpt lat="47.38124" lon="-2.12087">
        <ele>50.6</ele>
        <time>2011-11-13T08:35:27Z</time>
      </trkpt>
      <trkpt lat="47.38121" lon="-2.12081">
        <ele>50.2</ele>
        <time>2011-11-13T08:35:28Z</time>
      </trkpt>
      <trkpt lat="47.38117" lon="-2.12068">
        <ele>49.1</ele>
        <time>2011-11-13T08:35:30Z</time>
      </trkpt>
      <trkpt lat="47.38112" lon="-2.12061">
        <ele>49.3</ele>
        <time>2011-11-13T08:35:31Z</time>
      </trkpt>
      <trkpt lat="47.38108" lon="-2.12052">
        <ele>49.1</ele>
        <time>2011-11-13T08:35:32Z</time>
      </trkpt>
      <trkpt lat="47.38104" lon="-2.12049">
        <ele>50.3</ele>
        <time>2011-11-13T08:35:33Z</time>
      </trkpt>
      <trkpt lat="47.38102" lon="-2.12039">
        <ele>52.5</ele>
        <time>2011-11-13T08:35:35Z</time>
      </trkpt>
      <trkpt lat="47.38098" lon="-2.12025">
        <ele>51.9</ele>
        <time>2011-11-13T08:35:36Z</time>
      </trkpt>
      <trkpt lat="47.38097" lon="-2.12016">
        <ele>51.9</ele>
        <time>2011-11-13T08:35:37Z</time>
      </trkpt>
      <trkpt lat="47.38099" lon="-2.12007">
        <ele>53.2</ele>
        <time>2011-11-13T08:35:38Z</time>
      </trkpt>
      <trkpt lat="47.38096" lon="-2.11995">
        <ele>52.8</ele>
        <time>2011-11-13T08:35:39Z</time>
      </trkpt>
      <trkpt lat="47.38094" lon="-2.11987">
        <ele>52.4</ele>
        <time>2011-11-13T08:35:40Z</time>
      </trkpt>
      <trkpt lat="47.38086" lon="-2.11983">
        <ele>52.5</ele>
        <time>2011-11-13T08:35:41Z</time>
      </trkpt>
      <trkpt lat="47.3808" lon="-2.11974">
        <ele>52.8</ele>
        <time>2011-11-13T08:35:42Z</time>
      </trkpt>
      <trkpt lat="47.38077" lon="-2.11964">
        <ele>53.3</ele>
        <time>2011-11-13T08:35:43Z</time>
      </trkpt>
      <trkpt lat="47.38068" lon="-2.11961">
        <ele>53</ele>
        <time>2011-11-13T08:35:45Z</time>
      </trkpt>
      <trkpt lat="47.3806" lon="-2.11955">
        <ele>52.9</ele>
        <time>2011-11-13T08:35:47Z</time>
      </trkpt>
      <trkpt lat="47.38054" lon="-2.11948">
        <ele>53.1</ele>
        <time>2011-11-13T08:35:48Z</time>
      </trkpt>
      <trkpt lat="47.38048" lon="-2.11951">
        <ele>53</ele>
        <time>2011-11-13T08:35:49Z</time>
      </trkpt>
      <trkpt lat="47.38044" lon="-2.11946">
        <ele>53.2</ele>
        <time>2011-11-13T08:35:50Z</time>
      </trkpt>
      <trkpt lat="47.38039" lon="-2.11943">
        <ele>54.3</ele>
        <time>2011-11-13T08:35:52Z</time>
      </trkpt>
      <trkpt lat="47.38033" lon="-2.1194">
        <ele>54</ele>
        <time>2011-11-13T08:35:53Z</time>
      </trkpt>
      <trkpt lat="47.38023" lon="-2.11934">
        <ele>54.1</ele>
        <time>2011-11-13T08:35:55Z</time>
      </trkpt>
      <trkpt lat="47.38012" lon="-2.11928">
        <ele>53.5</ele>
        <time>2011-11-13T08:35:57Z</time>
      </trkpt>
      <trkpt lat="47.38006" lon="-2.11926">
        <ele>53.4</ele>
        <time>2011-11-13T08:35:58Z</time>
      </trkpt>
      <trkpt lat="47.38001" lon="-2.11921">
        <ele>52.6</ele>
        <time>2011-11-13T08:35:59Z</time>
      </trkpt>
      <trkpt lat="47.37996" lon="-2.11919">
        <ele>54.8</ele>
        <time>2011-11-13T08:36:00Z</time>
      </trkpt>
      <trkpt lat="47.37989" lon="-2.11908">
        <ele>54.2</ele>
        <time>2011-11-13T08:36:02Z</time>
      </trkpt>
      <trkpt lat="47.37986" lon="-2.11902">
        <ele>54.2</ele>
        <time>2011-11-13T08:36:03Z</time>
      </trkpt>
      <trkpt lat="47.37982" lon="-2.11898">
        <ele>53.6</ele>
        <time>2011-11-13T08:36:04Z</time>
      </trkpt>
      <trkpt lat="47.37974" lon="-2.1189">
        <ele>53.8</ele>
        <time>2011-11-13T08:36:06Z</time>
      </trkpt>
      <trkpt lat="47.37969" lon="-2.11887">
        <ele>54.6</ele>
        <time>2011-11-13T08:36:07Z</time>
      </trkpt>
      <trkpt lat="47.37964" lon="-2.11884">
        <ele>54.7</ele>
        <time>2011-11-13T08:36:08Z</time>
      </trkpt>
      <trkpt lat="47.37957" lon="-2.11877">
        <ele>55.9</ele>
        <time>2011-11-13T08:36:09Z</time>
      </trkpt>
      <trkpt lat="47.37953" lon="-2.11874">
        <ele>56.4</ele>
        <time>2011-11-13T08:36:10Z</time>
      </trkpt>
      <trkpt lat="47.37946" lon="-2.1187">
        <ele>55.6</ele>
        <time>2011-11-13T08:36:11Z</time>
      </trkpt>
      <trkpt lat="47.37941" lon="-2.11866">
        <ele>55.3</ele>
        <time>2011-11-13T08:36:12Z</time>
      </trkpt>
      <trkpt lat="47.37934" lon="-2.11858">
        <ele>55</ele>
        <time>2011-11-13T08:36:13Z</time>
      </trkpt>
      <trkpt lat="47.37931" lon="-2.11849">
        <ele>54.8</ele>
        <time>2011-11-13T08:36:14Z</time>
      </trkpt>
      <trkpt lat="47.3793" lon="-2.11838">
        <ele>54</ele>
        <time>2011-11-13T08:36:15Z</time>
      </trkpt>
      <trkpt lat="47.37926" lon="-2.1183">
        <ele>53.8</ele>
        <time>2011-11-13T08:36:16Z</time>
      </trkpt>
      <trkpt lat="47.37922" lon="-2.11815">
        <ele>51.3</ele>
        <time>2011-11-13T08:36:17Z</time>
      </trkpt>
      <trkpt lat="47.37918" lon="-2.11805">
        <ele>50.8</ele>
        <time>2011-11-13T08:36:18Z</time>
      </trkpt>
      <trkpt lat="47.37916" lon="-2.11797">
        <ele>49.9</ele>
        <time>2011-11-13T08:36:19Z</time>
      </trkpt>
      <trkpt lat="47.37915" lon="-2.11788">
        <ele>50.3</ele>
        <time>2011-11-13T08:36:20Z</time>
      </trkpt>
      <trkpt lat="47.37912" lon="-2.1178">
        <ele>50.3</ele>
        <time>2011-11-13T08:36:21Z</time>
      </trkpt>
      <trkpt lat="47.3791" lon="-2.1177">
        <ele>50.3</ele>
        <time>2011-11-13T08:36:22Z</time>
      </trkpt>
      <trkpt lat="47.37905" lon="-2.11759">
        <ele>51.6</ele>
        <time>2011-11-13T08:36:24Z</time>
      </trkpt>
      <trkpt lat="47.37903" lon="-2.1175">
        <ele>49.6</ele>
        <time>2011-11-13T08:36:25Z</time>
      </trkpt>
      <trkpt lat="47.37902" lon="-2.11742">
        <ele>49.6</ele>
        <time>2011-11-13T08:36:26Z</time>
      </trkpt>
      <trkpt lat="47.37905" lon="-2.11727">
        <ele>49.4</ele>
        <time>2011-11-13T08:36:28Z</time>
      </trkpt>
      <trkpt lat="47.37906" lon="-2.11721">
        <ele>50.2</ele>
        <time>2011-11-13T08:36:29Z</time>
      </trkpt>
      <trkpt lat="47.3791" lon="-2.1171">
        <ele>50</ele>
        <time>2011-11-13T08:36:30Z</time>
      </trkpt>
      <trkpt lat="47.37912" lon="-2.11699">
        <ele>48.7</ele>
        <time>2011-11-13T08:36:32Z</time>
      </trkpt>
      <trkpt lat="47.37917" lon="-2.11693">
        <ele>48.8</ele>
        <time>2011-11-13T08:36:33Z</time>
      </trkpt>
      <trkpt lat="47.37924" lon="-2.11687">
        <ele>49.3</ele>
        <time>2011-11-13T08:36:35Z</time>
      </trkpt>
      <trkpt lat="47.37928" lon="-2.11683">
        <ele>49.4</ele>
        <time>2011-11-13T08:36:36Z</time>
      </trkpt>
      <trkpt lat="47.37936" lon="-2.11677">
        <ele>49.4</ele>
        <time>2011-11-13T08:36:37Z</time>
      </trkpt>
      <trkpt lat="47.3794" lon="-2.11672">
        <ele>49.5</ele>
        <time>2011-11-13T08:36:38Z</time>
      </trkpt>
      <trkpt lat="47.37947" lon="-2.11666">
        <ele>49.5</ele>
        <time>2011-11-13T08:36:40Z</time>
      </trkpt>
      <trkpt lat="47.37956" lon="-2.11656">
        <ele>49.6</ele>
        <time>2011-11-13T08:36:42Z</time>
      </trkpt>
      <trkpt lat="47.3796" lon="-2.11648">
        <ele>49.4</ele>
        <time>2011-11-13T08:36:44Z</time>
      </trkpt>
      <trkpt lat="47.37969" lon="-2.11647">
        <ele>50</ele>
        <time>2011-11-13T08:36:45Z</time>
      </trkpt>
      <trkpt lat="47.37975" lon="-2.11644">
        <ele>50.6</ele>
        <time>2011-11-13T08:36:46Z</time>
      </trkpt>
      <trkpt lat="47.37982" lon="-2.11637">
        <ele>51.2</ele>
        <time>2011-11-13T08:36:48Z</time>
      </trkpt>
      <trkpt lat="47.37986" lon="-2.11632">
        <ele>50.9</ele>
        <time>2011-11-13T08:36:49Z</time>
      </trkpt>
      <trkpt lat="47.37988" lon="-2.11624">
        <ele>50.5</ele>
        <time>2011-11-13T08:36:50Z</time>
      </trkpt>
      <trkpt lat="47.37992" lon="-2.11622">
        <ele>49.8</ele>
        <time>2011-11-13T08:36:51Z</time>
      </trkpt>
      <trkpt lat="47.38001" lon="-2.11617">
        <ele>50.7</ele>
        <time>2011-11-13T08:36:52Z</time>
      </trkpt>
      <trkpt lat="47.38006" lon="-2.11613">
        <ele>51</ele>
        <time>2011-11-13T08:36:53Z</time>
      </trkpt>
      <trkpt lat="47.38011" lon="-2.1161">
        <ele>51.4</ele>
        <time>2011-11-13T08:36:54Z</time>
      </trkpt>
      <trkpt lat="47.38014" lon="-2.11605">
        <ele>51.7</ele>
        <time>2011-11-13T08:36:56Z</time>
      </trkpt>
      <trkpt lat="47.38022" lon="-2.11592">
        <ele>51.4</ele>
        <time>2011-11-13T08:36:58Z</time>
      </trkpt>
      <trkpt lat="47.38026" lon="-2.11585">
        <ele>49.4</ele>
        <time>2011-11-13T08:36:59Z</time>
      </trkpt>
      <trkpt lat="47.3803" lon="-2.11578">
        <ele>47.5</ele>
        <time>2011-11-13T08:37:00Z</time>
      </trkpt>
      <trkpt lat="47.38032" lon="-2.11571">
        <ele>48.3</ele>
        <time>2011-11-13T08:37:01Z</time>
      </trkpt>
      <trkpt lat="47.38036" lon="-2.11566">
        <ele>49.8</ele>
        <time>2011-11-13T08:37:02Z</time>
      </trkpt>
      <trkpt lat="47.3804" lon="-2.1156">
        <ele>48.9</ele>
        <time>2011-11-13T08:37:03Z</time>
      </trkpt>
      <trkpt lat="47.38044" lon="-2.11556">
        <ele>49.8</ele>
        <time>2011-11-13T08:37:05Z</time>
      </trkpt>
      <trkpt lat="47.38048" lon="-2.11551">
        <ele>49.4</ele>
        <time>2011-11-13T08:37:06Z</time>
      </trkpt>
      <trkpt lat="47.38051" lon="-2.11546">
        <ele>50.8</ele>
        <time>2011-11-13T08:37:07Z</time>
      </trkpt>
      <trkpt lat="47.38055" lon="-2.11538">
        <ele>49.7</ele>
        <time>2011-11-13T08:37:08Z</time>
      </trkpt>
      <trkpt lat="47.38062" lon="-2.11534">
        <ele>49.3</ele>
        <time>2011-11-13T08:37:09Z</time>
      </trkpt>
      <trkpt lat="47.38064" lon="-2.11522">
        <ele>52</ele>
        <time>2011-11-13T08:37:11Z</time>
      </trkpt>
      <trkpt lat="47.38067" lon="-2.11514">
        <ele>52.7</ele>
        <time>2011-11-13T08:37:13Z</time>
      </trkpt>
      <trkpt lat="47.38069" lon="-2.11507">
        <ele>53.4</ele>
        <time>2011-11-13T08:37:15Z</time>
      </trkpt>
      <trkpt lat="47.38068" lon="-2.11496">
        <ele>53.4</ele>
        <time>2011-11-13T08:37:17Z</time>
      </trkpt>
      <trkpt lat="47.38067" lon="-2.11486">
        <ele>52.8</ele>
        <time>2011-11-13T08:37:18Z</time>
      </trkpt>
      <trkpt lat="47.38064" lon="-2.1148">
        <ele>53.6</ele>
        <time>2011-11-13T08:37:19Z</time>
      </trkpt>
      <trkpt lat="47.38065" lon="-2.11469">
        <ele>53.3</ele>
        <time>2011-11-13T08:37:20Z</time>
      </trkpt>
      <trkpt lat="47.3806" lon="-2.11465">
        <ele>53.7</ele>
        <time>2011-11-13T08:37:21Z</time>
      </trkpt>
      <trkpt lat="47.38057" lon="-2.11458">
        <ele>53.7</ele>
        <time>2011-11-13T08:37:22Z</time>
      </trkpt>
      <trkpt lat="47.38055" lon="-2.1145">
        <ele>53</ele>
        <time>2011-11-13T08:37:23Z</time>
      </trkpt>
      <trkpt lat="47.38055" lon="-2.11441">
        <ele>52.4</ele>
        <time>2011-11-13T08:37:24Z</time>
      </trkpt>
      <trkpt lat="47.38056" lon="-2.11432">
        <ele>53</ele>
        <time>2011-11-13T08:37:25Z</time>
      </trkpt>
      <trkpt lat="47.38056" lon="-2.1142">
        <ele>51.9</ele>
        <time>2011-11-13T08:37:26Z</time>
      </trkpt>
      <trkpt lat="47.38054" lon="-2.1141">
        <ele>50.8</ele>
        <time>2011-11-13T08:37:27Z</time>
      </trkpt>
      <trkpt lat="47.38053" lon="-2.11402">
        <ele>50.4</ele>
        <time>2011-11-13T08:37:28Z</time>
      </trkpt>
      <trkpt lat="47.38054" lon="-2.11393">
        <ele>50.4</ele>
        <time>2011-11-13T08:37:29Z</time>
      </trkpt>
      <trkpt lat="47.38051" lon="-2.11387">
        <ele>50.4</ele>
        <time>2011-11-13T08:37:30Z</time>
      </trkpt>
      <trkpt lat="47.38051" lon="-2.11378">
        <ele>50.8</ele>
        <time>2011-11-13T08:37:31Z</time>
      </trkpt>
      <trkpt lat="47.38047" lon="-2.11372">
        <ele>51.8</ele>
        <time>2011-11-13T08:37:32Z</time>
      </trkpt>
      <trkpt lat="47.38042" lon="-2.11361">
        <ele>52.9</ele>
        <time>2011-11-13T08:37:34Z</time>
      </trkpt>
      <trkpt lat="47.38038" lon="-2.11351">
        <ele>53.2</ele>
        <time>2011-11-13T08:37:36Z</time>
      </trkpt>
      <trkpt lat="47.38035" lon="-2.11344">
        <ele>53.2</ele>
        <time>2011-11-13T08:37:37Z</time>
      </trkpt>
      <trkpt lat="47.38028" lon="-2.11334">
        <ele>54.4</ele>
        <time>2011-11-13T08:37:38Z</time>
      </trkpt>
      <trkpt lat="47.38026" lon="-2.11324">
        <ele>55.8</ele>
        <time>2011-11-13T08:37:39Z</time>
      </trkpt>
      <trkpt lat="47.38018" lon="-2.11319">
        <ele>56.2</ele>
        <time>2011-11-13T08:37:41Z</time>
      </trkpt>
      <trkpt lat="47.38014" lon="-2.11319">
        <ele>57.2</ele>
        <time>2011-11-13T08:37:42Z</time>
      </trkpt>
      <trkpt lat="47.38012" lon="-2.11312">
        <ele>57</ele>
        <time>2011-11-13T08:37:43Z</time>
      </trkpt>
      <trkpt lat="47.38012" lon="-2.11303">
        <ele>57.2</ele>
        <time>2011-11-13T08:37:44Z</time>
      </trkpt>
      <trkpt lat="47.38008" lon="-2.11294">
        <ele>56.2</ele>
        <time>2011-11-13T08:37:45Z</time>
      </trkpt>
      <trkpt lat="47.38008" lon="-2.11285">
        <ele>56.3</ele>
        <time>2011-11-13T08:37:46Z</time>
      </trkpt>
      <trkpt lat="47.38004" lon="-2.11276">
        <ele>55.7</ele>
        <time>2011-11-13T08:37:47Z</time>
      </trkpt>
      <trkpt lat="47.38001" lon="-2.11267">
        <ele>55</ele>
        <time>2011-11-13T08:37:48Z</time>
      </trkpt>
      <trkpt lat="47.38004" lon="-2.11256">
        <ele>54.2</ele>
        <time>2011-11-13T08:37:49Z</time>
      </trkpt>
      <trkpt lat="47.38003" lon="-2.11247">
        <ele>54.7</ele>
        <time>2011-11-13T08:37:50Z</time>
      </trkpt>
      <trkpt lat="47.38006" lon="-2.11237">
        <ele>54.8</ele>
        <time>2011-11-13T08:37:51Z</time>
      </trkpt>
      <trkpt lat="47.38007" lon="-2.11229">
        <ele>53.8</ele>
        <time>2011-11-13T08:37:52Z</time>
      </trkpt>
      <trkpt lat="47.3801" lon="-2.11222">
        <ele>53.4</ele>
        <time>2011-11-13T08:37:53Z</time>
      </trkpt>
      <trkpt lat="47.38012" lon="-2.11214">
        <ele>52.5</ele>
        <time>2011-11-13T08:37:54Z</time>
      </trkpt>
      <trkpt lat="47.38014" lon="-2.11206">
        <ele>52.1</ele>
        <time>2011-11-13T08:37:55Z</time>
      </trkpt>
      <trkpt lat="47.38019" lon="-2.11195">
        <ele>52.3</ele>
        <time>2011-11-13T08:37:57Z</time>
      </trkpt>
      <trkpt lat="47.38026" lon="-2.11192">
        <ele>53</ele>
        <time>2011-11-13T08:37:58Z</time>
      </trkpt>
      <trkpt lat="47.3803" lon="-2.11187">
        <ele>53</ele>
        <time>2011-11-13T08:37:59Z</time>
      </trkpt>
      <trkpt lat="47.38035" lon="-2.11183">
        <ele>52.9</ele>
        <time>2011-11-13T08:38:00Z</time>
      </trkpt>
      <trkpt lat="47.38041" lon="-2.1118">
        <ele>53.7</ele>
        <time>2011-11-13T08:38:01Z</time>
      </trkpt>
      <trkpt lat="47.38046" lon="-2.11182">
        <ele>54.4</ele>
        <time>2011-11-13T08:38:02Z</time>
      </trkpt>
      <trkpt lat="47.38056" lon="-2.1118">
        <ele>55.2</ele>
        <time>2011-11-13T08:38:04Z</time>
      </trkpt>
      <trkpt lat="47.3806" lon="-2.11178">
        <ele>55.4</ele>
        <time>2011-11-13T08:38:05Z</time>
      </trkpt>
      <trkpt lat="47.38066" lon="-2.11177">
        <ele>54.6</ele>
        <time>2011-11-13T08:38:06Z</time>
      </trkpt>
      <trkpt lat="47.38072" lon="-2.1118">
        <ele>55.6</ele>
        <time>2011-11-13T08:38:08Z</time>
      </trkpt>
      <trkpt lat="47.38077" lon="-2.11177">
        <ele>55.6</ele>
        <time>2011-11-13T08:38:09Z</time>
      </trkpt>
      <trkpt lat="47.38087" lon="-2.11173">
        <ele>56</ele>
        <time>2011-11-13T08:38:11Z</time>
      </trkpt>
      <trkpt lat="47.38091" lon="-2.11168">
        <ele>56.7</ele>
        <time>2011-11-13T08:38:13Z</time>
      </trkpt>
      <trkpt lat="47.38098" lon="-2.11169">
        <ele>57.1</ele>
        <time>2011-11-13T08:38:15Z</time>
      </trkpt>
      <trkpt lat="47.38111" lon="-2.11168">
        <ele>57.9</ele>
        <time>2011-11-13T08:38:17Z</time>
      </trkpt>
      <trkpt lat="47.38113" lon="-2.11162">
        <ele>61.4</ele>
        <time>2011-11-13T08:38:19Z</time>
      </trkpt>
      <trkpt lat="47.3812" lon="-2.11164">
        <ele>59.9</ele>
        <time>2011-11-13T08:38:20Z</time>
      </trkpt>
      <trkpt lat="47.38129" lon="-2.11164">
        <ele>59</ele>
        <time>2011-11-13T08:38:21Z</time>
      </trkpt>
      <trkpt lat="47.38134" lon="-2.11165">
        <ele>58.4</ele>
        <time>2011-11-13T08:38:22Z</time>
      </trkpt>
      <trkpt lat="47.38139" lon="-2.11164">
        <ele>59.2</ele>
        <time>2011-11-13T08:38:24Z</time>
      </trkpt>
      <trkpt lat="47.38145" lon="-2.11166">
        <ele>59.6</ele>
        <time>2011-11-13T08:38:26Z</time>
      </trkpt>
      <trkpt lat="47.38152" lon="-2.11166">
        <ele>60.3</ele>
        <time>2011-11-13T08:38:29Z</time>
      </trkpt>
      <trkpt lat="47.38159" lon="-2.11168">
        <ele>60.3</ele>
        <time>2011-11-13T08:38:30Z</time>
      </trkpt>
      <trkpt lat="47.38164" lon="-2.11168">
        <ele>61.6</ele>
        <time>2011-11-13T08:38:31Z</time>
      </trkpt>
      <trkpt lat="47.38169" lon="-2.1117">
        <ele>62.4</ele>
        <time>2011-11-13T08:38:32Z</time>
      </trkpt>
      <trkpt lat="47.38175" lon="-2.11172">
        <ele>61.4</ele>
        <time>2011-11-13T08:38:33Z</time>
      </trkpt>
      <trkpt lat="47.38185" lon="-2.11177">
        <ele>59.5</ele>
        <time>2011-11-13T08:38:35Z</time>
      </trkpt>
      <trkpt lat="47.3819" lon="-2.1118">
        <ele>60.2</ele>
        <time>2011-11-13T08:38:36Z</time>
      </trkpt>
      <trkpt lat="47.38195" lon="-2.11184">
        <ele>60.8</ele>
        <time>2011-11-13T08:38:37Z</time>
      </trkpt>
      <trkpt lat="47.382" lon="-2.11186">
        <ele>60.1</ele>
        <time>2011-11-13T08:38:38Z</time>
      </trkpt>
      <trkpt lat="47.38205" lon="-2.11189">
        <ele>60.8</ele>
        <time>2011-11-13T08:38:39Z</time>
      </trkpt>
      <trkpt lat="47.3821" lon="-2.11194">
        <ele>62.2</ele>
        <time>2011-11-13T08:38:40Z</time>
      </trkpt>
      <trkpt lat="47.38214" lon="-2.11196">
        <ele>62.2</ele>
        <time>2011-11-13T08:38:41Z</time>
      </trkpt>
      <trkpt lat="47.38218" lon="-2.11202">
        <ele>63.1</ele>
        <time>2011-11-13T08:38:43Z</time>
      </trkpt>
      <trkpt lat="47.38222" lon="-2.11206">
        <ele>62.4</ele>
        <time>2011-11-13T08:38:44Z</time>
      </trkpt>
      <trkpt lat="47.38227" lon="-2.11214">
        <ele>64.1</ele>
        <time>2011-11-13T08:38:46Z</time>
      </trkpt>
      <trkpt lat="47.38231" lon="-2.11217">
        <ele>64</ele>
        <time>2011-11-13T08:38:47Z</time>
      </trkpt>
      <trkpt lat="47.38235" lon="-2.11221">
        <ele>64</ele>
        <time>2011-11-13T08:38:48Z</time>
      </trkpt>
      <trkpt lat="47.38239" lon="-2.11227">
        <ele>65</ele>
        <time>2011-11-13T08:38:49Z</time>
      </trkpt>
      <trkpt lat="47.38242" lon="-2.11236">
        <ele>65.4</ele>
        <time>2011-11-13T08:38:51Z</time>
      </trkpt>
      <trkpt lat="47.38245" lon="-2.11246">
        <ele>66.7</ele>
        <time>2011-11-13T08:38:54Z</time>
      </trkpt>
      <trkpt lat="47.38247" lon="-2.11252">
        <ele>65.8</ele>
        <time>2011-11-13T08:38:56Z</time>
      </trkpt>
      <trkpt lat="47.3825" lon="-2.11259">
        <ele>65.9</ele>
        <time>2011-11-13T08:38:57Z</time>
      </trkpt>
      <trkpt lat="47.38254" lon="-2.11273">
        <ele>65.1</ele>
        <time>2011-11-13T08:38:59Z</time>
      </trkpt>
      <trkpt lat="47.38258" lon="-2.11283">
        <ele>65.5</ele>
        <time>2011-11-13T08:39:01Z</time>
      </trkpt>
      <trkpt lat="47.38257" lon="-2.11292">
        <ele>64.1</ele>
        <time>2011-11-13T08:39:02Z</time>
      </trkpt>
      <trkpt lat="47.38261" lon="-2.11297">
        <ele>64.6</ele>
        <time>2011-11-13T08:39:03Z</time>
      </trkpt>
      <trkpt lat="47.38264" lon="-2.11305">
        <ele>64.8</ele>
        <time>2011-11-13T08:39:05Z</time>
      </trkpt>
      <trkpt lat="47.38266" lon="-2.11314">
        <ele>66.6</ele>
        <time>2011-11-13T08:39:07Z</time>
      </trkpt>
      <trkpt lat="47.3827" lon="-2.1132">
        <ele>66.2</ele>
        <time>2011-11-13T08:39:10Z</time>
      </trkpt>
      <trkpt lat="47.38274" lon="-2.11333">
        <ele>64.2</ele>
        <time>2011-11-13T08:39:12Z</time>
      </trkpt>
      <trkpt lat="47.38277" lon="-2.1134">
        <ele>65.2</ele>
        <time>2011-11-13T08:39:14Z</time>
      </trkpt>
      <trkpt lat="47.3828" lon="-2.11344">
        <ele>64.2</ele>
        <time>2011-11-13T08:39:15Z</time>
      </trkpt>
      <trkpt lat="47.38285" lon="-2.11344">
        <ele>64.1</ele>
        <time>2011-11-13T08:39:18Z</time>
      </trkpt>
      <trkpt lat="47.38287" lon="-2.11337">
        <ele>64.6</ele>
        <time>2011-11-13T08:39:20Z</time>
      </trkpt>
      <trkpt lat="47.38292" lon="-2.11327">
        <ele>64.7</ele>
        <time>2011-11-13T08:39:22Z</time>
      </trkpt>
      <trkpt lat="47.38296" lon="-2.11322">
        <ele>64.5</ele>
        <time>2011-11-13T08:39:24Z</time>
      </trkpt>
      <trkpt lat="47.383" lon="-2.11313">
        <ele>65.4</ele>
        <time>2011-11-13T08:39:26Z</time>
      </trkpt>
      <trkpt lat="47.38304" lon="-2.11303">
        <ele>65.1</ele>
        <time>2011-11-13T08:39:28Z</time>
      </trkpt>
      <trkpt lat="47.3831" lon="-2.11293">
        <ele>63.7</ele>
        <time>2011-11-13T08:39:30Z</time>
      </trkpt>
      <trkpt lat="47.38315" lon="-2.11287">
        <ele>63.7</ele>
        <time>2011-11-13T08:39:31Z</time>
      </trkpt>
      <trkpt lat="47.3832" lon="-2.11281">
        <ele>62.8</ele>
        <time>2011-11-13T08:39:32Z</time>
      </trkpt>
      <trkpt lat="47.38325" lon="-2.11275">
        <ele>62.6</ele>
        <time>2011-11-13T08:39:33Z</time>
      </trkpt>
      <trkpt lat="47.38329" lon="-2.11269">
        <ele>62.4</ele>
        <time>2011-11-13T08:39:34Z</time>
      </trkpt>
      <trkpt lat="47.38333" lon="-2.11262">
        <ele>62</ele>
        <time>2011-11-13T08:39:35Z</time>
      </trkpt>
      <trkpt lat="47.38339" lon="-2.11255">
        <ele>61.9</ele>
        <time>2011-11-13T08:39:36Z</time>
      </trkpt>
      <trkpt lat="47.38342" lon="-2.11245">
        <ele>62.3</ele>
        <time>2011-11-13T08:39:37Z</time>
      </trkpt>
      <trkpt lat="47.38345" lon="-2.11236">
        <ele>63.6</ele>
        <time>2011-11-13T08:39:38Z</time>
      </trkpt>
      <trkpt lat="47.38352" lon="-2.11225">
        <ele>63.5</ele>
        <time>2011-11-13T08:39:39Z</time>
      </trkpt>
      <trkpt lat="47.38357" lon="-2.11218">
        <ele>62.9</ele>
        <time>2011-11-13T08:39:40Z</time>
      </trkpt>
      <trkpt lat="47.38359" lon="-2.11208">
        <ele>62.1</ele>
        <time>2011-11-13T08:39:41Z</time>
      </trkpt>
      <trkpt lat="47.38366" lon="-2.11196">
        <ele>61.2</ele>
        <time>2011-11-13T08:39:42Z</time>
      </trkpt>
      <trkpt lat="47.38373" lon="-2.11188">
        <ele>61.6</ele>
        <time>2011-11-13T08:39:43Z</time>
      </trkpt>
      <trkpt lat="47.38377" lon="-2.11178">
        <ele>60.6</ele>
        <time>2011-11-13T08:39:44Z</time>
      </trkpt>
      <trkpt lat="47.38387" lon="-2.11168">
        <ele>61.5</ele>
        <time>2011-11-13T08:39:45Z</time>
      </trkpt>
      <trkpt lat="47.38397" lon="-2.11159">
        <ele>61.8</ele>
        <time>2011-11-13T08:39:46Z</time>
      </trkpt>
      <trkpt lat="47.38406" lon="-2.11154">
        <ele>60.4</ele>
        <time>2011-11-13T08:39:47Z</time>
      </trkpt>
      <trkpt lat="47.38413" lon="-2.11146">
        <ele>60</ele>
        <time>2011-11-13T08:39:49Z</time>
      </trkpt>
      <trkpt lat="47.38419" lon="-2.11138">
        <ele>60.1</ele>
        <time>2011-11-13T08:39:51Z</time>
      </trkpt>
      <trkpt lat="47.38426" lon="-2.11137">
        <ele>59.7</ele>
        <time>2011-11-13T08:39:52Z</time>
      </trkpt>
      <trkpt lat="47.38438" lon="-2.11131">
        <ele>61.2</ele>
        <time>2011-11-13T08:39:54Z</time>
      </trkpt>
      <trkpt lat="47.38442" lon="-2.11126">
        <ele>60.1</ele>
        <time>2011-11-13T08:39:55Z</time>
      </trkpt>
      <trkpt lat="47.38447" lon="-2.11118">
        <ele>59</ele>
        <time>2011-11-13T08:39:57Z</time>
      </trkpt>
      <trkpt lat="47.38454" lon="-2.11116">
        <ele>58.4</ele>
        <time>2011-11-13T08:39:58Z</time>
      </trkpt>
      <trkpt lat="47.3846" lon="-2.11111">
        <ele>58</ele>
        <time>2011-11-13T08:39:59Z</time>
      </trkpt>
      <trkpt lat="47.38467" lon="-2.11108">
        <ele>55.9</ele>
        <time>2011-11-13T08:40:01Z</time>
      </trkpt>
      <trkpt lat="47.38473" lon="-2.11112">
        <ele>55.3</ele>
        <time>2011-11-13T08:40:03Z</time>
      </trkpt>
      <trkpt lat="47.38478" lon="-2.11117">
        <ele>55.1</ele>
        <time>2011-11-13T08:40:04Z</time>
      </trkpt>
      <trkpt lat="47.38482" lon="-2.11121">
        <ele>54</ele>
        <time>2011-11-13T08:40:05Z</time>
      </trkpt>
      <trkpt lat="47.3849" lon="-2.11126">
        <ele>53</ele>
        <time>2011-11-13T08:40:07Z</time>
      </trkpt>
      <trkpt lat="47.38494" lon="-2.1113">
        <ele>53.7</ele>
        <time>2011-11-13T08:40:08Z</time>
      </trkpt>
      <trkpt lat="47.38502" lon="-2.11133">
        <ele>53.7</ele>
        <time>2011-11-13T08:40:10Z</time>
      </trkpt>
      <trkpt lat="47.38507" lon="-2.11137">
        <ele>52.6</ele>
        <time>2011-11-13T08:40:11Z</time>
      </trkpt>
      <trkpt lat="47.38517" lon="-2.11143">
        <ele>52.7</ele>
        <time>2011-11-13T08:40:12Z</time>
      </trkpt>
      <trkpt lat="47.38523" lon="-2.11146">
        <ele>52.8</ele>
        <time>2011-11-13T08:40:13Z</time>
      </trkpt>
      <trkpt lat="47.38528" lon="-2.11148">
        <ele>52.6</ele>
        <time>2011-11-13T08:40:14Z</time>
      </trkpt>
      <trkpt lat="47.38537" lon="-2.11152">
        <ele>52.2</ele>
        <time>2011-11-13T08:40:16Z</time>
      </trkpt>
      <trkpt lat="47.38545" lon="-2.11154">
        <ele>52</ele>
        <time>2011-11-13T08:40:18Z</time>
      </trkpt>
      <trkpt lat="47.3855" lon="-2.11159">
        <ele>52</ele>
        <time>2011-11-13T08:40:19Z</time>
      </trkpt>
      <trkpt lat="47.38557" lon="-2.11162">
        <ele>51.1</ele>
        <time>2011-11-13T08:40:20Z</time>
      </trkpt>
      <trkpt lat="47.38561" lon="-2.11166">
        <ele>50.4</ele>
        <time>2011-11-13T08:40:21Z</time>
      </trkpt>
      <trkpt lat="47.38567" lon="-2.11168">
        <ele>49.4</ele>
        <time>2011-11-13T08:40:22Z</time>
      </trkpt>
      <trkpt lat="47.38571" lon="-2.11173">
        <ele>49.4</ele>
        <time>2011-11-13T08:40:23Z</time>
      </trkpt>
      <trkpt lat="47.38573" lon="-2.11181">
        <ele>49.2</ele>
        <time>2011-11-13T08:40:24Z</time>
      </trkpt>
      <trkpt lat="47.38578" lon="-2.11185">
        <ele>50.1</ele>
        <time>2011-11-13T08:40:25Z</time>
      </trkpt>
      <trkpt lat="47.38583" lon="-2.11192">
        <ele>50.6</ele>
        <time>2011-11-13T08:40:26Z</time>
      </trkpt>
      <trkpt lat="47.38588" lon="-2.11202">
        <ele>50.8</ele>
        <time>2011-11-13T08:40:28Z</time>
      </trkpt>
      <trkpt lat="47.38591" lon="-2.11213">
        <ele>51</ele>
        <time>2011-11-13T08:40:30Z</time>
      </trkpt>
      <trkpt lat="47.38594" lon="-2.11224">
        <ele>50.5</ele>
        <time>2011-11-13T08:40:32Z</time>
      </trkpt>
      <trkpt lat="47.38597" lon="-2.11233">
        <ele>50.5</ele>
        <time>2011-11-13T08:40:33Z</time>
      </trkpt>
      <trkpt lat="47.38598" lon="-2.11244">
        <ele>51.1</ele>
        <time>2011-11-13T08:40:34Z</time>
      </trkpt>
      <trkpt lat="47.38602" lon="-2.11257">
        <ele>53</ele>
        <time>2011-11-13T08:40:36Z</time>
      </trkpt>
      <trkpt lat="47.38602" lon="-2.1127">
        <ele>50.7</ele>
        <time>2011-11-13T08:40:37Z</time>
      </trkpt>
      <trkpt lat="47.38596" lon="-2.11284">
        <ele>50.8</ele>
        <time>2011-11-13T08:40:38Z</time>
      </trkpt>
      <trkpt lat="47.38598" lon="-2.11293">
        <ele>51.4</ele>
        <time>2011-11-13T08:40:39Z</time>
      </trkpt>
      <trkpt lat="47.38593" lon="-2.11306">
        <ele>52.2</ele>
        <time>2011-11-13T08:40:40Z</time>
      </trkpt>
      <trkpt lat="47.3859" lon="-2.11315">
        <ele>53.1</ele>
        <time>2011-11-13T08:40:42Z</time>
      </trkpt>
      <trkpt lat="47.38588" lon="-2.11321">
        <ele>54.4</ele>
        <time>2011-11-13T08:40:43Z</time>
      </trkpt>
      <trkpt lat="47.38584" lon="-2.11329">
        <ele>53.2</ele>
        <time>2011-11-13T08:40:44Z</time>
      </trkpt>
      <trkpt lat="47.3858" lon="-2.11337">
        <ele>53.5</ele>
        <time>2011-11-13T08:40:45Z</time>
      </trkpt>
      <trkpt lat="47.38574" lon="-2.11345">
        <ele>54.5</ele>
        <time>2011-11-13T08:40:46Z</time>
      </trkpt>
      <trkpt lat="47.38568" lon="-2.11353">
        <ele>54.6</ele>
        <time>2011-11-13T08:40:47Z</time>
      </trkpt>
      <trkpt lat="47.38562" lon="-2.11358">
        <ele>54.4</ele>
        <time>2011-11-13T08:40:48Z</time>
      </trkpt>
      <trkpt lat="47.38559" lon="-2.1137">
        <ele>55.1</ele>
        <time>2011-11-13T08:40:50Z</time>
      </trkpt>
      <trkpt lat="47.38553" lon="-2.11383">
        <ele>54.2</ele>
        <time>2011-11-13T08:40:52Z</time>
      </trkpt>
      <trkpt lat="47.3855" lon="-2.1139">
        <ele>53.6</ele>
        <time>2011-11-13T08:40:53Z</time>
      </trkpt>
      <trkpt lat="47.38547" lon="-2.11396">
        <ele>53.7</ele>
        <time>2011-11-13T08:40:54Z</time>
      </trkpt>
      <trkpt lat="47.38542" lon="-2.11404">
        <ele>53.3</ele>
        <time>2011-11-13T08:40:55Z</time>
      </trkpt>
      <trkpt lat="47.38537" lon="-2.11412">
        <ele>51.8</ele>
        <time>2011-11-13T08:40:56Z</time>
      </trkpt>
      <trkpt lat="47.38531" lon="-2.1142">
        <ele>51.1</ele>
        <time>2011-11-13T08:40:57Z</time>
      </trkpt>
      <trkpt lat="47.38526" lon="-2.11433">
        <ele>51.4</ele>
        <time>2011-11-13T08:40:59Z</time>
      </trkpt>
      <trkpt lat="47.38522" lon="-2.11441">
        <ele>51</ele>
        <time>2011-11-13T08:41:00Z</time>
      </trkpt>
      <trkpt lat="47.38519" lon="-2.11448">
        <ele>51</ele>
        <time>2011-11-13T08:41:01Z</time>
      </trkpt>
      <trkpt lat="47.38519" lon="-2.11463">
        <ele>50.6</ele>
        <time>2011-11-13T08:41:03Z</time>
      </trkpt>
      <trkpt lat="47.38516" lon="-2.11472">
        <ele>52.4</ele>
        <time>2011-11-13T08:41:04Z</time>
      </trkpt>
      <trkpt lat="47.38514" lon="-2.1148">
        <ele>53.2</ele>
        <time>2011-11-13T08:41:05Z</time>
      </trkpt>
      <trkpt lat="47.38514" lon="-2.11489">
        <ele>54</ele>
        <time>2011-11-13T08:41:06Z</time>
      </trkpt>
      <trkpt lat="47.38515" lon="-2.11497">
        <ele>54.2</ele>
        <time>2011-11-13T08:41:07Z</time>
      </trkpt>
      <trkpt lat="47.38515" lon="-2.11504">
        <ele>54.5</ele>
        <time>2011-11-13T08:41:08Z</time>
      </trkpt>
      <trkpt lat="47.38514" lon="-2.11515">
        <ele>54.5</ele>
        <time>2011-11-13T08:41:09Z</time>
      </trkpt>
      <trkpt lat="47.38515" lon="-2.11522">
        <ele>53.4</ele>
        <time>2011-11-13T08:41:10Z</time>
      </trkpt>
      <trkpt lat="47.38513" lon="-2.11531">
        <ele>52.5</ele>
        <time>2011-11-13T08:41:11Z</time>
      </trkpt>
      <trkpt lat="47.38513" lon="-2.11543">
        <ele>52</ele>
        <time>2011-11-13T08:41:12Z</time>
      </trkpt>
      <trkpt lat="47.38513" lon="-2.11553">
        <ele>51.6</ele>
        <time>2011-11-13T08:41:13Z</time>
      </trkpt>
      <trkpt lat="47.38512" lon="-2.11564">
        <ele>52.2</ele>
        <time>2011-11-13T08:41:14Z</time>
      </trkpt>
      <trkpt lat="47.38512" lon="-2.11574">
        <ele>52</ele>
        <time>2011-11-13T08:41:15Z</time>
      </trkpt>
      <trkpt lat="47.38514" lon="-2.11583">
        <ele>52.2</ele>
        <time>2011-11-13T08:41:16Z</time>
      </trkpt>
      <trkpt lat="47.38515" lon="-2.11594">
        <ele>52.1</ele>
        <time>2011-11-13T08:41:18Z</time>
      </trkpt>
      <trkpt lat="47.38515" lon="-2.11602">
        <ele>51.7</ele>
        <time>2011-11-13T08:41:19Z</time>
      </trkpt>
      <trkpt lat="47.38516" lon="-2.1161">
        <ele>51.9</ele>
        <time>2011-11-13T08:41:20Z</time>
      </trkpt>
      <trkpt lat="47.38517" lon="-2.11619">
        <ele>52.2</ele>
        <time>2011-11-13T08:41:21Z</time>
      </trkpt>
      <trkpt lat="47.38518" lon="-2.11628">
        <ele>52.1</ele>
        <time>2011-11-13T08:41:22Z</time>
      </trkpt>
      <trkpt lat="47.3852" lon="-2.11637">
        <ele>52.4</ele>
        <time>2011-11-13T08:41:23Z</time>
      </trkpt>
      <trkpt lat="47.3852" lon="-2.11648">
        <ele>52.6</ele>
        <time>2011-11-13T08:41:24Z</time>
      </trkpt>
      <trkpt lat="47.38521" lon="-2.11663">
        <ele>53.9</ele>
        <time>2011-11-13T08:41:25Z</time>
      </trkpt>
      <trkpt lat="47.38523" lon="-2.11674">
        <ele>53.8</ele>
        <time>2011-11-13T08:41:26Z</time>
      </trkpt>
      <trkpt lat="47.38524" lon="-2.11683">
        <ele>52.1</ele>
        <time>2011-11-13T08:41:27Z</time>
      </trkpt>
      <trkpt lat="47.38524" lon="-2.11693">
        <ele>52.3</ele>
        <time>2011-11-13T08:41:28Z</time>
      </trkpt>
      <trkpt lat="47.38526" lon="-2.11702">
        <ele>52.3</ele>
        <time>2011-11-13T08:41:29Z</time>
      </trkpt>
      <trkpt lat="47.38528" lon="-2.11714">
        <ele>52.4</ele>
        <time>2011-11-13T08:41:30Z</time>
      </trkpt>
      <trkpt lat="47.38528" lon="-2.11724">
        <ele>52.7</ele>
        <time>2011-11-13T08:41:31Z</time>
      </trkpt>
      <trkpt lat="47.3853" lon="-2.11732">
        <ele>52.6</ele>
        <time>2011-11-13T08:41:32Z</time>
      </trkpt>
      <trkpt lat="47.38531" lon="-2.11743">
        <ele>53.4</ele>
        <time>2011-11-13T08:41:33Z</time>
      </trkpt>
      <trkpt lat="47.38532" lon="-2.11754">
        <ele>53.5</ele>
        <time>2011-11-13T08:41:34Z</time>
      </trkpt>
      <trkpt lat="47.38532" lon="-2.11766">
        <ele>53.5</ele>
        <time>2011-11-13T08:41:35Z</time>
      </trkpt>
      <trkpt lat="47.38533" lon="-2.11778">
        <ele>53.9</ele>
        <time>2011-11-13T08:41:36Z</time>
      </trkpt>
      <trkpt lat="47.38532" lon="-2.11787">
        <ele>53.4</ele>
        <time>2011-11-13T08:41:37Z</time>
      </trkpt>
      <trkpt lat="47.38533" lon="-2.11798">
        <ele>52.3</ele>
        <time>2011-11-13T08:41:38Z</time>
      </trkpt>
      <trkpt lat="47.38529" lon="-2.1181">
        <ele>51.9</ele>
        <time>2011-11-13T08:41:39Z</time>
      </trkpt>
      <trkpt lat="47.38528" lon="-2.1182">
        <ele>50.9</ele>
        <time>2011-11-13T08:41:40Z</time>
      </trkpt>
      <trkpt lat="47.38525" lon="-2.11829">
        <ele>51.5</ele>
        <time>2011-11-13T08:41:41Z</time>
      </trkpt>
      <trkpt lat="47.38521" lon="-2.11838">
        <ele>52.9</ele>
        <time>2011-11-13T08:41:42Z</time>
      </trkpt>
      <trkpt lat="47.38518" lon="-2.11848">
        <ele>52.7</ele>
        <time>2011-11-13T08:41:43Z</time>
      </trkpt>
      <trkpt lat="47.38512" lon="-2.11855">
        <ele>53.1</ele>
        <time>2011-11-13T08:41:44Z</time>
      </trkpt>
      <trkpt lat="47.38507" lon="-2.11864">
        <ele>53.3</ele>
        <time>2011-11-13T08:41:45Z</time>
      </trkpt>
      <trkpt lat="47.38506" lon="-2.11872">
        <ele>52</ele>
        <time>2011-11-13T08:41:46Z</time>
      </trkpt>
      <trkpt lat="47.38502" lon="-2.11881">
        <ele>51.4</ele>
        <time>2011-11-13T08:41:47Z</time>
      </trkpt>
      <trkpt lat="47.38497" lon="-2.1189">
        <ele>50.6</ele>
        <time>2011-11-13T08:41:48Z</time>
      </trkpt>
      <trkpt lat="47.38492" lon="-2.11899">
        <ele>50.7</ele>
        <time>2011-11-13T08:41:49Z</time>
      </trkpt>
      <trkpt lat="47.38488" lon="-2.11904">
        <ele>51.3</ele>
        <time>2011-11-13T08:41:50Z</time>
      </trkpt>
      <trkpt lat="47.38481" lon="-2.1191">
        <ele>50.7</ele>
        <time>2011-11-13T08:41:51Z</time>
      </trkpt>
      <trkpt lat="47.38477" lon="-2.11915">
        <ele>50</ele>
        <time>2011-11-13T08:41:52Z</time>
      </trkpt>
      <trkpt lat="47.38472" lon="-2.11923">
        <ele>51.2</ele>
        <time>2011-11-13T08:41:53Z</time>
      </trkpt>
      <trkpt lat="47.38467" lon="-2.1193">
        <ele>51.3</ele>
        <time>2011-11-13T08:41:54Z</time>
      </trkpt>
      <trkpt lat="47.38461" lon="-2.11937">
        <ele>51.7</ele>
        <time>2011-11-13T08:41:55Z</time>
      </trkpt>
      <trkpt lat="47.38446" lon="-2.11948">
        <ele>51.7</ele>
        <time>2011-11-13T08:41:57Z</time>
      </trkpt>
      <trkpt lat="47.38441" lon="-2.11954">
        <ele>50.6</ele>
        <time>2011-11-13T08:41:58Z</time>
      </trkpt>
      <trkpt lat="47.38435" lon="-2.11961">
        <ele>50.8</ele>
        <time>2011-11-13T08:41:59Z</time>
      </trkpt>
      <trkpt lat="47.38429" lon="-2.11966">
        <ele>50.8</ele>
        <time>2011-11-13T08:42:00Z</time>
      </trkpt>
      <trkpt lat="47.38428" lon="-2.11973">
        <ele>50.9</ele>
        <time>2011-11-13T08:42:01Z</time>
      </trkpt>
      <trkpt lat="47.38426" lon="-2.11979">
        <ele>51.7</ele>
        <time>2011-11-13T08:42:02Z</time>
      </trkpt>
      <trkpt lat="47.3842" lon="-2.11989">
        <ele>52.3</ele>
        <time>2011-11-13T08:42:04Z</time>
      </trkpt>
      <trkpt lat="47.38418" lon="-2.11996">
        <ele>51.9</ele>
        <time>2011-11-13T08:42:05Z</time>
      </trkpt>
      <trkpt lat="47.38414" lon="-2.12">
        <ele>53.2</ele>
        <time>2011-11-13T08:42:06Z</time>
      </trkpt>
      <trkpt lat="47.3841" lon="-2.12005">
        <ele>53.3</ele>
        <time>2011-11-13T08:42:07Z</time>
      </trkpt>
      <trkpt lat="47.38404" lon="-2.12012">
        <ele>53.2</ele>
        <time>2011-11-13T08:42:09Z</time>
      </trkpt>
      <trkpt lat="47.38401" lon="-2.12018">
        <ele>52</ele>
        <time>2011-11-13T08:42:10Z</time>
      </trkpt>
      <trkpt lat="47.38403" lon="-2.12023">
        <ele>53.1</ele>
        <time>2011-11-13T08:42:11Z</time>
      </trkpt>
      <trkpt lat="47.38404" lon="-2.12034">
        <ele>54.2</ele>
        <time>2011-11-13T08:42:13Z</time>
      </trkpt>
      <trkpt lat="47.38409" lon="-2.12037">
        <ele>54.2</ele>
        <time>2011-11-13T08:42:14Z</time>
      </trkpt>
      <trkpt lat="47.38417" lon="-2.12046">
        <ele>53.4</ele>
        <time>2011-11-13T08:42:16Z</time>
      </trkpt>
      <trkpt lat="47.38421" lon="-2.12051">
        <ele>53.9</ele>
        <time>2011-11-13T08:42:17Z</time>
      </trkpt>
      <trkpt lat="47.38427" lon="-2.12055">
        <ele>54.5</ele>
        <time>2011-11-13T08:42:18Z</time>
      </trkpt>
      <trkpt lat="47.38434" lon="-2.12061">
        <ele>54.5</ele>
        <time>2011-11-13T08:42:20Z</time>
      </trkpt>
      <trkpt lat="47.38439" lon="-2.12068">
        <ele>54.1</ele>
        <time>2011-11-13T08:42:21Z</time>
      </trkpt>
      <trkpt lat="47.38444" lon="-2.12074">
        <ele>54.3</ele>
        <time>2011-11-13T08:42:22Z</time>
      </trkpt>
      <trkpt lat="47.38454" lon="-2.12082">
        <ele>54.2</ele>
        <time>2011-11-13T08:42:23Z</time>
      </trkpt>
      <trkpt lat="47.3846" lon="-2.12086">
        <ele>53.2</ele>
        <time>2011-11-13T08:42:24Z</time>
      </trkpt>
      <trkpt lat="47.38466" lon="-2.12091">
        <ele>53.6</ele>
        <time>2011-11-13T08:42:25Z</time>
      </trkpt>
      <trkpt lat="47.3847" lon="-2.12097">
        <ele>53.4</ele>
        <time>2011-11-13T08:42:26Z</time>
      </trkpt>
      <trkpt lat="47.38479" lon="-2.12106">
        <ele>53.6</ele>
        <time>2011-11-13T08:42:28Z</time>
      </trkpt>
      <trkpt lat="47.38484" lon="-2.1211">
        <ele>54</ele>
        <time>2011-11-13T08:42:29Z</time>
      </trkpt>
      <trkpt lat="47.38488" lon="-2.12113">
        <ele>54.3</ele>
        <time>2011-11-13T08:42:30Z</time>
      </trkpt>
      <trkpt lat="47.38497" lon="-2.12122">
        <ele>54</ele>
        <time>2011-11-13T08:42:32Z</time>
      </trkpt>
      <trkpt lat="47.38502" lon="-2.12128">
        <ele>54</ele>
        <time>2011-11-13T08:42:33Z</time>
      </trkpt>
      <trkpt lat="47.38513" lon="-2.12136">
        <ele>52.7</ele>
        <time>2011-11-13T08:42:34Z</time>
      </trkpt>
      <trkpt lat="47.38518" lon="-2.12142">
        <ele>51.9</ele>
        <time>2011-11-13T08:42:35Z</time>
      </trkpt>
      <trkpt lat="47.38526" lon="-2.12149">
        <ele>51.7</ele>
        <time>2011-11-13T08:42:37Z</time>
      </trkpt>
      <trkpt lat="47.3853" lon="-2.12154">
        <ele>52.2</ele>
        <time>2011-11-13T08:42:38Z</time>
      </trkpt>
      <trkpt lat="47.38536" lon="-2.12159">
        <ele>52.7</ele>
        <time>2011-11-13T08:42:39Z</time>
      </trkpt>
      <trkpt lat="47.38546" lon="-2.12168">
        <ele>52.9</ele>
        <time>2011-11-13T08:42:40Z</time>
      </trkpt>
      <trkpt lat="47.38551" lon="-2.12176">
        <ele>52.9</ele>
        <time>2011-11-13T08:42:41Z</time>
      </trkpt>
      <trkpt lat="47.38557" lon="-2.12184">
        <ele>52.1</ele>
        <time>2011-11-13T08:42:42Z</time>
      </trkpt>
      <trkpt lat="47.38564" lon="-2.12192">
        <ele>52.2</ele>
        <time>2011-11-13T08:42:44Z</time>
      </trkpt>
      <trkpt lat="47.38568" lon="-2.122">
        <ele>52.3</ele>
        <time>2011-11-13T08:42:45Z</time>
      </trkpt>
      <trkpt lat="47.38572" lon="-2.12205">
        <ele>52</ele>
        <time>2011-11-13T08:42:46Z</time>
      </trkpt>
      <trkpt lat="47.38577" lon="-2.12208">
        <ele>52.1</ele>
        <time>2011-11-13T08:42:47Z</time>
      </trkpt>
      <trkpt lat="47.38582" lon="-2.12212">
        <ele>52.3</ele>
        <time>2011-11-13T08:42:48Z</time>
      </trkpt>
      <trkpt lat="47.38588" lon="-2.12216">
        <ele>52.2</ele>
        <time>2011-11-13T08:42:49Z</time>
      </trkpt>
      <trkpt lat="47.386" lon="-2.12225">
        <ele>49.8</ele>
        <time>2011-11-13T08:42:50Z</time>
      </trkpt>
      <trkpt lat="47.38608" lon="-2.12233">
        <ele>50.1</ele>
        <time>2011-11-13T08:42:51Z</time>
      </trkpt>
      <trkpt lat="47.38613" lon="-2.12244">
        <ele>50.5</ele>
        <time>2011-11-13T08:42:52Z</time>
      </trkpt>
      <trkpt lat="47.3862" lon="-2.12251">
        <ele>50.7</ele>
        <time>2011-11-13T08:42:53Z</time>
      </trkpt>
      <trkpt lat="47.38626" lon="-2.12254">
        <ele>51.8</ele>
        <time>2011-11-13T08:42:54Z</time>
      </trkpt>
      <trkpt lat="47.38632" lon="-2.12259">
        <ele>52.3</ele>
        <time>2011-11-13T08:42:55Z</time>
      </trkpt>
      <trkpt lat="47.38641" lon="-2.12267">
        <ele>51.7</ele>
        <time>2011-11-13T08:42:57Z</time>
      </trkpt>
      <trkpt lat="47.38647" lon="-2.12274">
        <ele>50.8</ele>
        <time>2011-11-13T08:42:58Z</time>
      </trkpt>
      <trkpt lat="47.3866" lon="-2.12285">
        <ele>50.4</ele>
        <time>2011-11-13T08:42:59Z</time>
      </trkpt>
      <trkpt lat="47.38668" lon="-2.12291">
        <ele>50.6</ele>
        <time>2011-11-13T08:43:00Z</time>
      </trkpt>
      <trkpt lat="47.38676" lon="-2.12295">
        <ele>50.2</ele>
        <time>2011-11-13T08:43:01Z</time>
      </trkpt>
      <trkpt lat="47.38683" lon="-2.12297">
        <ele>51</ele>
        <time>2011-11-13T08:43:02Z</time>
      </trkpt>
      <trkpt lat="47.38692" lon="-2.12299">
        <ele>50.4</ele>
        <time>2011-11-13T08:43:04Z</time>
      </trkpt>
      <trkpt lat="47.38697" lon="-2.12301">
        <ele>50.1</ele>
        <time>2011-11-13T08:43:05Z</time>
      </trkpt>
      <trkpt lat="47.38708" lon="-2.123">
        <ele>50.2</ele>
        <time>2011-11-13T08:43:06Z</time>
      </trkpt>
      <trkpt lat="47.38713" lon="-2.123">
        <ele>49.9</ele>
        <time>2011-11-13T08:43:07Z</time>
      </trkpt>
      <trkpt lat="47.38719" lon="-2.12299">
        <ele>49.8</ele>
        <time>2011-11-13T08:43:08Z</time>
      </trkpt>
      <trkpt lat="47.38728" lon="-2.12297">
        <ele>50.3</ele>
        <time>2011-11-13T08:43:10Z</time>
      </trkpt>
      <trkpt lat="47.38734" lon="-2.12298">
        <ele>49.9</ele>
        <time>2011-11-13T08:43:11Z</time>
      </trkpt>
      <trkpt lat="47.38743" lon="-2.12295">
        <ele>51.1</ele>
        <time>2011-11-13T08:43:12Z</time>
      </trkpt>
      <trkpt lat="47.3875" lon="-2.12294">
        <ele>50.9</ele>
        <time>2011-11-13T08:43:13Z</time>
      </trkpt>
      <trkpt lat="47.38758" lon="-2.12293">
        <ele>51</ele>
        <time>2011-11-13T08:43:14Z</time>
      </trkpt>
      <trkpt lat="47.38763" lon="-2.12293">
        <ele>49.8</ele>
        <time>2011-11-13T08:43:15Z</time>
      </trkpt>
      <trkpt lat="47.38768" lon="-2.12292">
        <ele>50.4</ele>
        <time>2011-11-13T08:43:16Z</time>
      </trkpt>
      <trkpt lat="47.38777" lon="-2.12294">
        <ele>50.2</ele>
        <time>2011-11-13T08:43:17Z</time>
      </trkpt>
      <trkpt lat="47.38782" lon="-2.12295">
        <ele>49.8</ele>
        <time>2011-11-13T08:43:18Z</time>
      </trkpt>
      <trkpt lat="47.38787" lon="-2.12294">
        <ele>49.4</ele>
        <time>2011-11-13T08:43:19Z</time>
      </trkpt>
      <trkpt lat="47.38793" lon="-2.12295">
        <ele>49.4</ele>
        <time>2011-11-13T08:43:20Z</time>
      </trkpt>
      <trkpt lat="47.38804" lon="-2.12296">
        <ele>49.6</ele>
        <time>2011-11-13T08:43:22Z</time>
      </trkpt>
      <trkpt lat="47.3881" lon="-2.12299">
        <ele>49.2</ele>
        <time>2011-11-13T08:43:23Z</time>
      </trkpt>
      <trkpt lat="47.38818" lon="-2.12303">
        <ele>50</ele>
        <time>2011-11-13T08:43:24Z</time>
      </trkpt>
      <trkpt lat="47.38827" lon="-2.12307">
        <ele>50.5</ele>
        <time>2011-11-13T08:43:25Z</time>
      </trkpt>
      <trkpt lat="47.38835" lon="-2.1231">
        <ele>51</ele>
        <time>2011-11-13T08:43:26Z</time>
      </trkpt>
      <trkpt lat="47.38841" lon="-2.12315">
        <ele>49.7</ele>
        <time>2011-11-13T08:43:27Z</time>
      </trkpt>
      <trkpt lat="47.38848" lon="-2.12318">
        <ele>49.5</ele>
        <time>2011-11-13T08:43:28Z</time>
      </trkpt>
      <trkpt lat="47.38853" lon="-2.12318">
        <ele>49</ele>
        <time>2011-11-13T08:43:29Z</time>
      </trkpt>
      <trkpt lat="47.38863" lon="-2.12319">
        <ele>48.7</ele>
        <time>2011-11-13T08:43:31Z</time>
      </trkpt>
      <trkpt lat="47.3887" lon="-2.1232">
        <ele>49.6</ele>
        <time>2011-11-13T08:43:32Z</time>
      </trkpt>
      <trkpt lat="47.38874" lon="-2.12325">
        <ele>49.1</ele>
        <time>2011-11-13T08:43:33Z</time>
      </trkpt>
      <trkpt lat="47.38876" lon="-2.12332">
        <ele>48.8</ele>
        <time>2011-11-13T08:43:34Z</time>
      </trkpt>
      <trkpt lat="47.38878" lon="-2.12341">
        <ele>49.3</ele>
        <time>2011-11-13T08:43:36Z</time>
      </trkpt>
      <trkpt lat="47.3888" lon="-2.12351">
        <ele>48.9</ele>
        <time>2011-11-13T08:43:37Z</time>
      </trkpt>
      <trkpt lat="47.38882" lon="-2.12367">
        <ele>47.8</ele>
        <time>2011-11-13T08:43:38Z</time>
      </trkpt>
      <trkpt lat="47.38882" lon="-2.1238">
        <ele>47.7</ele>
        <time>2011-11-13T08:43:40Z</time>
      </trkpt>
      <trkpt lat="47.38879" lon="-2.1239">
        <ele>47.5</ele>
        <time>2011-11-13T08:43:41Z</time>
      </trkpt>
      <trkpt lat="47.38873" lon="-2.12401">
        <ele>50.2</ele>
        <time>2011-11-13T08:43:42Z</time>
      </trkpt>
      <trkpt lat="47.38866" lon="-2.12408">
        <ele>50.4</ele>
        <time>2011-11-13T08:43:43Z</time>
      </trkpt>
      <trkpt lat="47.38863" lon="-2.12416">
        <ele>50.9</ele>
        <time>2011-11-13T08:43:44Z</time>
      </trkpt>
      <trkpt lat="47.3886" lon="-2.12424">
        <ele>52.1</ele>
        <time>2011-11-13T08:43:45Z</time>
      </trkpt>
      <trkpt lat="47.38856" lon="-2.12433">
        <ele>52.3</ele>
        <time>2011-11-13T08:43:46Z</time>
      </trkpt>
      <trkpt lat="47.38851" lon="-2.12443">
        <ele>53.8</ele>
        <time>2011-11-13T08:43:47Z</time>
      </trkpt>
      <trkpt lat="47.38849" lon="-2.1245">
        <ele>54.3</ele>
        <time>2011-11-13T08:43:48Z</time>
      </trkpt>
      <trkpt lat="47.38845" lon="-2.12461">
        <ele>54.1</ele>
        <time>2011-11-13T08:43:49Z</time>
      </trkpt>
      <trkpt lat="47.38839" lon="-2.12471">
        <ele>52.3</ele>
        <time>2011-11-13T08:43:50Z</time>
      </trkpt>
      <trkpt lat="47.38838" lon="-2.12479">
        <ele>51.5</ele>
        <time>2011-11-13T08:43:51Z</time>
      </trkpt>
      <trkpt lat="47.38837" lon="-2.12489">
        <ele>52.4</ele>
        <time>2011-11-13T08:43:52Z</time>
      </trkpt>
      <trkpt lat="47.38837" lon="-2.12501">
        <ele>52.8</ele>
        <time>2011-11-13T08:43:54Z</time>
      </trkpt>
      <trkpt lat="47.3884" lon="-2.12516">
        <ele>52.4</ele>
        <time>2011-11-13T08:43:55Z</time>
      </trkpt>
      <trkpt lat="47.38844" lon="-2.12538">
        <ele>52.3</ele>
        <time>2011-11-13T08:43:57Z</time>
      </trkpt>
      <trkpt lat="47.38845" lon="-2.12546">
        <ele>52.1</ele>
        <time>2011-11-13T08:43:58Z</time>
      </trkpt>
      <trkpt lat="47.38852" lon="-2.12558">
        <ele>52.5</ele>
        <time>2011-11-13T08:44:00Z</time>
      </trkpt>
      <trkpt lat="47.38856" lon="-2.12566">
        <ele>52.9</ele>
        <time>2011-11-13T08:44:01Z</time>
      </trkpt>
      <trkpt lat="47.3886" lon="-2.12572">
        <ele>54</ele>
        <time>2011-11-13T08:44:02Z</time>
      </trkpt>
      <trkpt lat="47.38864" lon="-2.1258">
        <ele>54.3</ele>
        <time>2011-11-13T08:44:03Z</time>
      </trkpt>
      <trkpt lat="47.38872" lon="-2.12585">
        <ele>54.2</ele>
        <time>2011-11-13T08:44:04Z</time>
      </trkpt>
      <trkpt lat="47.38878" lon="-2.12586">
        <ele>54.4</ele>
        <time>2011-11-13T08:44:05Z</time>
      </trkpt>
      <trkpt lat="47.38887" lon="-2.12587">
        <ele>54.7</ele>
        <time>2011-11-13T08:44:06Z</time>
      </trkpt>
      <trkpt lat="47.38893" lon="-2.12588">
        <ele>54.1</ele>
        <time>2011-11-13T08:44:07Z</time>
      </trkpt>
      <trkpt lat="47.38909" lon="-2.12584">
        <ele>53.4</ele>
        <time>2011-11-13T08:44:10Z</time>
      </trkpt>
      <trkpt lat="47.38915" lon="-2.12584">
        <ele>53.3</ele>
        <time>2011-11-13T08:44:11Z</time>
      </trkpt>
      <trkpt lat="47.38925" lon="-2.12582">
        <ele>52.3</ele>
        <time>2011-11-13T08:44:12Z</time>
      </trkpt>
      <trkpt lat="47.38931" lon="-2.1258">
        <ele>51.9</ele>
        <time>2011-11-13T08:44:13Z</time>
      </trkpt>
      <trkpt lat="47.38935" lon="-2.12576">
        <ele>52.5</ele>
        <time>2011-11-13T08:44:14Z</time>
      </trkpt>
      <trkpt lat="47.38941" lon="-2.12574">
        <ele>52.2</ele>
        <time>2011-11-13T08:44:15Z</time>
      </trkpt>
      <trkpt lat="47.38947" lon="-2.12571">
        <ele>53.3</ele>
        <time>2011-11-13T08:44:16Z</time>
      </trkpt>
      <trkpt lat="47.38959" lon="-2.12566">
        <ele>53.1</ele>
        <time>2011-11-13T08:44:19Z</time>
      </trkpt>
      <trkpt lat="47.38966" lon="-2.12567">
        <ele>53.6</ele>
        <time>2011-11-13T08:44:21Z</time>
      </trkpt>
      <trkpt lat="47.38972" lon="-2.12567">
        <ele>53.8</ele>
        <time>2011-11-13T08:44:22Z</time>
      </trkpt>
      <trkpt lat="47.38978" lon="-2.12568">
        <ele>54.5</ele>
        <time>2011-11-13T08:44:23Z</time>
      </trkpt>
      <trkpt lat="47.38983" lon="-2.12568">
        <ele>54.7</ele>
        <time>2011-11-13T08:44:24Z</time>
      </trkpt>
      <trkpt lat="47.38987" lon="-2.12567">
        <ele>55.2</ele>
        <time>2011-11-13T08:44:25Z</time>
      </trkpt>
      <trkpt lat="47.38993" lon="-2.12566">
        <ele>55</ele>
        <time>2011-11-13T08:44:26Z</time>
      </trkpt>
      <trkpt lat="47.39001" lon="-2.1256">
        <ele>54.8</ele>
        <time>2011-11-13T08:44:27Z</time>
      </trkpt>
      <trkpt lat="47.39006" lon="-2.12559">
        <ele>53.6</ele>
        <time>2011-11-13T08:44:28Z</time>
      </trkpt>
      <trkpt lat="47.39015" lon="-2.12558">
        <ele>53.3</ele>
        <time>2011-11-13T08:44:31Z</time>
      </trkpt>
      <trkpt lat="47.39022" lon="-2.12557">
        <ele>52.1</ele>
        <time>2011-11-13T08:44:32Z</time>
      </trkpt>
      <trkpt lat="47.39031" lon="-2.12558">
        <ele>52</ele>
        <time>2011-11-13T08:44:34Z</time>
      </trkpt>
      <trkpt lat="47.39036" lon="-2.12558">
        <ele>51.8</ele>
        <time>2011-11-13T08:44:35Z</time>
      </trkpt>
      <trkpt lat="47.39045" lon="-2.12557">
        <ele>51.8</ele>
        <time>2011-11-13T08:44:37Z</time>
      </trkpt>
      <trkpt lat="47.3905" lon="-2.12557">
        <ele>51.9</ele>
        <time>2011-11-13T08:44:38Z</time>
      </trkpt>
      <trkpt lat="47.39062" lon="-2.12553">
        <ele>53.9</ele>
        <time>2011-11-13T08:44:40Z</time>
      </trkpt>
      <trkpt lat="47.39072" lon="-2.12548">
        <ele>54.8</ele>
        <time>2011-11-13T08:44:43Z</time>
      </trkpt>
      <trkpt lat="47.39077" lon="-2.12546">
        <ele>54.9</ele>
        <time>2011-11-13T08:44:44Z</time>
      </trkpt>
      <trkpt lat="47.39083" lon="-2.12546">
        <ele>55.3</ele>
        <time>2011-11-13T08:44:45Z</time>
      </trkpt>
      <trkpt lat="47.39088" lon="-2.12545">
        <ele>55.3</ele>
        <time>2011-11-13T08:44:46Z</time>
      </trkpt>
      <trkpt lat="47.39092" lon="-2.12543">
        <ele>55.8</ele>
        <time>2011-11-13T08:44:47Z</time>
      </trkpt>
      <trkpt lat="47.39097" lon="-2.12542">
        <ele>55.5</ele>
        <time>2011-11-13T08:44:48Z</time>
      </trkpt>
      <trkpt lat="47.39103" lon="-2.12541">
        <ele>55.3</ele>
        <time>2011-11-13T08:44:49Z</time>
      </trkpt>
      <trkpt lat="47.39108" lon="-2.1254">
        <ele>55.1</ele>
        <time>2011-11-13T08:44:50Z</time>
      </trkpt>
      <trkpt lat="47.39114" lon="-2.12539">
        <ele>54.9</ele>
        <time>2011-11-13T08:44:51Z</time>
      </trkpt>
      <trkpt lat="47.3912" lon="-2.12538">
        <ele>55</ele>
        <time>2011-11-13T08:44:52Z</time>
      </trkpt>
      <trkpt lat="47.39126" lon="-2.12538">
        <ele>54.6</ele>
        <time>2011-11-13T08:44:53Z</time>
      </trkpt>
      <trkpt lat="47.39132" lon="-2.12538">
        <ele>54.4</ele>
        <time>2011-11-13T08:44:54Z</time>
      </trkpt>
      <trkpt lat="47.39138" lon="-2.12537">
        <ele>54.1</ele>
        <time>2011-11-13T08:44:55Z</time>
      </trkpt>
      <trkpt lat="47.39148" lon="-2.12535">
        <ele>53.3</ele>
        <time>2011-11-13T08:44:57Z</time>
      </trkpt>
      <trkpt lat="47.39153" lon="-2.12532">
        <ele>53.3</ele>
        <time>2011-11-13T08:44:58Z</time>
      </trkpt>
      <trkpt lat="47.39159" lon="-2.12531">
        <ele>53.3</ele>
        <time>2011-11-13T08:44:59Z</time>
      </trkpt>
      <trkpt lat="47.3917" lon="-2.12527">
        <ele>53.9</ele>
        <time>2011-11-13T08:45:01Z</time>
      </trkpt>
      <trkpt lat="47.39175" lon="-2.12524">
        <ele>53.9</ele>
        <time>2011-11-13T08:45:02Z</time>
      </trkpt>
      <trkpt lat="47.39183" lon="-2.12522">
        <ele>53.6</ele>
        <time>2011-11-13T08:45:03Z</time>
      </trkpt>
      <trkpt lat="47.39186" lon="-2.12509">
        <ele>53.9</ele>
        <time>2011-11-13T08:45:04Z</time>
      </trkpt>
      <trkpt lat="47.39194" lon="-2.12502">
        <ele>53.5</ele>
        <time>2011-11-13T08:45:05Z</time>
      </trkpt>
      <trkpt lat="47.39197" lon="-2.12495">
        <ele>53.6</ele>
        <time>2011-11-13T08:45:06Z</time>
      </trkpt>
      <trkpt lat="47.39203" lon="-2.12491">
        <ele>53.6</ele>
        <time>2011-11-13T08:45:07Z</time>
      </trkpt>
      <trkpt lat="47.39212" lon="-2.12485">
        <ele>53.4</ele>
        <time>2011-11-13T08:45:09Z</time>
      </trkpt>
      <trkpt lat="47.39225" lon="-2.12475">
        <ele>53.8</ele>
        <time>2011-11-13T08:45:11Z</time>
      </trkpt>
      <trkpt lat="47.39231" lon="-2.12473">
        <ele>51.7</ele>
        <time>2011-11-13T08:45:12Z</time>
      </trkpt>
      <trkpt lat="47.3924" lon="-2.12467">
        <ele>51.1</ele>
        <time>2011-11-13T08:45:13Z</time>
      </trkpt>
      <trkpt lat="47.39248" lon="-2.12462">
        <ele>52</ele>
        <time>2011-11-13T08:45:14Z</time>
      </trkpt>
      <trkpt lat="47.39257" lon="-2.12458">
        <ele>52.3</ele>
        <time>2011-11-13T08:45:16Z</time>
      </trkpt>
      <trkpt lat="47.39265" lon="-2.12458">
        <ele>53.8</ele>
        <time>2011-11-13T08:45:17Z</time>
      </trkpt>
      <trkpt lat="47.39276" lon="-2.1246">
        <ele>53.2</ele>
        <time>2011-11-13T08:45:19Z</time>
      </trkpt>
      <trkpt lat="47.39286" lon="-2.12462">
        <ele>53.7</ele>
        <time>2011-11-13T08:45:21Z</time>
      </trkpt>
      <trkpt lat="47.39291" lon="-2.12465">
        <ele>53.1</ele>
        <time>2011-11-13T08:45:22Z</time>
      </trkpt>
      <trkpt lat="47.39295" lon="-2.12465">
        <ele>53.3</ele>
        <time>2011-11-13T08:45:23Z</time>
      </trkpt>
      <trkpt lat="47.39301" lon="-2.12465">
        <ele>53.1</ele>
        <time>2011-11-13T08:45:24Z</time>
      </trkpt>
      <trkpt lat="47.39311" lon="-2.12468">
        <ele>51.8</ele>
        <time>2011-11-13T08:45:25Z</time>
      </trkpt>
      <trkpt lat="47.3932" lon="-2.12467">
        <ele>53.1</ele>
        <time>2011-11-13T08:45:27Z</time>
      </trkpt>
      <trkpt lat="47.39326" lon="-2.12466">
        <ele>53.7</ele>
        <time>2011-11-13T08:45:28Z</time>
      </trkpt>
      <trkpt lat="47.39333" lon="-2.12466">
        <ele>53.2</ele>
        <time>2011-11-13T08:45:29Z</time>
      </trkpt>
      <trkpt lat="47.39339" lon="-2.12466">
        <ele>54.2</ele>
        <time>2011-11-13T08:45:30Z</time>
      </trkpt>
      <trkpt lat="47.39343" lon="-2.12467">
        <ele>55.1</ele>
        <time>2011-11-13T08:45:31Z</time>
      </trkpt>
      <trkpt lat="47.39349" lon="-2.1247">
        <ele>54.9</ele>
        <time>2011-11-13T08:45:32Z</time>
      </trkpt>
      <trkpt lat="47.39354" lon="-2.12472">
        <ele>55.8</ele>
        <time>2011-11-13T08:45:33Z</time>
      </trkpt>
      <trkpt lat="47.39359" lon="-2.12472">
        <ele>55.2</ele>
        <time>2011-11-13T08:45:34Z</time>
      </trkpt>
      <trkpt lat="47.39364" lon="-2.1247">
        <ele>55.5</ele>
        <time>2011-11-13T08:45:35Z</time>
      </trkpt>
      <trkpt lat="47.39372" lon="-2.12469">
        <ele>56.5</ele>
        <time>2011-11-13T08:45:36Z</time>
      </trkpt>
      <trkpt lat="47.39378" lon="-2.12468">
        <ele>56.6</ele>
        <time>2011-11-13T08:45:37Z</time>
      </trkpt>
      <trkpt lat="47.39382" lon="-2.12466">
        <ele>56.5</ele>
        <time>2011-11-13T08:45:38Z</time>
      </trkpt>
      <trkpt lat="47.39387" lon="-2.12466">
        <ele>58</ele>
        <time>2011-11-13T08:45:39Z</time>
      </trkpt>
      <trkpt lat="47.39392" lon="-2.12465">
        <ele>58.2</ele>
        <time>2011-11-13T08:45:40Z</time>
      </trkpt>
      <trkpt lat="47.39399" lon="-2.12467">
        <ele>57.8</ele>
        <time>2011-11-13T08:45:41Z</time>
      </trkpt>
      <trkpt lat="47.39404" lon="-2.12468">
        <ele>57.6</ele>
        <time>2011-11-13T08:45:42Z</time>
      </trkpt>
      <trkpt lat="47.39411" lon="-2.12468">
        <ele>57.5</ele>
        <time>2011-11-13T08:45:43Z</time>
      </trkpt>
      <trkpt lat="47.39418" lon="-2.12467">
        <ele>57.5</ele>
        <time>2011-11-13T08:45:44Z</time>
      </trkpt>
      <trkpt lat="47.39423" lon="-2.12466">
        <ele>59.3</ele>
        <time>2011-11-13T08:45:45Z</time>
      </trkpt>
      <trkpt lat="47.39433" lon="-2.12464">
        <ele>58.7</ele>
        <time>2011-11-13T08:45:47Z</time>
      </trkpt>
      <trkpt lat="47.39441" lon="-2.12463">
        <ele>57.5</ele>
        <time>2011-11-13T08:45:48Z</time>
      </trkpt>
      <trkpt lat="47.39452" lon="-2.12458">
        <ele>56.5</ele>
        <time>2011-11-13T08:45:49Z</time>
      </trkpt>
      <trkpt lat="47.3946" lon="-2.12458">
        <ele>56.4</ele>
        <time>2011-11-13T08:45:51Z</time>
      </trkpt>
      <trkpt lat="47.39464" lon="-2.12466">
        <ele>55</ele>
        <time>2011-11-13T08:45:52Z</time>
      </trkpt>
      <trkpt lat="47.39471" lon="-2.1247">
        <ele>54.6</ele>
        <time>2011-11-13T08:45:53Z</time>
      </trkpt>
      <trkpt lat="47.39479" lon="-2.12476">
        <ele>55.5</ele>
        <time>2011-11-13T08:45:54Z</time>
      </trkpt>
      <trkpt lat="47.39485" lon="-2.12478">
        <ele>56.8</ele>
        <time>2011-11-13T08:45:55Z</time>
      </trkpt>
      <trkpt lat="47.39491" lon="-2.12481">
        <ele>56.9</ele>
        <time>2011-11-13T08:45:56Z</time>
      </trkpt>
      <trkpt lat="47.39496" lon="-2.12481">
        <ele>57.9</ele>
        <time>2011-11-13T08:45:57Z</time>
      </trkpt>
      <trkpt lat="47.39502" lon="-2.12478">
        <ele>58.3</ele>
        <time>2011-11-13T08:45:58Z</time>
      </trkpt>
      <trkpt lat="47.3951" lon="-2.12478">
        <ele>59</ele>
        <time>2011-11-13T08:46:00Z</time>
      </trkpt>
      <trkpt lat="47.39519" lon="-2.12478">
        <ele>58.1</ele>
        <time>2011-11-13T08:46:01Z</time>
      </trkpt>
      <trkpt lat="47.39528" lon="-2.12477">
        <ele>59.9</ele>
        <time>2011-11-13T08:46:03Z</time>
      </trkpt>
      <trkpt lat="47.39533" lon="-2.12477">
        <ele>61</ele>
        <time>2011-11-13T08:46:04Z</time>
      </trkpt>
      <trkpt lat="47.39541" lon="-2.12475">
        <ele>61.9</ele>
        <time>2011-11-13T08:46:05Z</time>
      </trkpt>
      <trkpt lat="47.39548" lon="-2.12472">
        <ele>62</ele>
        <time>2011-11-13T08:46:07Z</time>
      </trkpt>
      <trkpt lat="47.39558" lon="-2.12473">
        <ele>60.9</ele>
        <time>2011-11-13T08:46:09Z</time>
      </trkpt>
      <trkpt lat="47.39564" lon="-2.12471">
        <ele>60.8</ele>
        <time>2011-11-13T08:46:10Z</time>
      </trkpt>
      <trkpt lat="47.39569" lon="-2.12469">
        <ele>60.7</ele>
        <time>2011-11-13T08:46:11Z</time>
      </trkpt>
      <trkpt lat="47.39574" lon="-2.12466">
        <ele>60.4</ele>
        <time>2011-11-13T08:46:12Z</time>
      </trkpt>
      <trkpt lat="47.3958" lon="-2.12462">
        <ele>60.5</ele>
        <time>2011-11-13T08:46:13Z</time>
      </trkpt>
      <trkpt lat="47.39585" lon="-2.12458">
        <ele>58.4</ele>
        <time>2011-11-13T08:46:14Z</time>
      </trkpt>
      <trkpt lat="47.39589" lon="-2.12455">
        <ele>57.2</ele>
        <time>2011-11-13T08:46:16Z</time>
      </trkpt>
      <trkpt lat="47.39594" lon="-2.12454">
        <ele>57</ele>
        <time>2011-11-13T08:46:17Z</time>
      </trkpt>
      <trkpt lat="47.39603" lon="-2.12447">
        <ele>56.2</ele>
        <time>2011-11-13T08:46:18Z</time>
      </trkpt>
      <trkpt lat="47.39609" lon="-2.12442">
        <ele>57</ele>
        <time>2011-11-13T08:46:20Z</time>
      </trkpt>
      <trkpt lat="47.39619" lon="-2.12436">
        <ele>57</ele>
        <time>2011-11-13T08:46:21Z</time>
      </trkpt>
      <trkpt lat="47.39625" lon="-2.12433">
        <ele>57.5</ele>
        <time>2011-11-13T08:46:22Z</time>
      </trkpt>
      <trkpt lat="47.39633" lon="-2.12432">
        <ele>57</ele>
        <time>2011-11-13T08:46:24Z</time>
      </trkpt>
      <trkpt lat="47.39641" lon="-2.12426">
        <ele>58.7</ele>
        <time>2011-11-13T08:46:26Z</time>
      </trkpt>
      <trkpt lat="47.39649" lon="-2.12423">
        <ele>59</ele>
        <time>2011-11-13T08:46:28Z</time>
      </trkpt>
      <trkpt lat="47.39647" lon="-2.12416">
        <ele>59</ele>
        <time>2011-11-13T08:46:29Z</time>
      </trkpt>
      <trkpt lat="47.3965" lon="-2.12411">
        <ele>56.9</ele>
        <time>2011-11-13T08:46:32Z</time>
      </trkpt>
      <trkpt lat="47.39649" lon="-2.12404">
        <ele>55.3</ele>
        <time>2011-11-13T08:46:33Z</time>
      </trkpt>
      <trkpt lat="47.39646" lon="-2.12394">
        <ele>54.4</ele>
        <time>2011-11-13T08:46:35Z</time>
      </trkpt>
      <trkpt lat="47.39643" lon="-2.12383">
        <ele>54.5</ele>
        <time>2011-11-13T08:46:37Z</time>
      </trkpt>
      <trkpt lat="47.39642" lon="-2.12376">
        <ele>54.5</ele>
        <time>2011-11-13T08:46:38Z</time>
      </trkpt>
      <trkpt lat="47.3964" lon="-2.1237">
        <ele>53.9</ele>
        <time>2011-11-13T08:46:39Z</time>
      </trkpt>
      <trkpt lat="47.39637" lon="-2.12358">
        <ele>53.5</ele>
        <time>2011-11-13T08:46:41Z</time>
      </trkpt>
      <trkpt lat="47.39636" lon="-2.1235">
        <ele>53.8</ele>
        <time>2011-11-13T08:46:42Z</time>
      </trkpt>
      <trkpt lat="47.39634" lon="-2.12343">
        <ele>53.6</ele>
        <time>2011-11-13T08:46:43Z</time>
      </trkpt>
      <trkpt lat="47.39632" lon="-2.12335">
        <ele>53.5</ele>
        <time>2011-11-13T08:46:44Z</time>
      </trkpt>
      <trkpt lat="47.3963" lon="-2.12328">
        <ele>54</ele>
        <time>2011-11-13T08:46:45Z</time>
      </trkpt>
      <trkpt lat="47.39629" lon="-2.1232">
        <ele>54.1</ele>
        <time>2011-11-13T08:46:46Z</time>
      </trkpt>
      <trkpt lat="47.39627" lon="-2.12312">
        <ele>54</ele>
        <time>2011-11-13T08:46:47Z</time>
      </trkpt>
      <trkpt lat="47.39624" lon="-2.12305">
        <ele>54</ele>
        <time>2011-11-13T08:46:48Z</time>
      </trkpt>
      <trkpt lat="47.39622" lon="-2.12297">
        <ele>54.3</ele>
        <time>2011-11-13T08:46:49Z</time>
      </trkpt>
      <trkpt lat="47.3962" lon="-2.1229">
        <ele>54.4</ele>
        <time>2011-11-13T08:46:50Z</time>
      </trkpt>
      <trkpt lat="47.39616" lon="-2.12282">
        <ele>54.1</ele>
        <time>2011-11-13T08:46:51Z</time>
      </trkpt>
      <trkpt lat="47.39613" lon="-2.12275">
        <ele>54</ele>
        <time>2011-11-13T08:46:52Z</time>
      </trkpt>
      <trkpt lat="47.3961" lon="-2.12267">
        <ele>54</ele>
        <time>2011-11-13T08:46:53Z</time>
      </trkpt>
      <trkpt lat="47.39606" lon="-2.1226">
        <ele>53.8</ele>
        <time>2011-11-13T08:46:54Z</time>
      </trkpt>
      <trkpt lat="47.39603" lon="-2.12252">
        <ele>54</ele>
        <time>2011-11-13T08:46:55Z</time>
      </trkpt>
      <trkpt lat="47.39599" lon="-2.12245">
        <ele>53.8</ele>
        <time>2011-11-13T08:46:56Z</time>
      </trkpt>
      <trkpt lat="47.39595" lon="-2.12239">
        <ele>54</ele>
        <time>2011-11-13T08:46:57Z</time>
      </trkpt>
      <trkpt lat="47.39591" lon="-2.12233">
        <ele>53.7</ele>
        <time>2011-11-13T08:46:58Z</time>
      </trkpt>
      <trkpt lat="47.39587" lon="-2.12227">
        <ele>53.7</ele>
        <time>2011-11-13T08:46:59Z</time>
      </trkpt>
      <trkpt lat="47.39583" lon="-2.12221">
        <ele>54.1</ele>
        <time>2011-11-13T08:47:00Z</time>
      </trkpt>
      <trkpt lat="47.3958" lon="-2.12216">
        <ele>54</ele>
        <time>2011-11-13T08:47:01Z</time>
      </trkpt>
      <trkpt lat="47.39577" lon="-2.1221">
        <ele>53.8</ele>
        <time>2011-11-13T08:47:02Z</time>
      </trkpt>
      <trkpt lat="47.39576" lon="-2.12197">
        <ele>52.7</ele>
        <time>2011-11-13T08:47:04Z</time>
      </trkpt>
      <trkpt lat="47.39578" lon="-2.12187">
        <ele>52.3</ele>
        <time>2011-11-13T08:47:06Z</time>
      </trkpt>
      <trkpt lat="47.39581" lon="-2.12178">
        <ele>52.3</ele>
        <time>2011-11-13T08:47:08Z</time>
      </trkpt>
      <trkpt lat="47.39584" lon="-2.12171">
        <ele>52.3</ele>
        <time>2011-11-13T08:47:10Z</time>
      </trkpt>
      <trkpt lat="47.3959" lon="-2.12166">
        <ele>52.2</ele>
        <time>2011-11-13T08:47:12Z</time>
      </trkpt>
      <trkpt lat="47.39593" lon="-2.12162">
        <ele>52.3</ele>
        <time>2011-11-13T08:47:14Z</time>
      </trkpt>
      <trkpt lat="47.39598" lon="-2.12157">
        <ele>51.9</ele>
        <time>2011-11-13T08:47:17Z</time>
      </trkpt>
      <trkpt lat="47.39598" lon="-2.12157">
        <ele>51.9</ele>
        <time>2011-11-13T08:47:17Z</time>
      </trkpt>
      <trkpt lat="47.39598" lon="-2.12157">
        <ele>51.9</ele>
        <time>2011-11-13T08:47:18Z</time>
      </trkpt>
      <trkpt lat="47.39606" lon="-2.12151">
        <ele>53.3</ele>
        <time>2011-11-13T08:47:22Z</time>
      </trkpt>
      <trkpt lat="47.39613" lon="-2.12149">
        <ele>55.8</ele>
        <time>2011-11-13T08:47:32Z</time>
      </trkpt>
      <trkpt lat="47.39611" lon="-2.12155">
        <ele>55.4</ele>
        <time>2011-11-13T08:49:04Z</time>
      </trkpt>
      <trkpt lat="47.39606" lon="-2.1216">
        <ele>56.7</ele>
        <time>2011-11-13T08:49:38Z</time>
      </trkpt>
      <trkpt lat="47.39604" lon="-2.12154">
        <ele>59.4</ele>
        <time>2011-11-13T08:57:39Z</time>
      </trkpt>
      <trkpt lat="47.39598" lon="-2.12153">
        <ele>60.5</ele>
        <time>2011-11-13T08:57:59Z</time>
      </trkpt>
      <trkpt lat="47.39604" lon="-2.12155">
        <ele>58.1</ele>
        <time>2011-11-13T08:59:34Z</time>
      </trkpt>
      <trkpt lat="47.39611" lon="-2.1215">
        <ele>59.4</ele>
        <time>2011-11-13T08:59:40Z</time>
      </trkpt>
      <trkpt lat="47.39618" lon="-2.12139">
        <ele>59.5</ele>
        <time>2011-11-13T08:59:44Z</time>
      </trkpt>
      <trkpt lat="47.39625" lon="-2.12134">
        <ele>61.1</ele>
        <time>2011-11-13T08:59:46Z</time>
      </trkpt>
      <trkpt lat="47.3963" lon="-2.12128">
        <ele>60.4</ele>
        <time>2011-11-13T08:59:48Z</time>
      </trkpt>
      <trkpt lat="47.39632" lon="-2.1212">
        <ele>60.3</ele>
        <time>2011-11-13T08:59:50Z</time>
      </trkpt>
      <trkpt lat="47.39637" lon="-2.12112">
        <ele>60.9</ele>
        <time>2011-11-13T08:59:54Z</time>
      </trkpt>
      <trkpt lat="47.39641" lon="-2.12115">
        <ele>62.2</ele>
        <time>2011-11-13T08:59:56Z</time>
      </trkpt>
      <trkpt lat="47.39645" lon="-2.12121">
        <ele>63.6</ele>
        <time>2011-11-13T08:59:58Z</time>
      </trkpt>
      <trkpt lat="47.39649" lon="-2.12128">
        <ele>64.4</ele>
        <time>2011-11-13T09:00:00Z</time>
      </trkpt>
      <trkpt lat="47.39657" lon="-2.12135">
        <ele>63.3</ele>
        <time>2011-11-13T09:00:02Z</time>
      </trkpt>
      <trkpt lat="47.39658" lon="-2.12149">
        <ele>61.8</ele>
        <time>2011-11-13T09:00:04Z</time>
      </trkpt>
      <trkpt lat="47.39662" lon="-2.1216">
        <ele>59.7</ele>
        <time>2011-11-13T09:00:06Z</time>
      </trkpt>
      <trkpt lat="47.39665" lon="-2.1217">
        <ele>59</ele>
        <time>2011-11-13T09:00:08Z</time>
      </trkpt>
      <trkpt lat="47.39674" lon="-2.12155">
        <ele>61.4</ele>
        <time>2011-11-13T09:00:12Z</time>
      </trkpt>
      <trkpt lat="47.3968" lon="-2.12151">
        <ele>61.9</ele>
        <time>2011-11-13T09:00:14Z</time>
      </trkpt>
      <trkpt lat="47.39685" lon="-2.12149">
        <ele>62</ele>
        <time>2011-11-13T09:00:16Z</time>
      </trkpt>
      <trkpt lat="47.39692" lon="-2.12145">
        <ele>62.3</ele>
        <time>2011-11-13T09:00:18Z</time>
      </trkpt>
      <trkpt lat="47.397" lon="-2.12143">
        <ele>64.5</ele>
        <time>2011-11-13T09:00:22Z</time>
      </trkpt>
      <trkpt lat="47.39706" lon="-2.12139">
        <ele>65.4</ele>
        <time>2011-11-13T09:00:24Z</time>
      </trkpt>
      <trkpt lat="47.39711" lon="-2.12138">
        <ele>66.6</ele>
        <time>2011-11-13T09:00:26Z</time>
      </trkpt>
      <trkpt lat="47.39717" lon="-2.12137">
        <ele>66.9</ele>
        <time>2011-11-13T09:00:28Z</time>
      </trkpt>
      <trkpt lat="47.39723" lon="-2.12137">
        <ele>67.5</ele>
        <time>2011-11-13T09:00:30Z</time>
      </trkpt>
      <trkpt lat="47.39731" lon="-2.12133">
        <ele>70.2</ele>
        <time>2011-11-13T09:00:32Z</time>
      </trkpt>
      <trkpt lat="47.39738" lon="-2.12128">
        <ele>71.8</ele>
        <time>2011-11-13T09:00:34Z</time>
      </trkpt>
      <trkpt lat="47.39744" lon="-2.12131">
        <ele>72.4</ele>
        <time>2011-11-13T09:00:38Z</time>
      </trkpt>
      <trkpt lat="47.39749" lon="-2.12127">
        <ele>72.6</ele>
        <time>2011-11-13T09:00:40Z</time>
      </trkpt>
      <trkpt lat="47.39758" lon="-2.12122">
        <ele>72.8</ele>
        <time>2011-11-13T09:00:42Z</time>
      </trkpt>
      <trkpt lat="47.39765" lon="-2.1212">
        <ele>72.9</ele>
        <time>2011-11-13T09:00:44Z</time>
      </trkpt>
      <trkpt lat="47.39775" lon="-2.12116">
        <ele>73.2</ele>
        <time>2011-11-13T09:00:46Z</time>
      </trkpt>
      <trkpt lat="47.39781" lon="-2.12117">
        <ele>72.4</ele>
        <time>2011-11-13T09:00:48Z</time>
      </trkpt>
      <trkpt lat="47.39784" lon="-2.12111">
        <ele>73.9</ele>
        <time>2011-11-13T09:00:49Z</time>
      </trkpt>
      <trkpt lat="47.39788" lon="-2.12105">
        <ele>72.1</ele>
        <time>2011-11-13T09:00:51Z</time>
      </trkpt>
      <trkpt lat="47.39786" lon="-2.12098">
        <ele>71.4</ele>
        <time>2011-11-13T09:00:53Z</time>
      </trkpt>
      <trkpt lat="47.39782" lon="-2.12106">
        <ele>74.5</ele>
        <time>2011-11-13T09:00:54Z</time>
      </trkpt>
      <trkpt lat="47.39775" lon="-2.12115">
        <ele>76.7</ele>
        <time>2011-11-13T09:00:58Z</time>
      </trkpt>
      <trkpt lat="47.39768" lon="-2.12114">
        <ele>75.8</ele>
        <time>2011-11-13T09:00:59Z</time>
      </trkpt>
      <trkpt lat="47.39763" lon="-2.12118">
        <ele>76.6</ele>
        <time>2011-11-13T09:01:00Z</time>
      </trkpt>
      <trkpt lat="47.39759" lon="-2.12125">
        <ele>76.2</ele>
        <time>2011-11-13T09:01:01Z</time>
      </trkpt>
      <trkpt lat="47.39754" lon="-2.12128">
        <ele>75.8</ele>
        <time>2011-11-13T09:01:03Z</time>
      </trkpt>
      <trkpt lat="47.39747" lon="-2.1213">
        <ele>73.6</ele>
        <time>2011-11-13T09:01:06Z</time>
      </trkpt>
      <trkpt lat="47.39744" lon="-2.12125">
        <ele>75</ele>
        <time>2011-11-13T09:01:08Z</time>
      </trkpt>
      <trkpt lat="47.39738" lon="-2.1212">
        <ele>73.3</ele>
        <time>2011-11-13T09:01:09Z</time>
      </trkpt>
      <trkpt lat="47.39738" lon="-2.12111">
        <ele>70.8</ele>
        <time>2011-11-13T09:01:13Z</time>
      </trkpt>
      <trkpt lat="47.39745" lon="-2.12098">
        <ele>70.5</ele>
        <time>2011-11-13T09:01:17Z</time>
      </trkpt>
      <trkpt lat="47.3975" lon="-2.12093">
        <ele>70.2</ele>
        <time>2011-11-13T09:01:19Z</time>
      </trkpt>
      <trkpt lat="47.39758" lon="-2.12089">
        <ele>71.4</ele>
        <time>2011-11-13T09:01:20Z</time>
      </trkpt>
      <trkpt lat="47.39764" lon="-2.12088">
        <ele>70.6</ele>
        <time>2011-11-13T09:01:22Z</time>
      </trkpt>
      <trkpt lat="47.3977" lon="-2.12087">
        <ele>69.2</ele>
        <time>2011-11-13T09:01:24Z</time>
      </trkpt>
      <trkpt lat="47.39775" lon="-2.12092">
        <ele>66.6</ele>
        <time>2011-11-13T09:01:28Z</time>
      </trkpt>
      <trkpt lat="47.3978" lon="-2.12092">
        <ele>65.3</ele>
        <time>2011-11-13T09:01:29Z</time>
      </trkpt>
      <trkpt lat="47.39773" lon="-2.12086">
        <ele>68.7</ele>
        <time>2011-11-13T09:01:36Z</time>
      </trkpt>
      <trkpt lat="47.39773" lon="-2.12079">
        <ele>69.5</ele>
        <time>2011-11-13T09:01:37Z</time>
      </trkpt>
      <trkpt lat="47.39768" lon="-2.12067">
        <ele>69</ele>
        <time>2011-11-13T09:01:40Z</time>
      </trkpt>
      <trkpt lat="47.39769" lon="-2.12056">
        <ele>69.4</ele>
        <time>2011-11-13T09:01:44Z</time>
      </trkpt>
      <trkpt lat="47.39773" lon="-2.12051">
        <ele>69.2</ele>
        <time>2011-11-13T09:01:46Z</time>
      </trkpt>
      <trkpt lat="47.39778" lon="-2.12037">
        <ele>65.4</ele>
        <time>2011-11-13T09:01:53Z</time>
      </trkpt>
      <trkpt lat="47.39783" lon="-2.12036">
        <ele>63.8</ele>
        <time>2011-11-13T09:01:55Z</time>
      </trkpt>
      <trkpt lat="47.39789" lon="-2.12038">
        <ele>63.9</ele>
        <time>2011-11-13T09:01:57Z</time>
      </trkpt>
      <trkpt lat="47.3979" lon="-2.12047">
        <ele>62.4</ele>
        <time>2011-11-13T09:02:00Z</time>
      </trkpt>
      <trkpt lat="47.39792" lon="-2.12055">
        <ele>61</ele>
        <time>2011-11-13T09:02:01Z</time>
      </trkpt>
      <trkpt lat="47.39787" lon="-2.12061">
        <ele>60.8</ele>
        <time>2011-11-13T09:02:04Z</time>
      </trkpt>
      <trkpt lat="47.39783" lon="-2.12065">
        <ele>61.5</ele>
        <time>2011-11-13T09:02:06Z</time>
      </trkpt>
      <trkpt lat="47.39778" lon="-2.12066">
        <ele>62.3</ele>
        <time>2011-11-13T09:02:09Z</time>
      </trkpt>
      <trkpt lat="47.39785" lon="-2.12063">
        <ele>67.1</ele>
        <time>2011-11-13T09:02:13Z</time>
      </trkpt>
      <trkpt lat="47.39794" lon="-2.12066">
        <ele>70</ele>
        <time>2011-11-13T09:02:16Z</time>
      </trkpt>
      <trkpt lat="47.39799" lon="-2.12073">
        <ele>71.1</ele>
        <time>2011-11-13T09:02:19Z</time>
      </trkpt>
      <trkpt lat="47.39804" lon="-2.12075">
        <ele>72</ele>
        <time>2011-11-13T09:02:21Z</time>
      </trkpt>
      <trkpt lat="47.39811" lon="-2.12078">
        <ele>71.5</ele>
        <time>2011-11-13T09:02:23Z</time>
      </trkpt>
      <trkpt lat="47.39814" lon="-2.12085">
        <ele>71.5</ele>
        <time>2011-11-13T09:02:25Z</time>
      </trkpt>
      <trkpt lat="47.39812" lon="-2.12096">
        <ele>71.5</ele>
        <time>2011-11-13T09:02:28Z</time>
      </trkpt>
      <trkpt lat="47.39818" lon="-2.12095">
        <ele>72.8</ele>
        <time>2011-11-13T09:02:30Z</time>
      </trkpt>
      <trkpt lat="47.39824" lon="-2.12093">
        <ele>73.1</ele>
        <time>2011-11-13T09:02:31Z</time>
      </trkpt>
      <trkpt lat="47.3983" lon="-2.12092">
        <ele>70.5</ele>
        <time>2011-11-13T09:02:34Z</time>
      </trkpt>
      <trkpt lat="47.39838" lon="-2.12093">
        <ele>66.7</ele>
        <time>2011-11-13T09:02:36Z</time>
      </trkpt>
      <trkpt lat="47.39842" lon="-2.12091">
        <ele>64.3</ele>
        <time>2011-11-13T09:02:38Z</time>
      </trkpt>
      <trkpt lat="47.39844" lon="-2.12078">
        <ele>60.8</ele>
        <time>2011-11-13T09:02:42Z</time>
      </trkpt>
      <trkpt lat="47.3984" lon="-2.12072">
        <ele>62.3</ele>
        <time>2011-11-13T09:02:46Z</time>
      </trkpt>
      <trkpt lat="47.39834" lon="-2.12066">
        <ele>61.5</ele>
        <time>2011-11-13T09:02:50Z</time>
      </trkpt>
      <trkpt lat="47.39832" lon="-2.12059">
        <ele>61.1</ele>
        <time>2011-11-13T09:02:53Z</time>
      </trkpt>
      <trkpt lat="47.39826" lon="-2.12057">
        <ele>61</ele>
        <time>2011-11-13T09:02:55Z</time>
      </trkpt>
      <trkpt lat="47.39818" lon="-2.12044">
        <ele>60.3</ele>
        <time>2011-11-13T09:02:59Z</time>
      </trkpt>
      <trkpt lat="47.39817" lon="-2.12028">
        <ele>58.9</ele>
        <time>2011-11-13T09:03:01Z</time>
      </trkpt>
      <trkpt lat="47.39814" lon="-2.12017">
        <ele>59.7</ele>
        <time>2011-11-13T09:03:03Z</time>
      </trkpt>
      <trkpt lat="47.39813" lon="-2.12008">
        <ele>60.3</ele>
        <time>2011-11-13T09:03:05Z</time>
      </trkpt>
      <trkpt lat="47.39811" lon="-2.12">
        <ele>60.8</ele>
        <time>2011-11-13T09:03:09Z</time>
      </trkpt>
      <trkpt lat="47.39808" lon="-2.11994">
        <ele>61.8</ele>
        <time>2011-11-13T09:03:13Z</time>
      </trkpt>
      <trkpt lat="47.398" lon="-2.11992">
        <ele>61.9</ele>
        <time>2011-11-13T09:03:17Z</time>
      </trkpt>
      <trkpt lat="47.39794" lon="-2.1199">
        <ele>62</ele>
        <time>2011-11-13T09:03:19Z</time>
      </trkpt>
      <trkpt lat="47.39792" lon="-2.11982">
        <ele>61.3</ele>
        <time>2011-11-13T09:03:21Z</time>
      </trkpt>
      <trkpt lat="47.39792" lon="-2.11971">
        <ele>61.2</ele>
        <time>2011-11-13T09:03:23Z</time>
      </trkpt>
      <trkpt lat="47.39792" lon="-2.11959">
        <ele>60.6</ele>
        <time>2011-11-13T09:03:25Z</time>
      </trkpt>
      <trkpt lat="47.39792" lon="-2.11948">
        <ele>60.5</ele>
        <time>2011-11-13T09:03:27Z</time>
      </trkpt>
      <trkpt lat="47.39791" lon="-2.11937">
        <ele>61.9</ele>
        <time>2011-11-13T09:03:29Z</time>
      </trkpt>
      <trkpt lat="47.39787" lon="-2.1193">
        <ele>63.7</ele>
        <time>2011-11-13T09:03:31Z</time>
      </trkpt>
      <trkpt lat="47.3978" lon="-2.11938">
        <ele>63.8</ele>
        <time>2011-11-13T09:03:33Z</time>
      </trkpt>
      <trkpt lat="47.39774" lon="-2.11943">
        <ele>64</ele>
        <time>2011-11-13T09:03:37Z</time>
      </trkpt>
      <trkpt lat="47.39776" lon="-2.11954">
        <ele>63.5</ele>
        <time>2011-11-13T09:03:39Z</time>
      </trkpt>
      <trkpt lat="47.39777" lon="-2.11961">
        <ele>64.1</ele>
        <time>2011-11-13T09:03:41Z</time>
      </trkpt>
      <trkpt lat="47.39778" lon="-2.11968">
        <ele>63.5</ele>
        <time>2011-11-13T09:03:43Z</time>
      </trkpt>
      <trkpt lat="47.39778" lon="-2.11977">
        <ele>63.7</ele>
        <time>2011-11-13T09:03:45Z</time>
      </trkpt>
      <trkpt lat="47.39779" lon="-2.11984">
        <ele>63.5</ele>
        <time>2011-11-13T09:03:47Z</time>
      </trkpt>
      <trkpt lat="47.39784" lon="-2.1199">
        <ele>63.4</ele>
        <time>2011-11-13T09:03:51Z</time>
      </trkpt>
      <trkpt lat="47.39784" lon="-2.11999">
        <ele>61.9</ele>
        <time>2011-11-13T09:03:53Z</time>
      </trkpt>
      <trkpt lat="47.39784" lon="-2.12007">
        <ele>61.6</ele>
        <time>2011-11-13T09:03:55Z</time>
      </trkpt>
      <trkpt lat="47.39784" lon="-2.12019">
        <ele>63.1</ele>
        <time>2011-11-13T09:03:59Z</time>
      </trkpt>
      <trkpt lat="47.39779" lon="-2.1203">
        <ele>64.4</ele>
        <time>2011-11-13T09:04:03Z</time>
      </trkpt>
      <trkpt lat="47.39774" lon="-2.12035">
        <ele>64.6</ele>
        <time>2011-11-13T09:04:05Z</time>
      </trkpt>
      <trkpt lat="47.39771" lon="-2.1204">
        <ele>64.2</ele>
        <time>2011-11-13T09:04:07Z</time>
      </trkpt>
      <trkpt lat="47.39768" lon="-2.12048">
        <ele>63.8</ele>
        <time>2011-11-13T09:04:09Z</time>
      </trkpt>
      <trkpt lat="47.39765" lon="-2.12054">
        <ele>63.3</ele>
        <time>2011-11-13T09:04:11Z</time>
      </trkpt>
      <trkpt lat="47.39763" lon="-2.12062">
        <ele>65.6</ele>
        <time>2011-11-13T09:04:15Z</time>
      </trkpt>
      <trkpt lat="47.39759" lon="-2.12067">
        <ele>67.6</ele>
        <time>2011-11-13T09:04:19Z</time>
      </trkpt>
      <trkpt lat="47.39756" lon="-2.12075">
        <ele>67.9</ele>
        <time>2011-11-13T09:04:23Z</time>
      </trkpt>
      <trkpt lat="47.39751" lon="-2.12079">
        <ele>67.2</ele>
        <time>2011-11-13T09:04:25Z</time>
      </trkpt>
      <trkpt lat="47.39743" lon="-2.1208">
        <ele>67.8</ele>
        <time>2011-11-13T09:04:27Z</time>
      </trkpt>
      <trkpt lat="47.3974" lon="-2.12069">
        <ele>71.3</ele>
        <time>2011-11-13T09:04:33Z</time>
      </trkpt>
      <trkpt lat="47.3974" lon="-2.12062">
        <ele>71.8</ele>
        <time>2011-11-13T09:04:35Z</time>
      </trkpt>
      <trkpt lat="47.39739" lon="-2.12056">
        <ele>72.1</ele>
        <time>2011-11-13T09:04:37Z</time>
      </trkpt>
      <trkpt lat="47.39738" lon="-2.12047">
        <ele>70</ele>
        <time>2011-11-13T09:04:39Z</time>
      </trkpt>
      <trkpt lat="47.39739" lon="-2.1204">
        <ele>69.3</ele>
        <time>2011-11-13T09:04:41Z</time>
      </trkpt>
      <trkpt lat="47.39745" lon="-2.12034">
        <ele>68.7</ele>
        <time>2011-11-13T09:04:43Z</time>
      </trkpt>
      <trkpt lat="47.3975" lon="-2.12029">
        <ele>68.3</ele>
        <time>2011-11-13T09:04:45Z</time>
      </trkpt>
      <trkpt lat="47.39754" lon="-2.12024">
        <ele>67.8</ele>
        <time>2011-11-13T09:04:47Z</time>
      </trkpt>
      <trkpt lat="47.3976" lon="-2.12018">
        <ele>69.8</ele>
        <time>2011-11-13T09:04:49Z</time>
      </trkpt>
      <trkpt lat="47.39766" lon="-2.12016">
        <ele>68.8</ele>
        <time>2011-11-13T09:04:51Z</time>
      </trkpt>
      <trkpt lat="47.39764" lon="-2.12008">
        <ele>68.9</ele>
        <time>2011-11-13T09:04:55Z</time>
      </trkpt>
      <trkpt lat="47.39758" lon="-2.12005">
        <ele>68.8</ele>
        <time>2011-11-13T09:04:57Z</time>
      </trkpt>
      <trkpt lat="47.39753" lon="-2.12003">
        <ele>68.5</ele>
        <time>2011-11-13T09:04:59Z</time>
      </trkpt>
      <trkpt lat="47.3975" lon="-2.11997">
        <ele>66.9</ele>
        <time>2011-11-13T09:05:01Z</time>
      </trkpt>
      <trkpt lat="47.39746" lon="-2.11994">
        <ele>64.3</ele>
        <time>2011-11-13T09:05:05Z</time>
      </trkpt>
      <trkpt lat="47.39742" lon="-2.11998">
        <ele>64.5</ele>
        <time>2011-11-13T09:05:09Z</time>
      </trkpt>
      <trkpt lat="47.39739" lon="-2.12003">
        <ele>63.3</ele>
        <time>2011-11-13T09:05:11Z</time>
      </trkpt>
      <trkpt lat="47.39738" lon="-2.12018">
        <ele>63.4</ele>
        <time>2011-11-13T09:05:15Z</time>
      </trkpt>
      <trkpt lat="47.3974" lon="-2.12026">
        <ele>63.6</ele>
        <time>2011-11-13T09:05:17Z</time>
      </trkpt>
      <trkpt lat="47.3974" lon="-2.12036">
        <ele>63.2</ele>
        <time>2011-11-13T09:05:19Z</time>
      </trkpt>
      <trkpt lat="47.39738" lon="-2.12044">
        <ele>63.2</ele>
        <time>2011-11-13T09:05:20Z</time>
      </trkpt>
      <trkpt lat="47.39732" lon="-2.12049">
        <ele>63.9</ele>
        <time>2011-11-13T09:05:24Z</time>
      </trkpt>
      <trkpt lat="47.39731" lon="-2.12057">
        <ele>63.8</ele>
        <time>2011-11-13T09:05:25Z</time>
      </trkpt>
      <trkpt lat="47.39726" lon="-2.12061">
        <ele>64.4</ele>
        <time>2011-11-13T09:05:27Z</time>
      </trkpt>
      <trkpt lat="47.39721" lon="-2.12063">
        <ele>64.5</ele>
        <time>2011-11-13T09:05:31Z</time>
      </trkpt>
      <trkpt lat="47.39727" lon="-2.12057">
        <ele>65.3</ele>
        <time>2011-11-13T09:05:37Z</time>
      </trkpt>
      <trkpt lat="47.39729" lon="-2.12064">
        <ele>69.1</ele>
        <time>2011-11-13T09:05:40Z</time>
      </trkpt>
      <trkpt lat="47.39733" lon="-2.12076">
        <ele>68.8</ele>
        <time>2011-11-13T09:05:42Z</time>
      </trkpt>
      <trkpt lat="47.39734" lon="-2.12084">
        <ele>67.9</ele>
        <time>2011-11-13T09:05:43Z</time>
      </trkpt>
      <trkpt lat="47.39731" lon="-2.1209">
        <ele>69.3</ele>
        <time>2011-11-13T09:05:46Z</time>
      </trkpt>
      <trkpt lat="47.39726" lon="-2.12097">
        <ele>68.8</ele>
        <time>2011-11-13T09:05:48Z</time>
      </trkpt>
      <trkpt lat="47.3972" lon="-2.12101">
        <ele>69.7</ele>
        <time>2011-11-13T09:05:52Z</time>
      </trkpt>
      <trkpt lat="47.39714" lon="-2.12103">
        <ele>69.6</ele>
        <time>2011-11-13T09:05:54Z</time>
      </trkpt>
      <trkpt lat="47.39709" lon="-2.12103">
        <ele>71.7</ele>
        <time>2011-11-13T09:05:56Z</time>
      </trkpt>
      <trkpt lat="47.39703" lon="-2.12106">
        <ele>70.4</ele>
        <time>2011-11-13T09:05:58Z</time>
      </trkpt>
      <trkpt lat="47.39697" lon="-2.12111">
        <ele>69.2</ele>
        <time>2011-11-13T09:06:00Z</time>
      </trkpt>
      <trkpt lat="47.39691" lon="-2.12108">
        <ele>65.3</ele>
        <time>2011-11-13T09:06:05Z</time>
      </trkpt>
      <trkpt lat="47.39688" lon="-2.12112">
        <ele>63.5</ele>
        <time>2011-11-13T09:06:10Z</time>
      </trkpt>
      <trkpt lat="47.39693" lon="-2.12111">
        <ele>64.6</ele>
        <time>2011-11-13T09:06:16Z</time>
      </trkpt>
      <trkpt lat="47.39698" lon="-2.1211">
        <ele>65</ele>
        <time>2011-11-13T09:06:18Z</time>
      </trkpt>
      <trkpt lat="47.39705" lon="-2.12108">
        <ele>67.3</ele>
        <time>2011-11-13T09:06:20Z</time>
      </trkpt>
      <trkpt lat="47.39713" lon="-2.12109">
        <ele>68.8</ele>
        <time>2011-11-13T09:06:22Z</time>
      </trkpt>
      <trkpt lat="47.39718" lon="-2.12108">
        <ele>68.8</ele>
        <time>2011-11-13T09:06:24Z</time>
      </trkpt>
      <trkpt lat="47.39725" lon="-2.12108">
        <ele>69.7</ele>
        <time>2011-11-13T09:06:25Z</time>
      </trkpt>
      <trkpt lat="47.39726" lon="-2.12116">
        <ele>68</ele>
        <time>2011-11-13T09:06:27Z</time>
      </trkpt>
      <trkpt lat="47.39723" lon="-2.12124">
        <ele>66.6</ele>
        <time>2011-11-13T09:06:30Z</time>
      </trkpt>
      <trkpt lat="47.39718" lon="-2.12129">
        <ele>68.1</ele>
        <time>2011-11-13T09:06:32Z</time>
      </trkpt>
      <trkpt lat="47.39713" lon="-2.12133">
        <ele>67.8</ele>
        <time>2011-11-13T09:06:35Z</time>
      </trkpt>
      <trkpt lat="47.39707" lon="-2.12132">
        <ele>68.6</ele>
        <time>2011-11-13T09:06:37Z</time>
      </trkpt>
      <trkpt lat="47.39697" lon="-2.12134">
        <ele>67.9</ele>
        <time>2011-11-13T09:06:39Z</time>
      </trkpt>
      <trkpt lat="47.39688" lon="-2.12139">
        <ele>67.2</ele>
        <time>2011-11-13T09:06:41Z</time>
      </trkpt>
      <trkpt lat="47.39682" lon="-2.12137">
        <ele>67.7</ele>
        <time>2011-11-13T09:06:42Z</time>
      </trkpt>
      <trkpt lat="47.39675" lon="-2.12132">
        <ele>69</ele>
        <time>2011-11-13T09:06:45Z</time>
      </trkpt>
      <trkpt lat="47.39669" lon="-2.1213">
        <ele>69.9</ele>
        <time>2011-11-13T09:06:47Z</time>
      </trkpt>
      <trkpt lat="47.39664" lon="-2.12128">
        <ele>68.5</ele>
        <time>2011-11-13T09:06:48Z</time>
      </trkpt>
      <trkpt lat="47.39659" lon="-2.12122">
        <ele>66.3</ele>
        <time>2011-11-13T09:06:50Z</time>
      </trkpt>
      <trkpt lat="47.39655" lon="-2.12111">
        <ele>65.3</ele>
        <time>2011-11-13T09:06:52Z</time>
      </trkpt>
      <trkpt lat="47.39653" lon="-2.12104">
        <ele>64</ele>
        <time>2011-11-13T09:06:54Z</time>
      </trkpt>
      <trkpt lat="47.39653" lon="-2.12097">
        <ele>64.6</ele>
        <time>2011-11-13T09:06:57Z</time>
      </trkpt>
      <trkpt lat="47.39667" lon="-2.12084">
        <ele>66.9</ele>
        <time>2011-11-13T09:07:00Z</time>
      </trkpt>
      <trkpt lat="47.39671" lon="-2.12079">
        <ele>66.9</ele>
        <time>2011-11-13T09:07:01Z</time>
      </trkpt>
      <trkpt lat="47.39673" lon="-2.1207">
        <ele>65.2</ele>
        <time>2011-11-13T09:07:04Z</time>
      </trkpt>
      <trkpt lat="47.3968" lon="-2.12066">
        <ele>66.4</ele>
        <time>2011-11-13T09:07:06Z</time>
      </trkpt>
      <trkpt lat="47.39686" lon="-2.12065">
        <ele>67.8</ele>
        <time>2011-11-13T09:07:08Z</time>
      </trkpt>
      <trkpt lat="47.39692" lon="-2.1207">
        <ele>67.5</ele>
        <time>2011-11-13T09:07:10Z</time>
      </trkpt>
      <trkpt lat="47.39697" lon="-2.12071">
        <ele>68.9</ele>
        <time>2011-11-13T09:07:12Z</time>
      </trkpt>
      <trkpt lat="47.39703" lon="-2.12074">
        <ele>67.2</ele>
        <time>2011-11-13T09:07:14Z</time>
      </trkpt>
      <trkpt lat="47.39708" lon="-2.12075">
        <ele>66.7</ele>
        <time>2011-11-13T09:07:21Z</time>
      </trkpt>
      <trkpt lat="47.39705" lon="-2.12066">
        <ele>67.6</ele>
        <time>2011-11-13T09:07:27Z</time>
      </trkpt>
      <trkpt lat="47.39704" lon="-2.12058">
        <ele>68.3</ele>
        <time>2011-11-13T09:07:28Z</time>
      </trkpt>
      <trkpt lat="47.397" lon="-2.12063">
        <ele>69.1</ele>
        <time>2011-11-13T09:07:33Z</time>
      </trkpt>
      <trkpt lat="47.39692" lon="-2.12062">
        <ele>69.8</ele>
        <time>2011-11-13T09:07:34Z</time>
      </trkpt>
      <trkpt lat="47.39685" lon="-2.12064">
        <ele>71.1</ele>
        <time>2011-11-13T09:07:36Z</time>
      </trkpt>
      <trkpt lat="47.39679" lon="-2.12066">
        <ele>71</ele>
        <time>2011-11-13T09:07:37Z</time>
      </trkpt>
      <trkpt lat="47.39674" lon="-2.12068">
        <ele>71.6</ele>
        <time>2011-11-13T09:07:38Z</time>
      </trkpt>
      <trkpt lat="47.39667" lon="-2.12063">
        <ele>71.4</ele>
        <time>2011-11-13T09:07:40Z</time>
      </trkpt>
      <trkpt lat="47.39662" lon="-2.12054">
        <ele>71.6</ele>
        <time>2011-11-13T09:07:42Z</time>
      </trkpt>
      <trkpt lat="47.39667" lon="-2.12041">
        <ele>69.1</ele>
        <time>2011-11-13T09:07:44Z</time>
      </trkpt>
      <trkpt lat="47.39671" lon="-2.12034">
        <ele>68.2</ele>
        <time>2011-11-13T09:07:45Z</time>
      </trkpt>
      <trkpt lat="47.39677" lon="-2.12026">
        <ele>68.6</ele>
        <time>2011-11-13T09:07:47Z</time>
      </trkpt>
      <trkpt lat="47.39684" lon="-2.12024">
        <ele>68.4</ele>
        <time>2011-11-13T09:07:49Z</time>
      </trkpt>
      <trkpt lat="47.39689" lon="-2.12024">
        <ele>69.2</ele>
        <time>2011-11-13T09:07:50Z</time>
      </trkpt>
      <trkpt lat="47.397" lon="-2.12026">
        <ele>68.5</ele>
        <time>2011-11-13T09:07:52Z</time>
      </trkpt>
      <trkpt lat="47.39707" lon="-2.12024">
        <ele>68.8</ele>
        <time>2011-11-13T09:07:54Z</time>
      </trkpt>
      <trkpt lat="47.39714" lon="-2.12021">
        <ele>68.6</ele>
        <time>2011-11-13T09:07:56Z</time>
      </trkpt>
      <trkpt lat="47.39718" lon="-2.12013">
        <ele>69.3</ele>
        <time>2011-11-13T09:07:58Z</time>
      </trkpt>
      <trkpt lat="47.39723" lon="-2.12012">
        <ele>69.3</ele>
        <time>2011-11-13T09:07:59Z</time>
      </trkpt>
      <trkpt lat="47.39727" lon="-2.12009">
        <ele>68.4</ele>
        <time>2011-11-13T09:08:00Z</time>
      </trkpt>
      <trkpt lat="47.39725" lon="-2.12">
        <ele>68</ele>
        <time>2011-11-13T09:08:02Z</time>
      </trkpt>
      <trkpt lat="47.39729" lon="-2.11994">
        <ele>66.7</ele>
        <time>2011-11-13T09:08:03Z</time>
      </trkpt>
      <trkpt lat="47.39733" lon="-2.11984">
        <ele>66.9</ele>
        <time>2011-11-13T09:08:05Z</time>
      </trkpt>
      <trkpt lat="47.39736" lon="-2.11973">
        <ele>66.4</ele>
        <time>2011-11-13T09:08:07Z</time>
      </trkpt>
      <trkpt lat="47.3974" lon="-2.11962">
        <ele>67.6</ele>
        <time>2011-11-13T09:08:09Z</time>
      </trkpt>
      <trkpt lat="47.39735" lon="-2.11962">
        <ele>67.8</ele>
        <time>2011-11-13T09:08:11Z</time>
      </trkpt>
      <trkpt lat="47.39728" lon="-2.11962">
        <ele>68.1</ele>
        <time>2011-11-13T09:08:14Z</time>
      </trkpt>
      <trkpt lat="47.39721" lon="-2.11966">
        <ele>67.5</ele>
        <time>2011-11-13T09:08:16Z</time>
      </trkpt>
      <trkpt lat="47.39713" lon="-2.11968">
        <ele>68</ele>
        <time>2011-11-13T09:08:18Z</time>
      </trkpt>
      <trkpt lat="47.39707" lon="-2.11969">
        <ele>68.1</ele>
        <time>2011-11-13T09:08:19Z</time>
      </trkpt>
      <trkpt lat="47.39702" lon="-2.11963">
        <ele>68.3</ele>
        <time>2011-11-13T09:08:22Z</time>
      </trkpt>
      <trkpt lat="47.39707" lon="-2.11954">
        <ele>68.8</ele>
        <time>2011-11-13T09:08:24Z</time>
      </trkpt>
      <trkpt lat="47.39711" lon="-2.11949">
        <ele>69.2</ele>
        <time>2011-11-13T09:08:26Z</time>
      </trkpt>
      <trkpt lat="47.39715" lon="-2.11945">
        <ele>68.4</ele>
        <time>2011-11-13T09:08:28Z</time>
      </trkpt>
      <trkpt lat="47.39717" lon="-2.11937">
        <ele>68.9</ele>
        <time>2011-11-13T09:08:30Z</time>
      </trkpt>
      <trkpt lat="47.39724" lon="-2.11931">
        <ele>69.2</ele>
        <time>2011-11-13T09:08:32Z</time>
      </trkpt>
      <trkpt lat="47.3973" lon="-2.11929">
        <ele>67.4</ele>
        <time>2011-11-13T09:08:34Z</time>
      </trkpt>
      <trkpt lat="47.39735" lon="-2.11933">
        <ele>70.5</ele>
        <time>2011-11-13T09:08:36Z</time>
      </trkpt>
      <trkpt lat="47.3974" lon="-2.11932">
        <ele>71.7</ele>
        <time>2011-11-13T09:08:38Z</time>
      </trkpt>
      <trkpt lat="47.39747" lon="-2.11932">
        <ele>71.2</ele>
        <time>2011-11-13T09:08:40Z</time>
      </trkpt>
      <trkpt lat="47.39752" lon="-2.11934">
        <ele>69.4</ele>
        <time>2011-11-13T09:08:41Z</time>
      </trkpt>
      <trkpt lat="47.39756" lon="-2.11929">
        <ele>67.8</ele>
        <time>2011-11-13T09:08:43Z</time>
      </trkpt>
      <trkpt lat="47.39761" lon="-2.1192">
        <ele>66.9</ele>
        <time>2011-11-13T09:08:45Z</time>
      </trkpt>
      <trkpt lat="47.39766" lon="-2.11918">
        <ele>63.2</ele>
        <time>2011-11-13T09:08:47Z</time>
      </trkpt>
      <trkpt lat="47.39772" lon="-2.11913">
        <ele>62.2</ele>
        <time>2011-11-13T09:08:49Z</time>
      </trkpt>
      <trkpt lat="47.39778" lon="-2.11911">
        <ele>61.7</ele>
        <time>2011-11-13T09:08:52Z</time>
      </trkpt>
      <trkpt lat="47.39784" lon="-2.1191">
        <ele>61.7</ele>
        <time>2011-11-13T09:08:54Z</time>
      </trkpt>
      <trkpt lat="47.3979" lon="-2.11911">
        <ele>62.5</ele>
        <time>2011-11-13T09:08:56Z</time>
      </trkpt>
      <trkpt lat="47.39799" lon="-2.11912">
        <ele>62.1</ele>
        <time>2011-11-13T09:08:58Z</time>
      </trkpt>
      <trkpt lat="47.39804" lon="-2.11909">
        <ele>61.7</ele>
        <time>2011-11-13T09:09:01Z</time>
      </trkpt>
      <trkpt lat="47.39802" lon="-2.11902">
        <ele>63.5</ele>
        <time>2011-11-13T09:09:03Z</time>
      </trkpt>
      <trkpt lat="47.39796" lon="-2.119">
        <ele>64.7</ele>
        <time>2011-11-13T09:09:06Z</time>
      </trkpt>
      <trkpt lat="47.39791" lon="-2.119">
        <ele>64.6</ele>
        <time>2011-11-13T09:09:08Z</time>
      </trkpt>
      <trkpt lat="47.39785" lon="-2.11905">
        <ele>66.3</ele>
        <time>2011-11-13T09:09:11Z</time>
      </trkpt>
      <trkpt lat="47.3978" lon="-2.11902">
        <ele>65.3</ele>
        <time>2011-11-13T09:09:13Z</time>
      </trkpt>
      <trkpt lat="47.39775" lon="-2.11898">
        <ele>66</ele>
        <time>2011-11-13T09:09:16Z</time>
      </trkpt>
      <trkpt lat="47.3977" lon="-2.119">
        <ele>65.6</ele>
        <time>2011-11-13T09:09:18Z</time>
      </trkpt>
      <trkpt lat="47.39763" lon="-2.11886">
        <ele>65.6</ele>
        <time>2011-11-13T09:09:20Z</time>
      </trkpt>
      <trkpt lat="47.39764" lon="-2.1188">
        <ele>63.6</ele>
        <time>2011-11-13T09:09:21Z</time>
      </trkpt>
      <trkpt lat="47.39772" lon="-2.11878">
        <ele>66.5</ele>
        <time>2011-11-13T09:09:24Z</time>
      </trkpt>
      <trkpt lat="47.39777" lon="-2.11877">
        <ele>66.7</ele>
        <time>2011-11-13T09:09:25Z</time>
      </trkpt>
      <trkpt lat="47.39783" lon="-2.11876">
        <ele>67.6</ele>
        <time>2011-11-13T09:09:27Z</time>
      </trkpt>
      <trkpt lat="47.39785" lon="-2.11882">
        <ele>67.3</ele>
        <time>2011-11-13T09:09:28Z</time>
      </trkpt>
      <trkpt lat="47.39789" lon="-2.1188">
        <ele>67.2</ele>
        <time>2011-11-13T09:09:29Z</time>
      </trkpt>
      <trkpt lat="47.39794" lon="-2.11882">
        <ele>66.4</ele>
        <time>2011-11-13T09:09:31Z</time>
      </trkpt>
      <trkpt lat="47.39799" lon="-2.11879">
        <ele>66.4</ele>
        <time>2011-11-13T09:09:32Z</time>
      </trkpt>
      <trkpt lat="47.39806" lon="-2.11878">
        <ele>64.8</ele>
        <time>2011-11-13T09:09:33Z</time>
      </trkpt>
      <trkpt lat="47.39811" lon="-2.11874">
        <ele>65.9</ele>
        <time>2011-11-13T09:09:35Z</time>
      </trkpt>
      <trkpt lat="47.39816" lon="-2.11876">
        <ele>65.8</ele>
        <time>2011-11-13T09:09:36Z</time>
      </trkpt>
      <trkpt lat="47.3982" lon="-2.1188">
        <ele>62.9</ele>
        <time>2011-11-13T09:09:38Z</time>
      </trkpt>
      <trkpt lat="47.39825" lon="-2.11883">
        <ele>60.9</ele>
        <time>2011-11-13T09:09:39Z</time>
      </trkpt>
      <trkpt lat="47.3983" lon="-2.11883">
        <ele>60.6</ele>
        <time>2011-11-13T09:09:40Z</time>
      </trkpt>
      <trkpt lat="47.39837" lon="-2.1189">
        <ele>62.1</ele>
        <time>2011-11-13T09:09:44Z</time>
      </trkpt>
      <trkpt lat="47.39835" lon="-2.11901">
        <ele>61.7</ele>
        <time>2011-11-13T09:09:48Z</time>
      </trkpt>
      <trkpt lat="47.39832" lon="-2.11911">
        <ele>61.7</ele>
        <time>2011-11-13T09:09:50Z</time>
      </trkpt>
      <trkpt lat="47.3983" lon="-2.11919">
        <ele>62</ele>
        <time>2011-11-13T09:09:52Z</time>
      </trkpt>
      <trkpt lat="47.39832" lon="-2.11928">
        <ele>62.8</ele>
        <time>2011-11-13T09:09:54Z</time>
      </trkpt>
      <trkpt lat="47.39838" lon="-2.11939">
        <ele>61.5</ele>
        <time>2011-11-13T09:09:56Z</time>
      </trkpt>
      <trkpt lat="47.39842" lon="-2.11953">
        <ele>59.1</ele>
        <time>2011-11-13T09:09:58Z</time>
      </trkpt>
      <trkpt lat="47.39839" lon="-2.11969">
        <ele>56.4</ele>
        <time>2011-11-13T09:10:00Z</time>
      </trkpt>
      <trkpt lat="47.39839" lon="-2.11978">
        <ele>53.6</ele>
        <time>2011-11-13T09:10:01Z</time>
      </trkpt>
      <trkpt lat="47.39839" lon="-2.11988">
        <ele>54</ele>
        <time>2011-11-13T09:10:03Z</time>
      </trkpt>
      <trkpt lat="47.39842" lon="-2.11994">
        <ele>53.9</ele>
        <time>2011-11-13T09:10:04Z</time>
      </trkpt>
      <trkpt lat="47.39845" lon="-2.11999">
        <ele>53.9</ele>
        <time>2011-11-13T09:10:05Z</time>
      </trkpt>
      <trkpt lat="47.39849" lon="-2.12007">
        <ele>53.4</ele>
        <time>2011-11-13T09:10:06Z</time>
      </trkpt>
      <trkpt lat="47.39853" lon="-2.12016">
        <ele>53.7</ele>
        <time>2011-11-13T09:10:07Z</time>
      </trkpt>
      <trkpt lat="47.3986" lon="-2.12018">
        <ele>53.3</ele>
        <time>2011-11-13T09:10:09Z</time>
      </trkpt>
      <trkpt lat="47.39866" lon="-2.1203">
        <ele>53.3</ele>
        <time>2011-11-13T09:10:10Z</time>
      </trkpt>
      <trkpt lat="47.39871" lon="-2.12022">
        <ele>55.6</ele>
        <time>2011-11-13T09:10:12Z</time>
      </trkpt>
      <trkpt lat="47.39866" lon="-2.12012">
        <ele>57.9</ele>
        <time>2011-11-13T09:10:15Z</time>
      </trkpt>
      <trkpt lat="47.39862" lon="-2.11999">
        <ele>60.6</ele>
        <time>2011-11-13T09:10:17Z</time>
      </trkpt>
      <trkpt lat="47.39858" lon="-2.11994">
        <ele>61</ele>
        <time>2011-11-13T09:10:18Z</time>
      </trkpt>
      <trkpt lat="47.39856" lon="-2.11986">
        <ele>61.8</ele>
        <time>2011-11-13T09:10:19Z</time>
      </trkpt>
      <trkpt lat="47.39853" lon="-2.11979">
        <ele>62.2</ele>
        <time>2011-11-13T09:10:20Z</time>
      </trkpt>
      <trkpt lat="47.39851" lon="-2.11967">
        <ele>63.2</ele>
        <time>2011-11-13T09:10:22Z</time>
      </trkpt>
      <trkpt lat="47.39849" lon="-2.1196">
        <ele>63.8</ele>
        <time>2011-11-13T09:10:23Z</time>
      </trkpt>
      <trkpt lat="47.39851" lon="-2.11948">
        <ele>63.7</ele>
        <time>2011-11-13T09:10:25Z</time>
      </trkpt>
      <trkpt lat="47.39857" lon="-2.11936">
        <ele>62.3</ele>
        <time>2011-11-13T09:10:27Z</time>
      </trkpt>
      <trkpt lat="47.39861" lon="-2.11932">
        <ele>62.2</ele>
        <time>2011-11-13T09:10:28Z</time>
      </trkpt>
      <trkpt lat="47.39868" lon="-2.11932">
        <ele>64.1</ele>
        <time>2011-11-13T09:10:31Z</time>
      </trkpt>
      <trkpt lat="47.39874" lon="-2.11932">
        <ele>64.2</ele>
        <time>2011-11-13T09:10:34Z</time>
      </trkpt>
      <trkpt lat="47.39885" lon="-2.1193">
        <ele>62.7</ele>
        <time>2011-11-13T09:10:35Z</time>
      </trkpt>
      <trkpt lat="47.39889" lon="-2.11936">
        <ele>61.6</ele>
        <time>2011-11-13T09:10:37Z</time>
      </trkpt>
      <trkpt lat="47.39888" lon="-2.11944">
        <ele>61.7</ele>
        <time>2011-11-13T09:10:39Z</time>
      </trkpt>
      <trkpt lat="47.39882" lon="-2.11954">
        <ele>60.5</ele>
        <time>2011-11-13T09:10:41Z</time>
      </trkpt>
      <trkpt lat="47.39879" lon="-2.11961">
        <ele>62.4</ele>
        <time>2011-11-13T09:10:43Z</time>
      </trkpt>
      <trkpt lat="47.39888" lon="-2.11978">
        <ele>62</ele>
        <time>2011-11-13T09:10:50Z</time>
      </trkpt>
      <trkpt lat="47.39888" lon="-2.11986">
        <ele>62.5</ele>
        <time>2011-11-13T09:10:51Z</time>
      </trkpt>
      <trkpt lat="47.39883" lon="-2.11992">
        <ele>60.8</ele>
        <time>2011-11-13T09:10:52Z</time>
      </trkpt>
      <trkpt lat="47.39886" lon="-2.12001">
        <ele>60.6</ele>
        <time>2011-11-13T09:10:53Z</time>
      </trkpt>
      <trkpt lat="47.39889" lon="-2.12008">
        <ele>60.3</ele>
        <time>2011-11-13T09:10:58Z</time>
      </trkpt>
      <trkpt lat="47.39893" lon="-2.12007">
        <ele>60.2</ele>
        <time>2011-11-13T09:11:01Z</time>
      </trkpt>
      <trkpt lat="47.39896" lon="-2.11998">
        <ele>60.6</ele>
        <time>2011-11-13T09:11:04Z</time>
      </trkpt>
      <trkpt lat="47.39897" lon="-2.11989">
        <ele>59.9</ele>
        <time>2011-11-13T09:11:06Z</time>
      </trkpt>
      <trkpt lat="47.39898" lon="-2.11979">
        <ele>61.3</ele>
        <time>2011-11-13T09:11:08Z</time>
      </trkpt>
      <trkpt lat="47.39898" lon="-2.11971">
        <ele>60.6</ele>
        <time>2011-11-13T09:11:09Z</time>
      </trkpt>
      <trkpt lat="47.39898" lon="-2.11964">
        <ele>60</ele>
        <time>2011-11-13T09:11:10Z</time>
      </trkpt>
      <trkpt lat="47.399" lon="-2.11954">
        <ele>61.6</ele>
        <time>2011-11-13T09:11:12Z</time>
      </trkpt>
      <trkpt lat="47.39897" lon="-2.11945">
        <ele>60.6</ele>
        <time>2011-11-13T09:11:14Z</time>
      </trkpt>
      <trkpt lat="47.399" lon="-2.11939">
        <ele>61</ele>
        <time>2011-11-13T09:11:15Z</time>
      </trkpt>
      <trkpt lat="47.39898" lon="-2.11928">
        <ele>63.3</ele>
        <time>2011-11-13T09:11:17Z</time>
      </trkpt>
      <trkpt lat="47.39897" lon="-2.11919">
        <ele>64.1</ele>
        <time>2011-11-13T09:11:20Z</time>
      </trkpt>
      <trkpt lat="47.39901" lon="-2.11906">
        <ele>63.9</ele>
        <time>2011-11-13T09:11:22Z</time>
      </trkpt>
      <trkpt lat="47.39905" lon="-2.11902">
        <ele>63.5</ele>
        <time>2011-11-13T09:11:23Z</time>
      </trkpt>
      <trkpt lat="47.39909" lon="-2.11894">
        <ele>64</ele>
        <time>2011-11-13T09:11:26Z</time>
      </trkpt>
      <trkpt lat="47.39905" lon="-2.11887">
        <ele>61.2</ele>
        <time>2011-11-13T09:11:28Z</time>
      </trkpt>
      <trkpt lat="47.39901" lon="-2.11881">
        <ele>62.9</ele>
        <time>2011-11-13T09:11:31Z</time>
      </trkpt>
      <trkpt lat="47.39896" lon="-2.11886">
        <ele>62.1</ele>
        <time>2011-11-13T09:11:37Z</time>
      </trkpt>
      <trkpt lat="47.39893" lon="-2.11891">
        <ele>62.4</ele>
        <time>2011-11-13T09:11:38Z</time>
      </trkpt>
      <trkpt lat="47.39887" lon="-2.11892">
        <ele>62.2</ele>
        <time>2011-11-13T09:11:40Z</time>
      </trkpt>
      <trkpt lat="47.3988" lon="-2.11896">
        <ele>61.7</ele>
        <time>2011-11-13T09:11:42Z</time>
      </trkpt>
      <trkpt lat="47.39875" lon="-2.11898">
        <ele>62.1</ele>
        <time>2011-11-13T09:11:43Z</time>
      </trkpt>
      <trkpt lat="47.3987" lon="-2.11899">
        <ele>61.6</ele>
        <time>2011-11-13T09:11:44Z</time>
      </trkpt>
      <trkpt lat="47.39863" lon="-2.11899">
        <ele>62.6</ele>
        <time>2011-11-13T09:11:46Z</time>
      </trkpt>
      <trkpt lat="47.39855" lon="-2.11902">
        <ele>62.5</ele>
        <time>2011-11-13T09:11:48Z</time>
      </trkpt>
      <trkpt lat="47.39853" lon="-2.11891">
        <ele>62.5</ele>
        <time>2011-11-13T09:11:49Z</time>
      </trkpt>
      <trkpt lat="47.39848" lon="-2.11886">
        <ele>62.7</ele>
        <time>2011-11-13T09:11:51Z</time>
      </trkpt>
      <trkpt lat="47.39846" lon="-2.11879">
        <ele>63.4</ele>
        <time>2011-11-13T09:11:54Z</time>
      </trkpt>
      <trkpt lat="47.39842" lon="-2.11882">
        <ele>64.4</ele>
        <time>2011-11-13T09:11:55Z</time>
      </trkpt>
      <trkpt lat="47.39835" lon="-2.11881">
        <ele>64.1</ele>
        <time>2011-11-13T09:11:58Z</time>
      </trkpt>
      <trkpt lat="47.39832" lon="-2.11876">
        <ele>63.3</ele>
        <time>2011-11-13T09:12:02Z</time>
      </trkpt>
      <trkpt lat="47.39827" lon="-2.11875">
        <ele>64.4</ele>
        <time>2011-11-13T09:12:39Z</time>
      </trkpt>
      <trkpt lat="47.3982" lon="-2.11874">
        <ele>64.1</ele>
        <time>2011-11-13T09:12:41Z</time>
      </trkpt>
      <trkpt lat="47.39813" lon="-2.11873">
        <ele>66</ele>
        <time>2011-11-13T09:12:43Z</time>
      </trkpt>
      <trkpt lat="47.39808" lon="-2.11874">
        <ele>65.5</ele>
        <time>2011-11-13T09:12:44Z</time>
      </trkpt>
      <trkpt lat="47.39802" lon="-2.11873">
        <ele>66.2</ele>
        <time>2011-11-13T09:12:46Z</time>
      </trkpt>
      <trkpt lat="47.39794" lon="-2.11875">
        <ele>66.5</ele>
        <time>2011-11-13T09:12:48Z</time>
      </trkpt>
      <trkpt lat="47.3979" lon="-2.11876">
        <ele>66.7</ele>
        <time>2011-11-13T09:12:49Z</time>
      </trkpt>
      <trkpt lat="47.39782" lon="-2.11877">
        <ele>67.4</ele>
        <time>2011-11-13T09:12:51Z</time>
      </trkpt>
      <trkpt lat="47.39777" lon="-2.11877">
        <ele>67.2</ele>
        <time>2011-11-13T09:12:52Z</time>
      </trkpt>
      <trkpt lat="47.39769" lon="-2.11876">
        <ele>66.2</ele>
        <time>2011-11-13T09:12:54Z</time>
      </trkpt>
      <trkpt lat="47.39763" lon="-2.11877">
        <ele>65.3</ele>
        <time>2011-11-13T09:12:55Z</time>
      </trkpt>
      <trkpt lat="47.39758" lon="-2.1188">
        <ele>66.3</ele>
        <time>2011-11-13T09:12:58Z</time>
      </trkpt>
      <trkpt lat="47.39753" lon="-2.11882">
        <ele>64.4</ele>
        <time>2011-11-13T09:13:01Z</time>
      </trkpt>
      <trkpt lat="47.39746" lon="-2.11883">
        <ele>65.5</ele>
        <time>2011-11-13T09:13:03Z</time>
      </trkpt>
      <trkpt lat="47.3974" lon="-2.11879">
        <ele>65.7</ele>
        <time>2011-11-13T09:13:05Z</time>
      </trkpt>
      <trkpt lat="47.39735" lon="-2.11871">
        <ele>67.2</ele>
        <time>2011-11-13T09:13:08Z</time>
      </trkpt>
      <trkpt lat="47.39735" lon="-2.11879">
        <ele>67.7</ele>
        <time>2011-11-13T09:13:13Z</time>
      </trkpt>
      <trkpt lat="47.3973" lon="-2.11884">
        <ele>67.4</ele>
        <time>2011-11-13T09:13:16Z</time>
      </trkpt>
      <trkpt lat="47.39727" lon="-2.11887">
        <ele>69.5</ele>
        <time>2011-11-13T09:13:17Z</time>
      </trkpt>
      <trkpt lat="47.3973" lon="-2.11894">
        <ele>66.8</ele>
        <time>2011-11-13T09:13:19Z</time>
      </trkpt>
      <trkpt lat="47.39729" lon="-2.11901">
        <ele>65</ele>
        <time>2011-11-13T09:13:20Z</time>
      </trkpt>
      <trkpt lat="47.39724" lon="-2.11906">
        <ele>64.8</ele>
        <time>2011-11-13T09:13:22Z</time>
      </trkpt>
      <trkpt lat="47.3972" lon="-2.11913">
        <ele>66.4</ele>
        <time>2011-11-13T09:13:25Z</time>
      </trkpt>
      <trkpt lat="47.39718" lon="-2.1192">
        <ele>65.9</ele>
        <time>2011-11-13T09:13:27Z</time>
      </trkpt>
      <trkpt lat="47.39718" lon="-2.11928">
        <ele>66.1</ele>
        <time>2011-11-13T09:13:29Z</time>
      </trkpt>
      <trkpt lat="47.39717" lon="-2.11939">
        <ele>65.1</ele>
        <time>2011-11-13T09:13:31Z</time>
      </trkpt>
      <trkpt lat="47.39712" lon="-2.11942">
        <ele>64.2</ele>
        <time>2011-11-13T09:13:32Z</time>
      </trkpt>
      <trkpt lat="47.39705" lon="-2.11947">
        <ele>65</ele>
        <time>2011-11-13T09:13:34Z</time>
      </trkpt>
      <trkpt lat="47.397" lon="-2.11945">
        <ele>67.1</ele>
        <time>2011-11-13T09:13:36Z</time>
      </trkpt>
      <trkpt lat="47.39695" lon="-2.11947">
        <ele>68.7</ele>
        <time>2011-11-13T09:13:40Z</time>
      </trkpt>
      <trkpt lat="47.39688" lon="-2.11947">
        <ele>67.2</ele>
        <time>2011-11-13T09:13:42Z</time>
      </trkpt>
      <trkpt lat="47.39682" lon="-2.11948">
        <ele>67.2</ele>
        <time>2011-11-13T09:13:44Z</time>
      </trkpt>
      <trkpt lat="47.39678" lon="-2.11941">
        <ele>68</ele>
        <time>2011-11-13T09:13:46Z</time>
      </trkpt>
      <trkpt lat="47.3968" lon="-2.11931">
        <ele>68.6</ele>
        <time>2011-11-13T09:13:48Z</time>
      </trkpt>
      <trkpt lat="47.39685" lon="-2.1193">
        <ele>70.1</ele>
        <time>2011-11-13T09:13:49Z</time>
      </trkpt>
      <trkpt lat="47.39691" lon="-2.11926">
        <ele>69.5</ele>
        <time>2011-11-13T09:13:53Z</time>
      </trkpt>
      <trkpt lat="47.39695" lon="-2.11921">
        <ele>66.5</ele>
        <time>2011-11-13T09:13:58Z</time>
      </trkpt>
      <trkpt lat="47.39691" lon="-2.11915">
        <ele>67.4</ele>
        <time>2011-11-13T09:14:03Z</time>
      </trkpt>
      <trkpt lat="47.39689" lon="-2.11907">
        <ele>67.1</ele>
        <time>2011-11-13T09:14:05Z</time>
      </trkpt>
      <trkpt lat="47.39688" lon="-2.119">
        <ele>65.6</ele>
        <time>2011-11-13T09:14:06Z</time>
      </trkpt>
      <trkpt lat="47.39692" lon="-2.11892">
        <ele>69</ele>
        <time>2011-11-13T09:14:11Z</time>
      </trkpt>
      <trkpt lat="47.39703" lon="-2.11897">
        <ele>65.4</ele>
        <time>2011-11-13T09:14:14Z</time>
      </trkpt>
      <trkpt lat="47.39708" lon="-2.11895">
        <ele>64.3</ele>
        <time>2011-11-13T09:14:16Z</time>
      </trkpt>
      <trkpt lat="47.39705" lon="-2.11889">
        <ele>65.9</ele>
        <time>2011-11-13T09:14:18Z</time>
      </trkpt>
      <trkpt lat="47.39699" lon="-2.11889">
        <ele>65.9</ele>
        <time>2011-11-13T09:14:20Z</time>
      </trkpt>
      <trkpt lat="47.39692" lon="-2.11888">
        <ele>65.1</ele>
        <time>2011-11-13T09:14:21Z</time>
      </trkpt>
      <trkpt lat="47.39687" lon="-2.11886">
        <ele>66.7</ele>
        <time>2011-11-13T09:14:23Z</time>
      </trkpt>
      <trkpt lat="47.39681" lon="-2.11888">
        <ele>67.3</ele>
        <time>2011-11-13T09:14:26Z</time>
      </trkpt>
      <trkpt lat="47.39678" lon="-2.11883">
        <ele>69</ele>
        <time>2011-11-13T09:14:32Z</time>
      </trkpt>
      <trkpt lat="47.39676" lon="-2.11877">
        <ele>67.8</ele>
        <time>2011-11-13T09:14:35Z</time>
      </trkpt>
      <trkpt lat="47.39673" lon="-2.1187">
        <ele>65.3</ele>
        <time>2011-11-13T09:14:37Z</time>
      </trkpt>
      <trkpt lat="47.39674" lon="-2.11883">
        <ele>66.6</ele>
        <time>2011-11-13T09:14:39Z</time>
      </trkpt>
      <trkpt lat="47.3967" lon="-2.1189">
        <ele>67.2</ele>
        <time>2011-11-13T09:14:41Z</time>
      </trkpt>
      <trkpt lat="47.39667" lon="-2.11897">
        <ele>67</ele>
        <time>2011-11-13T09:14:43Z</time>
      </trkpt>
      <trkpt lat="47.39658" lon="-2.11896">
        <ele>67.2</ele>
        <time>2011-11-13T09:14:45Z</time>
      </trkpt>
      <trkpt lat="47.39654" lon="-2.1189">
        <ele>68.5</ele>
        <time>2011-11-13T09:14:48Z</time>
      </trkpt>
      <trkpt lat="47.39654" lon="-2.11881">
        <ele>69.5</ele>
        <time>2011-11-13T09:14:50Z</time>
      </trkpt>
      <trkpt lat="47.39654" lon="-2.11871">
        <ele>66.7</ele>
        <time>2011-11-13T09:14:52Z</time>
      </trkpt>
      <trkpt lat="47.39646" lon="-2.11871">
        <ele>66.7</ele>
        <time>2011-11-13T09:14:54Z</time>
      </trkpt>
      <trkpt lat="47.39638" lon="-2.11864">
        <ele>67.8</ele>
        <time>2011-11-13T09:14:57Z</time>
      </trkpt>
      <trkpt lat="47.39634" lon="-2.11856">
        <ele>68.4</ele>
        <time>2011-11-13T09:14:59Z</time>
      </trkpt>
      <trkpt lat="47.39635" lon="-2.11845">
        <ele>68.5</ele>
        <time>2011-11-13T09:15:01Z</time>
      </trkpt>
      <trkpt lat="47.39634" lon="-2.11837">
        <ele>70.3</ele>
        <time>2011-11-13T09:15:03Z</time>
      </trkpt>
      <trkpt lat="47.39633" lon="-2.11824">
        <ele>67.8</ele>
        <time>2011-11-13T09:15:05Z</time>
      </trkpt>
      <trkpt lat="47.39625" lon="-2.1182">
        <ele>68.2</ele>
        <time>2011-11-13T09:15:07Z</time>
      </trkpt>
      <trkpt lat="47.3962" lon="-2.11816">
        <ele>69.3</ele>
        <time>2011-11-13T09:15:09Z</time>
      </trkpt>
      <trkpt lat="47.39613" lon="-2.11813">
        <ele>67.8</ele>
        <time>2011-11-13T09:15:11Z</time>
      </trkpt>
      <trkpt lat="47.3961" lon="-2.11807">
        <ele>68</ele>
        <time>2011-11-13T09:15:13Z</time>
      </trkpt>
      <trkpt lat="47.39601" lon="-2.11802">
        <ele>66.4</ele>
        <time>2011-11-13T09:15:15Z</time>
      </trkpt>
      <trkpt lat="47.39594" lon="-2.11804">
        <ele>67.6</ele>
        <time>2011-11-13T09:15:17Z</time>
      </trkpt>
      <trkpt lat="47.39589" lon="-2.11794">
        <ele>68.5</ele>
        <time>2011-11-13T09:15:19Z</time>
      </trkpt>
      <trkpt lat="47.39588" lon="-2.11787">
        <ele>70.3</ele>
        <time>2011-11-13T09:15:21Z</time>
      </trkpt>
      <trkpt lat="47.39587" lon="-2.1178">
        <ele>71.7</ele>
        <time>2011-11-13T09:15:23Z</time>
      </trkpt>
      <trkpt lat="47.3959" lon="-2.1177">
        <ele>72.5</ele>
        <time>2011-11-13T09:15:25Z</time>
      </trkpt>
      <trkpt lat="47.3959" lon="-2.1176">
        <ele>71.4</ele>
        <time>2011-11-13T09:15:27Z</time>
      </trkpt>
      <trkpt lat="47.39594" lon="-2.11748">
        <ele>67.2</ele>
        <time>2011-11-13T09:15:28Z</time>
      </trkpt>
      <trkpt lat="47.39598" lon="-2.11744">
        <ele>69</ele>
        <time>2011-11-13T09:15:29Z</time>
      </trkpt>
      <trkpt lat="47.39602" lon="-2.11738">
        <ele>68.5</ele>
        <time>2011-11-13T09:15:30Z</time>
      </trkpt>
      <trkpt lat="47.39607" lon="-2.11735">
        <ele>68</ele>
        <time>2011-11-13T09:15:32Z</time>
      </trkpt>
      <trkpt lat="47.39612" lon="-2.11733">
        <ele>67</ele>
        <time>2011-11-13T09:15:33Z</time>
      </trkpt>
      <trkpt lat="47.39617" lon="-2.11731">
        <ele>66.6</ele>
        <time>2011-11-13T09:15:34Z</time>
      </trkpt>
      <trkpt lat="47.39622" lon="-2.11731">
        <ele>67.4</ele>
        <time>2011-11-13T09:15:35Z</time>
      </trkpt>
      <trkpt lat="47.39631" lon="-2.1174">
        <ele>67</ele>
        <time>2011-11-13T09:15:37Z</time>
      </trkpt>
      <trkpt lat="47.39634" lon="-2.11753">
        <ele>64.9</ele>
        <time>2011-11-13T09:15:39Z</time>
      </trkpt>
      <trkpt lat="47.3963" lon="-2.11762">
        <ele>64.8</ele>
        <time>2011-11-13T09:15:41Z</time>
      </trkpt>
      <trkpt lat="47.39621" lon="-2.11765">
        <ele>64</ele>
        <time>2011-11-13T09:15:43Z</time>
      </trkpt>
      <trkpt lat="47.39614" lon="-2.11765">
        <ele>62.7</ele>
        <time>2011-11-13T09:15:45Z</time>
      </trkpt>
      <trkpt lat="47.39609" lon="-2.11765">
        <ele>63.2</ele>
        <time>2011-11-13T09:15:47Z</time>
      </trkpt>
      <trkpt lat="47.39612" lon="-2.11772">
        <ele>62.1</ele>
        <time>2011-11-13T09:15:52Z</time>
      </trkpt>
      <trkpt lat="47.39617" lon="-2.11778">
        <ele>61.5</ele>
        <time>2011-11-13T09:15:56Z</time>
      </trkpt>
      <trkpt lat="47.39622" lon="-2.11779">
        <ele>60.1</ele>
        <time>2011-11-13T09:16:00Z</time>
      </trkpt>
      <trkpt lat="47.39627" lon="-2.11785">
        <ele>60.3</ele>
        <time>2011-11-13T09:16:02Z</time>
      </trkpt>
      <trkpt lat="47.3963" lon="-2.1179">
        <ele>58.3</ele>
        <time>2011-11-13T09:16:03Z</time>
      </trkpt>
      <trkpt lat="47.39636" lon="-2.11799">
        <ele>58.6</ele>
        <time>2011-11-13T09:16:05Z</time>
      </trkpt>
      <trkpt lat="47.39637" lon="-2.1179">
        <ele>61</ele>
        <time>2011-11-13T09:16:10Z</time>
      </trkpt>
      <trkpt lat="47.39637" lon="-2.11781">
        <ele>62.1</ele>
        <time>2011-11-13T09:16:11Z</time>
      </trkpt>
      <trkpt lat="47.39637" lon="-2.1177">
        <ele>63.1</ele>
        <time>2011-11-13T09:16:13Z</time>
      </trkpt>
      <trkpt lat="47.3964" lon="-2.1176">
        <ele>63.7</ele>
        <time>2011-11-13T09:16:14Z</time>
      </trkpt>
      <trkpt lat="47.39642" lon="-2.11749">
        <ele>65.5</ele>
        <time>2011-11-13T09:16:16Z</time>
      </trkpt>
      <trkpt lat="47.39644" lon="-2.11739">
        <ele>65.8</ele>
        <time>2011-11-13T09:16:18Z</time>
      </trkpt>
      <trkpt lat="47.3965" lon="-2.11735">
        <ele>65.3</ele>
        <time>2011-11-13T09:16:21Z</time>
      </trkpt>
      <trkpt lat="47.39655" lon="-2.11734">
        <ele>64.9</ele>
        <time>2011-11-13T09:16:23Z</time>
      </trkpt>
      <trkpt lat="47.3966" lon="-2.11736">
        <ele>63.4</ele>
        <time>2011-11-13T09:16:25Z</time>
      </trkpt>
      <trkpt lat="47.39654" lon="-2.11732">
        <ele>65.4</ele>
        <time>2011-11-13T09:16:29Z</time>
      </trkpt>
      <trkpt lat="47.39646" lon="-2.11731">
        <ele>66.3</ele>
        <time>2011-11-13T09:16:30Z</time>
      </trkpt>
      <trkpt lat="47.39633" lon="-2.11735">
        <ele>66.3</ele>
        <time>2011-11-13T09:16:32Z</time>
      </trkpt>
      <trkpt lat="47.39629" lon="-2.11736">
        <ele>66.6</ele>
        <time>2011-11-13T09:16:33Z</time>
      </trkpt>
      <trkpt lat="47.39622" lon="-2.11736">
        <ele>66.5</ele>
        <time>2011-11-13T09:16:34Z</time>
      </trkpt>
      <trkpt lat="47.39616" lon="-2.11736">
        <ele>66.9</ele>
        <time>2011-11-13T09:16:35Z</time>
      </trkpt>
      <trkpt lat="47.39609" lon="-2.11736">
        <ele>67.1</ele>
        <time>2011-11-13T09:16:36Z</time>
      </trkpt>
      <trkpt lat="47.39603" lon="-2.11734">
        <ele>67.4</ele>
        <time>2011-11-13T09:16:37Z</time>
      </trkpt>
      <trkpt lat="47.39596" lon="-2.11735">
        <ele>67.5</ele>
        <time>2011-11-13T09:16:38Z</time>
      </trkpt>
      <trkpt lat="47.39591" lon="-2.11735">
        <ele>67.2</ele>
        <time>2011-11-13T09:16:39Z</time>
      </trkpt>
      <trkpt lat="47.39586" lon="-2.11735">
        <ele>66.1</ele>
        <time>2011-11-13T09:16:40Z</time>
      </trkpt>
      <trkpt lat="47.39578" lon="-2.11736">
        <ele>65.7</ele>
        <time>2011-11-13T09:16:41Z</time>
      </trkpt>
      <trkpt lat="47.39572" lon="-2.11737">
        <ele>64.3</ele>
        <time>2011-11-13T09:16:42Z</time>
      </trkpt>
      <trkpt lat="47.39567" lon="-2.1174">
        <ele>63.8</ele>
        <time>2011-11-13T09:16:43Z</time>
      </trkpt>
      <trkpt lat="47.3956" lon="-2.11742">
        <ele>63.4</ele>
        <time>2011-11-13T09:16:44Z</time>
      </trkpt>
      <trkpt lat="47.39555" lon="-2.1174">
        <ele>64</ele>
        <time>2011-11-13T09:16:45Z</time>
      </trkpt>
      <trkpt lat="47.39548" lon="-2.11737">
        <ele>63.2</ele>
        <time>2011-11-13T09:16:46Z</time>
      </trkpt>
      <trkpt lat="47.39542" lon="-2.11732">
        <ele>63.1</ele>
        <time>2011-11-13T09:16:47Z</time>
      </trkpt>
      <trkpt lat="47.39535" lon="-2.1173">
        <ele>63</ele>
        <time>2011-11-13T09:16:48Z</time>
      </trkpt>
      <trkpt lat="47.3953" lon="-2.11739">
        <ele>64.3</ele>
        <time>2011-11-13T09:16:49Z</time>
      </trkpt>
      <trkpt lat="47.39522" lon="-2.11736">
        <ele>63.8</ele>
        <time>2011-11-13T09:16:50Z</time>
      </trkpt>
      <trkpt lat="47.39515" lon="-2.11736">
        <ele>64.3</ele>
        <time>2011-11-13T09:16:51Z</time>
      </trkpt>
      <trkpt lat="47.39505" lon="-2.11736">
        <ele>63.9</ele>
        <time>2011-11-13T09:16:52Z</time>
      </trkpt>
      <trkpt lat="47.39496" lon="-2.11735">
        <ele>63.3</ele>
        <time>2011-11-13T09:16:53Z</time>
      </trkpt>
      <trkpt lat="47.39488" lon="-2.11735">
        <ele>63.2</ele>
        <time>2011-11-13T09:16:54Z</time>
      </trkpt>
      <trkpt lat="47.3948" lon="-2.11733">
        <ele>63.8</ele>
        <time>2011-11-13T09:16:55Z</time>
      </trkpt>
      <trkpt lat="47.39472" lon="-2.11731">
        <ele>64.2</ele>
        <time>2011-11-13T09:16:56Z</time>
      </trkpt>
      <trkpt lat="47.39464" lon="-2.11731">
        <ele>65.5</ele>
        <time>2011-11-13T09:16:57Z</time>
      </trkpt>
      <trkpt lat="47.39456" lon="-2.1173">
        <ele>65.2</ele>
        <time>2011-11-13T09:16:58Z</time>
      </trkpt>
      <trkpt lat="47.39446" lon="-2.11729">
        <ele>65.5</ele>
        <time>2011-11-13T09:16:59Z</time>
      </trkpt>
      <trkpt lat="47.39438" lon="-2.11729">
        <ele>64.5</ele>
        <time>2011-11-13T09:17:00Z</time>
      </trkpt>
      <trkpt lat="47.39427" lon="-2.11728">
        <ele>64.1</ele>
        <time>2011-11-13T09:17:01Z</time>
      </trkpt>
      <trkpt lat="47.39421" lon="-2.11732">
        <ele>64.6</ele>
        <time>2011-11-13T09:17:02Z</time>
      </trkpt>
      <trkpt lat="47.39414" lon="-2.11734">
        <ele>64.6</ele>
        <time>2011-11-13T09:17:03Z</time>
      </trkpt>
      <trkpt lat="47.39406" lon="-2.11734">
        <ele>63.8</ele>
        <time>2011-11-13T09:17:04Z</time>
      </trkpt>
      <trkpt lat="47.394" lon="-2.11736">
        <ele>64.7</ele>
        <time>2011-11-13T09:17:05Z</time>
      </trkpt>
      <trkpt lat="47.39392" lon="-2.11738">
        <ele>63.8</ele>
        <time>2011-11-13T09:17:06Z</time>
      </trkpt>
      <trkpt lat="47.39384" lon="-2.11738">
        <ele>64.3</ele>
        <time>2011-11-13T09:17:08Z</time>
      </trkpt>
      <trkpt lat="47.39375" lon="-2.11724">
        <ele>65.1</ele>
        <time>2011-11-13T09:17:09Z</time>
      </trkpt>
      <trkpt lat="47.39371" lon="-2.11718">
        <ele>65.9</ele>
        <time>2011-11-13T09:17:10Z</time>
      </trkpt>
      <trkpt lat="47.3937" lon="-2.11706">
        <ele>66.7</ele>
        <time>2011-11-13T09:17:12Z</time>
      </trkpt>
      <trkpt lat="47.39367" lon="-2.11696">
        <ele>66.9</ele>
        <time>2011-11-13T09:17:13Z</time>
      </trkpt>
      <trkpt lat="47.39364" lon="-2.11683">
        <ele>65.5</ele>
        <time>2011-11-13T09:17:14Z</time>
      </trkpt>
      <trkpt lat="47.39362" lon="-2.11676">
        <ele>65.5</ele>
        <time>2011-11-13T09:17:15Z</time>
      </trkpt>
      <trkpt lat="47.39361" lon="-2.11666">
        <ele>65.2</ele>
        <time>2011-11-13T09:17:16Z</time>
      </trkpt>
      <trkpt lat="47.3936" lon="-2.11659">
        <ele>65.7</ele>
        <time>2011-11-13T09:17:17Z</time>
      </trkpt>
      <trkpt lat="47.39356" lon="-2.11651">
        <ele>65</ele>
        <time>2011-11-13T09:17:18Z</time>
      </trkpt>
      <trkpt lat="47.39352" lon="-2.11642">
        <ele>65.1</ele>
        <time>2011-11-13T09:17:19Z</time>
      </trkpt>
      <trkpt lat="47.39348" lon="-2.11626">
        <ele>63.7</ele>
        <time>2011-11-13T09:17:20Z</time>
      </trkpt>
      <trkpt lat="47.39344" lon="-2.11618">
        <ele>64</ele>
        <time>2011-11-13T09:17:21Z</time>
      </trkpt>
      <trkpt lat="47.39341" lon="-2.11608">
        <ele>64.2</ele>
        <time>2011-11-13T09:17:22Z</time>
      </trkpt>
      <trkpt lat="47.39336" lon="-2.11595">
        <ele>64</ele>
        <time>2011-11-13T09:17:23Z</time>
      </trkpt>
      <trkpt lat="47.39332" lon="-2.11585">
        <ele>63.7</ele>
        <time>2011-11-13T09:17:24Z</time>
      </trkpt>
      <trkpt lat="47.39332" lon="-2.11577">
        <ele>63.5</ele>
        <time>2011-11-13T09:17:25Z</time>
      </trkpt>
      <trkpt lat="47.39331" lon="-2.11569">
        <ele>63.7</ele>
        <time>2011-11-13T09:17:26Z</time>
      </trkpt>
      <trkpt lat="47.3933" lon="-2.11563">
        <ele>64.2</ele>
        <time>2011-11-13T09:17:27Z</time>
      </trkpt>
      <trkpt lat="47.39327" lon="-2.11553">
        <ele>64.2</ele>
        <time>2011-11-13T09:17:28Z</time>
      </trkpt>
      <trkpt lat="47.39324" lon="-2.11541">
        <ele>65.1</ele>
        <time>2011-11-13T09:17:30Z</time>
      </trkpt>
      <trkpt lat="47.39321" lon="-2.11533">
        <ele>64.7</ele>
        <time>2011-11-13T09:17:31Z</time>
      </trkpt>
      <trkpt lat="47.39319" lon="-2.11524">
        <ele>64.1</ele>
        <time>2011-11-13T09:17:32Z</time>
      </trkpt>
      <trkpt lat="47.39316" lon="-2.11516">
        <ele>64.4</ele>
        <time>2011-11-13T09:17:33Z</time>
      </trkpt>
      <trkpt lat="47.39314" lon="-2.11506">
        <ele>64.1</ele>
        <time>2011-11-13T09:17:34Z</time>
      </trkpt>
      <trkpt lat="47.3931" lon="-2.11501">
        <ele>64.4</ele>
        <time>2011-11-13T09:17:36Z</time>
      </trkpt>
      <trkpt lat="47.39309" lon="-2.11493">
        <ele>63.5</ele>
        <time>2011-11-13T09:17:37Z</time>
      </trkpt>
      <trkpt lat="47.39306" lon="-2.11487">
        <ele>63.4</ele>
        <time>2011-11-13T09:17:39Z</time>
      </trkpt>
      <trkpt lat="47.39302" lon="-2.11462">
        <ele>64.5</ele>
        <time>2011-11-13T09:17:41Z</time>
      </trkpt>
      <trkpt lat="47.39299" lon="-2.11455">
        <ele>64.3</ele>
        <time>2011-11-13T09:17:42Z</time>
      </trkpt>
      <trkpt lat="47.39299" lon="-2.11445">
        <ele>63.7</ele>
        <time>2011-11-13T09:17:43Z</time>
      </trkpt>
      <trkpt lat="47.39299" lon="-2.11436">
        <ele>64</ele>
        <time>2011-11-13T09:17:44Z</time>
      </trkpt>
      <trkpt lat="47.393" lon="-2.1142">
        <ele>63.9</ele>
        <time>2011-11-13T09:17:45Z</time>
      </trkpt>
      <trkpt lat="47.39296" lon="-2.11414">
        <ele>63.6</ele>
        <time>2011-11-13T09:17:46Z</time>
      </trkpt>
      <trkpt lat="47.39295" lon="-2.11405">
        <ele>62.8</ele>
        <time>2011-11-13T09:17:47Z</time>
      </trkpt>
      <trkpt lat="47.39294" lon="-2.11399">
        <ele>62.7</ele>
        <time>2011-11-13T09:17:48Z</time>
      </trkpt>
      <trkpt lat="47.39294" lon="-2.11389">
        <ele>60.4</ele>
        <time>2011-11-13T09:17:49Z</time>
      </trkpt>
      <trkpt lat="47.39292" lon="-2.1138">
        <ele>60.3</ele>
        <time>2011-11-13T09:17:50Z</time>
      </trkpt>
      <trkpt lat="47.39292" lon="-2.11372">
        <ele>60.3</ele>
        <time>2011-11-13T09:17:51Z</time>
      </trkpt>
      <trkpt lat="47.39293" lon="-2.11361">
        <ele>59.9</ele>
        <time>2011-11-13T09:17:52Z</time>
      </trkpt>
      <trkpt lat="47.39292" lon="-2.11351">
        <ele>59.6</ele>
        <time>2011-11-13T09:17:53Z</time>
      </trkpt>
      <trkpt lat="47.39293" lon="-2.11344">
        <ele>60</ele>
        <time>2011-11-13T09:17:54Z</time>
      </trkpt>
      <trkpt lat="47.39292" lon="-2.11336">
        <ele>61.1</ele>
        <time>2011-11-13T09:17:55Z</time>
      </trkpt>
      <trkpt lat="47.39292" lon="-2.11329">
        <ele>60.7</ele>
        <time>2011-11-13T09:17:56Z</time>
      </trkpt>
      <trkpt lat="47.39291" lon="-2.11321">
        <ele>61.1</ele>
        <time>2011-11-13T09:17:57Z</time>
      </trkpt>
      <trkpt lat="47.39288" lon="-2.11312">
        <ele>60.1</ele>
        <time>2011-11-13T09:17:58Z</time>
      </trkpt>
      <trkpt lat="47.39289" lon="-2.113">
        <ele>61</ele>
        <time>2011-11-13T09:17:59Z</time>
      </trkpt>
      <trkpt lat="47.39288" lon="-2.11293">
        <ele>61.3</ele>
        <time>2011-11-13T09:18:00Z</time>
      </trkpt>
      <trkpt lat="47.39291" lon="-2.11282">
        <ele>62</ele>
        <time>2011-11-13T09:18:01Z</time>
      </trkpt>
      <trkpt lat="47.39295" lon="-2.11276">
        <ele>62.9</ele>
        <time>2011-11-13T09:18:02Z</time>
      </trkpt>
      <trkpt lat="47.39295" lon="-2.11268">
        <ele>63</ele>
        <time>2011-11-13T09:18:03Z</time>
      </trkpt>
      <trkpt lat="47.39294" lon="-2.1126">
        <ele>62.7</ele>
        <time>2011-11-13T09:18:04Z</time>
      </trkpt>
      <trkpt lat="47.39293" lon="-2.11252">
        <ele>61.2</ele>
        <time>2011-11-13T09:18:05Z</time>
      </trkpt>
      <trkpt lat="47.39294" lon="-2.11243">
        <ele>61.1</ele>
        <time>2011-11-13T09:18:06Z</time>
      </trkpt>
      <trkpt lat="47.39292" lon="-2.11237">
        <ele>61.6</ele>
        <time>2011-11-13T09:18:07Z</time>
      </trkpt>
      <trkpt lat="47.3929" lon="-2.11226">
        <ele>61.8</ele>
        <time>2011-11-13T09:18:08Z</time>
      </trkpt>
      <trkpt lat="47.39289" lon="-2.11218">
        <ele>62.3</ele>
        <time>2011-11-13T09:18:09Z</time>
      </trkpt>
      <trkpt lat="47.39289" lon="-2.11209">
        <ele>62.4</ele>
        <time>2011-11-13T09:18:10Z</time>
      </trkpt>
      <trkpt lat="47.39287" lon="-2.112">
        <ele>62.7</ele>
        <time>2011-11-13T09:18:11Z</time>
      </trkpt>
      <trkpt lat="47.39283" lon="-2.11186">
        <ele>65</ele>
        <time>2011-11-13T09:18:13Z</time>
      </trkpt>
      <trkpt lat="47.39282" lon="-2.11176">
        <ele>65</ele>
        <time>2011-11-13T09:18:14Z</time>
      </trkpt>
      <trkpt lat="47.39281" lon="-2.11168">
        <ele>64.8</ele>
        <time>2011-11-13T09:18:15Z</time>
      </trkpt>
      <trkpt lat="47.39281" lon="-2.11157">
        <ele>64.7</ele>
        <time>2011-11-13T09:18:16Z</time>
      </trkpt>
      <trkpt lat="47.3928" lon="-2.1115">
        <ele>64.8</ele>
        <time>2011-11-13T09:18:17Z</time>
      </trkpt>
      <trkpt lat="47.39277" lon="-2.11143">
        <ele>65</ele>
        <time>2011-11-13T09:18:18Z</time>
      </trkpt>
      <trkpt lat="47.39275" lon="-2.11136">
        <ele>65</ele>
        <time>2011-11-13T09:18:19Z</time>
      </trkpt>
      <trkpt lat="47.39273" lon="-2.11128">
        <ele>63.6</ele>
        <time>2011-11-13T09:18:20Z</time>
      </trkpt>
      <trkpt lat="47.39271" lon="-2.11115">
        <ele>64.3</ele>
        <time>2011-11-13T09:18:22Z</time>
      </trkpt>
      <trkpt lat="47.39272" lon="-2.11109">
        <ele>64.6</ele>
        <time>2011-11-13T09:18:23Z</time>
      </trkpt>
      <trkpt lat="47.39271" lon="-2.111">
        <ele>63.6</ele>
        <time>2011-11-13T09:18:24Z</time>
      </trkpt>
      <trkpt lat="47.39267" lon="-2.11091">
        <ele>63.7</ele>
        <time>2011-11-13T09:18:25Z</time>
      </trkpt>
      <trkpt lat="47.39265" lon="-2.11083">
        <ele>64.4</ele>
        <time>2011-11-13T09:18:26Z</time>
      </trkpt>
      <trkpt lat="47.39261" lon="-2.1107">
        <ele>66.2</ele>
        <time>2011-11-13T09:18:28Z</time>
      </trkpt>
      <trkpt lat="47.39259" lon="-2.11064">
        <ele>66.2</ele>
        <time>2011-11-13T09:18:29Z</time>
      </trkpt>
      <trkpt lat="47.39259" lon="-2.11049">
        <ele>65.9</ele>
        <time>2011-11-13T09:18:30Z</time>
      </trkpt>
      <trkpt lat="47.39258" lon="-2.11042">
        <ele>65.5</ele>
        <time>2011-11-13T09:18:31Z</time>
      </trkpt>
      <trkpt lat="47.39261" lon="-2.11034">
        <ele>65.5</ele>
        <time>2011-11-13T09:18:32Z</time>
      </trkpt>
      <trkpt lat="47.39265" lon="-2.11018">
        <ele>65.1</ele>
        <time>2011-11-13T09:18:33Z</time>
      </trkpt>
      <trkpt lat="47.39266" lon="-2.11011">
        <ele>65.6</ele>
        <time>2011-11-13T09:18:34Z</time>
      </trkpt>
      <trkpt lat="47.39268" lon="-2.11003">
        <ele>66.9</ele>
        <time>2011-11-13T09:18:35Z</time>
      </trkpt>
      <trkpt lat="47.39269" lon="-2.10996">
        <ele>67.3</ele>
        <time>2011-11-13T09:18:36Z</time>
      </trkpt>
      <trkpt lat="47.39269" lon="-2.10988">
        <ele>68.1</ele>
        <time>2011-11-13T09:18:37Z</time>
      </trkpt>
      <trkpt lat="47.39268" lon="-2.10977">
        <ele>67.3</ele>
        <time>2011-11-13T09:18:38Z</time>
      </trkpt>
      <trkpt lat="47.39266" lon="-2.1097">
        <ele>67.8</ele>
        <time>2011-11-13T09:18:39Z</time>
      </trkpt>
      <trkpt lat="47.39271" lon="-2.1096">
        <ele>67.7</ele>
        <time>2011-11-13T09:18:40Z</time>
      </trkpt>
      <trkpt lat="47.39273" lon="-2.10951">
        <ele>67.1</ele>
        <time>2011-11-13T09:18:41Z</time>
      </trkpt>
      <trkpt lat="47.39274" lon="-2.10942">
        <ele>67.3</ele>
        <time>2011-11-13T09:18:42Z</time>
      </trkpt>
      <trkpt lat="47.39274" lon="-2.10934">
        <ele>67</ele>
        <time>2011-11-13T09:18:43Z</time>
      </trkpt>
      <trkpt lat="47.39274" lon="-2.10924">
        <ele>66.4</ele>
        <time>2011-11-13T09:18:44Z</time>
      </trkpt>
      <trkpt lat="47.39276" lon="-2.10911">
        <ele>66.8</ele>
        <time>2011-11-13T09:18:45Z</time>
      </trkpt>
      <trkpt lat="47.39275" lon="-2.10901">
        <ele>67</ele>
        <time>2011-11-13T09:18:46Z</time>
      </trkpt>
      <trkpt lat="47.39274" lon="-2.10889">
        <ele>66.9</ele>
        <time>2011-11-13T09:18:48Z</time>
      </trkpt>
      <trkpt lat="47.39274" lon="-2.10882">
        <ele>66.5</ele>
        <time>2011-11-13T09:18:49Z</time>
      </trkpt>
      <trkpt lat="47.39271" lon="-2.10874">
        <ele>66.5</ele>
        <time>2011-11-13T09:18:51Z</time>
      </trkpt>
      <trkpt lat="47.3927" lon="-2.1086">
        <ele>66.2</ele>
        <time>2011-11-13T09:18:52Z</time>
      </trkpt>
      <trkpt lat="47.39267" lon="-2.10851">
        <ele>66.5</ele>
        <time>2011-11-13T09:18:53Z</time>
      </trkpt>
      <trkpt lat="47.39265" lon="-2.10841">
        <ele>66.1</ele>
        <time>2011-11-13T09:18:54Z</time>
      </trkpt>
      <trkpt lat="47.39262" lon="-2.10835">
        <ele>65.9</ele>
        <time>2011-11-13T09:18:55Z</time>
      </trkpt>
      <trkpt lat="47.39257" lon="-2.10813">
        <ele>64.9</ele>
        <time>2011-11-13T09:18:56Z</time>
      </trkpt>
      <trkpt lat="47.39252" lon="-2.1079">
        <ele>63.1</ele>
        <time>2011-11-13T09:18:58Z</time>
      </trkpt>
      <trkpt lat="47.39249" lon="-2.10773">
        <ele>62.9</ele>
        <time>2011-11-13T09:19:00Z</time>
      </trkpt>
      <trkpt lat="47.39242" lon="-2.10756">
        <ele>61</ele>
        <time>2011-11-13T09:19:02Z</time>
      </trkpt>
      <trkpt lat="47.39238" lon="-2.10744">
        <ele>61.2</ele>
        <time>2011-11-13T09:19:04Z</time>
      </trkpt>
      <trkpt lat="47.39228" lon="-2.10735">
        <ele>61.2</ele>
        <time>2011-11-13T09:19:06Z</time>
      </trkpt>
      <trkpt lat="47.39224" lon="-2.1072">
        <ele>62.7</ele>
        <time>2011-11-13T09:19:08Z</time>
      </trkpt>
      <trkpt lat="47.3922" lon="-2.10714">
        <ele>64.5</ele>
        <time>2011-11-13T09:19:10Z</time>
      </trkpt>
      <trkpt lat="47.3922" lon="-2.10701">
        <ele>65.8</ele>
        <time>2011-11-13T09:19:12Z</time>
      </trkpt>
      <trkpt lat="47.39215" lon="-2.10687">
        <ele>66.8</ele>
        <time>2011-11-13T09:19:14Z</time>
      </trkpt>
      <trkpt lat="47.39212" lon="-2.10672">
        <ele>68.9</ele>
        <time>2011-11-13T09:19:16Z</time>
      </trkpt>
      <trkpt lat="47.39211" lon="-2.10653">
        <ele>71</ele>
        <time>2011-11-13T09:19:18Z</time>
      </trkpt>
      <trkpt lat="47.39206" lon="-2.10632">
        <ele>71.9</ele>
        <time>2011-11-13T09:19:20Z</time>
      </trkpt>
      <trkpt lat="47.39205" lon="-2.10614">
        <ele>72.2</ele>
        <time>2011-11-13T09:19:22Z</time>
      </trkpt>
      <trkpt lat="47.39205" lon="-2.10597">
        <ele>72.2</ele>
        <time>2011-11-13T09:19:24Z</time>
      </trkpt>
      <trkpt lat="47.39201" lon="-2.10575">
        <ele>72.2</ele>
        <time>2011-11-13T09:19:26Z</time>
      </trkpt>
      <trkpt lat="47.39199" lon="-2.10564">
        <ele>70.7</ele>
        <time>2011-11-13T09:19:28Z</time>
      </trkpt>
      <trkpt lat="47.39196" lon="-2.1055">
        <ele>72</ele>
        <time>2011-11-13T09:19:30Z</time>
      </trkpt>
      <trkpt lat="47.39196" lon="-2.10533">
        <ele>71.2</ele>
        <time>2011-11-13T09:19:32Z</time>
      </trkpt>
      <trkpt lat="47.39192" lon="-2.10522">
        <ele>70.2</ele>
        <time>2011-11-13T09:19:34Z</time>
      </trkpt>
      <trkpt lat="47.39187" lon="-2.105">
        <ele>68.6</ele>
        <time>2011-11-13T09:19:36Z</time>
      </trkpt>
      <trkpt lat="47.39179" lon="-2.10484">
        <ele>67.6</ele>
        <time>2011-11-13T09:19:38Z</time>
      </trkpt>
      <trkpt lat="47.39176" lon="-2.10466">
        <ele>66.5</ele>
        <time>2011-11-13T09:19:40Z</time>
      </trkpt>
      <trkpt lat="47.39171" lon="-2.10452">
        <ele>66</ele>
        <time>2011-11-13T09:19:42Z</time>
      </trkpt>
      <trkpt lat="47.39171" lon="-2.10443">
        <ele>67.4</ele>
        <time>2011-11-13T09:19:44Z</time>
      </trkpt>
      <trkpt lat="47.39169" lon="-2.10428">
        <ele>67.4</ele>
        <time>2011-11-13T09:19:46Z</time>
      </trkpt>
      <trkpt lat="47.39167" lon="-2.10415">
        <ele>67.8</ele>
        <time>2011-11-13T09:19:48Z</time>
      </trkpt>
      <trkpt lat="47.39164" lon="-2.10398">
        <ele>68.6</ele>
        <time>2011-11-13T09:19:50Z</time>
      </trkpt>
      <trkpt lat="47.39163" lon="-2.10384">
        <ele>70.2</ele>
        <time>2011-11-13T09:19:52Z</time>
      </trkpt>
      <trkpt lat="47.39158" lon="-2.10371">
        <ele>71.4</ele>
        <time>2011-11-13T09:19:54Z</time>
      </trkpt>
      <trkpt lat="47.39152" lon="-2.10358">
        <ele>70.8</ele>
        <time>2011-11-13T09:19:56Z</time>
      </trkpt>
      <trkpt lat="47.3915" lon="-2.1034">
        <ele>70.3</ele>
        <time>2011-11-13T09:19:58Z</time>
      </trkpt>
      <trkpt lat="47.39149" lon="-2.10325">
        <ele>70.2</ele>
        <time>2011-11-13T09:20:00Z</time>
      </trkpt>
      <trkpt lat="47.3915" lon="-2.10311">
        <ele>70.5</ele>
        <time>2011-11-13T09:20:02Z</time>
      </trkpt>
      <trkpt lat="47.39152" lon="-2.10285">
        <ele>69.3</ele>
        <time>2011-11-13T09:20:04Z</time>
      </trkpt>
      <trkpt lat="47.3915" lon="-2.10269">
        <ele>68.9</ele>
        <time>2011-11-13T09:20:06Z</time>
      </trkpt>
      <trkpt lat="47.39153" lon="-2.10246">
        <ele>67.7</ele>
        <time>2011-11-13T09:20:08Z</time>
      </trkpt>
      <trkpt lat="47.39156" lon="-2.10232">
        <ele>67</ele>
        <time>2011-11-13T09:20:10Z</time>
      </trkpt>
      <trkpt lat="47.39157" lon="-2.10215">
        <ele>66.8</ele>
        <time>2011-11-13T09:20:12Z</time>
      </trkpt>
      <trkpt lat="47.39159" lon="-2.10193">
        <ele>69.2</ele>
        <time>2011-11-13T09:20:16Z</time>
      </trkpt>
      <trkpt lat="47.39162" lon="-2.10177">
        <ele>70.1</ele>
        <time>2011-11-13T09:20:18Z</time>
      </trkpt>
      <trkpt lat="47.39165" lon="-2.1016">
        <ele>69.9</ele>
        <time>2011-11-13T09:20:20Z</time>
      </trkpt>
      <trkpt lat="47.39177" lon="-2.10142">
        <ele>68.6</ele>
        <time>2011-11-13T09:20:22Z</time>
      </trkpt>
      <trkpt lat="47.39185" lon="-2.10124">
        <ele>68.5</ele>
        <time>2011-11-13T09:20:24Z</time>
      </trkpt>
      <trkpt lat="47.39191" lon="-2.10115">
        <ele>68.3</ele>
        <time>2011-11-13T09:20:26Z</time>
      </trkpt>
      <trkpt lat="47.39194" lon="-2.10096">
        <ele>68.9</ele>
        <time>2011-11-13T09:20:28Z</time>
      </trkpt>
      <trkpt lat="47.39199" lon="-2.10086">
        <ele>67.8</ele>
        <time>2011-11-13T09:20:30Z</time>
      </trkpt>
      <trkpt lat="47.39204" lon="-2.10075">
        <ele>68.5</ele>
        <time>2011-11-13T09:20:32Z</time>
      </trkpt>
      <trkpt lat="47.392" lon="-2.10058">
        <ele>68</ele>
        <time>2011-11-13T09:20:34Z</time>
      </trkpt>
      <trkpt lat="47.39193" lon="-2.10048">
        <ele>68.7</ele>
        <time>2011-11-13T09:20:36Z</time>
      </trkpt>
      <trkpt lat="47.39193" lon="-2.10027">
        <ele>65.5</ele>
        <time>2011-11-13T09:20:38Z</time>
      </trkpt>
      <trkpt lat="47.39196" lon="-2.10007">
        <ele>65.9</ele>
        <time>2011-11-13T09:20:40Z</time>
      </trkpt>
      <trkpt lat="47.39208" lon="-2.09993">
        <ele>65.4</ele>
        <time>2011-11-13T09:20:42Z</time>
      </trkpt>
      <trkpt lat="47.39214" lon="-2.09983">
        <ele>65.9</ele>
        <time>2011-11-13T09:20:44Z</time>
      </trkpt>
      <trkpt lat="47.39228" lon="-2.09975">
        <ele>65.9</ele>
        <time>2011-11-13T09:20:46Z</time>
      </trkpt>
      <trkpt lat="47.39234" lon="-2.09968">
        <ele>66.8</ele>
        <time>2011-11-13T09:20:49Z</time>
      </trkpt>
      <trkpt lat="47.39236" lon="-2.09959">
        <ele>67.7</ele>
        <time>2011-11-13T09:20:50Z</time>
      </trkpt>
      <trkpt lat="47.39245" lon="-2.09946">
        <ele>68.5</ele>
        <time>2011-11-13T09:20:51Z</time>
      </trkpt>
      <trkpt lat="47.39254" lon="-2.09929">
        <ele>67.6</ele>
        <time>2011-11-13T09:20:53Z</time>
      </trkpt>
      <trkpt lat="47.39259" lon="-2.09921">
        <ele>66.9</ele>
        <time>2011-11-13T09:20:55Z</time>
      </trkpt>
      <trkpt lat="47.39263" lon="-2.09915">
        <ele>66.4</ele>
        <time>2011-11-13T09:20:56Z</time>
      </trkpt>
      <trkpt lat="47.39267" lon="-2.09909">
        <ele>65.9</ele>
        <time>2011-11-13T09:20:57Z</time>
      </trkpt>
      <trkpt lat="47.39268" lon="-2.09897">
        <ele>65.5</ele>
        <time>2011-11-13T09:20:58Z</time>
      </trkpt>
      <trkpt lat="47.39257" lon="-2.09886">
        <ele>66</ele>
        <time>2011-11-13T09:21:00Z</time>
      </trkpt>
      <trkpt lat="47.39247" lon="-2.09871">
        <ele>64.8</ele>
        <time>2011-11-13T09:21:02Z</time>
      </trkpt>
      <trkpt lat="47.39239" lon="-2.09856">
        <ele>64.4</ele>
        <time>2011-11-13T09:21:04Z</time>
      </trkpt>
      <trkpt lat="47.39229" lon="-2.09846">
        <ele>64.4</ele>
        <time>2011-11-13T09:21:06Z</time>
      </trkpt>
      <trkpt lat="47.39218" lon="-2.09831">
        <ele>61.9</ele>
        <time>2011-11-13T09:21:08Z</time>
      </trkpt>
      <trkpt lat="47.39211" lon="-2.0982">
        <ele>63</ele>
        <time>2011-11-13T09:21:10Z</time>
      </trkpt>
      <trkpt lat="47.39206" lon="-2.09806">
        <ele>65</ele>
        <time>2011-11-13T09:21:12Z</time>
      </trkpt>
      <trkpt lat="47.392" lon="-2.09792">
        <ele>64.8</ele>
        <time>2011-11-13T09:21:14Z</time>
      </trkpt>
      <trkpt lat="47.39195" lon="-2.09778">
        <ele>66.7</ele>
        <time>2011-11-13T09:21:16Z</time>
      </trkpt>
      <trkpt lat="47.39189" lon="-2.0977">
        <ele>66.6</ele>
        <time>2011-11-13T09:21:18Z</time>
      </trkpt>
      <trkpt lat="47.39186" lon="-2.09758">
        <ele>65.4</ele>
        <time>2011-11-13T09:21:20Z</time>
      </trkpt>
      <trkpt lat="47.3918" lon="-2.09745">
        <ele>65.7</ele>
        <time>2011-11-13T09:21:22Z</time>
      </trkpt>
      <trkpt lat="47.39175" lon="-2.09734">
        <ele>66.3</ele>
        <time>2011-11-13T09:21:24Z</time>
      </trkpt>
      <trkpt lat="47.39172" lon="-2.0972">
        <ele>66</ele>
        <time>2011-11-13T09:21:26Z</time>
      </trkpt>
      <trkpt lat="47.39162" lon="-2.09714">
        <ele>66.6</ele>
        <time>2011-11-13T09:21:28Z</time>
      </trkpt>
      <trkpt lat="47.39155" lon="-2.09707">
        <ele>66.5</ele>
        <time>2011-11-13T09:21:30Z</time>
      </trkpt>
      <trkpt lat="47.39154" lon="-2.09696">
        <ele>64.1</ele>
        <time>2011-11-13T09:21:33Z</time>
      </trkpt>
      <trkpt lat="47.39146" lon="-2.09696">
        <ele>65.3</ele>
        <time>2011-11-13T09:21:34Z</time>
      </trkpt>
      <trkpt lat="47.39138" lon="-2.09693">
        <ele>64.5</ele>
        <time>2011-11-13T09:21:36Z</time>
      </trkpt>
      <trkpt lat="47.3913" lon="-2.09691">
        <ele>64.4</ele>
        <time>2011-11-13T09:21:38Z</time>
      </trkpt>
      <trkpt lat="47.39122" lon="-2.09686">
        <ele>63.7</ele>
        <time>2011-11-13T09:21:40Z</time>
      </trkpt>
      <trkpt lat="47.39116" lon="-2.09684">
        <ele>63.4</ele>
        <time>2011-11-13T09:21:42Z</time>
      </trkpt>
      <trkpt lat="47.39106" lon="-2.09686">
        <ele>62.1</ele>
        <time>2011-11-13T09:21:44Z</time>
      </trkpt>
      <trkpt lat="47.39096" lon="-2.09686">
        <ele>62.3</ele>
        <time>2011-11-13T09:21:46Z</time>
      </trkpt>
      <trkpt lat="47.39086" lon="-2.09689">
        <ele>62.2</ele>
        <time>2011-11-13T09:21:48Z</time>
      </trkpt>
      <trkpt lat="47.39073" lon="-2.09686">
        <ele>61.1</ele>
        <time>2011-11-13T09:21:50Z</time>
      </trkpt>
      <trkpt lat="47.3906" lon="-2.0969">
        <ele>61.1</ele>
        <time>2011-11-13T09:21:52Z</time>
      </trkpt>
      <trkpt lat="47.39049" lon="-2.09693">
        <ele>61.3</ele>
        <time>2011-11-13T09:21:54Z</time>
      </trkpt>
      <trkpt lat="47.39034" lon="-2.09696">
        <ele>61.4</ele>
        <time>2011-11-13T09:21:56Z</time>
      </trkpt>
      <trkpt lat="47.3902" lon="-2.09697">
        <ele>59.2</ele>
        <time>2011-11-13T09:21:58Z</time>
      </trkpt>
      <trkpt lat="47.3901" lon="-2.09691">
        <ele>59.8</ele>
        <time>2011-11-13T09:22:00Z</time>
      </trkpt>
      <trkpt lat="47.39001" lon="-2.09692">
        <ele>58.5</ele>
        <time>2011-11-13T09:22:02Z</time>
      </trkpt>
      <trkpt lat="47.38992" lon="-2.09695">
        <ele>56.6</ele>
        <time>2011-11-13T09:22:04Z</time>
      </trkpt>
      <trkpt lat="47.38988" lon="-2.09692">
        <ele>57.3</ele>
        <time>2011-11-13T09:22:06Z</time>
      </trkpt>
      <trkpt lat="47.38981" lon="-2.09696">
        <ele>56.9</ele>
        <time>2011-11-13T09:22:08Z</time>
      </trkpt>
      <trkpt lat="47.38972" lon="-2.09705">
        <ele>58.5</ele>
        <time>2011-11-13T09:22:12Z</time>
      </trkpt>
      <trkpt lat="47.38963" lon="-2.09705">
        <ele>58.4</ele>
        <time>2011-11-13T09:22:14Z</time>
      </trkpt>
      <trkpt lat="47.38957" lon="-2.09708">
        <ele>58.7</ele>
        <time>2011-11-13T09:22:16Z</time>
      </trkpt>
      <trkpt lat="47.38952" lon="-2.09711">
        <ele>59.3</ele>
        <time>2011-11-13T09:22:18Z</time>
      </trkpt>
      <trkpt lat="47.38947" lon="-2.09706">
        <ele>59.2</ele>
        <time>2011-11-13T09:22:19Z</time>
      </trkpt>
      <trkpt lat="47.38941" lon="-2.09708">
        <ele>59.2</ele>
        <time>2011-11-13T09:22:20Z</time>
      </trkpt>
      <trkpt lat="47.38935" lon="-2.09701">
        <ele>58.5</ele>
        <time>2011-11-13T09:22:22Z</time>
      </trkpt>
      <trkpt lat="47.3893" lon="-2.09693">
        <ele>58.7</ele>
        <time>2011-11-13T09:22:24Z</time>
      </trkpt>
      <trkpt lat="47.38926" lon="-2.09683">
        <ele>59.4</ele>
        <time>2011-11-13T09:22:26Z</time>
      </trkpt>
      <trkpt lat="47.38923" lon="-2.09675">
        <ele>60.1</ele>
        <time>2011-11-13T09:22:28Z</time>
      </trkpt>
      <trkpt lat="47.3892" lon="-2.09666">
        <ele>60.9</ele>
        <time>2011-11-13T09:22:30Z</time>
      </trkpt>
      <trkpt lat="47.38914" lon="-2.09651">
        <ele>60</ele>
        <time>2011-11-13T09:22:32Z</time>
      </trkpt>
      <trkpt lat="47.3891" lon="-2.09643">
        <ele>60.5</ele>
        <time>2011-11-13T09:22:34Z</time>
      </trkpt>
      <trkpt lat="47.38906" lon="-2.09635">
        <ele>59.7</ele>
        <time>2011-11-13T09:22:36Z</time>
      </trkpt>
      <trkpt lat="47.38903" lon="-2.09629">
        <ele>61.7</ele>
        <time>2011-11-13T09:22:38Z</time>
      </trkpt>
      <trkpt lat="47.38904" lon="-2.09617">
        <ele>62.1</ele>
        <time>2011-11-13T09:22:40Z</time>
      </trkpt>
      <trkpt lat="47.38897" lon="-2.09612">
        <ele>62.4</ele>
        <time>2011-11-13T09:22:42Z</time>
      </trkpt>
      <trkpt lat="47.38897" lon="-2.09597">
        <ele>62.1</ele>
        <time>2011-11-13T09:22:44Z</time>
      </trkpt>
      <trkpt lat="47.38893" lon="-2.0959">
        <ele>63.5</ele>
        <time>2011-11-13T09:22:46Z</time>
      </trkpt>
      <trkpt lat="47.38885" lon="-2.09582">
        <ele>63.7</ele>
        <time>2011-11-13T09:22:48Z</time>
      </trkpt>
      <trkpt lat="47.38878" lon="-2.09574">
        <ele>64.6</ele>
        <time>2011-11-13T09:22:50Z</time>
      </trkpt>
      <trkpt lat="47.38876" lon="-2.09559">
        <ele>66.1</ele>
        <time>2011-11-13T09:22:52Z</time>
      </trkpt>
      <trkpt lat="47.38872" lon="-2.0955">
        <ele>67.9</ele>
        <time>2011-11-13T09:22:54Z</time>
      </trkpt>
      <trkpt lat="47.38871" lon="-2.09539">
        <ele>69.9</ele>
        <time>2011-11-13T09:22:56Z</time>
      </trkpt>
      <trkpt lat="47.38869" lon="-2.09523">
        <ele>67.3</ele>
        <time>2011-11-13T09:22:58Z</time>
      </trkpt>
      <trkpt lat="47.38865" lon="-2.09513">
        <ele>65.5</ele>
        <time>2011-11-13T09:23:00Z</time>
      </trkpt>
      <trkpt lat="47.38863" lon="-2.09507">
        <ele>63.4</ele>
        <time>2011-11-13T09:23:02Z</time>
      </trkpt>
      <trkpt lat="47.38857" lon="-2.09511">
        <ele>62.9</ele>
        <time>2011-11-13T09:23:04Z</time>
      </trkpt>
      <trkpt lat="47.38844" lon="-2.0951">
        <ele>61.3</ele>
        <time>2011-11-13T09:23:08Z</time>
      </trkpt>
      <trkpt lat="47.38838" lon="-2.09512">
        <ele>62.7</ele>
        <time>2011-11-13T09:23:10Z</time>
      </trkpt>
      <trkpt lat="47.38827" lon="-2.09509">
        <ele>61.9</ele>
        <time>2011-11-13T09:23:12Z</time>
      </trkpt>
      <trkpt lat="47.3882" lon="-2.09503">
        <ele>60.9</ele>
        <time>2011-11-13T09:23:14Z</time>
      </trkpt>
      <trkpt lat="47.38812" lon="-2.09501">
        <ele>61.4</ele>
        <time>2011-11-13T09:23:16Z</time>
      </trkpt>
      <trkpt lat="47.38803" lon="-2.095">
        <ele>60.9</ele>
        <time>2011-11-13T09:23:18Z</time>
      </trkpt>
      <trkpt lat="47.38795" lon="-2.09499">
        <ele>61.6</ele>
        <time>2011-11-13T09:23:20Z</time>
      </trkpt>
      <trkpt lat="47.38785" lon="-2.09496">
        <ele>60.7</ele>
        <time>2011-11-13T09:23:22Z</time>
      </trkpt>
      <trkpt lat="47.38778" lon="-2.09496">
        <ele>60.6</ele>
        <time>2011-11-13T09:23:24Z</time>
      </trkpt>
      <trkpt lat="47.38771" lon="-2.09493">
        <ele>62.3</ele>
        <time>2011-11-13T09:23:26Z</time>
      </trkpt>
      <trkpt lat="47.38763" lon="-2.09486">
        <ele>62.7</ele>
        <time>2011-11-13T09:23:28Z</time>
      </trkpt>
      <trkpt lat="47.38754" lon="-2.09476">
        <ele>61.5</ele>
        <time>2011-11-13T09:23:30Z</time>
      </trkpt>
      <trkpt lat="47.38745" lon="-2.09471">
        <ele>61.3</ele>
        <time>2011-11-13T09:23:32Z</time>
      </trkpt>
      <trkpt lat="47.38736" lon="-2.09461">
        <ele>61.4</ele>
        <time>2011-11-13T09:23:34Z</time>
      </trkpt>
      <trkpt lat="47.38729" lon="-2.0946">
        <ele>62.3</ele>
        <time>2011-11-13T09:23:36Z</time>
      </trkpt>
      <trkpt lat="47.38723" lon="-2.0945">
        <ele>61.4</ele>
        <time>2011-11-13T09:23:38Z</time>
      </trkpt>
      <trkpt lat="47.38718" lon="-2.09441">
        <ele>62.5</ele>
        <time>2011-11-13T09:23:40Z</time>
      </trkpt>
      <trkpt lat="47.38712" lon="-2.09434">
        <ele>63.2</ele>
        <time>2011-11-13T09:23:42Z</time>
      </trkpt>
      <trkpt lat="47.38708" lon="-2.09418">
        <ele>64.1</ele>
        <time>2011-11-13T09:23:44Z</time>
      </trkpt>
      <trkpt lat="47.38702" lon="-2.09411">
        <ele>63.1</ele>
        <time>2011-11-13T09:23:46Z</time>
      </trkpt>
      <trkpt lat="47.38698" lon="-2.09404">
        <ele>62.9</ele>
        <time>2011-11-13T09:23:48Z</time>
      </trkpt>
      <trkpt lat="47.38693" lon="-2.09389">
        <ele>61.1</ele>
        <time>2011-11-13T09:23:50Z</time>
      </trkpt>
      <trkpt lat="47.38687" lon="-2.09381">
        <ele>62</ele>
        <time>2011-11-13T09:23:52Z</time>
      </trkpt>
      <trkpt lat="47.38678" lon="-2.09368">
        <ele>60.3</ele>
        <time>2011-11-13T09:23:54Z</time>
      </trkpt>
      <trkpt lat="47.38669" lon="-2.09361">
        <ele>60.8</ele>
        <time>2011-11-13T09:23:56Z</time>
      </trkpt>
      <trkpt lat="47.38662" lon="-2.09358">
        <ele>61</ele>
        <time>2011-11-13T09:23:58Z</time>
      </trkpt>
      <trkpt lat="47.38651" lon="-2.09348">
        <ele>62.9</ele>
        <time>2011-11-13T09:24:02Z</time>
      </trkpt>
      <trkpt lat="47.38642" lon="-2.09346">
        <ele>63.1</ele>
        <time>2011-11-13T09:24:04Z</time>
      </trkpt>
      <trkpt lat="47.38636" lon="-2.09346">
        <ele>64.2</ele>
        <time>2011-11-13T09:24:06Z</time>
      </trkpt>
      <trkpt lat="47.38632" lon="-2.09331">
        <ele>67.7</ele>
        <time>2011-11-13T09:24:10Z</time>
      </trkpt>
      <trkpt lat="47.3863" lon="-2.09319">
        <ele>65.2</ele>
        <time>2011-11-13T09:24:14Z</time>
      </trkpt>
      <trkpt lat="47.38624" lon="-2.09314">
        <ele>64.7</ele>
        <time>2011-11-13T09:24:16Z</time>
      </trkpt>
      <trkpt lat="47.38623" lon="-2.09306">
        <ele>64.7</ele>
        <time>2011-11-13T09:24:18Z</time>
      </trkpt>
      <trkpt lat="47.38614" lon="-2.09299">
        <ele>64.5</ele>
        <time>2011-11-13T09:24:20Z</time>
      </trkpt>
      <trkpt lat="47.38618" lon="-2.09293">
        <ele>66.7</ele>
        <time>2011-11-13T09:24:26Z</time>
      </trkpt>
      <trkpt lat="47.38621" lon="-2.0929">
        <ele>65.8</ele>
        <time>2011-11-13T09:24:29Z</time>
      </trkpt>
      <trkpt lat="47.3862" lon="-2.09282">
        <ele>65.7</ele>
        <time>2011-11-13T09:24:30Z</time>
      </trkpt>
      <trkpt lat="47.38616" lon="-2.09273">
        <ele>63.6</ele>
        <time>2011-11-13T09:24:34Z</time>
      </trkpt>
      <trkpt lat="47.38618" lon="-2.09263">
        <ele>62.4</ele>
        <time>2011-11-13T09:24:39Z</time>
      </trkpt>
      <trkpt lat="47.38623" lon="-2.09262">
        <ele>63.3</ele>
        <time>2011-11-13T09:24:41Z</time>
      </trkpt>
      <trkpt lat="47.38632" lon="-2.09262">
        <ele>64.3</ele>
        <time>2011-11-13T09:24:43Z</time>
      </trkpt>
      <trkpt lat="47.38636" lon="-2.09262">
        <ele>63.3</ele>
        <time>2011-11-13T09:24:45Z</time>
      </trkpt>
      <trkpt lat="47.3864" lon="-2.09266">
        <ele>63.4</ele>
        <time>2011-11-13T09:24:47Z</time>
      </trkpt>
      <trkpt lat="47.38643" lon="-2.09271">
        <ele>62</ele>
        <time>2011-11-13T09:24:49Z</time>
      </trkpt>
      <trkpt lat="47.38646" lon="-2.09279">
        <ele>62.6</ele>
        <time>2011-11-13T09:24:54Z</time>
      </trkpt>
      <trkpt lat="47.38651" lon="-2.09281">
        <ele>63.9</ele>
        <time>2011-11-13T09:24:56Z</time>
      </trkpt>
      <trkpt lat="47.38658" lon="-2.09282">
        <ele>63.9</ele>
        <time>2011-11-13T09:24:58Z</time>
      </trkpt>
      <trkpt lat="47.38663" lon="-2.09282">
        <ele>64.3</ele>
        <time>2011-11-13T09:25:00Z</time>
      </trkpt>
      <trkpt lat="47.3867" lon="-2.09282">
        <ele>64.6</ele>
        <time>2011-11-13T09:25:02Z</time>
      </trkpt>
      <trkpt lat="47.38677" lon="-2.09283">
        <ele>64.1</ele>
        <time>2011-11-13T09:25:04Z</time>
      </trkpt>
      <trkpt lat="47.38684" lon="-2.09282">
        <ele>63.9</ele>
        <time>2011-11-13T09:25:06Z</time>
      </trkpt>
      <trkpt lat="47.38692" lon="-2.09283">
        <ele>64.3</ele>
        <time>2011-11-13T09:25:08Z</time>
      </trkpt>
      <trkpt lat="47.387" lon="-2.09285">
        <ele>64.4</ele>
        <time>2011-11-13T09:25:10Z</time>
      </trkpt>
      <trkpt lat="47.3871" lon="-2.09286">
        <ele>64.6</ele>
        <time>2011-11-13T09:25:12Z</time>
      </trkpt>
      <trkpt lat="47.38717" lon="-2.09282">
        <ele>64</ele>
        <time>2011-11-13T09:25:14Z</time>
      </trkpt>
      <trkpt lat="47.38722" lon="-2.09282">
        <ele>63.7</ele>
        <time>2011-11-13T09:25:16Z</time>
      </trkpt>
      <trkpt lat="47.38735" lon="-2.09284">
        <ele>67.6</ele>
        <time>2011-11-13T09:25:19Z</time>
      </trkpt>
      <trkpt lat="47.38741" lon="-2.09286">
        <ele>71.9</ele>
        <time>2011-11-13T09:25:21Z</time>
      </trkpt>
      <trkpt lat="47.38743" lon="-2.09274">
        <ele>70.1</ele>
        <time>2011-11-13T09:25:23Z</time>
      </trkpt>
      <trkpt lat="47.38744" lon="-2.09263">
        <ele>69.9</ele>
        <time>2011-11-13T09:25:25Z</time>
      </trkpt>
      <trkpt lat="47.38748" lon="-2.09256">
        <ele>69.5</ele>
        <time>2011-11-13T09:25:27Z</time>
      </trkpt>
      <trkpt lat="47.38744" lon="-2.09252">
        <ele>70.3</ele>
        <time>2011-11-13T09:25:33Z</time>
      </trkpt>
      <trkpt lat="47.38736" lon="-2.09249">
        <ele>70.1</ele>
        <time>2011-11-13T09:25:35Z</time>
      </trkpt>
      <trkpt lat="47.3873" lon="-2.09248">
        <ele>69.4</ele>
        <time>2011-11-13T09:25:38Z</time>
      </trkpt>
      <trkpt lat="47.38722" lon="-2.09251">
        <ele>68.5</ele>
        <time>2011-11-13T09:25:40Z</time>
      </trkpt>
      <trkpt lat="47.38714" lon="-2.09253">
        <ele>68.1</ele>
        <time>2011-11-13T09:25:42Z</time>
      </trkpt>
      <trkpt lat="47.38708" lon="-2.09254">
        <ele>67.1</ele>
        <time>2011-11-13T09:25:43Z</time>
      </trkpt>
      <trkpt lat="47.387" lon="-2.09256">
        <ele>67.6</ele>
        <time>2011-11-13T09:25:45Z</time>
      </trkpt>
      <trkpt lat="47.38688" lon="-2.09257">
        <ele>67.1</ele>
        <time>2011-11-13T09:25:47Z</time>
      </trkpt>
      <trkpt lat="47.38677" lon="-2.09257">
        <ele>66.6</ele>
        <time>2011-11-13T09:25:49Z</time>
      </trkpt>
      <trkpt lat="47.38671" lon="-2.09255">
        <ele>65.5</ele>
        <time>2011-11-13T09:25:51Z</time>
      </trkpt>
      <trkpt lat="47.38665" lon="-2.09255">
        <ele>64.3</ele>
        <time>2011-11-13T09:25:52Z</time>
      </trkpt>
      <trkpt lat="47.38659" lon="-2.09253">
        <ele>63.7</ele>
        <time>2011-11-13T09:25:54Z</time>
      </trkpt>
      <trkpt lat="47.38651" lon="-2.09254">
        <ele>63.1</ele>
        <time>2011-11-13T09:25:56Z</time>
      </trkpt>
      <trkpt lat="47.38646" lon="-2.09257">
        <ele>63.3</ele>
        <time>2011-11-13T09:25:57Z</time>
      </trkpt>
      <trkpt lat="47.3864" lon="-2.09261">
        <ele>63.2</ele>
        <time>2011-11-13T09:25:59Z</time>
      </trkpt>
      <trkpt lat="47.38633" lon="-2.09263">
        <ele>64.4</ele>
        <time>2011-11-13T09:26:01Z</time>
      </trkpt>
      <trkpt lat="47.38628" lon="-2.09264">
        <ele>64.3</ele>
        <time>2011-11-13T09:26:05Z</time>
      </trkpt>
      <trkpt lat="47.38623" lon="-2.09264">
        <ele>65.7</ele>
        <time>2011-11-13T09:26:10Z</time>
      </trkpt>
      <trkpt lat="47.38618" lon="-2.09268">
        <ele>65.2</ele>
        <time>2011-11-13T09:26:12Z</time>
      </trkpt>
      <trkpt lat="47.38605" lon="-2.09268">
        <ele>65.2</ele>
        <time>2011-11-13T09:26:14Z</time>
      </trkpt>
      <trkpt lat="47.38598" lon="-2.09268">
        <ele>67.6</ele>
        <time>2011-11-13T09:26:16Z</time>
      </trkpt>
      <trkpt lat="47.38598" lon="-2.09257">
        <ele>65.1</ele>
        <time>2011-11-13T09:26:18Z</time>
      </trkpt>
      <trkpt lat="47.38595" lon="-2.09248">
        <ele>64.1</ele>
        <time>2011-11-13T09:26:20Z</time>
      </trkpt>
      <trkpt lat="47.38588" lon="-2.09241">
        <ele>63.6</ele>
        <time>2011-11-13T09:26:22Z</time>
      </trkpt>
      <trkpt lat="47.38585" lon="-2.09235">
        <ele>63.3</ele>
        <time>2011-11-13T09:26:24Z</time>
      </trkpt>
      <trkpt lat="47.38588" lon="-2.09228">
        <ele>62.1</ele>
        <time>2011-11-13T09:26:27Z</time>
      </trkpt>
      <trkpt lat="47.38593" lon="-2.09228">
        <ele>64.2</ele>
        <time>2011-11-13T09:26:31Z</time>
      </trkpt>
      <trkpt lat="47.38597" lon="-2.09232">
        <ele>66</ele>
        <time>2011-11-13T09:26:35Z</time>
      </trkpt>
      <trkpt lat="47.38601" lon="-2.09225">
        <ele>67.3</ele>
        <time>2011-11-13T09:26:42Z</time>
      </trkpt>
      <trkpt lat="47.38605" lon="-2.0922">
        <ele>67.7</ele>
        <time>2011-11-13T09:26:44Z</time>
      </trkpt>
      <trkpt lat="47.38617" lon="-2.09212">
        <ele>66.6</ele>
        <time>2011-11-13T09:26:47Z</time>
      </trkpt>
      <trkpt lat="47.38622" lon="-2.09212">
        <ele>67.1</ele>
        <time>2011-11-13T09:26:49Z</time>
      </trkpt>
      <trkpt lat="47.38628" lon="-2.09211">
        <ele>68.4</ele>
        <time>2011-11-13T09:26:52Z</time>
      </trkpt>
      <trkpt lat="47.38634" lon="-2.09209">
        <ele>68.9</ele>
        <time>2011-11-13T09:26:54Z</time>
      </trkpt>
      <trkpt lat="47.38639" lon="-2.0921">
        <ele>69.6</ele>
        <time>2011-11-13T09:26:56Z</time>
      </trkpt>
      <trkpt lat="47.38644" lon="-2.09211">
        <ele>69.7</ele>
        <time>2011-11-13T09:26:58Z</time>
      </trkpt>
      <trkpt lat="47.38648" lon="-2.09212">
        <ele>69.6</ele>
        <time>2011-11-13T09:27:00Z</time>
      </trkpt>
      <trkpt lat="47.38653" lon="-2.09211">
        <ele>70.3</ele>
        <time>2011-11-13T09:27:02Z</time>
      </trkpt>
      <trkpt lat="47.38658" lon="-2.09208">
        <ele>70.7</ele>
        <time>2011-11-13T09:27:04Z</time>
      </trkpt>
      <trkpt lat="47.38665" lon="-2.09207">
        <ele>72</ele>
        <time>2011-11-13T09:27:06Z</time>
      </trkpt>
      <trkpt lat="47.38669" lon="-2.09208">
        <ele>72.2</ele>
        <time>2011-11-13T09:27:07Z</time>
      </trkpt>
      <trkpt lat="47.38674" lon="-2.09211">
        <ele>72.9</ele>
        <time>2011-11-13T09:27:09Z</time>
      </trkpt>
      <trkpt lat="47.38681" lon="-2.09213">
        <ele>73.9</ele>
        <time>2011-11-13T09:27:12Z</time>
      </trkpt>
      <trkpt lat="47.38688" lon="-2.09212">
        <ele>73.7</ele>
        <time>2011-11-13T09:27:14Z</time>
      </trkpt>
      <trkpt lat="47.38694" lon="-2.09212">
        <ele>73.9</ele>
        <time>2011-11-13T09:27:16Z</time>
      </trkpt>
      <trkpt lat="47.387" lon="-2.09212">
        <ele>73.8</ele>
        <time>2011-11-13T09:27:18Z</time>
      </trkpt>
      <trkpt lat="47.38705" lon="-2.09213">
        <ele>73.6</ele>
        <time>2011-11-13T09:27:20Z</time>
      </trkpt>
      <trkpt lat="47.38709" lon="-2.09217">
        <ele>73.3</ele>
        <time>2011-11-13T09:27:21Z</time>
      </trkpt>
      <trkpt lat="47.38706" lon="-2.09211">
        <ele>74.3</ele>
        <time>2011-11-13T09:27:26Z</time>
      </trkpt>
      <trkpt lat="47.38708" lon="-2.09202">
        <ele>75.3</ele>
        <time>2011-11-13T09:27:28Z</time>
      </trkpt>
      <trkpt lat="47.38703" lon="-2.09204">
        <ele>77.9</ele>
        <time>2011-11-13T09:27:31Z</time>
      </trkpt>
      <trkpt lat="47.38697" lon="-2.09204">
        <ele>77.6</ele>
        <time>2011-11-13T09:27:36Z</time>
      </trkpt>
      <trkpt lat="47.3869" lon="-2.09204">
        <ele>78.3</ele>
        <time>2011-11-13T09:27:38Z</time>
      </trkpt>
      <trkpt lat="47.38684" lon="-2.09208">
        <ele>77.8</ele>
        <time>2011-11-13T09:27:39Z</time>
      </trkpt>
      <trkpt lat="47.38673" lon="-2.0921">
        <ele>77.1</ele>
        <time>2011-11-13T09:27:41Z</time>
      </trkpt>
      <trkpt lat="47.38662" lon="-2.09209">
        <ele>76.2</ele>
        <time>2011-11-13T09:27:42Z</time>
      </trkpt>
      <trkpt lat="47.38656" lon="-2.09209">
        <ele>76.3</ele>
        <time>2011-11-13T09:27:43Z</time>
      </trkpt>
      <trkpt lat="47.3865" lon="-2.09206">
        <ele>75.9</ele>
        <time>2011-11-13T09:27:45Z</time>
      </trkpt>
      <trkpt lat="47.38644" lon="-2.09205">
        <ele>76.4</ele>
        <time>2011-11-13T09:27:47Z</time>
      </trkpt>
      <trkpt lat="47.38635" lon="-2.09204">
        <ele>76.4</ele>
        <time>2011-11-13T09:27:49Z</time>
      </trkpt>
      <trkpt lat="47.38627" lon="-2.09204">
        <ele>75.3</ele>
        <time>2011-11-13T09:27:51Z</time>
      </trkpt>
      <trkpt lat="47.38622" lon="-2.09204">
        <ele>74.7</ele>
        <time>2011-11-13T09:27:52Z</time>
      </trkpt>
      <trkpt lat="47.38616" lon="-2.09201">
        <ele>75.4</ele>
        <time>2011-11-13T09:27:53Z</time>
      </trkpt>
      <trkpt lat="47.3861" lon="-2.092">
        <ele>76</ele>
        <time>2011-11-13T09:27:54Z</time>
      </trkpt>
      <trkpt lat="47.38603" lon="-2.09196">
        <ele>75.3</ele>
        <time>2011-11-13T09:27:56Z</time>
      </trkpt>
      <trkpt lat="47.38597" lon="-2.09196">
        <ele>74.8</ele>
        <time>2011-11-13T09:27:58Z</time>
      </trkpt>
      <trkpt lat="47.38592" lon="-2.09189">
        <ele>68</ele>
        <time>2011-11-13T09:28:01Z</time>
      </trkpt>
      <trkpt lat="47.38595" lon="-2.092">
        <ele>64.4</ele>
        <time>2011-11-13T09:28:09Z</time>
      </trkpt>
      <trkpt lat="47.3859" lon="-2.09207">
        <ele>63.9</ele>
        <time>2011-11-13T09:28:12Z</time>
      </trkpt>
      <trkpt lat="47.3859" lon="-2.09216">
        <ele>65</ele>
        <time>2011-11-13T09:28:15Z</time>
      </trkpt>
      <trkpt lat="47.38591" lon="-2.09224">
        <ele>65.4</ele>
        <time>2011-11-13T09:28:17Z</time>
      </trkpt>
      <trkpt lat="47.38594" lon="-2.09233">
        <ele>66.4</ele>
        <time>2011-11-13T09:28:19Z</time>
      </trkpt>
      <trkpt lat="47.38594" lon="-2.09242">
        <ele>68</ele>
        <time>2011-11-13T09:28:21Z</time>
      </trkpt>
      <trkpt lat="47.38592" lon="-2.0925">
        <ele>67.3</ele>
        <time>2011-11-13T09:28:23Z</time>
      </trkpt>
      <trkpt lat="47.38591" lon="-2.09257">
        <ele>68</ele>
        <time>2011-11-13T09:28:25Z</time>
      </trkpt>
      <trkpt lat="47.38588" lon="-2.09263">
        <ele>67.6</ele>
        <time>2011-11-13T09:28:26Z</time>
      </trkpt>
      <trkpt lat="47.38589" lon="-2.0927">
        <ele>65.3</ele>
        <time>2011-11-13T09:28:27Z</time>
      </trkpt>
      <trkpt lat="47.38585" lon="-2.09275">
        <ele>63.1</ele>
        <time>2011-11-13T09:28:28Z</time>
      </trkpt>
      <trkpt lat="47.38577" lon="-2.09267">
        <ele>64</ele>
        <time>2011-11-13T09:28:31Z</time>
      </trkpt>
      <trkpt lat="47.38574" lon="-2.0926">
        <ele>65.2</ele>
        <time>2011-11-13T09:28:33Z</time>
      </trkpt>
      <trkpt lat="47.38571" lon="-2.09249">
        <ele>64.7</ele>
        <time>2011-11-13T09:28:35Z</time>
      </trkpt>
      <trkpt lat="47.38569" lon="-2.09237">
        <ele>65.3</ele>
        <time>2011-11-13T09:28:37Z</time>
      </trkpt>
      <trkpt lat="47.38568" lon="-2.09225">
        <ele>65.8</ele>
        <time>2011-11-13T09:28:39Z</time>
      </trkpt>
      <trkpt lat="47.38571" lon="-2.09219">
        <ele>66</ele>
        <time>2011-11-13T09:28:40Z</time>
      </trkpt>
      <trkpt lat="47.38573" lon="-2.09209">
        <ele>66.1</ele>
        <time>2011-11-13T09:28:42Z</time>
      </trkpt>
      <trkpt lat="47.38576" lon="-2.09201">
        <ele>66.4</ele>
        <time>2011-11-13T09:28:44Z</time>
      </trkpt>
      <trkpt lat="47.38574" lon="-2.09192">
        <ele>67.3</ele>
        <time>2011-11-13T09:28:47Z</time>
      </trkpt>
      <trkpt lat="47.38575" lon="-2.09185">
        <ele>67.9</ele>
        <time>2011-11-13T09:28:50Z</time>
      </trkpt>
      <trkpt lat="47.38579" lon="-2.09176">
        <ele>67.1</ele>
        <time>2011-11-13T09:28:52Z</time>
      </trkpt>
      <trkpt lat="47.38577" lon="-2.09169">
        <ele>68.4</ele>
        <time>2011-11-13T09:28:54Z</time>
      </trkpt>
      <trkpt lat="47.38574" lon="-2.09163">
        <ele>70</ele>
        <time>2011-11-13T09:28:55Z</time>
      </trkpt>
      <trkpt lat="47.38573" lon="-2.0915">
        <ele>70.5</ele>
        <time>2011-11-13T09:28:57Z</time>
      </trkpt>
      <trkpt lat="47.38574" lon="-2.09137">
        <ele>71.3</ele>
        <time>2011-11-13T09:28:59Z</time>
      </trkpt>
      <trkpt lat="47.38573" lon="-2.09127">
        <ele>72.5</ele>
        <time>2011-11-13T09:29:01Z</time>
      </trkpt>
      <trkpt lat="47.38575" lon="-2.09116">
        <ele>74.3</ele>
        <time>2011-11-13T09:29:03Z</time>
      </trkpt>
      <trkpt lat="47.38579" lon="-2.09098">
        <ele>65.2</ele>
        <time>2011-11-13T09:29:04Z</time>
      </trkpt>
      <trkpt lat="47.38582" lon="-2.09092">
        <ele>62.5</ele>
        <time>2011-11-13T09:29:05Z</time>
      </trkpt>
      <trkpt lat="47.38587" lon="-2.09087">
        <ele>60.7</ele>
        <time>2011-11-13T09:29:07Z</time>
      </trkpt>
      <trkpt lat="47.38591" lon="-2.09083">
        <ele>62.2</ele>
        <time>2011-11-13T09:29:09Z</time>
      </trkpt>
      <trkpt lat="47.38595" lon="-2.09078">
        <ele>62.7</ele>
        <time>2011-11-13T09:29:11Z</time>
      </trkpt>
      <trkpt lat="47.38599" lon="-2.09075">
        <ele>63.9</ele>
        <time>2011-11-13T09:29:13Z</time>
      </trkpt>
      <trkpt lat="47.38605" lon="-2.09072">
        <ele>65.4</ele>
        <time>2011-11-13T09:29:15Z</time>
      </trkpt>
      <trkpt lat="47.38612" lon="-2.09068">
        <ele>66.6</ele>
        <time>2011-11-13T09:29:16Z</time>
      </trkpt>
      <trkpt lat="47.38617" lon="-2.09066">
        <ele>66.7</ele>
        <time>2011-11-13T09:29:17Z</time>
      </trkpt>
      <trkpt lat="47.38625" lon="-2.09065">
        <ele>68</ele>
        <time>2011-11-13T09:29:19Z</time>
      </trkpt>
      <trkpt lat="47.38632" lon="-2.09063">
        <ele>69.9</ele>
        <time>2011-11-13T09:29:21Z</time>
      </trkpt>
      <trkpt lat="47.38636" lon="-2.09062">
        <ele>70.6</ele>
        <time>2011-11-13T09:29:22Z</time>
      </trkpt>
      <trkpt lat="47.38642" lon="-2.09061">
        <ele>71.1</ele>
        <time>2011-11-13T09:29:23Z</time>
      </trkpt>
      <trkpt lat="47.38647" lon="-2.0906">
        <ele>71.1</ele>
        <time>2011-11-13T09:29:24Z</time>
      </trkpt>
      <trkpt lat="47.38652" lon="-2.09059">
        <ele>72.8</ele>
        <time>2011-11-13T09:29:26Z</time>
      </trkpt>
      <trkpt lat="47.38659" lon="-2.09059">
        <ele>71.3</ele>
        <time>2011-11-13T09:29:28Z</time>
      </trkpt>
      <trkpt lat="47.38664" lon="-2.09056">
        <ele>71.8</ele>
        <time>2011-11-13T09:29:30Z</time>
      </trkpt>
      <trkpt lat="47.38669" lon="-2.0905">
        <ele>73.4</ele>
        <time>2011-11-13T09:29:33Z</time>
      </trkpt>
      <trkpt lat="47.38673" lon="-2.09044">
        <ele>74.2</ele>
        <time>2011-11-13T09:29:36Z</time>
      </trkpt>
      <trkpt lat="47.38678" lon="-2.0904">
        <ele>73.7</ele>
        <time>2011-11-13T09:29:38Z</time>
      </trkpt>
      <trkpt lat="47.38683" lon="-2.09035">
        <ele>72.7</ele>
        <time>2011-11-13T09:29:39Z</time>
      </trkpt>
      <trkpt lat="47.38688" lon="-2.09031">
        <ele>71.8</ele>
        <time>2011-11-13T09:29:40Z</time>
      </trkpt>
      <trkpt lat="47.38694" lon="-2.09024">
        <ele>71.4</ele>
        <time>2011-11-13T09:29:42Z</time>
      </trkpt>
      <trkpt lat="47.387" lon="-2.09017">
        <ele>70.8</ele>
        <time>2011-11-13T09:29:44Z</time>
      </trkpt>
      <trkpt lat="47.38704" lon="-2.09012">
        <ele>69.8</ele>
        <time>2011-11-13T09:29:47Z</time>
      </trkpt>
      <trkpt lat="47.38706" lon="-2.09007">
        <ele>70.9</ele>
        <time>2011-11-13T09:29:49Z</time>
      </trkpt>
      <trkpt lat="47.3871" lon="-2.09003">
        <ele>70.5</ele>
        <time>2011-11-13T09:29:50Z</time>
      </trkpt>
      <trkpt lat="47.38718" lon="-2.08999">
        <ele>70.6</ele>
        <time>2011-11-13T09:29:52Z</time>
      </trkpt>
      <trkpt lat="47.38724" lon="-2.08996">
        <ele>71.4</ele>
        <time>2011-11-13T09:29:54Z</time>
      </trkpt>
      <trkpt lat="47.38729" lon="-2.08998">
        <ele>71</ele>
        <time>2011-11-13T09:29:57Z</time>
      </trkpt>
      <trkpt lat="47.3873" lon="-2.09006">
        <ele>69.6</ele>
        <time>2011-11-13T09:30:01Z</time>
      </trkpt>
      <trkpt lat="47.38731" lon="-2.09013">
        <ele>70.1</ele>
        <time>2011-11-13T09:30:04Z</time>
      </trkpt>
      <trkpt lat="47.38731" lon="-2.09021">
        <ele>70</ele>
        <time>2011-11-13T09:30:07Z</time>
      </trkpt>
      <trkpt lat="47.38726" lon="-2.09024">
        <ele>69.3</ele>
        <time>2011-11-13T09:30:09Z</time>
      </trkpt>
      <trkpt lat="47.38721" lon="-2.09028">
        <ele>70.4</ele>
        <time>2011-11-13T09:30:12Z</time>
      </trkpt>
      <trkpt lat="47.38716" lon="-2.09034">
        <ele>70.4</ele>
        <time>2011-11-13T09:30:15Z</time>
      </trkpt>
      <trkpt lat="47.38715" lon="-2.09041">
        <ele>70.6</ele>
        <time>2011-11-13T09:30:17Z</time>
      </trkpt>
      <trkpt lat="47.38709" lon="-2.0905">
        <ele>69.3</ele>
        <time>2011-11-13T09:30:19Z</time>
      </trkpt>
      <trkpt lat="47.38704" lon="-2.09051">
        <ele>68</ele>
        <time>2011-11-13T09:30:22Z</time>
      </trkpt>
      <trkpt lat="47.38699" lon="-2.09052">
        <ele>67.4</ele>
        <time>2011-11-13T09:30:24Z</time>
      </trkpt>
      <trkpt lat="47.38704" lon="-2.09052">
        <ele>70.4</ele>
        <time>2011-11-13T09:30:31Z</time>
      </trkpt>
      <trkpt lat="47.38709" lon="-2.09054">
        <ele>71.8</ele>
        <time>2011-11-13T09:30:36Z</time>
      </trkpt>
      <trkpt lat="47.38715" lon="-2.09049">
        <ele>73</ele>
        <time>2011-11-13T09:30:39Z</time>
      </trkpt>
      <trkpt lat="47.38721" lon="-2.09043">
        <ele>73.4</ele>
        <time>2011-11-13T09:30:41Z</time>
      </trkpt>
      <trkpt lat="47.38725" lon="-2.09039">
        <ele>74.2</ele>
        <time>2011-11-13T09:30:43Z</time>
      </trkpt>
      <trkpt lat="47.38728" lon="-2.09035">
        <ele>74.6</ele>
        <time>2011-11-13T09:30:45Z</time>
      </trkpt>
      <trkpt lat="47.38731" lon="-2.09028">
        <ele>73.6</ele>
        <time>2011-11-13T09:30:47Z</time>
      </trkpt>
      <trkpt lat="47.38733" lon="-2.0902">
        <ele>73.4</ele>
        <time>2011-11-13T09:30:49Z</time>
      </trkpt>
      <trkpt lat="47.38738" lon="-2.09014">
        <ele>71.9</ele>
        <time>2011-11-13T09:30:52Z</time>
      </trkpt>
      <trkpt lat="47.38743" lon="-2.09011">
        <ele>71.7</ele>
        <time>2011-11-13T09:30:55Z</time>
      </trkpt>
      <trkpt lat="47.3875" lon="-2.0901">
        <ele>71.6</ele>
        <time>2011-11-13T09:30:58Z</time>
      </trkpt>
      <trkpt lat="47.38754" lon="-2.09008">
        <ele>71.4</ele>
        <time>2011-11-13T09:31:00Z</time>
      </trkpt>
      <trkpt lat="47.38759" lon="-2.09007">
        <ele>71.4</ele>
        <time>2011-11-13T09:31:02Z</time>
      </trkpt>
      <trkpt lat="47.38764" lon="-2.09005">
        <ele>70.9</ele>
        <time>2011-11-13T09:31:04Z</time>
      </trkpt>
      <trkpt lat="47.3877" lon="-2.09001">
        <ele>69.8</ele>
        <time>2011-11-13T09:31:06Z</time>
      </trkpt>
      <trkpt lat="47.38772" lon="-2.08991">
        <ele>70.8</ele>
        <time>2011-11-13T09:31:08Z</time>
      </trkpt>
      <trkpt lat="47.38771" lon="-2.08978">
        <ele>71.4</ele>
        <time>2011-11-13T09:31:10Z</time>
      </trkpt>
      <trkpt lat="47.3877" lon="-2.08972">
        <ele>71.9</ele>
        <time>2011-11-13T09:31:11Z</time>
      </trkpt>
      <trkpt lat="47.38769" lon="-2.08965">
        <ele>72.5</ele>
        <time>2011-11-13T09:31:12Z</time>
      </trkpt>
      <trkpt lat="47.38768" lon="-2.08957">
        <ele>72</ele>
        <time>2011-11-13T09:31:13Z</time>
      </trkpt>
      <trkpt lat="47.38767" lon="-2.0895">
        <ele>70.8</ele>
        <time>2011-11-13T09:31:14Z</time>
      </trkpt>
      <trkpt lat="47.38765" lon="-2.08941">
        <ele>70.2</ele>
        <time>2011-11-13T09:31:15Z</time>
      </trkpt>
      <trkpt lat="47.38764" lon="-2.08932">
        <ele>69.5</ele>
        <time>2011-11-13T09:31:16Z</time>
      </trkpt>
      <trkpt lat="47.38762" lon="-2.08923">
        <ele>69</ele>
        <time>2011-11-13T09:31:17Z</time>
      </trkpt>
      <trkpt lat="47.38761" lon="-2.08914">
        <ele>68.9</ele>
        <time>2011-11-13T09:31:18Z</time>
      </trkpt>
      <trkpt lat="47.38759" lon="-2.08905">
        <ele>68.8</ele>
        <time>2011-11-13T09:31:19Z</time>
      </trkpt>
      <trkpt lat="47.38757" lon="-2.08896">
        <ele>68.6</ele>
        <time>2011-11-13T09:31:20Z</time>
      </trkpt>
      <trkpt lat="47.38755" lon="-2.08885">
        <ele>68</ele>
        <time>2011-11-13T09:31:21Z</time>
      </trkpt>
      <trkpt lat="47.38754" lon="-2.08876">
        <ele>67.6</ele>
        <time>2011-11-13T09:31:22Z</time>
      </trkpt>
      <trkpt lat="47.38752" lon="-2.08867">
        <ele>67.4</ele>
        <time>2011-11-13T09:31:23Z</time>
      </trkpt>
      <trkpt lat="47.3875" lon="-2.08858">
        <ele>67.1</ele>
        <time>2011-11-13T09:31:24Z</time>
      </trkpt>
      <trkpt lat="47.38749" lon="-2.0885">
        <ele>66.9</ele>
        <time>2011-11-13T09:31:25Z</time>
      </trkpt>
      <trkpt lat="47.38747" lon="-2.08842">
        <ele>67</ele>
        <time>2011-11-13T09:31:26Z</time>
      </trkpt>
      <trkpt lat="47.38746" lon="-2.08833">
        <ele>67</ele>
        <time>2011-11-13T09:31:27Z</time>
      </trkpt>
      <trkpt lat="47.38744" lon="-2.08825">
        <ele>67.2</ele>
        <time>2011-11-13T09:31:28Z</time>
      </trkpt>
      <trkpt lat="47.38744" lon="-2.08817">
        <ele>67</ele>
        <time>2011-11-13T09:31:29Z</time>
      </trkpt>
      <trkpt lat="47.38745" lon="-2.08808">
        <ele>66.9</ele>
        <time>2011-11-13T09:31:30Z</time>
      </trkpt>
      <trkpt lat="47.38747" lon="-2.08799">
        <ele>67.1</ele>
        <time>2011-11-13T09:31:31Z</time>
      </trkpt>
      <trkpt lat="47.3875" lon="-2.08791">
        <ele>67.1</ele>
        <time>2011-11-13T09:31:32Z</time>
      </trkpt>
      <trkpt lat="47.38754" lon="-2.08784">
        <ele>67</ele>
        <time>2011-11-13T09:31:33Z</time>
      </trkpt>
      <trkpt lat="47.38758" lon="-2.08777">
        <ele>66.8</ele>
        <time>2011-11-13T09:31:34Z</time>
      </trkpt>
      <trkpt lat="47.38762" lon="-2.08773">
        <ele>65.9</ele>
        <time>2011-11-13T09:31:35Z</time>
      </trkpt>
      <trkpt lat="47.38768" lon="-2.08769">
        <ele>65.5</ele>
        <time>2011-11-13T09:31:36Z</time>
      </trkpt>
      <trkpt lat="47.3877" lon="-2.08763">
        <ele>65.5</ele>
        <time>2011-11-13T09:31:37Z</time>
      </trkpt>
      <trkpt lat="47.38785" lon="-2.08762">
        <ele>63.8</ele>
        <time>2011-11-13T09:31:39Z</time>
      </trkpt>
      <trkpt lat="47.38791" lon="-2.08759">
        <ele>63</ele>
        <time>2011-11-13T09:31:40Z</time>
      </trkpt>
      <trkpt lat="47.38798" lon="-2.08758">
        <ele>62.4</ele>
        <time>2011-11-13T09:31:41Z</time>
      </trkpt>
      <trkpt lat="47.38804" lon="-2.08756">
        <ele>61.6</ele>
        <time>2011-11-13T09:31:42Z</time>
      </trkpt>
      <trkpt lat="47.38811" lon="-2.08756">
        <ele>61.3</ele>
        <time>2011-11-13T09:31:43Z</time>
      </trkpt>
      <trkpt lat="47.38821" lon="-2.08756">
        <ele>60.8</ele>
        <time>2011-11-13T09:31:44Z</time>
      </trkpt>
      <trkpt lat="47.38827" lon="-2.08755">
        <ele>60.3</ele>
        <time>2011-11-13T09:31:45Z</time>
      </trkpt>
      <trkpt lat="47.38829" lon="-2.08749">
        <ele>60.6</ele>
        <time>2011-11-13T09:31:46Z</time>
      </trkpt>
      <trkpt lat="47.38835" lon="-2.08747">
        <ele>60.9</ele>
        <time>2011-11-13T09:31:47Z</time>
      </trkpt>
      <trkpt lat="47.3884" lon="-2.08744">
        <ele>61.6</ele>
        <time>2011-11-13T09:31:48Z</time>
      </trkpt>
      <trkpt lat="47.38846" lon="-2.08742">
        <ele>62</ele>
        <time>2011-11-13T09:31:49Z</time>
      </trkpt>
      <trkpt lat="47.38852" lon="-2.08739">
        <ele>61.8</ele>
        <time>2011-11-13T09:31:50Z</time>
      </trkpt>
      <trkpt lat="47.38857" lon="-2.08736">
        <ele>62</ele>
        <time>2011-11-13T09:31:51Z</time>
      </trkpt>
      <trkpt lat="47.38862" lon="-2.08732">
        <ele>62.1</ele>
        <time>2011-11-13T09:31:52Z</time>
      </trkpt>
      <trkpt lat="47.38867" lon="-2.08729">
        <ele>62.3</ele>
        <time>2011-11-13T09:31:53Z</time>
      </trkpt>
      <trkpt lat="47.38872" lon="-2.08725">
        <ele>62.4</ele>
        <time>2011-11-13T09:31:54Z</time>
      </trkpt>
      <trkpt lat="47.38878" lon="-2.08721">
        <ele>62.6</ele>
        <time>2011-11-13T09:31:55Z</time>
      </trkpt>
      <trkpt lat="47.38883" lon="-2.08717">
        <ele>62.5</ele>
        <time>2011-11-13T09:31:56Z</time>
      </trkpt>
      <trkpt lat="47.38888" lon="-2.08712">
        <ele>62.8</ele>
        <time>2011-11-13T09:31:57Z</time>
      </trkpt>
      <trkpt lat="47.38894" lon="-2.08709">
        <ele>62.6</ele>
        <time>2011-11-13T09:31:58Z</time>
      </trkpt>
      <trkpt lat="47.38897" lon="-2.08706">
        <ele>62.9</ele>
        <time>2011-11-13T09:31:59Z</time>
      </trkpt>
      <trkpt lat="47.38903" lon="-2.08702">
        <ele>63.6</ele>
        <time>2011-11-13T09:32:00Z</time>
      </trkpt>
      <trkpt lat="47.38908" lon="-2.08699">
        <ele>63.7</ele>
        <time>2011-11-13T09:32:01Z</time>
      </trkpt>
      <trkpt lat="47.38913" lon="-2.08696">
        <ele>63.9</ele>
        <time>2011-11-13T09:32:02Z</time>
      </trkpt>
      <trkpt lat="47.38917" lon="-2.08691">
        <ele>64.9</ele>
        <time>2011-11-13T09:32:03Z</time>
      </trkpt>
      <trkpt lat="47.38922" lon="-2.08688">
        <ele>64.9</ele>
        <time>2011-11-13T09:32:04Z</time>
      </trkpt>
      <trkpt lat="47.38926" lon="-2.08684">
        <ele>65.3</ele>
        <time>2011-11-13T09:32:05Z</time>
      </trkpt>
      <trkpt lat="47.38934" lon="-2.0868">
        <ele>66.1</ele>
        <time>2011-11-13T09:32:07Z</time>
      </trkpt>
      <trkpt lat="47.38939" lon="-2.08678">
        <ele>66.3</ele>
        <time>2011-11-13T09:32:08Z</time>
      </trkpt>
      <trkpt lat="47.38944" lon="-2.08677">
        <ele>65.9</ele>
        <time>2011-11-13T09:32:09Z</time>
      </trkpt>
      <trkpt lat="47.38949" lon="-2.08676">
        <ele>65.2</ele>
        <time>2011-11-13T09:32:10Z</time>
      </trkpt>
      <trkpt lat="47.38956" lon="-2.08673">
        <ele>65.2</ele>
        <time>2011-11-13T09:32:12Z</time>
      </trkpt>
      <trkpt lat="47.3896" lon="-2.08669">
        <ele>63.3</ele>
        <time>2011-11-13T09:32:14Z</time>
      </trkpt>
      <trkpt lat="47.38958" lon="-2.08663">
        <ele>63</ele>
        <time>2011-11-13T09:32:16Z</time>
      </trkpt>
      <trkpt lat="47.38951" lon="-2.08657">
        <ele>63.4</ele>
        <time>2011-11-13T09:32:18Z</time>
      </trkpt>
      <trkpt lat="47.38945" lon="-2.0865">
        <ele>63.8</ele>
        <time>2011-11-13T09:32:19Z</time>
      </trkpt>
      <trkpt lat="47.38937" lon="-2.08643">
        <ele>65.6</ele>
        <time>2011-11-13T09:32:21Z</time>
      </trkpt>
      <trkpt lat="47.38931" lon="-2.08644">
        <ele>65.3</ele>
        <time>2011-11-13T09:32:22Z</time>
      </trkpt>
      <trkpt lat="47.38926" lon="-2.08641">
        <ele>66</ele>
        <time>2011-11-13T09:32:23Z</time>
      </trkpt>
      <trkpt lat="47.3892" lon="-2.08638">
        <ele>66</ele>
        <time>2011-11-13T09:32:24Z</time>
      </trkpt>
      <trkpt lat="47.38912" lon="-2.08633">
        <ele>66.7</ele>
        <time>2011-11-13T09:32:26Z</time>
      </trkpt>
      <trkpt lat="47.38908" lon="-2.0863">
        <ele>66.9</ele>
        <time>2011-11-13T09:32:27Z</time>
      </trkpt>
      <trkpt lat="47.38902" lon="-2.08624">
        <ele>67.7</ele>
        <time>2011-11-13T09:32:29Z</time>
      </trkpt>
      <trkpt lat="47.3889" lon="-2.08619">
        <ele>67.7</ele>
        <time>2011-11-13T09:32:31Z</time>
      </trkpt>
      <trkpt lat="47.38882" lon="-2.08617">
        <ele>67.5</ele>
        <time>2011-11-13T09:32:33Z</time>
      </trkpt>
      <trkpt lat="47.38876" lon="-2.08616">
        <ele>67.6</ele>
        <time>2011-11-13T09:32:34Z</time>
      </trkpt>
      <trkpt lat="47.38869" lon="-2.08607">
        <ele>66.7</ele>
        <time>2011-11-13T09:32:35Z</time>
      </trkpt>
      <trkpt lat="47.38864" lon="-2.08603">
        <ele>66.3</ele>
        <time>2011-11-13T09:32:36Z</time>
      </trkpt>
      <trkpt lat="47.3886" lon="-2.08597">
        <ele>66.2</ele>
        <time>2011-11-13T09:32:37Z</time>
      </trkpt>
      <trkpt lat="47.38848" lon="-2.08589">
        <ele>66.7</ele>
        <time>2011-11-13T09:32:39Z</time>
      </trkpt>
      <trkpt lat="47.38842" lon="-2.08587">
        <ele>67.1</ele>
        <time>2011-11-13T09:32:40Z</time>
      </trkpt>
      <trkpt lat="47.38833" lon="-2.08579">
        <ele>67.8</ele>
        <time>2011-11-13T09:32:42Z</time>
      </trkpt>
      <trkpt lat="47.38827" lon="-2.08573">
        <ele>67.5</ele>
        <time>2011-11-13T09:32:43Z</time>
      </trkpt>
      <trkpt lat="47.38819" lon="-2.0857">
        <ele>68.3</ele>
        <time>2011-11-13T09:32:44Z</time>
      </trkpt>
      <trkpt lat="47.38812" lon="-2.08568">
        <ele>69.1</ele>
        <time>2011-11-13T09:32:45Z</time>
      </trkpt>
      <trkpt lat="47.38806" lon="-2.0856">
        <ele>69.5</ele>
        <time>2011-11-13T09:32:46Z</time>
      </trkpt>
      <trkpt lat="47.38799" lon="-2.08555">
        <ele>69.4</ele>
        <time>2011-11-13T09:32:47Z</time>
      </trkpt>
      <trkpt lat="47.38794" lon="-2.08552">
        <ele>69.8</ele>
        <time>2011-11-13T09:32:48Z</time>
      </trkpt>
      <trkpt lat="47.38786" lon="-2.08549">
        <ele>69.7</ele>
        <time>2011-11-13T09:32:49Z</time>
      </trkpt>
      <trkpt lat="47.38781" lon="-2.08544">
        <ele>69.7</ele>
        <time>2011-11-13T09:32:50Z</time>
      </trkpt>
      <trkpt lat="47.38775" lon="-2.08538">
        <ele>70.7</ele>
        <time>2011-11-13T09:32:51Z</time>
      </trkpt>
      <trkpt lat="47.38767" lon="-2.08534">
        <ele>69.3</ele>
        <time>2011-11-13T09:32:52Z</time>
      </trkpt>
      <trkpt lat="47.38764" lon="-2.08528">
        <ele>69.6</ele>
        <time>2011-11-13T09:32:53Z</time>
      </trkpt>
      <trkpt lat="47.38762" lon="-2.0852">
        <ele>70.6</ele>
        <time>2011-11-13T09:32:54Z</time>
      </trkpt>
      <trkpt lat="47.38762" lon="-2.08513">
        <ele>69.9</ele>
        <time>2011-11-13T09:32:55Z</time>
      </trkpt>
      <trkpt lat="47.38762" lon="-2.08503">
        <ele>69.6</ele>
        <time>2011-11-13T09:32:56Z</time>
      </trkpt>
      <trkpt lat="47.38763" lon="-2.0849">
        <ele>69.3</ele>
        <time>2011-11-13T09:32:57Z</time>
      </trkpt>
      <trkpt lat="47.38764" lon="-2.08483">
        <ele>69.4</ele>
        <time>2011-11-13T09:32:58Z</time>
      </trkpt>
      <trkpt lat="47.38767" lon="-2.08473">
        <ele>69</ele>
        <time>2011-11-13T09:32:59Z</time>
      </trkpt>
      <trkpt lat="47.38765" lon="-2.08463">
        <ele>69.1</ele>
        <time>2011-11-13T09:33:00Z</time>
      </trkpt>
      <trkpt lat="47.38764" lon="-2.08452">
        <ele>68.4</ele>
        <time>2011-11-13T09:33:01Z</time>
      </trkpt>
      <trkpt lat="47.38768" lon="-2.08442">
        <ele>68.5</ele>
        <time>2011-11-13T09:33:02Z</time>
      </trkpt>
      <trkpt lat="47.38768" lon="-2.08428">
        <ele>69.1</ele>
        <time>2011-11-13T09:33:04Z</time>
      </trkpt>
      <trkpt lat="47.38772" lon="-2.08417">
        <ele>69.9</ele>
        <time>2011-11-13T09:33:05Z</time>
      </trkpt>
      <trkpt lat="47.3877" lon="-2.08406">
        <ele>69.5</ele>
        <time>2011-11-13T09:33:06Z</time>
      </trkpt>
      <trkpt lat="47.38773" lon="-2.08396">
        <ele>69.3</ele>
        <time>2011-11-13T09:33:07Z</time>
      </trkpt>
      <trkpt lat="47.38771" lon="-2.08388">
        <ele>69.2</ele>
        <time>2011-11-13T09:33:08Z</time>
      </trkpt>
      <trkpt lat="47.38775" lon="-2.08377">
        <ele>70</ele>
        <time>2011-11-13T09:33:09Z</time>
      </trkpt>
      <trkpt lat="47.38776" lon="-2.08366">
        <ele>69.5</ele>
        <time>2011-11-13T09:33:10Z</time>
      </trkpt>
      <trkpt lat="47.38777" lon="-2.08355">
        <ele>69.4</ele>
        <time>2011-11-13T09:33:11Z</time>
      </trkpt>
      <trkpt lat="47.3878" lon="-2.08344">
        <ele>69.5</ele>
        <time>2011-11-13T09:33:12Z</time>
      </trkpt>
      <trkpt lat="47.38777" lon="-2.08338">
        <ele>69.2</ele>
        <time>2011-11-13T09:33:13Z</time>
      </trkpt>
      <trkpt lat="47.38777" lon="-2.08331">
        <ele>69.7</ele>
        <time>2011-11-13T09:33:14Z</time>
      </trkpt>
      <trkpt lat="47.38777" lon="-2.08318">
        <ele>69.4</ele>
        <time>2011-11-13T09:33:16Z</time>
      </trkpt>
      <trkpt lat="47.38774" lon="-2.08308">
        <ele>69.2</ele>
        <time>2011-11-13T09:33:17Z</time>
      </trkpt>
      <trkpt lat="47.38772" lon="-2.083">
        <ele>68.5</ele>
        <time>2011-11-13T09:33:18Z</time>
      </trkpt>
      <trkpt lat="47.38779" lon="-2.08284">
        <ele>67.5</ele>
        <time>2011-11-13T09:33:20Z</time>
      </trkpt>
      <trkpt lat="47.38781" lon="-2.08277">
        <ele>68.7</ele>
        <time>2011-11-13T09:33:21Z</time>
      </trkpt>
      <trkpt lat="47.38786" lon="-2.08269">
        <ele>69.2</ele>
        <time>2011-11-13T09:33:22Z</time>
      </trkpt>
      <trkpt lat="47.38791" lon="-2.0826">
        <ele>68.1</ele>
        <time>2011-11-13T09:33:23Z</time>
      </trkpt>
      <trkpt lat="47.38796" lon="-2.08254">
        <ele>67.3</ele>
        <time>2011-11-13T09:33:24Z</time>
      </trkpt>
      <trkpt lat="47.388" lon="-2.08246">
        <ele>67.2</ele>
        <time>2011-11-13T09:33:25Z</time>
      </trkpt>
      <trkpt lat="47.38805" lon="-2.08241">
        <ele>67</ele>
        <time>2011-11-13T09:33:26Z</time>
      </trkpt>
      <trkpt lat="47.3881" lon="-2.08234">
        <ele>67.5</ele>
        <time>2011-11-13T09:33:27Z</time>
      </trkpt>
      <trkpt lat="47.38814" lon="-2.08228">
        <ele>67.3</ele>
        <time>2011-11-13T09:33:28Z</time>
      </trkpt>
      <trkpt lat="47.38819" lon="-2.08224">
        <ele>66.9</ele>
        <time>2011-11-13T09:33:29Z</time>
      </trkpt>
      <trkpt lat="47.38825" lon="-2.08218">
        <ele>66.2</ele>
        <time>2011-11-13T09:33:31Z</time>
      </trkpt>
      <trkpt lat="47.3883" lon="-2.08213">
        <ele>65.8</ele>
        <time>2011-11-13T09:33:32Z</time>
      </trkpt>
      <trkpt lat="47.38836" lon="-2.08213">
        <ele>66.8</ele>
        <time>2011-11-13T09:33:33Z</time>
      </trkpt>
      <trkpt lat="47.38839" lon="-2.08209">
        <ele>67</ele>
        <time>2011-11-13T09:33:34Z</time>
      </trkpt>
      <trkpt lat="47.38846" lon="-2.08202">
        <ele>66.5</ele>
        <time>2011-11-13T09:33:36Z</time>
      </trkpt>
      <trkpt lat="47.38851" lon="-2.08201">
        <ele>67.2</ele>
        <time>2011-11-13T09:33:37Z</time>
      </trkpt>
      <trkpt lat="47.38859" lon="-2.08202">
        <ele>66.6</ele>
        <time>2011-11-13T09:33:38Z</time>
      </trkpt>
      <trkpt lat="47.38867" lon="-2.08198">
        <ele>65.5</ele>
        <time>2011-11-13T09:33:40Z</time>
      </trkpt>
      <trkpt lat="47.38874" lon="-2.08195">
        <ele>64.6</ele>
        <time>2011-11-13T09:33:41Z</time>
      </trkpt>
      <trkpt lat="47.38887" lon="-2.08194">
        <ele>61.4</ele>
        <time>2011-11-13T09:33:42Z</time>
      </trkpt>
      <trkpt lat="47.38892" lon="-2.08197">
        <ele>61.3</ele>
        <time>2011-11-13T09:33:43Z</time>
      </trkpt>
      <trkpt lat="47.389" lon="-2.08193">
        <ele>60.7</ele>
        <time>2011-11-13T09:33:46Z</time>
      </trkpt>
      <trkpt lat="47.38902" lon="-2.08188">
        <ele>62.3</ele>
        <time>2011-11-13T09:33:48Z</time>
      </trkpt>
      <trkpt lat="47.38908" lon="-2.08191">
        <ele>66.5</ele>
        <time>2011-11-13T09:33:49Z</time>
      </trkpt>
      <trkpt lat="47.38914" lon="-2.0819">
        <ele>66.5</ele>
        <time>2011-11-13T09:33:50Z</time>
      </trkpt>
      <trkpt lat="47.38919" lon="-2.08193">
        <ele>69.2</ele>
        <time>2011-11-13T09:33:51Z</time>
      </trkpt>
      <trkpt lat="47.38926" lon="-2.08196">
        <ele>68.4</ele>
        <time>2011-11-13T09:33:52Z</time>
      </trkpt>
      <trkpt lat="47.38935" lon="-2.082">
        <ele>69.3</ele>
        <time>2011-11-13T09:33:54Z</time>
      </trkpt>
      <trkpt lat="47.3894" lon="-2.08204">
        <ele>69</ele>
        <time>2011-11-13T09:33:56Z</time>
      </trkpt>
      <trkpt lat="47.38944" lon="-2.08209">
        <ele>69.9</ele>
        <time>2011-11-13T09:33:57Z</time>
      </trkpt>
      <trkpt lat="47.38948" lon="-2.08213">
        <ele>69.6</ele>
        <time>2011-11-13T09:33:58Z</time>
      </trkpt>
      <trkpt lat="47.38954" lon="-2.08217">
        <ele>68.9</ele>
        <time>2011-11-13T09:33:59Z</time>
      </trkpt>
      <trkpt lat="47.38959" lon="-2.08222">
        <ele>69.1</ele>
        <time>2011-11-13T09:34:00Z</time>
      </trkpt>
      <trkpt lat="47.38966" lon="-2.08231">
        <ele>68.7</ele>
        <time>2011-11-13T09:34:01Z</time>
      </trkpt>
      <trkpt lat="47.38977" lon="-2.08239">
        <ele>68</ele>
        <time>2011-11-13T09:34:03Z</time>
      </trkpt>
      <trkpt lat="47.38984" lon="-2.08245">
        <ele>69.1</ele>
        <time>2011-11-13T09:34:04Z</time>
      </trkpt>
      <trkpt lat="47.38989" lon="-2.08247">
        <ele>69.6</ele>
        <time>2011-11-13T09:34:05Z</time>
      </trkpt>
      <trkpt lat="47.38994" lon="-2.0825">
        <ele>70.1</ele>
        <time>2011-11-13T09:34:06Z</time>
      </trkpt>
      <trkpt lat="47.38998" lon="-2.08254">
        <ele>70.9</ele>
        <time>2011-11-13T09:34:07Z</time>
      </trkpt>
      <trkpt lat="47.39004" lon="-2.08256">
        <ele>71</ele>
        <time>2011-11-13T09:34:08Z</time>
      </trkpt>
      <trkpt lat="47.39007" lon="-2.08261">
        <ele>71.5</ele>
        <time>2011-11-13T09:34:09Z</time>
      </trkpt>
      <trkpt lat="47.39012" lon="-2.08267">
        <ele>72</ele>
        <time>2011-11-13T09:34:10Z</time>
      </trkpt>
      <trkpt lat="47.39016" lon="-2.08274">
        <ele>71.7</ele>
        <time>2011-11-13T09:34:11Z</time>
      </trkpt>
      <trkpt lat="47.39021" lon="-2.0828">
        <ele>72.8</ele>
        <time>2011-11-13T09:34:12Z</time>
      </trkpt>
      <trkpt lat="47.39025" lon="-2.08287">
        <ele>72.6</ele>
        <time>2011-11-13T09:34:13Z</time>
      </trkpt>
      <trkpt lat="47.39029" lon="-2.08294">
        <ele>72</ele>
        <time>2011-11-13T09:34:14Z</time>
      </trkpt>
      <trkpt lat="47.39034" lon="-2.08304">
        <ele>71.3</ele>
        <time>2011-11-13T09:34:15Z</time>
      </trkpt>
      <trkpt lat="47.39038" lon="-2.08312">
        <ele>70.8</ele>
        <time>2011-11-13T09:34:16Z</time>
      </trkpt>
      <trkpt lat="47.39042" lon="-2.08319">
        <ele>70.7</ele>
        <time>2011-11-13T09:34:17Z</time>
      </trkpt>
      <trkpt lat="47.39046" lon="-2.08326">
        <ele>70.5</ele>
        <time>2011-11-13T09:34:18Z</time>
      </trkpt>
      <trkpt lat="47.39055" lon="-2.08332">
        <ele>69.7</ele>
        <time>2011-11-13T09:34:20Z</time>
      </trkpt>
      <trkpt lat="47.39062" lon="-2.0834">
        <ele>69.3</ele>
        <time>2011-11-13T09:34:22Z</time>
      </trkpt>
      <trkpt lat="47.39068" lon="-2.08349">
        <ele>68.4</ele>
        <time>2011-11-13T09:34:23Z</time>
      </trkpt>
      <trkpt lat="47.39072" lon="-2.08356">
        <ele>68.1</ele>
        <time>2011-11-13T09:34:24Z</time>
      </trkpt>
      <trkpt lat="47.39077" lon="-2.08364">
        <ele>67.5</ele>
        <time>2011-11-13T09:34:25Z</time>
      </trkpt>
      <trkpt lat="47.39081" lon="-2.08373">
        <ele>67</ele>
        <time>2011-11-13T09:34:26Z</time>
      </trkpt>
      <trkpt lat="47.39084" lon="-2.0838">
        <ele>67</ele>
        <time>2011-11-13T09:34:27Z</time>
      </trkpt>
      <trkpt lat="47.39088" lon="-2.0839">
        <ele>67.3</ele>
        <time>2011-11-13T09:34:29Z</time>
      </trkpt>
      <trkpt lat="47.39091" lon="-2.08399">
        <ele>67.3</ele>
        <time>2011-11-13T09:34:31Z</time>
      </trkpt>
      <trkpt lat="47.39098" lon="-2.08406">
        <ele>66.4</ele>
        <time>2011-11-13T09:34:33Z</time>
      </trkpt>
      <trkpt lat="47.39102" lon="-2.08409">
        <ele>65.9</ele>
        <time>2011-11-13T09:34:34Z</time>
      </trkpt>
      <trkpt lat="47.3911" lon="-2.08416">
        <ele>65.4</ele>
        <time>2011-11-13T09:34:36Z</time>
      </trkpt>
      <trkpt lat="47.39116" lon="-2.08418">
        <ele>65.2</ele>
        <time>2011-11-13T09:34:37Z</time>
      </trkpt>
      <trkpt lat="47.39123" lon="-2.08423">
        <ele>66.5</ele>
        <time>2011-11-13T09:34:40Z</time>
      </trkpt>
      <trkpt lat="47.39131" lon="-2.08427">
        <ele>65.7</ele>
        <time>2011-11-13T09:34:42Z</time>
      </trkpt>
      <trkpt lat="47.39139" lon="-2.08431">
        <ele>63.9</ele>
        <time>2011-11-13T09:34:43Z</time>
      </trkpt>
      <trkpt lat="47.39145" lon="-2.08431">
        <ele>63.6</ele>
        <time>2011-11-13T09:34:44Z</time>
      </trkpt>
      <trkpt lat="47.39152" lon="-2.0843">
        <ele>63.1</ele>
        <time>2011-11-13T09:34:45Z</time>
      </trkpt>
      <trkpt lat="47.39157" lon="-2.08428">
        <ele>63.1</ele>
        <time>2011-11-13T09:34:46Z</time>
      </trkpt>
      <trkpt lat="47.39163" lon="-2.08425">
        <ele>63.1</ele>
        <time>2011-11-13T09:34:47Z</time>
      </trkpt>
      <trkpt lat="47.39168" lon="-2.08421">
        <ele>63</ele>
        <time>2011-11-13T09:34:48Z</time>
      </trkpt>
      <trkpt lat="47.39174" lon="-2.08416">
        <ele>63.1</ele>
        <time>2011-11-13T09:34:49Z</time>
      </trkpt>
      <trkpt lat="47.39181" lon="-2.08409">
        <ele>62.7</ele>
        <time>2011-11-13T09:34:50Z</time>
      </trkpt>
      <trkpt lat="47.39187" lon="-2.08404">
        <ele>62.7</ele>
        <time>2011-11-13T09:34:51Z</time>
      </trkpt>
      <trkpt lat="47.39192" lon="-2.08399">
        <ele>62.7</ele>
        <time>2011-11-13T09:34:52Z</time>
      </trkpt>
      <trkpt lat="47.39197" lon="-2.08395">
        <ele>62.8</ele>
        <time>2011-11-13T09:34:53Z</time>
      </trkpt>
      <trkpt lat="47.39203" lon="-2.08392">
        <ele>62.9</ele>
        <time>2011-11-13T09:34:54Z</time>
      </trkpt>
      <trkpt lat="47.39208" lon="-2.08387">
        <ele>62.6</ele>
        <time>2011-11-13T09:34:55Z</time>
      </trkpt>
      <trkpt lat="47.39212" lon="-2.08381">
        <ele>62</ele>
        <time>2011-11-13T09:34:56Z</time>
      </trkpt>
      <trkpt lat="47.39217" lon="-2.08375">
        <ele>62</ele>
        <time>2011-11-13T09:34:57Z</time>
      </trkpt>
      <trkpt lat="47.39223" lon="-2.0837">
        <ele>62.2</ele>
        <time>2011-11-13T09:34:58Z</time>
      </trkpt>
      <trkpt lat="47.39228" lon="-2.08366">
        <ele>62.1</ele>
        <time>2011-11-13T09:34:59Z</time>
      </trkpt>
      <trkpt lat="47.39233" lon="-2.0836">
        <ele>61.9</ele>
        <time>2011-11-13T09:35:00Z</time>
      </trkpt>
      <trkpt lat="47.39238" lon="-2.08355">
        <ele>61.5</ele>
        <time>2011-11-13T09:35:01Z</time>
      </trkpt>
      <trkpt lat="47.39246" lon="-2.0835">
        <ele>60.5</ele>
        <time>2011-11-13T09:35:02Z</time>
      </trkpt>
      <trkpt lat="47.39249" lon="-2.08342">
        <ele>60.1</ele>
        <time>2011-11-13T09:35:03Z</time>
      </trkpt>
      <trkpt lat="47.39253" lon="-2.08335">
        <ele>60.2</ele>
        <time>2011-11-13T09:35:04Z</time>
      </trkpt>
      <trkpt lat="47.39258" lon="-2.08334">
        <ele>60.3</ele>
        <time>2011-11-13T09:35:05Z</time>
      </trkpt>
      <trkpt lat="47.39264" lon="-2.08329">
        <ele>60.6</ele>
        <time>2011-11-13T09:35:07Z</time>
      </trkpt>
      <trkpt lat="47.39271" lon="-2.08322">
        <ele>60</ele>
        <time>2011-11-13T09:35:09Z</time>
      </trkpt>
      <trkpt lat="47.39277" lon="-2.08321">
        <ele>61.6</ele>
        <time>2011-11-13T09:35:10Z</time>
      </trkpt>
      <trkpt lat="47.39277" lon="-2.08313">
        <ele>60.3</ele>
        <time>2011-11-13T09:35:11Z</time>
      </trkpt>
      <trkpt lat="47.39285" lon="-2.083">
        <ele>61.8</ele>
        <time>2011-11-13T09:35:13Z</time>
      </trkpt>
      <trkpt lat="47.3929" lon="-2.08294">
        <ele>61.5</ele>
        <time>2011-11-13T09:35:14Z</time>
      </trkpt>
      <trkpt lat="47.39296" lon="-2.08287">
        <ele>60.4</ele>
        <time>2011-11-13T09:35:15Z</time>
      </trkpt>
      <trkpt lat="47.39302" lon="-2.0828">
        <ele>61.4</ele>
        <time>2011-11-13T09:35:16Z</time>
      </trkpt>
      <trkpt lat="47.39306" lon="-2.08273">
        <ele>62.2</ele>
        <time>2011-11-13T09:35:17Z</time>
      </trkpt>
      <trkpt lat="47.3931" lon="-2.08265">
        <ele>62.2</ele>
        <time>2011-11-13T09:35:19Z</time>
      </trkpt>
      <trkpt lat="47.39315" lon="-2.08258">
        <ele>62.3</ele>
        <time>2011-11-13T09:35:20Z</time>
      </trkpt>
      <trkpt lat="47.39319" lon="-2.08253">
        <ele>62.4</ele>
        <time>2011-11-13T09:35:21Z</time>
      </trkpt>
      <trkpt lat="47.39325" lon="-2.0825">
        <ele>62.6</ele>
        <time>2011-11-13T09:35:22Z</time>
      </trkpt>
      <trkpt lat="47.39329" lon="-2.08246">
        <ele>62.8</ele>
        <time>2011-11-13T09:35:23Z</time>
      </trkpt>
      <trkpt lat="47.39333" lon="-2.08236">
        <ele>63.4</ele>
        <time>2011-11-13T09:35:25Z</time>
      </trkpt>
      <trkpt lat="47.3934" lon="-2.08239">
        <ele>64.8</ele>
        <time>2011-11-13T09:35:28Z</time>
      </trkpt>
      <trkpt lat="47.39336" lon="-2.08235">
        <ele>65.9</ele>
        <time>2011-11-13T09:35:37Z</time>
      </trkpt>
      <trkpt lat="47.39328" lon="-2.08238">
        <ele>64.8</ele>
        <time>2011-11-13T09:35:41Z</time>
      </trkpt>
      <trkpt lat="47.39323" lon="-2.08238">
        <ele>66.2</ele>
        <time>2011-11-13T09:35:47Z</time>
      </trkpt>
      <trkpt lat="47.39318" lon="-2.08238">
        <ele>65.4</ele>
        <time>2011-11-13T09:35:52Z</time>
      </trkpt>
      <trkpt lat="47.39313" lon="-2.08234">
        <ele>68.4</ele>
        <time>2011-11-13T09:35:55Z</time>
      </trkpt>
      <trkpt lat="47.39313" lon="-2.08222">
        <ele>69.1</ele>
        <time>2011-11-13T09:35:57Z</time>
      </trkpt>
      <trkpt lat="47.39314" lon="-2.08215">
        <ele>69.2</ele>
        <time>2011-11-13T09:35:58Z</time>
      </trkpt>
      <trkpt lat="47.39317" lon="-2.08211">
        <ele>68.2</ele>
        <time>2011-11-13T09:36:02Z</time>
      </trkpt>
      <trkpt lat="47.39321" lon="-2.08206">
        <ele>67.2</ele>
        <time>2011-11-13T09:36:04Z</time>
      </trkpt>
      <trkpt lat="47.39326" lon="-2.08206">
        <ele>65.7</ele>
        <time>2011-11-13T09:36:07Z</time>
      </trkpt>
      <trkpt lat="47.39331" lon="-2.08202">
        <ele>66.6</ele>
        <time>2011-11-13T09:36:10Z</time>
      </trkpt>
      <trkpt lat="47.39337" lon="-2.082">
        <ele>67.5</ele>
        <time>2011-11-13T09:36:13Z</time>
      </trkpt>
      <trkpt lat="47.3934" lon="-2.08194">
        <ele>68.8</ele>
        <time>2011-11-13T09:36:15Z</time>
      </trkpt>
      <trkpt lat="47.39345" lon="-2.08191">
        <ele>68.4</ele>
        <time>2011-11-13T09:36:17Z</time>
      </trkpt>
      <trkpt lat="47.39344" lon="-2.08183">
        <ele>69.2</ele>
        <time>2011-11-13T09:36:20Z</time>
      </trkpt>
      <trkpt lat="47.39341" lon="-2.08175">
        <ele>69.8</ele>
        <time>2011-11-13T09:36:23Z</time>
      </trkpt>
      <trkpt lat="47.39337" lon="-2.08168">
        <ele>68.6</ele>
        <time>2011-11-13T09:36:25Z</time>
      </trkpt>
      <trkpt lat="47.39334" lon="-2.0816">
        <ele>68.7</ele>
        <time>2011-11-13T09:36:27Z</time>
      </trkpt>
      <trkpt lat="47.39334" lon="-2.08153">
        <ele>69.2</ele>
        <time>2011-11-13T09:36:28Z</time>
      </trkpt>
      <trkpt lat="47.39332" lon="-2.08145">
        <ele>71.3</ele>
        <time>2011-11-13T09:36:30Z</time>
      </trkpt>
      <trkpt lat="47.39333" lon="-2.08138">
        <ele>70.1</ele>
        <time>2011-11-13T09:36:31Z</time>
      </trkpt>
      <trkpt lat="47.39335" lon="-2.08127">
        <ele>68.7</ele>
        <time>2011-11-13T09:36:33Z</time>
      </trkpt>
      <trkpt lat="47.39336" lon="-2.08119">
        <ele>69.5</ele>
        <time>2011-11-13T09:36:35Z</time>
      </trkpt>
      <trkpt lat="47.3934" lon="-2.08111">
        <ele>71.2</ele>
        <time>2011-11-13T09:36:37Z</time>
      </trkpt>
      <trkpt lat="47.39344" lon="-2.08102">
        <ele>66.6</ele>
        <time>2011-11-13T09:36:38Z</time>
      </trkpt>
      <trkpt lat="47.39349" lon="-2.08098">
        <ele>66.8</ele>
        <time>2011-11-13T09:36:40Z</time>
      </trkpt>
      <trkpt lat="47.39354" lon="-2.08092">
        <ele>67.3</ele>
        <time>2011-11-13T09:36:42Z</time>
      </trkpt>
      <trkpt lat="47.39359" lon="-2.08085">
        <ele>65</ele>
        <time>2011-11-13T09:36:44Z</time>
      </trkpt>
      <trkpt lat="47.39366" lon="-2.08079">
        <ele>64.3</ele>
        <time>2011-11-13T09:36:46Z</time>
      </trkpt>
      <trkpt lat="47.3937" lon="-2.08079">
        <ele>64</ele>
        <time>2011-11-13T09:36:47Z</time>
      </trkpt>
      <trkpt lat="47.39378" lon="-2.08079">
        <ele>64.2</ele>
        <time>2011-11-13T09:36:49Z</time>
      </trkpt>
      <trkpt lat="47.39385" lon="-2.08079">
        <ele>63.4</ele>
        <time>2011-11-13T09:36:51Z</time>
      </trkpt>
      <trkpt lat="47.39387" lon="-2.0809">
        <ele>61.9</ele>
        <time>2011-11-13T09:36:53Z</time>
      </trkpt>
      <trkpt lat="47.39388" lon="-2.08098">
        <ele>61.9</ele>
        <time>2011-11-13T09:36:55Z</time>
      </trkpt>
      <trkpt lat="47.39385" lon="-2.08105">
        <ele>61.6</ele>
        <time>2011-11-13T09:36:59Z</time>
      </trkpt>
      <trkpt lat="47.39379" lon="-2.08106">
        <ele>59.8</ele>
        <time>2011-11-13T09:37:01Z</time>
      </trkpt>
      <trkpt lat="47.39377" lon="-2.08113">
        <ele>59.8</ele>
        <time>2011-11-13T09:37:03Z</time>
      </trkpt>
      <trkpt lat="47.39375" lon="-2.08118">
        <ele>60.4</ele>
        <time>2011-11-13T09:37:05Z</time>
      </trkpt>
      <trkpt lat="47.39372" lon="-2.08125">
        <ele>63.4</ele>
        <time>2011-11-13T09:37:08Z</time>
      </trkpt>
      <trkpt lat="47.39372" lon="-2.08132">
        <ele>65</ele>
        <time>2011-11-13T09:37:11Z</time>
      </trkpt>
      <trkpt lat="47.39375" lon="-2.08138">
        <ele>65.3</ele>
        <time>2011-11-13T09:37:13Z</time>
      </trkpt>
      <trkpt lat="47.39381" lon="-2.08143">
        <ele>65</ele>
        <time>2011-11-13T09:37:19Z</time>
      </trkpt>
      <trkpt lat="47.39384" lon="-2.08148">
        <ele>65.1</ele>
        <time>2011-11-13T09:37:21Z</time>
      </trkpt>
      <trkpt lat="47.39385" lon="-2.08156">
        <ele>64.2</ele>
        <time>2011-11-13T09:37:25Z</time>
      </trkpt>
      <trkpt lat="47.39389" lon="-2.08157">
        <ele>63.5</ele>
        <time>2011-11-13T09:37:28Z</time>
      </trkpt>
      <trkpt lat="47.39394" lon="-2.08159">
        <ele>63.8</ele>
        <time>2011-11-13T09:37:29Z</time>
      </trkpt>
      <trkpt lat="47.39399" lon="-2.08161">
        <ele>64.5</ele>
        <time>2011-11-13T09:37:30Z</time>
      </trkpt>
      <trkpt lat="47.39403" lon="-2.08159">
        <ele>65</ele>
        <time>2011-11-13T09:37:32Z</time>
      </trkpt>
      <trkpt lat="47.39408" lon="-2.08162">
        <ele>65.3</ele>
        <time>2011-11-13T09:37:34Z</time>
      </trkpt>
      <trkpt lat="47.39414" lon="-2.08169">
        <ele>66.3</ele>
        <time>2011-11-13T09:37:36Z</time>
      </trkpt>
      <trkpt lat="47.39412" lon="-2.0816">
        <ele>64.6</ele>
        <time>2011-11-13T09:37:40Z</time>
      </trkpt>
      <trkpt lat="47.39416" lon="-2.0815">
        <ele>64.2</ele>
        <time>2011-11-13T09:37:42Z</time>
      </trkpt>
      <trkpt lat="47.39413" lon="-2.08143">
        <ele>64.5</ele>
        <time>2011-11-13T09:37:45Z</time>
      </trkpt>
      <trkpt lat="47.39409" lon="-2.0814">
        <ele>64.6</ele>
        <time>2011-11-13T09:37:47Z</time>
      </trkpt>
      <trkpt lat="47.39404" lon="-2.08136">
        <ele>64.5</ele>
        <time>2011-11-13T09:37:50Z</time>
      </trkpt>
      <trkpt lat="47.39398" lon="-2.08124">
        <ele>65.8</ele>
        <time>2011-11-13T09:37:53Z</time>
      </trkpt>
      <trkpt lat="47.39399" lon="-2.08114">
        <ele>64.6</ele>
        <time>2011-11-13T09:37:55Z</time>
      </trkpt>
      <trkpt lat="47.39404" lon="-2.08106">
        <ele>61.1</ele>
        <time>2011-11-13T09:37:57Z</time>
      </trkpt>
      <trkpt lat="47.39409" lon="-2.08102">
        <ele>58.2</ele>
        <time>2011-11-13T09:37:59Z</time>
      </trkpt>
      <trkpt lat="47.39414" lon="-2.08104">
        <ele>57.9</ele>
        <time>2011-11-13T09:38:02Z</time>
      </trkpt>
      <trkpt lat="47.39417" lon="-2.0811">
        <ele>64.4</ele>
        <time>2011-11-13T09:38:04Z</time>
      </trkpt>
      <trkpt lat="47.39416" lon="-2.08116">
        <ele>65.1</ele>
        <time>2011-11-13T09:38:08Z</time>
      </trkpt>
      <trkpt lat="47.3942" lon="-2.08119">
        <ele>67.2</ele>
        <time>2011-11-13T09:38:11Z</time>
      </trkpt>
      <trkpt lat="47.39424" lon="-2.08112">
        <ele>69.6</ele>
        <time>2011-11-13T09:38:17Z</time>
      </trkpt>
      <trkpt lat="47.39425" lon="-2.08104">
        <ele>69.6</ele>
        <time>2011-11-13T09:38:19Z</time>
      </trkpt>
      <trkpt lat="47.39428" lon="-2.08098">
        <ele>68.4</ele>
        <time>2011-11-13T09:38:22Z</time>
      </trkpt>
      <trkpt lat="47.39433" lon="-2.08098">
        <ele>67.8</ele>
        <time>2011-11-13T09:38:23Z</time>
      </trkpt>
      <trkpt lat="47.39436" lon="-2.08104">
        <ele>66.6</ele>
        <time>2011-11-13T09:38:25Z</time>
      </trkpt>
      <trkpt lat="47.39439" lon="-2.0811">
        <ele>67.4</ele>
        <time>2011-11-13T09:38:29Z</time>
      </trkpt>
      <trkpt lat="47.39443" lon="-2.08119">
        <ele>71</ele>
        <time>2011-11-13T09:38:32Z</time>
      </trkpt>
      <trkpt lat="47.39449" lon="-2.08127">
        <ele>69.3</ele>
        <time>2011-11-13T09:38:34Z</time>
      </trkpt>
      <trkpt lat="47.39454" lon="-2.0813">
        <ele>69</ele>
        <time>2011-11-13T09:38:36Z</time>
      </trkpt>
      <trkpt lat="47.39459" lon="-2.08134">
        <ele>68.4</ele>
        <time>2011-11-13T09:38:38Z</time>
      </trkpt>
      <trkpt lat="47.39465" lon="-2.08137">
        <ele>66.5</ele>
        <time>2011-11-13T09:38:41Z</time>
      </trkpt>
      <trkpt lat="47.39473" lon="-2.08139">
        <ele>66.2</ele>
        <time>2011-11-13T09:38:43Z</time>
      </trkpt>
      <trkpt lat="47.39472" lon="-2.08132">
        <ele>65.6</ele>
        <time>2011-11-13T09:38:45Z</time>
      </trkpt>
      <trkpt lat="47.39474" lon="-2.08125">
        <ele>66.2</ele>
        <time>2011-11-13T09:38:49Z</time>
      </trkpt>
      <trkpt lat="47.39479" lon="-2.08126">
        <ele>66</ele>
        <time>2011-11-13T09:38:51Z</time>
      </trkpt>
      <trkpt lat="47.39476" lon="-2.0812">
        <ele>62.7</ele>
        <time>2011-11-13T09:39:01Z</time>
      </trkpt>
      <trkpt lat="47.39472" lon="-2.08119">
        <ele>63.2</ele>
        <time>2011-11-13T09:39:09Z</time>
      </trkpt>
      <trkpt lat="47.39467" lon="-2.08112">
        <ele>58.5</ele>
        <time>2011-11-13T09:39:14Z</time>
      </trkpt>
      <trkpt lat="47.39464" lon="-2.08118">
        <ele>61.4</ele>
        <time>2011-11-13T09:39:24Z</time>
      </trkpt>
      <trkpt lat="47.39464" lon="-2.08118">
        <ele>61.4</ele>
        <time>2011-11-13T09:39:24Z</time>
      </trkpt>
      <trkpt lat="47.39464" lon="-2.08118">
        <ele>61.4</ele>
        <time>2011-11-13T09:39:25Z</time>
      </trkpt>
      <trkpt lat="47.39462" lon="-2.08126">
        <ele>60.1</ele>
        <time>2011-11-13T09:39:30Z</time>
      </trkpt>
      <trkpt lat="47.39458" lon="-2.08124">
        <ele>60.9</ele>
        <time>2011-11-13T09:39:33Z</time>
      </trkpt>
      <trkpt lat="47.39454" lon="-2.08116">
        <ele>62.5</ele>
        <time>2011-11-13T09:39:35Z</time>
      </trkpt>
      <trkpt lat="47.3945" lon="-2.08109">
        <ele>62.9</ele>
        <time>2011-11-13T09:39:37Z</time>
      </trkpt>
      <trkpt lat="47.3945" lon="-2.081">
        <ele>61.8</ele>
        <time>2011-11-13T09:39:39Z</time>
      </trkpt>
      <trkpt lat="47.39453" lon="-2.08093">
        <ele>60.4</ele>
        <time>2011-11-13T09:39:42Z</time>
      </trkpt>
      <trkpt lat="47.39463" lon="-2.0809">
        <ele>58.3</ele>
        <time>2011-11-13T09:39:44Z</time>
      </trkpt>
      <trkpt lat="47.39468" lon="-2.08093">
        <ele>57.9</ele>
        <time>2011-11-13T09:39:47Z</time>
      </trkpt>
      <trkpt lat="47.39472" lon="-2.08096">
        <ele>59.2</ele>
        <time>2011-11-13T09:39:49Z</time>
      </trkpt>
      <trkpt lat="47.39477" lon="-2.08097">
        <ele>59.2</ele>
        <time>2011-11-13T09:39:51Z</time>
      </trkpt>
      <trkpt lat="47.39482" lon="-2.08097">
        <ele>59.6</ele>
        <time>2011-11-13T09:39:53Z</time>
      </trkpt>
      <trkpt lat="47.39488" lon="-2.08104">
        <ele>62.6</ele>
        <time>2011-11-13T09:39:56Z</time>
      </trkpt>
      <trkpt lat="47.39491" lon="-2.08113">
        <ele>62.3</ele>
        <time>2011-11-13T09:39:58Z</time>
      </trkpt>
      <trkpt lat="47.39492" lon="-2.08122">
        <ele>61.1</ele>
        <time>2011-11-13T09:40:00Z</time>
      </trkpt>
      <trkpt lat="47.39493" lon="-2.08128">
        <ele>60.8</ele>
        <time>2011-11-13T09:40:03Z</time>
      </trkpt>
      <trkpt lat="47.39496" lon="-2.08135">
        <ele>60</ele>
        <time>2011-11-13T09:40:07Z</time>
      </trkpt>
      <trkpt lat="47.39497" lon="-2.08142">
        <ele>61</ele>
        <time>2011-11-13T09:40:10Z</time>
      </trkpt>
      <trkpt lat="47.39498" lon="-2.08152">
        <ele>61.1</ele>
        <time>2011-11-13T09:40:11Z</time>
      </trkpt>
      <trkpt lat="47.39496" lon="-2.08159">
        <ele>61.1</ele>
        <time>2011-11-13T09:40:13Z</time>
      </trkpt>
      <trkpt lat="47.39493" lon="-2.08165">
        <ele>61.1</ele>
        <time>2011-11-13T09:40:15Z</time>
      </trkpt>
      <trkpt lat="47.3949" lon="-2.08171">
        <ele>63.3</ele>
        <time>2011-11-13T09:40:18Z</time>
      </trkpt>
      <trkpt lat="47.39488" lon="-2.0818">
        <ele>65.2</ele>
        <time>2011-11-13T09:40:22Z</time>
      </trkpt>
      <trkpt lat="47.3949" lon="-2.08192">
        <ele>66.7</ele>
        <time>2011-11-13T09:40:25Z</time>
      </trkpt>
      <trkpt lat="47.39494" lon="-2.08205">
        <ele>68.6</ele>
        <time>2011-11-13T09:40:27Z</time>
      </trkpt>
      <trkpt lat="47.39492" lon="-2.08212">
        <ele>68.5</ele>
        <time>2011-11-13T09:40:28Z</time>
      </trkpt>
      <trkpt lat="47.39485" lon="-2.08216">
        <ele>68.4</ele>
        <time>2011-11-13T09:40:29Z</time>
      </trkpt>
      <trkpt lat="47.39479" lon="-2.08213">
        <ele>66.7</ele>
        <time>2011-11-13T09:40:30Z</time>
      </trkpt>
      <trkpt lat="47.39475" lon="-2.0821">
        <ele>65.5</ele>
        <time>2011-11-13T09:40:31Z</time>
      </trkpt>
      <trkpt lat="47.3947" lon="-2.08209">
        <ele>65.3</ele>
        <time>2011-11-13T09:40:33Z</time>
      </trkpt>
      <trkpt lat="47.39466" lon="-2.08204">
        <ele>64.7</ele>
        <time>2011-11-13T09:40:34Z</time>
      </trkpt>
      <trkpt lat="47.39463" lon="-2.08196">
        <ele>65.5</ele>
        <time>2011-11-13T09:40:36Z</time>
      </trkpt>
      <trkpt lat="47.39461" lon="-2.08186">
        <ele>67.4</ele>
        <time>2011-11-13T09:40:38Z</time>
      </trkpt>
      <trkpt lat="47.39459" lon="-2.0818">
        <ele>69.2</ele>
        <time>2011-11-13T09:40:40Z</time>
      </trkpt>
      <trkpt lat="47.39455" lon="-2.08174">
        <ele>69.1</ele>
        <time>2011-11-13T09:40:42Z</time>
      </trkpt>
      <trkpt lat="47.39451" lon="-2.0817">
        <ele>69.2</ele>
        <time>2011-11-13T09:40:44Z</time>
      </trkpt>
      <trkpt lat="47.39446" lon="-2.08166">
        <ele>69.3</ele>
        <time>2011-11-13T09:40:47Z</time>
      </trkpt>
      <trkpt lat="47.39442" lon="-2.08163">
        <ele>68.9</ele>
        <time>2011-11-13T09:40:49Z</time>
      </trkpt>
      <trkpt lat="47.39436" lon="-2.08157">
        <ele>67.4</ele>
        <time>2011-11-13T09:40:52Z</time>
      </trkpt>
      <trkpt lat="47.39433" lon="-2.0815">
        <ele>67.5</ele>
        <time>2011-11-13T09:40:55Z</time>
      </trkpt>
      <trkpt lat="47.39437" lon="-2.08153">
        <ele>70</ele>
        <time>2011-11-13T09:41:08Z</time>
      </trkpt>
      <trkpt lat="47.39438" lon="-2.08165">
        <ele>69.9</ele>
        <time>2011-11-13T09:41:10Z</time>
      </trkpt>
      <trkpt lat="47.39437" lon="-2.08174">
        <ele>69.8</ele>
        <time>2011-11-13T09:41:13Z</time>
      </trkpt>
      <trkpt lat="47.39436" lon="-2.08181">
        <ele>67.5</ele>
        <time>2011-11-13T09:41:18Z</time>
      </trkpt>
      <trkpt lat="47.3944" lon="-2.08188">
        <ele>66.9</ele>
        <time>2011-11-13T09:41:22Z</time>
      </trkpt>
      <trkpt lat="47.39445" lon="-2.08198">
        <ele>66.5</ele>
        <time>2011-11-13T09:41:24Z</time>
      </trkpt>
      <trkpt lat="47.39449" lon="-2.08209">
        <ele>66.9</ele>
        <time>2011-11-13T09:41:26Z</time>
      </trkpt>
      <trkpt lat="47.3945" lon="-2.08216">
        <ele>67.4</ele>
        <time>2011-11-13T09:41:27Z</time>
      </trkpt>
      <trkpt lat="47.39451" lon="-2.08223">
        <ele>67.6</ele>
        <time>2011-11-13T09:41:28Z</time>
      </trkpt>
      <trkpt lat="47.39457" lon="-2.08234">
        <ele>64.6</ele>
        <time>2011-11-13T09:41:29Z</time>
      </trkpt>
      <trkpt lat="47.39452" lon="-2.08243">
        <ele>64.1</ele>
        <time>2011-11-13T09:41:31Z</time>
      </trkpt>
      <trkpt lat="47.39447" lon="-2.08245">
        <ele>64.6</ele>
        <time>2011-11-13T09:41:32Z</time>
      </trkpt>
      <trkpt lat="47.3944" lon="-2.08241">
        <ele>62.4</ele>
        <time>2011-11-13T09:41:33Z</time>
      </trkpt>
      <trkpt lat="47.39437" lon="-2.08235">
        <ele>62.1</ele>
        <time>2011-11-13T09:41:35Z</time>
      </trkpt>
      <trkpt lat="47.39432" lon="-2.08225">
        <ele>64.5</ele>
        <time>2011-11-13T09:41:39Z</time>
      </trkpt>
      <trkpt lat="47.39428" lon="-2.08219">
        <ele>65.1</ele>
        <time>2011-11-13T09:41:41Z</time>
      </trkpt>
      <trkpt lat="47.39422" lon="-2.08216">
        <ele>66.2</ele>
        <time>2011-11-13T09:41:44Z</time>
      </trkpt>
      <trkpt lat="47.39419" lon="-2.08209">
        <ele>67.9</ele>
        <time>2011-11-13T09:41:47Z</time>
      </trkpt>
      <trkpt lat="47.39415" lon="-2.08204">
        <ele>68.9</ele>
        <time>2011-11-13T09:41:50Z</time>
      </trkpt>
      <trkpt lat="47.39411" lon="-2.08202">
        <ele>68.1</ele>
        <time>2011-11-13T09:41:52Z</time>
      </trkpt>
      <trkpt lat="47.39406" lon="-2.082">
        <ele>67.7</ele>
        <time>2011-11-13T09:41:55Z</time>
      </trkpt>
      <trkpt lat="47.39411" lon="-2.08198">
        <ele>74.8</ele>
        <time>2011-11-13T09:42:06Z</time>
      </trkpt>
      <trkpt lat="47.39414" lon="-2.08202">
        <ele>75.7</ele>
        <time>2011-11-13T09:42:08Z</time>
      </trkpt>
      <trkpt lat="47.39416" lon="-2.08208">
        <ele>75.5</ele>
        <time>2011-11-13T09:42:09Z</time>
      </trkpt>
      <trkpt lat="47.39421" lon="-2.08222">
        <ele>73.7</ele>
        <time>2011-11-13T09:42:11Z</time>
      </trkpt>
      <trkpt lat="47.3942" lon="-2.0823">
        <ele>71.9</ele>
        <time>2011-11-13T09:42:13Z</time>
      </trkpt>
      <trkpt lat="47.39411" lon="-2.0823">
        <ele>71.3</ele>
        <time>2011-11-13T09:42:15Z</time>
      </trkpt>
      <trkpt lat="47.39405" lon="-2.08229">
        <ele>72.2</ele>
        <time>2011-11-13T09:42:17Z</time>
      </trkpt>
      <trkpt lat="47.39399" lon="-2.08227">
        <ele>70.9</ele>
        <time>2011-11-13T09:42:19Z</time>
      </trkpt>
      <trkpt lat="47.39392" lon="-2.08222">
        <ele>72.6</ele>
        <time>2011-11-13T09:42:21Z</time>
      </trkpt>
      <trkpt lat="47.39386" lon="-2.08219">
        <ele>72.8</ele>
        <time>2011-11-13T09:42:23Z</time>
      </trkpt>
      <trkpt lat="47.39381" lon="-2.08217">
        <ele>72.5</ele>
        <time>2011-11-13T09:42:25Z</time>
      </trkpt>
      <trkpt lat="47.39375" lon="-2.08217">
        <ele>72.7</ele>
        <time>2011-11-13T09:42:28Z</time>
      </trkpt>
      <trkpt lat="47.3937" lon="-2.08217">
        <ele>72.6</ele>
        <time>2011-11-13T09:42:30Z</time>
      </trkpt>
      <trkpt lat="47.39365" lon="-2.08221">
        <ele>73.4</ele>
        <time>2011-11-13T09:42:36Z</time>
      </trkpt>
      <trkpt lat="47.39362" lon="-2.08228">
        <ele>73.9</ele>
        <time>2011-11-13T09:42:38Z</time>
      </trkpt>
      <trkpt lat="47.39361" lon="-2.08235">
        <ele>74.5</ele>
        <time>2011-11-13T09:42:40Z</time>
      </trkpt>
      <trkpt lat="47.39356" lon="-2.08239">
        <ele>74.9</ele>
        <time>2011-11-13T09:42:42Z</time>
      </trkpt>
      <trkpt lat="47.39352" lon="-2.08244">
        <ele>75.9</ele>
        <time>2011-11-13T09:42:44Z</time>
      </trkpt>
      <trkpt lat="47.39346" lon="-2.08249">
        <ele>76.3</ele>
        <time>2011-11-13T09:42:46Z</time>
      </trkpt>
      <trkpt lat="47.39342" lon="-2.08253">
        <ele>76.9</ele>
        <time>2011-11-13T09:42:47Z</time>
      </trkpt>
      <trkpt lat="47.39337" lon="-2.08262">
        <ele>77.1</ele>
        <time>2011-11-13T09:42:49Z</time>
      </trkpt>
      <trkpt lat="47.39331" lon="-2.0827">
        <ele>76.5</ele>
        <time>2011-11-13T09:42:51Z</time>
      </trkpt>
      <trkpt lat="47.39323" lon="-2.08277">
        <ele>77.6</ele>
        <time>2011-11-13T09:42:53Z</time>
      </trkpt>
      <trkpt lat="47.39319" lon="-2.08281">
        <ele>78.3</ele>
        <time>2011-11-13T09:42:54Z</time>
      </trkpt>
      <trkpt lat="47.39315" lon="-2.08285">
        <ele>78.5</ele>
        <time>2011-11-13T09:42:55Z</time>
      </trkpt>
      <trkpt lat="47.39311" lon="-2.0829">
        <ele>77.9</ele>
        <time>2011-11-13T09:42:56Z</time>
      </trkpt>
      <trkpt lat="47.39307" lon="-2.08295">
        <ele>77.8</ele>
        <time>2011-11-13T09:42:57Z</time>
      </trkpt>
      <trkpt lat="47.39304" lon="-2.08299">
        <ele>78.3</ele>
        <time>2011-11-13T09:42:58Z</time>
      </trkpt>
      <trkpt lat="47.39297" lon="-2.08309">
        <ele>77.4</ele>
        <time>2011-11-13T09:43:00Z</time>
      </trkpt>
      <trkpt lat="47.39295" lon="-2.08315">
        <ele>77.1</ele>
        <time>2011-11-13T09:43:01Z</time>
      </trkpt>
      <trkpt lat="47.3929" lon="-2.0832">
        <ele>76.8</ele>
        <time>2011-11-13T09:43:02Z</time>
      </trkpt>
      <trkpt lat="47.39284" lon="-2.08331">
        <ele>77.3</ele>
        <time>2011-11-13T09:43:04Z</time>
      </trkpt>
      <trkpt lat="47.3928" lon="-2.08335">
        <ele>77.4</ele>
        <time>2011-11-13T09:43:05Z</time>
      </trkpt>
      <trkpt lat="47.39276" lon="-2.0834">
        <ele>77.3</ele>
        <time>2011-11-13T09:43:06Z</time>
      </trkpt>
      <trkpt lat="47.3927" lon="-2.08347">
        <ele>78.1</ele>
        <time>2011-11-13T09:43:08Z</time>
      </trkpt>
      <trkpt lat="47.39265" lon="-2.0835">
        <ele>78.6</ele>
        <time>2011-11-13T09:43:09Z</time>
      </trkpt>
      <trkpt lat="47.39261" lon="-2.08354">
        <ele>78.8</ele>
        <time>2011-11-13T09:43:10Z</time>
      </trkpt>
      <trkpt lat="47.39257" lon="-2.08358">
        <ele>78.8</ele>
        <time>2011-11-13T09:43:11Z</time>
      </trkpt>
      <trkpt lat="47.39253" lon="-2.08362">
        <ele>78.9</ele>
        <time>2011-11-13T09:43:12Z</time>
      </trkpt>
      <trkpt lat="47.39248" lon="-2.08368">
        <ele>79.5</ele>
        <time>2011-11-13T09:43:13Z</time>
      </trkpt>
      <trkpt lat="47.39244" lon="-2.08372">
        <ele>79.8</ele>
        <time>2011-11-13T09:43:14Z</time>
      </trkpt>
      <trkpt lat="47.39239" lon="-2.08376">
        <ele>79.8</ele>
        <time>2011-11-13T09:43:15Z</time>
      </trkpt>
      <trkpt lat="47.39236" lon="-2.08382">
        <ele>79.2</ele>
        <time>2011-11-13T09:43:16Z</time>
      </trkpt>
      <trkpt lat="47.39232" lon="-2.08388">
        <ele>78.1</ele>
        <time>2011-11-13T09:43:17Z</time>
      </trkpt>
      <trkpt lat="47.39227" lon="-2.08393">
        <ele>77.9</ele>
        <time>2011-11-13T09:43:18Z</time>
      </trkpt>
      <trkpt lat="47.39223" lon="-2.08397">
        <ele>77.4</ele>
        <time>2011-11-13T09:43:19Z</time>
      </trkpt>
      <trkpt lat="47.39214" lon="-2.08408">
        <ele>77.7</ele>
        <time>2011-11-13T09:43:20Z</time>
      </trkpt>
      <trkpt lat="47.39208" lon="-2.08411">
        <ele>75.9</ele>
        <time>2011-11-13T09:43:21Z</time>
      </trkpt>
      <trkpt lat="47.39202" lon="-2.08417">
        <ele>73.9</ele>
        <time>2011-11-13T09:43:22Z</time>
      </trkpt>
      <trkpt lat="47.39198" lon="-2.08421">
        <ele>74.7</ele>
        <time>2011-11-13T09:43:23Z</time>
      </trkpt>
      <trkpt lat="47.3919" lon="-2.08427">
        <ele>74.6</ele>
        <time>2011-11-13T09:43:25Z</time>
      </trkpt>
      <trkpt lat="47.39185" lon="-2.08435">
        <ele>74.8</ele>
        <time>2011-11-13T09:43:27Z</time>
      </trkpt>
      <trkpt lat="47.3918" lon="-2.0844">
        <ele>75</ele>
        <time>2011-11-13T09:43:28Z</time>
      </trkpt>
      <trkpt lat="47.39175" lon="-2.08442">
        <ele>75.2</ele>
        <time>2011-11-13T09:43:29Z</time>
      </trkpt>
      <trkpt lat="47.39168" lon="-2.08447">
        <ele>74.9</ele>
        <time>2011-11-13T09:43:31Z</time>
      </trkpt>
      <trkpt lat="47.3916" lon="-2.08451">
        <ele>75.5</ele>
        <time>2011-11-13T09:43:33Z</time>
      </trkpt>
      <trkpt lat="47.3916" lon="-2.0846">
        <ele>76.8</ele>
        <time>2011-11-13T09:43:35Z</time>
      </trkpt>
      <trkpt lat="47.39157" lon="-2.08465">
        <ele>75.4</ele>
        <time>2011-11-13T09:43:37Z</time>
      </trkpt>
      <trkpt lat="47.39155" lon="-2.08473">
        <ele>75.5</ele>
        <time>2011-11-13T09:43:39Z</time>
      </trkpt>
      <trkpt lat="47.39159" lon="-2.08479">
        <ele>76.1</ele>
        <time>2011-11-13T09:43:40Z</time>
      </trkpt>
      <trkpt lat="47.39157" lon="-2.08487">
        <ele>75.7</ele>
        <time>2011-11-13T09:43:41Z</time>
      </trkpt>
      <trkpt lat="47.39156" lon="-2.08497">
        <ele>77</ele>
        <time>2011-11-13T09:43:43Z</time>
      </trkpt>
      <trkpt lat="47.39156" lon="-2.08508">
        <ele>77.7</ele>
        <time>2011-11-13T09:43:45Z</time>
      </trkpt>
      <trkpt lat="47.39155" lon="-2.08519">
        <ele>77.6</ele>
        <time>2011-11-13T09:43:46Z</time>
      </trkpt>
      <trkpt lat="47.39155" lon="-2.08527">
        <ele>76.9</ele>
        <time>2011-11-13T09:43:48Z</time>
      </trkpt>
      <trkpt lat="47.39152" lon="-2.0854">
        <ele>76.4</ele>
        <time>2011-11-13T09:43:50Z</time>
      </trkpt>
      <trkpt lat="47.39153" lon="-2.08548">
        <ele>77.5</ele>
        <time>2011-11-13T09:43:51Z</time>
      </trkpt>
      <trkpt lat="47.39153" lon="-2.08554">
        <ele>78.2</ele>
        <time>2011-11-13T09:43:52Z</time>
      </trkpt>
      <trkpt lat="47.39154" lon="-2.08566">
        <ele>79.9</ele>
        <time>2011-11-13T09:43:54Z</time>
      </trkpt>
      <trkpt lat="47.39155" lon="-2.08576">
        <ele>79.9</ele>
        <time>2011-11-13T09:43:55Z</time>
      </trkpt>
      <trkpt lat="47.39155" lon="-2.08589">
        <ele>78.4</ele>
        <time>2011-11-13T09:43:58Z</time>
      </trkpt>
      <trkpt lat="47.39155" lon="-2.08596">
        <ele>77.3</ele>
        <time>2011-11-13T09:43:59Z</time>
      </trkpt>
      <trkpt lat="47.39156" lon="-2.08607">
        <ele>76.1</ele>
        <time>2011-11-13T09:44:00Z</time>
      </trkpt>
      <trkpt lat="47.39157" lon="-2.08616">
        <ele>76.4</ele>
        <time>2011-11-13T09:44:02Z</time>
      </trkpt>
      <trkpt lat="47.39157" lon="-2.08631">
        <ele>76</ele>
        <time>2011-11-13T09:44:04Z</time>
      </trkpt>
      <trkpt lat="47.39152" lon="-2.08646">
        <ele>76.6</ele>
        <time>2011-11-13T09:44:06Z</time>
      </trkpt>
      <trkpt lat="47.3915" lon="-2.08653">
        <ele>76.8</ele>
        <time>2011-11-13T09:44:07Z</time>
      </trkpt>
      <trkpt lat="47.3915" lon="-2.08667">
        <ele>78.2</ele>
        <time>2011-11-13T09:44:09Z</time>
      </trkpt>
      <trkpt lat="47.39151" lon="-2.08677">
        <ele>78.5</ele>
        <time>2011-11-13T09:44:10Z</time>
      </trkpt>
      <trkpt lat="47.39153" lon="-2.08686">
        <ele>78.7</ele>
        <time>2011-11-13T09:44:11Z</time>
      </trkpt>
      <trkpt lat="47.39155" lon="-2.08695">
        <ele>78.8</ele>
        <time>2011-11-13T09:44:12Z</time>
      </trkpt>
      <trkpt lat="47.39151" lon="-2.087">
        <ele>78</ele>
        <time>2011-11-13T09:44:13Z</time>
      </trkpt>
      <trkpt lat="47.3915" lon="-2.08709">
        <ele>77.1</ele>
        <time>2011-11-13T09:44:14Z</time>
      </trkpt>
      <trkpt lat="47.39146" lon="-2.08714">
        <ele>76.8</ele>
        <time>2011-11-13T09:44:15Z</time>
      </trkpt>
      <trkpt lat="47.39146" lon="-2.08723">
        <ele>77</ele>
        <time>2011-11-13T09:44:16Z</time>
      </trkpt>
      <trkpt lat="47.39146" lon="-2.08732">
        <ele>75.6</ele>
        <time>2011-11-13T09:44:17Z</time>
      </trkpt>
      <trkpt lat="47.39149" lon="-2.08741">
        <ele>77.6</ele>
        <time>2011-11-13T09:44:18Z</time>
      </trkpt>
      <trkpt lat="47.3915" lon="-2.08752">
        <ele>78.2</ele>
        <time>2011-11-13T09:44:20Z</time>
      </trkpt>
      <trkpt lat="47.3915" lon="-2.08763">
        <ele>82.4</ele>
        <time>2011-11-13T09:44:22Z</time>
      </trkpt>
      <trkpt lat="47.39151" lon="-2.08769">
        <ele>82.9</ele>
        <time>2011-11-13T09:44:23Z</time>
      </trkpt>
      <trkpt lat="47.3915" lon="-2.08781">
        <ele>83.5</ele>
        <time>2011-11-13T09:44:25Z</time>
      </trkpt>
      <trkpt lat="47.3914" lon="-2.08788">
        <ele>75.7</ele>
        <time>2011-11-13T09:44:27Z</time>
      </trkpt>
      <trkpt lat="47.39134" lon="-2.08792">
        <ele>70.8</ele>
        <time>2011-11-13T09:44:28Z</time>
      </trkpt>
      <trkpt lat="47.39135" lon="-2.08799">
        <ele>68</ele>
        <time>2011-11-13T09:44:30Z</time>
      </trkpt>
      <trkpt lat="47.39141" lon="-2.08808">
        <ele>62.7</ele>
        <time>2011-11-13T09:44:34Z</time>
      </trkpt>
      <trkpt lat="47.39146" lon="-2.08805">
        <ele>62.6</ele>
        <time>2011-11-13T09:44:37Z</time>
      </trkpt>
      <trkpt lat="47.39151" lon="-2.08805">
        <ele>63.1</ele>
        <time>2011-11-13T09:44:39Z</time>
      </trkpt>
      <trkpt lat="47.39156" lon="-2.08801">
        <ele>64.4</ele>
        <time>2011-11-13T09:44:41Z</time>
      </trkpt>
      <trkpt lat="47.39165" lon="-2.08818">
        <ele>64.9</ele>
        <time>2011-11-13T09:44:42Z</time>
      </trkpt>
      <trkpt lat="47.3917" lon="-2.08826">
        <ele>65.8</ele>
        <time>2011-11-13T09:44:43Z</time>
      </trkpt>
      <trkpt lat="47.39174" lon="-2.08829">
        <ele>64.7</ele>
        <time>2011-11-13T09:44:44Z</time>
      </trkpt>
      <trkpt lat="47.39179" lon="-2.08832">
        <ele>64.3</ele>
        <time>2011-11-13T09:44:45Z</time>
      </trkpt>
      <trkpt lat="47.39187" lon="-2.08834">
        <ele>62</ele>
        <time>2011-11-13T09:44:47Z</time>
      </trkpt>
      <trkpt lat="47.39201" lon="-2.08853">
        <ele>63</ele>
        <time>2011-11-13T09:44:48Z</time>
      </trkpt>
      <trkpt lat="47.39205" lon="-2.08858">
        <ele>63.8</ele>
        <time>2011-11-13T09:44:49Z</time>
      </trkpt>
      <trkpt lat="47.39211" lon="-2.08855">
        <ele>63.5</ele>
        <time>2011-11-13T09:44:50Z</time>
      </trkpt>
      <trkpt lat="47.39217" lon="-2.08853">
        <ele>63.6</ele>
        <time>2011-11-13T09:44:51Z</time>
      </trkpt>
      <trkpt lat="47.39225" lon="-2.08852">
        <ele>63.4</ele>
        <time>2011-11-13T09:44:52Z</time>
      </trkpt>
      <trkpt lat="47.39234" lon="-2.08853">
        <ele>63.6</ele>
        <time>2011-11-13T09:44:53Z</time>
      </trkpt>
      <trkpt lat="47.39243" lon="-2.08852">
        <ele>63.8</ele>
        <time>2011-11-13T09:44:54Z</time>
      </trkpt>
      <trkpt lat="47.39252" lon="-2.08852">
        <ele>63.6</ele>
        <time>2011-11-13T09:44:55Z</time>
      </trkpt>
      <trkpt lat="47.39261" lon="-2.08851">
        <ele>63.7</ele>
        <time>2011-11-13T09:44:56Z</time>
      </trkpt>
      <trkpt lat="47.39269" lon="-2.0885">
        <ele>64.1</ele>
        <time>2011-11-13T09:44:57Z</time>
      </trkpt>
      <trkpt lat="47.39277" lon="-2.08848">
        <ele>63.5</ele>
        <time>2011-11-13T09:44:58Z</time>
      </trkpt>
      <trkpt lat="47.39283" lon="-2.08844">
        <ele>63.6</ele>
        <time>2011-11-13T09:44:59Z</time>
      </trkpt>
      <trkpt lat="47.3929" lon="-2.08841">
        <ele>63.5</ele>
        <time>2011-11-13T09:45:00Z</time>
      </trkpt>
      <trkpt lat="47.39297" lon="-2.08839">
        <ele>63.1</ele>
        <time>2011-11-13T09:45:01Z</time>
      </trkpt>
      <trkpt lat="47.39304" lon="-2.08838">
        <ele>62.9</ele>
        <time>2011-11-13T09:45:02Z</time>
      </trkpt>
      <trkpt lat="47.39312" lon="-2.08837">
        <ele>63.1</ele>
        <time>2011-11-13T09:45:03Z</time>
      </trkpt>
      <trkpt lat="47.3932" lon="-2.08835">
        <ele>63.4</ele>
        <time>2011-11-13T09:45:04Z</time>
      </trkpt>
      <trkpt lat="47.39326" lon="-2.08831">
        <ele>63.4</ele>
        <time>2011-11-13T09:45:05Z</time>
      </trkpt>
      <trkpt lat="47.39332" lon="-2.08828">
        <ele>63.3</ele>
        <time>2011-11-13T09:45:06Z</time>
      </trkpt>
      <trkpt lat="47.39339" lon="-2.08824">
        <ele>62.6</ele>
        <time>2011-11-13T09:45:07Z</time>
      </trkpt>
      <trkpt lat="47.39345" lon="-2.08822">
        <ele>62.3</ele>
        <time>2011-11-13T09:45:08Z</time>
      </trkpt>
      <trkpt lat="47.39351" lon="-2.0882">
        <ele>61.8</ele>
        <time>2011-11-13T09:45:09Z</time>
      </trkpt>
      <trkpt lat="47.39358" lon="-2.08817">
        <ele>61</ele>
        <time>2011-11-13T09:45:10Z</time>
      </trkpt>
      <trkpt lat="47.39364" lon="-2.08814">
        <ele>60.8</ele>
        <time>2011-11-13T09:45:11Z</time>
      </trkpt>
      <trkpt lat="47.39371" lon="-2.08812">
        <ele>60</ele>
        <time>2011-11-13T09:45:12Z</time>
      </trkpt>
      <trkpt lat="47.39378" lon="-2.0881">
        <ele>59.4</ele>
        <time>2011-11-13T09:45:13Z</time>
      </trkpt>
      <trkpt lat="47.39383" lon="-2.08804">
        <ele>59.5</ele>
        <time>2011-11-13T09:45:14Z</time>
      </trkpt>
      <trkpt lat="47.3939" lon="-2.08802">
        <ele>58.6</ele>
        <time>2011-11-13T09:45:15Z</time>
      </trkpt>
      <trkpt lat="47.39394" lon="-2.08796">
        <ele>59</ele>
        <time>2011-11-13T09:45:16Z</time>
      </trkpt>
      <trkpt lat="47.39401" lon="-2.08794">
        <ele>58.9</ele>
        <time>2011-11-13T09:45:17Z</time>
      </trkpt>
      <trkpt lat="47.39408" lon="-2.08792">
        <ele>58.6</ele>
        <time>2011-11-13T09:45:18Z</time>
      </trkpt>
      <trkpt lat="47.39416" lon="-2.08793">
        <ele>58.5</ele>
        <time>2011-11-13T09:45:19Z</time>
      </trkpt>
      <trkpt lat="47.39432" lon="-2.08798">
        <ele>56.9</ele>
        <time>2011-11-13T09:45:20Z</time>
      </trkpt>
      <trkpt lat="47.39441" lon="-2.08795">
        <ele>56.8</ele>
        <time>2011-11-13T09:45:22Z</time>
      </trkpt>
      <trkpt lat="47.39433" lon="-2.08774">
        <ele>56</ele>
        <time>2011-11-13T09:45:23Z</time>
      </trkpt>
      <trkpt lat="47.39439" lon="-2.0877">
        <ele>56.1</ele>
        <time>2011-11-13T09:45:24Z</time>
      </trkpt>
      <trkpt lat="47.39445" lon="-2.08767">
        <ele>56.4</ele>
        <time>2011-11-13T09:45:25Z</time>
      </trkpt>
      <trkpt lat="47.39451" lon="-2.08764">
        <ele>56.5</ele>
        <time>2011-11-13T09:45:26Z</time>
      </trkpt>
      <trkpt lat="47.39457" lon="-2.0876">
        <ele>56.3</ele>
        <time>2011-11-13T09:45:27Z</time>
      </trkpt>
      <trkpt lat="47.39462" lon="-2.08756">
        <ele>56.4</ele>
        <time>2011-11-13T09:45:28Z</time>
      </trkpt>
      <trkpt lat="47.39467" lon="-2.08752">
        <ele>56.5</ele>
        <time>2011-11-13T09:45:29Z</time>
      </trkpt>
      <trkpt lat="47.39474" lon="-2.08749">
        <ele>56.9</ele>
        <time>2011-11-13T09:45:30Z</time>
      </trkpt>
      <trkpt lat="47.39478" lon="-2.08744">
        <ele>56.9</ele>
        <time>2011-11-13T09:45:31Z</time>
      </trkpt>
      <trkpt lat="47.39486" lon="-2.08741">
        <ele>57</ele>
        <time>2011-11-13T09:45:32Z</time>
      </trkpt>
      <trkpt lat="47.39494" lon="-2.0874">
        <ele>56.5</ele>
        <time>2011-11-13T09:45:33Z</time>
      </trkpt>
      <trkpt lat="47.39501" lon="-2.08732">
        <ele>56.7</ele>
        <time>2011-11-13T09:45:35Z</time>
      </trkpt>
      <trkpt lat="47.39512" lon="-2.08736">
        <ele>56.8</ele>
        <time>2011-11-13T09:45:36Z</time>
      </trkpt>
      <trkpt lat="47.39517" lon="-2.08731">
        <ele>57.1</ele>
        <time>2011-11-13T09:45:37Z</time>
      </trkpt>
      <trkpt lat="47.39522" lon="-2.08727">
        <ele>57.4</ele>
        <time>2011-11-13T09:45:38Z</time>
      </trkpt>
      <trkpt lat="47.39527" lon="-2.08725">
        <ele>57.2</ele>
        <time>2011-11-13T09:45:39Z</time>
      </trkpt>
      <trkpt lat="47.39538" lon="-2.08728">
        <ele>57.4</ele>
        <time>2011-11-13T09:45:40Z</time>
      </trkpt>
      <trkpt lat="47.39544" lon="-2.08725">
        <ele>57.5</ele>
        <time>2011-11-13T09:45:41Z</time>
      </trkpt>
      <trkpt lat="47.3955" lon="-2.08724">
        <ele>57.3</ele>
        <time>2011-11-13T09:45:42Z</time>
      </trkpt>
      <trkpt lat="47.39557" lon="-2.08723">
        <ele>57.5</ele>
        <time>2011-11-13T09:45:43Z</time>
      </trkpt>
      <trkpt lat="47.39563" lon="-2.08724">
        <ele>57</ele>
        <time>2011-11-13T09:45:44Z</time>
      </trkpt>
      <trkpt lat="47.39574" lon="-2.08731">
        <ele>57</ele>
        <time>2011-11-13T09:45:45Z</time>
      </trkpt>
      <trkpt lat="47.3958" lon="-2.08733">
        <ele>56.8</ele>
        <time>2011-11-13T09:45:46Z</time>
      </trkpt>
      <trkpt lat="47.39586" lon="-2.08735">
        <ele>57.1</ele>
        <time>2011-11-13T09:45:47Z</time>
      </trkpt>
      <trkpt lat="47.39591" lon="-2.08737">
        <ele>57.9</ele>
        <time>2011-11-13T09:45:48Z</time>
      </trkpt>
      <trkpt lat="47.39599" lon="-2.08737">
        <ele>57.3</ele>
        <time>2011-11-13T09:45:50Z</time>
      </trkpt>
      <trkpt lat="47.39603" lon="-2.08742">
        <ele>57.9</ele>
        <time>2011-11-13T09:45:52Z</time>
      </trkpt>
      <trkpt lat="47.39607" lon="-2.0873">
        <ele>59.6</ele>
        <time>2011-11-13T09:45:54Z</time>
      </trkpt>
      <trkpt lat="47.39607" lon="-2.08715">
        <ele>61</ele>
        <time>2011-11-13T09:45:56Z</time>
      </trkpt>
      <trkpt lat="47.39606" lon="-2.08705">
        <ele>62.7</ele>
        <time>2011-11-13T09:45:58Z</time>
      </trkpt>
      <trkpt lat="47.39601" lon="-2.08694">
        <ele>63.3</ele>
        <time>2011-11-13T09:46:00Z</time>
      </trkpt>
      <trkpt lat="47.39599" lon="-2.08687">
        <ele>62.9</ele>
        <time>2011-11-13T09:46:01Z</time>
      </trkpt>
      <trkpt lat="47.39595" lon="-2.08681">
        <ele>62.2</ele>
        <time>2011-11-13T09:46:02Z</time>
      </trkpt>
      <trkpt lat="47.39592" lon="-2.08676">
        <ele>62</ele>
        <time>2011-11-13T09:46:03Z</time>
      </trkpt>
      <trkpt lat="47.39588" lon="-2.08671">
        <ele>61.8</ele>
        <time>2011-11-13T09:46:04Z</time>
      </trkpt>
      <trkpt lat="47.39584" lon="-2.08663">
        <ele>61.1</ele>
        <time>2011-11-13T09:46:05Z</time>
      </trkpt>
      <trkpt lat="47.3958" lon="-2.08657">
        <ele>60.7</ele>
        <time>2011-11-13T09:46:06Z</time>
      </trkpt>
      <trkpt lat="47.39577" lon="-2.08651">
        <ele>60.1</ele>
        <time>2011-11-13T09:46:07Z</time>
      </trkpt>
      <trkpt lat="47.39573" lon="-2.08644">
        <ele>59.9</ele>
        <time>2011-11-13T09:46:08Z</time>
      </trkpt>
      <trkpt lat="47.39569" lon="-2.08638">
        <ele>59.9</ele>
        <time>2011-11-13T09:46:09Z</time>
      </trkpt>
      <trkpt lat="47.39565" lon="-2.08631">
        <ele>59.5</ele>
        <time>2011-11-13T09:46:10Z</time>
      </trkpt>
      <trkpt lat="47.39559" lon="-2.0862">
        <ele>58.8</ele>
        <time>2011-11-13T09:46:11Z</time>
      </trkpt>
      <trkpt lat="47.39556" lon="-2.08609">
        <ele>57.8</ele>
        <time>2011-11-13T09:46:12Z</time>
      </trkpt>
      <trkpt lat="47.39554" lon="-2.08601">
        <ele>57.6</ele>
        <time>2011-11-13T09:46:14Z</time>
      </trkpt>
      <trkpt lat="47.39551" lon="-2.08595">
        <ele>57.5</ele>
        <time>2011-11-13T09:46:15Z</time>
      </trkpt>
      <trkpt lat="47.3955" lon="-2.08588">
        <ele>57.5</ele>
        <time>2011-11-13T09:46:16Z</time>
      </trkpt>
      <trkpt lat="47.39547" lon="-2.08576">
        <ele>57.3</ele>
        <time>2011-11-13T09:46:18Z</time>
      </trkpt>
      <trkpt lat="47.39545" lon="-2.08564">
        <ele>57</ele>
        <time>2011-11-13T09:46:20Z</time>
      </trkpt>
      <trkpt lat="47.39544" lon="-2.08551">
        <ele>58</ele>
        <time>2011-11-13T09:46:22Z</time>
      </trkpt>
      <trkpt lat="47.39542" lon="-2.08539">
        <ele>58.7</ele>
        <time>2011-11-13T09:46:24Z</time>
      </trkpt>
      <trkpt lat="47.39543" lon="-2.08531">
        <ele>58</ele>
        <time>2011-11-13T09:46:25Z</time>
      </trkpt>
      <trkpt lat="47.39543" lon="-2.08524">
        <ele>57.2</ele>
        <time>2011-11-13T09:46:26Z</time>
      </trkpt>
      <trkpt lat="47.39544" lon="-2.08516">
        <ele>57</ele>
        <time>2011-11-13T09:46:27Z</time>
      </trkpt>
      <trkpt lat="47.39545" lon="-2.08508">
        <ele>56.5</ele>
        <time>2011-11-13T09:46:28Z</time>
      </trkpt>
      <trkpt lat="47.39546" lon="-2.08501">
        <ele>56.3</ele>
        <time>2011-11-13T09:46:29Z</time>
      </trkpt>
      <trkpt lat="47.39547" lon="-2.08494">
        <ele>56.2</ele>
        <time>2011-11-13T09:46:30Z</time>
      </trkpt>
      <trkpt lat="47.39549" lon="-2.08487">
        <ele>56.1</ele>
        <time>2011-11-13T09:46:31Z</time>
      </trkpt>
      <trkpt lat="47.39552" lon="-2.0848">
        <ele>56.1</ele>
        <time>2011-11-13T09:46:32Z</time>
      </trkpt>
      <trkpt lat="47.39555" lon="-2.08475">
        <ele>56.1</ele>
        <time>2011-11-13T09:46:33Z</time>
      </trkpt>
      <trkpt lat="47.3956" lon="-2.08471">
        <ele>56.2</ele>
        <time>2011-11-13T09:46:35Z</time>
      </trkpt>
      <trkpt lat="47.39568" lon="-2.08466">
        <ele>56.3</ele>
        <time>2011-11-13T09:46:37Z</time>
      </trkpt>
      <trkpt lat="47.39575" lon="-2.08462">
        <ele>56.3</ele>
        <time>2011-11-13T09:46:39Z</time>
      </trkpt>
      <trkpt lat="47.39582" lon="-2.08461">
        <ele>57.5</ele>
        <time>2011-11-13T09:46:42Z</time>
      </trkpt>
      <trkpt lat="47.39587" lon="-2.08459">
        <ele>56.4</ele>
        <time>2011-11-13T09:46:43Z</time>
      </trkpt>
      <trkpt lat="47.39594" lon="-2.08465">
        <ele>57.6</ele>
        <time>2011-11-13T09:46:46Z</time>
      </trkpt>
      <trkpt lat="47.39597" lon="-2.08472">
        <ele>57.6</ele>
        <time>2011-11-13T09:46:47Z</time>
      </trkpt>
      <trkpt lat="47.396" lon="-2.08478">
        <ele>58.4</ele>
        <time>2011-11-13T09:46:49Z</time>
      </trkpt>
      <trkpt lat="47.39606" lon="-2.08482">
        <ele>61</ele>
        <time>2011-11-13T09:46:53Z</time>
      </trkpt>
      <trkpt lat="47.3961" lon="-2.08483">
        <ele>62.6</ele>
        <time>2011-11-13T09:46:55Z</time>
      </trkpt>
      <trkpt lat="47.39615" lon="-2.08484">
        <ele>62.8</ele>
        <time>2011-11-13T09:46:57Z</time>
      </trkpt>
      <trkpt lat="47.39625" lon="-2.08484">
        <ele>64</ele>
        <time>2011-11-13T09:47:02Z</time>
      </trkpt>
      <trkpt lat="47.3963" lon="-2.08485">
        <ele>64.9</ele>
        <time>2011-11-13T09:47:04Z</time>
      </trkpt>
      <trkpt lat="47.39635" lon="-2.08487">
        <ele>65.5</ele>
        <time>2011-11-13T09:47:06Z</time>
      </trkpt>
      <trkpt lat="47.3964" lon="-2.08488">
        <ele>65.8</ele>
        <time>2011-11-13T09:47:08Z</time>
      </trkpt>
      <trkpt lat="47.39649" lon="-2.08488">
        <ele>65.4</ele>
        <time>2011-11-13T09:47:11Z</time>
      </trkpt>
      <trkpt lat="47.39655" lon="-2.08488">
        <ele>65.5</ele>
        <time>2011-11-13T09:47:13Z</time>
      </trkpt>
      <trkpt lat="47.39662" lon="-2.08486">
        <ele>64.2</ele>
        <time>2011-11-13T09:47:16Z</time>
      </trkpt>
      <trkpt lat="47.39668" lon="-2.08489">
        <ele>65.2</ele>
        <time>2011-11-13T09:47:19Z</time>
      </trkpt>
      <trkpt lat="47.39676" lon="-2.08494">
        <ele>64.9</ele>
        <time>2011-11-13T09:47:21Z</time>
      </trkpt>
      <trkpt lat="47.39682" lon="-2.08498">
        <ele>64.9</ele>
        <time>2011-11-13T09:47:23Z</time>
      </trkpt>
      <trkpt lat="47.39688" lon="-2.08505">
        <ele>66.2</ele>
        <time>2011-11-13T09:47:24Z</time>
      </trkpt>
      <trkpt lat="47.39695" lon="-2.08512">
        <ele>66</ele>
        <time>2011-11-13T09:47:26Z</time>
      </trkpt>
      <trkpt lat="47.39699" lon="-2.08516">
        <ele>66.7</ele>
        <time>2011-11-13T09:47:27Z</time>
      </trkpt>
      <trkpt lat="47.397" lon="-2.08523">
        <ele>65</ele>
        <time>2011-11-13T09:47:29Z</time>
      </trkpt>
      <trkpt lat="47.39702" lon="-2.08533">
        <ele>66.1</ele>
        <time>2011-11-13T09:47:31Z</time>
      </trkpt>
      <trkpt lat="47.39706" lon="-2.08542">
        <ele>66.5</ele>
        <time>2011-11-13T09:47:33Z</time>
      </trkpt>
      <trkpt lat="47.39708" lon="-2.0855">
        <ele>67.7</ele>
        <time>2011-11-13T09:47:35Z</time>
      </trkpt>
      <trkpt lat="47.3971" lon="-2.0856">
        <ele>69.2</ele>
        <time>2011-11-13T09:47:37Z</time>
      </trkpt>
      <trkpt lat="47.39712" lon="-2.0857">
        <ele>69.5</ele>
        <time>2011-11-13T09:47:39Z</time>
      </trkpt>
      <trkpt lat="47.39713" lon="-2.08576">
        <ele>69.9</ele>
        <time>2011-11-13T09:47:40Z</time>
      </trkpt>
      <trkpt lat="47.39711" lon="-2.08587">
        <ele>70.4</ele>
        <time>2011-11-13T09:47:42Z</time>
      </trkpt>
      <trkpt lat="47.39711" lon="-2.08595">
        <ele>71.5</ele>
        <time>2011-11-13T09:47:44Z</time>
      </trkpt>
      <trkpt lat="47.39712" lon="-2.08604">
        <ele>71.9</ele>
        <time>2011-11-13T09:47:46Z</time>
      </trkpt>
      <trkpt lat="47.39713" lon="-2.08613">
        <ele>72</ele>
        <time>2011-11-13T09:47:48Z</time>
      </trkpt>
      <trkpt lat="47.39713" lon="-2.08623">
        <ele>72.1</ele>
        <time>2011-11-13T09:47:50Z</time>
      </trkpt>
      <trkpt lat="47.39715" lon="-2.08633">
        <ele>76.8</ele>
        <time>2011-11-13T09:47:53Z</time>
      </trkpt>
      <trkpt lat="47.39712" lon="-2.08642">
        <ele>73.8</ele>
        <time>2011-11-13T09:47:55Z</time>
      </trkpt>
      <trkpt lat="47.3971" lon="-2.08652">
        <ele>71.1</ele>
        <time>2011-11-13T09:47:57Z</time>
      </trkpt>
      <trkpt lat="47.39709" lon="-2.0866">
        <ele>70.6</ele>
        <time>2011-11-13T09:47:59Z</time>
      </trkpt>
      <trkpt lat="47.39708" lon="-2.08668">
        <ele>70.4</ele>
        <time>2011-11-13T09:48:01Z</time>
      </trkpt>
      <trkpt lat="47.3971" lon="-2.08678">
        <ele>72.3</ele>
        <time>2011-11-13T09:48:03Z</time>
      </trkpt>
      <trkpt lat="47.3971" lon="-2.08688">
        <ele>72.4</ele>
        <time>2011-11-13T09:48:05Z</time>
      </trkpt>
      <trkpt lat="47.39711" lon="-2.08696">
        <ele>73.2</ele>
        <time>2011-11-13T09:48:07Z</time>
      </trkpt>
      <trkpt lat="47.39712" lon="-2.08705">
        <ele>73.5</ele>
        <time>2011-11-13T09:48:09Z</time>
      </trkpt>
      <trkpt lat="47.39715" lon="-2.08714">
        <ele>73.8</ele>
        <time>2011-11-13T09:48:10Z</time>
      </trkpt>
      <trkpt lat="47.39721" lon="-2.08732">
        <ele>74.1</ele>
        <time>2011-11-13T09:48:12Z</time>
      </trkpt>
      <trkpt lat="47.39724" lon="-2.08742">
        <ele>74.3</ele>
        <time>2011-11-13T09:48:13Z</time>
      </trkpt>
      <trkpt lat="47.39724" lon="-2.08751">
        <ele>74.4</ele>
        <time>2011-11-13T09:48:14Z</time>
      </trkpt>
      <trkpt lat="47.39725" lon="-2.08758">
        <ele>74.4</ele>
        <time>2011-11-13T09:48:15Z</time>
      </trkpt>
      <trkpt lat="47.39721" lon="-2.08765">
        <ele>69.4</ele>
        <time>2011-11-13T09:48:17Z</time>
      </trkpt>
      <trkpt lat="47.39727" lon="-2.08772">
        <ele>66.3</ele>
        <time>2011-11-13T09:48:19Z</time>
      </trkpt>
      <trkpt lat="47.39736" lon="-2.08774">
        <ele>65.8</ele>
        <time>2011-11-13T09:48:21Z</time>
      </trkpt>
      <trkpt lat="47.39741" lon="-2.08776">
        <ele>66.1</ele>
        <time>2011-11-13T09:48:22Z</time>
      </trkpt>
      <trkpt lat="47.39747" lon="-2.0877">
        <ele>64.8</ele>
        <time>2011-11-13T09:48:23Z</time>
      </trkpt>
      <trkpt lat="47.39756" lon="-2.08771">
        <ele>64</ele>
        <time>2011-11-13T09:48:24Z</time>
      </trkpt>
      <trkpt lat="47.39761" lon="-2.0877">
        <ele>63.2</ele>
        <time>2011-11-13T09:48:25Z</time>
      </trkpt>
      <trkpt lat="47.39765" lon="-2.08769">
        <ele>63.3</ele>
        <time>2011-11-13T09:48:26Z</time>
      </trkpt>
      <trkpt lat="47.39773" lon="-2.08762">
        <ele>62.2</ele>
        <time>2011-11-13T09:48:28Z</time>
      </trkpt>
      <trkpt lat="47.39781" lon="-2.08764">
        <ele>62.4</ele>
        <time>2011-11-13T09:48:29Z</time>
      </trkpt>
      <trkpt lat="47.39787" lon="-2.08763">
        <ele>61.6</ele>
        <time>2011-11-13T09:48:30Z</time>
      </trkpt>
      <trkpt lat="47.39793" lon="-2.0876">
        <ele>61.6</ele>
        <time>2011-11-13T09:48:31Z</time>
      </trkpt>
      <trkpt lat="47.39799" lon="-2.08759">
        <ele>61.9</ele>
        <time>2011-11-13T09:48:32Z</time>
      </trkpt>
      <trkpt lat="47.39806" lon="-2.08757">
        <ele>61.9</ele>
        <time>2011-11-13T09:48:33Z</time>
      </trkpt>
      <trkpt lat="47.39811" lon="-2.08754">
        <ele>61.5</ele>
        <time>2011-11-13T09:48:34Z</time>
      </trkpt>
      <trkpt lat="47.39816" lon="-2.0875">
        <ele>61.7</ele>
        <time>2011-11-13T09:48:35Z</time>
      </trkpt>
      <trkpt lat="47.39822" lon="-2.08754">
        <ele>62.3</ele>
        <time>2011-11-13T09:48:36Z</time>
      </trkpt>
      <trkpt lat="47.39826" lon="-2.08746">
        <ele>62.7</ele>
        <time>2011-11-13T09:48:37Z</time>
      </trkpt>
      <trkpt lat="47.39831" lon="-2.08744">
        <ele>63.8</ele>
        <time>2011-11-13T09:48:38Z</time>
      </trkpt>
      <trkpt lat="47.39836" lon="-2.08738">
        <ele>64.3</ele>
        <time>2011-11-13T09:48:39Z</time>
      </trkpt>
      <trkpt lat="47.39841" lon="-2.08731">
        <ele>64.6</ele>
        <time>2011-11-13T09:48:40Z</time>
      </trkpt>
      <trkpt lat="47.39845" lon="-2.08725">
        <ele>65.1</ele>
        <time>2011-11-13T09:48:41Z</time>
      </trkpt>
      <trkpt lat="47.39852" lon="-2.0872">
        <ele>65.1</ele>
        <time>2011-11-13T09:48:42Z</time>
      </trkpt>
      <trkpt lat="47.39857" lon="-2.08714">
        <ele>65.1</ele>
        <time>2011-11-13T09:48:43Z</time>
      </trkpt>
      <trkpt lat="47.39862" lon="-2.08708">
        <ele>64.9</ele>
        <time>2011-11-13T09:48:44Z</time>
      </trkpt>
      <trkpt lat="47.39868" lon="-2.08704">
        <ele>64.9</ele>
        <time>2011-11-13T09:48:45Z</time>
      </trkpt>
      <trkpt lat="47.39872" lon="-2.08696">
        <ele>63.2</ele>
        <time>2011-11-13T09:48:46Z</time>
      </trkpt>
      <trkpt lat="47.39877" lon="-2.08689">
        <ele>61.2</ele>
        <time>2011-11-13T09:48:47Z</time>
      </trkpt>
      <trkpt lat="47.3988" lon="-2.08684">
        <ele>60.6</ele>
        <time>2011-11-13T09:48:48Z</time>
      </trkpt>
      <trkpt lat="47.39884" lon="-2.08679">
        <ele>61</ele>
        <time>2011-11-13T09:48:49Z</time>
      </trkpt>
      <trkpt lat="47.39888" lon="-2.08677">
        <ele>62.1</ele>
        <time>2011-11-13T09:48:51Z</time>
      </trkpt>
      <trkpt lat="47.39895" lon="-2.08667">
        <ele>63.7</ele>
        <time>2011-11-13T09:48:53Z</time>
      </trkpt>
      <trkpt lat="47.39901" lon="-2.08658">
        <ele>64.6</ele>
        <time>2011-11-13T09:48:55Z</time>
      </trkpt>
      <trkpt lat="47.39905" lon="-2.08647">
        <ele>64.9</ele>
        <time>2011-11-13T09:48:57Z</time>
      </trkpt>
      <trkpt lat="47.39909" lon="-2.08643">
        <ele>65</ele>
        <time>2011-11-13T09:48:58Z</time>
      </trkpt>
      <trkpt lat="47.39914" lon="-2.08637">
        <ele>65</ele>
        <time>2011-11-13T09:48:59Z</time>
      </trkpt>
      <trkpt lat="47.39919" lon="-2.08634">
        <ele>65</ele>
        <time>2011-11-13T09:49:00Z</time>
      </trkpt>
      <trkpt lat="47.39924" lon="-2.08631">
        <ele>64.1</ele>
        <time>2011-11-13T09:49:01Z</time>
      </trkpt>
      <trkpt lat="47.39933" lon="-2.08635">
        <ele>63.2</ele>
        <time>2011-11-13T09:49:03Z</time>
      </trkpt>
      <trkpt lat="47.3994" lon="-2.08641">
        <ele>62</ele>
        <time>2011-11-13T09:49:05Z</time>
      </trkpt>
      <trkpt lat="47.39947" lon="-2.08648">
        <ele>60.9</ele>
        <time>2011-11-13T09:49:07Z</time>
      </trkpt>
      <trkpt lat="47.39952" lon="-2.08655">
        <ele>60.8</ele>
        <time>2011-11-13T09:49:09Z</time>
      </trkpt>
      <trkpt lat="47.39959" lon="-2.08663">
        <ele>60.3</ele>
        <time>2011-11-13T09:49:11Z</time>
      </trkpt>
      <trkpt lat="47.39965" lon="-2.08665">
        <ele>61.1</ele>
        <time>2011-11-13T09:49:14Z</time>
      </trkpt>
      <trkpt lat="47.39972" lon="-2.08674">
        <ele>61.1</ele>
        <time>2011-11-13T09:49:15Z</time>
      </trkpt>
      <trkpt lat="47.39977" lon="-2.08679">
        <ele>61</ele>
        <time>2011-11-13T09:49:16Z</time>
      </trkpt>
      <trkpt lat="47.39984" lon="-2.08677">
        <ele>61.9</ele>
        <time>2011-11-13T09:49:18Z</time>
      </trkpt>
      <trkpt lat="47.39989" lon="-2.08673">
        <ele>65.6</ele>
        <time>2011-11-13T09:49:20Z</time>
      </trkpt>
      <trkpt lat="47.39995" lon="-2.08666">
        <ele>67.2</ele>
        <time>2011-11-13T09:49:22Z</time>
      </trkpt>
      <trkpt lat="47.4" lon="-2.08661">
        <ele>67.9</ele>
        <time>2011-11-13T09:49:23Z</time>
      </trkpt>
      <trkpt lat="47.40002" lon="-2.08655">
        <ele>68.1</ele>
        <time>2011-11-13T09:49:24Z</time>
      </trkpt>
      <trkpt lat="47.40005" lon="-2.08649">
        <ele>68.4</ele>
        <time>2011-11-13T09:49:25Z</time>
      </trkpt>
      <trkpt lat="47.40009" lon="-2.08643">
        <ele>68.7</ele>
        <time>2011-11-13T09:49:26Z</time>
      </trkpt>
      <trkpt lat="47.40016" lon="-2.08632">
        <ele>68.9</ele>
        <time>2011-11-13T09:49:28Z</time>
      </trkpt>
      <trkpt lat="47.4002" lon="-2.08629">
        <ele>68.8</ele>
        <time>2011-11-13T09:49:29Z</time>
      </trkpt>
      <trkpt lat="47.40025" lon="-2.08622">
        <ele>69.2</ele>
        <time>2011-11-13T09:49:31Z</time>
      </trkpt>
      <trkpt lat="47.40031" lon="-2.08613">
        <ele>69.4</ele>
        <time>2011-11-13T09:49:33Z</time>
      </trkpt>
      <trkpt lat="47.40035" lon="-2.08605">
        <ele>70.4</ele>
        <time>2011-11-13T09:49:35Z</time>
      </trkpt>
      <trkpt lat="47.40038" lon="-2.08597">
        <ele>70.2</ele>
        <time>2011-11-13T09:49:37Z</time>
      </trkpt>
      <trkpt lat="47.40044" lon="-2.08591">
        <ele>70.9</ele>
        <time>2011-11-13T09:49:39Z</time>
      </trkpt>
      <trkpt lat="47.40052" lon="-2.08586">
        <ele>71.7</ele>
        <time>2011-11-13T09:49:41Z</time>
      </trkpt>
      <trkpt lat="47.40058" lon="-2.08578">
        <ele>68.1</ele>
        <time>2011-11-13T09:49:42Z</time>
      </trkpt>
      <trkpt lat="47.40058" lon="-2.08571">
        <ele>65.5</ele>
        <time>2011-11-13T09:49:43Z</time>
      </trkpt>
      <trkpt lat="47.40063" lon="-2.08566">
        <ele>63.6</ele>
        <time>2011-11-13T09:49:46Z</time>
      </trkpt>
      <trkpt lat="47.40067" lon="-2.08574">
        <ele>64.7</ele>
        <time>2011-11-13T09:49:49Z</time>
      </trkpt>
      <trkpt lat="47.4007" lon="-2.08584">
        <ele>64.6</ele>
        <time>2011-11-13T09:49:52Z</time>
      </trkpt>
      <trkpt lat="47.40069" lon="-2.08594">
        <ele>69.8</ele>
        <time>2011-11-13T09:49:54Z</time>
      </trkpt>
      <trkpt lat="47.40067" lon="-2.08603">
        <ele>72.8</ele>
        <time>2011-11-13T09:49:57Z</time>
      </trkpt>
      <trkpt lat="47.40066" lon="-2.08612">
        <ele>72.4</ele>
        <time>2011-11-13T09:49:59Z</time>
      </trkpt>
      <trkpt lat="47.40066" lon="-2.0862">
        <ele>73.2</ele>
        <time>2011-11-13T09:50:01Z</time>
      </trkpt>
      <trkpt lat="47.40065" lon="-2.08628">
        <ele>74.4</ele>
        <time>2011-11-13T09:50:03Z</time>
      </trkpt>
      <trkpt lat="47.40064" lon="-2.08636">
        <ele>74.9</ele>
        <time>2011-11-13T09:50:05Z</time>
      </trkpt>
      <trkpt lat="47.40063" lon="-2.08644">
        <ele>73.8</ele>
        <time>2011-11-13T09:50:07Z</time>
      </trkpt>
      <trkpt lat="47.4006" lon="-2.0865">
        <ele>71.5</ele>
        <time>2011-11-13T09:50:08Z</time>
      </trkpt>
      <trkpt lat="47.40052" lon="-2.08651">
        <ele>67.4</ele>
        <time>2011-11-13T09:50:10Z</time>
      </trkpt>
      <trkpt lat="47.40046" lon="-2.08649">
        <ele>66.3</ele>
        <time>2011-11-13T09:50:12Z</time>
      </trkpt>
      <trkpt lat="47.40041" lon="-2.08652">
        <ele>66.8</ele>
        <time>2011-11-13T09:50:17Z</time>
      </trkpt>
      <trkpt lat="47.40037" lon="-2.08659">
        <ele>69</ele>
        <time>2011-11-13T09:50:21Z</time>
      </trkpt>
      <trkpt lat="47.40035" lon="-2.08665">
        <ele>70.9</ele>
        <time>2011-11-13T09:50:24Z</time>
      </trkpt>
      <trkpt lat="47.40033" lon="-2.08674">
        <ele>71.6</ele>
        <time>2011-11-13T09:50:27Z</time>
      </trkpt>
      <trkpt lat="47.40032" lon="-2.0868">
        <ele>70.8</ele>
        <time>2011-11-13T09:50:29Z</time>
      </trkpt>
      <trkpt lat="47.40027" lon="-2.08687">
        <ele>69.3</ele>
        <time>2011-11-13T09:50:31Z</time>
      </trkpt>
      <trkpt lat="47.40019" lon="-2.0869">
        <ele>67.1</ele>
        <time>2011-11-13T09:50:33Z</time>
      </trkpt>
      <trkpt lat="47.40012" lon="-2.08694">
        <ele>62.3</ele>
        <time>2011-11-13T09:50:36Z</time>
      </trkpt>
      <trkpt lat="47.40018" lon="-2.087">
        <ele>61.6</ele>
        <time>2011-11-13T09:50:45Z</time>
      </trkpt>
      <trkpt lat="47.40023" lon="-2.08696">
        <ele>63.9</ele>
        <time>2011-11-13T09:50:48Z</time>
      </trkpt>
      <trkpt lat="47.40027" lon="-2.08689">
        <ele>63.3</ele>
        <time>2011-11-13T09:50:50Z</time>
      </trkpt>
      <trkpt lat="47.40032" lon="-2.08693">
        <ele>65.3</ele>
        <time>2011-11-13T09:50:51Z</time>
      </trkpt>
      <trkpt lat="47.40036" lon="-2.08689">
        <ele>63.6</ele>
        <time>2011-11-13T09:50:53Z</time>
      </trkpt>
      <trkpt lat="47.4004" lon="-2.08695">
        <ele>66.4</ele>
        <time>2011-11-13T09:50:57Z</time>
      </trkpt>
      <trkpt lat="47.40042" lon="-2.08704">
        <ele>68.2</ele>
        <time>2011-11-13T09:51:01Z</time>
      </trkpt>
      <trkpt lat="47.40042" lon="-2.08713">
        <ele>69.6</ele>
        <time>2011-11-13T09:51:04Z</time>
      </trkpt>
      <trkpt lat="47.40038" lon="-2.08718">
        <ele>69</ele>
        <time>2011-11-13T09:51:09Z</time>
      </trkpt>
      <trkpt lat="47.40039" lon="-2.08725">
        <ele>68.4</ele>
        <time>2011-11-13T09:51:12Z</time>
      </trkpt>
      <trkpt lat="47.4004" lon="-2.08732">
        <ele>65.9</ele>
        <time>2011-11-13T09:51:18Z</time>
      </trkpt>
      <trkpt lat="47.40044" lon="-2.08733">
        <ele>67.1</ele>
        <time>2011-11-13T09:51:20Z</time>
      </trkpt>
      <trkpt lat="47.40049" lon="-2.08736">
        <ele>67</ele>
        <time>2011-11-13T09:51:23Z</time>
      </trkpt>
      <trkpt lat="47.40053" lon="-2.08738">
        <ele>67</ele>
        <time>2011-11-13T09:51:25Z</time>
      </trkpt>
      <trkpt lat="47.4005" lon="-2.08742">
        <ele>62</ele>
        <time>2011-11-13T09:51:35Z</time>
      </trkpt>
      <trkpt lat="47.40048" lon="-2.08735">
        <ele>63.2</ele>
        <time>2011-11-13T09:51:39Z</time>
      </trkpt>
      <trkpt lat="47.40051" lon="-2.08723">
        <ele>66.7</ele>
        <time>2011-11-13T09:51:43Z</time>
      </trkpt>
      <trkpt lat="47.40052" lon="-2.08714">
        <ele>68.5</ele>
        <time>2011-11-13T09:51:45Z</time>
      </trkpt>
      <trkpt lat="47.40054" lon="-2.08709">
        <ele>70.1</ele>
        <time>2011-11-13T09:51:47Z</time>
      </trkpt>
      <trkpt lat="47.4006" lon="-2.08702">
        <ele>71.4</ele>
        <time>2011-11-13T09:51:50Z</time>
      </trkpt>
      <trkpt lat="47.40064" lon="-2.08696">
        <ele>72.1</ele>
        <time>2011-11-13T09:51:52Z</time>
      </trkpt>
      <trkpt lat="47.40069" lon="-2.08691">
        <ele>72.9</ele>
        <time>2011-11-13T09:51:54Z</time>
      </trkpt>
      <trkpt lat="47.40074" lon="-2.08689">
        <ele>73.2</ele>
        <time>2011-11-13T09:51:56Z</time>
      </trkpt>
      <trkpt lat="47.40079" lon="-2.08688">
        <ele>70.4</ele>
        <time>2011-11-13T09:51:58Z</time>
      </trkpt>
      <trkpt lat="47.40082" lon="-2.08694">
        <ele>68.9</ele>
        <time>2011-11-13T09:52:00Z</time>
      </trkpt>
      <trkpt lat="47.40087" lon="-2.08699">
        <ele>66</ele>
        <time>2011-11-13T09:52:02Z</time>
      </trkpt>
      <trkpt lat="47.40089" lon="-2.08706">
        <ele>67</ele>
        <time>2011-11-13T09:52:05Z</time>
      </trkpt>
      <trkpt lat="47.40088" lon="-2.08714">
        <ele>67.8</ele>
        <time>2011-11-13T09:52:08Z</time>
      </trkpt>
      <trkpt lat="47.40086" lon="-2.08723">
        <ele>67.3</ele>
        <time>2011-11-13T09:52:12Z</time>
      </trkpt>
      <trkpt lat="47.40082" lon="-2.08727">
        <ele>63</ele>
        <time>2011-11-13T09:52:17Z</time>
      </trkpt>
      <trkpt lat="47.40087" lon="-2.08725">
        <ele>60.1</ele>
        <time>2011-11-13T09:52:20Z</time>
      </trkpt>
      <trkpt lat="47.40089" lon="-2.08717">
        <ele>62.5</ele>
        <time>2011-11-13T09:52:24Z</time>
      </trkpt>
      <trkpt lat="47.40092" lon="-2.08711">
        <ele>62.3</ele>
        <time>2011-11-13T09:52:28Z</time>
      </trkpt>
      <trkpt lat="47.40092" lon="-2.08703">
        <ele>61.6</ele>
        <time>2011-11-13T09:52:32Z</time>
      </trkpt>
      <trkpt lat="47.40094" lon="-2.08694">
        <ele>63</ele>
        <time>2011-11-13T09:52:38Z</time>
      </trkpt>
      <trkpt lat="47.40099" lon="-2.08695">
        <ele>60.4</ele>
        <time>2011-11-13T09:52:43Z</time>
      </trkpt>
      <trkpt lat="47.40101" lon="-2.08702">
        <ele>61.9</ele>
        <time>2011-11-13T09:52:46Z</time>
      </trkpt>
      <trkpt lat="47.40104" lon="-2.08709">
        <ele>62.4</ele>
        <time>2011-11-13T09:52:48Z</time>
      </trkpt>
      <trkpt lat="47.40104" lon="-2.08716">
        <ele>62.9</ele>
        <time>2011-11-13T09:52:51Z</time>
      </trkpt>
      <trkpt lat="47.40104" lon="-2.08725">
        <ele>64</ele>
        <time>2011-11-13T09:52:53Z</time>
      </trkpt>
      <trkpt lat="47.40105" lon="-2.08732">
        <ele>64.1</ele>
        <time>2011-11-13T09:52:56Z</time>
      </trkpt>
      <trkpt lat="47.4011" lon="-2.0873">
        <ele>61.6</ele>
        <time>2011-11-13T09:52:59Z</time>
      </trkpt>
      <trkpt lat="47.40116" lon="-2.08725">
        <ele>58.6</ele>
        <time>2011-11-13T09:53:05Z</time>
      </trkpt>
      <trkpt lat="47.4012" lon="-2.08728">
        <ele>58.5</ele>
        <time>2011-11-13T09:53:07Z</time>
      </trkpt>
      <trkpt lat="47.40126" lon="-2.0873">
        <ele>59.2</ele>
        <time>2011-11-13T09:53:10Z</time>
      </trkpt>
      <trkpt lat="47.4013" lon="-2.08733">
        <ele>59.2</ele>
        <time>2011-11-13T09:53:13Z</time>
      </trkpt>
      <trkpt lat="47.40135" lon="-2.08739">
        <ele>59.8</ele>
        <time>2011-11-13T09:53:15Z</time>
      </trkpt>
      <trkpt lat="47.40138" lon="-2.08748">
        <ele>60</ele>
        <time>2011-11-13T09:53:17Z</time>
      </trkpt>
      <trkpt lat="47.40131" lon="-2.08753">
        <ele>61.9</ele>
        <time>2011-11-13T09:53:20Z</time>
      </trkpt>
      <trkpt lat="47.40125" lon="-2.08756">
        <ele>62.1</ele>
        <time>2011-11-13T09:53:23Z</time>
      </trkpt>
      <trkpt lat="47.40122" lon="-2.0876">
        <ele>62.4</ele>
        <time>2011-11-13T09:53:25Z</time>
      </trkpt>
      <trkpt lat="47.40117" lon="-2.08765">
        <ele>62.9</ele>
        <time>2011-11-13T09:53:28Z</time>
      </trkpt>
      <trkpt lat="47.40111" lon="-2.08766">
        <ele>63.1</ele>
        <time>2011-11-13T09:53:30Z</time>
      </trkpt>
      <trkpt lat="47.40105" lon="-2.08766">
        <ele>62.3</ele>
        <time>2011-11-13T09:53:32Z</time>
      </trkpt>
      <trkpt lat="47.40099" lon="-2.0876">
        <ele>60.1</ele>
        <time>2011-11-13T09:53:34Z</time>
      </trkpt>
      <trkpt lat="47.40095" lon="-2.08754">
        <ele>58.9</ele>
        <time>2011-11-13T09:53:36Z</time>
      </trkpt>
      <trkpt lat="47.40091" lon="-2.08748">
        <ele>58.7</ele>
        <time>2011-11-13T09:53:38Z</time>
      </trkpt>
      <trkpt lat="47.4009" lon="-2.08755">
        <ele>55.8</ele>
        <time>2011-11-13T09:53:40Z</time>
      </trkpt>
      <trkpt lat="47.40088" lon="-2.08762">
        <ele>53.5</ele>
        <time>2011-11-13T09:53:44Z</time>
      </trkpt>
      <trkpt lat="47.40093" lon="-2.08764">
        <ele>55.5</ele>
        <time>2011-11-13T09:53:48Z</time>
      </trkpt>
      <trkpt lat="47.40098" lon="-2.08765">
        <ele>56</ele>
        <time>2011-11-13T09:53:51Z</time>
      </trkpt>
      <trkpt lat="47.40108" lon="-2.0877">
        <ele>55.9</ele>
        <time>2011-11-13T09:53:53Z</time>
      </trkpt>
      <trkpt lat="47.40113" lon="-2.08775">
        <ele>57.5</ele>
        <time>2011-11-13T09:53:54Z</time>
      </trkpt>
      <trkpt lat="47.40119" lon="-2.08777">
        <ele>58.3</ele>
        <time>2011-11-13T09:53:56Z</time>
      </trkpt>
      <trkpt lat="47.40128" lon="-2.0878">
        <ele>58.4</ele>
        <time>2011-11-13T09:53:58Z</time>
      </trkpt>
      <trkpt lat="47.40135" lon="-2.0878">
        <ele>57.6</ele>
        <time>2011-11-13T09:54:00Z</time>
      </trkpt>
      <trkpt lat="47.4014" lon="-2.0878">
        <ele>57.9</ele>
        <time>2011-11-13T09:54:01Z</time>
      </trkpt>
      <trkpt lat="47.40147" lon="-2.08778">
        <ele>57.7</ele>
        <time>2011-11-13T09:54:03Z</time>
      </trkpt>
      <trkpt lat="47.40155" lon="-2.08777">
        <ele>57.1</ele>
        <time>2011-11-13T09:54:05Z</time>
      </trkpt>
      <trkpt lat="47.4016" lon="-2.08772">
        <ele>58.1</ele>
        <time>2011-11-13T09:54:07Z</time>
      </trkpt>
      <trkpt lat="47.40166" lon="-2.08769">
        <ele>58.1</ele>
        <time>2011-11-13T09:54:09Z</time>
      </trkpt>
      <trkpt lat="47.40171" lon="-2.08768">
        <ele>57.8</ele>
        <time>2011-11-13T09:54:11Z</time>
      </trkpt>
      <trkpt lat="47.40177" lon="-2.08765">
        <ele>58.2</ele>
        <time>2011-11-13T09:54:13Z</time>
      </trkpt>
      <trkpt lat="47.40182" lon="-2.08764">
        <ele>58.2</ele>
        <time>2011-11-13T09:54:15Z</time>
      </trkpt>
      <trkpt lat="47.40186" lon="-2.0876">
        <ele>56.6</ele>
        <time>2011-11-13T09:54:19Z</time>
      </trkpt>
      <trkpt lat="47.40198" lon="-2.08779">
        <ele>55.7</ele>
        <time>2011-11-13T09:54:20Z</time>
      </trkpt>
      <trkpt lat="47.40205" lon="-2.08788">
        <ele>54.8</ele>
        <time>2011-11-13T09:54:21Z</time>
      </trkpt>
      <trkpt lat="47.40207" lon="-2.08795">
        <ele>56.7</ele>
        <time>2011-11-13T09:54:23Z</time>
      </trkpt>
      <trkpt lat="47.40213" lon="-2.08808">
        <ele>60.5</ele>
        <time>2011-11-13T09:54:27Z</time>
      </trkpt>
      <trkpt lat="47.40216" lon="-2.08815">
        <ele>63</ele>
        <time>2011-11-13T09:54:29Z</time>
      </trkpt>
      <trkpt lat="47.40219" lon="-2.08821">
        <ele>63.8</ele>
        <time>2011-11-13T09:54:31Z</time>
      </trkpt>
      <trkpt lat="47.40221" lon="-2.08829">
        <ele>64.9</ele>
        <time>2011-11-13T09:54:33Z</time>
      </trkpt>
      <trkpt lat="47.40223" lon="-2.08836">
        <ele>65.5</ele>
        <time>2011-11-13T09:54:35Z</time>
      </trkpt>
      <trkpt lat="47.40226" lon="-2.08843">
        <ele>65.4</ele>
        <time>2011-11-13T09:54:37Z</time>
      </trkpt>
      <trkpt lat="47.40229" lon="-2.0885">
        <ele>65.2</ele>
        <time>2011-11-13T09:54:39Z</time>
      </trkpt>
      <trkpt lat="47.40231" lon="-2.08859">
        <ele>65</ele>
        <time>2011-11-13T09:54:41Z</time>
      </trkpt>
      <trkpt lat="47.40233" lon="-2.08865">
        <ele>65.7</ele>
        <time>2011-11-13T09:54:43Z</time>
      </trkpt>
      <trkpt lat="47.40235" lon="-2.08871">
        <ele>66</ele>
        <time>2011-11-13T09:54:44Z</time>
      </trkpt>
      <trkpt lat="47.40233" lon="-2.08879">
        <ele>65.2</ele>
        <time>2011-11-13T09:54:46Z</time>
      </trkpt>
      <trkpt lat="47.40233" lon="-2.08889">
        <ele>62.4</ele>
        <time>2011-11-13T09:54:48Z</time>
      </trkpt>
      <trkpt lat="47.40236" lon="-2.08898">
        <ele>62.8</ele>
        <time>2011-11-13T09:54:49Z</time>
      </trkpt>
      <trkpt lat="47.40241" lon="-2.089">
        <ele>62.6</ele>
        <time>2011-11-13T09:54:51Z</time>
      </trkpt>
      <trkpt lat="47.4025" lon="-2.08898">
        <ele>65.3</ele>
        <time>2011-11-13T09:54:53Z</time>
      </trkpt>
      <trkpt lat="47.40256" lon="-2.08898">
        <ele>65.6</ele>
        <time>2011-11-13T09:54:55Z</time>
      </trkpt>
      <trkpt lat="47.40266" lon="-2.08897">
        <ele>65.6</ele>
        <time>2011-11-13T09:54:57Z</time>
      </trkpt>
      <trkpt lat="47.40272" lon="-2.08894">
        <ele>65.8</ele>
        <time>2011-11-13T09:54:58Z</time>
      </trkpt>
      <trkpt lat="47.40279" lon="-2.0889">
        <ele>64.5</ele>
        <time>2011-11-13T09:54:59Z</time>
      </trkpt>
      <trkpt lat="47.40282" lon="-2.08885">
        <ele>63.7</ele>
        <time>2011-11-13T09:55:00Z</time>
      </trkpt>
      <trkpt lat="47.40289" lon="-2.08883">
        <ele>64.3</ele>
        <time>2011-11-13T09:55:02Z</time>
      </trkpt>
      <trkpt lat="47.40299" lon="-2.08883">
        <ele>63</ele>
        <time>2011-11-13T09:55:04Z</time>
      </trkpt>
      <trkpt lat="47.40308" lon="-2.08883">
        <ele>61.9</ele>
        <time>2011-11-13T09:55:06Z</time>
      </trkpt>
      <trkpt lat="47.40316" lon="-2.08887">
        <ele>62.2</ele>
        <time>2011-11-13T09:55:07Z</time>
      </trkpt>
      <trkpt lat="47.40325" lon="-2.08887">
        <ele>61.4</ele>
        <time>2011-11-13T09:55:09Z</time>
      </trkpt>
      <trkpt lat="47.40331" lon="-2.08888">
        <ele>61.7</ele>
        <time>2011-11-13T09:55:10Z</time>
      </trkpt>
      <trkpt lat="47.40336" lon="-2.08887">
        <ele>62.2</ele>
        <time>2011-11-13T09:55:11Z</time>
      </trkpt>
      <trkpt lat="47.40341" lon="-2.08888">
        <ele>62.5</ele>
        <time>2011-11-13T09:55:12Z</time>
      </trkpt>
      <trkpt lat="47.40346" lon="-2.08888">
        <ele>62.7</ele>
        <time>2011-11-13T09:55:13Z</time>
      </trkpt>
      <trkpt lat="47.4035" lon="-2.08888">
        <ele>62.2</ele>
        <time>2011-11-13T09:55:14Z</time>
      </trkpt>
      <trkpt lat="47.40359" lon="-2.08886">
        <ele>62.2</ele>
        <time>2011-11-13T09:55:16Z</time>
      </trkpt>
      <trkpt lat="47.40364" lon="-2.08883">
        <ele>61.9</ele>
        <time>2011-11-13T09:55:17Z</time>
      </trkpt>
      <trkpt lat="47.40373" lon="-2.08879">
        <ele>62</ele>
        <time>2011-11-13T09:55:19Z</time>
      </trkpt>
      <trkpt lat="47.40379" lon="-2.0887">
        <ele>61.4</ele>
        <time>2011-11-13T09:55:21Z</time>
      </trkpt>
      <trkpt lat="47.40382" lon="-2.08865">
        <ele>62</ele>
        <time>2011-11-13T09:55:22Z</time>
      </trkpt>
      <trkpt lat="47.40385" lon="-2.0886">
        <ele>62.3</ele>
        <time>2011-11-13T09:55:23Z</time>
      </trkpt>
      <trkpt lat="47.40386" lon="-2.0885">
        <ele>63.6</ele>
        <time>2011-11-13T09:55:25Z</time>
      </trkpt>
      <trkpt lat="47.40386" lon="-2.08836">
        <ele>63.4</ele>
        <time>2011-11-13T09:55:27Z</time>
      </trkpt>
      <trkpt lat="47.40386" lon="-2.08829">
        <ele>64.2</ele>
        <time>2011-11-13T09:55:28Z</time>
      </trkpt>
      <trkpt lat="47.40383" lon="-2.08821">
        <ele>64.7</ele>
        <time>2011-11-13T09:55:30Z</time>
      </trkpt>
      <trkpt lat="47.40382" lon="-2.08811">
        <ele>65.2</ele>
        <time>2011-11-13T09:55:31Z</time>
      </trkpt>
      <trkpt lat="47.40382" lon="-2.08804">
        <ele>65.6</ele>
        <time>2011-11-13T09:55:32Z</time>
      </trkpt>
      <trkpt lat="47.40379" lon="-2.08792">
        <ele>65.9</ele>
        <time>2011-11-13T09:55:34Z</time>
      </trkpt>
      <trkpt lat="47.40377" lon="-2.08785">
        <ele>66.1</ele>
        <time>2011-11-13T09:55:35Z</time>
      </trkpt>
      <trkpt lat="47.40376" lon="-2.08778">
        <ele>66.1</ele>
        <time>2011-11-13T09:55:36Z</time>
      </trkpt>
      <trkpt lat="47.40376" lon="-2.0877">
        <ele>66.1</ele>
        <time>2011-11-13T09:55:37Z</time>
      </trkpt>
      <trkpt lat="47.40376" lon="-2.08761">
        <ele>66.4</ele>
        <time>2011-11-13T09:55:38Z</time>
      </trkpt>
      <trkpt lat="47.40376" lon="-2.08752">
        <ele>66.5</ele>
        <time>2011-11-13T09:55:39Z</time>
      </trkpt>
      <trkpt lat="47.40374" lon="-2.08745">
        <ele>66.2</ele>
        <time>2011-11-13T09:55:40Z</time>
      </trkpt>
      <trkpt lat="47.40372" lon="-2.08737">
        <ele>64.6</ele>
        <time>2011-11-13T09:55:41Z</time>
      </trkpt>
      <trkpt lat="47.4037" lon="-2.0873">
        <ele>63.6</ele>
        <time>2011-11-13T09:55:42Z</time>
      </trkpt>
      <trkpt lat="47.40367" lon="-2.08725">
        <ele>63.6</ele>
        <time>2011-11-13T09:55:43Z</time>
      </trkpt>
      <trkpt lat="47.40364" lon="-2.08718">
        <ele>63.4</ele>
        <time>2011-11-13T09:55:44Z</time>
      </trkpt>
      <trkpt lat="47.40361" lon="-2.08711">
        <ele>63.2</ele>
        <time>2011-11-13T09:55:45Z</time>
      </trkpt>
      <trkpt lat="47.40358" lon="-2.08706">
        <ele>64.3</ele>
        <time>2011-11-13T09:55:46Z</time>
      </trkpt>
      <trkpt lat="47.40355" lon="-2.08699">
        <ele>64.7</ele>
        <time>2011-11-13T09:55:47Z</time>
      </trkpt>
      <trkpt lat="47.40352" lon="-2.08692">
        <ele>65</ele>
        <time>2011-11-13T09:55:48Z</time>
      </trkpt>
      <trkpt lat="47.4035" lon="-2.08684">
        <ele>65.1</ele>
        <time>2011-11-13T09:55:49Z</time>
      </trkpt>
      <trkpt lat="47.40349" lon="-2.08673">
        <ele>64.9</ele>
        <time>2011-11-13T09:55:50Z</time>
      </trkpt>
      <trkpt lat="47.4035" lon="-2.08663">
        <ele>65</ele>
        <time>2011-11-13T09:55:51Z</time>
      </trkpt>
      <trkpt lat="47.40351" lon="-2.08654">
        <ele>64.1</ele>
        <time>2011-11-13T09:55:52Z</time>
      </trkpt>
      <trkpt lat="47.40352" lon="-2.08645">
        <ele>63.6</ele>
        <time>2011-11-13T09:55:53Z</time>
      </trkpt>
      <trkpt lat="47.40353" lon="-2.08635">
        <ele>63.3</ele>
        <time>2011-11-13T09:55:54Z</time>
      </trkpt>
      <trkpt lat="47.40354" lon="-2.08626">
        <ele>63</ele>
        <time>2011-11-13T09:55:55Z</time>
      </trkpt>
      <trkpt lat="47.40354" lon="-2.08617">
        <ele>62.8</ele>
        <time>2011-11-13T09:55:56Z</time>
      </trkpt>
      <trkpt lat="47.40351" lon="-2.08606">
        <ele>63.5</ele>
        <time>2011-11-13T09:55:58Z</time>
      </trkpt>
      <trkpt lat="47.40352" lon="-2.08596">
        <ele>64.1</ele>
        <time>2011-11-13T09:56:00Z</time>
      </trkpt>
      <trkpt lat="47.40354" lon="-2.08587">
        <ele>64.2</ele>
        <time>2011-11-13T09:56:02Z</time>
      </trkpt>
      <trkpt lat="47.40359" lon="-2.08586">
        <ele>66.1</ele>
        <time>2011-11-13T09:56:05Z</time>
      </trkpt>
      <trkpt lat="47.40364" lon="-2.08584">
        <ele>67</ele>
        <time>2011-11-13T09:56:08Z</time>
      </trkpt>
      <trkpt lat="47.4037" lon="-2.08584">
        <ele>63.8</ele>
        <time>2011-11-13T09:56:13Z</time>
      </trkpt>
      <trkpt lat="47.40375" lon="-2.08587">
        <ele>63.6</ele>
        <time>2011-11-13T09:56:16Z</time>
      </trkpt>
      <trkpt lat="47.40381" lon="-2.08591">
        <ele>64.2</ele>
        <time>2011-11-13T09:56:19Z</time>
      </trkpt>
      <trkpt lat="47.40386" lon="-2.08594">
        <ele>64.3</ele>
        <time>2011-11-13T09:56:21Z</time>
      </trkpt>
      <trkpt lat="47.40392" lon="-2.086">
        <ele>64.4</ele>
        <time>2011-11-13T09:56:23Z</time>
      </trkpt>
      <trkpt lat="47.40402" lon="-2.08606">
        <ele>64.1</ele>
        <time>2011-11-13T09:56:25Z</time>
      </trkpt>
      <trkpt lat="47.40409" lon="-2.08607">
        <ele>62.7</ele>
        <time>2011-11-13T09:56:28Z</time>
      </trkpt>
      <trkpt lat="47.40416" lon="-2.08611">
        <ele>63.1</ele>
        <time>2011-11-13T09:56:30Z</time>
      </trkpt>
      <trkpt lat="47.40421" lon="-2.08616">
        <ele>63.2</ele>
        <time>2011-11-13T09:56:32Z</time>
      </trkpt>
      <trkpt lat="47.40426" lon="-2.08622">
        <ele>63.8</ele>
        <time>2011-11-13T09:56:34Z</time>
      </trkpt>
      <trkpt lat="47.40431" lon="-2.08627">
        <ele>64.5</ele>
        <time>2011-11-13T09:56:35Z</time>
      </trkpt>
      <trkpt lat="47.40435" lon="-2.08633">
        <ele>64.1</ele>
        <time>2011-11-13T09:56:38Z</time>
      </trkpt>
      <trkpt lat="47.40439" lon="-2.08641">
        <ele>63.7</ele>
        <time>2011-11-13T09:56:41Z</time>
      </trkpt>
      <trkpt lat="47.40442" lon="-2.08654">
        <ele>61.4</ele>
        <time>2011-11-13T09:56:44Z</time>
      </trkpt>
      <trkpt lat="47.40448" lon="-2.08659">
        <ele>61.9</ele>
        <time>2011-11-13T09:56:45Z</time>
      </trkpt>
      <trkpt lat="47.4045" lon="-2.08652">
        <ele>60.8</ele>
        <time>2011-11-13T09:56:47Z</time>
      </trkpt>
      <trkpt lat="47.40454" lon="-2.08656">
        <ele>60.3</ele>
        <time>2011-11-13T09:56:48Z</time>
      </trkpt>
      <trkpt lat="47.4046" lon="-2.08652">
        <ele>55.6</ele>
        <time>2011-11-13T09:56:51Z</time>
      </trkpt>
      <trkpt lat="47.40456" lon="-2.08649">
        <ele>56</ele>
        <time>2011-11-13T09:57:00Z</time>
      </trkpt>
      <trkpt lat="47.40451" lon="-2.08646">
        <ele>55.2</ele>
        <time>2011-11-13T09:57:01Z</time>
      </trkpt>
      <trkpt lat="47.40447" lon="-2.08638">
        <ele>54.8</ele>
        <time>2011-11-13T09:57:04Z</time>
      </trkpt>
      <trkpt lat="47.40447" lon="-2.08629">
        <ele>55.5</ele>
        <time>2011-11-13T09:57:07Z</time>
      </trkpt>
      <trkpt lat="47.40451" lon="-2.08625">
        <ele>59.3</ele>
        <time>2011-11-13T09:57:11Z</time>
      </trkpt>
      <trkpt lat="47.40449" lon="-2.08616">
        <ele>60.4</ele>
        <time>2011-11-13T09:57:13Z</time>
      </trkpt>
      <trkpt lat="47.40454" lon="-2.08604">
        <ele>61.6</ele>
        <time>2011-11-13T09:57:15Z</time>
      </trkpt>
      <trkpt lat="47.40458" lon="-2.08593">
        <ele>59.9</ele>
        <time>2011-11-13T09:57:17Z</time>
      </trkpt>
      <trkpt lat="47.40462" lon="-2.08585">
        <ele>59.8</ele>
        <time>2011-11-13T09:57:18Z</time>
      </trkpt>
      <trkpt lat="47.40468" lon="-2.08595">
        <ele>62.1</ele>
        <time>2011-11-13T09:57:20Z</time>
      </trkpt>
      <trkpt lat="47.40473" lon="-2.086">
        <ele>63.9</ele>
        <time>2011-11-13T09:57:23Z</time>
      </trkpt>
      <trkpt lat="47.40477" lon="-2.08608">
        <ele>64.5</ele>
        <time>2011-11-13T09:57:26Z</time>
      </trkpt>
      <trkpt lat="47.40482" lon="-2.0861">
        <ele>64.9</ele>
        <time>2011-11-13T09:57:27Z</time>
      </trkpt>
      <trkpt lat="47.40484" lon="-2.08619">
        <ele>65.8</ele>
        <time>2011-11-13T09:57:29Z</time>
      </trkpt>
      <trkpt lat="47.40483" lon="-2.08628">
        <ele>67.3</ele>
        <time>2011-11-13T09:57:31Z</time>
      </trkpt>
      <trkpt lat="47.40482" lon="-2.08636">
        <ele>67</ele>
        <time>2011-11-13T09:57:34Z</time>
      </trkpt>
      <trkpt lat="47.40484" lon="-2.08644">
        <ele>66.2</ele>
        <time>2011-11-13T09:57:36Z</time>
      </trkpt>
      <trkpt lat="47.40493" lon="-2.08649">
        <ele>59.5</ele>
        <time>2011-11-13T09:57:38Z</time>
      </trkpt>
      <trkpt lat="47.40497" lon="-2.08653">
        <ele>56.7</ele>
        <time>2011-11-13T09:57:41Z</time>
      </trkpt>
      <trkpt lat="47.40491" lon="-2.08652">
        <ele>60.1</ele>
        <time>2011-11-13T09:57:56Z</time>
      </trkpt>
      <trkpt lat="47.4049" lon="-2.08643">
        <ele>63.1</ele>
        <time>2011-11-13T09:58:00Z</time>
      </trkpt>
      <trkpt lat="47.40486" lon="-2.08638">
        <ele>64.1</ele>
        <time>2011-11-13T09:58:02Z</time>
      </trkpt>
      <trkpt lat="47.40482" lon="-2.08638">
        <ele>65.2</ele>
        <time>2011-11-13T09:58:03Z</time>
      </trkpt>
      <trkpt lat="47.40477" lon="-2.08631">
        <ele>65.6</ele>
        <time>2011-11-13T09:58:05Z</time>
      </trkpt>
      <trkpt lat="47.40479" lon="-2.08623">
        <ele>65.5</ele>
        <time>2011-11-13T09:58:08Z</time>
      </trkpt>
      <trkpt lat="47.40484" lon="-2.0862">
        <ele>67.1</ele>
        <time>2011-11-13T09:58:10Z</time>
      </trkpt>
      <trkpt lat="47.40492" lon="-2.08623">
        <ele>64.9</ele>
        <time>2011-11-13T09:58:15Z</time>
      </trkpt>
      <trkpt lat="47.40495" lon="-2.08628">
        <ele>64</ele>
        <time>2011-11-13T09:58:17Z</time>
      </trkpt>
      <trkpt lat="47.40498" lon="-2.08638">
        <ele>62.8</ele>
        <time>2011-11-13T09:58:20Z</time>
      </trkpt>
      <trkpt lat="47.40499" lon="-2.0863">
        <ele>66.1</ele>
        <time>2011-11-13T09:58:25Z</time>
      </trkpt>
      <trkpt lat="47.40501" lon="-2.08622">
        <ele>66</ele>
        <time>2011-11-13T09:58:28Z</time>
      </trkpt>
      <trkpt lat="47.40501" lon="-2.08615">
        <ele>64.8</ele>
        <time>2011-11-13T09:58:30Z</time>
      </trkpt>
      <trkpt lat="47.40504" lon="-2.08606">
        <ele>64.4</ele>
        <time>2011-11-13T09:58:32Z</time>
      </trkpt>
      <trkpt lat="47.40496" lon="-2.08599">
        <ele>63.1</ele>
        <time>2011-11-13T09:58:35Z</time>
      </trkpt>
      <trkpt lat="47.40492" lon="-2.08592">
        <ele>66</ele>
        <time>2011-11-13T09:58:38Z</time>
      </trkpt>
      <trkpt lat="47.40486" lon="-2.08583">
        <ele>66.3</ele>
        <time>2011-11-13T09:58:41Z</time>
      </trkpt>
      <trkpt lat="47.40479" lon="-2.08578">
        <ele>65.4</ele>
        <time>2011-11-13T09:58:44Z</time>
      </trkpt>
      <trkpt lat="47.40478" lon="-2.08569">
        <ele>66.6</ele>
        <time>2011-11-13T09:58:47Z</time>
      </trkpt>
      <trkpt lat="47.40475" lon="-2.08562">
        <ele>65.5</ele>
        <time>2011-11-13T09:58:48Z</time>
      </trkpt>
      <trkpt lat="47.40478" lon="-2.08555">
        <ele>67.4</ele>
        <time>2011-11-13T09:58:51Z</time>
      </trkpt>
      <trkpt lat="47.40482" lon="-2.0855">
        <ele>66.8</ele>
        <time>2011-11-13T09:58:53Z</time>
      </trkpt>
      <trkpt lat="47.40484" lon="-2.08544">
        <ele>62.4</ele>
        <time>2011-11-13T09:58:54Z</time>
      </trkpt>
      <trkpt lat="47.4049" lon="-2.0854">
        <ele>61.8</ele>
        <time>2011-11-13T09:58:56Z</time>
      </trkpt>
      <trkpt lat="47.405" lon="-2.08531">
        <ele>63.6</ele>
        <time>2011-11-13T09:58:59Z</time>
      </trkpt>
      <trkpt lat="47.40502" lon="-2.08526">
        <ele>63.5</ele>
        <time>2011-11-13T09:59:01Z</time>
      </trkpt>
      <trkpt lat="47.40506" lon="-2.0852">
        <ele>62.9</ele>
        <time>2011-11-13T09:59:02Z</time>
      </trkpt>
      <trkpt lat="47.4051" lon="-2.08522">
        <ele>62.1</ele>
        <time>2011-11-13T09:59:04Z</time>
      </trkpt>
      <trkpt lat="47.40515" lon="-2.08525">
        <ele>60.8</ele>
        <time>2011-11-13T09:59:05Z</time>
      </trkpt>
      <trkpt lat="47.40526" lon="-2.08527">
        <ele>55.4</ele>
        <time>2011-11-13T09:59:06Z</time>
      </trkpt>
      <trkpt lat="47.40529" lon="-2.08531">
        <ele>54.7</ele>
        <time>2011-11-13T09:59:08Z</time>
      </trkpt>
      <trkpt lat="47.40532" lon="-2.0854">
        <ele>55.3</ele>
        <time>2011-11-13T09:59:13Z</time>
      </trkpt>
      <trkpt lat="47.4054" lon="-2.08549">
        <ele>56.8</ele>
        <time>2011-11-13T09:59:15Z</time>
      </trkpt>
      <trkpt lat="47.40544" lon="-2.08544">
        <ele>56.9</ele>
        <time>2011-11-13T09:59:17Z</time>
      </trkpt>
      <trkpt lat="47.4055" lon="-2.08541">
        <ele>56.4</ele>
        <time>2011-11-13T09:59:18Z</time>
      </trkpt>
      <trkpt lat="47.4056" lon="-2.08543">
        <ele>54.8</ele>
        <time>2011-11-13T09:59:21Z</time>
      </trkpt>
      <trkpt lat="47.40566" lon="-2.08539">
        <ele>55.6</ele>
        <time>2011-11-13T09:59:23Z</time>
      </trkpt>
      <trkpt lat="47.40573" lon="-2.08535">
        <ele>55.7</ele>
        <time>2011-11-13T09:59:25Z</time>
      </trkpt>
      <trkpt lat="47.4058" lon="-2.08538">
        <ele>55.4</ele>
        <time>2011-11-13T09:59:26Z</time>
      </trkpt>
      <trkpt lat="47.40585" lon="-2.08535">
        <ele>55.5</ele>
        <time>2011-11-13T09:59:27Z</time>
      </trkpt>
      <trkpt lat="47.40589" lon="-2.08532">
        <ele>55.5</ele>
        <time>2011-11-13T09:59:28Z</time>
      </trkpt>
      <trkpt lat="47.40594" lon="-2.0853">
        <ele>55.6</ele>
        <time>2011-11-13T09:59:29Z</time>
      </trkpt>
      <trkpt lat="47.40599" lon="-2.08523">
        <ele>55.9</ele>
        <time>2011-11-13T09:59:30Z</time>
      </trkpt>
      <trkpt lat="47.40605" lon="-2.08519">
        <ele>55.8</ele>
        <time>2011-11-13T09:59:32Z</time>
      </trkpt>
      <trkpt lat="47.40612" lon="-2.08517">
        <ele>55.6</ele>
        <time>2011-11-13T09:59:33Z</time>
      </trkpt>
      <trkpt lat="47.40615" lon="-2.08512">
        <ele>55.8</ele>
        <time>2011-11-13T09:59:34Z</time>
      </trkpt>
      <trkpt lat="47.40623" lon="-2.08508">
        <ele>55.8</ele>
        <time>2011-11-13T09:59:35Z</time>
      </trkpt>
      <trkpt lat="47.40632" lon="-2.08498">
        <ele>55.8</ele>
        <time>2011-11-13T09:59:37Z</time>
      </trkpt>
      <trkpt lat="47.40639" lon="-2.08492">
        <ele>55.8</ele>
        <time>2011-11-13T09:59:38Z</time>
      </trkpt>
      <trkpt lat="47.40643" lon="-2.08484">
        <ele>55.5</ele>
        <time>2011-11-13T09:59:39Z</time>
      </trkpt>
      <trkpt lat="47.40648" lon="-2.08477">
        <ele>56.1</ele>
        <time>2011-11-13T09:59:41Z</time>
      </trkpt>
      <trkpt lat="47.40655" lon="-2.08472">
        <ele>57.5</ele>
        <time>2011-11-13T09:59:43Z</time>
      </trkpt>
      <trkpt lat="47.40663" lon="-2.08467">
        <ele>57.5</ele>
        <time>2011-11-13T09:59:45Z</time>
      </trkpt>
      <trkpt lat="47.40672" lon="-2.08466">
        <ele>56.8</ele>
        <time>2011-11-13T09:59:46Z</time>
      </trkpt>
      <trkpt lat="47.40678" lon="-2.08466">
        <ele>57</ele>
        <time>2011-11-13T09:59:47Z</time>
      </trkpt>
      <trkpt lat="47.40684" lon="-2.08465">
        <ele>57.3</ele>
        <time>2011-11-13T09:59:48Z</time>
      </trkpt>
      <trkpt lat="47.4069" lon="-2.08463">
        <ele>57.2</ele>
        <time>2011-11-13T09:59:49Z</time>
      </trkpt>
      <trkpt lat="47.40695" lon="-2.08462">
        <ele>57.3</ele>
        <time>2011-11-13T09:59:50Z</time>
      </trkpt>
      <trkpt lat="47.407" lon="-2.08463">
        <ele>57.4</ele>
        <time>2011-11-13T09:59:51Z</time>
      </trkpt>
      <trkpt lat="47.40706" lon="-2.08464">
        <ele>57.6</ele>
        <time>2011-11-13T09:59:52Z</time>
      </trkpt>
      <trkpt lat="47.40711" lon="-2.08464">
        <ele>56.2</ele>
        <time>2011-11-13T09:59:53Z</time>
      </trkpt>
      <trkpt lat="47.40717" lon="-2.08464">
        <ele>55.1</ele>
        <time>2011-11-13T09:59:54Z</time>
      </trkpt>
      <trkpt lat="47.40722" lon="-2.08464">
        <ele>54.2</ele>
        <time>2011-11-13T09:59:55Z</time>
      </trkpt>
      <trkpt lat="47.40728" lon="-2.08464">
        <ele>52.8</ele>
        <time>2011-11-13T09:59:56Z</time>
      </trkpt>
      <trkpt lat="47.40732" lon="-2.08465">
        <ele>52.9</ele>
        <time>2011-11-13T09:59:57Z</time>
      </trkpt>
      <trkpt lat="47.40737" lon="-2.08466">
        <ele>53</ele>
        <time>2011-11-13T09:59:58Z</time>
      </trkpt>
      <trkpt lat="47.40745" lon="-2.08463">
        <ele>53.4</ele>
        <time>2011-11-13T10:00:00Z</time>
      </trkpt>
      <trkpt lat="47.40753" lon="-2.08461">
        <ele>53.8</ele>
        <time>2011-11-13T10:00:02Z</time>
      </trkpt>
      <trkpt lat="47.4076" lon="-2.0846">
        <ele>53.7</ele>
        <time>2011-11-13T10:00:04Z</time>
      </trkpt>
      <trkpt lat="47.40766" lon="-2.08462">
        <ele>53.4</ele>
        <time>2011-11-13T10:00:05Z</time>
      </trkpt>
      <trkpt lat="47.40773" lon="-2.08467">
        <ele>53.9</ele>
        <time>2011-11-13T10:00:06Z</time>
      </trkpt>
      <trkpt lat="47.40779" lon="-2.08474">
        <ele>54.4</ele>
        <time>2011-11-13T10:00:07Z</time>
      </trkpt>
      <trkpt lat="47.40785" lon="-2.08482">
        <ele>54.9</ele>
        <time>2011-11-13T10:00:08Z</time>
      </trkpt>
      <trkpt lat="47.40792" lon="-2.08491">
        <ele>55.9</ele>
        <time>2011-11-13T10:00:10Z</time>
      </trkpt>
      <trkpt lat="47.40797" lon="-2.085">
        <ele>56.6</ele>
        <time>2011-11-13T10:00:12Z</time>
      </trkpt>
      <trkpt lat="47.40799" lon="-2.08508">
        <ele>57.7</ele>
        <time>2011-11-13T10:00:14Z</time>
      </trkpt>
      <trkpt lat="47.40805" lon="-2.0852">
        <ele>57.3</ele>
        <time>2011-11-13T10:00:18Z</time>
      </trkpt>
      <trkpt lat="47.40808" lon="-2.08527">
        <ele>57.5</ele>
        <time>2011-11-13T10:00:20Z</time>
      </trkpt>
      <trkpt lat="47.40814" lon="-2.08535">
        <ele>55.8</ele>
        <time>2011-11-13T10:00:23Z</time>
      </trkpt>
      <trkpt lat="47.4082" lon="-2.08536">
        <ele>56.4</ele>
        <time>2011-11-13T10:00:26Z</time>
      </trkpt>
      <trkpt lat="47.40824" lon="-2.08531">
        <ele>56.1</ele>
        <time>2011-11-13T10:00:28Z</time>
      </trkpt>
      <trkpt lat="47.40828" lon="-2.08524">
        <ele>53.9</ele>
        <time>2011-11-13T10:00:30Z</time>
      </trkpt>
      <trkpt lat="47.40835" lon="-2.08526">
        <ele>50.8</ele>
        <time>2011-11-13T10:00:33Z</time>
      </trkpt>
      <trkpt lat="47.40839" lon="-2.0853">
        <ele>51.6</ele>
        <time>2011-11-13T10:00:35Z</time>
      </trkpt>
      <trkpt lat="47.40843" lon="-2.08532">
        <ele>52.1</ele>
        <time>2011-11-13T10:00:36Z</time>
      </trkpt>
      <trkpt lat="47.40844" lon="-2.0854">
        <ele>53</ele>
        <time>2011-11-13T10:00:38Z</time>
      </trkpt>
      <trkpt lat="47.40848" lon="-2.08546">
        <ele>53.8</ele>
        <time>2011-11-13T10:00:41Z</time>
      </trkpt>
      <trkpt lat="47.40853" lon="-2.08555">
        <ele>54</ele>
        <time>2011-11-13T10:00:45Z</time>
      </trkpt>
      <trkpt lat="47.40856" lon="-2.08562">
        <ele>54</ele>
        <time>2011-11-13T10:00:47Z</time>
      </trkpt>
      <trkpt lat="47.40856" lon="-2.08569">
        <ele>54.2</ele>
        <time>2011-11-13T10:00:49Z</time>
      </trkpt>
      <trkpt lat="47.40862" lon="-2.08582">
        <ele>56.9</ele>
        <time>2011-11-13T10:00:52Z</time>
      </trkpt>
      <trkpt lat="47.40864" lon="-2.08587">
        <ele>57.7</ele>
        <time>2011-11-13T10:00:53Z</time>
      </trkpt>
      <trkpt lat="47.40867" lon="-2.08596">
        <ele>59.8</ele>
        <time>2011-11-13T10:00:55Z</time>
      </trkpt>
      <trkpt lat="47.40869" lon="-2.08606">
        <ele>60.5</ele>
        <time>2011-11-13T10:00:57Z</time>
      </trkpt>
      <trkpt lat="47.40867" lon="-2.08613">
        <ele>60.9</ele>
        <time>2011-11-13T10:00:59Z</time>
      </trkpt>
      <trkpt lat="47.40864" lon="-2.08619">
        <ele>62.4</ele>
        <time>2011-11-13T10:01:02Z</time>
      </trkpt>
      <trkpt lat="47.40857" lon="-2.08616">
        <ele>61.2</ele>
        <time>2011-11-13T10:01:04Z</time>
      </trkpt>
      <trkpt lat="47.40852" lon="-2.0861">
        <ele>59.9</ele>
        <time>2011-11-13T10:01:07Z</time>
      </trkpt>
      <trkpt lat="47.40847" lon="-2.08608">
        <ele>60.4</ele>
        <time>2011-11-13T10:01:10Z</time>
      </trkpt>
      <trkpt lat="47.40842" lon="-2.0861">
        <ele>67.4</ele>
        <time>2011-11-13T10:01:17Z</time>
      </trkpt>
      <trkpt lat="47.40838" lon="-2.08615">
        <ele>68</ele>
        <time>2011-11-13T10:01:20Z</time>
      </trkpt>
      <trkpt lat="47.40836" lon="-2.08622">
        <ele>67.1</ele>
        <time>2011-11-13T10:01:25Z</time>
      </trkpt>
      <trkpt lat="47.40838" lon="-2.08627">
        <ele>66</ele>
        <time>2011-11-13T10:01:30Z</time>
      </trkpt>
      <trkpt lat="47.40844" lon="-2.08629">
        <ele>65.1</ele>
        <time>2011-11-13T10:01:36Z</time>
      </trkpt>
      <trkpt lat="47.4085" lon="-2.08634">
        <ele>65.5</ele>
        <time>2011-11-13T10:01:38Z</time>
      </trkpt>
      <trkpt lat="47.40854" lon="-2.08638">
        <ele>64.6</ele>
        <time>2011-11-13T10:01:39Z</time>
      </trkpt>
      <trkpt lat="47.40856" lon="-2.08646">
        <ele>63.3</ele>
        <time>2011-11-13T10:01:41Z</time>
      </trkpt>
      <trkpt lat="47.40854" lon="-2.08654">
        <ele>63.2</ele>
        <time>2011-11-13T10:01:44Z</time>
      </trkpt>
      <trkpt lat="47.40852" lon="-2.08661">
        <ele>65.4</ele>
        <time>2011-11-13T10:01:49Z</time>
      </trkpt>
      <trkpt lat="47.40848" lon="-2.08667">
        <ele>64.8</ele>
        <time>2011-11-13T10:01:52Z</time>
      </trkpt>
      <trkpt lat="47.40843" lon="-2.08664">
        <ele>63.8</ele>
        <time>2011-11-13T10:01:54Z</time>
      </trkpt>
      <trkpt lat="47.40838" lon="-2.08662">
        <ele>63.6</ele>
        <time>2011-11-13T10:01:56Z</time>
      </trkpt>
      <trkpt lat="47.40833" lon="-2.0866">
        <ele>64.1</ele>
        <time>2011-11-13T10:01:59Z</time>
      </trkpt>
      <trkpt lat="47.40828" lon="-2.08661">
        <ele>63.9</ele>
        <time>2011-11-13T10:02:03Z</time>
      </trkpt>
      <trkpt lat="47.40823" lon="-2.08661">
        <ele>61.5</ele>
        <time>2011-11-13T10:02:06Z</time>
      </trkpt>
      <trkpt lat="47.4083" lon="-2.08664">
        <ele>64.3</ele>
        <time>2011-11-13T10:02:10Z</time>
      </trkpt>
      <trkpt lat="47.40836" lon="-2.0867">
        <ele>66</ele>
        <time>2011-11-13T10:02:12Z</time>
      </trkpt>
      <trkpt lat="47.40839" lon="-2.08675">
        <ele>66.3</ele>
        <time>2011-11-13T10:02:14Z</time>
      </trkpt>
      <trkpt lat="47.40838" lon="-2.08682">
        <ele>63.9</ele>
        <time>2011-11-13T10:02:20Z</time>
      </trkpt>
      <trkpt lat="47.40832" lon="-2.08683">
        <ele>65</ele>
        <time>2011-11-13T10:02:24Z</time>
      </trkpt>
      <trkpt lat="47.40825" lon="-2.08682">
        <ele>64.7</ele>
        <time>2011-11-13T10:02:26Z</time>
      </trkpt>
      <trkpt lat="47.4082" lon="-2.0868">
        <ele>64.8</ele>
        <time>2011-11-13T10:02:28Z</time>
      </trkpt>
      <trkpt lat="47.40816" lon="-2.08677">
        <ele>65.4</ele>
        <time>2011-11-13T10:02:30Z</time>
      </trkpt>
      <trkpt lat="47.4081" lon="-2.08677">
        <ele>68.3</ele>
        <time>2011-11-13T10:02:31Z</time>
      </trkpt>
      <trkpt lat="47.40802" lon="-2.08675">
        <ele>70.4</ele>
        <time>2011-11-13T10:02:33Z</time>
      </trkpt>
      <trkpt lat="47.40797" lon="-2.08671">
        <ele>71.2</ele>
        <time>2011-11-13T10:02:35Z</time>
      </trkpt>
      <trkpt lat="47.40794" lon="-2.08664">
        <ele>70.8</ele>
        <time>2011-11-13T10:02:37Z</time>
      </trkpt>
      <trkpt lat="47.40788" lon="-2.08654">
        <ele>71.2</ele>
        <time>2011-11-13T10:02:40Z</time>
      </trkpt>
      <trkpt lat="47.40788" lon="-2.08661">
        <ele>73.5</ele>
        <time>2011-11-13T10:02:55Z</time>
      </trkpt>
      <trkpt lat="47.40786" lon="-2.08668">
        <ele>74.3</ele>
        <time>2011-11-13T10:02:59Z</time>
      </trkpt>
      <trkpt lat="47.4078" lon="-2.08674">
        <ele>73.7</ele>
        <time>2011-11-13T10:03:03Z</time>
      </trkpt>
      <trkpt lat="47.40775" lon="-2.08678">
        <ele>71.9</ele>
        <time>2011-11-13T10:03:04Z</time>
      </trkpt>
      <trkpt lat="47.40768" lon="-2.08677">
        <ele>71.5</ele>
        <time>2011-11-13T10:03:06Z</time>
      </trkpt>
      <trkpt lat="47.40764" lon="-2.0867">
        <ele>71.6</ele>
        <time>2011-11-13T10:03:08Z</time>
      </trkpt>
      <trkpt lat="47.40763" lon="-2.08664">
        <ele>73.8</ele>
        <time>2011-11-13T10:03:10Z</time>
      </trkpt>
      <trkpt lat="47.40766" lon="-2.08657">
        <ele>73.7</ele>
        <time>2011-11-13T10:03:13Z</time>
      </trkpt>
      <trkpt lat="47.40762" lon="-2.08652">
        <ele>73.1</ele>
        <time>2011-11-13T10:03:15Z</time>
      </trkpt>
      <trkpt lat="47.40759" lon="-2.08645">
        <ele>72.8</ele>
        <time>2011-11-13T10:03:18Z</time>
      </trkpt>
      <trkpt lat="47.40763" lon="-2.08638">
        <ele>73.2</ele>
        <time>2011-11-13T10:03:21Z</time>
      </trkpt>
      <trkpt lat="47.40772" lon="-2.08632">
        <ele>70.5</ele>
        <time>2011-11-13T10:03:23Z</time>
      </trkpt>
      <trkpt lat="47.40777" lon="-2.08626">
        <ele>65.9</ele>
        <time>2011-11-13T10:03:24Z</time>
      </trkpt>
      <trkpt lat="47.40785" lon="-2.08624">
        <ele>63.2</ele>
        <time>2011-11-13T10:03:26Z</time>
      </trkpt>
      <trkpt lat="47.40792" lon="-2.08625">
        <ele>62</ele>
        <time>2011-11-13T10:03:28Z</time>
      </trkpt>
      <trkpt lat="47.40795" lon="-2.08619">
        <ele>65.3</ele>
        <time>2011-11-13T10:03:31Z</time>
      </trkpt>
      <trkpt lat="47.40798" lon="-2.08614">
        <ele>66</ele>
        <time>2011-11-13T10:03:34Z</time>
      </trkpt>
      <trkpt lat="47.40801" lon="-2.08606">
        <ele>64.2</ele>
        <time>2011-11-13T10:03:36Z</time>
      </trkpt>
      <trkpt lat="47.40801" lon="-2.08606">
        <ele>64.2</ele>
        <time>2011-11-13T10:03:36Z</time>
      </trkpt>
      <trkpt lat="47.40801" lon="-2.08606">
        <ele>64.2</ele>
        <time>2011-11-13T10:03:37Z</time>
      </trkpt>
      <trkpt lat="47.40809" lon="-2.08608">
        <ele>66.3</ele>
        <time>2011-11-13T10:03:39Z</time>
      </trkpt>
      <trkpt lat="47.40814" lon="-2.0861">
        <ele>67.8</ele>
        <time>2011-11-13T10:03:41Z</time>
      </trkpt>
      <trkpt lat="47.40819" lon="-2.08614">
        <ele>67.8</ele>
        <time>2011-11-13T10:03:45Z</time>
      </trkpt>
      <trkpt lat="47.4082" lon="-2.08605">
        <ele>65.5</ele>
        <time>2011-11-13T10:03:48Z</time>
      </trkpt>
      <trkpt lat="47.40818" lon="-2.08596">
        <ele>64.7</ele>
        <time>2011-11-13T10:03:50Z</time>
      </trkpt>
      <trkpt lat="47.4082" lon="-2.08589">
        <ele>64.1</ele>
        <time>2011-11-13T10:03:52Z</time>
      </trkpt>
      <trkpt lat="47.40824" lon="-2.08584">
        <ele>63.9</ele>
        <time>2011-11-13T10:03:55Z</time>
      </trkpt>
      <trkpt lat="47.40832" lon="-2.08584">
        <ele>63.8</ele>
        <time>2011-11-13T10:03:59Z</time>
      </trkpt>
      <trkpt lat="47.40827" lon="-2.0858">
        <ele>67</ele>
        <time>2011-11-13T10:04:01Z</time>
      </trkpt>
      <trkpt lat="47.40829" lon="-2.08571">
        <ele>62.2</ele>
        <time>2011-11-13T10:04:03Z</time>
      </trkpt>
      <trkpt lat="47.40824" lon="-2.08568">
        <ele>61.2</ele>
        <time>2011-11-13T10:04:08Z</time>
      </trkpt>
      <trkpt lat="47.40821" lon="-2.08575">
        <ele>61.5</ele>
        <time>2011-11-13T10:04:12Z</time>
      </trkpt>
      <trkpt lat="47.4082" lon="-2.08583">
        <ele>70</ele>
        <time>2011-11-13T10:04:17Z</time>
      </trkpt>
      <trkpt lat="47.40818" lon="-2.08589">
        <ele>69.9</ele>
        <time>2011-11-13T10:04:19Z</time>
      </trkpt>
      <trkpt lat="47.40813" lon="-2.08594">
        <ele>70.9</ele>
        <time>2011-11-13T10:04:22Z</time>
      </trkpt>
      <trkpt lat="47.40804" lon="-2.08597">
        <ele>70.4</ele>
        <time>2011-11-13T10:04:24Z</time>
      </trkpt>
      <trkpt lat="47.40797" lon="-2.08601">
        <ele>69.6</ele>
        <time>2011-11-13T10:04:26Z</time>
      </trkpt>
      <trkpt lat="47.40793" lon="-2.08604">
        <ele>68</ele>
        <time>2011-11-13T10:04:29Z</time>
      </trkpt>
      <trkpt lat="47.40788" lon="-2.08609">
        <ele>67.3</ele>
        <time>2011-11-13T10:04:33Z</time>
      </trkpt>
      <trkpt lat="47.40783" lon="-2.08609">
        <ele>68.8</ele>
        <time>2011-11-13T10:04:35Z</time>
      </trkpt>
      <trkpt lat="47.40777" lon="-2.0861">
        <ele>69.9</ele>
        <time>2011-11-13T10:04:37Z</time>
      </trkpt>
      <trkpt lat="47.40772" lon="-2.0861">
        <ele>69.6</ele>
        <time>2011-11-13T10:04:39Z</time>
      </trkpt>
      <trkpt lat="47.40768" lon="-2.08613">
        <ele>70.3</ele>
        <time>2011-11-13T10:04:41Z</time>
      </trkpt>
      <trkpt lat="47.40762" lon="-2.08614">
        <ele>68.5</ele>
        <time>2011-11-13T10:04:42Z</time>
      </trkpt>
      <trkpt lat="47.40759" lon="-2.0862">
        <ele>68.3</ele>
        <time>2011-11-13T10:04:46Z</time>
      </trkpt>
      <trkpt lat="47.40758" lon="-2.08628">
        <ele>68.1</ele>
        <time>2011-11-13T10:04:49Z</time>
      </trkpt>
      <trkpt lat="47.40754" lon="-2.08633">
        <ele>67.3</ele>
        <time>2011-11-13T10:04:52Z</time>
      </trkpt>
      <trkpt lat="47.4075" lon="-2.08638">
        <ele>66.3</ele>
        <time>2011-11-13T10:04:55Z</time>
      </trkpt>
      <trkpt lat="47.40746" lon="-2.08642">
        <ele>66.2</ele>
        <time>2011-11-13T10:04:58Z</time>
      </trkpt>
      <trkpt lat="47.40741" lon="-2.08648">
        <ele>65.8</ele>
        <time>2011-11-13T10:05:02Z</time>
      </trkpt>
      <trkpt lat="47.40739" lon="-2.08658">
        <ele>62.8</ele>
        <time>2011-11-13T10:05:05Z</time>
      </trkpt>
      <trkpt lat="47.40743" lon="-2.08663">
        <ele>60.6</ele>
        <time>2011-11-13T10:05:09Z</time>
      </trkpt>
      <trkpt lat="47.40747" lon="-2.08669">
        <ele>60.9</ele>
        <time>2011-11-13T10:05:13Z</time>
      </trkpt>
      <trkpt lat="47.40751" lon="-2.08674">
        <ele>61.2</ele>
        <time>2011-11-13T10:05:14Z</time>
      </trkpt>
      <trkpt lat="47.40754" lon="-2.0868">
        <ele>61</ele>
        <time>2011-11-13T10:05:16Z</time>
      </trkpt>
      <trkpt lat="47.40754" lon="-2.08688">
        <ele>62</ele>
        <time>2011-11-13T10:05:19Z</time>
      </trkpt>
      <trkpt lat="47.40756" lon="-2.08696">
        <ele>62.5</ele>
        <time>2011-11-13T10:05:21Z</time>
      </trkpt>
      <trkpt lat="47.40755" lon="-2.08704">
        <ele>62.1</ele>
        <time>2011-11-13T10:05:23Z</time>
      </trkpt>
      <trkpt lat="47.40754" lon="-2.08711">
        <ele>62.4</ele>
        <time>2011-11-13T10:05:25Z</time>
      </trkpt>
      <trkpt lat="47.4075" lon="-2.08721">
        <ele>63.4</ele>
        <time>2011-11-13T10:05:27Z</time>
      </trkpt>
      <trkpt lat="47.40747" lon="-2.08728">
        <ele>63.6</ele>
        <time>2011-11-13T10:05:28Z</time>
      </trkpt>
      <trkpt lat="47.40747" lon="-2.08738">
        <ele>64.1</ele>
        <time>2011-11-13T10:05:30Z</time>
      </trkpt>
      <trkpt lat="47.40744" lon="-2.08745">
        <ele>62.9</ele>
        <time>2011-11-13T10:05:31Z</time>
      </trkpt>
      <trkpt lat="47.40744" lon="-2.08754">
        <ele>60.9</ele>
        <time>2011-11-13T10:05:33Z</time>
      </trkpt>
      <trkpt lat="47.40746" lon="-2.08764">
        <ele>60.7</ele>
        <time>2011-11-13T10:05:35Z</time>
      </trkpt>
      <trkpt lat="47.40748" lon="-2.08772">
        <ele>60.4</ele>
        <time>2011-11-13T10:05:37Z</time>
      </trkpt>
      <trkpt lat="47.40752" lon="-2.08782">
        <ele>59.8</ele>
        <time>2011-11-13T10:05:39Z</time>
      </trkpt>
      <trkpt lat="47.40756" lon="-2.08791">
        <ele>59.5</ele>
        <time>2011-11-13T10:05:41Z</time>
      </trkpt>
      <trkpt lat="47.40762" lon="-2.08805">
        <ele>59.1</ele>
        <time>2011-11-13T10:05:43Z</time>
      </trkpt>
      <trkpt lat="47.40767" lon="-2.08815">
        <ele>59.6</ele>
        <time>2011-11-13T10:05:45Z</time>
      </trkpt>
      <trkpt lat="47.40773" lon="-2.08827">
        <ele>58.5</ele>
        <time>2011-11-13T10:05:47Z</time>
      </trkpt>
      <trkpt lat="47.40777" lon="-2.08833">
        <ele>58.1</ele>
        <time>2011-11-13T10:05:48Z</time>
      </trkpt>
      <trkpt lat="47.4078" lon="-2.08838">
        <ele>58.1</ele>
        <time>2011-11-13T10:05:49Z</time>
      </trkpt>
      <trkpt lat="47.40784" lon="-2.08843">
        <ele>57.8</ele>
        <time>2011-11-13T10:05:50Z</time>
      </trkpt>
      <trkpt lat="47.40788" lon="-2.08847">
        <ele>57.1</ele>
        <time>2011-11-13T10:05:51Z</time>
      </trkpt>
      <trkpt lat="47.40791" lon="-2.08852">
        <ele>57.3</ele>
        <time>2011-11-13T10:05:52Z</time>
      </trkpt>
      <trkpt lat="47.40794" lon="-2.08857">
        <ele>57.4</ele>
        <time>2011-11-13T10:05:53Z</time>
      </trkpt>
      <trkpt lat="47.40801" lon="-2.08868">
        <ele>57.6</ele>
        <time>2011-11-13T10:05:55Z</time>
      </trkpt>
      <trkpt lat="47.40804" lon="-2.08873">
        <ele>57.6</ele>
        <time>2011-11-13T10:05:56Z</time>
      </trkpt>
      <trkpt lat="47.40807" lon="-2.08878">
        <ele>57.6</ele>
        <time>2011-11-13T10:05:57Z</time>
      </trkpt>
      <trkpt lat="47.40813" lon="-2.0889">
        <ele>57.3</ele>
        <time>2011-11-13T10:05:59Z</time>
      </trkpt>
      <trkpt lat="47.40816" lon="-2.08897">
        <ele>57.3</ele>
        <time>2011-11-13T10:06:00Z</time>
      </trkpt>
      <trkpt lat="47.40821" lon="-2.08908">
        <ele>57.5</ele>
        <time>2011-11-13T10:06:01Z</time>
      </trkpt>
      <trkpt lat="47.40823" lon="-2.08916">
        <ele>57.5</ele>
        <time>2011-11-13T10:06:02Z</time>
      </trkpt>
      <trkpt lat="47.40827" lon="-2.08928">
        <ele>57.6</ele>
        <time>2011-11-13T10:06:03Z</time>
      </trkpt>
      <trkpt lat="47.40826" lon="-2.08935">
        <ele>57.6</ele>
        <time>2011-11-13T10:06:04Z</time>
      </trkpt>
      <trkpt lat="47.40832" lon="-2.08959">
        <ele>56.8</ele>
        <time>2011-11-13T10:06:06Z</time>
      </trkpt>
      <trkpt lat="47.40832" lon="-2.08965">
        <ele>56.2</ele>
        <time>2011-11-13T10:06:07Z</time>
      </trkpt>
      <trkpt lat="47.40831" lon="-2.0898">
        <ele>57.2</ele>
        <time>2011-11-13T10:06:09Z</time>
      </trkpt>
      <trkpt lat="47.40829" lon="-2.0899">
        <ele>58.7</ele>
        <time>2011-11-13T10:06:11Z</time>
      </trkpt>
      <trkpt lat="47.40828" lon="-2.08996">
        <ele>60.6</ele>
        <time>2011-11-13T10:06:13Z</time>
      </trkpt>
      <trkpt lat="47.40828" lon="-2.09004">
        <ele>60.2</ele>
        <time>2011-11-13T10:06:15Z</time>
      </trkpt>
      <trkpt lat="47.40823" lon="-2.09011">
        <ele>59</ele>
        <time>2011-11-13T10:06:18Z</time>
      </trkpt>
      <trkpt lat="47.40819" lon="-2.09017">
        <ele>57.9</ele>
        <time>2011-11-13T10:06:21Z</time>
      </trkpt>
      <trkpt lat="47.40817" lon="-2.09024">
        <ele>57.7</ele>
        <time>2011-11-13T10:06:26Z</time>
      </trkpt>
      <trkpt lat="47.40811" lon="-2.09029">
        <ele>56.8</ele>
        <time>2011-11-13T10:06:28Z</time>
      </trkpt>
      <trkpt lat="47.40806" lon="-2.09031">
        <ele>56.3</ele>
        <time>2011-11-13T10:06:30Z</time>
      </trkpt>
      <trkpt lat="47.40801" lon="-2.09032">
        <ele>56</ele>
        <time>2011-11-13T10:06:32Z</time>
      </trkpt>
      <trkpt lat="47.40796" lon="-2.09035">
        <ele>55.6</ele>
        <time>2011-11-13T10:06:34Z</time>
      </trkpt>
      <trkpt lat="47.4079" lon="-2.09035">
        <ele>55.3</ele>
        <time>2011-11-13T10:06:36Z</time>
      </trkpt>
      <trkpt lat="47.40784" lon="-2.09039">
        <ele>57.4</ele>
        <time>2011-11-13T10:06:38Z</time>
      </trkpt>
      <trkpt lat="47.40777" lon="-2.0904">
        <ele>58.4</ele>
        <time>2011-11-13T10:06:40Z</time>
      </trkpt>
      <trkpt lat="47.40771" lon="-2.09041">
        <ele>58.9</ele>
        <time>2011-11-13T10:06:42Z</time>
      </trkpt>
      <trkpt lat="47.40764" lon="-2.09042">
        <ele>59</ele>
        <time>2011-11-13T10:06:44Z</time>
      </trkpt>
      <trkpt lat="47.40758" lon="-2.09044">
        <ele>59</ele>
        <time>2011-11-13T10:06:46Z</time>
      </trkpt>
      <trkpt lat="47.40752" lon="-2.09044">
        <ele>59.4</ele>
        <time>2011-11-13T10:06:48Z</time>
      </trkpt>
      <trkpt lat="47.40746" lon="-2.09043">
        <ele>59.9</ele>
        <time>2011-11-13T10:06:51Z</time>
      </trkpt>
      <trkpt lat="47.40741" lon="-2.09048">
        <ele>60.4</ele>
        <time>2011-11-13T10:06:53Z</time>
      </trkpt>
      <trkpt lat="47.40733" lon="-2.09048">
        <ele>60.2</ele>
        <time>2011-11-13T10:06:55Z</time>
      </trkpt>
      <trkpt lat="47.40726" lon="-2.09049">
        <ele>62</ele>
        <time>2011-11-13T10:06:57Z</time>
      </trkpt>
      <trkpt lat="47.4072" lon="-2.09046">
        <ele>63.7</ele>
        <time>2011-11-13T10:06:58Z</time>
      </trkpt>
      <trkpt lat="47.40713" lon="-2.09045">
        <ele>63</ele>
        <time>2011-11-13T10:07:01Z</time>
      </trkpt>
      <trkpt lat="47.40708" lon="-2.09046">
        <ele>63</ele>
        <time>2011-11-13T10:07:03Z</time>
      </trkpt>
      <trkpt lat="47.40702" lon="-2.09046">
        <ele>63.6</ele>
        <time>2011-11-13T10:07:05Z</time>
      </trkpt>
      <trkpt lat="47.40696" lon="-2.09047">
        <ele>63.8</ele>
        <time>2011-11-13T10:07:07Z</time>
      </trkpt>
      <trkpt lat="47.40689" lon="-2.09048">
        <ele>64.1</ele>
        <time>2011-11-13T10:07:09Z</time>
      </trkpt>
      <trkpt lat="47.40683" lon="-2.0905">
        <ele>61.6</ele>
        <time>2011-11-13T10:07:12Z</time>
      </trkpt>
      <trkpt lat="47.40679" lon="-2.09046">
        <ele>62.1</ele>
        <time>2011-11-13T10:07:13Z</time>
      </trkpt>
      <trkpt lat="47.40674" lon="-2.0905">
        <ele>62.6</ele>
        <time>2011-11-13T10:07:15Z</time>
      </trkpt>
      <trkpt lat="47.40669" lon="-2.09049">
        <ele>61</ele>
        <time>2011-11-13T10:07:18Z</time>
      </trkpt>
      <trkpt lat="47.40665" lon="-2.09055">
        <ele>59.1</ele>
        <time>2011-11-13T10:07:21Z</time>
      </trkpt>
      <trkpt lat="47.40665" lon="-2.09065">
        <ele>58</ele>
        <time>2011-11-13T10:07:23Z</time>
      </trkpt>
      <trkpt lat="47.40666" lon="-2.09074">
        <ele>56.2</ele>
        <time>2011-11-13T10:07:25Z</time>
      </trkpt>
      <trkpt lat="47.40665" lon="-2.09087">
        <ele>55.6</ele>
        <time>2011-11-13T10:07:28Z</time>
      </trkpt>
      <trkpt lat="47.40665" lon="-2.09097">
        <ele>55.9</ele>
        <time>2011-11-13T10:07:30Z</time>
      </trkpt>
      <trkpt lat="47.40665" lon="-2.09108">
        <ele>55</ele>
        <time>2011-11-13T10:07:32Z</time>
      </trkpt>
      <trkpt lat="47.40664" lon="-2.09121">
        <ele>54</ele>
        <time>2011-11-13T10:07:34Z</time>
      </trkpt>
      <trkpt lat="47.40663" lon="-2.09133">
        <ele>53.5</ele>
        <time>2011-11-13T10:07:36Z</time>
      </trkpt>
      <trkpt lat="47.40662" lon="-2.09144">
        <ele>52.7</ele>
        <time>2011-11-13T10:07:38Z</time>
      </trkpt>
      <trkpt lat="47.40662" lon="-2.09155">
        <ele>52.3</ele>
        <time>2011-11-13T10:07:40Z</time>
      </trkpt>
      <trkpt lat="47.40662" lon="-2.09166">
        <ele>52.4</ele>
        <time>2011-11-13T10:07:42Z</time>
      </trkpt>
      <trkpt lat="47.40662" lon="-2.09175">
        <ele>52.9</ele>
        <time>2011-11-13T10:07:43Z</time>
      </trkpt>
      <trkpt lat="47.40662" lon="-2.09185">
        <ele>53.4</ele>
        <time>2011-11-13T10:07:45Z</time>
      </trkpt>
      <trkpt lat="47.4066" lon="-2.09195">
        <ele>53.2</ele>
        <time>2011-11-13T10:07:47Z</time>
      </trkpt>
      <trkpt lat="47.40661" lon="-2.09201">
        <ele>53.4</ele>
        <time>2011-11-13T10:07:49Z</time>
      </trkpt>
      <trkpt lat="47.40658" lon="-2.09211">
        <ele>53.8</ele>
        <time>2011-11-13T10:07:52Z</time>
      </trkpt>
      <trkpt lat="47.40658" lon="-2.09218">
        <ele>54.7</ele>
        <time>2011-11-13T10:07:55Z</time>
      </trkpt>
      <trkpt lat="47.40655" lon="-2.09227">
        <ele>54</ele>
        <time>2011-11-13T10:07:56Z</time>
      </trkpt>
      <trkpt lat="47.40663" lon="-2.09232">
        <ele>51.7</ele>
        <time>2011-11-13T10:08:00Z</time>
      </trkpt>
      <trkpt lat="47.40669" lon="-2.09233">
        <ele>50.7</ele>
        <time>2011-11-13T10:08:02Z</time>
      </trkpt>
      <trkpt lat="47.40677" lon="-2.09234">
        <ele>50</ele>
        <time>2011-11-13T10:08:04Z</time>
      </trkpt>
      <trkpt lat="47.40684" lon="-2.09237">
        <ele>49.9</ele>
        <time>2011-11-13T10:08:06Z</time>
      </trkpt>
      <trkpt lat="47.4069" lon="-2.0924">
        <ele>50.1</ele>
        <time>2011-11-13T10:08:08Z</time>
      </trkpt>
      <trkpt lat="47.40695" lon="-2.09243">
        <ele>50.4</ele>
        <time>2011-11-13T10:08:10Z</time>
      </trkpt>
      <trkpt lat="47.407" lon="-2.09248">
        <ele>50.8</ele>
        <time>2011-11-13T10:08:12Z</time>
      </trkpt>
      <trkpt lat="47.40705" lon="-2.09251">
        <ele>51</ele>
        <time>2011-11-13T10:08:14Z</time>
      </trkpt>
      <trkpt lat="47.40709" lon="-2.09256">
        <ele>51</ele>
        <time>2011-11-13T10:08:16Z</time>
      </trkpt>
      <trkpt lat="47.40713" lon="-2.0926">
        <ele>50.1</ele>
        <time>2011-11-13T10:08:18Z</time>
      </trkpt>
      <trkpt lat="47.40714" lon="-2.09268">
        <ele>59.3</ele>
        <time>2011-11-13T10:08:46Z</time>
      </trkpt>
      <trkpt lat="47.40711" lon="-2.09273">
        <ele>57.9</ele>
        <time>2011-11-13T10:09:04Z</time>
      </trkpt>
      <trkpt lat="47.40717" lon="-2.09271">
        <ele>53.7</ele>
        <time>2011-11-13T10:10:04Z</time>
      </trkpt>
      <trkpt lat="47.4072" lon="-2.09265">
        <ele>50.9</ele>
        <time>2011-11-13T10:10:09Z</time>
      </trkpt>
      <trkpt lat="47.4072" lon="-2.09265">
        <ele>50.9</ele>
        <time>2011-11-13T10:10:09Z</time>
      </trkpt>
      <trkpt lat="47.4072" lon="-2.09265">
        <ele>50.9</ele>
        <time>2011-11-13T10:10:11Z</time>
      </trkpt>
      <trkpt lat="47.40714" lon="-2.09264">
        <ele>48.6</ele>
        <time>2011-11-13T10:10:25Z</time>
      </trkpt>
      <trkpt lat="47.40713" lon="-2.09274">
        <ele>51.2</ele>
        <time>2011-11-13T10:11:22Z</time>
      </trkpt>
      <trkpt lat="47.40712" lon="-2.09281">
        <ele>50.7</ele>
        <time>2011-11-13T10:11:24Z</time>
      </trkpt>
      <trkpt lat="47.40711" lon="-2.09289">
        <ele>50.7</ele>
        <time>2011-11-13T10:11:26Z</time>
      </trkpt>
      <trkpt lat="47.40708" lon="-2.09296">
        <ele>50</ele>
        <time>2011-11-13T10:11:28Z</time>
      </trkpt>
      <trkpt lat="47.40709" lon="-2.09305">
        <ele>50.2</ele>
        <time>2011-11-13T10:11:29Z</time>
      </trkpt>
      <trkpt lat="47.40708" lon="-2.09316">
        <ele>51.8</ele>
        <time>2011-11-13T10:11:32Z</time>
      </trkpt>
      <trkpt lat="47.40707" lon="-2.09324">
        <ele>51.8</ele>
        <time>2011-11-13T10:11:33Z</time>
      </trkpt>
      <trkpt lat="47.40708" lon="-2.09334">
        <ele>51.5</ele>
        <time>2011-11-13T10:11:36Z</time>
      </trkpt>
      <trkpt lat="47.40709" lon="-2.09342">
        <ele>50.4</ele>
        <time>2011-11-13T10:11:37Z</time>
      </trkpt>
      <trkpt lat="47.4071" lon="-2.09348">
        <ele>51.2</ele>
        <time>2011-11-13T10:11:38Z</time>
      </trkpt>
      <trkpt lat="47.40709" lon="-2.09359">
        <ele>52.5</ele>
        <time>2011-11-13T10:11:40Z</time>
      </trkpt>
      <trkpt lat="47.40708" lon="-2.09368">
        <ele>53</ele>
        <time>2011-11-13T10:11:41Z</time>
      </trkpt>
      <trkpt lat="47.4071" lon="-2.09374">
        <ele>53.2</ele>
        <time>2011-11-13T10:11:43Z</time>
      </trkpt>
      <trkpt lat="47.40712" lon="-2.09386">
        <ele>51.8</ele>
        <time>2011-11-13T10:11:44Z</time>
      </trkpt>
      <trkpt lat="47.40714" lon="-2.09398">
        <ele>53.5</ele>
        <time>2011-11-13T10:11:46Z</time>
      </trkpt>
      <trkpt lat="47.40714" lon="-2.09406">
        <ele>53.4</ele>
        <time>2011-11-13T10:11:48Z</time>
      </trkpt>
      <trkpt lat="47.40713" lon="-2.09414">
        <ele>52.9</ele>
        <time>2011-11-13T10:11:50Z</time>
      </trkpt>
      <trkpt lat="47.40713" lon="-2.09424">
        <ele>51.5</ele>
        <time>2011-11-13T10:11:52Z</time>
      </trkpt>
      <trkpt lat="47.40714" lon="-2.09437">
        <ele>50</ele>
        <time>2011-11-13T10:11:54Z</time>
      </trkpt>
      <trkpt lat="47.40717" lon="-2.09445">
        <ele>49.5</ele>
        <time>2011-11-13T10:11:55Z</time>
      </trkpt>
      <trkpt lat="47.40717" lon="-2.09454">
        <ele>50.1</ele>
        <time>2011-11-13T10:11:56Z</time>
      </trkpt>
      <trkpt lat="47.40718" lon="-2.09466">
        <ele>49.3</ele>
        <time>2011-11-13T10:11:57Z</time>
      </trkpt>
      <trkpt lat="47.40722" lon="-2.09478">
        <ele>48.6</ele>
        <time>2011-11-13T10:11:58Z</time>
      </trkpt>
      <trkpt lat="47.40725" lon="-2.09487">
        <ele>49.7</ele>
        <time>2011-11-13T10:11:59Z</time>
      </trkpt>
      <trkpt lat="47.40729" lon="-2.09495">
        <ele>50.3</ele>
        <time>2011-11-13T10:12:00Z</time>
      </trkpt>
      <trkpt lat="47.40733" lon="-2.09504">
        <ele>50</ele>
        <time>2011-11-13T10:12:01Z</time>
      </trkpt>
      <trkpt lat="47.40737" lon="-2.09512">
        <ele>49.9</ele>
        <time>2011-11-13T10:12:02Z</time>
      </trkpt>
      <trkpt lat="47.4074" lon="-2.0952">
        <ele>51</ele>
        <time>2011-11-13T10:12:03Z</time>
      </trkpt>
      <trkpt lat="47.40743" lon="-2.09529">
        <ele>50.4</ele>
        <time>2011-11-13T10:12:04Z</time>
      </trkpt>
      <trkpt lat="47.4075" lon="-2.09537">
        <ele>49.8</ele>
        <time>2011-11-13T10:12:05Z</time>
      </trkpt>
      <trkpt lat="47.40755" lon="-2.09545">
        <ele>51.2</ele>
        <time>2011-11-13T10:12:06Z</time>
      </trkpt>
      <trkpt lat="47.40759" lon="-2.0955">
        <ele>50.8</ele>
        <time>2011-11-13T10:12:07Z</time>
      </trkpt>
      <trkpt lat="47.40763" lon="-2.0956">
        <ele>50.8</ele>
        <time>2011-11-13T10:12:08Z</time>
      </trkpt>
      <trkpt lat="47.40765" lon="-2.09568">
        <ele>51.3</ele>
        <time>2011-11-13T10:12:09Z</time>
      </trkpt>
      <trkpt lat="47.40768" lon="-2.09577">
        <ele>50.6</ele>
        <time>2011-11-13T10:12:10Z</time>
      </trkpt>
      <trkpt lat="47.40771" lon="-2.09584">
        <ele>50.3</ele>
        <time>2011-11-13T10:12:11Z</time>
      </trkpt>
      <trkpt lat="47.40775" lon="-2.09593">
        <ele>50.7</ele>
        <time>2011-11-13T10:12:12Z</time>
      </trkpt>
      <trkpt lat="47.40777" lon="-2.09603">
        <ele>51.3</ele>
        <time>2011-11-13T10:12:13Z</time>
      </trkpt>
      <trkpt lat="47.40778" lon="-2.09612">
        <ele>51.5</ele>
        <time>2011-11-13T10:12:14Z</time>
      </trkpt>
      <trkpt lat="47.40779" lon="-2.09621">
        <ele>50.6</ele>
        <time>2011-11-13T10:12:15Z</time>
      </trkpt>
      <trkpt lat="47.40783" lon="-2.09633">
        <ele>51.3</ele>
        <time>2011-11-13T10:12:16Z</time>
      </trkpt>
      <trkpt lat="47.4079" lon="-2.09643">
        <ele>52.1</ele>
        <time>2011-11-13T10:12:18Z</time>
      </trkpt>
      <trkpt lat="47.40793" lon="-2.09653">
        <ele>52.6</ele>
        <time>2011-11-13T10:12:19Z</time>
      </trkpt>
      <trkpt lat="47.40796" lon="-2.09663">
        <ele>52</ele>
        <time>2011-11-13T10:12:20Z</time>
      </trkpt>
      <trkpt lat="47.408" lon="-2.09674">
        <ele>51.8</ele>
        <time>2011-11-13T10:12:21Z</time>
      </trkpt>
      <trkpt lat="47.40802" lon="-2.09685">
        <ele>52</ele>
        <time>2011-11-13T10:12:22Z</time>
      </trkpt>
      <trkpt lat="47.40803" lon="-2.09696">
        <ele>52.1</ele>
        <time>2011-11-13T10:12:23Z</time>
      </trkpt>
      <trkpt lat="47.40805" lon="-2.09705">
        <ele>52.4</ele>
        <time>2011-11-13T10:12:24Z</time>
      </trkpt>
      <trkpt lat="47.40805" lon="-2.09714">
        <ele>52.9</ele>
        <time>2011-11-13T10:12:25Z</time>
      </trkpt>
      <trkpt lat="47.40806" lon="-2.09725">
        <ele>52.9</ele>
        <time>2011-11-13T10:12:26Z</time>
      </trkpt>
      <trkpt lat="47.40807" lon="-2.09734">
        <ele>53</ele>
        <time>2011-11-13T10:12:27Z</time>
      </trkpt>
      <trkpt lat="47.40803" lon="-2.09744">
        <ele>53.1</ele>
        <time>2011-11-13T10:12:28Z</time>
      </trkpt>
      <trkpt lat="47.40803" lon="-2.09754">
        <ele>53.5</ele>
        <time>2011-11-13T10:12:29Z</time>
      </trkpt>
      <trkpt lat="47.40803" lon="-2.09764">
        <ele>53.8</ele>
        <time>2011-11-13T10:12:30Z</time>
      </trkpt>
      <trkpt lat="47.40801" lon="-2.09772">
        <ele>54.8</ele>
        <time>2011-11-13T10:12:31Z</time>
      </trkpt>
      <trkpt lat="47.40798" lon="-2.09786">
        <ele>56.9</ele>
        <time>2011-11-13T10:12:33Z</time>
      </trkpt>
      <trkpt lat="47.40795" lon="-2.09805">
        <ele>54.6</ele>
        <time>2011-11-13T10:12:35Z</time>
      </trkpt>
      <trkpt lat="47.40795" lon="-2.09814">
        <ele>55.2</ele>
        <time>2011-11-13T10:12:37Z</time>
      </trkpt>
      <trkpt lat="47.40795" lon="-2.09821">
        <ele>55.3</ele>
        <time>2011-11-13T10:12:38Z</time>
      </trkpt>
      <trkpt lat="47.40794" lon="-2.0983">
        <ele>55.7</ele>
        <time>2011-11-13T10:12:39Z</time>
      </trkpt>
      <trkpt lat="47.40791" lon="-2.09836">
        <ele>56.1</ele>
        <time>2011-11-13T10:12:40Z</time>
      </trkpt>
      <trkpt lat="47.40788" lon="-2.09844">
        <ele>56.3</ele>
        <time>2011-11-13T10:12:41Z</time>
      </trkpt>
      <trkpt lat="47.40785" lon="-2.09853">
        <ele>56.4</ele>
        <time>2011-11-13T10:12:42Z</time>
      </trkpt>
      <trkpt lat="47.40781" lon="-2.0986">
        <ele>56.6</ele>
        <time>2011-11-13T10:12:44Z</time>
      </trkpt>
      <trkpt lat="47.40777" lon="-2.09866">
        <ele>56.7</ele>
        <time>2011-11-13T10:12:46Z</time>
      </trkpt>
      <trkpt lat="47.40775" lon="-2.09872">
        <ele>56.6</ele>
        <time>2011-11-13T10:12:47Z</time>
      </trkpt>
      <trkpt lat="47.40773" lon="-2.09878">
        <ele>55.2</ele>
        <time>2011-11-13T10:12:49Z</time>
      </trkpt>
      <trkpt lat="47.40771" lon="-2.09888">
        <ele>55.7</ele>
        <time>2011-11-13T10:12:52Z</time>
      </trkpt>
      <trkpt lat="47.40769" lon="-2.09898">
        <ele>55</ele>
        <time>2011-11-13T10:12:54Z</time>
      </trkpt>
      <trkpt lat="47.40765" lon="-2.09904">
        <ele>55</ele>
        <time>2011-11-13T10:12:56Z</time>
      </trkpt>
      <trkpt lat="47.40774" lon="-2.09911">
        <ele>53.8</ele>
        <time>2011-11-13T10:13:04Z</time>
      </trkpt>
      <trkpt lat="47.40772" lon="-2.09922">
        <ele>51.4</ele>
        <time>2011-11-13T10:13:10Z</time>
      </trkpt>
      <trkpt lat="47.40772" lon="-2.0993">
        <ele>53.3</ele>
        <time>2011-11-13T10:13:12Z</time>
      </trkpt>
      <trkpt lat="47.40777" lon="-2.09934">
        <ele>54.2</ele>
        <time>2011-11-13T10:13:15Z</time>
      </trkpt>
      <trkpt lat="47.40783" lon="-2.09936">
        <ele>54.7</ele>
        <time>2011-11-13T10:13:18Z</time>
      </trkpt>
      <trkpt lat="47.40788" lon="-2.09931">
        <ele>54.8</ele>
        <time>2011-11-13T10:13:19Z</time>
      </trkpt>
      <trkpt lat="47.40793" lon="-2.09932">
        <ele>52.4</ele>
        <time>2011-11-13T10:13:21Z</time>
      </trkpt>
      <trkpt lat="47.40798" lon="-2.09936">
        <ele>51.4</ele>
        <time>2011-11-13T10:13:22Z</time>
      </trkpt>
      <trkpt lat="47.40802" lon="-2.09936">
        <ele>51.6</ele>
        <time>2011-11-13T10:13:24Z</time>
      </trkpt>
      <trkpt lat="47.40806" lon="-2.09944">
        <ele>51.4</ele>
        <time>2011-11-13T10:13:25Z</time>
      </trkpt>
      <trkpt lat="47.408" lon="-2.09946">
        <ele>51.1</ele>
        <time>2011-11-13T10:13:26Z</time>
      </trkpt>
      <trkpt lat="47.40796" lon="-2.09952">
        <ele>52.4</ele>
        <time>2011-11-13T10:13:31Z</time>
      </trkpt>
      <trkpt lat="47.40791" lon="-2.09958">
        <ele>53.9</ele>
        <time>2011-11-13T10:13:33Z</time>
      </trkpt>
      <trkpt lat="47.40785" lon="-2.09965">
        <ele>55.3</ele>
        <time>2011-11-13T10:13:35Z</time>
      </trkpt>
      <trkpt lat="47.40778" lon="-2.09968">
        <ele>56.3</ele>
        <time>2011-11-13T10:13:38Z</time>
      </trkpt>
      <trkpt lat="47.40771" lon="-2.09963">
        <ele>57.5</ele>
        <time>2011-11-13T10:13:40Z</time>
      </trkpt>
      <trkpt lat="47.40767" lon="-2.09968">
        <ele>59.6</ele>
        <time>2011-11-13T10:13:42Z</time>
      </trkpt>
      <trkpt lat="47.4076" lon="-2.09966">
        <ele>55.5</ele>
        <time>2011-11-13T10:13:43Z</time>
      </trkpt>
      <trkpt lat="47.40762" lon="-2.09973">
        <ele>58.4</ele>
        <time>2011-11-13T10:13:47Z</time>
      </trkpt>
      <trkpt lat="47.40766" lon="-2.0998">
        <ele>58.1</ele>
        <time>2011-11-13T10:13:50Z</time>
      </trkpt>
      <trkpt lat="47.40766" lon="-2.09988">
        <ele>57.1</ele>
        <time>2011-11-13T10:13:53Z</time>
      </trkpt>
      <trkpt lat="47.40772" lon="-2.09988">
        <ele>58.1</ele>
        <time>2011-11-13T10:13:54Z</time>
      </trkpt>
      <trkpt lat="47.40781" lon="-2.09985">
        <ele>57.8</ele>
        <time>2011-11-13T10:13:57Z</time>
      </trkpt>
      <trkpt lat="47.40786" lon="-2.09982">
        <ele>57.5</ele>
        <time>2011-11-13T10:13:58Z</time>
      </trkpt>
      <trkpt lat="47.40792" lon="-2.09978">
        <ele>59.2</ele>
        <time>2011-11-13T10:13:59Z</time>
      </trkpt>
      <trkpt lat="47.40801" lon="-2.09977">
        <ele>59.4</ele>
        <time>2011-11-13T10:14:02Z</time>
      </trkpt>
      <trkpt lat="47.40805" lon="-2.09972">
        <ele>59.3</ele>
        <time>2011-11-13T10:14:03Z</time>
      </trkpt>
      <trkpt lat="47.40811" lon="-2.09963">
        <ele>58.8</ele>
        <time>2011-11-13T10:14:04Z</time>
      </trkpt>
      <trkpt lat="47.40817" lon="-2.09963">
        <ele>56.2</ele>
        <time>2011-11-13T10:14:06Z</time>
      </trkpt>
      <trkpt lat="47.40822" lon="-2.09967">
        <ele>56.2</ele>
        <time>2011-11-13T10:14:08Z</time>
      </trkpt>
      <trkpt lat="47.40827" lon="-2.09974">
        <ele>55.2</ele>
        <time>2011-11-13T10:14:10Z</time>
      </trkpt>
      <trkpt lat="47.40834" lon="-2.09982">
        <ele>57</ele>
        <time>2011-11-13T10:14:12Z</time>
      </trkpt>
      <trkpt lat="47.40838" lon="-2.09989">
        <ele>56.7</ele>
        <time>2011-11-13T10:14:14Z</time>
      </trkpt>
      <trkpt lat="47.40849" lon="-2.09989">
        <ele>53.4</ele>
        <time>2011-11-13T10:14:19Z</time>
      </trkpt>
      <trkpt lat="47.40854" lon="-2.09992">
        <ele>54.2</ele>
        <time>2011-11-13T10:14:22Z</time>
      </trkpt>
      <trkpt lat="47.40856" lon="-2.10001">
        <ele>54.5</ele>
        <time>2011-11-13T10:14:24Z</time>
      </trkpt>
      <trkpt lat="47.40859" lon="-2.10007">
        <ele>54.5</ele>
        <time>2011-11-13T10:14:26Z</time>
      </trkpt>
      <trkpt lat="47.40855" lon="-2.10012">
        <ele>56.4</ele>
        <time>2011-11-13T10:14:28Z</time>
      </trkpt>
      <trkpt lat="47.40847" lon="-2.10012">
        <ele>59.4</ele>
        <time>2011-11-13T10:14:32Z</time>
      </trkpt>
      <trkpt lat="47.4084" lon="-2.10011">
        <ele>59.4</ele>
        <time>2011-11-13T10:14:34Z</time>
      </trkpt>
      <trkpt lat="47.40832" lon="-2.10014">
        <ele>60</ele>
        <time>2011-11-13T10:14:36Z</time>
      </trkpt>
      <trkpt lat="47.40827" lon="-2.10015">
        <ele>59.6</ele>
        <time>2011-11-13T10:14:37Z</time>
      </trkpt>
      <trkpt lat="47.40821" lon="-2.10018">
        <ele>59</ele>
        <time>2011-11-13T10:14:40Z</time>
      </trkpt>
      <trkpt lat="47.40815" lon="-2.10021">
        <ele>58.9</ele>
        <time>2011-11-13T10:14:42Z</time>
      </trkpt>
      <trkpt lat="47.40804" lon="-2.10026">
        <ele>58.6</ele>
        <time>2011-11-13T10:14:45Z</time>
      </trkpt>
      <trkpt lat="47.40797" lon="-2.1003">
        <ele>58.1</ele>
        <time>2011-11-13T10:14:48Z</time>
      </trkpt>
      <trkpt lat="47.40791" lon="-2.10032">
        <ele>57.6</ele>
        <time>2011-11-13T10:14:50Z</time>
      </trkpt>
      <trkpt lat="47.40786" lon="-2.10033">
        <ele>59.8</ele>
        <time>2011-11-13T10:14:52Z</time>
      </trkpt>
      <trkpt lat="47.40778" lon="-2.10035">
        <ele>58.7</ele>
        <time>2011-11-13T10:14:54Z</time>
      </trkpt>
      <trkpt lat="47.40772" lon="-2.10039">
        <ele>59.4</ele>
        <time>2011-11-13T10:14:56Z</time>
      </trkpt>
      <trkpt lat="47.40767" lon="-2.10043">
        <ele>57.7</ele>
        <time>2011-11-13T10:14:57Z</time>
      </trkpt>
      <trkpt lat="47.40762" lon="-2.10048">
        <ele>57.6</ele>
        <time>2011-11-13T10:14:58Z</time>
      </trkpt>
      <trkpt lat="47.4076" lon="-2.10055">
        <ele>57.9</ele>
        <time>2011-11-13T10:15:00Z</time>
      </trkpt>
      <trkpt lat="47.40764" lon="-2.10065">
        <ele>57.2</ele>
        <time>2011-11-13T10:15:03Z</time>
      </trkpt>
      <trkpt lat="47.40766" lon="-2.10075">
        <ele>56.2</ele>
        <time>2011-11-13T10:15:06Z</time>
      </trkpt>
      <trkpt lat="47.40769" lon="-2.10087">
        <ele>55.9</ele>
        <time>2011-11-13T10:15:07Z</time>
      </trkpt>
      <trkpt lat="47.4077" lon="-2.10097">
        <ele>54.2</ele>
        <time>2011-11-13T10:15:08Z</time>
      </trkpt>
      <trkpt lat="47.40772" lon="-2.10106">
        <ele>53.9</ele>
        <time>2011-11-13T10:15:10Z</time>
      </trkpt>
      <trkpt lat="47.40775" lon="-2.10112">
        <ele>54.9</ele>
        <time>2011-11-13T10:15:11Z</time>
      </trkpt>
      <trkpt lat="47.40777" lon="-2.10119">
        <ele>54.7</ele>
        <time>2011-11-13T10:15:12Z</time>
      </trkpt>
      <trkpt lat="47.40778" lon="-2.10132">
        <ele>55.7</ele>
        <time>2011-11-13T10:15:14Z</time>
      </trkpt>
      <trkpt lat="47.40783" lon="-2.10144">
        <ele>56</ele>
        <time>2011-11-13T10:15:15Z</time>
      </trkpt>
      <trkpt lat="47.40789" lon="-2.10158">
        <ele>53.2</ele>
        <time>2011-11-13T10:15:17Z</time>
      </trkpt>
      <trkpt lat="47.4079" lon="-2.10166">
        <ele>52.7</ele>
        <time>2011-11-13T10:15:19Z</time>
      </trkpt>
      <trkpt lat="47.40792" lon="-2.10174">
        <ele>53.1</ele>
        <time>2011-11-13T10:15:20Z</time>
      </trkpt>
      <trkpt lat="47.40792" lon="-2.10192">
        <ele>53.3</ele>
        <time>2011-11-13T10:15:23Z</time>
      </trkpt>
      <trkpt lat="47.40793" lon="-2.10212">
        <ele>51.9</ele>
        <time>2011-11-13T10:15:26Z</time>
      </trkpt>
      <trkpt lat="47.40793" lon="-2.10221">
        <ele>51.1</ele>
        <time>2011-11-13T10:15:27Z</time>
      </trkpt>
      <trkpt lat="47.40792" lon="-2.10233">
        <ele>51.8</ele>
        <time>2011-11-13T10:15:29Z</time>
      </trkpt>
      <trkpt lat="47.40793" lon="-2.10245">
        <ele>52.4</ele>
        <time>2011-11-13T10:15:30Z</time>
      </trkpt>
      <trkpt lat="47.40792" lon="-2.10259">
        <ele>52.1</ele>
        <time>2011-11-13T10:15:32Z</time>
      </trkpt>
      <trkpt lat="47.4079" lon="-2.10266">
        <ele>51.4</ele>
        <time>2011-11-13T10:15:33Z</time>
      </trkpt>
      <trkpt lat="47.40789" lon="-2.10276">
        <ele>51.1</ele>
        <time>2011-11-13T10:15:34Z</time>
      </trkpt>
      <trkpt lat="47.40789" lon="-2.10283">
        <ele>50.6</ele>
        <time>2011-11-13T10:15:35Z</time>
      </trkpt>
      <trkpt lat="47.40786" lon="-2.10292">
        <ele>51.2</ele>
        <time>2011-11-13T10:15:37Z</time>
      </trkpt>
      <trkpt lat="47.40789" lon="-2.10301">
        <ele>50.4</ele>
        <time>2011-11-13T10:15:38Z</time>
      </trkpt>
      <trkpt lat="47.4079" lon="-2.1031">
        <ele>48.7</ele>
        <time>2011-11-13T10:15:39Z</time>
      </trkpt>
      <trkpt lat="47.4079" lon="-2.10324">
        <ele>49.8</ele>
        <time>2011-11-13T10:15:42Z</time>
      </trkpt>
      <trkpt lat="47.40789" lon="-2.10334">
        <ele>48.5</ele>
        <time>2011-11-13T10:15:43Z</time>
      </trkpt>
      <trkpt lat="47.40791" lon="-2.10346">
        <ele>47.9</ele>
        <time>2011-11-13T10:15:45Z</time>
      </trkpt>
      <trkpt lat="47.40792" lon="-2.10354">
        <ele>47.7</ele>
        <time>2011-11-13T10:15:47Z</time>
      </trkpt>
      <trkpt lat="47.40795" lon="-2.10367">
        <ele>47.7</ele>
        <time>2011-11-13T10:15:49Z</time>
      </trkpt>
      <trkpt lat="47.408" lon="-2.10377">
        <ele>48.1</ele>
        <time>2011-11-13T10:15:50Z</time>
      </trkpt>
      <trkpt lat="47.40804" lon="-2.10389">
        <ele>48.5</ele>
        <time>2011-11-13T10:15:52Z</time>
      </trkpt>
      <trkpt lat="47.40808" lon="-2.104">
        <ele>48.9</ele>
        <time>2011-11-13T10:15:55Z</time>
      </trkpt>
      <trkpt lat="47.40812" lon="-2.10412">
        <ele>49.4</ele>
        <time>2011-11-13T10:15:57Z</time>
      </trkpt>
      <trkpt lat="47.40813" lon="-2.1042">
        <ele>49.5</ele>
        <time>2011-11-13T10:15:58Z</time>
      </trkpt>
      <trkpt lat="47.40816" lon="-2.10432">
        <ele>49.8</ele>
        <time>2011-11-13T10:16:00Z</time>
      </trkpt>
      <trkpt lat="47.40821" lon="-2.10444">
        <ele>51.9</ele>
        <time>2011-11-13T10:16:03Z</time>
      </trkpt>
      <trkpt lat="47.40824" lon="-2.10457">
        <ele>51.5</ele>
        <time>2011-11-13T10:16:04Z</time>
      </trkpt>
      <trkpt lat="47.40828" lon="-2.10467">
        <ele>52.4</ele>
        <time>2011-11-13T10:16:06Z</time>
      </trkpt>
      <trkpt lat="47.40828" lon="-2.10476">
        <ele>51.8</ele>
        <time>2011-11-13T10:16:07Z</time>
      </trkpt>
      <trkpt lat="47.4083" lon="-2.10492">
        <ele>51.3</ele>
        <time>2011-11-13T10:16:08Z</time>
      </trkpt>
      <trkpt lat="47.40832" lon="-2.10499">
        <ele>52.4</ele>
        <time>2011-11-13T10:16:09Z</time>
      </trkpt>
      <trkpt lat="47.40834" lon="-2.10507">
        <ele>53.1</ele>
        <time>2011-11-13T10:16:10Z</time>
      </trkpt>
      <trkpt lat="47.40838" lon="-2.10514">
        <ele>52.3</ele>
        <time>2011-11-13T10:16:11Z</time>
      </trkpt>
      <trkpt lat="47.40838" lon="-2.10522">
        <ele>51.6</ele>
        <time>2011-11-13T10:16:12Z</time>
      </trkpt>
      <trkpt lat="47.40842" lon="-2.10534">
        <ele>49.8</ele>
        <time>2011-11-13T10:16:14Z</time>
      </trkpt>
      <trkpt lat="47.40843" lon="-2.1054">
        <ele>50.4</ele>
        <time>2011-11-13T10:16:15Z</time>
      </trkpt>
      <trkpt lat="47.40848" lon="-2.10544">
        <ele>52</ele>
        <time>2011-11-13T10:16:16Z</time>
      </trkpt>
      <trkpt lat="47.40852" lon="-2.10552">
        <ele>52.1</ele>
        <time>2011-11-13T10:16:18Z</time>
      </trkpt>
      <trkpt lat="47.40854" lon="-2.1056">
        <ele>53</ele>
        <time>2011-11-13T10:16:19Z</time>
      </trkpt>
      <trkpt lat="47.40859" lon="-2.10573">
        <ele>54.2</ele>
        <time>2011-11-13T10:16:20Z</time>
      </trkpt>
      <trkpt lat="47.40862" lon="-2.10583">
        <ele>54.5</ele>
        <time>2011-11-13T10:16:22Z</time>
      </trkpt>
      <trkpt lat="47.40861" lon="-2.1059">
        <ele>54.8</ele>
        <time>2011-11-13T10:16:23Z</time>
      </trkpt>
      <trkpt lat="47.40855" lon="-2.10603">
        <ele>54.6</ele>
        <time>2011-11-13T10:16:24Z</time>
      </trkpt>
      <trkpt lat="47.40862" lon="-2.10611">
        <ele>53.2</ele>
        <time>2011-11-13T10:16:27Z</time>
      </trkpt>
      <trkpt lat="47.40867" lon="-2.10613">
        <ele>55.2</ele>
        <time>2011-11-13T10:16:28Z</time>
      </trkpt>
      <trkpt lat="47.40875" lon="-2.10615">
        <ele>56.9</ele>
        <time>2011-11-13T10:16:30Z</time>
      </trkpt>
      <trkpt lat="47.40884" lon="-2.10619">
        <ele>56.3</ele>
        <time>2011-11-13T10:16:32Z</time>
      </trkpt>
      <trkpt lat="47.40889" lon="-2.10623">
        <ele>57</ele>
        <time>2011-11-13T10:16:34Z</time>
      </trkpt>
      <trkpt lat="47.40899" lon="-2.1063">
        <ele>56.7</ele>
        <time>2011-11-13T10:16:36Z</time>
      </trkpt>
      <trkpt lat="47.40903" lon="-2.10635">
        <ele>56.6</ele>
        <time>2011-11-13T10:16:37Z</time>
      </trkpt>
      <trkpt lat="47.40909" lon="-2.10638">
        <ele>55.6</ele>
        <time>2011-11-13T10:16:38Z</time>
      </trkpt>
      <trkpt lat="47.40914" lon="-2.10647">
        <ele>55.6</ele>
        <time>2011-11-13T10:16:40Z</time>
      </trkpt>
      <trkpt lat="47.40918" lon="-2.10652">
        <ele>56.6</ele>
        <time>2011-11-13T10:16:42Z</time>
      </trkpt>
      <trkpt lat="47.40924" lon="-2.10665">
        <ele>55.7</ele>
        <time>2011-11-13T10:16:44Z</time>
      </trkpt>
      <trkpt lat="47.40929" lon="-2.1067">
        <ele>54.6</ele>
        <time>2011-11-13T10:16:46Z</time>
      </trkpt>
      <trkpt lat="47.40936" lon="-2.10669">
        <ele>55.3</ele>
        <time>2011-11-13T10:16:48Z</time>
      </trkpt>
      <trkpt lat="47.40947" lon="-2.10669">
        <ele>54.6</ele>
        <time>2011-11-13T10:16:50Z</time>
      </trkpt>
      <trkpt lat="47.40952" lon="-2.1067">
        <ele>53.8</ele>
        <time>2011-11-13T10:16:51Z</time>
      </trkpt>
      <trkpt lat="47.40958" lon="-2.1067">
        <ele>53.9</ele>
        <time>2011-11-13T10:16:53Z</time>
      </trkpt>
      <trkpt lat="47.40966" lon="-2.10671">
        <ele>52.3</ele>
        <time>2011-11-13T10:16:54Z</time>
      </trkpt>
      <trkpt lat="47.40976" lon="-2.10671">
        <ele>50.7</ele>
        <time>2011-11-13T10:16:55Z</time>
      </trkpt>
      <trkpt lat="47.40983" lon="-2.10672">
        <ele>51.4</ele>
        <time>2011-11-13T10:16:56Z</time>
      </trkpt>
      <trkpt lat="47.4099" lon="-2.10674">
        <ele>51.5</ele>
        <time>2011-11-13T10:16:57Z</time>
      </trkpt>
      <trkpt lat="47.40996" lon="-2.10676">
        <ele>51.6</ele>
        <time>2011-11-13T10:16:58Z</time>
      </trkpt>
      <trkpt lat="47.41003" lon="-2.10676">
        <ele>51.6</ele>
        <time>2011-11-13T10:16:59Z</time>
      </trkpt>
      <trkpt lat="47.41012" lon="-2.10679">
        <ele>51.9</ele>
        <time>2011-11-13T10:17:00Z</time>
      </trkpt>
      <trkpt lat="47.41019" lon="-2.1068">
        <ele>52.2</ele>
        <time>2011-11-13T10:17:01Z</time>
      </trkpt>
      <trkpt lat="47.41026" lon="-2.10683">
        <ele>51.9</ele>
        <time>2011-11-13T10:17:02Z</time>
      </trkpt>
      <trkpt lat="47.41036" lon="-2.10685">
        <ele>51</ele>
        <time>2011-11-13T10:17:03Z</time>
      </trkpt>
      <trkpt lat="47.41045" lon="-2.10686">
        <ele>52.7</ele>
        <time>2011-11-13T10:17:04Z</time>
      </trkpt>
      <trkpt lat="47.41053" lon="-2.1069">
        <ele>52.5</ele>
        <time>2011-11-13T10:17:05Z</time>
      </trkpt>
      <trkpt lat="47.41057" lon="-2.10695">
        <ele>52.8</ele>
        <time>2011-11-13T10:17:06Z</time>
      </trkpt>
      <trkpt lat="47.41064" lon="-2.10698">
        <ele>52.3</ele>
        <time>2011-11-13T10:17:07Z</time>
      </trkpt>
      <trkpt lat="47.41071" lon="-2.10697">
        <ele>51</ele>
        <time>2011-11-13T10:17:08Z</time>
      </trkpt>
      <trkpt lat="47.41078" lon="-2.10699">
        <ele>51.2</ele>
        <time>2011-11-13T10:17:09Z</time>
      </trkpt>
      <trkpt lat="47.41086" lon="-2.10701">
        <ele>50.9</ele>
        <time>2011-11-13T10:17:10Z</time>
      </trkpt>
      <trkpt lat="47.41091" lon="-2.10706">
        <ele>51.2</ele>
        <time>2011-11-13T10:17:11Z</time>
      </trkpt>
      <trkpt lat="47.41096" lon="-2.10711">
        <ele>52.2</ele>
        <time>2011-11-13T10:17:12Z</time>
      </trkpt>
      <trkpt lat="47.41099" lon="-2.10716">
        <ele>51.4</ele>
        <time>2011-11-13T10:17:13Z</time>
      </trkpt>
      <trkpt lat="47.41096" lon="-2.10729">
        <ele>51.3</ele>
        <time>2011-11-13T10:17:15Z</time>
      </trkpt>
      <trkpt lat="47.411" lon="-2.1074">
        <ele>51</ele>
        <time>2011-11-13T10:17:16Z</time>
      </trkpt>
      <trkpt lat="47.41099" lon="-2.10752">
        <ele>50.9</ele>
        <time>2011-11-13T10:17:18Z</time>
      </trkpt>
      <trkpt lat="47.411" lon="-2.10761">
        <ele>50.9</ele>
        <time>2011-11-13T10:17:19Z</time>
      </trkpt>
      <trkpt lat="47.41097" lon="-2.10775">
        <ele>50.8</ele>
        <time>2011-11-13T10:17:21Z</time>
      </trkpt>
      <trkpt lat="47.41092" lon="-2.10782">
        <ele>50.6</ele>
        <time>2011-11-13T10:17:22Z</time>
      </trkpt>
      <trkpt lat="47.41093" lon="-2.10792">
        <ele>50.7</ele>
        <time>2011-11-13T10:17:23Z</time>
      </trkpt>
      <trkpt lat="47.41091" lon="-2.10801">
        <ele>50.2</ele>
        <time>2011-11-13T10:17:24Z</time>
      </trkpt>
      <trkpt lat="47.4109" lon="-2.10811">
        <ele>49.5</ele>
        <time>2011-11-13T10:17:26Z</time>
      </trkpt>
      <trkpt lat="47.41085" lon="-2.10824">
        <ele>48.7</ele>
        <time>2011-11-13T10:17:27Z</time>
      </trkpt>
      <trkpt lat="47.41082" lon="-2.10835">
        <ele>49.2</ele>
        <time>2011-11-13T10:17:30Z</time>
      </trkpt>
      <trkpt lat="47.41081" lon="-2.10843">
        <ele>49.4</ele>
        <time>2011-11-13T10:17:31Z</time>
      </trkpt>
      <trkpt lat="47.41079" lon="-2.10851">
        <ele>50.2</ele>
        <time>2011-11-13T10:17:32Z</time>
      </trkpt>
      <trkpt lat="47.41077" lon="-2.10865">
        <ele>49.3</ele>
        <time>2011-11-13T10:17:34Z</time>
      </trkpt>
      <trkpt lat="47.41075" lon="-2.10874">
        <ele>48.8</ele>
        <time>2011-11-13T10:17:35Z</time>
      </trkpt>
      <trkpt lat="47.41073" lon="-2.10883">
        <ele>48.8</ele>
        <time>2011-11-13T10:17:36Z</time>
      </trkpt>
      <trkpt lat="47.41073" lon="-2.1089">
        <ele>49.1</ele>
        <time>2011-11-13T10:17:37Z</time>
      </trkpt>
      <trkpt lat="47.41071" lon="-2.10902">
        <ele>49.3</ele>
        <time>2011-11-13T10:17:38Z</time>
      </trkpt>
      <trkpt lat="47.41068" lon="-2.10919">
        <ele>48.9</ele>
        <time>2011-11-13T10:17:41Z</time>
      </trkpt>
      <trkpt lat="47.41066" lon="-2.10927">
        <ele>49</ele>
        <time>2011-11-13T10:17:42Z</time>
      </trkpt>
      <trkpt lat="47.41064" lon="-2.10937">
        <ele>49.3</ele>
        <time>2011-11-13T10:17:43Z</time>
      </trkpt>
      <trkpt lat="47.41062" lon="-2.10946">
        <ele>49.2</ele>
        <time>2011-11-13T10:17:44Z</time>
      </trkpt>
      <trkpt lat="47.41063" lon="-2.10953">
        <ele>49.2</ele>
        <time>2011-11-13T10:17:45Z</time>
      </trkpt>
      <trkpt lat="47.41061" lon="-2.10959">
        <ele>49</ele>
        <time>2011-11-13T10:17:46Z</time>
      </trkpt>
      <trkpt lat="47.41062" lon="-2.10969">
        <ele>48.7</ele>
        <time>2011-11-13T10:17:47Z</time>
      </trkpt>
      <trkpt lat="47.41059" lon="-2.10982">
        <ele>51.1</ele>
        <time>2011-11-13T10:17:49Z</time>
      </trkpt>
      <trkpt lat="47.41059" lon="-2.10989">
        <ele>51.1</ele>
        <time>2011-11-13T10:17:50Z</time>
      </trkpt>
      <trkpt lat="47.41058" lon="-2.11002">
        <ele>52.3</ele>
        <time>2011-11-13T10:17:52Z</time>
      </trkpt>
      <trkpt lat="47.41057" lon="-2.1101">
        <ele>51.8</ele>
        <time>2011-11-13T10:17:53Z</time>
      </trkpt>
      <trkpt lat="47.41056" lon="-2.11017">
        <ele>51.3</ele>
        <time>2011-11-13T10:17:54Z</time>
      </trkpt>
      <trkpt lat="47.41054" lon="-2.11024">
        <ele>51</ele>
        <time>2011-11-13T10:17:55Z</time>
      </trkpt>
      <trkpt lat="47.41053" lon="-2.11031">
        <ele>50.7</ele>
        <time>2011-11-13T10:17:56Z</time>
      </trkpt>
      <trkpt lat="47.41053" lon="-2.11043">
        <ele>49.9</ele>
        <time>2011-11-13T10:17:58Z</time>
      </trkpt>
      <trkpt lat="47.41052" lon="-2.11056">
        <ele>50.1</ele>
        <time>2011-11-13T10:18:00Z</time>
      </trkpt>
      <trkpt lat="47.41051" lon="-2.11062">
        <ele>50.5</ele>
        <time>2011-11-13T10:18:01Z</time>
      </trkpt>
      <trkpt lat="47.41049" lon="-2.11075">
        <ele>50.9</ele>
        <time>2011-11-13T10:18:03Z</time>
      </trkpt>
      <trkpt lat="47.41048" lon="-2.11083">
        <ele>50.1</ele>
        <time>2011-11-13T10:18:04Z</time>
      </trkpt>
      <trkpt lat="47.41047" lon="-2.1109">
        <ele>49.3</ele>
        <time>2011-11-13T10:18:05Z</time>
      </trkpt>
      <trkpt lat="47.41045" lon="-2.11102">
        <ele>49.5</ele>
        <time>2011-11-13T10:18:07Z</time>
      </trkpt>
      <trkpt lat="47.41042" lon="-2.11115">
        <ele>49.3</ele>
        <time>2011-11-13T10:18:09Z</time>
      </trkpt>
      <trkpt lat="47.41041" lon="-2.11127">
        <ele>49.4</ele>
        <time>2011-11-13T10:18:11Z</time>
      </trkpt>
      <trkpt lat="47.4104" lon="-2.11134">
        <ele>49.4</ele>
        <time>2011-11-13T10:18:12Z</time>
      </trkpt>
      <trkpt lat="47.41039" lon="-2.11141">
        <ele>49.6</ele>
        <time>2011-11-13T10:18:13Z</time>
      </trkpt>
      <trkpt lat="47.41037" lon="-2.11152">
        <ele>50.3</ele>
        <time>2011-11-13T10:18:15Z</time>
      </trkpt>
      <trkpt lat="47.41035" lon="-2.11165">
        <ele>50.2</ele>
        <time>2011-11-13T10:18:17Z</time>
      </trkpt>
      <trkpt lat="47.41034" lon="-2.11177">
        <ele>51.3</ele>
        <time>2011-11-13T10:18:19Z</time>
      </trkpt>
      <trkpt lat="47.41032" lon="-2.11189">
        <ele>51.4</ele>
        <time>2011-11-13T10:18:21Z</time>
      </trkpt>
      <trkpt lat="47.4103" lon="-2.11201">
        <ele>51.9</ele>
        <time>2011-11-13T10:18:23Z</time>
      </trkpt>
      <trkpt lat="47.41028" lon="-2.11214">
        <ele>52.1</ele>
        <time>2011-11-13T10:18:25Z</time>
      </trkpt>
      <trkpt lat="47.41026" lon="-2.11226">
        <ele>53</ele>
        <time>2011-11-13T10:18:27Z</time>
      </trkpt>
      <trkpt lat="47.41024" lon="-2.11239">
        <ele>53.6</ele>
        <time>2011-11-13T10:18:29Z</time>
      </trkpt>
      <trkpt lat="47.41022" lon="-2.1125">
        <ele>54.9</ele>
        <time>2011-11-13T10:18:31Z</time>
      </trkpt>
      <trkpt lat="47.4102" lon="-2.1126">
        <ele>55.2</ele>
        <time>2011-11-13T10:18:33Z</time>
      </trkpt>
      <trkpt lat="47.41019" lon="-2.11269">
        <ele>55.3</ele>
        <time>2011-11-13T10:18:35Z</time>
      </trkpt>
      <trkpt lat="47.41019" lon="-2.11276">
        <ele>55.2</ele>
        <time>2011-11-13T10:18:37Z</time>
      </trkpt>
      <trkpt lat="47.41018" lon="-2.11283">
        <ele>55.3</ele>
        <time>2011-11-13T10:18:39Z</time>
      </trkpt>
      <trkpt lat="47.41017" lon="-2.1129">
        <ele>55.2</ele>
        <time>2011-11-13T10:18:41Z</time>
      </trkpt>
      <trkpt lat="47.41016" lon="-2.11298">
        <ele>55.2</ele>
        <time>2011-11-13T10:18:43Z</time>
      </trkpt>
      <trkpt lat="47.41016" lon="-2.11306">
        <ele>55.1</ele>
        <time>2011-11-13T10:18:45Z</time>
      </trkpt>
      <trkpt lat="47.41014" lon="-2.11314">
        <ele>55.2</ele>
        <time>2011-11-13T10:18:47Z</time>
      </trkpt>
      <trkpt lat="47.41015" lon="-2.11322">
        <ele>55.6</ele>
        <time>2011-11-13T10:18:48Z</time>
      </trkpt>
      <trkpt lat="47.41012" lon="-2.11334">
        <ele>55.6</ele>
        <time>2011-11-13T10:18:50Z</time>
      </trkpt>
      <trkpt lat="47.41011" lon="-2.11346">
        <ele>55.2</ele>
        <time>2011-11-13T10:18:52Z</time>
      </trkpt>
      <trkpt lat="47.41009" lon="-2.11355">
        <ele>55.1</ele>
        <time>2011-11-13T10:18:54Z</time>
      </trkpt>
      <trkpt lat="47.41006" lon="-2.1136">
        <ele>55.4</ele>
        <time>2011-11-13T10:18:55Z</time>
      </trkpt>
      <trkpt lat="47.41005" lon="-2.11368">
        <ele>57.1</ele>
        <time>2011-11-13T10:18:56Z</time>
      </trkpt>
      <trkpt lat="47.41004" lon="-2.1138">
        <ele>58.7</ele>
        <time>2011-11-13T10:18:58Z</time>
      </trkpt>
      <trkpt lat="47.41004" lon="-2.11389">
        <ele>58</ele>
        <time>2011-11-13T10:18:59Z</time>
      </trkpt>
      <trkpt lat="47.41002" lon="-2.11397">
        <ele>58.5</ele>
        <time>2011-11-13T10:19:00Z</time>
      </trkpt>
      <trkpt lat="47.40998" lon="-2.11407">
        <ele>58.2</ele>
        <time>2011-11-13T10:19:02Z</time>
      </trkpt>
      <trkpt lat="47.40997" lon="-2.11417">
        <ele>57.8</ele>
        <time>2011-11-13T10:19:03Z</time>
      </trkpt>
      <trkpt lat="47.40992" lon="-2.1143">
        <ele>58.8</ele>
        <time>2011-11-13T10:19:05Z</time>
      </trkpt>
      <trkpt lat="47.40994" lon="-2.1144">
        <ele>58</ele>
        <time>2011-11-13T10:19:07Z</time>
      </trkpt>
      <trkpt lat="47.40993" lon="-2.11447">
        <ele>58</ele>
        <time>2011-11-13T10:19:08Z</time>
      </trkpt>
      <trkpt lat="47.40992" lon="-2.11454">
        <ele>56.7</ele>
        <time>2011-11-13T10:19:09Z</time>
      </trkpt>
      <trkpt lat="47.40993" lon="-2.11461">
        <ele>56.9</ele>
        <time>2011-11-13T10:19:10Z</time>
      </trkpt>
      <trkpt lat="47.40992" lon="-2.1147">
        <ele>57</ele>
        <time>2011-11-13T10:19:11Z</time>
      </trkpt>
      <trkpt lat="47.40991" lon="-2.11477">
        <ele>57.8</ele>
        <time>2011-11-13T10:19:12Z</time>
      </trkpt>
      <trkpt lat="47.40992" lon="-2.1149">
        <ele>56.9</ele>
        <time>2011-11-13T10:19:14Z</time>
      </trkpt>
      <trkpt lat="47.40993" lon="-2.11497">
        <ele>57.6</ele>
        <time>2011-11-13T10:19:15Z</time>
      </trkpt>
      <trkpt lat="47.40989" lon="-2.11509">
        <ele>57.5</ele>
        <time>2011-11-13T10:19:17Z</time>
      </trkpt>
      <trkpt lat="47.40986" lon="-2.11517">
        <ele>57.1</ele>
        <time>2011-11-13T10:19:18Z</time>
      </trkpt>
      <trkpt lat="47.40982" lon="-2.11524">
        <ele>56.7</ele>
        <time>2011-11-13T10:19:19Z</time>
      </trkpt>
      <trkpt lat="47.40982" lon="-2.11533">
        <ele>56.3</ele>
        <time>2011-11-13T10:19:20Z</time>
      </trkpt>
      <trkpt lat="47.40982" lon="-2.11541">
        <ele>56.5</ele>
        <time>2011-11-13T10:19:21Z</time>
      </trkpt>
      <trkpt lat="47.40975" lon="-2.11551">
        <ele>55.9</ele>
        <time>2011-11-13T10:19:23Z</time>
      </trkpt>
      <trkpt lat="47.4097" lon="-2.11563">
        <ele>56.4</ele>
        <time>2011-11-13T10:19:25Z</time>
      </trkpt>
      <trkpt lat="47.40969" lon="-2.11569">
        <ele>56.2</ele>
        <time>2011-11-13T10:19:27Z</time>
      </trkpt>
      <trkpt lat="47.40965" lon="-2.11575">
        <ele>56.3</ele>
        <time>2011-11-13T10:19:28Z</time>
      </trkpt>
      <trkpt lat="47.40963" lon="-2.11582">
        <ele>57.6</ele>
        <time>2011-11-13T10:19:29Z</time>
      </trkpt>
      <trkpt lat="47.40961" lon="-2.11588">
        <ele>58</ele>
        <time>2011-11-13T10:19:30Z</time>
      </trkpt>
      <trkpt lat="47.4096" lon="-2.11601">
        <ele>57.6</ele>
        <time>2011-11-13T10:19:32Z</time>
      </trkpt>
      <trkpt lat="47.40958" lon="-2.11609">
        <ele>56.1</ele>
        <time>2011-11-13T10:19:33Z</time>
      </trkpt>
      <trkpt lat="47.40957" lon="-2.11617">
        <ele>55.7</ele>
        <time>2011-11-13T10:19:35Z</time>
      </trkpt>
      <trkpt lat="47.40955" lon="-2.11625">
        <ele>55.8</ele>
        <time>2011-11-13T10:19:36Z</time>
      </trkpt>
      <trkpt lat="47.40952" lon="-2.1164">
        <ele>56.4</ele>
        <time>2011-11-13T10:19:37Z</time>
      </trkpt>
      <trkpt lat="47.40948" lon="-2.11647">
        <ele>57.3</ele>
        <time>2011-11-13T10:19:38Z</time>
      </trkpt>
      <trkpt lat="47.40945" lon="-2.11655">
        <ele>58</ele>
        <time>2011-11-13T10:19:39Z</time>
      </trkpt>
      <trkpt lat="47.40943" lon="-2.11667">
        <ele>57.5</ele>
        <time>2011-11-13T10:19:41Z</time>
      </trkpt>
      <trkpt lat="47.40939" lon="-2.11683">
        <ele>56.7</ele>
        <time>2011-11-13T10:19:42Z</time>
      </trkpt>
      <trkpt lat="47.40934" lon="-2.11694">
        <ele>56.2</ele>
        <time>2011-11-13T10:19:43Z</time>
      </trkpt>
      <trkpt lat="47.40931" lon="-2.11704">
        <ele>55.7</ele>
        <time>2011-11-13T10:19:44Z</time>
      </trkpt>
      <trkpt lat="47.40925" lon="-2.11716">
        <ele>57.1</ele>
        <time>2011-11-13T10:19:45Z</time>
      </trkpt>
      <trkpt lat="47.40921" lon="-2.1173">
        <ele>58</ele>
        <time>2011-11-13T10:19:46Z</time>
      </trkpt>
      <trkpt lat="47.40916" lon="-2.11744">
        <ele>56.3</ele>
        <time>2011-11-13T10:19:48Z</time>
      </trkpt>
      <trkpt lat="47.40905" lon="-2.11764">
        <ele>56.3</ele>
        <time>2011-11-13T10:19:50Z</time>
      </trkpt>
      <trkpt lat="47.40902" lon="-2.11776">
        <ele>55.2</ele>
        <time>2011-11-13T10:19:51Z</time>
      </trkpt>
      <trkpt lat="47.40899" lon="-2.11788">
        <ele>54.6</ele>
        <time>2011-11-13T10:19:52Z</time>
      </trkpt>
      <trkpt lat="47.40895" lon="-2.11798">
        <ele>54.4</ele>
        <time>2011-11-13T10:19:53Z</time>
      </trkpt>
      <trkpt lat="47.40892" lon="-2.11809">
        <ele>53.6</ele>
        <time>2011-11-13T10:19:54Z</time>
      </trkpt>
      <trkpt lat="47.40888" lon="-2.11826">
        <ele>52.7</ele>
        <time>2011-11-13T10:19:55Z</time>
      </trkpt>
      <trkpt lat="47.40883" lon="-2.11847">
        <ele>51.8</ele>
        <time>2011-11-13T10:19:57Z</time>
      </trkpt>
      <trkpt lat="47.40879" lon="-2.11858">
        <ele>51.7</ele>
        <time>2011-11-13T10:19:58Z</time>
      </trkpt>
      <trkpt lat="47.40875" lon="-2.11867">
        <ele>51.5</ele>
        <time>2011-11-13T10:19:59Z</time>
      </trkpt>
      <trkpt lat="47.40873" lon="-2.11878">
        <ele>51.9</ele>
        <time>2011-11-13T10:20:00Z</time>
      </trkpt>
      <trkpt lat="47.40876" lon="-2.11889">
        <ele>51.3</ele>
        <time>2011-11-13T10:20:01Z</time>
      </trkpt>
      <trkpt lat="47.4088" lon="-2.119">
        <ele>51.4</ele>
        <time>2011-11-13T10:20:02Z</time>
      </trkpt>
      <trkpt lat="47.4088" lon="-2.11912">
        <ele>51.9</ele>
        <time>2011-11-13T10:20:03Z</time>
      </trkpt>
      <trkpt lat="47.40882" lon="-2.11923">
        <ele>51.9</ele>
        <time>2011-11-13T10:20:04Z</time>
      </trkpt>
      <trkpt lat="47.40881" lon="-2.11932">
        <ele>52.5</ele>
        <time>2011-11-13T10:20:05Z</time>
      </trkpt>
      <trkpt lat="47.4088" lon="-2.11944">
        <ele>53.2</ele>
        <time>2011-11-13T10:20:06Z</time>
      </trkpt>
      <trkpt lat="47.40878" lon="-2.11954">
        <ele>53.1</ele>
        <time>2011-11-13T10:20:07Z</time>
      </trkpt>
      <trkpt lat="47.40878" lon="-2.11964">
        <ele>52.3</ele>
        <time>2011-11-13T10:20:08Z</time>
      </trkpt>
      <trkpt lat="47.40877" lon="-2.11975">
        <ele>51.7</ele>
        <time>2011-11-13T10:20:09Z</time>
      </trkpt>
      <trkpt lat="47.40879" lon="-2.11987">
        <ele>51.2</ele>
        <time>2011-11-13T10:20:10Z</time>
      </trkpt>
      <trkpt lat="47.40881" lon="-2.11998">
        <ele>51.9</ele>
        <time>2011-11-13T10:20:11Z</time>
      </trkpt>
      <trkpt lat="47.40887" lon="-2.12007">
        <ele>51.7</ele>
        <time>2011-11-13T10:20:13Z</time>
      </trkpt>
      <trkpt lat="47.40894" lon="-2.12013">
        <ele>50.8</ele>
        <time>2011-11-13T10:20:14Z</time>
      </trkpt>
      <trkpt lat="47.40898" lon="-2.12018">
        <ele>50.3</ele>
        <time>2011-11-13T10:20:15Z</time>
      </trkpt>
      <trkpt lat="47.40904" lon="-2.12023">
        <ele>50.7</ele>
        <time>2011-11-13T10:20:16Z</time>
      </trkpt>
      <trkpt lat="47.40909" lon="-2.12028">
        <ele>51.1</ele>
        <time>2011-11-13T10:20:17Z</time>
      </trkpt>
      <trkpt lat="47.40914" lon="-2.12033">
        <ele>50.7</ele>
        <time>2011-11-13T10:20:18Z</time>
      </trkpt>
      <trkpt lat="47.4092" lon="-2.12038">
        <ele>50.7</ele>
        <time>2011-11-13T10:20:19Z</time>
      </trkpt>
      <trkpt lat="47.40925" lon="-2.12042">
        <ele>50.4</ele>
        <time>2011-11-13T10:20:20Z</time>
      </trkpt>
      <trkpt lat="47.4093" lon="-2.12047">
        <ele>49.9</ele>
        <time>2011-11-13T10:20:21Z</time>
      </trkpt>
      <trkpt lat="47.40935" lon="-2.12052">
        <ele>49.8</ele>
        <time>2011-11-13T10:20:22Z</time>
      </trkpt>
      <trkpt lat="47.4094" lon="-2.12057">
        <ele>49.8</ele>
        <time>2011-11-13T10:20:23Z</time>
      </trkpt>
      <trkpt lat="47.40944" lon="-2.12062">
        <ele>49.7</ele>
        <time>2011-11-13T10:20:24Z</time>
      </trkpt>
      <trkpt lat="47.40948" lon="-2.12068">
        <ele>49.8</ele>
        <time>2011-11-13T10:20:25Z</time>
      </trkpt>
      <trkpt lat="47.40953" lon="-2.12076">
        <ele>49.9</ele>
        <time>2011-11-13T10:20:26Z</time>
      </trkpt>
      <trkpt lat="47.40956" lon="-2.12083">
        <ele>50.1</ele>
        <time>2011-11-13T10:20:27Z</time>
      </trkpt>
      <trkpt lat="47.4096" lon="-2.12092">
        <ele>50.1</ele>
        <time>2011-11-13T10:20:28Z</time>
      </trkpt>
      <trkpt lat="47.40965" lon="-2.12102">
        <ele>49.8</ele>
        <time>2011-11-13T10:20:29Z</time>
      </trkpt>
      <trkpt lat="47.4097" lon="-2.12112">
        <ele>49.9</ele>
        <time>2011-11-13T10:20:31Z</time>
      </trkpt>
      <trkpt lat="47.40974" lon="-2.12119">
        <ele>50.3</ele>
        <time>2011-11-13T10:20:32Z</time>
      </trkpt>
      <trkpt lat="47.40979" lon="-2.12127">
        <ele>50.3</ele>
        <time>2011-11-13T10:20:33Z</time>
      </trkpt>
      <trkpt lat="47.40985" lon="-2.12135">
        <ele>50.3</ele>
        <time>2011-11-13T10:20:34Z</time>
      </trkpt>
      <trkpt lat="47.4099" lon="-2.12141">
        <ele>50.1</ele>
        <time>2011-11-13T10:20:35Z</time>
      </trkpt>
      <trkpt lat="47.40996" lon="-2.12149">
        <ele>50.3</ele>
        <time>2011-11-13T10:20:36Z</time>
      </trkpt>
      <trkpt lat="47.40998" lon="-2.12162">
        <ele>50.5</ele>
        <time>2011-11-13T10:20:37Z</time>
      </trkpt>
      <trkpt lat="47.41004" lon="-2.12176">
        <ele>50.3</ele>
        <time>2011-11-13T10:20:39Z</time>
      </trkpt>
      <trkpt lat="47.41006" lon="-2.12183">
        <ele>50.4</ele>
        <time>2011-11-13T10:20:40Z</time>
      </trkpt>
      <trkpt lat="47.41009" lon="-2.1219">
        <ele>50.6</ele>
        <time>2011-11-13T10:20:41Z</time>
      </trkpt>
      <trkpt lat="47.41013" lon="-2.12197">
        <ele>50.1</ele>
        <time>2011-11-13T10:20:42Z</time>
      </trkpt>
      <trkpt lat="47.4102" lon="-2.12212">
        <ele>49.1</ele>
        <time>2011-11-13T10:20:44Z</time>
      </trkpt>
      <trkpt lat="47.41026" lon="-2.12223">
        <ele>50</ele>
        <time>2011-11-13T10:20:45Z</time>
      </trkpt>
      <trkpt lat="47.4103" lon="-2.12229">
        <ele>49.9</ele>
        <time>2011-11-13T10:20:46Z</time>
      </trkpt>
      <trkpt lat="47.41034" lon="-2.12236">
        <ele>50.1</ele>
        <time>2011-11-13T10:20:48Z</time>
      </trkpt>
      <trkpt lat="47.41038" lon="-2.12245">
        <ele>49.8</ele>
        <time>2011-11-13T10:20:49Z</time>
      </trkpt>
      <trkpt lat="47.41037" lon="-2.12257">
        <ele>49.3</ele>
        <time>2011-11-13T10:20:50Z</time>
      </trkpt>
      <trkpt lat="47.4104" lon="-2.12265">
        <ele>49.5</ele>
        <time>2011-11-13T10:20:51Z</time>
      </trkpt>
      <trkpt lat="47.41042" lon="-2.12273">
        <ele>49.6</ele>
        <time>2011-11-13T10:20:52Z</time>
      </trkpt>
      <trkpt lat="47.41043" lon="-2.12282">
        <ele>49.5</ele>
        <time>2011-11-13T10:20:53Z</time>
      </trkpt>
      <trkpt lat="47.41044" lon="-2.12297">
        <ele>48.4</ele>
        <time>2011-11-13T10:20:54Z</time>
      </trkpt>
      <trkpt lat="47.41046" lon="-2.12306">
        <ele>48.2</ele>
        <time>2011-11-13T10:20:55Z</time>
      </trkpt>
      <trkpt lat="47.41049" lon="-2.12321">
        <ele>48.1</ele>
        <time>2011-11-13T10:20:57Z</time>
      </trkpt>
      <trkpt lat="47.41049" lon="-2.12328">
        <ele>48.8</ele>
        <time>2011-11-13T10:20:58Z</time>
      </trkpt>
      <trkpt lat="47.4105" lon="-2.12337">
        <ele>48.7</ele>
        <time>2011-11-13T10:20:59Z</time>
      </trkpt>
      <trkpt lat="47.41049" lon="-2.12344">
        <ele>48.5</ele>
        <time>2011-11-13T10:21:00Z</time>
      </trkpt>
      <trkpt lat="47.41053" lon="-2.12362">
        <ele>48</ele>
        <time>2011-11-13T10:21:03Z</time>
      </trkpt>
      <trkpt lat="47.41056" lon="-2.12374">
        <ele>48.7</ele>
        <time>2011-11-13T10:21:05Z</time>
      </trkpt>
      <trkpt lat="47.41056" lon="-2.12384">
        <ele>48.3</ele>
        <time>2011-11-13T10:21:06Z</time>
      </trkpt>
      <trkpt lat="47.41055" lon="-2.12397">
        <ele>46.4</ele>
        <time>2011-11-13T10:21:07Z</time>
      </trkpt>
      <trkpt lat="47.41056" lon="-2.12406">
        <ele>47.7</ele>
        <time>2011-11-13T10:21:08Z</time>
      </trkpt>
      <trkpt lat="47.41057" lon="-2.12414">
        <ele>47.2</ele>
        <time>2011-11-13T10:21:09Z</time>
      </trkpt>
      <trkpt lat="47.41056" lon="-2.12422">
        <ele>48.1</ele>
        <time>2011-11-13T10:21:10Z</time>
      </trkpt>
      <trkpt lat="47.41058" lon="-2.12429">
        <ele>49.8</ele>
        <time>2011-11-13T10:21:11Z</time>
      </trkpt>
      <trkpt lat="47.41058" lon="-2.12438">
        <ele>50.3</ele>
        <time>2011-11-13T10:21:12Z</time>
      </trkpt>
      <trkpt lat="47.41059" lon="-2.12445">
        <ele>50.8</ele>
        <time>2011-11-13T10:21:13Z</time>
      </trkpt>
      <trkpt lat="47.4106" lon="-2.12455">
        <ele>51.6</ele>
        <time>2011-11-13T10:21:14Z</time>
      </trkpt>
      <trkpt lat="47.41061" lon="-2.12464">
        <ele>51.1</ele>
        <time>2011-11-13T10:21:15Z</time>
      </trkpt>
      <trkpt lat="47.41062" lon="-2.12473">
        <ele>50.1</ele>
        <time>2011-11-13T10:21:16Z</time>
      </trkpt>
      <trkpt lat="47.41064" lon="-2.12482">
        <ele>49.8</ele>
        <time>2011-11-13T10:21:18Z</time>
      </trkpt>
      <trkpt lat="47.41063" lon="-2.12489">
        <ele>50.4</ele>
        <time>2011-11-13T10:21:19Z</time>
      </trkpt>
      <trkpt lat="47.41064" lon="-2.12503">
        <ele>50.8</ele>
        <time>2011-11-13T10:21:21Z</time>
      </trkpt>
      <trkpt lat="47.41065" lon="-2.1251">
        <ele>51.1</ele>
        <time>2011-11-13T10:21:22Z</time>
      </trkpt>
      <trkpt lat="47.41066" lon="-2.12517">
        <ele>51.1</ele>
        <time>2011-11-13T10:21:23Z</time>
      </trkpt>
      <trkpt lat="47.41067" lon="-2.12525">
        <ele>50.7</ele>
        <time>2011-11-13T10:21:24Z</time>
      </trkpt>
      <trkpt lat="47.4107" lon="-2.12539">
        <ele>50.8</ele>
        <time>2011-11-13T10:21:25Z</time>
      </trkpt>
      <trkpt lat="47.41071" lon="-2.12547">
        <ele>50.7</ele>
        <time>2011-11-13T10:21:26Z</time>
      </trkpt>
      <trkpt lat="47.41072" lon="-2.12555">
        <ele>50.7</ele>
        <time>2011-11-13T10:21:27Z</time>
      </trkpt>
      <trkpt lat="47.41076" lon="-2.12565">
        <ele>50.9</ele>
        <time>2011-11-13T10:21:28Z</time>
      </trkpt>
      <trkpt lat="47.41076" lon="-2.12574">
        <ele>50.3</ele>
        <time>2011-11-13T10:21:29Z</time>
      </trkpt>
      <trkpt lat="47.4108" lon="-2.12582">
        <ele>49.7</ele>
        <time>2011-11-13T10:21:30Z</time>
      </trkpt>
      <trkpt lat="47.41081" lon="-2.12593">
        <ele>49.9</ele>
        <time>2011-11-13T10:21:31Z</time>
      </trkpt>
      <trkpt lat="47.41084" lon="-2.12602">
        <ele>50.7</ele>
        <time>2011-11-13T10:21:32Z</time>
      </trkpt>
      <trkpt lat="47.41089" lon="-2.12613">
        <ele>50.3</ele>
        <time>2011-11-13T10:21:34Z</time>
      </trkpt>
      <trkpt lat="47.41093" lon="-2.12621">
        <ele>50.7</ele>
        <time>2011-11-13T10:21:35Z</time>
      </trkpt>
      <trkpt lat="47.411" lon="-2.12638">
        <ele>51</ele>
        <time>2011-11-13T10:21:37Z</time>
      </trkpt>
      <trkpt lat="47.41104" lon="-2.12654">
        <ele>49.6</ele>
        <time>2011-11-13T10:21:38Z</time>
      </trkpt>
      <trkpt lat="47.41107" lon="-2.12666">
        <ele>50.3</ele>
        <time>2011-11-13T10:21:39Z</time>
      </trkpt>
      <trkpt lat="47.4111" lon="-2.12678">
        <ele>50.5</ele>
        <time>2011-11-13T10:21:40Z</time>
      </trkpt>
      <trkpt lat="47.41111" lon="-2.12685">
        <ele>51.1</ele>
        <time>2011-11-13T10:21:41Z</time>
      </trkpt>
      <trkpt lat="47.41111" lon="-2.12696">
        <ele>50.4</ele>
        <time>2011-11-13T10:21:42Z</time>
      </trkpt>
      <trkpt lat="47.41112" lon="-2.12707">
        <ele>49.9</ele>
        <time>2011-11-13T10:21:43Z</time>
      </trkpt>
      <trkpt lat="47.41111" lon="-2.12717">
        <ele>50.4</ele>
        <time>2011-11-13T10:21:44Z</time>
      </trkpt>
      <trkpt lat="47.41108" lon="-2.12727">
        <ele>50.2</ele>
        <time>2011-11-13T10:21:46Z</time>
      </trkpt>
      <trkpt lat="47.41105" lon="-2.12732">
        <ele>51.3</ele>
        <time>2011-11-13T10:21:47Z</time>
      </trkpt>
      <trkpt lat="47.41104" lon="-2.1274">
        <ele>50.8</ele>
        <time>2011-11-13T10:21:48Z</time>
      </trkpt>
      <trkpt lat="47.41102" lon="-2.12748">
        <ele>50.5</ele>
        <time>2011-11-13T10:21:49Z</time>
      </trkpt>
      <trkpt lat="47.41099" lon="-2.12756">
        <ele>50.6</ele>
        <time>2011-11-13T10:21:50Z</time>
      </trkpt>
      <trkpt lat="47.41092" lon="-2.12764">
        <ele>50.7</ele>
        <time>2011-11-13T10:21:51Z</time>
      </trkpt>
      <trkpt lat="47.41087" lon="-2.12771">
        <ele>49.9</ele>
        <time>2011-11-13T10:21:52Z</time>
      </trkpt>
      <trkpt lat="47.41085" lon="-2.12784">
        <ele>48.4</ele>
        <time>2011-11-13T10:21:53Z</time>
      </trkpt>
      <trkpt lat="47.41083" lon="-2.12794">
        <ele>48.8</ele>
        <time>2011-11-13T10:21:54Z</time>
      </trkpt>
      <trkpt lat="47.41079" lon="-2.12803">
        <ele>48.9</ele>
        <time>2011-11-13T10:21:55Z</time>
      </trkpt>
      <trkpt lat="47.41077" lon="-2.12814">
        <ele>49.4</ele>
        <time>2011-11-13T10:21:56Z</time>
      </trkpt>
      <trkpt lat="47.41072" lon="-2.12822">
        <ele>50.2</ele>
        <time>2011-11-13T10:21:57Z</time>
      </trkpt>
      <trkpt lat="47.41069" lon="-2.12831">
        <ele>50.3</ele>
        <time>2011-11-13T10:21:58Z</time>
      </trkpt>
      <trkpt lat="47.41062" lon="-2.12839">
        <ele>50.1</ele>
        <time>2011-11-13T10:21:59Z</time>
      </trkpt>
      <trkpt lat="47.41058" lon="-2.12845">
        <ele>49.1</ele>
        <time>2011-11-13T10:22:00Z</time>
      </trkpt>
      <trkpt lat="47.41058" lon="-2.12857">
        <ele>49</ele>
        <time>2011-11-13T10:22:02Z</time>
      </trkpt>
      <trkpt lat="47.41055" lon="-2.12866">
        <ele>49.2</ele>
        <time>2011-11-13T10:22:03Z</time>
      </trkpt>
      <trkpt lat="47.41054" lon="-2.12875">
        <ele>49.2</ele>
        <time>2011-11-13T10:22:04Z</time>
      </trkpt>
      <trkpt lat="47.41048" lon="-2.12886">
        <ele>49.1</ele>
        <time>2011-11-13T10:22:05Z</time>
      </trkpt>
      <trkpt lat="47.41051" lon="-2.12892">
        <ele>50.1</ele>
        <time>2011-11-13T10:22:06Z</time>
      </trkpt>
      <trkpt lat="47.41045" lon="-2.12899">
        <ele>50</ele>
        <time>2011-11-13T10:22:07Z</time>
      </trkpt>
      <trkpt lat="47.41036" lon="-2.1291">
        <ele>50.8</ele>
        <time>2011-11-13T10:22:09Z</time>
      </trkpt>
      <trkpt lat="47.41032" lon="-2.12914">
        <ele>50.7</ele>
        <time>2011-11-13T10:22:10Z</time>
      </trkpt>
      <trkpt lat="47.41028" lon="-2.1292">
        <ele>51.6</ele>
        <time>2011-11-13T10:22:11Z</time>
      </trkpt>
      <trkpt lat="47.41025" lon="-2.12925">
        <ele>51.4</ele>
        <time>2011-11-13T10:22:12Z</time>
      </trkpt>
      <trkpt lat="47.41016" lon="-2.12932">
        <ele>51.2</ele>
        <time>2011-11-13T10:22:13Z</time>
      </trkpt>
      <trkpt lat="47.4101" lon="-2.12935">
        <ele>51.8</ele>
        <time>2011-11-13T10:22:14Z</time>
      </trkpt>
      <trkpt lat="47.41005" lon="-2.12938">
        <ele>52.6</ele>
        <time>2011-11-13T10:22:15Z</time>
      </trkpt>
      <trkpt lat="47.40999" lon="-2.12938">
        <ele>53</ele>
        <time>2011-11-13T10:22:16Z</time>
      </trkpt>
      <trkpt lat="47.40988" lon="-2.12931">
        <ele>55.4</ele>
        <time>2011-11-13T10:22:19Z</time>
      </trkpt>
      <trkpt lat="47.40983" lon="-2.12928">
        <ele>55.9</ele>
        <time>2011-11-13T10:22:20Z</time>
      </trkpt>
      <trkpt lat="47.40978" lon="-2.12924">
        <ele>56.1</ele>
        <time>2011-11-13T10:22:21Z</time>
      </trkpt>
      <trkpt lat="47.40974" lon="-2.12919">
        <ele>56.5</ele>
        <time>2011-11-13T10:22:22Z</time>
      </trkpt>
      <trkpt lat="47.4097" lon="-2.12913">
        <ele>56.7</ele>
        <time>2011-11-13T10:22:23Z</time>
      </trkpt>
      <trkpt lat="47.40962" lon="-2.12909">
        <ele>57.6</ele>
        <time>2011-11-13T10:22:25Z</time>
      </trkpt>
      <trkpt lat="47.40958" lon="-2.12904">
        <ele>57.6</ele>
        <time>2011-11-13T10:22:26Z</time>
      </trkpt>
      <trkpt lat="47.40953" lon="-2.129">
        <ele>58</ele>
        <time>2011-11-13T10:22:27Z</time>
      </trkpt>
      <trkpt lat="47.40947" lon="-2.12896">
        <ele>58.3</ele>
        <time>2011-11-13T10:22:28Z</time>
      </trkpt>
      <trkpt lat="47.40944" lon="-2.12891">
        <ele>58.3</ele>
        <time>2011-11-13T10:22:29Z</time>
      </trkpt>
      <trkpt lat="47.40939" lon="-2.12887">
        <ele>58.5</ele>
        <time>2011-11-13T10:22:30Z</time>
      </trkpt>
      <trkpt lat="47.40932" lon="-2.12884">
        <ele>58.8</ele>
        <time>2011-11-13T10:22:31Z</time>
      </trkpt>
      <trkpt lat="47.40925" lon="-2.12878">
        <ele>58.4</ele>
        <time>2011-11-13T10:22:33Z</time>
      </trkpt>
      <trkpt lat="47.40921" lon="-2.12874">
        <ele>58.8</ele>
        <time>2011-11-13T10:22:34Z</time>
      </trkpt>
      <trkpt lat="47.40916" lon="-2.1287">
        <ele>58.8</ele>
        <time>2011-11-13T10:22:35Z</time>
      </trkpt>
      <trkpt lat="47.40911" lon="-2.12864">
        <ele>58.8</ele>
        <time>2011-11-13T10:22:36Z</time>
      </trkpt>
      <trkpt lat="47.40906" lon="-2.12862">
        <ele>59.2</ele>
        <time>2011-11-13T10:22:37Z</time>
      </trkpt>
      <trkpt lat="47.40901" lon="-2.12859">
        <ele>59.4</ele>
        <time>2011-11-13T10:22:38Z</time>
      </trkpt>
      <trkpt lat="47.40896" lon="-2.12857">
        <ele>59.4</ele>
        <time>2011-11-13T10:22:39Z</time>
      </trkpt>
      <trkpt lat="47.4089" lon="-2.12848">
        <ele>59.7</ele>
        <time>2011-11-13T10:22:41Z</time>
      </trkpt>
      <trkpt lat="47.40886" lon="-2.12843">
        <ele>59.9</ele>
        <time>2011-11-13T10:22:42Z</time>
      </trkpt>
      <trkpt lat="47.40882" lon="-2.12841">
        <ele>60</ele>
        <time>2011-11-13T10:22:43Z</time>
      </trkpt>
      <trkpt lat="47.40874" lon="-2.12835">
        <ele>60.1</ele>
        <time>2011-11-13T10:22:45Z</time>
      </trkpt>
      <trkpt lat="47.40868" lon="-2.12833">
        <ele>60</ele>
        <time>2011-11-13T10:22:46Z</time>
      </trkpt>
      <trkpt lat="47.40863" lon="-2.12831">
        <ele>60.3</ele>
        <time>2011-11-13T10:22:47Z</time>
      </trkpt>
      <trkpt lat="47.40856" lon="-2.12832">
        <ele>60.5</ele>
        <time>2011-11-13T10:22:49Z</time>
      </trkpt>
      <trkpt lat="47.40848" lon="-2.12827">
        <ele>61.7</ele>
        <time>2011-11-13T10:22:52Z</time>
      </trkpt>
      <trkpt lat="47.40842" lon="-2.12821">
        <ele>61.3</ele>
        <time>2011-11-13T10:22:54Z</time>
      </trkpt>
      <trkpt lat="47.40837" lon="-2.12812">
        <ele>61.1</ele>
        <time>2011-11-13T10:22:56Z</time>
      </trkpt>
      <trkpt lat="47.4083" lon="-2.12805">
        <ele>61.4</ele>
        <time>2011-11-13T10:22:58Z</time>
      </trkpt>
      <trkpt lat="47.40825" lon="-2.12803">
        <ele>61.4</ele>
        <time>2011-11-13T10:22:59Z</time>
      </trkpt>
      <trkpt lat="47.40818" lon="-2.12796">
        <ele>61.3</ele>
        <time>2011-11-13T10:23:01Z</time>
      </trkpt>
      <trkpt lat="47.40813" lon="-2.12793">
        <ele>61.2</ele>
        <time>2011-11-13T10:23:02Z</time>
      </trkpt>
      <trkpt lat="47.4081" lon="-2.12788">
        <ele>61.1</ele>
        <time>2011-11-13T10:23:03Z</time>
      </trkpt>
      <trkpt lat="47.40805" lon="-2.12785">
        <ele>61.3</ele>
        <time>2011-11-13T10:23:04Z</time>
      </trkpt>
      <trkpt lat="47.408" lon="-2.12781">
        <ele>61.6</ele>
        <time>2011-11-13T10:23:05Z</time>
      </trkpt>
      <trkpt lat="47.40794" lon="-2.12773">
        <ele>61.6</ele>
        <time>2011-11-13T10:23:07Z</time>
      </trkpt>
      <trkpt lat="47.40789" lon="-2.12771">
        <ele>61.1</ele>
        <time>2011-11-13T10:23:08Z</time>
      </trkpt>
      <trkpt lat="47.40784" lon="-2.12768">
        <ele>61</ele>
        <time>2011-11-13T10:23:09Z</time>
      </trkpt>
      <trkpt lat="47.40775" lon="-2.12762">
        <ele>60.9</ele>
        <time>2011-11-13T10:23:11Z</time>
      </trkpt>
      <trkpt lat="47.40769" lon="-2.12759">
        <ele>61.2</ele>
        <time>2011-11-13T10:23:12Z</time>
      </trkpt>
      <trkpt lat="47.40764" lon="-2.12756">
        <ele>61</ele>
        <time>2011-11-13T10:23:13Z</time>
      </trkpt>
      <trkpt lat="47.40759" lon="-2.12752">
        <ele>61</ele>
        <time>2011-11-13T10:23:14Z</time>
      </trkpt>
      <trkpt lat="47.40752" lon="-2.12751">
        <ele>61</ele>
        <time>2011-11-13T10:23:15Z</time>
      </trkpt>
      <trkpt lat="47.40748" lon="-2.12746">
        <ele>61.1</ele>
        <time>2011-11-13T10:23:16Z</time>
      </trkpt>
      <trkpt lat="47.40742" lon="-2.12742">
        <ele>61.3</ele>
        <time>2011-11-13T10:23:17Z</time>
      </trkpt>
      <trkpt lat="47.40733" lon="-2.12736">
        <ele>61.5</ele>
        <time>2011-11-13T10:23:19Z</time>
      </trkpt>
      <trkpt lat="47.40727" lon="-2.12734">
        <ele>61.6</ele>
        <time>2011-11-13T10:23:20Z</time>
      </trkpt>
      <trkpt lat="47.40722" lon="-2.1273">
        <ele>61.8</ele>
        <time>2011-11-13T10:23:21Z</time>
      </trkpt>
      <trkpt lat="47.40718" lon="-2.12726">
        <ele>61.8</ele>
        <time>2011-11-13T10:23:22Z</time>
      </trkpt>
      <trkpt lat="47.40705" lon="-2.12723">
        <ele>62.9</ele>
        <time>2011-11-13T10:23:24Z</time>
      </trkpt>
      <trkpt lat="47.40699" lon="-2.12721">
        <ele>62.8</ele>
        <time>2011-11-13T10:23:25Z</time>
      </trkpt>
      <trkpt lat="47.40694" lon="-2.12716">
        <ele>62.8</ele>
        <time>2011-11-13T10:23:26Z</time>
      </trkpt>
      <trkpt lat="47.40688" lon="-2.1271">
        <ele>63.2</ele>
        <time>2011-11-13T10:23:28Z</time>
      </trkpt>
      <trkpt lat="47.40683" lon="-2.12703">
        <ele>63.9</ele>
        <time>2011-11-13T10:23:29Z</time>
      </trkpt>
      <trkpt lat="47.40678" lon="-2.12701">
        <ele>64.2</ele>
        <time>2011-11-13T10:23:30Z</time>
      </trkpt>
      <trkpt lat="47.40674" lon="-2.12697">
        <ele>63.9</ele>
        <time>2011-11-13T10:23:31Z</time>
      </trkpt>
      <trkpt lat="47.40666" lon="-2.12694">
        <ele>63.6</ele>
        <time>2011-11-13T10:23:33Z</time>
      </trkpt>
      <trkpt lat="47.4066" lon="-2.12692">
        <ele>63.3</ele>
        <time>2011-11-13T10:23:34Z</time>
      </trkpt>
      <trkpt lat="47.40653" lon="-2.12689">
        <ele>63.6</ele>
        <time>2011-11-13T10:23:35Z</time>
      </trkpt>
      <trkpt lat="47.40653" lon="-2.12678">
        <ele>64.9</ele>
        <time>2011-11-13T10:23:38Z</time>
      </trkpt>
      <trkpt lat="47.40645" lon="-2.12686">
        <ele>61.9</ele>
        <time>2011-11-13T10:23:39Z</time>
      </trkpt>
      <trkpt lat="47.40642" lon="-2.12693">
        <ele>60.3</ele>
        <time>2011-11-13T10:23:40Z</time>
      </trkpt>
      <trkpt lat="47.4064" lon="-2.12702">
        <ele>59.4</ele>
        <time>2011-11-13T10:23:41Z</time>
      </trkpt>
      <trkpt lat="47.40632" lon="-2.12714">
        <ele>59.5</ele>
        <time>2011-11-13T10:23:43Z</time>
      </trkpt>
      <trkpt lat="47.40631" lon="-2.12721">
        <ele>57.9</ele>
        <time>2011-11-13T10:23:44Z</time>
      </trkpt>
      <trkpt lat="47.40626" lon="-2.12735">
        <ele>57.4</ele>
        <time>2011-11-13T10:23:46Z</time>
      </trkpt>
      <trkpt lat="47.40622" lon="-2.12743">
        <ele>56.6</ele>
        <time>2011-11-13T10:23:47Z</time>
      </trkpt>
      <trkpt lat="47.4062" lon="-2.12751">
        <ele>56.3</ele>
        <time>2011-11-13T10:23:48Z</time>
      </trkpt>
      <trkpt lat="47.40614" lon="-2.12761">
        <ele>55.1</ele>
        <time>2011-11-13T10:23:49Z</time>
      </trkpt>
      <trkpt lat="47.40614" lon="-2.12773">
        <ele>54.6</ele>
        <time>2011-11-13T10:23:50Z</time>
      </trkpt>
      <trkpt lat="47.40612" lon="-2.12784">
        <ele>55.1</ele>
        <time>2011-11-13T10:23:51Z</time>
      </trkpt>
      <trkpt lat="47.40601" lon="-2.1279">
        <ele>52.9</ele>
        <time>2011-11-13T10:23:52Z</time>
      </trkpt>
      <trkpt lat="47.40597" lon="-2.12799">
        <ele>53.6</ele>
        <time>2011-11-13T10:23:53Z</time>
      </trkpt>
      <trkpt lat="47.40593" lon="-2.12805">
        <ele>52.6</ele>
        <time>2011-11-13T10:23:54Z</time>
      </trkpt>
      <trkpt lat="47.40588" lon="-2.12815">
        <ele>50.8</ele>
        <time>2011-11-13T10:23:56Z</time>
      </trkpt>
      <trkpt lat="47.40584" lon="-2.12826">
        <ele>51.6</ele>
        <time>2011-11-13T10:23:58Z</time>
      </trkpt>
      <trkpt lat="47.40582" lon="-2.1284">
        <ele>51.2</ele>
        <time>2011-11-13T10:24:00Z</time>
      </trkpt>
      <trkpt lat="47.40576" lon="-2.12847">
        <ele>51.4</ele>
        <time>2011-11-13T10:24:01Z</time>
      </trkpt>
      <trkpt lat="47.40574" lon="-2.12855">
        <ele>50.8</ele>
        <time>2011-11-13T10:24:02Z</time>
      </trkpt>
      <trkpt lat="47.40572" lon="-2.12862">
        <ele>50.2</ele>
        <time>2011-11-13T10:24:03Z</time>
      </trkpt>
      <trkpt lat="47.40569" lon="-2.12869">
        <ele>50.2</ele>
        <time>2011-11-13T10:24:04Z</time>
      </trkpt>
      <trkpt lat="47.40563" lon="-2.12881">
        <ele>51.5</ele>
        <time>2011-11-13T10:24:06Z</time>
      </trkpt>
      <trkpt lat="47.4056" lon="-2.12887">
        <ele>51.3</ele>
        <time>2011-11-13T10:24:07Z</time>
      </trkpt>
      <trkpt lat="47.40558" lon="-2.12894">
        <ele>51.5</ele>
        <time>2011-11-13T10:24:10Z</time>
      </trkpt>
      <trkpt lat="47.40556" lon="-2.12903">
        <ele>50.1</ele>
        <time>2011-11-13T10:24:20Z</time>
      </trkpt>
      <trkpt lat="47.40552" lon="-2.12907">
        <ele>49.9</ele>
        <time>2011-11-13T10:24:22Z</time>
      </trkpt>
      <trkpt lat="47.40552" lon="-2.12915">
        <ele>50.5</ele>
        <time>2011-11-13T10:24:28Z</time>
      </trkpt>
      <trkpt lat="47.40551" lon="-2.12922">
        <ele>50.4</ele>
        <time>2011-11-13T10:24:31Z</time>
      </trkpt>
      <trkpt lat="47.40553" lon="-2.12929">
        <ele>49.4</ele>
        <time>2011-11-13T10:24:33Z</time>
      </trkpt>
      <trkpt lat="47.40554" lon="-2.1294">
        <ele>49.4</ele>
        <time>2011-11-13T10:24:37Z</time>
      </trkpt>
      <trkpt lat="47.40553" lon="-2.12948">
        <ele>52.1</ele>
        <time>2011-11-13T10:24:39Z</time>
      </trkpt>
      <trkpt lat="47.40554" lon="-2.12955">
        <ele>54.3</ele>
        <time>2011-11-13T10:24:41Z</time>
      </trkpt>
      <trkpt lat="47.40555" lon="-2.12962">
        <ele>54</ele>
        <time>2011-11-13T10:24:42Z</time>
      </trkpt>
      <trkpt lat="47.40551" lon="-2.12969">
        <ele>54.2</ele>
        <time>2011-11-13T10:24:44Z</time>
      </trkpt>
      <trkpt lat="47.40548" lon="-2.12975">
        <ele>55.9</ele>
        <time>2011-11-13T10:24:48Z</time>
      </trkpt>
      <trkpt lat="47.40543" lon="-2.12975">
        <ele>55.9</ele>
        <time>2011-11-13T10:24:49Z</time>
      </trkpt>
      <trkpt lat="47.4054" lon="-2.1297">
        <ele>57.4</ele>
        <time>2011-11-13T10:24:51Z</time>
      </trkpt>
      <trkpt lat="47.40541" lon="-2.12958">
        <ele>58.2</ele>
        <time>2011-11-13T10:24:53Z</time>
      </trkpt>
      <trkpt lat="47.40541" lon="-2.1295">
        <ele>59.3</ele>
        <time>2011-11-13T10:24:54Z</time>
      </trkpt>
      <trkpt lat="47.40542" lon="-2.1294">
        <ele>58.2</ele>
        <time>2011-11-13T10:24:55Z</time>
      </trkpt>
      <trkpt lat="47.40542" lon="-2.12934">
        <ele>58.8</ele>
        <time>2011-11-13T10:24:56Z</time>
      </trkpt>
      <trkpt lat="47.40542" lon="-2.12926">
        <ele>59.1</ele>
        <time>2011-11-13T10:24:57Z</time>
      </trkpt>
      <trkpt lat="47.40541" lon="-2.12918">
        <ele>59.5</ele>
        <time>2011-11-13T10:24:58Z</time>
      </trkpt>
      <trkpt lat="47.4054" lon="-2.1291">
        <ele>59.6</ele>
        <time>2011-11-13T10:24:59Z</time>
      </trkpt>
      <trkpt lat="47.40539" lon="-2.12902">
        <ele>59.8</ele>
        <time>2011-11-13T10:25:00Z</time>
      </trkpt>
      <trkpt lat="47.40538" lon="-2.12893">
        <ele>59.7</ele>
        <time>2011-11-13T10:25:01Z</time>
      </trkpt>
      <trkpt lat="47.40531" lon="-2.12886">
        <ele>60.4</ele>
        <time>2011-11-13T10:25:03Z</time>
      </trkpt>
      <trkpt lat="47.40528" lon="-2.12879">
        <ele>60.4</ele>
        <time>2011-11-13T10:25:04Z</time>
      </trkpt>
      <trkpt lat="47.40525" lon="-2.12874">
        <ele>60.4</ele>
        <time>2011-11-13T10:25:05Z</time>
      </trkpt>
      <trkpt lat="47.40515" lon="-2.12865">
        <ele>60.3</ele>
        <time>2011-11-13T10:25:07Z</time>
      </trkpt>
      <trkpt lat="47.40507" lon="-2.12857">
        <ele>60.4</ele>
        <time>2011-11-13T10:25:09Z</time>
      </trkpt>
      <trkpt lat="47.40501" lon="-2.12854">
        <ele>60.2</ele>
        <time>2011-11-13T10:25:10Z</time>
      </trkpt>
      <trkpt lat="47.40496" lon="-2.12849">
        <ele>60.1</ele>
        <time>2011-11-13T10:25:11Z</time>
      </trkpt>
      <trkpt lat="47.40489" lon="-2.12849">
        <ele>60</ele>
        <time>2011-11-13T10:25:12Z</time>
      </trkpt>
      <trkpt lat="47.40485" lon="-2.12846">
        <ele>60.2</ele>
        <time>2011-11-13T10:25:13Z</time>
      </trkpt>
      <trkpt lat="47.40478" lon="-2.12843">
        <ele>60.3</ele>
        <time>2011-11-13T10:25:14Z</time>
      </trkpt>
      <trkpt lat="47.40471" lon="-2.12841">
        <ele>60.5</ele>
        <time>2011-11-13T10:25:15Z</time>
      </trkpt>
      <trkpt lat="47.40465" lon="-2.12837">
        <ele>60.9</ele>
        <time>2011-11-13T10:25:16Z</time>
      </trkpt>
      <trkpt lat="47.40456" lon="-2.12831">
        <ele>61.1</ele>
        <time>2011-11-13T10:25:18Z</time>
      </trkpt>
      <trkpt lat="47.40451" lon="-2.12827">
        <ele>61.9</ele>
        <time>2011-11-13T10:25:19Z</time>
      </trkpt>
      <trkpt lat="47.40446" lon="-2.12823">
        <ele>62.2</ele>
        <time>2011-11-13T10:25:20Z</time>
      </trkpt>
      <trkpt lat="47.4044" lon="-2.12819">
        <ele>62.3</ele>
        <time>2011-11-13T10:25:21Z</time>
      </trkpt>
      <trkpt lat="47.40433" lon="-2.12817">
        <ele>62.3</ele>
        <time>2011-11-13T10:25:22Z</time>
      </trkpt>
      <trkpt lat="47.40427" lon="-2.12813">
        <ele>62.4</ele>
        <time>2011-11-13T10:25:23Z</time>
      </trkpt>
      <trkpt lat="47.40422" lon="-2.12809">
        <ele>62.8</ele>
        <time>2011-11-13T10:25:24Z</time>
      </trkpt>
      <trkpt lat="47.40417" lon="-2.12805">
        <ele>62.9</ele>
        <time>2011-11-13T10:25:25Z</time>
      </trkpt>
      <trkpt lat="47.40411" lon="-2.12796">
        <ele>62.3</ele>
        <time>2011-11-13T10:25:27Z</time>
      </trkpt>
      <trkpt lat="47.40407" lon="-2.12789">
        <ele>61.1</ele>
        <time>2011-11-13T10:25:28Z</time>
      </trkpt>
      <trkpt lat="47.40401" lon="-2.12785">
        <ele>61.5</ele>
        <time>2011-11-13T10:25:29Z</time>
      </trkpt>
      <trkpt lat="47.40395" lon="-2.12781">
        <ele>61.6</ele>
        <time>2011-11-13T10:25:30Z</time>
      </trkpt>
      <trkpt lat="47.40387" lon="-2.12777">
        <ele>61.3</ele>
        <time>2011-11-13T10:25:31Z</time>
      </trkpt>
      <trkpt lat="47.40383" lon="-2.1277">
        <ele>62.2</ele>
        <time>2011-11-13T10:25:32Z</time>
      </trkpt>
      <trkpt lat="47.40371" lon="-2.1276">
        <ele>61.7</ele>
        <time>2011-11-13T10:25:34Z</time>
      </trkpt>
      <trkpt lat="47.40369" lon="-2.12751">
        <ele>61.4</ele>
        <time>2011-11-13T10:25:35Z</time>
      </trkpt>
      <trkpt lat="47.40366" lon="-2.12743">
        <ele>61.7</ele>
        <time>2011-11-13T10:25:36Z</time>
      </trkpt>
      <trkpt lat="47.40363" lon="-2.12737">
        <ele>62</ele>
        <time>2011-11-13T10:25:37Z</time>
      </trkpt>
      <trkpt lat="47.4036" lon="-2.12731">
        <ele>62.2</ele>
        <time>2011-11-13T10:25:38Z</time>
      </trkpt>
      <trkpt lat="47.40359" lon="-2.12723">
        <ele>62.2</ele>
        <time>2011-11-13T10:25:39Z</time>
      </trkpt>
      <trkpt lat="47.40358" lon="-2.12714">
        <ele>61.9</ele>
        <time>2011-11-13T10:25:40Z</time>
      </trkpt>
      <trkpt lat="47.40356" lon="-2.12706">
        <ele>61.8</ele>
        <time>2011-11-13T10:25:41Z</time>
      </trkpt>
      <trkpt lat="47.40354" lon="-2.12699">
        <ele>62</ele>
        <time>2011-11-13T10:25:42Z</time>
      </trkpt>
      <trkpt lat="47.40352" lon="-2.12691">
        <ele>62</ele>
        <time>2011-11-13T10:25:43Z</time>
      </trkpt>
      <trkpt lat="47.40351" lon="-2.12684">
        <ele>61.9</ele>
        <time>2011-11-13T10:25:44Z</time>
      </trkpt>
      <trkpt lat="47.40348" lon="-2.12675">
        <ele>62.3</ele>
        <time>2011-11-13T10:25:45Z</time>
      </trkpt>
      <trkpt lat="47.40346" lon="-2.12668">
        <ele>62.5</ele>
        <time>2011-11-13T10:25:46Z</time>
      </trkpt>
      <trkpt lat="47.40344" lon="-2.12658">
        <ele>62.7</ele>
        <time>2011-11-13T10:25:47Z</time>
      </trkpt>
      <trkpt lat="47.40342" lon="-2.1265">
        <ele>62.5</ele>
        <time>2011-11-13T10:25:48Z</time>
      </trkpt>
      <trkpt lat="47.40336" lon="-2.12642">
        <ele>58.9</ele>
        <time>2011-11-13T10:25:49Z</time>
      </trkpt>
      <trkpt lat="47.4033" lon="-2.12638">
        <ele>58.6</ele>
        <time>2011-11-13T10:25:50Z</time>
      </trkpt>
      <trkpt lat="47.40323" lon="-2.12632">
        <ele>59.6</ele>
        <time>2011-11-13T10:25:51Z</time>
      </trkpt>
      <trkpt lat="47.40315" lon="-2.12628">
        <ele>60.3</ele>
        <time>2011-11-13T10:25:52Z</time>
      </trkpt>
      <trkpt lat="47.40312" lon="-2.12619">
        <ele>59.5</ele>
        <time>2011-11-13T10:25:53Z</time>
      </trkpt>
      <trkpt lat="47.40302" lon="-2.12608">
        <ele>59.5</ele>
        <time>2011-11-13T10:25:55Z</time>
      </trkpt>
      <trkpt lat="47.40299" lon="-2.12599">
        <ele>59.5</ele>
        <time>2011-11-13T10:25:56Z</time>
      </trkpt>
      <trkpt lat="47.40295" lon="-2.12591">
        <ele>59.6</ele>
        <time>2011-11-13T10:25:57Z</time>
      </trkpt>
      <trkpt lat="47.40289" lon="-2.12573">
        <ele>59.9</ele>
        <time>2011-11-13T10:25:59Z</time>
      </trkpt>
      <trkpt lat="47.40279" lon="-2.12575">
        <ele>59.7</ele>
        <time>2011-11-13T10:26:00Z</time>
      </trkpt>
      <trkpt lat="47.40272" lon="-2.12574">
        <ele>60.2</ele>
        <time>2011-11-13T10:26:02Z</time>
      </trkpt>
      <trkpt lat="47.40268" lon="-2.12566">
        <ele>59.7</ele>
        <time>2011-11-13T10:26:04Z</time>
      </trkpt>
      <trkpt lat="47.40261" lon="-2.12576">
        <ele>57.5</ele>
        <time>2011-11-13T10:26:07Z</time>
      </trkpt>
      <trkpt lat="47.4026" lon="-2.12584">
        <ele>55.2</ele>
        <time>2011-11-13T10:26:10Z</time>
      </trkpt>
      <trkpt lat="47.40258" lon="-2.12592">
        <ele>55.6</ele>
        <time>2011-11-13T10:26:11Z</time>
      </trkpt>
      <trkpt lat="47.40258" lon="-2.12598">
        <ele>55</ele>
        <time>2011-11-13T10:26:12Z</time>
      </trkpt>
      <trkpt lat="47.40254" lon="-2.12605">
        <ele>55.3</ele>
        <time>2011-11-13T10:26:13Z</time>
      </trkpt>
      <trkpt lat="47.40252" lon="-2.12619">
        <ele>58.5</ele>
        <time>2011-11-13T10:26:15Z</time>
      </trkpt>
      <trkpt lat="47.40251" lon="-2.1263">
        <ele>58.6</ele>
        <time>2011-11-13T10:26:17Z</time>
      </trkpt>
      <trkpt lat="47.40248" lon="-2.12642">
        <ele>58.3</ele>
        <time>2011-11-13T10:26:19Z</time>
      </trkpt>
      <trkpt lat="47.40247" lon="-2.12653">
        <ele>58.9</ele>
        <time>2011-11-13T10:26:21Z</time>
      </trkpt>
      <trkpt lat="47.40246" lon="-2.12659">
        <ele>59.3</ele>
        <time>2011-11-13T10:26:22Z</time>
      </trkpt>
      <trkpt lat="47.40245" lon="-2.12673">
        <ele>57.6</ele>
        <time>2011-11-13T10:26:24Z</time>
      </trkpt>
      <trkpt lat="47.40245" lon="-2.12681">
        <ele>57.2</ele>
        <time>2011-11-13T10:26:25Z</time>
      </trkpt>
      <trkpt lat="47.40242" lon="-2.12694">
        <ele>57.1</ele>
        <time>2011-11-13T10:26:27Z</time>
      </trkpt>
      <trkpt lat="47.4024" lon="-2.12708">
        <ele>57</ele>
        <time>2011-11-13T10:26:29Z</time>
      </trkpt>
      <trkpt lat="47.40238" lon="-2.12714">
        <ele>56.5</ele>
        <time>2011-11-13T10:26:30Z</time>
      </trkpt>
      <trkpt lat="47.40236" lon="-2.1272">
        <ele>57.2</ele>
        <time>2011-11-13T10:26:31Z</time>
      </trkpt>
      <trkpt lat="47.40235" lon="-2.12728">
        <ele>57.2</ele>
        <time>2011-11-13T10:26:32Z</time>
      </trkpt>
      <trkpt lat="47.40232" lon="-2.12735">
        <ele>56.7</ele>
        <time>2011-11-13T10:26:33Z</time>
      </trkpt>
      <trkpt lat="47.40231" lon="-2.12742">
        <ele>56.9</ele>
        <time>2011-11-13T10:26:34Z</time>
      </trkpt>
      <trkpt lat="47.40229" lon="-2.12749">
        <ele>57.4</ele>
        <time>2011-11-13T10:26:35Z</time>
      </trkpt>
      <trkpt lat="47.40228" lon="-2.12756">
        <ele>57.4</ele>
        <time>2011-11-13T10:26:36Z</time>
      </trkpt>
      <trkpt lat="47.40227" lon="-2.12774">
        <ele>57.1</ele>
        <time>2011-11-13T10:26:39Z</time>
      </trkpt>
      <trkpt lat="47.40222" lon="-2.12784">
        <ele>57.6</ele>
        <time>2011-11-13T10:26:40Z</time>
      </trkpt>
      <trkpt lat="47.40223" lon="-2.12791">
        <ele>56.9</ele>
        <time>2011-11-13T10:26:41Z</time>
      </trkpt>
      <trkpt lat="47.40226" lon="-2.12804">
        <ele>57.8</ele>
        <time>2011-11-13T10:26:43Z</time>
      </trkpt>
      <trkpt lat="47.40225" lon="-2.12813">
        <ele>57.6</ele>
        <time>2011-11-13T10:26:44Z</time>
      </trkpt>
      <trkpt lat="47.40226" lon="-2.12828">
        <ele>58.1</ele>
        <time>2011-11-13T10:26:46Z</time>
      </trkpt>
      <trkpt lat="47.40223" lon="-2.12836">
        <ele>57</ele>
        <time>2011-11-13T10:26:47Z</time>
      </trkpt>
      <trkpt lat="47.40227" lon="-2.12841">
        <ele>56.5</ele>
        <time>2011-11-13T10:26:49Z</time>
      </trkpt>
      <trkpt lat="47.40228" lon="-2.12857">
        <ele>55.4</ele>
        <time>2011-11-13T10:26:50Z</time>
      </trkpt>
      <trkpt lat="47.4023" lon="-2.12864">
        <ele>54.7</ele>
        <time>2011-11-13T10:26:51Z</time>
      </trkpt>
      <trkpt lat="47.40228" lon="-2.12873">
        <ele>54.3</ele>
        <time>2011-11-13T10:26:52Z</time>
      </trkpt>
      <trkpt lat="47.40224" lon="-2.1288">
        <ele>53.9</ele>
        <time>2011-11-13T10:26:53Z</time>
      </trkpt>
      <trkpt lat="47.40221" lon="-2.12886">
        <ele>54.1</ele>
        <time>2011-11-13T10:26:54Z</time>
      </trkpt>
      <trkpt lat="47.40225" lon="-2.12895">
        <ele>55.6</ele>
        <time>2011-11-13T10:26:56Z</time>
      </trkpt>
      <trkpt lat="47.40227" lon="-2.12902">
        <ele>54.5</ele>
        <time>2011-11-13T10:26:57Z</time>
      </trkpt>
      <trkpt lat="47.40226" lon="-2.12909">
        <ele>54.2</ele>
        <time>2011-11-13T10:26:58Z</time>
      </trkpt>
      <trkpt lat="47.40224" lon="-2.12922">
        <ele>54.8</ele>
        <time>2011-11-13T10:27:00Z</time>
      </trkpt>
      <trkpt lat="47.40226" lon="-2.12931">
        <ele>55.1</ele>
        <time>2011-11-13T10:27:01Z</time>
      </trkpt>
      <trkpt lat="47.40222" lon="-2.1294">
        <ele>55.9</ele>
        <time>2011-11-13T10:27:02Z</time>
      </trkpt>
      <trkpt lat="47.4022" lon="-2.12946">
        <ele>54.5</ele>
        <time>2011-11-13T10:27:03Z</time>
      </trkpt>
      <trkpt lat="47.40219" lon="-2.1296">
        <ele>54.3</ele>
        <time>2011-11-13T10:27:05Z</time>
      </trkpt>
      <trkpt lat="47.40217" lon="-2.12966">
        <ele>53.2</ele>
        <time>2011-11-13T10:27:06Z</time>
      </trkpt>
      <trkpt lat="47.40214" lon="-2.12973">
        <ele>54.9</ele>
        <time>2011-11-13T10:27:07Z</time>
      </trkpt>
      <trkpt lat="47.4021" lon="-2.12979">
        <ele>53.8</ele>
        <time>2011-11-13T10:27:08Z</time>
      </trkpt>
      <trkpt lat="47.40205" lon="-2.12986">
        <ele>55.3</ele>
        <time>2011-11-13T10:27:09Z</time>
      </trkpt>
      <trkpt lat="47.40201" lon="-2.12995">
        <ele>54</ele>
        <time>2011-11-13T10:27:10Z</time>
      </trkpt>
      <trkpt lat="47.402" lon="-2.13009">
        <ele>53.3</ele>
        <time>2011-11-13T10:27:12Z</time>
      </trkpt>
      <trkpt lat="47.40194" lon="-2.13017">
        <ele>53</ele>
        <time>2011-11-13T10:27:13Z</time>
      </trkpt>
      <trkpt lat="47.40191" lon="-2.13031">
        <ele>54.8</ele>
        <time>2011-11-13T10:27:15Z</time>
      </trkpt>
      <trkpt lat="47.40188" lon="-2.13038">
        <ele>55.8</ele>
        <time>2011-11-13T10:27:16Z</time>
      </trkpt>
      <trkpt lat="47.40185" lon="-2.13045">
        <ele>56.5</ele>
        <time>2011-11-13T10:27:17Z</time>
      </trkpt>
      <trkpt lat="47.40182" lon="-2.13053">
        <ele>56.7</ele>
        <time>2011-11-13T10:27:18Z</time>
      </trkpt>
      <trkpt lat="47.40182" lon="-2.13061">
        <ele>55.6</ele>
        <time>2011-11-13T10:27:19Z</time>
      </trkpt>
      <trkpt lat="47.40183" lon="-2.13069">
        <ele>54.6</ele>
        <time>2011-11-13T10:27:20Z</time>
      </trkpt>
      <trkpt lat="47.40177" lon="-2.1308">
        <ele>55.5</ele>
        <time>2011-11-13T10:27:22Z</time>
      </trkpt>
      <trkpt lat="47.40174" lon="-2.13088">
        <ele>55.9</ele>
        <time>2011-11-13T10:27:23Z</time>
      </trkpt>
      <trkpt lat="47.40173" lon="-2.13098">
        <ele>54.6</ele>
        <time>2011-11-13T10:27:24Z</time>
      </trkpt>
      <trkpt lat="47.40174" lon="-2.13106">
        <ele>55</ele>
        <time>2011-11-13T10:27:25Z</time>
      </trkpt>
      <trkpt lat="47.40171" lon="-2.13115">
        <ele>54.4</ele>
        <time>2011-11-13T10:27:26Z</time>
      </trkpt>
      <trkpt lat="47.40175" lon="-2.13127">
        <ele>55.5</ele>
        <time>2011-11-13T10:27:28Z</time>
      </trkpt>
      <trkpt lat="47.40178" lon="-2.13134">
        <ele>55.3</ele>
        <time>2011-11-13T10:27:29Z</time>
      </trkpt>
      <trkpt lat="47.40184" lon="-2.13144">
        <ele>54.9</ele>
        <time>2011-11-13T10:27:31Z</time>
      </trkpt>
      <trkpt lat="47.40186" lon="-2.13152">
        <ele>54.9</ele>
        <time>2011-11-13T10:27:32Z</time>
      </trkpt>
      <trkpt lat="47.4019" lon="-2.13159">
        <ele>54.7</ele>
        <time>2011-11-13T10:27:33Z</time>
      </trkpt>
      <trkpt lat="47.40193" lon="-2.13166">
        <ele>54.6</ele>
        <time>2011-11-13T10:27:34Z</time>
      </trkpt>
      <trkpt lat="47.40198" lon="-2.13179">
        <ele>55.4</ele>
        <time>2011-11-13T10:27:35Z</time>
      </trkpt>
      <trkpt lat="47.40203" lon="-2.13187">
        <ele>55.4</ele>
        <time>2011-11-13T10:27:36Z</time>
      </trkpt>
      <trkpt lat="47.40208" lon="-2.13197">
        <ele>54.9</ele>
        <time>2011-11-13T10:27:38Z</time>
      </trkpt>
      <trkpt lat="47.40212" lon="-2.13204">
        <ele>54.4</ele>
        <time>2011-11-13T10:27:39Z</time>
      </trkpt>
      <trkpt lat="47.40218" lon="-2.13212">
        <ele>54.1</ele>
        <time>2011-11-13T10:27:40Z</time>
      </trkpt>
      <trkpt lat="47.40223" lon="-2.1322">
        <ele>54.6</ele>
        <time>2011-11-13T10:27:41Z</time>
      </trkpt>
      <trkpt lat="47.40227" lon="-2.13228">
        <ele>55</ele>
        <time>2011-11-13T10:27:42Z</time>
      </trkpt>
      <trkpt lat="47.40235" lon="-2.13236">
        <ele>54.7</ele>
        <time>2011-11-13T10:27:44Z</time>
      </trkpt>
      <trkpt lat="47.40239" lon="-2.13245">
        <ele>54.6</ele>
        <time>2011-11-13T10:27:46Z</time>
      </trkpt>
      <trkpt lat="47.40245" lon="-2.13255">
        <ele>54.2</ele>
        <time>2011-11-13T10:27:48Z</time>
      </trkpt>
      <trkpt lat="47.40248" lon="-2.1326">
        <ele>54.6</ele>
        <time>2011-11-13T10:27:49Z</time>
      </trkpt>
      <trkpt lat="47.40252" lon="-2.13266">
        <ele>54.9</ele>
        <time>2011-11-13T10:27:50Z</time>
      </trkpt>
      <trkpt lat="47.40255" lon="-2.13271">
        <ele>55.2</ele>
        <time>2011-11-13T10:27:51Z</time>
      </trkpt>
      <trkpt lat="47.40258" lon="-2.13277">
        <ele>55.3</ele>
        <time>2011-11-13T10:27:52Z</time>
      </trkpt>
      <trkpt lat="47.40261" lon="-2.13282">
        <ele>55.5</ele>
        <time>2011-11-13T10:27:53Z</time>
      </trkpt>
      <trkpt lat="47.40265" lon="-2.13288">
        <ele>55.4</ele>
        <time>2011-11-13T10:27:54Z</time>
      </trkpt>
      <trkpt lat="47.40268" lon="-2.13294">
        <ele>55.9</ele>
        <time>2011-11-13T10:27:55Z</time>
      </trkpt>
      <trkpt lat="47.40272" lon="-2.133">
        <ele>55.8</ele>
        <time>2011-11-13T10:27:56Z</time>
      </trkpt>
      <trkpt lat="47.40275" lon="-2.13305">
        <ele>55.9</ele>
        <time>2011-11-13T10:27:57Z</time>
      </trkpt>
      <trkpt lat="47.40278" lon="-2.13311">
        <ele>56.2</ele>
        <time>2011-11-13T10:27:58Z</time>
      </trkpt>
      <trkpt lat="47.40282" lon="-2.13316">
        <ele>56.4</ele>
        <time>2011-11-13T10:27:59Z</time>
      </trkpt>
      <trkpt lat="47.40286" lon="-2.13322">
        <ele>56.2</ele>
        <time>2011-11-13T10:28:00Z</time>
      </trkpt>
      <trkpt lat="47.40289" lon="-2.13327">
        <ele>56.4</ele>
        <time>2011-11-13T10:28:01Z</time>
      </trkpt>
      <trkpt lat="47.40293" lon="-2.13333">
        <ele>56.6</ele>
        <time>2011-11-13T10:28:02Z</time>
      </trkpt>
      <trkpt lat="47.40296" lon="-2.13338">
        <ele>56.8</ele>
        <time>2011-11-13T10:28:03Z</time>
      </trkpt>
      <trkpt lat="47.403" lon="-2.13343">
        <ele>57.2</ele>
        <time>2011-11-13T10:28:04Z</time>
      </trkpt>
      <trkpt lat="47.40304" lon="-2.13348">
        <ele>57.3</ele>
        <time>2011-11-13T10:28:05Z</time>
      </trkpt>
      <trkpt lat="47.40307" lon="-2.13353">
        <ele>57.1</ele>
        <time>2011-11-13T10:28:06Z</time>
      </trkpt>
      <trkpt lat="47.4031" lon="-2.13361">
        <ele>56.9</ele>
        <time>2011-11-13T10:28:07Z</time>
      </trkpt>
      <trkpt lat="47.40313" lon="-2.13368">
        <ele>56.5</ele>
        <time>2011-11-13T10:28:08Z</time>
      </trkpt>
      <trkpt lat="47.40318" lon="-2.13373">
        <ele>56.3</ele>
        <time>2011-11-13T10:28:09Z</time>
      </trkpt>
      <trkpt lat="47.40322" lon="-2.13378">
        <ele>56.5</ele>
        <time>2011-11-13T10:28:10Z</time>
      </trkpt>
      <trkpt lat="47.40327" lon="-2.13381">
        <ele>56.3</ele>
        <time>2011-11-13T10:28:11Z</time>
      </trkpt>
      <trkpt lat="47.4033" lon="-2.13386">
        <ele>56.6</ele>
        <time>2011-11-13T10:28:12Z</time>
      </trkpt>
      <trkpt lat="47.40335" lon="-2.13388">
        <ele>57.4</ele>
        <time>2011-11-13T10:28:13Z</time>
      </trkpt>
      <trkpt lat="47.40339" lon="-2.13394">
        <ele>58</ele>
        <time>2011-11-13T10:28:15Z</time>
      </trkpt>
      <trkpt lat="47.40341" lon="-2.13406">
        <ele>57.4</ele>
        <time>2011-11-13T10:28:18Z</time>
      </trkpt>
      <trkpt lat="47.4034" lon="-2.13416">
        <ele>58</ele>
        <time>2011-11-13T10:28:19Z</time>
      </trkpt>
      <trkpt lat="47.4034" lon="-2.13423">
        <ele>58.6</ele>
        <time>2011-11-13T10:28:21Z</time>
      </trkpt>
      <trkpt lat="47.4034" lon="-2.13433">
        <ele>58.3</ele>
        <time>2011-11-13T10:28:22Z</time>
      </trkpt>
      <trkpt lat="47.40337" lon="-2.13445">
        <ele>59.4</ele>
        <time>2011-11-13T10:28:24Z</time>
      </trkpt>
      <trkpt lat="47.40338" lon="-2.13456">
        <ele>59.2</ele>
        <time>2011-11-13T10:28:26Z</time>
      </trkpt>
      <trkpt lat="47.40339" lon="-2.13466">
        <ele>58.7</ele>
        <time>2011-11-13T10:28:27Z</time>
      </trkpt>
      <trkpt lat="47.40334" lon="-2.13473">
        <ele>58.4</ele>
        <time>2011-11-13T10:28:28Z</time>
      </trkpt>
      <trkpt lat="47.40334" lon="-2.13485">
        <ele>58.8</ele>
        <time>2011-11-13T10:28:29Z</time>
      </trkpt>
      <trkpt lat="47.40333" lon="-2.13496">
        <ele>58.4</ele>
        <time>2011-11-13T10:28:30Z</time>
      </trkpt>
      <trkpt lat="47.40334" lon="-2.13507">
        <ele>58.5</ele>
        <time>2011-11-13T10:28:31Z</time>
      </trkpt>
      <trkpt lat="47.4032" lon="-2.13522">
        <ele>58.2</ele>
        <time>2011-11-13T10:28:32Z</time>
      </trkpt>
      <trkpt lat="47.40314" lon="-2.13533">
        <ele>57.9</ele>
        <time>2011-11-13T10:28:33Z</time>
      </trkpt>
      <trkpt lat="47.40314" lon="-2.13544">
        <ele>57.8</ele>
        <time>2011-11-13T10:28:34Z</time>
      </trkpt>
      <trkpt lat="47.40311" lon="-2.13555">
        <ele>57.2</ele>
        <time>2011-11-13T10:28:35Z</time>
      </trkpt>
      <trkpt lat="47.40307" lon="-2.13566">
        <ele>56.7</ele>
        <time>2011-11-13T10:28:36Z</time>
      </trkpt>
      <trkpt lat="47.40302" lon="-2.13576">
        <ele>56.8</ele>
        <time>2011-11-13T10:28:37Z</time>
      </trkpt>
      <trkpt lat="47.40295" lon="-2.13584">
        <ele>57.7</ele>
        <time>2011-11-13T10:28:38Z</time>
      </trkpt>
      <trkpt lat="47.40289" lon="-2.13587">
        <ele>57.6</ele>
        <time>2011-11-13T10:28:39Z</time>
      </trkpt>
      <trkpt lat="47.40282" lon="-2.13595">
        <ele>59.2</ele>
        <time>2011-11-13T10:28:40Z</time>
      </trkpt>
      <trkpt lat="47.40276" lon="-2.13603">
        <ele>59.4</ele>
        <time>2011-11-13T10:28:41Z</time>
      </trkpt>
      <trkpt lat="47.40268" lon="-2.1361">
        <ele>59.4</ele>
        <time>2011-11-13T10:28:42Z</time>
      </trkpt>
      <trkpt lat="47.40262" lon="-2.13615">
        <ele>59.9</ele>
        <time>2011-11-13T10:28:43Z</time>
      </trkpt>
      <trkpt lat="47.40259" lon="-2.13623">
        <ele>60.4</ele>
        <time>2011-11-13T10:28:44Z</time>
      </trkpt>
      <trkpt lat="47.40254" lon="-2.13631">
        <ele>60.7</ele>
        <time>2011-11-13T10:28:45Z</time>
      </trkpt>
      <trkpt lat="47.40248" lon="-2.13637">
        <ele>61</ele>
        <time>2011-11-13T10:28:46Z</time>
      </trkpt>
      <trkpt lat="47.40244" lon="-2.13644">
        <ele>60.4</ele>
        <time>2011-11-13T10:28:47Z</time>
      </trkpt>
      <trkpt lat="47.40241" lon="-2.13649">
        <ele>61.1</ele>
        <time>2011-11-13T10:28:48Z</time>
      </trkpt>
      <trkpt lat="47.40236" lon="-2.13653">
        <ele>60.5</ele>
        <time>2011-11-13T10:28:49Z</time>
      </trkpt>
      <trkpt lat="47.40233" lon="-2.1366">
        <ele>59.4</ele>
        <time>2011-11-13T10:28:50Z</time>
      </trkpt>
      <trkpt lat="47.40231" lon="-2.13668">
        <ele>58.2</ele>
        <time>2011-11-13T10:28:51Z</time>
      </trkpt>
      <trkpt lat="47.40226" lon="-2.13672">
        <ele>57.6</ele>
        <time>2011-11-13T10:28:52Z</time>
      </trkpt>
      <trkpt lat="47.40218" lon="-2.13686">
        <ele>57.5</ele>
        <time>2011-11-13T10:28:54Z</time>
      </trkpt>
      <trkpt lat="47.40214" lon="-2.13693">
        <ele>57.1</ele>
        <time>2011-11-13T10:28:55Z</time>
      </trkpt>
      <trkpt lat="47.40214" lon="-2.137">
        <ele>57.5</ele>
        <time>2011-11-13T10:28:56Z</time>
      </trkpt>
      <trkpt lat="47.40209" lon="-2.13703">
        <ele>55.7</ele>
        <time>2011-11-13T10:28:57Z</time>
      </trkpt>
      <trkpt lat="47.40206" lon="-2.13711">
        <ele>55.8</ele>
        <time>2011-11-13T10:28:58Z</time>
      </trkpt>
      <trkpt lat="47.40197" lon="-2.1372">
        <ele>55.6</ele>
        <time>2011-11-13T10:28:59Z</time>
      </trkpt>
      <trkpt lat="47.40194" lon="-2.13726">
        <ele>55.5</ele>
        <time>2011-11-13T10:29:00Z</time>
      </trkpt>
      <trkpt lat="47.40192" lon="-2.13733">
        <ele>55.2</ele>
        <time>2011-11-13T10:29:01Z</time>
      </trkpt>
      <trkpt lat="47.40189" lon="-2.13746">
        <ele>56.8</ele>
        <time>2011-11-13T10:29:03Z</time>
      </trkpt>
      <trkpt lat="47.40185" lon="-2.13752">
        <ele>57</ele>
        <time>2011-11-13T10:29:04Z</time>
      </trkpt>
      <trkpt lat="47.4018" lon="-2.13758">
        <ele>58</ele>
        <time>2011-11-13T10:29:05Z</time>
      </trkpt>
      <trkpt lat="47.40179" lon="-2.13766">
        <ele>56.9</ele>
        <time>2011-11-13T10:29:06Z</time>
      </trkpt>
      <trkpt lat="47.40173" lon="-2.13774">
        <ele>56.6</ele>
        <time>2011-11-13T10:29:07Z</time>
      </trkpt>
      <trkpt lat="47.4017" lon="-2.13783">
        <ele>55.6</ele>
        <time>2011-11-13T10:29:08Z</time>
      </trkpt>
      <trkpt lat="47.40164" lon="-2.13788">
        <ele>55.7</ele>
        <time>2011-11-13T10:29:09Z</time>
      </trkpt>
      <trkpt lat="47.40166" lon="-2.13794">
        <ele>56.3</ele>
        <time>2011-11-13T10:29:10Z</time>
      </trkpt>
      <trkpt lat="47.40162" lon="-2.138">
        <ele>57.2</ele>
        <time>2011-11-13T10:29:11Z</time>
      </trkpt>
      <trkpt lat="47.40157" lon="-2.13809">
        <ele>56.2</ele>
        <time>2011-11-13T10:29:12Z</time>
      </trkpt>
      <trkpt lat="47.40154" lon="-2.1382">
        <ele>54.6</ele>
        <time>2011-11-13T10:29:14Z</time>
      </trkpt>
      <trkpt lat="47.4015" lon="-2.13828">
        <ele>53.1</ele>
        <time>2011-11-13T10:29:15Z</time>
      </trkpt>
      <trkpt lat="47.40144" lon="-2.13838">
        <ele>52.9</ele>
        <time>2011-11-13T10:29:16Z</time>
      </trkpt>
      <trkpt lat="47.40137" lon="-2.13848">
        <ele>52.4</ele>
        <time>2011-11-13T10:29:17Z</time>
      </trkpt>
      <trkpt lat="47.4014" lon="-2.13858">
        <ele>53</ele>
        <time>2011-11-13T10:29:19Z</time>
      </trkpt>
      <trkpt lat="47.40143" lon="-2.13863">
        <ele>51.7</ele>
        <time>2011-11-13T10:29:20Z</time>
      </trkpt>
      <trkpt lat="47.40146" lon="-2.13868">
        <ele>52.1</ele>
        <time>2011-11-13T10:29:21Z</time>
      </trkpt>
      <trkpt lat="47.40153" lon="-2.13872">
        <ele>51.5</ele>
        <time>2011-11-13T10:29:22Z</time>
      </trkpt>
      <trkpt lat="47.40159" lon="-2.13877">
        <ele>53.1</ele>
        <time>2011-11-13T10:29:23Z</time>
      </trkpt>
      <trkpt lat="47.40165" lon="-2.13881">
        <ele>52.6</ele>
        <time>2011-11-13T10:29:24Z</time>
      </trkpt>
      <trkpt lat="47.40171" lon="-2.13888">
        <ele>52.5</ele>
        <time>2011-11-13T10:29:25Z</time>
      </trkpt>
      <trkpt lat="47.40176" lon="-2.13896">
        <ele>51.4</ele>
        <time>2011-11-13T10:29:26Z</time>
      </trkpt>
      <trkpt lat="47.4018" lon="-2.13898">
        <ele>50.6</ele>
        <time>2011-11-13T10:29:27Z</time>
      </trkpt>
      <trkpt lat="47.40186" lon="-2.13902">
        <ele>51.6</ele>
        <time>2011-11-13T10:29:28Z</time>
      </trkpt>
      <trkpt lat="47.40193" lon="-2.13914">
        <ele>50.6</ele>
        <time>2011-11-13T10:29:30Z</time>
      </trkpt>
      <trkpt lat="47.40199" lon="-2.13919">
        <ele>48.6</ele>
        <time>2011-11-13T10:29:31Z</time>
      </trkpt>
      <trkpt lat="47.40205" lon="-2.13922">
        <ele>48.6</ele>
        <time>2011-11-13T10:29:32Z</time>
      </trkpt>
      <trkpt lat="47.40211" lon="-2.13929">
        <ele>48.4</ele>
        <time>2011-11-13T10:29:33Z</time>
      </trkpt>
      <trkpt lat="47.40214" lon="-2.13934">
        <ele>48.2</ele>
        <time>2011-11-13T10:29:34Z</time>
      </trkpt>
      <trkpt lat="47.40219" lon="-2.1394">
        <ele>48.2</ele>
        <time>2011-11-13T10:29:35Z</time>
      </trkpt>
      <trkpt lat="47.40224" lon="-2.13945">
        <ele>47.4</ele>
        <time>2011-11-13T10:29:36Z</time>
      </trkpt>
      <trkpt lat="47.4023" lon="-2.13949">
        <ele>47.6</ele>
        <time>2011-11-13T10:29:37Z</time>
      </trkpt>
      <trkpt lat="47.40236" lon="-2.13956">
        <ele>48.2</ele>
        <time>2011-11-13T10:29:38Z</time>
      </trkpt>
      <trkpt lat="47.40241" lon="-2.13964">
        <ele>48.7</ele>
        <time>2011-11-13T10:29:39Z</time>
      </trkpt>
      <trkpt lat="47.40246" lon="-2.13972">
        <ele>49.2</ele>
        <time>2011-11-13T10:29:40Z</time>
      </trkpt>
      <trkpt lat="47.40252" lon="-2.13981">
        <ele>50.1</ele>
        <time>2011-11-13T10:29:41Z</time>
      </trkpt>
      <trkpt lat="47.40257" lon="-2.13986">
        <ele>52</ele>
        <time>2011-11-13T10:29:42Z</time>
      </trkpt>
      <trkpt lat="47.40263" lon="-2.13989">
        <ele>52.5</ele>
        <time>2011-11-13T10:29:43Z</time>
      </trkpt>
      <trkpt lat="47.40267" lon="-2.13993">
        <ele>52.5</ele>
        <time>2011-11-13T10:29:44Z</time>
      </trkpt>
      <trkpt lat="47.4027" lon="-2.13998">
        <ele>52.8</ele>
        <time>2011-11-13T10:29:45Z</time>
      </trkpt>
      <trkpt lat="47.40276" lon="-2.14008">
        <ele>54.4</ele>
        <time>2011-11-13T10:29:47Z</time>
      </trkpt>
      <trkpt lat="47.4028" lon="-2.14014">
        <ele>53.6</ele>
        <time>2011-11-13T10:29:48Z</time>
      </trkpt>
      <trkpt lat="47.40287" lon="-2.14017">
        <ele>53.1</ele>
        <time>2011-11-13T10:29:49Z</time>
      </trkpt>
      <trkpt lat="47.40294" lon="-2.14023">
        <ele>52.7</ele>
        <time>2011-11-13T10:29:50Z</time>
      </trkpt>
      <trkpt lat="47.40297" lon="-2.14029">
        <ele>52.2</ele>
        <time>2011-11-13T10:29:51Z</time>
      </trkpt>
      <trkpt lat="47.40304" lon="-2.14038">
        <ele>51.4</ele>
        <time>2011-11-13T10:29:52Z</time>
      </trkpt>
      <trkpt lat="47.4031" lon="-2.14043">
        <ele>51.7</ele>
        <time>2011-11-13T10:29:53Z</time>
      </trkpt>
      <trkpt lat="47.40315" lon="-2.14045">
        <ele>52</ele>
        <time>2011-11-13T10:29:54Z</time>
      </trkpt>
      <trkpt lat="47.40321" lon="-2.14051">
        <ele>52</ele>
        <time>2011-11-13T10:29:55Z</time>
      </trkpt>
      <trkpt lat="47.40328" lon="-2.14058">
        <ele>52</ele>
        <time>2011-11-13T10:29:56Z</time>
      </trkpt>
      <trkpt lat="47.40332" lon="-2.14064">
        <ele>51.6</ele>
        <time>2011-11-13T10:29:57Z</time>
      </trkpt>
      <trkpt lat="47.40338" lon="-2.14072">
        <ele>51.6</ele>
        <time>2011-11-13T10:29:58Z</time>
      </trkpt>
      <trkpt lat="47.40345" lon="-2.1408">
        <ele>53</ele>
        <time>2011-11-13T10:30:00Z</time>
      </trkpt>
      <trkpt lat="47.40354" lon="-2.14082">
        <ele>53.4</ele>
        <time>2011-11-13T10:30:01Z</time>
      </trkpt>
      <trkpt lat="47.40358" lon="-2.14082">
        <ele>54</ele>
        <time>2011-11-13T10:30:02Z</time>
      </trkpt>
      <trkpt lat="47.40366" lon="-2.14093">
        <ele>53.9</ele>
        <time>2011-11-13T10:30:04Z</time>
      </trkpt>
      <trkpt lat="47.4037" lon="-2.14099">
        <ele>54.2</ele>
        <time>2011-11-13T10:30:05Z</time>
      </trkpt>
      <trkpt lat="47.40376" lon="-2.14101">
        <ele>53.8</ele>
        <time>2011-11-13T10:30:06Z</time>
      </trkpt>
      <trkpt lat="47.4038" lon="-2.14108">
        <ele>53.3</ele>
        <time>2011-11-13T10:30:07Z</time>
      </trkpt>
      <trkpt lat="47.40385" lon="-2.14111">
        <ele>53.5</ele>
        <time>2011-11-13T10:30:08Z</time>
      </trkpt>
      <trkpt lat="47.4039" lon="-2.14115">
        <ele>53.6</ele>
        <time>2011-11-13T10:30:09Z</time>
      </trkpt>
      <trkpt lat="47.40396" lon="-2.1412">
        <ele>53.6</ele>
        <time>2011-11-13T10:30:10Z</time>
      </trkpt>
      <trkpt lat="47.40402" lon="-2.14121">
        <ele>53.5</ele>
        <time>2011-11-13T10:30:11Z</time>
      </trkpt>
      <trkpt lat="47.4041" lon="-2.1412">
        <ele>53.6</ele>
        <time>2011-11-13T10:30:12Z</time>
      </trkpt>
      <trkpt lat="47.40415" lon="-2.14124">
        <ele>53.6</ele>
        <time>2011-11-13T10:30:13Z</time>
      </trkpt>
      <trkpt lat="47.40418" lon="-2.14134">
        <ele>53.9</ele>
        <time>2011-11-13T10:30:14Z</time>
      </trkpt>
      <trkpt lat="47.40423" lon="-2.1414">
        <ele>53.6</ele>
        <time>2011-11-13T10:30:15Z</time>
      </trkpt>
      <trkpt lat="47.40429" lon="-2.14146">
        <ele>53.1</ele>
        <time>2011-11-13T10:30:16Z</time>
      </trkpt>
      <trkpt lat="47.40434" lon="-2.14152">
        <ele>52.4</ele>
        <time>2011-11-13T10:30:17Z</time>
      </trkpt>
      <trkpt lat="47.40438" lon="-2.14157">
        <ele>52.4</ele>
        <time>2011-11-13T10:30:18Z</time>
      </trkpt>
      <trkpt lat="47.40441" lon="-2.14166">
        <ele>51.8</ele>
        <time>2011-11-13T10:30:19Z</time>
      </trkpt>
      <trkpt lat="47.40446" lon="-2.14171">
        <ele>51.9</ele>
        <time>2011-11-13T10:30:20Z</time>
      </trkpt>
      <trkpt lat="47.4045" lon="-2.1418">
        <ele>51.7</ele>
        <time>2011-11-13T10:30:21Z</time>
      </trkpt>
      <trkpt lat="47.40454" lon="-2.14185">
        <ele>51.6</ele>
        <time>2011-11-13T10:30:22Z</time>
      </trkpt>
      <trkpt lat="47.40458" lon="-2.14188">
        <ele>53.1</ele>
        <time>2011-11-13T10:30:23Z</time>
      </trkpt>
      <trkpt lat="47.40463" lon="-2.14194">
        <ele>53.3</ele>
        <time>2011-11-13T10:30:24Z</time>
      </trkpt>
      <trkpt lat="47.40471" lon="-2.14196">
        <ele>53.5</ele>
        <time>2011-11-13T10:30:25Z</time>
      </trkpt>
      <trkpt lat="47.40478" lon="-2.142">
        <ele>53.3</ele>
        <time>2011-11-13T10:30:26Z</time>
      </trkpt>
      <trkpt lat="47.40483" lon="-2.14204">
        <ele>54.2</ele>
        <time>2011-11-13T10:30:27Z</time>
      </trkpt>
      <trkpt lat="47.40487" lon="-2.1421">
        <ele>54.6</ele>
        <time>2011-11-13T10:30:28Z</time>
      </trkpt>
      <trkpt lat="47.40493" lon="-2.14211">
        <ele>54.1</ele>
        <time>2011-11-13T10:30:29Z</time>
      </trkpt>
      <trkpt lat="47.40496" lon="-2.1422">
        <ele>54.6</ele>
        <time>2011-11-13T10:30:30Z</time>
      </trkpt>
      <trkpt lat="47.40504" lon="-2.14222">
        <ele>53.9</ele>
        <time>2011-11-13T10:30:31Z</time>
      </trkpt>
      <trkpt lat="47.4051" lon="-2.14224">
        <ele>54.2</ele>
        <time>2011-11-13T10:30:32Z</time>
      </trkpt>
      <trkpt lat="47.40515" lon="-2.14229">
        <ele>54.1</ele>
        <time>2011-11-13T10:30:33Z</time>
      </trkpt>
      <trkpt lat="47.4052" lon="-2.14233">
        <ele>53.3</ele>
        <time>2011-11-13T10:30:34Z</time>
      </trkpt>
      <trkpt lat="47.4053" lon="-2.14244">
        <ele>54.4</ele>
        <time>2011-11-13T10:30:36Z</time>
      </trkpt>
      <trkpt lat="47.40536" lon="-2.14248">
        <ele>53.4</ele>
        <time>2011-11-13T10:30:37Z</time>
      </trkpt>
      <trkpt lat="47.40542" lon="-2.14254">
        <ele>52</ele>
        <time>2011-11-13T10:30:38Z</time>
      </trkpt>
      <trkpt lat="47.40547" lon="-2.1426">
        <ele>52.2</ele>
        <time>2011-11-13T10:30:39Z</time>
      </trkpt>
      <trkpt lat="47.4055" lon="-2.14266">
        <ele>53.6</ele>
        <time>2011-11-13T10:30:40Z</time>
      </trkpt>
      <trkpt lat="47.40552" lon="-2.14272">
        <ele>52.9</ele>
        <time>2011-11-13T10:30:41Z</time>
      </trkpt>
      <trkpt lat="47.40557" lon="-2.14281">
        <ele>51.6</ele>
        <time>2011-11-13T10:30:42Z</time>
      </trkpt>
      <trkpt lat="47.4056" lon="-2.14288">
        <ele>50.9</ele>
        <time>2011-11-13T10:30:43Z</time>
      </trkpt>
      <trkpt lat="47.40564" lon="-2.14294">
        <ele>50.5</ele>
        <time>2011-11-13T10:30:44Z</time>
      </trkpt>
      <trkpt lat="47.40572" lon="-2.143">
        <ele>50.7</ele>
        <time>2011-11-13T10:30:45Z</time>
      </trkpt>
      <trkpt lat="47.4058" lon="-2.14304">
        <ele>51.3</ele>
        <time>2011-11-13T10:30:46Z</time>
      </trkpt>
      <trkpt lat="47.40582" lon="-2.14318">
        <ele>50.3</ele>
        <time>2011-11-13T10:30:48Z</time>
      </trkpt>
      <trkpt lat="47.4058" lon="-2.14326">
        <ele>51.1</ele>
        <time>2011-11-13T10:30:49Z</time>
      </trkpt>
      <trkpt lat="47.4058" lon="-2.14334">
        <ele>50.7</ele>
        <time>2011-11-13T10:30:50Z</time>
      </trkpt>
      <trkpt lat="47.40581" lon="-2.14342">
        <ele>50.9</ele>
        <time>2011-11-13T10:30:53Z</time>
      </trkpt>
      <trkpt lat="47.40576" lon="-2.14347">
        <ele>52.3</ele>
        <time>2011-11-13T10:30:55Z</time>
      </trkpt>
      <trkpt lat="47.40582" lon="-2.14357">
        <ele>53.7</ele>
        <time>2011-11-13T10:31:00Z</time>
      </trkpt>
      <trkpt lat="47.4058" lon="-2.14362">
        <ele>54.1</ele>
        <time>2011-11-13T10:31:02Z</time>
      </trkpt>
      <trkpt lat="47.40575" lon="-2.14369">
        <ele>55.2</ele>
        <time>2011-11-13T10:31:07Z</time>
      </trkpt>
      <trkpt lat="47.40567" lon="-2.14382">
        <ele>59.3</ele>
        <time>2011-11-13T10:31:09Z</time>
      </trkpt>
      <trkpt lat="47.40574" lon="-2.1438">
        <ele>62.5</ele>
        <time>2011-11-13T10:31:17Z</time>
      </trkpt>
      <trkpt lat="47.40578" lon="-2.14379">
        <ele>62.8</ele>
        <time>2011-11-13T10:31:18Z</time>
      </trkpt>
      <trkpt lat="47.40584" lon="-2.14375">
        <ele>63.8</ele>
        <time>2011-11-13T10:31:19Z</time>
      </trkpt>
      <trkpt lat="47.40583" lon="-2.14382">
        <ele>66.2</ele>
        <time>2011-11-13T10:31:22Z</time>
      </trkpt>
      <trkpt lat="47.4058" lon="-2.1439">
        <ele>65.9</ele>
        <time>2011-11-13T10:31:24Z</time>
      </trkpt>
      <trkpt lat="47.40584" lon="-2.14398">
        <ele>65.5</ele>
        <time>2011-11-13T10:31:27Z</time>
      </trkpt>
      <trkpt lat="47.40588" lon="-2.1439">
        <ele>62.8</ele>
        <time>2011-11-13T10:31:32Z</time>
      </trkpt>
      <trkpt lat="47.40594" lon="-2.14391">
        <ele>62.7</ele>
        <time>2011-11-13T10:31:34Z</time>
      </trkpt>
      <trkpt lat="47.40602" lon="-2.1439">
        <ele>63.3</ele>
        <time>2011-11-13T10:31:37Z</time>
      </trkpt>
      <trkpt lat="47.4061" lon="-2.14392">
        <ele>62.9</ele>
        <time>2011-11-13T10:31:40Z</time>
      </trkpt>
      <trkpt lat="47.40612" lon="-2.14402">
        <ele>62.8</ele>
        <time>2011-11-13T10:31:43Z</time>
      </trkpt>
      <trkpt lat="47.4061" lon="-2.14412">
        <ele>63</ele>
        <time>2011-11-13T10:31:45Z</time>
      </trkpt>
      <trkpt lat="47.40606" lon="-2.14419">
        <ele>63.8</ele>
        <time>2011-11-13T10:31:47Z</time>
      </trkpt>
      <trkpt lat="47.40605" lon="-2.14432">
        <ele>65.5</ele>
        <time>2011-11-13T10:31:51Z</time>
      </trkpt>
      <trkpt lat="47.40602" lon="-2.14437">
        <ele>66.2</ele>
        <time>2011-11-13T10:31:52Z</time>
      </trkpt>
      <trkpt lat="47.40607" lon="-2.14438">
        <ele>64.4</ele>
        <time>2011-11-13T10:31:59Z</time>
      </trkpt>
      <trkpt lat="47.40614" lon="-2.1443">
        <ele>64.1</ele>
        <time>2011-11-13T10:32:00Z</time>
      </trkpt>
      <trkpt lat="47.40618" lon="-2.14436">
        <ele>65.2</ele>
        <time>2011-11-13T10:32:02Z</time>
      </trkpt>
      <trkpt lat="47.40623" lon="-2.14444">
        <ele>65.5</ele>
        <time>2011-11-13T10:32:05Z</time>
      </trkpt>
      <trkpt lat="47.40622" lon="-2.14453">
        <ele>66</ele>
        <time>2011-11-13T10:32:08Z</time>
      </trkpt>
      <trkpt lat="47.40623" lon="-2.14462">
        <ele>66.4</ele>
        <time>2011-11-13T10:32:10Z</time>
      </trkpt>
      <trkpt lat="47.40623" lon="-2.1447">
        <ele>65.2</ele>
        <time>2011-11-13T10:32:11Z</time>
      </trkpt>
      <trkpt lat="47.40621" lon="-2.1448">
        <ele>65.8</ele>
        <time>2011-11-13T10:32:13Z</time>
      </trkpt>
      <trkpt lat="47.40615" lon="-2.14486">
        <ele>66.9</ele>
        <time>2011-11-13T10:32:16Z</time>
      </trkpt>
      <trkpt lat="47.4061" lon="-2.14494">
        <ele>67.8</ele>
        <time>2011-11-13T10:32:18Z</time>
      </trkpt>
      <trkpt lat="47.40615" lon="-2.14495">
        <ele>68.1</ele>
        <time>2011-11-13T10:32:27Z</time>
      </trkpt>
      <trkpt lat="47.40619" lon="-2.14485">
        <ele>69.4</ele>
        <time>2011-11-13T10:32:29Z</time>
      </trkpt>
      <trkpt lat="47.40619" lon="-2.14477">
        <ele>70.4</ele>
        <time>2011-11-13T10:32:33Z</time>
      </trkpt>
      <trkpt lat="47.4062" lon="-2.14469">
        <ele>71</ele>
        <time>2011-11-13T10:32:36Z</time>
      </trkpt>
      <trkpt lat="47.40623" lon="-2.14461">
        <ele>71.2</ele>
        <time>2011-11-13T10:32:38Z</time>
      </trkpt>
      <trkpt lat="47.40627" lon="-2.14456">
        <ele>68.1</ele>
        <time>2011-11-13T10:32:40Z</time>
      </trkpt>
      <trkpt lat="47.40631" lon="-2.1446">
        <ele>66.2</ele>
        <time>2011-11-13T10:32:43Z</time>
      </trkpt>
      <trkpt lat="47.40632" lon="-2.14467">
        <ele>65.3</ele>
        <time>2011-11-13T10:32:45Z</time>
      </trkpt>
      <trkpt lat="47.40638" lon="-2.1447">
        <ele>64.7</ele>
        <time>2011-11-13T10:32:48Z</time>
      </trkpt>
      <trkpt lat="47.40645" lon="-2.14473">
        <ele>65.2</ele>
        <time>2011-11-13T10:32:53Z</time>
      </trkpt>
      <trkpt lat="47.40648" lon="-2.14489">
        <ele>62.9</ele>
        <time>2011-11-13T10:32:55Z</time>
      </trkpt>
      <trkpt lat="47.40648" lon="-2.14496">
        <ele>63.1</ele>
        <time>2011-11-13T10:32:58Z</time>
      </trkpt>
      <trkpt lat="47.40645" lon="-2.14503">
        <ele>59.9</ele>
        <time>2011-11-13T10:33:01Z</time>
      </trkpt>
      <trkpt lat="47.4064" lon="-2.14508">
        <ele>60.4</ele>
        <time>2011-11-13T10:33:06Z</time>
      </trkpt>
      <trkpt lat="47.40645" lon="-2.14508">
        <ele>60.9</ele>
        <time>2011-11-13T10:33:10Z</time>
      </trkpt>
      <trkpt lat="47.40649" lon="-2.14498">
        <ele>65.1</ele>
        <time>2011-11-13T10:33:12Z</time>
      </trkpt>
      <trkpt lat="47.40654" lon="-2.14496">
        <ele>64.1</ele>
        <time>2011-11-13T10:33:14Z</time>
      </trkpt>
      <trkpt lat="47.40655" lon="-2.14505">
        <ele>66.1</ele>
        <time>2011-11-13T10:33:18Z</time>
      </trkpt>
      <trkpt lat="47.40654" lon="-2.14513">
        <ele>72.7</ele>
        <time>2011-11-13T10:33:21Z</time>
      </trkpt>
      <trkpt lat="47.40653" lon="-2.1452">
        <ele>71.5</ele>
        <time>2011-11-13T10:33:23Z</time>
      </trkpt>
      <trkpt lat="47.4065" lon="-2.14526">
        <ele>70.3</ele>
        <time>2011-11-13T10:33:26Z</time>
      </trkpt>
      <trkpt lat="47.4065" lon="-2.14535">
        <ele>68.7</ele>
        <time>2011-11-13T10:33:32Z</time>
      </trkpt>
      <trkpt lat="47.40655" lon="-2.1453">
        <ele>69.1</ele>
        <time>2011-11-13T10:33:35Z</time>
      </trkpt>
      <trkpt lat="47.40661" lon="-2.14528">
        <ele>69.3</ele>
        <time>2011-11-13T10:33:39Z</time>
      </trkpt>
      <trkpt lat="47.40665" lon="-2.1453">
        <ele>70.2</ele>
        <time>2011-11-13T10:33:42Z</time>
      </trkpt>
      <trkpt lat="47.40669" lon="-2.14539">
        <ele>68.4</ele>
        <time>2011-11-13T10:33:44Z</time>
      </trkpt>
      <trkpt lat="47.40672" lon="-2.14548">
        <ele>65.4</ele>
        <time>2011-11-13T10:33:48Z</time>
      </trkpt>
      <trkpt lat="47.4067" lon="-2.14555">
        <ele>65.8</ele>
        <time>2011-11-13T10:33:50Z</time>
      </trkpt>
      <trkpt lat="47.40667" lon="-2.14562">
        <ele>66.1</ele>
        <time>2011-11-13T10:33:53Z</time>
      </trkpt>
      <trkpt lat="47.40664" lon="-2.14572">
        <ele>64.9</ele>
        <time>2011-11-13T10:33:55Z</time>
      </trkpt>
      <trkpt lat="47.40658" lon="-2.14578">
        <ele>66.2</ele>
        <time>2011-11-13T10:33:58Z</time>
      </trkpt>
      <trkpt lat="47.4065" lon="-2.14582">
        <ele>64.2</ele>
        <time>2011-11-13T10:34:01Z</time>
      </trkpt>
      <trkpt lat="47.40643" lon="-2.14581">
        <ele>62.6</ele>
        <time>2011-11-13T10:34:04Z</time>
      </trkpt>
      <trkpt lat="47.40641" lon="-2.14572">
        <ele>61.7</ele>
        <time>2011-11-13T10:34:07Z</time>
      </trkpt>
      <trkpt lat="47.4064" lon="-2.14566">
        <ele>60.4</ele>
        <time>2011-11-13T10:34:13Z</time>
      </trkpt>
      <trkpt lat="47.40635" lon="-2.14563">
        <ele>62</ele>
        <time>2011-11-13T10:34:15Z</time>
      </trkpt>
      <trkpt lat="47.40635" lon="-2.14556">
        <ele>60.8</ele>
        <time>2011-11-13T10:34:23Z</time>
      </trkpt>
      <trkpt lat="47.40629" lon="-2.1455">
        <ele>63.1</ele>
        <time>2011-11-13T10:34:28Z</time>
      </trkpt>
      <trkpt lat="47.40629" lon="-2.14542">
        <ele>61.5</ele>
        <time>2011-11-13T10:34:29Z</time>
      </trkpt>
      <trkpt lat="47.40627" lon="-2.14536">
        <ele>59.2</ele>
        <time>2011-11-13T10:34:32Z</time>
      </trkpt>
      <trkpt lat="47.40628" lon="-2.14545">
        <ele>61.4</ele>
        <time>2011-11-13T10:34:37Z</time>
      </trkpt>
      <trkpt lat="47.40626" lon="-2.14557">
        <ele>62.7</ele>
        <time>2011-11-13T10:34:41Z</time>
      </trkpt>
      <trkpt lat="47.40621" lon="-2.1457">
        <ele>59.2</ele>
        <time>2011-11-13T10:34:42Z</time>
      </trkpt>
      <trkpt lat="47.40612" lon="-2.14565">
        <ele>60.3</ele>
        <time>2011-11-13T10:34:44Z</time>
      </trkpt>
      <trkpt lat="47.40612" lon="-2.14555">
        <ele>59</ele>
        <time>2011-11-13T10:34:47Z</time>
      </trkpt>
      <trkpt lat="47.40611" lon="-2.14545">
        <ele>61.5</ele>
        <time>2011-11-13T10:34:50Z</time>
      </trkpt>
      <trkpt lat="47.40608" lon="-2.14538">
        <ele>62</ele>
        <time>2011-11-13T10:34:52Z</time>
      </trkpt>
      <trkpt lat="47.40606" lon="-2.14529">
        <ele>61.5</ele>
        <time>2011-11-13T10:34:55Z</time>
      </trkpt>
      <trkpt lat="47.40598" lon="-2.14537">
        <ele>58.1</ele>
        <time>2011-11-13T10:34:57Z</time>
      </trkpt>
      <trkpt lat="47.40593" lon="-2.14532">
        <ele>56.9</ele>
        <time>2011-11-13T10:35:00Z</time>
      </trkpt>
      <trkpt lat="47.40589" lon="-2.14526">
        <ele>56.9</ele>
        <time>2011-11-13T10:35:02Z</time>
      </trkpt>
      <trkpt lat="47.4059" lon="-2.14517">
        <ele>57.9</ele>
        <time>2011-11-13T10:35:04Z</time>
      </trkpt>
      <trkpt lat="47.40592" lon="-2.1451">
        <ele>56.9</ele>
        <time>2011-11-13T10:35:05Z</time>
      </trkpt>
      <trkpt lat="47.40594" lon="-2.14502">
        <ele>56.7</ele>
        <time>2011-11-13T10:35:06Z</time>
      </trkpt>
      <trkpt lat="47.40593" lon="-2.14495">
        <ele>57.3</ele>
        <time>2011-11-13T10:35:08Z</time>
      </trkpt>
      <trkpt lat="47.40595" lon="-2.14488">
        <ele>54.6</ele>
        <time>2011-11-13T10:35:13Z</time>
      </trkpt>
      <trkpt lat="47.40595" lon="-2.14495">
        <ele>56.6</ele>
        <time>2011-11-13T10:35:15Z</time>
      </trkpt>
      <trkpt lat="47.40587" lon="-2.14498">
        <ele>57.4</ele>
        <time>2011-11-13T10:35:17Z</time>
      </trkpt>
      <trkpt lat="47.40582" lon="-2.14502">
        <ele>58.8</ele>
        <time>2011-11-13T10:35:20Z</time>
      </trkpt>
      <trkpt lat="47.40573" lon="-2.14506">
        <ele>59.2</ele>
        <time>2011-11-13T10:35:22Z</time>
      </trkpt>
      <trkpt lat="47.40568" lon="-2.14498">
        <ele>56</ele>
        <time>2011-11-13T10:35:25Z</time>
      </trkpt>
      <trkpt lat="47.40571" lon="-2.14489">
        <ele>55.1</ele>
        <time>2011-11-13T10:35:27Z</time>
      </trkpt>
      <trkpt lat="47.40577" lon="-2.14482">
        <ele>57</ele>
        <time>2011-11-13T10:35:29Z</time>
      </trkpt>
      <trkpt lat="47.4058" lon="-2.14468">
        <ele>56.9</ele>
        <time>2011-11-13T10:35:31Z</time>
      </trkpt>
      <trkpt lat="47.40583" lon="-2.14456">
        <ele>58.3</ele>
        <time>2011-11-13T10:35:34Z</time>
      </trkpt>
      <trkpt lat="47.40588" lon="-2.14448">
        <ele>58.8</ele>
        <time>2011-11-13T10:35:35Z</time>
      </trkpt>
      <trkpt lat="47.40592" lon="-2.14442">
        <ele>59.4</ele>
        <time>2011-11-13T10:35:37Z</time>
      </trkpt>
      <trkpt lat="47.40585" lon="-2.14439">
        <ele>64.9</ele>
        <time>2011-11-13T10:35:44Z</time>
      </trkpt>
      <trkpt lat="47.40579" lon="-2.14446">
        <ele>69.3</ele>
        <time>2011-11-13T10:35:49Z</time>
      </trkpt>
      <trkpt lat="47.40577" lon="-2.14454">
        <ele>72</ele>
        <time>2011-11-13T10:35:53Z</time>
      </trkpt>
      <trkpt lat="47.40577" lon="-2.14462">
        <ele>71.2</ele>
        <time>2011-11-13T10:35:54Z</time>
      </trkpt>
      <trkpt lat="47.40573" lon="-2.14465">
        <ele>70.2</ele>
        <time>2011-11-13T10:35:55Z</time>
      </trkpt>
      <trkpt lat="47.40556" lon="-2.1447">
        <ele>67.2</ele>
        <time>2011-11-13T10:35:56Z</time>
      </trkpt>
      <trkpt lat="47.40552" lon="-2.14467">
        <ele>67.4</ele>
        <time>2011-11-13T10:36:01Z</time>
      </trkpt>
      <trkpt lat="47.40544" lon="-2.1446">
        <ele>63.2</ele>
        <time>2011-11-13T10:36:05Z</time>
      </trkpt>
      <trkpt lat="47.4054" lon="-2.14457">
        <ele>62.9</ele>
        <time>2011-11-13T10:36:06Z</time>
      </trkpt>
      <trkpt lat="47.40534" lon="-2.14453">
        <ele>65.4</ele>
        <time>2011-11-13T10:36:08Z</time>
      </trkpt>
      <trkpt lat="47.4053" lon="-2.14451">
        <ele>66.2</ele>
        <time>2011-11-13T10:36:09Z</time>
      </trkpt>
      <trkpt lat="47.40533" lon="-2.14446">
        <ele>67.1</ele>
        <time>2011-11-13T10:36:10Z</time>
      </trkpt>
      <trkpt lat="47.40538" lon="-2.1444">
        <ele>67.4</ele>
        <time>2011-11-13T10:36:12Z</time>
      </trkpt>
      <trkpt lat="47.40544" lon="-2.14434">
        <ele>64.8</ele>
        <time>2011-11-13T10:36:15Z</time>
      </trkpt>
      <trkpt lat="47.40551" lon="-2.1443">
        <ele>64.7</ele>
        <time>2011-11-13T10:36:16Z</time>
      </trkpt>
      <trkpt lat="47.40556" lon="-2.14427">
        <ele>64.1</ele>
        <time>2011-11-13T10:36:17Z</time>
      </trkpt>
      <trkpt lat="47.4056" lon="-2.1442">
        <ele>64.9</ele>
        <time>2011-11-13T10:36:19Z</time>
      </trkpt>
      <trkpt lat="47.40556" lon="-2.14415">
        <ele>66.1</ele>
        <time>2011-11-13T10:36:21Z</time>
      </trkpt>
      <trkpt lat="47.40561" lon="-2.1441">
        <ele>69.2</ele>
        <time>2011-11-13T10:36:25Z</time>
      </trkpt>
      <trkpt lat="47.4056" lon="-2.14416">
        <ele>68.9</ele>
        <time>2011-11-13T10:36:30Z</time>
      </trkpt>
      <trkpt lat="47.40555" lon="-2.1442">
        <ele>68.9</ele>
        <time>2011-11-13T10:36:33Z</time>
      </trkpt>
      <trkpt lat="47.40549" lon="-2.14422">
        <ele>70.8</ele>
        <time>2011-11-13T10:36:35Z</time>
      </trkpt>
      <trkpt lat="47.40547" lon="-2.14429">
        <ele>69.6</ele>
        <time>2011-11-13T10:36:37Z</time>
      </trkpt>
      <trkpt lat="47.4054" lon="-2.14438">
        <ele>63.2</ele>
        <time>2011-11-13T10:36:39Z</time>
      </trkpt>
      <trkpt lat="47.40535" lon="-2.14436">
        <ele>63.9</ele>
        <time>2011-11-13T10:36:41Z</time>
      </trkpt>
      <trkpt lat="47.40531" lon="-2.14434">
        <ele>64.9</ele>
        <time>2011-11-13T10:36:43Z</time>
      </trkpt>
      <trkpt lat="47.40526" lon="-2.14433">
        <ele>64.1</ele>
        <time>2011-11-13T10:36:44Z</time>
      </trkpt>
      <trkpt lat="47.40519" lon="-2.14435">
        <ele>67.3</ele>
        <time>2011-11-13T10:36:46Z</time>
      </trkpt>
      <trkpt lat="47.40512" lon="-2.14437">
        <ele>68</ele>
        <time>2011-11-13T10:36:47Z</time>
      </trkpt>
      <trkpt lat="47.40505" lon="-2.14443">
        <ele>66.9</ele>
        <time>2011-11-13T10:36:49Z</time>
      </trkpt>
      <trkpt lat="47.40502" lon="-2.14448">
        <ele>68.2</ele>
        <time>2011-11-13T10:36:51Z</time>
      </trkpt>
      <trkpt lat="47.40493" lon="-2.14454">
        <ele>68.7</ele>
        <time>2011-11-13T10:36:52Z</time>
      </trkpt>
      <trkpt lat="47.40487" lon="-2.14456">
        <ele>68.6</ele>
        <time>2011-11-13T10:36:53Z</time>
      </trkpt>
      <trkpt lat="47.40481" lon="-2.14461">
        <ele>67.7</ele>
        <time>2011-11-13T10:36:54Z</time>
      </trkpt>
      <trkpt lat="47.40477" lon="-2.14465">
        <ele>62.6</ele>
        <time>2011-11-13T10:36:57Z</time>
      </trkpt>
      <trkpt lat="47.40472" lon="-2.14468">
        <ele>62.7</ele>
        <time>2011-11-13T10:36:58Z</time>
      </trkpt>
      <trkpt lat="47.40466" lon="-2.14477">
        <ele>61.4</ele>
        <time>2011-11-13T10:37:01Z</time>
      </trkpt>
      <trkpt lat="47.40461" lon="-2.14481">
        <ele>59.5</ele>
        <time>2011-11-13T10:37:02Z</time>
      </trkpt>
      <trkpt lat="47.40455" lon="-2.14486">
        <ele>60</ele>
        <time>2011-11-13T10:37:04Z</time>
      </trkpt>
      <trkpt lat="47.40452" lon="-2.14493">
        <ele>61.6</ele>
        <time>2011-11-13T10:37:06Z</time>
      </trkpt>
      <trkpt lat="47.4045" lon="-2.14504">
        <ele>62.4</ele>
        <time>2011-11-13T10:37:08Z</time>
      </trkpt>
      <trkpt lat="47.40444" lon="-2.14507">
        <ele>61.2</ele>
        <time>2011-11-13T10:37:09Z</time>
      </trkpt>
      <trkpt lat="47.4044" lon="-2.14513">
        <ele>61.2</ele>
        <time>2011-11-13T10:37:12Z</time>
      </trkpt>
      <trkpt lat="47.40434" lon="-2.14518">
        <ele>60.8</ele>
        <time>2011-11-13T10:37:14Z</time>
      </trkpt>
      <trkpt lat="47.40428" lon="-2.14525">
        <ele>62.6</ele>
        <time>2011-11-13T10:37:16Z</time>
      </trkpt>
      <trkpt lat="47.40423" lon="-2.14529">
        <ele>62.9</ele>
        <time>2011-11-13T10:37:19Z</time>
      </trkpt>
      <trkpt lat="47.40418" lon="-2.14538">
        <ele>63.3</ele>
        <time>2011-11-13T10:37:22Z</time>
      </trkpt>
      <trkpt lat="47.40414" lon="-2.14542">
        <ele>64.9</ele>
        <time>2011-11-13T10:37:24Z</time>
      </trkpt>
      <trkpt lat="47.40409" lon="-2.14547">
        <ele>66.2</ele>
        <time>2011-11-13T10:37:26Z</time>
      </trkpt>
      <trkpt lat="47.40404" lon="-2.14552">
        <ele>66.4</ele>
        <time>2011-11-13T10:37:28Z</time>
      </trkpt>
      <trkpt lat="47.40399" lon="-2.14557">
        <ele>66.8</ele>
        <time>2011-11-13T10:37:30Z</time>
      </trkpt>
      <trkpt lat="47.40392" lon="-2.14564">
        <ele>66.6</ele>
        <time>2011-11-13T10:37:32Z</time>
      </trkpt>
      <trkpt lat="47.40387" lon="-2.14568">
        <ele>65.5</ele>
        <time>2011-11-13T10:37:34Z</time>
      </trkpt>
      <trkpt lat="47.40381" lon="-2.14573">
        <ele>66.8</ele>
        <time>2011-11-13T10:37:36Z</time>
      </trkpt>
      <trkpt lat="47.40377" lon="-2.14579">
        <ele>67.4</ele>
        <time>2011-11-13T10:37:38Z</time>
      </trkpt>
      <trkpt lat="47.40372" lon="-2.14584">
        <ele>68.3</ele>
        <time>2011-11-13T10:37:41Z</time>
      </trkpt>
      <trkpt lat="47.40366" lon="-2.14589">
        <ele>66.6</ele>
        <time>2011-11-13T10:37:43Z</time>
      </trkpt>
      <trkpt lat="47.4036" lon="-2.14595">
        <ele>66.9</ele>
        <time>2011-11-13T10:37:45Z</time>
      </trkpt>
      <trkpt lat="47.40352" lon="-2.14603">
        <ele>63.7</ele>
        <time>2011-11-13T10:37:48Z</time>
      </trkpt>
      <trkpt lat="47.40347" lon="-2.14608">
        <ele>64.9</ele>
        <time>2011-11-13T10:37:50Z</time>
      </trkpt>
      <trkpt lat="47.40345" lon="-2.14615">
        <ele>65.8</ele>
        <time>2011-11-13T10:37:52Z</time>
      </trkpt>
      <trkpt lat="47.40343" lon="-2.14621">
        <ele>64.5</ele>
        <time>2011-11-13T10:37:54Z</time>
      </trkpt>
      <trkpt lat="47.40339" lon="-2.14624">
        <ele>64.9</ele>
        <time>2011-11-13T10:37:55Z</time>
      </trkpt>
      <trkpt lat="47.40334" lon="-2.14628">
        <ele>65.6</ele>
        <time>2011-11-13T10:37:56Z</time>
      </trkpt>
      <trkpt lat="47.4033" lon="-2.1463">
        <ele>65.2</ele>
        <time>2011-11-13T10:37:57Z</time>
      </trkpt>
      <trkpt lat="47.40325" lon="-2.14637">
        <ele>64.7</ele>
        <time>2011-11-13T10:37:59Z</time>
      </trkpt>
      <trkpt lat="47.40319" lon="-2.14643">
        <ele>63.3</ele>
        <time>2011-11-13T10:38:01Z</time>
      </trkpt>
      <trkpt lat="47.40313" lon="-2.14645">
        <ele>63</ele>
        <time>2011-11-13T10:38:02Z</time>
      </trkpt>
      <trkpt lat="47.40306" lon="-2.14654">
        <ele>64</ele>
        <time>2011-11-13T10:38:04Z</time>
      </trkpt>
      <trkpt lat="47.40302" lon="-2.14661">
        <ele>65.3</ele>
        <time>2011-11-13T10:38:06Z</time>
      </trkpt>
      <trkpt lat="47.40297" lon="-2.14668">
        <ele>64.9</ele>
        <time>2011-11-13T10:38:07Z</time>
      </trkpt>
      <trkpt lat="47.40293" lon="-2.14672">
        <ele>65.4</ele>
        <time>2011-11-13T10:38:08Z</time>
      </trkpt>
      <trkpt lat="47.40289" lon="-2.14676">
        <ele>65.5</ele>
        <time>2011-11-13T10:38:09Z</time>
      </trkpt>
      <trkpt lat="47.40282" lon="-2.14684">
        <ele>65.6</ele>
        <time>2011-11-13T10:38:11Z</time>
      </trkpt>
      <trkpt lat="47.40279" lon="-2.14688">
        <ele>66.3</ele>
        <time>2011-11-13T10:38:12Z</time>
      </trkpt>
      <trkpt lat="47.40273" lon="-2.14693">
        <ele>65.7</ele>
        <time>2011-11-13T10:38:13Z</time>
      </trkpt>
      <trkpt lat="47.40268" lon="-2.14699">
        <ele>65</ele>
        <time>2011-11-13T10:38:14Z</time>
      </trkpt>
      <trkpt lat="47.40263" lon="-2.14703">
        <ele>63.4</ele>
        <time>2011-11-13T10:38:15Z</time>
      </trkpt>
      <trkpt lat="47.40262" lon="-2.14711">
        <ele>63.9</ele>
        <time>2011-11-13T10:38:16Z</time>
      </trkpt>
      <trkpt lat="47.40258" lon="-2.14718">
        <ele>61.5</ele>
        <time>2011-11-13T10:38:17Z</time>
      </trkpt>
      <trkpt lat="47.40258" lon="-2.14725">
        <ele>60.6</ele>
        <time>2011-11-13T10:38:18Z</time>
      </trkpt>
      <trkpt lat="47.40258" lon="-2.14732">
        <ele>60.6</ele>
        <time>2011-11-13T10:38:19Z</time>
      </trkpt>
      <trkpt lat="47.40262" lon="-2.1474">
        <ele>60.5</ele>
        <time>2011-11-13T10:38:20Z</time>
      </trkpt>
      <trkpt lat="47.40266" lon="-2.14744">
        <ele>61.3</ele>
        <time>2011-11-13T10:38:21Z</time>
      </trkpt>
      <trkpt lat="47.40269" lon="-2.14753">
        <ele>61.5</ele>
        <time>2011-11-13T10:38:22Z</time>
      </trkpt>
      <trkpt lat="47.40273" lon="-2.14759">
        <ele>61.4</ele>
        <time>2011-11-13T10:38:23Z</time>
      </trkpt>
      <trkpt lat="47.40278" lon="-2.14767">
        <ele>60.4</ele>
        <time>2011-11-13T10:38:24Z</time>
      </trkpt>
      <trkpt lat="47.4028" lon="-2.14773">
        <ele>61.2</ele>
        <time>2011-11-13T10:38:25Z</time>
      </trkpt>
      <trkpt lat="47.40285" lon="-2.14779">
        <ele>62.1</ele>
        <time>2011-11-13T10:38:26Z</time>
      </trkpt>
      <trkpt lat="47.4029" lon="-2.14788">
        <ele>63.3</ele>
        <time>2011-11-13T10:38:27Z</time>
      </trkpt>
      <trkpt lat="47.40297" lon="-2.14797">
        <ele>63.8</ele>
        <time>2011-11-13T10:38:29Z</time>
      </trkpt>
      <trkpt lat="47.40302" lon="-2.14804">
        <ele>64.3</ele>
        <time>2011-11-13T10:38:30Z</time>
      </trkpt>
      <trkpt lat="47.40306" lon="-2.14809">
        <ele>64.3</ele>
        <time>2011-11-13T10:38:31Z</time>
      </trkpt>
      <trkpt lat="47.40314" lon="-2.14825">
        <ele>63</ele>
        <time>2011-11-13T10:38:32Z</time>
      </trkpt>
      <trkpt lat="47.40319" lon="-2.14834">
        <ele>61.8</ele>
        <time>2011-11-13T10:38:33Z</time>
      </trkpt>
      <trkpt lat="47.40323" lon="-2.14842">
        <ele>61.7</ele>
        <time>2011-11-13T10:38:34Z</time>
      </trkpt>
      <trkpt lat="47.40329" lon="-2.1485">
        <ele>63.1</ele>
        <time>2011-11-13T10:38:35Z</time>
      </trkpt>
      <trkpt lat="47.40333" lon="-2.14857">
        <ele>63.3</ele>
        <time>2011-11-13T10:38:36Z</time>
      </trkpt>
      <trkpt lat="47.40339" lon="-2.14865">
        <ele>62.4</ele>
        <time>2011-11-13T10:38:37Z</time>
      </trkpt>
      <trkpt lat="47.40343" lon="-2.14872">
        <ele>62.4</ele>
        <time>2011-11-13T10:38:38Z</time>
      </trkpt>
      <trkpt lat="47.4035" lon="-2.14877">
        <ele>61.9</ele>
        <time>2011-11-13T10:38:39Z</time>
      </trkpt>
      <trkpt lat="47.40354" lon="-2.14886">
        <ele>62.4</ele>
        <time>2011-11-13T10:38:40Z</time>
      </trkpt>
      <trkpt lat="47.40357" lon="-2.14898">
        <ele>63.3</ele>
        <time>2011-11-13T10:38:41Z</time>
      </trkpt>
      <trkpt lat="47.40362" lon="-2.14912">
        <ele>61.8</ele>
        <time>2011-11-13T10:38:42Z</time>
      </trkpt>
      <trkpt lat="47.40366" lon="-2.14924">
        <ele>60.8</ele>
        <time>2011-11-13T10:38:43Z</time>
      </trkpt>
      <trkpt lat="47.40371" lon="-2.14932">
        <ele>60.3</ele>
        <time>2011-11-13T10:38:44Z</time>
      </trkpt>
      <trkpt lat="47.40377" lon="-2.14938">
        <ele>59.5</ele>
        <time>2011-11-13T10:38:45Z</time>
      </trkpt>
      <trkpt lat="47.40385" lon="-2.14947">
        <ele>58.1</ele>
        <time>2011-11-13T10:38:46Z</time>
      </trkpt>
      <trkpt lat="47.40389" lon="-2.14958">
        <ele>57.5</ele>
        <time>2011-11-13T10:38:47Z</time>
      </trkpt>
      <trkpt lat="47.40394" lon="-2.14968">
        <ele>56.2</ele>
        <time>2011-11-13T10:38:48Z</time>
      </trkpt>
      <trkpt lat="47.40401" lon="-2.14981">
        <ele>55.5</ele>
        <time>2011-11-13T10:38:49Z</time>
      </trkpt>
      <trkpt lat="47.40407" lon="-2.14993">
        <ele>54.9</ele>
        <time>2011-11-13T10:38:50Z</time>
      </trkpt>
      <trkpt lat="47.40413" lon="-2.15001">
        <ele>54.9</ele>
        <time>2011-11-13T10:38:51Z</time>
      </trkpt>
      <trkpt lat="47.40416" lon="-2.15011">
        <ele>54.5</ele>
        <time>2011-11-13T10:38:52Z</time>
      </trkpt>
      <trkpt lat="47.40418" lon="-2.1502">
        <ele>55.6</ele>
        <time>2011-11-13T10:38:53Z</time>
      </trkpt>
      <trkpt lat="47.40426" lon="-2.15029">
        <ele>56.5</ele>
        <time>2011-11-13T10:38:54Z</time>
      </trkpt>
      <trkpt lat="47.40433" lon="-2.15038">
        <ele>54.6</ele>
        <time>2011-11-13T10:38:55Z</time>
      </trkpt>
      <trkpt lat="47.40445" lon="-2.15056">
        <ele>53.8</ele>
        <time>2011-11-13T10:38:57Z</time>
      </trkpt>
      <trkpt lat="47.40449" lon="-2.15062">
        <ele>55.1</ele>
        <time>2011-11-13T10:38:58Z</time>
      </trkpt>
      <trkpt lat="47.40455" lon="-2.15069">
        <ele>55.5</ele>
        <time>2011-11-13T10:38:59Z</time>
      </trkpt>
      <trkpt lat="47.4046" lon="-2.15077">
        <ele>55</ele>
        <time>2011-11-13T10:39:00Z</time>
      </trkpt>
      <trkpt lat="47.40463" lon="-2.15085">
        <ele>55.3</ele>
        <time>2011-11-13T10:39:01Z</time>
      </trkpt>
      <trkpt lat="47.40469" lon="-2.15091">
        <ele>54.9</ele>
        <time>2011-11-13T10:39:02Z</time>
      </trkpt>
      <trkpt lat="47.40474" lon="-2.15096">
        <ele>54.9</ele>
        <time>2011-11-13T10:39:03Z</time>
      </trkpt>
      <trkpt lat="47.40478" lon="-2.15107">
        <ele>54.6</ele>
        <time>2011-11-13T10:39:04Z</time>
      </trkpt>
      <trkpt lat="47.40481" lon="-2.15117">
        <ele>54.1</ele>
        <time>2011-11-13T10:39:05Z</time>
      </trkpt>
      <trkpt lat="47.40484" lon="-2.15124">
        <ele>54.2</ele>
        <time>2011-11-13T10:39:06Z</time>
      </trkpt>
      <trkpt lat="47.40488" lon="-2.15132">
        <ele>53.3</ele>
        <time>2011-11-13T10:39:07Z</time>
      </trkpt>
      <trkpt lat="47.40491" lon="-2.1514">
        <ele>52.8</ele>
        <time>2011-11-13T10:39:08Z</time>
      </trkpt>
      <trkpt lat="47.40493" lon="-2.15146">
        <ele>52.7</ele>
        <time>2011-11-13T10:39:09Z</time>
      </trkpt>
      <trkpt lat="47.40498" lon="-2.15152">
        <ele>53.4</ele>
        <time>2011-11-13T10:39:10Z</time>
      </trkpt>
      <trkpt lat="47.40504" lon="-2.15156">
        <ele>53.3</ele>
        <time>2011-11-13T10:39:11Z</time>
      </trkpt>
      <trkpt lat="47.40508" lon="-2.15162">
        <ele>53</ele>
        <time>2011-11-13T10:39:12Z</time>
      </trkpt>
      <trkpt lat="47.40513" lon="-2.15168">
        <ele>52.7</ele>
        <time>2011-11-13T10:39:13Z</time>
      </trkpt>
      <trkpt lat="47.4052" lon="-2.15177">
        <ele>52.5</ele>
        <time>2011-11-13T10:39:15Z</time>
      </trkpt>
      <trkpt lat="47.40525" lon="-2.15182">
        <ele>52.6</ele>
        <time>2011-11-13T10:39:16Z</time>
      </trkpt>
      <trkpt lat="47.40532" lon="-2.15188">
        <ele>52.1</ele>
        <time>2011-11-13T10:39:17Z</time>
      </trkpt>
      <trkpt lat="47.40538" lon="-2.15196">
        <ele>52.3</ele>
        <time>2011-11-13T10:39:18Z</time>
      </trkpt>
      <trkpt lat="47.40546" lon="-2.15196">
        <ele>52</ele>
        <time>2011-11-13T10:39:19Z</time>
      </trkpt>
      <trkpt lat="47.40553" lon="-2.15197">
        <ele>51.6</ele>
        <time>2011-11-13T10:39:20Z</time>
      </trkpt>
      <trkpt lat="47.40558" lon="-2.15198">
        <ele>51.5</ele>
        <time>2011-11-13T10:39:21Z</time>
      </trkpt>
      <trkpt lat="47.40564" lon="-2.15195">
        <ele>51.3</ele>
        <time>2011-11-13T10:39:22Z</time>
      </trkpt>
      <trkpt lat="47.4057" lon="-2.15196">
        <ele>51.8</ele>
        <time>2011-11-13T10:39:23Z</time>
      </trkpt>
      <trkpt lat="47.40574" lon="-2.15197">
        <ele>52.7</ele>
        <time>2011-11-13T10:39:24Z</time>
      </trkpt>
      <trkpt lat="47.40584" lon="-2.15204">
        <ele>52.2</ele>
        <time>2011-11-13T10:39:26Z</time>
      </trkpt>
      <trkpt lat="47.40592" lon="-2.15208">
        <ele>50.7</ele>
        <time>2011-11-13T10:39:27Z</time>
      </trkpt>
      <trkpt lat="47.40598" lon="-2.15206">
        <ele>50.1</ele>
        <time>2011-11-13T10:39:28Z</time>
      </trkpt>
      <trkpt lat="47.40604" lon="-2.15205">
        <ele>50.2</ele>
        <time>2011-11-13T10:39:29Z</time>
      </trkpt>
      <trkpt lat="47.40609" lon="-2.15202">
        <ele>50</ele>
        <time>2011-11-13T10:39:30Z</time>
      </trkpt>
      <trkpt lat="47.40615" lon="-2.15204">
        <ele>50.8</ele>
        <time>2011-11-13T10:39:31Z</time>
      </trkpt>
      <trkpt lat="47.40622" lon="-2.15203">
        <ele>52.1</ele>
        <time>2011-11-13T10:39:32Z</time>
      </trkpt>
      <trkpt lat="47.40627" lon="-2.152">
        <ele>53</ele>
        <time>2011-11-13T10:39:33Z</time>
      </trkpt>
      <trkpt lat="47.40633" lon="-2.15203">
        <ele>53.1</ele>
        <time>2011-11-13T10:39:34Z</time>
      </trkpt>
      <trkpt lat="47.4064" lon="-2.15202">
        <ele>53.3</ele>
        <time>2011-11-13T10:39:35Z</time>
      </trkpt>
      <trkpt lat="47.40646" lon="-2.152">
        <ele>52.9</ele>
        <time>2011-11-13T10:39:36Z</time>
      </trkpt>
      <trkpt lat="47.40652" lon="-2.152">
        <ele>53.7</ele>
        <time>2011-11-13T10:39:37Z</time>
      </trkpt>
      <trkpt lat="47.40658" lon="-2.15204">
        <ele>54</ele>
        <time>2011-11-13T10:39:38Z</time>
      </trkpt>
      <trkpt lat="47.40664" lon="-2.15205">
        <ele>53.7</ele>
        <time>2011-11-13T10:39:39Z</time>
      </trkpt>
      <trkpt lat="47.4067" lon="-2.15203">
        <ele>54.5</ele>
        <time>2011-11-13T10:39:40Z</time>
      </trkpt>
      <trkpt lat="47.40676" lon="-2.15206">
        <ele>54.2</ele>
        <time>2011-11-13T10:39:41Z</time>
      </trkpt>
      <trkpt lat="47.40682" lon="-2.15209">
        <ele>53.4</ele>
        <time>2011-11-13T10:39:42Z</time>
      </trkpt>
      <trkpt lat="47.40688" lon="-2.15213">
        <ele>53</ele>
        <time>2011-11-13T10:39:43Z</time>
      </trkpt>
      <trkpt lat="47.40694" lon="-2.15213">
        <ele>53.2</ele>
        <time>2011-11-13T10:39:44Z</time>
      </trkpt>
      <trkpt lat="47.40699" lon="-2.15215">
        <ele>53</ele>
        <time>2011-11-13T10:39:45Z</time>
      </trkpt>
      <trkpt lat="47.40704" lon="-2.15217">
        <ele>53.2</ele>
        <time>2011-11-13T10:39:46Z</time>
      </trkpt>
      <trkpt lat="47.40714" lon="-2.1522">
        <ele>53.8</ele>
        <time>2011-11-13T10:39:48Z</time>
      </trkpt>
      <trkpt lat="47.4072" lon="-2.1522">
        <ele>54.2</ele>
        <time>2011-11-13T10:39:49Z</time>
      </trkpt>
      <trkpt lat="47.4073" lon="-2.15227">
        <ele>53.5</ele>
        <time>2011-11-13T10:39:51Z</time>
      </trkpt>
      <trkpt lat="47.40736" lon="-2.15228">
        <ele>53.6</ele>
        <time>2011-11-13T10:39:52Z</time>
      </trkpt>
      <trkpt lat="47.40742" lon="-2.1523">
        <ele>53.4</ele>
        <time>2011-11-13T10:39:53Z</time>
      </trkpt>
      <trkpt lat="47.40747" lon="-2.1523">
        <ele>53.8</ele>
        <time>2011-11-13T10:39:54Z</time>
      </trkpt>
      <trkpt lat="47.40752" lon="-2.15234">
        <ele>53.1</ele>
        <time>2011-11-13T10:39:55Z</time>
      </trkpt>
      <trkpt lat="47.40757" lon="-2.15235">
        <ele>52.1</ele>
        <time>2011-11-13T10:39:56Z</time>
      </trkpt>
      <trkpt lat="47.40762" lon="-2.15237">
        <ele>52.6</ele>
        <time>2011-11-13T10:39:57Z</time>
      </trkpt>
      <trkpt lat="47.4077" lon="-2.15242">
        <ele>52.6</ele>
        <time>2011-11-13T10:39:58Z</time>
      </trkpt>
      <trkpt lat="47.40774" lon="-2.15248">
        <ele>52.2</ele>
        <time>2011-11-13T10:39:59Z</time>
      </trkpt>
      <trkpt lat="47.40779" lon="-2.15252">
        <ele>53.1</ele>
        <time>2011-11-13T10:40:00Z</time>
      </trkpt>
      <trkpt lat="47.40786" lon="-2.15252">
        <ele>53.2</ele>
        <time>2011-11-13T10:40:01Z</time>
      </trkpt>
      <trkpt lat="47.40792" lon="-2.15255">
        <ele>52.8</ele>
        <time>2011-11-13T10:40:02Z</time>
      </trkpt>
      <trkpt lat="47.40796" lon="-2.15259">
        <ele>53.5</ele>
        <time>2011-11-13T10:40:03Z</time>
      </trkpt>
      <trkpt lat="47.40801" lon="-2.1526">
        <ele>54.9</ele>
        <time>2011-11-13T10:40:04Z</time>
      </trkpt>
      <trkpt lat="47.40808" lon="-2.15262">
        <ele>54.2</ele>
        <time>2011-11-13T10:40:06Z</time>
      </trkpt>
      <trkpt lat="47.40815" lon="-2.15269">
        <ele>53.6</ele>
        <time>2011-11-13T10:40:07Z</time>
      </trkpt>
      <trkpt lat="47.40823" lon="-2.15269">
        <ele>53</ele>
        <time>2011-11-13T10:40:08Z</time>
      </trkpt>
      <trkpt lat="47.40827" lon="-2.15274">
        <ele>52.7</ele>
        <time>2011-11-13T10:40:09Z</time>
      </trkpt>
      <trkpt lat="47.40831" lon="-2.15279">
        <ele>52.7</ele>
        <time>2011-11-13T10:40:10Z</time>
      </trkpt>
      <trkpt lat="47.40836" lon="-2.15287">
        <ele>52.4</ele>
        <time>2011-11-13T10:40:11Z</time>
      </trkpt>
      <trkpt lat="47.40843" lon="-2.15292">
        <ele>52</ele>
        <time>2011-11-13T10:40:12Z</time>
      </trkpt>
      <trkpt lat="47.40851" lon="-2.15301">
        <ele>52.7</ele>
        <time>2011-11-13T10:40:14Z</time>
      </trkpt>
      <trkpt lat="47.40856" lon="-2.15304">
        <ele>52.6</ele>
        <time>2011-11-13T10:40:15Z</time>
      </trkpt>
      <trkpt lat="47.40861" lon="-2.15314">
        <ele>52.6</ele>
        <time>2011-11-13T10:40:16Z</time>
      </trkpt>
      <trkpt lat="47.40866" lon="-2.15314">
        <ele>52.1</ele>
        <time>2011-11-13T10:40:17Z</time>
      </trkpt>
      <trkpt lat="47.40874" lon="-2.15327">
        <ele>52.7</ele>
        <time>2011-11-13T10:40:19Z</time>
      </trkpt>
      <trkpt lat="47.40883" lon="-2.15329">
        <ele>52.3</ele>
        <time>2011-11-13T10:40:21Z</time>
      </trkpt>
      <trkpt lat="47.40887" lon="-2.15338">
        <ele>51.7</ele>
        <time>2011-11-13T10:40:22Z</time>
      </trkpt>
      <trkpt lat="47.40892" lon="-2.15346">
        <ele>51.6</ele>
        <time>2011-11-13T10:40:23Z</time>
      </trkpt>
      <trkpt lat="47.40897" lon="-2.15354">
        <ele>51.9</ele>
        <time>2011-11-13T10:40:25Z</time>
      </trkpt>
      <trkpt lat="47.40904" lon="-2.15358">
        <ele>52.8</ele>
        <time>2011-11-13T10:40:26Z</time>
      </trkpt>
      <trkpt lat="47.40909" lon="-2.15362">
        <ele>52.4</ele>
        <time>2011-11-13T10:40:27Z</time>
      </trkpt>
      <trkpt lat="47.4092" lon="-2.1537">
        <ele>52.7</ele>
        <time>2011-11-13T10:40:30Z</time>
      </trkpt>
      <trkpt lat="47.40927" lon="-2.15378">
        <ele>52.9</ele>
        <time>2011-11-13T10:40:32Z</time>
      </trkpt>
      <trkpt lat="47.40934" lon="-2.15386">
        <ele>54.6</ele>
        <time>2011-11-13T10:40:35Z</time>
      </trkpt>
      <trkpt lat="47.40933" lon="-2.15394">
        <ele>52.9</ele>
        <time>2011-11-13T10:40:37Z</time>
      </trkpt>
      <trkpt lat="47.40933" lon="-2.15401">
        <ele>55</ele>
        <time>2011-11-13T10:40:40Z</time>
      </trkpt>
      <trkpt lat="47.40933" lon="-2.15412">
        <ele>53.3</ele>
        <time>2011-11-13T10:40:42Z</time>
      </trkpt>
      <trkpt lat="47.4093" lon="-2.15422">
        <ele>53.2</ele>
        <time>2011-11-13T10:40:44Z</time>
      </trkpt>
      <trkpt lat="47.40928" lon="-2.15428">
        <ele>52.9</ele>
        <time>2011-11-13T10:40:45Z</time>
      </trkpt>
      <trkpt lat="47.40924" lon="-2.15434">
        <ele>53</ele>
        <time>2011-11-13T10:40:47Z</time>
      </trkpt>
      <trkpt lat="47.40923" lon="-2.15446">
        <ele>52.4</ele>
        <time>2011-11-13T10:40:49Z</time>
      </trkpt>
      <trkpt lat="47.40921" lon="-2.15458">
        <ele>52.5</ele>
        <time>2011-11-13T10:40:50Z</time>
      </trkpt>
      <trkpt lat="47.40922" lon="-2.15467">
        <ele>52.9</ele>
        <time>2011-11-13T10:40:52Z</time>
      </trkpt>
      <trkpt lat="47.40922" lon="-2.15477">
        <ele>54.2</ele>
        <time>2011-11-13T10:40:54Z</time>
      </trkpt>
      <trkpt lat="47.40922" lon="-2.15489">
        <ele>56.1</ele>
        <time>2011-11-13T10:40:56Z</time>
      </trkpt>
      <trkpt lat="47.4092" lon="-2.15496">
        <ele>56.6</ele>
        <time>2011-11-13T10:40:57Z</time>
      </trkpt>
      <trkpt lat="47.4092" lon="-2.15508">
        <ele>57</ele>
        <time>2011-11-13T10:40:59Z</time>
      </trkpt>
      <trkpt lat="47.40916" lon="-2.15524">
        <ele>56.8</ele>
        <time>2011-11-13T10:41:00Z</time>
      </trkpt>
      <trkpt lat="47.40911" lon="-2.15535">
        <ele>57</ele>
        <time>2011-11-13T10:41:01Z</time>
      </trkpt>
      <trkpt lat="47.40906" lon="-2.15545">
        <ele>56.9</ele>
        <time>2011-11-13T10:41:02Z</time>
      </trkpt>
      <trkpt lat="47.40904" lon="-2.15553">
        <ele>57</ele>
        <time>2011-11-13T10:41:03Z</time>
      </trkpt>
      <trkpt lat="47.409" lon="-2.15561">
        <ele>57.5</ele>
        <time>2011-11-13T10:41:05Z</time>
      </trkpt>
      <trkpt lat="47.40894" lon="-2.15567">
        <ele>57.1</ele>
        <time>2011-11-13T10:41:06Z</time>
      </trkpt>
      <trkpt lat="47.40887" lon="-2.15574">
        <ele>58.6</ele>
        <time>2011-11-13T10:41:07Z</time>
      </trkpt>
      <trkpt lat="47.40884" lon="-2.15583">
        <ele>57.6</ele>
        <time>2011-11-13T10:41:08Z</time>
      </trkpt>
      <trkpt lat="47.40875" lon="-2.15593">
        <ele>57.7</ele>
        <time>2011-11-13T10:41:10Z</time>
      </trkpt>
      <trkpt lat="47.40866" lon="-2.15602">
        <ele>56.1</ele>
        <time>2011-11-13T10:41:11Z</time>
      </trkpt>
      <trkpt lat="47.40864" lon="-2.15608">
        <ele>56.8</ele>
        <time>2011-11-13T10:41:12Z</time>
      </trkpt>
      <trkpt lat="47.40862" lon="-2.15616">
        <ele>57.9</ele>
        <time>2011-11-13T10:41:13Z</time>
      </trkpt>
      <trkpt lat="47.4086" lon="-2.15626">
        <ele>59.1</ele>
        <time>2011-11-13T10:41:15Z</time>
      </trkpt>
      <trkpt lat="47.40857" lon="-2.15633">
        <ele>58.5</ele>
        <time>2011-11-13T10:41:16Z</time>
      </trkpt>
      <trkpt lat="47.40854" lon="-2.15646">
        <ele>58.4</ele>
        <time>2011-11-13T10:41:18Z</time>
      </trkpt>
      <trkpt lat="47.4085" lon="-2.15656">
        <ele>58.3</ele>
        <time>2011-11-13T10:41:19Z</time>
      </trkpt>
      <trkpt lat="47.40851" lon="-2.15662">
        <ele>58.3</ele>
        <time>2011-11-13T10:41:20Z</time>
      </trkpt>
      <trkpt lat="47.40849" lon="-2.15672">
        <ele>57.6</ele>
        <time>2011-11-13T10:41:21Z</time>
      </trkpt>
      <trkpt lat="47.40852" lon="-2.15683">
        <ele>56.8</ele>
        <time>2011-11-13T10:41:22Z</time>
      </trkpt>
      <trkpt lat="47.4085" lon="-2.15696">
        <ele>57.4</ele>
        <time>2011-11-13T10:41:24Z</time>
      </trkpt>
      <trkpt lat="47.40847" lon="-2.15713">
        <ele>55.7</ele>
        <time>2011-11-13T10:41:26Z</time>
      </trkpt>
      <trkpt lat="47.40853" lon="-2.1572">
        <ele>55.5</ele>
        <time>2011-11-13T10:41:28Z</time>
      </trkpt>
      <trkpt lat="47.40849" lon="-2.15726">
        <ele>54.9</ele>
        <time>2011-11-13T10:41:29Z</time>
      </trkpt>
      <trkpt lat="47.40844" lon="-2.15735">
        <ele>54.5</ele>
        <time>2011-11-13T10:41:31Z</time>
      </trkpt>
      <trkpt lat="47.4084" lon="-2.15751">
        <ele>54</ele>
        <time>2011-11-13T10:41:33Z</time>
      </trkpt>
      <trkpt lat="47.40834" lon="-2.15758">
        <ele>53.8</ele>
        <time>2011-11-13T10:41:34Z</time>
      </trkpt>
      <trkpt lat="47.40826" lon="-2.15761">
        <ele>54.2</ele>
        <time>2011-11-13T10:41:35Z</time>
      </trkpt>
      <trkpt lat="47.4082" lon="-2.1577">
        <ele>54.1</ele>
        <time>2011-11-13T10:41:37Z</time>
      </trkpt>
      <trkpt lat="47.40814" lon="-2.15781">
        <ele>52.5</ele>
        <time>2011-11-13T10:41:39Z</time>
      </trkpt>
      <trkpt lat="47.40812" lon="-2.15791">
        <ele>49.1</ele>
        <time>2011-11-13T10:41:41Z</time>
      </trkpt>
      <trkpt lat="47.40809" lon="-2.15798">
        <ele>51.3</ele>
        <time>2011-11-13T10:41:42Z</time>
      </trkpt>
      <trkpt lat="47.40812" lon="-2.15805">
        <ele>51.5</ele>
        <time>2011-11-13T10:41:43Z</time>
      </trkpt>
      <trkpt lat="47.40813" lon="-2.15819">
        <ele>53</ele>
        <time>2011-11-13T10:41:45Z</time>
      </trkpt>
      <trkpt lat="47.40813" lon="-2.15832">
        <ele>51.6</ele>
        <time>2011-11-13T10:41:47Z</time>
      </trkpt>
      <trkpt lat="47.40817" lon="-2.15838">
        <ele>52</ele>
        <time>2011-11-13T10:41:48Z</time>
      </trkpt>
      <trkpt lat="47.40819" lon="-2.1585">
        <ele>51</ele>
        <time>2011-11-13T10:41:50Z</time>
      </trkpt>
      <trkpt lat="47.4082" lon="-2.1586">
        <ele>51.8</ele>
        <time>2011-11-13T10:41:51Z</time>
      </trkpt>
      <trkpt lat="47.40819" lon="-2.15867">
        <ele>51.3</ele>
        <time>2011-11-13T10:41:52Z</time>
      </trkpt>
      <trkpt lat="47.40821" lon="-2.15872">
        <ele>51.9</ele>
        <time>2011-11-13T10:41:53Z</time>
      </trkpt>
      <trkpt lat="47.40821" lon="-2.15882">
        <ele>52.2</ele>
        <time>2011-11-13T10:41:54Z</time>
      </trkpt>
      <trkpt lat="47.40826" lon="-2.15885">
        <ele>50.6</ele>
        <time>2011-11-13T10:41:55Z</time>
      </trkpt>
      <trkpt lat="47.40828" lon="-2.15894">
        <ele>51</ele>
        <time>2011-11-13T10:41:57Z</time>
      </trkpt>
      <trkpt lat="47.40835" lon="-2.15904">
        <ele>51.8</ele>
        <time>2011-11-13T10:41:59Z</time>
      </trkpt>
      <trkpt lat="47.40839" lon="-2.15911">
        <ele>52.9</ele>
        <time>2011-11-13T10:42:00Z</time>
      </trkpt>
      <trkpt lat="47.40841" lon="-2.15919">
        <ele>52.9</ele>
        <time>2011-11-13T10:42:01Z</time>
      </trkpt>
      <trkpt lat="47.40846" lon="-2.15931">
        <ele>52.6</ele>
        <time>2011-11-13T10:42:03Z</time>
      </trkpt>
      <trkpt lat="47.40852" lon="-2.15941">
        <ele>56.3</ele>
        <time>2011-11-13T10:42:06Z</time>
      </trkpt>
      <trkpt lat="47.40858" lon="-2.1595">
        <ele>55.4</ele>
        <time>2011-11-13T10:42:08Z</time>
      </trkpt>
      <trkpt lat="47.40862" lon="-2.15958">
        <ele>54.4</ele>
        <time>2011-11-13T10:42:10Z</time>
      </trkpt>
      <trkpt lat="47.40866" lon="-2.15967">
        <ele>52.5</ele>
        <time>2011-11-13T10:42:11Z</time>
      </trkpt>
      <trkpt lat="47.40869" lon="-2.15973">
        <ele>52.4</ele>
        <time>2011-11-13T10:42:13Z</time>
      </trkpt>
      <trkpt lat="47.40873" lon="-2.15979">
        <ele>52.8</ele>
        <time>2011-11-13T10:42:14Z</time>
      </trkpt>
      <trkpt lat="47.40881" lon="-2.15987">
        <ele>52.6</ele>
        <time>2011-11-13T10:42:16Z</time>
      </trkpt>
      <trkpt lat="47.40882" lon="-2.15994">
        <ele>55.5</ele>
        <time>2011-11-13T10:42:18Z</time>
      </trkpt>
      <trkpt lat="47.40884" lon="-2.16002">
        <ele>57</ele>
        <time>2011-11-13T10:42:20Z</time>
      </trkpt>
      <trkpt lat="47.40888" lon="-2.16005">
        <ele>57.5</ele>
        <time>2011-11-13T10:42:21Z</time>
      </trkpt>
      <trkpt lat="47.40893" lon="-2.16014">
        <ele>58.2</ele>
        <time>2011-11-13T10:42:23Z</time>
      </trkpt>
      <trkpt lat="47.40896" lon="-2.16024">
        <ele>59.4</ele>
        <time>2011-11-13T10:42:25Z</time>
      </trkpt>
      <trkpt lat="47.409" lon="-2.16028">
        <ele>58.2</ele>
        <time>2011-11-13T10:42:26Z</time>
      </trkpt>
      <trkpt lat="47.40906" lon="-2.1604">
        <ele>57.7</ele>
        <time>2011-11-13T10:42:28Z</time>
      </trkpt>
      <trkpt lat="47.40915" lon="-2.16048">
        <ele>58.9</ele>
        <time>2011-11-13T10:42:30Z</time>
      </trkpt>
      <trkpt lat="47.40918" lon="-2.16053">
        <ele>59.6</ele>
        <time>2011-11-13T10:42:31Z</time>
      </trkpt>
      <trkpt lat="47.40929" lon="-2.16063">
        <ele>59.3</ele>
        <time>2011-11-13T10:42:33Z</time>
      </trkpt>
      <trkpt lat="47.40933" lon="-2.16067">
        <ele>58.9</ele>
        <time>2011-11-13T10:42:34Z</time>
      </trkpt>
      <trkpt lat="47.40938" lon="-2.16071">
        <ele>59.2</ele>
        <time>2011-11-13T10:42:35Z</time>
      </trkpt>
      <trkpt lat="47.40947" lon="-2.16074">
        <ele>61.3</ele>
        <time>2011-11-13T10:42:37Z</time>
      </trkpt>
      <trkpt lat="47.40951" lon="-2.16078">
        <ele>62.2</ele>
        <time>2011-11-13T10:42:38Z</time>
      </trkpt>
      <trkpt lat="47.40955" lon="-2.16081">
        <ele>62.2</ele>
        <time>2011-11-13T10:42:39Z</time>
      </trkpt>
      <trkpt lat="47.40961" lon="-2.16084">
        <ele>62.7</ele>
        <time>2011-11-13T10:42:41Z</time>
      </trkpt>
      <trkpt lat="47.4097" lon="-2.16093">
        <ele>62.7</ele>
        <time>2011-11-13T10:42:42Z</time>
      </trkpt>
      <trkpt lat="47.40976" lon="-2.16093">
        <ele>63.1</ele>
        <time>2011-11-13T10:42:43Z</time>
      </trkpt>
      <trkpt lat="47.40982" lon="-2.16098">
        <ele>61.3</ele>
        <time>2011-11-13T10:42:44Z</time>
      </trkpt>
      <trkpt lat="47.40986" lon="-2.16103">
        <ele>61.2</ele>
        <time>2011-11-13T10:42:45Z</time>
      </trkpt>
      <trkpt lat="47.40994" lon="-2.16109">
        <ele>60.2</ele>
        <time>2011-11-13T10:42:47Z</time>
      </trkpt>
      <trkpt lat="47.41001" lon="-2.16108">
        <ele>60.3</ele>
        <time>2011-11-13T10:42:48Z</time>
      </trkpt>
      <trkpt lat="47.41008" lon="-2.16109">
        <ele>59.4</ele>
        <time>2011-11-13T10:42:49Z</time>
      </trkpt>
      <trkpt lat="47.41015" lon="-2.16108">
        <ele>59</ele>
        <time>2011-11-13T10:42:50Z</time>
      </trkpt>
      <trkpt lat="47.41019" lon="-2.16111">
        <ele>59.1</ele>
        <time>2011-11-13T10:42:51Z</time>
      </trkpt>
      <trkpt lat="47.41024" lon="-2.16116">
        <ele>58.9</ele>
        <time>2011-11-13T10:42:52Z</time>
      </trkpt>
      <trkpt lat="47.41027" lon="-2.16122">
        <ele>59.1</ele>
        <time>2011-11-13T10:42:53Z</time>
      </trkpt>
      <trkpt lat="47.41031" lon="-2.16126">
        <ele>59</ele>
        <time>2011-11-13T10:42:54Z</time>
      </trkpt>
      <trkpt lat="47.4104" lon="-2.1613">
        <ele>57.5</ele>
        <time>2011-11-13T10:42:56Z</time>
      </trkpt>
      <trkpt lat="47.41045" lon="-2.16132">
        <ele>56.6</ele>
        <time>2011-11-13T10:42:57Z</time>
      </trkpt>
      <trkpt lat="47.41049" lon="-2.16137">
        <ele>57.6</ele>
        <time>2011-11-13T10:42:58Z</time>
      </trkpt>
      <trkpt lat="47.41055" lon="-2.16142">
        <ele>57.5</ele>
        <time>2011-11-13T10:42:59Z</time>
      </trkpt>
      <trkpt lat="47.41056" lon="-2.1615">
        <ele>55.9</ele>
        <time>2011-11-13T10:43:00Z</time>
      </trkpt>
      <trkpt lat="47.41059" lon="-2.16156">
        <ele>56.5</ele>
        <time>2011-11-13T10:43:01Z</time>
      </trkpt>
      <trkpt lat="47.41064" lon="-2.16173">
        <ele>58.2</ele>
        <time>2011-11-13T10:43:04Z</time>
      </trkpt>
      <trkpt lat="47.41069" lon="-2.16185">
        <ele>59.1</ele>
        <time>2011-11-13T10:43:07Z</time>
      </trkpt>
      <trkpt lat="47.41074" lon="-2.16198">
        <ele>59.8</ele>
        <time>2011-11-13T10:43:08Z</time>
      </trkpt>
      <trkpt lat="47.41077" lon="-2.16206">
        <ele>59.3</ele>
        <time>2011-11-13T10:43:09Z</time>
      </trkpt>
      <trkpt lat="47.41082" lon="-2.1621">
        <ele>58</ele>
        <time>2011-11-13T10:43:10Z</time>
      </trkpt>
      <trkpt lat="47.41085" lon="-2.16218">
        <ele>58.1</ele>
        <time>2011-11-13T10:43:11Z</time>
      </trkpt>
      <trkpt lat="47.41088" lon="-2.16223">
        <ele>57.5</ele>
        <time>2011-11-13T10:43:12Z</time>
      </trkpt>
      <trkpt lat="47.41093" lon="-2.16235">
        <ele>57.3</ele>
        <time>2011-11-13T10:43:14Z</time>
      </trkpt>
      <trkpt lat="47.41098" lon="-2.16242">
        <ele>57.1</ele>
        <time>2011-11-13T10:43:16Z</time>
      </trkpt>
      <trkpt lat="47.41105" lon="-2.16252">
        <ele>58.1</ele>
        <time>2011-11-13T10:43:17Z</time>
      </trkpt>
      <trkpt lat="47.41114" lon="-2.16274">
        <ele>55.1</ele>
        <time>2011-11-13T10:43:18Z</time>
      </trkpt>
      <trkpt lat="47.41116" lon="-2.1628">
        <ele>56.3</ele>
        <time>2011-11-13T10:43:20Z</time>
      </trkpt>
      <trkpt lat="47.4112" lon="-2.16285">
        <ele>56</ele>
        <time>2011-11-13T10:43:21Z</time>
      </trkpt>
      <trkpt lat="47.41123" lon="-2.16292">
        <ele>55.8</ele>
        <time>2011-11-13T10:43:22Z</time>
      </trkpt>
      <trkpt lat="47.41128" lon="-2.16301">
        <ele>56.3</ele>
        <time>2011-11-13T10:43:24Z</time>
      </trkpt>
      <trkpt lat="47.41133" lon="-2.16304">
        <ele>57.3</ele>
        <time>2011-11-13T10:43:26Z</time>
      </trkpt>
      <trkpt lat="47.41136" lon="-2.16309">
        <ele>57.1</ele>
        <time>2011-11-13T10:43:28Z</time>
      </trkpt>
      <trkpt lat="47.4114" lon="-2.16314">
        <ele>57.7</ele>
        <time>2011-11-13T10:43:30Z</time>
      </trkpt>
      <trkpt lat="47.41144" lon="-2.16317">
        <ele>58.1</ele>
        <time>2011-11-13T10:43:34Z</time>
      </trkpt>
      <trkpt lat="47.41145" lon="-2.16324">
        <ele>56.9</ele>
        <time>2011-11-13T10:43:40Z</time>
      </trkpt>
      <trkpt lat="47.41152" lon="-2.16328">
        <ele>56.4</ele>
        <time>2011-11-13T10:43:43Z</time>
      </trkpt>
      <trkpt lat="47.41158" lon="-2.1633">
        <ele>57.5</ele>
        <time>2011-11-13T10:43:45Z</time>
      </trkpt>
      <trkpt lat="47.41165" lon="-2.16328">
        <ele>58.9</ele>
        <time>2011-11-13T10:43:48Z</time>
      </trkpt>
      <trkpt lat="47.41172" lon="-2.16328">
        <ele>59.5</ele>
        <time>2011-11-13T10:43:50Z</time>
      </trkpt>
      <trkpt lat="47.41176" lon="-2.16333">
        <ele>59.8</ele>
        <time>2011-11-13T10:43:51Z</time>
      </trkpt>
      <trkpt lat="47.41176" lon="-2.16315">
        <ele>61.8</ele>
        <time>2011-11-13T10:43:55Z</time>
      </trkpt>
      <trkpt lat="47.4118" lon="-2.1631">
        <ele>61</ele>
        <time>2011-11-13T10:43:57Z</time>
      </trkpt>
      <trkpt lat="47.41182" lon="-2.16302">
        <ele>60.4</ele>
        <time>2011-11-13T10:43:59Z</time>
      </trkpt>
      <trkpt lat="47.41175" lon="-2.16303">
        <ele>57.1</ele>
        <time>2011-11-13T10:44:01Z</time>
      </trkpt>
      <trkpt lat="47.41187" lon="-2.16295">
        <ele>54.6</ele>
        <time>2011-11-13T10:44:05Z</time>
      </trkpt>
      <trkpt lat="47.41191" lon="-2.16306">
        <ele>54.7</ele>
        <time>2011-11-13T10:44:09Z</time>
      </trkpt>
      <trkpt lat="47.41193" lon="-2.16317">
        <ele>54</ele>
        <time>2011-11-13T10:44:12Z</time>
      </trkpt>
      <trkpt lat="47.41197" lon="-2.16324">
        <ele>53.6</ele>
        <time>2011-11-13T10:44:13Z</time>
      </trkpt>
      <trkpt lat="47.41193" lon="-2.16336">
        <ele>52.3</ele>
        <time>2011-11-13T10:44:15Z</time>
      </trkpt>
      <trkpt lat="47.41193" lon="-2.16344">
        <ele>54.4</ele>
        <time>2011-11-13T10:44:18Z</time>
      </trkpt>
      <trkpt lat="47.41189" lon="-2.16349">
        <ele>57.3</ele>
        <time>2011-11-13T10:44:23Z</time>
      </trkpt>
      <trkpt lat="47.41195" lon="-2.16355">
        <ele>56.5</ele>
        <time>2011-11-13T10:44:30Z</time>
      </trkpt>
      <trkpt lat="47.41199" lon="-2.16358">
        <ele>57.1</ele>
        <time>2011-11-13T10:44:32Z</time>
      </trkpt>
      <trkpt lat="47.41206" lon="-2.16363">
        <ele>58.9</ele>
        <time>2011-11-13T10:44:34Z</time>
      </trkpt>
      <trkpt lat="47.41212" lon="-2.16368">
        <ele>59</ele>
        <time>2011-11-13T10:44:36Z</time>
      </trkpt>
      <trkpt lat="47.41211" lon="-2.16374">
        <ele>59.1</ele>
        <time>2011-11-13T10:44:41Z</time>
      </trkpt>
      <trkpt lat="47.41209" lon="-2.16385">
        <ele>57.6</ele>
        <time>2011-11-13T10:44:43Z</time>
      </trkpt>
      <trkpt lat="47.41202" lon="-2.16395">
        <ele>60.7</ele>
        <time>2011-11-13T10:44:48Z</time>
      </trkpt>
      <trkpt lat="47.41199" lon="-2.16409">
        <ele>60.8</ele>
        <time>2011-11-13T10:45:00Z</time>
      </trkpt>
      <trkpt lat="47.41199" lon="-2.16416">
        <ele>59.5</ele>
        <time>2011-11-13T10:45:03Z</time>
      </trkpt>
      <trkpt lat="47.41194" lon="-2.16418">
        <ele>60.9</ele>
        <time>2011-11-13T10:45:04Z</time>
      </trkpt>
      <trkpt lat="47.41196" lon="-2.16425">
        <ele>61.9</ele>
        <time>2011-11-13T10:45:06Z</time>
      </trkpt>
      <trkpt lat="47.41195" lon="-2.16436">
        <ele>59.3</ele>
        <time>2011-11-13T10:45:09Z</time>
      </trkpt>
      <trkpt lat="47.41192" lon="-2.16444">
        <ele>57</ele>
        <time>2011-11-13T10:45:11Z</time>
      </trkpt>
      <trkpt lat="47.41196" lon="-2.16449">
        <ele>54.4</ele>
        <time>2011-11-13T10:45:13Z</time>
      </trkpt>
      <trkpt lat="47.41193" lon="-2.16457">
        <ele>54.7</ele>
        <time>2011-11-13T10:45:16Z</time>
      </trkpt>
      <trkpt lat="47.41188" lon="-2.1646">
        <ele>55.5</ele>
        <time>2011-11-13T10:45:19Z</time>
      </trkpt>
      <trkpt lat="47.41179" lon="-2.16464">
        <ele>54.5</ele>
        <time>2011-11-13T10:45:20Z</time>
      </trkpt>
      <trkpt lat="47.41176" lon="-2.16458">
        <ele>57</ele>
        <time>2011-11-13T10:45:23Z</time>
      </trkpt>
      <trkpt lat="47.41168" lon="-2.16453">
        <ele>53.8</ele>
        <time>2011-11-13T10:45:25Z</time>
      </trkpt>
      <trkpt lat="47.41163" lon="-2.16451">
        <ele>52.2</ele>
        <time>2011-11-13T10:45:27Z</time>
      </trkpt>
      <trkpt lat="47.41164" lon="-2.16444">
        <ele>52.2</ele>
        <time>2011-11-13T10:45:28Z</time>
      </trkpt>
      <trkpt lat="47.41167" lon="-2.16439">
        <ele>52.5</ele>
        <time>2011-11-13T10:45:31Z</time>
      </trkpt>
      <trkpt lat="47.41174" lon="-2.16433">
        <ele>56.4</ele>
        <time>2011-11-13T10:45:37Z</time>
      </trkpt>
      <trkpt lat="47.41178" lon="-2.16429">
        <ele>59.5</ele>
        <time>2011-11-13T10:45:39Z</time>
      </trkpt>
      <trkpt lat="47.4118" lon="-2.16421">
        <ele>60.3</ele>
        <time>2011-11-13T10:45:43Z</time>
      </trkpt>
      <trkpt lat="47.41183" lon="-2.16406">
        <ele>60.9</ele>
        <time>2011-11-13T10:45:46Z</time>
      </trkpt>
      <trkpt lat="47.4118" lon="-2.164">
        <ele>61.6</ele>
        <time>2011-11-13T10:45:50Z</time>
      </trkpt>
      <trkpt lat="47.41176" lon="-2.16398">
        <ele>64</ele>
        <time>2011-11-13T10:45:54Z</time>
      </trkpt>
      <trkpt lat="47.41172" lon="-2.16391">
        <ele>67</ele>
        <time>2011-11-13T10:45:57Z</time>
      </trkpt>
      <trkpt lat="47.41168" lon="-2.16387">
        <ele>66.6</ele>
        <time>2011-11-13T10:46:01Z</time>
      </trkpt>
      <trkpt lat="47.4116" lon="-2.16384">
        <ele>66.5</ele>
        <time>2011-11-13T10:46:03Z</time>
      </trkpt>
      <trkpt lat="47.41153" lon="-2.16379">
        <ele>64.7</ele>
        <time>2011-11-13T10:46:05Z</time>
      </trkpt>
      <trkpt lat="47.41138" lon="-2.1637">
        <ele>65.1</ele>
        <time>2011-11-13T10:46:08Z</time>
      </trkpt>
      <trkpt lat="47.41133" lon="-2.16368">
        <ele>65.5</ele>
        <time>2011-11-13T10:46:09Z</time>
      </trkpt>
      <trkpt lat="47.41127" lon="-2.16359">
        <ele>64.8</ele>
        <time>2011-11-13T10:46:10Z</time>
      </trkpt>
      <trkpt lat="47.41123" lon="-2.16355">
        <ele>63.9</ele>
        <time>2011-11-13T10:46:11Z</time>
      </trkpt>
      <trkpt lat="47.41122" lon="-2.16345">
        <ele>62</ele>
        <time>2011-11-13T10:46:13Z</time>
      </trkpt>
      <trkpt lat="47.41123" lon="-2.16338">
        <ele>62.3</ele>
        <time>2011-11-13T10:46:14Z</time>
      </trkpt>
      <trkpt lat="47.41117" lon="-2.16334">
        <ele>61.3</ele>
        <time>2011-11-13T10:46:18Z</time>
      </trkpt>
      <trkpt lat="47.41115" lon="-2.1632">
        <ele>56.7</ele>
        <time>2011-11-13T10:46:22Z</time>
      </trkpt>
      <trkpt lat="47.41112" lon="-2.16326">
        <ele>60</ele>
        <time>2011-11-13T10:46:25Z</time>
      </trkpt>
      <trkpt lat="47.41114" lon="-2.16336">
        <ele>61</ele>
        <time>2011-11-13T10:46:29Z</time>
      </trkpt>
      <trkpt lat="47.41113" lon="-2.16346">
        <ele>60</ele>
        <time>2011-11-13T10:46:33Z</time>
      </trkpt>
      <trkpt lat="47.41111" lon="-2.16354">
        <ele>60.1</ele>
        <time>2011-11-13T10:46:36Z</time>
      </trkpt>
      <trkpt lat="47.41103" lon="-2.16356">
        <ele>65.2</ele>
        <time>2011-11-13T10:46:42Z</time>
      </trkpt>
      <trkpt lat="47.411" lon="-2.16364">
        <ele>66.8</ele>
        <time>2011-11-13T10:46:45Z</time>
      </trkpt>
      <trkpt lat="47.41096" lon="-2.16375">
        <ele>67.6</ele>
        <time>2011-11-13T10:46:48Z</time>
      </trkpt>
      <trkpt lat="47.41091" lon="-2.16376">
        <ele>69.9</ele>
        <time>2011-11-13T10:46:53Z</time>
      </trkpt>
      <trkpt lat="47.41093" lon="-2.16369">
        <ele>71.9</ele>
        <time>2011-11-13T10:46:54Z</time>
      </trkpt>
      <trkpt lat="47.41094" lon="-2.16363">
        <ele>70.2</ele>
        <time>2011-11-13T10:46:55Z</time>
      </trkpt>
      <trkpt lat="47.41088" lon="-2.16352">
        <ele>69.4</ele>
        <time>2011-11-13T10:47:01Z</time>
      </trkpt>
      <trkpt lat="47.41086" lon="-2.16345">
        <ele>68.3</ele>
        <time>2011-11-13T10:47:03Z</time>
      </trkpt>
      <trkpt lat="47.41083" lon="-2.16334">
        <ele>67</ele>
        <time>2011-11-13T10:47:07Z</time>
      </trkpt>
      <trkpt lat="47.41081" lon="-2.16328">
        <ele>67.3</ele>
        <time>2011-11-13T10:47:08Z</time>
      </trkpt>
      <trkpt lat="47.41076" lon="-2.16326">
        <ele>66.5</ele>
        <time>2011-11-13T10:47:09Z</time>
      </trkpt>
      <trkpt lat="47.41072" lon="-2.16332">
        <ele>67.6</ele>
        <time>2011-11-13T10:47:10Z</time>
      </trkpt>
      <trkpt lat="47.41063" lon="-2.16329">
        <ele>67.6</ele>
        <time>2011-11-13T10:47:13Z</time>
      </trkpt>
      <trkpt lat="47.41056" lon="-2.16324">
        <ele>66.6</ele>
        <time>2011-11-13T10:47:14Z</time>
      </trkpt>
      <trkpt lat="47.41048" lon="-2.16322">
        <ele>66.1</ele>
        <time>2011-11-13T10:47:17Z</time>
      </trkpt>
      <trkpt lat="47.41043" lon="-2.16324">
        <ele>66.4</ele>
        <time>2011-11-13T10:47:18Z</time>
      </trkpt>
      <trkpt lat="47.41034" lon="-2.16331">
        <ele>64</ele>
        <time>2011-11-13T10:47:25Z</time>
      </trkpt>
      <trkpt lat="47.41029" lon="-2.16334">
        <ele>63.3</ele>
        <time>2011-11-13T10:47:27Z</time>
      </trkpt>
      <trkpt lat="47.41018" lon="-2.16342">
        <ele>63.5</ele>
        <time>2011-11-13T10:47:30Z</time>
      </trkpt>
      <trkpt lat="47.41013" lon="-2.16344">
        <ele>63.4</ele>
        <time>2011-11-13T10:47:32Z</time>
      </trkpt>
      <trkpt lat="47.41007" lon="-2.1635">
        <ele>63.3</ele>
        <time>2011-11-13T10:47:35Z</time>
      </trkpt>
      <trkpt lat="47.41003" lon="-2.16354">
        <ele>63.6</ele>
        <time>2011-11-13T10:47:36Z</time>
      </trkpt>
      <trkpt lat="47.40997" lon="-2.16358">
        <ele>63.7</ele>
        <time>2011-11-13T10:47:38Z</time>
      </trkpt>
      <trkpt lat="47.40992" lon="-2.16362">
        <ele>63.5</ele>
        <time>2011-11-13T10:47:40Z</time>
      </trkpt>
      <trkpt lat="47.40988" lon="-2.16366">
        <ele>64.8</ele>
        <time>2011-11-13T10:47:42Z</time>
      </trkpt>
      <trkpt lat="47.40979" lon="-2.16369">
        <ele>64.6</ele>
        <time>2011-11-13T10:47:43Z</time>
      </trkpt>
      <trkpt lat="47.40977" lon="-2.16377">
        <ele>64.6</ele>
        <time>2011-11-13T10:47:45Z</time>
      </trkpt>
      <trkpt lat="47.40973" lon="-2.16385">
        <ele>65.5</ele>
        <time>2011-11-13T10:47:47Z</time>
      </trkpt>
      <trkpt lat="47.40966" lon="-2.16388">
        <ele>67.6</ele>
        <time>2011-11-13T10:47:48Z</time>
      </trkpt>
      <trkpt lat="47.40966" lon="-2.16395">
        <ele>68.7</ele>
        <time>2011-11-13T10:47:50Z</time>
      </trkpt>
      <trkpt lat="47.40973" lon="-2.16396">
        <ele>69.8</ele>
        <time>2011-11-13T10:47:52Z</time>
      </trkpt>
      <trkpt lat="47.40979" lon="-2.16397">
        <ele>70.2</ele>
        <time>2011-11-13T10:47:54Z</time>
      </trkpt>
      <trkpt lat="47.40988" lon="-2.16399">
        <ele>71.7</ele>
        <time>2011-11-13T10:47:56Z</time>
      </trkpt>
      <trkpt lat="47.40994" lon="-2.16402">
        <ele>71.9</ele>
        <time>2011-11-13T10:47:58Z</time>
      </trkpt>
      <trkpt lat="47.41" lon="-2.16405">
        <ele>70.7</ele>
        <time>2011-11-13T10:48:00Z</time>
      </trkpt>
      <trkpt lat="47.41006" lon="-2.16404">
        <ele>70.9</ele>
        <time>2011-11-13T10:48:02Z</time>
      </trkpt>
      <trkpt lat="47.41012" lon="-2.16402">
        <ele>69.7</ele>
        <time>2011-11-13T10:48:04Z</time>
      </trkpt>
      <trkpt lat="47.41017" lon="-2.16398">
        <ele>67.2</ele>
        <time>2011-11-13T10:48:06Z</time>
      </trkpt>
      <trkpt lat="47.41023" lon="-2.16395">
        <ele>66.3</ele>
        <time>2011-11-13T10:48:08Z</time>
      </trkpt>
      <trkpt lat="47.41028" lon="-2.16394">
        <ele>66.1</ele>
        <time>2011-11-13T10:48:10Z</time>
      </trkpt>
      <trkpt lat="47.4103" lon="-2.16402">
        <ele>68</ele>
        <time>2011-11-13T10:48:13Z</time>
      </trkpt>
      <trkpt lat="47.41028" lon="-2.16415">
        <ele>69.2</ele>
        <time>2011-11-13T10:48:15Z</time>
      </trkpt>
      <trkpt lat="47.41028" lon="-2.16426">
        <ele>71.1</ele>
        <time>2011-11-13T10:48:16Z</time>
      </trkpt>
      <trkpt lat="47.41026" lon="-2.16435">
        <ele>70.9</ele>
        <time>2011-11-13T10:48:19Z</time>
      </trkpt>
      <trkpt lat="47.41028" lon="-2.16442">
        <ele>68.8</ele>
        <time>2011-11-13T10:48:21Z</time>
      </trkpt>
      <trkpt lat="47.41031" lon="-2.1645">
        <ele>64.9</ele>
        <time>2011-11-13T10:48:25Z</time>
      </trkpt>
      <trkpt lat="47.41036" lon="-2.16453">
        <ele>64.4</ele>
        <time>2011-11-13T10:48:27Z</time>
      </trkpt>
      <trkpt lat="47.41042" lon="-2.16463">
        <ele>65.2</ele>
        <time>2011-11-13T10:48:33Z</time>
      </trkpt>
      <trkpt lat="47.41045" lon="-2.16473">
        <ele>65.3</ele>
        <time>2011-11-13T10:48:35Z</time>
      </trkpt>
      <trkpt lat="47.41048" lon="-2.1648">
        <ele>66.7</ele>
        <time>2011-11-13T10:48:37Z</time>
      </trkpt>
      <trkpt lat="47.41051" lon="-2.16488">
        <ele>68</ele>
        <time>2011-11-13T10:48:39Z</time>
      </trkpt>
      <trkpt lat="47.41051" lon="-2.16501">
        <ele>70</ele>
        <time>2011-11-13T10:48:41Z</time>
      </trkpt>
      <trkpt lat="47.41052" lon="-2.16509">
        <ele>70.1</ele>
        <time>2011-11-13T10:48:42Z</time>
      </trkpt>
      <trkpt lat="47.4105" lon="-2.16519">
        <ele>70.3</ele>
        <time>2011-11-13T10:48:44Z</time>
      </trkpt>
      <trkpt lat="47.41049" lon="-2.16527">
        <ele>68.4</ele>
        <time>2011-11-13T10:48:46Z</time>
      </trkpt>
      <trkpt lat="47.41046" lon="-2.16531">
        <ele>68.2</ele>
        <time>2011-11-13T10:48:49Z</time>
      </trkpt>
      <trkpt lat="47.4104" lon="-2.1653">
        <ele>68.2</ele>
        <time>2011-11-13T10:48:52Z</time>
      </trkpt>
      <trkpt lat="47.41034" lon="-2.16528">
        <ele>68.7</ele>
        <time>2011-11-13T10:48:54Z</time>
      </trkpt>
      <trkpt lat="47.41031" lon="-2.16524">
        <ele>69.9</ele>
        <time>2011-11-13T10:48:56Z</time>
      </trkpt>
      <trkpt lat="47.41023" lon="-2.16522">
        <ele>70.2</ele>
        <time>2011-11-13T10:48:58Z</time>
      </trkpt>
      <trkpt lat="47.4102" lon="-2.16517">
        <ele>70.3</ele>
        <time>2011-11-13T10:49:00Z</time>
      </trkpt>
      <trkpt lat="47.41016" lon="-2.16511">
        <ele>70.6</ele>
        <time>2011-11-13T10:49:01Z</time>
      </trkpt>
      <trkpt lat="47.4101" lon="-2.16507">
        <ele>71.6</ele>
        <time>2011-11-13T10:49:03Z</time>
      </trkpt>
      <trkpt lat="47.41007" lon="-2.16501">
        <ele>72</ele>
        <time>2011-11-13T10:49:05Z</time>
      </trkpt>
      <trkpt lat="47.41006" lon="-2.16493">
        <ele>72.2</ele>
        <time>2011-11-13T10:49:07Z</time>
      </trkpt>
      <trkpt lat="47.41" lon="-2.16485">
        <ele>72.9</ele>
        <time>2011-11-13T10:49:09Z</time>
      </trkpt>
      <trkpt lat="47.40998" lon="-2.16479">
        <ele>73.5</ele>
        <time>2011-11-13T10:49:12Z</time>
      </trkpt>
      <trkpt lat="47.40993" lon="-2.16473">
        <ele>72.9</ele>
        <time>2011-11-13T10:49:15Z</time>
      </trkpt>
      <trkpt lat="47.40989" lon="-2.16477">
        <ele>73</ele>
        <time>2011-11-13T10:49:19Z</time>
      </trkpt>
      <trkpt lat="47.40984" lon="-2.16482">
        <ele>73.3</ele>
        <time>2011-11-13T10:49:22Z</time>
      </trkpt>
      <trkpt lat="47.40974" lon="-2.16482">
        <ele>73.5</ele>
        <time>2011-11-13T10:49:24Z</time>
      </trkpt>
      <trkpt lat="47.40968" lon="-2.16483">
        <ele>71.7</ele>
        <time>2011-11-13T10:49:26Z</time>
      </trkpt>
      <trkpt lat="47.40962" lon="-2.1648">
        <ele>71.8</ele>
        <time>2011-11-13T10:49:28Z</time>
      </trkpt>
      <trkpt lat="47.40958" lon="-2.16475">
        <ele>71.8</ele>
        <time>2011-11-13T10:49:30Z</time>
      </trkpt>
      <trkpt lat="47.40955" lon="-2.16468">
        <ele>71.4</ele>
        <time>2011-11-13T10:49:32Z</time>
      </trkpt>
      <trkpt lat="47.40958" lon="-2.16459">
        <ele>73.5</ele>
        <time>2011-11-13T10:49:35Z</time>
      </trkpt>
      <trkpt lat="47.40951" lon="-2.16453">
        <ele>75.3</ele>
        <time>2011-11-13T10:49:38Z</time>
      </trkpt>
      <trkpt lat="47.40946" lon="-2.16447">
        <ele>73.8</ele>
        <time>2011-11-13T10:49:40Z</time>
      </trkpt>
      <trkpt lat="47.40946" lon="-2.16447">
        <ele>73.8</ele>
        <time>2011-11-13T10:49:40Z</time>
      </trkpt>
      <trkpt lat="47.40946" lon="-2.16447">
        <ele>73.8</ele>
        <time>2011-11-13T10:49:41Z</time>
      </trkpt>
      <trkpt lat="47.4094" lon="-2.1644">
        <ele>73.9</ele>
        <time>2011-11-13T10:49:43Z</time>
      </trkpt>
      <trkpt lat="47.40933" lon="-2.16432">
        <ele>73.1</ele>
        <time>2011-11-13T10:49:45Z</time>
      </trkpt>
      <trkpt lat="47.40928" lon="-2.16426">
        <ele>72.4</ele>
        <time>2011-11-13T10:49:47Z</time>
      </trkpt>
      <trkpt lat="47.40925" lon="-2.16414">
        <ele>68.4</ele>
        <time>2011-11-13T10:49:49Z</time>
      </trkpt>
      <trkpt lat="47.4092" lon="-2.16408">
        <ele>66</ele>
        <time>2011-11-13T10:49:51Z</time>
      </trkpt>
      <trkpt lat="47.40914" lon="-2.16408">
        <ele>65</ele>
        <time>2011-11-13T10:49:52Z</time>
      </trkpt>
      <trkpt lat="47.4091" lon="-2.16405">
        <ele>63.3</ele>
        <time>2011-11-13T10:49:54Z</time>
      </trkpt>
      <trkpt lat="47.40899" lon="-2.16403">
        <ele>64.1</ele>
        <time>2011-11-13T10:49:56Z</time>
      </trkpt>
      <trkpt lat="47.40892" lon="-2.16399">
        <ele>62.1</ele>
        <time>2011-11-13T10:49:58Z</time>
      </trkpt>
      <trkpt lat="47.40886" lon="-2.16397">
        <ele>62.9</ele>
        <time>2011-11-13T10:50:00Z</time>
      </trkpt>
      <trkpt lat="47.40879" lon="-2.16392">
        <ele>62.4</ele>
        <time>2011-11-13T10:50:02Z</time>
      </trkpt>
      <trkpt lat="47.40871" lon="-2.16392">
        <ele>62.3</ele>
        <time>2011-11-13T10:50:04Z</time>
      </trkpt>
      <trkpt lat="47.40866" lon="-2.16392">
        <ele>62.6</ele>
        <time>2011-11-13T10:50:05Z</time>
      </trkpt>
      <trkpt lat="47.40857" lon="-2.16394">
        <ele>65.2</ele>
        <time>2011-11-13T10:50:07Z</time>
      </trkpt>
      <trkpt lat="47.40853" lon="-2.16387">
        <ele>65.4</ele>
        <time>2011-11-13T10:50:08Z</time>
      </trkpt>
      <trkpt lat="47.40847" lon="-2.16382">
        <ele>64.2</ele>
        <time>2011-11-13T10:50:10Z</time>
      </trkpt>
      <trkpt lat="47.40841" lon="-2.16376">
        <ele>63.7</ele>
        <time>2011-11-13T10:50:12Z</time>
      </trkpt>
      <trkpt lat="47.40838" lon="-2.1637">
        <ele>64.1</ele>
        <time>2011-11-13T10:50:14Z</time>
      </trkpt>
      <trkpt lat="47.40832" lon="-2.16356">
        <ele>64.2</ele>
        <time>2011-11-13T10:50:17Z</time>
      </trkpt>
      <trkpt lat="47.40826" lon="-2.1635">
        <ele>63.3</ele>
        <time>2011-11-13T10:50:19Z</time>
      </trkpt>
      <trkpt lat="47.40821" lon="-2.16341">
        <ele>63.4</ele>
        <time>2011-11-13T10:50:21Z</time>
      </trkpt>
      <trkpt lat="47.40813" lon="-2.16328">
        <ele>62.1</ele>
        <time>2011-11-13T10:50:24Z</time>
      </trkpt>
      <trkpt lat="47.40809" lon="-2.16319">
        <ele>61.8</ele>
        <time>2011-11-13T10:50:26Z</time>
      </trkpt>
      <trkpt lat="47.40798" lon="-2.16301">
        <ele>60.9</ele>
        <time>2011-11-13T10:50:29Z</time>
      </trkpt>
      <trkpt lat="47.40796" lon="-2.16296">
        <ele>61.1</ele>
        <time>2011-11-13T10:50:30Z</time>
      </trkpt>
      <trkpt lat="47.40792" lon="-2.16291">
        <ele>62.5</ele>
        <time>2011-11-13T10:50:34Z</time>
      </trkpt>
      <trkpt lat="47.40787" lon="-2.16286">
        <ele>61.6</ele>
        <time>2011-11-13T10:50:37Z</time>
      </trkpt>
      <trkpt lat="47.40784" lon="-2.16279">
        <ele>60.3</ele>
        <time>2011-11-13T10:50:39Z</time>
      </trkpt>
      <trkpt lat="47.40767" lon="-2.16267">
        <ele>56.4</ele>
        <time>2011-11-13T10:50:41Z</time>
      </trkpt>
      <trkpt lat="47.40772" lon="-2.16257">
        <ele>56.4</ele>
        <time>2011-11-13T10:50:44Z</time>
      </trkpt>
      <trkpt lat="47.40774" lon="-2.16251">
        <ele>57.2</ele>
        <time>2011-11-13T10:50:45Z</time>
      </trkpt>
      <trkpt lat="47.40777" lon="-2.16241">
        <ele>57.4</ele>
        <time>2011-11-13T10:50:46Z</time>
      </trkpt>
      <trkpt lat="47.4078" lon="-2.16233">
        <ele>57.7</ele>
        <time>2011-11-13T10:50:47Z</time>
      </trkpt>
      <trkpt lat="47.40788" lon="-2.16225">
        <ele>57.1</ele>
        <time>2011-11-13T10:50:50Z</time>
      </trkpt>
      <trkpt lat="47.40793" lon="-2.16222">
        <ele>58.4</ele>
        <time>2011-11-13T10:50:51Z</time>
      </trkpt>
      <trkpt lat="47.40797" lon="-2.16218">
        <ele>57.2</ele>
        <time>2011-11-13T10:50:53Z</time>
      </trkpt>
      <trkpt lat="47.40799" lon="-2.16208">
        <ele>57.6</ele>
        <time>2011-11-13T10:50:55Z</time>
      </trkpt>
      <trkpt lat="47.40801" lon="-2.16202">
        <ele>58.2</ele>
        <time>2011-11-13T10:50:57Z</time>
      </trkpt>
      <trkpt lat="47.40806" lon="-2.16193">
        <ele>58.9</ele>
        <time>2011-11-13T10:50:59Z</time>
      </trkpt>
      <trkpt lat="47.40803" lon="-2.16187">
        <ele>57.7</ele>
        <time>2011-11-13T10:51:02Z</time>
      </trkpt>
      <trkpt lat="47.40802" lon="-2.16175">
        <ele>59.3</ele>
        <time>2011-11-13T10:51:05Z</time>
      </trkpt>
      <trkpt lat="47.40798" lon="-2.1617">
        <ele>59.9</ele>
        <time>2011-11-13T10:51:06Z</time>
      </trkpt>
      <trkpt lat="47.40793" lon="-2.16163">
        <ele>60.8</ele>
        <time>2011-11-13T10:51:08Z</time>
      </trkpt>
      <trkpt lat="47.40788" lon="-2.16154">
        <ele>61.8</ele>
        <time>2011-11-13T10:51:10Z</time>
      </trkpt>
      <trkpt lat="47.40784" lon="-2.16145">
        <ele>61.8</ele>
        <time>2011-11-13T10:51:11Z</time>
      </trkpt>
      <trkpt lat="47.40782" lon="-2.16139">
        <ele>61.2</ele>
        <time>2011-11-13T10:51:13Z</time>
      </trkpt>
      <trkpt lat="47.40779" lon="-2.16133">
        <ele>61.3</ele>
        <time>2011-11-13T10:51:15Z</time>
      </trkpt>
      <trkpt lat="47.40776" lon="-2.16126">
        <ele>61.8</ele>
        <time>2011-11-13T10:51:17Z</time>
      </trkpt>
      <trkpt lat="47.40773" lon="-2.1612">
        <ele>61.1</ele>
        <time>2011-11-13T10:51:19Z</time>
      </trkpt>
      <trkpt lat="47.40771" lon="-2.16112">
        <ele>60.8</ele>
        <time>2011-11-13T10:51:21Z</time>
      </trkpt>
      <trkpt lat="47.40769" lon="-2.16104">
        <ele>61</ele>
        <time>2011-11-13T10:51:23Z</time>
      </trkpt>
      <trkpt lat="47.40767" lon="-2.16098">
        <ele>60.8</ele>
        <time>2011-11-13T10:51:25Z</time>
      </trkpt>
      <trkpt lat="47.40765" lon="-2.16089">
        <ele>61.6</ele>
        <time>2011-11-13T10:51:27Z</time>
      </trkpt>
      <trkpt lat="47.4076" lon="-2.16078">
        <ele>63.2</ele>
        <time>2011-11-13T10:51:30Z</time>
      </trkpt>
      <trkpt lat="47.40753" lon="-2.16066">
        <ele>62.6</ele>
        <time>2011-11-13T10:51:33Z</time>
      </trkpt>
      <trkpt lat="47.40747" lon="-2.16055">
        <ele>63.1</ele>
        <time>2011-11-13T10:51:36Z</time>
      </trkpt>
      <trkpt lat="47.40747" lon="-2.16046">
        <ele>62.2</ele>
        <time>2011-11-13T10:51:40Z</time>
      </trkpt>
      <trkpt lat="47.40744" lon="-2.16053">
        <ele>61.6</ele>
        <time>2011-11-13T10:51:53Z</time>
      </trkpt>
      <trkpt lat="47.40739" lon="-2.1605">
        <ele>62.4</ele>
        <time>2011-11-13T10:51:57Z</time>
      </trkpt>
      <trkpt lat="47.40733" lon="-2.16049">
        <ele>60.9</ele>
        <time>2011-11-13T10:52:00Z</time>
      </trkpt>
      <trkpt lat="47.4073" lon="-2.1604">
        <ele>63.4</ele>
        <time>2011-11-13T10:52:04Z</time>
      </trkpt>
      <trkpt lat="47.40729" lon="-2.16029">
        <ele>65.4</ele>
        <time>2011-11-13T10:52:08Z</time>
      </trkpt>
      <trkpt lat="47.40732" lon="-2.16022">
        <ele>63.8</ele>
        <time>2011-11-13T10:52:14Z</time>
      </trkpt>
      <trkpt lat="47.40724" lon="-2.1602">
        <ele>65.2</ele>
        <time>2011-11-13T10:52:19Z</time>
      </trkpt>
      <trkpt lat="47.40718" lon="-2.16026">
        <ele>64.7</ele>
        <time>2011-11-13T10:52:24Z</time>
      </trkpt>
      <trkpt lat="47.4072" lon="-2.16035">
        <ele>65</ele>
        <time>2011-11-13T10:52:26Z</time>
      </trkpt>
      <trkpt lat="47.40718" lon="-2.16042">
        <ele>64</ele>
        <time>2011-11-13T10:52:27Z</time>
      </trkpt>
      <trkpt lat="47.40719" lon="-2.1605">
        <ele>64.4</ele>
        <time>2011-11-13T10:52:29Z</time>
      </trkpt>
      <trkpt lat="47.40712" lon="-2.1605">
        <ele>63.3</ele>
        <time>2011-11-13T10:52:31Z</time>
      </trkpt>
      <trkpt lat="47.40706" lon="-2.16056">
        <ele>59.9</ele>
        <time>2011-11-13T10:52:32Z</time>
      </trkpt>
      <trkpt lat="47.40704" lon="-2.16049">
        <ele>61.5</ele>
        <time>2011-11-13T10:52:37Z</time>
      </trkpt>
      <trkpt lat="47.40703" lon="-2.1604">
        <ele>63.1</ele>
        <time>2011-11-13T10:52:40Z</time>
      </trkpt>
      <trkpt lat="47.40698" lon="-2.16032">
        <ele>62.8</ele>
        <time>2011-11-13T10:52:43Z</time>
      </trkpt>
      <trkpt lat="47.40697" lon="-2.16024">
        <ele>64.7</ele>
        <time>2011-11-13T10:52:45Z</time>
      </trkpt>
      <trkpt lat="47.4069" lon="-2.16024">
        <ele>64.4</ele>
        <time>2011-11-13T10:52:48Z</time>
      </trkpt>
      <trkpt lat="47.40685" lon="-2.16026">
        <ele>63.6</ele>
        <time>2011-11-13T10:52:49Z</time>
      </trkpt>
      <trkpt lat="47.4068" lon="-2.16032">
        <ele>63.7</ele>
        <time>2011-11-13T10:52:50Z</time>
      </trkpt>
      <trkpt lat="47.40672" lon="-2.16038">
        <ele>62</ele>
        <time>2011-11-13T10:52:52Z</time>
      </trkpt>
      <trkpt lat="47.40668" lon="-2.16048">
        <ele>60.3</ele>
        <time>2011-11-13T10:52:54Z</time>
      </trkpt>
      <trkpt lat="47.40664" lon="-2.16054">
        <ele>60.2</ele>
        <time>2011-11-13T10:52:55Z</time>
      </trkpt>
      <trkpt lat="47.40663" lon="-2.16061">
        <ele>61.3</ele>
        <time>2011-11-13T10:52:56Z</time>
      </trkpt>
      <trkpt lat="47.40665" lon="-2.16067">
        <ele>65.2</ele>
        <time>2011-11-13T10:53:00Z</time>
      </trkpt>
      <trkpt lat="47.40672" lon="-2.16074">
        <ele>63.1</ele>
        <time>2011-11-13T10:53:03Z</time>
      </trkpt>
      <trkpt lat="47.40672" lon="-2.16081">
        <ele>62</ele>
        <time>2011-11-13T10:53:04Z</time>
      </trkpt>
      <trkpt lat="47.40675" lon="-2.16093">
        <ele>61</ele>
        <time>2011-11-13T10:53:06Z</time>
      </trkpt>
      <trkpt lat="47.40674" lon="-2.16102">
        <ele>60.1</ele>
        <time>2011-11-13T10:53:07Z</time>
      </trkpt>
      <trkpt lat="47.40676" lon="-2.16113">
        <ele>59.4</ele>
        <time>2011-11-13T10:53:11Z</time>
      </trkpt>
      <trkpt lat="47.4068" lon="-2.16119">
        <ele>58.5</ele>
        <time>2011-11-13T10:53:14Z</time>
      </trkpt>
      <trkpt lat="47.40685" lon="-2.1612">
        <ele>57.5</ele>
        <time>2011-11-13T10:53:17Z</time>
      </trkpt>
      <trkpt lat="47.40691" lon="-2.16117">
        <ele>55.9</ele>
        <time>2011-11-13T10:53:19Z</time>
      </trkpt>
      <trkpt lat="47.40695" lon="-2.16114">
        <ele>56.5</ele>
        <time>2011-11-13T10:53:21Z</time>
      </trkpt>
      <trkpt lat="47.40701" lon="-2.16112">
        <ele>57.4</ele>
        <time>2011-11-13T10:53:22Z</time>
      </trkpt>
      <trkpt lat="47.40708" lon="-2.16111">
        <ele>58.4</ele>
        <time>2011-11-13T10:53:25Z</time>
      </trkpt>
      <trkpt lat="47.40717" lon="-2.16104">
        <ele>59.4</ele>
        <time>2011-11-13T10:53:28Z</time>
      </trkpt>
      <trkpt lat="47.40724" lon="-2.16103">
        <ele>58.9</ele>
        <time>2011-11-13T10:53:30Z</time>
      </trkpt>
      <trkpt lat="47.40729" lon="-2.16099">
        <ele>61.5</ele>
        <time>2011-11-13T10:53:33Z</time>
      </trkpt>
      <trkpt lat="47.40733" lon="-2.16095">
        <ele>61.8</ele>
        <time>2011-11-13T10:53:34Z</time>
      </trkpt>
      <trkpt lat="47.40736" lon="-2.1609">
        <ele>61.3</ele>
        <time>2011-11-13T10:53:36Z</time>
      </trkpt>
      <trkpt lat="47.40741" lon="-2.16091">
        <ele>62.3</ele>
        <time>2011-11-13T10:53:40Z</time>
      </trkpt>
      <trkpt lat="47.40745" lon="-2.16084">
        <ele>61.5</ele>
        <time>2011-11-13T10:53:44Z</time>
      </trkpt>
      <trkpt lat="47.40748" lon="-2.1609">
        <ele>63.2</ele>
        <time>2011-11-13T10:53:46Z</time>
      </trkpt>
      <trkpt lat="47.40753" lon="-2.16097">
        <ele>64.6</ele>
        <time>2011-11-13T10:53:49Z</time>
      </trkpt>
      <trkpt lat="47.40757" lon="-2.16101">
        <ele>66.1</ele>
        <time>2011-11-13T10:53:53Z</time>
      </trkpt>
      <trkpt lat="47.40761" lon="-2.16112">
        <ele>65.1</ele>
        <time>2011-11-13T10:53:55Z</time>
      </trkpt>
      <trkpt lat="47.40768" lon="-2.1612">
        <ele>64.5</ele>
        <time>2011-11-13T10:53:57Z</time>
      </trkpt>
      <trkpt lat="47.4077" lon="-2.16126">
        <ele>65.6</ele>
        <time>2011-11-13T10:53:59Z</time>
      </trkpt>
      <trkpt lat="47.40771" lon="-2.16135">
        <ele>65</ele>
        <time>2011-11-13T10:54:01Z</time>
      </trkpt>
      <trkpt lat="47.40772" lon="-2.16142">
        <ele>64.3</ele>
        <time>2011-11-13T10:54:02Z</time>
      </trkpt>
      <trkpt lat="47.40777" lon="-2.16147">
        <ele>65</ele>
        <time>2011-11-13T10:54:04Z</time>
      </trkpt>
      <trkpt lat="47.40783" lon="-2.16151">
        <ele>63.8</ele>
        <time>2011-11-13T10:54:06Z</time>
      </trkpt>
      <trkpt lat="47.40788" lon="-2.16161">
        <ele>63</ele>
        <time>2011-11-13T10:54:08Z</time>
      </trkpt>
      <trkpt lat="47.40791" lon="-2.1617">
        <ele>66.1</ele>
        <time>2011-11-13T10:54:11Z</time>
      </trkpt>
      <trkpt lat="47.40793" lon="-2.1618">
        <ele>66.7</ele>
        <time>2011-11-13T10:54:13Z</time>
      </trkpt>
      <trkpt lat="47.40794" lon="-2.16187">
        <ele>67.3</ele>
        <time>2011-11-13T10:54:14Z</time>
      </trkpt>
      <trkpt lat="47.40794" lon="-2.162">
        <ele>65.6</ele>
        <time>2011-11-13T10:54:16Z</time>
      </trkpt>
      <trkpt lat="47.40794" lon="-2.1621">
        <ele>62.8</ele>
        <time>2011-11-13T10:54:17Z</time>
      </trkpt>
      <trkpt lat="47.4079" lon="-2.16219">
        <ele>62.9</ele>
        <time>2011-11-13T10:54:18Z</time>
      </trkpt>
      <trkpt lat="47.4079" lon="-2.16226">
        <ele>62.4</ele>
        <time>2011-11-13T10:54:19Z</time>
      </trkpt>
      <trkpt lat="47.40786" lon="-2.16232">
        <ele>60.2</ele>
        <time>2011-11-13T10:54:21Z</time>
      </trkpt>
      <trkpt lat="47.40782" lon="-2.16237">
        <ele>59.3</ele>
        <time>2011-11-13T10:54:23Z</time>
      </trkpt>
      <trkpt lat="47.40775" lon="-2.16246">
        <ele>58.3</ele>
        <time>2011-11-13T10:54:25Z</time>
      </trkpt>
      <trkpt lat="47.40766" lon="-2.16251">
        <ele>56.9</ele>
        <time>2011-11-13T10:54:29Z</time>
      </trkpt>
      <trkpt lat="47.40761" lon="-2.16256">
        <ele>57.9</ele>
        <time>2011-11-13T10:54:31Z</time>
      </trkpt>
      <trkpt lat="47.4075" lon="-2.16256">
        <ele>58.9</ele>
        <time>2011-11-13T10:54:33Z</time>
      </trkpt>
      <trkpt lat="47.40743" lon="-2.1626">
        <ele>58.7</ele>
        <time>2011-11-13T10:54:35Z</time>
      </trkpt>
      <trkpt lat="47.4074" lon="-2.16268">
        <ele>55.5</ele>
        <time>2011-11-13T10:54:39Z</time>
      </trkpt>
      <trkpt lat="47.40742" lon="-2.16276">
        <ele>56.3</ele>
        <time>2011-11-13T10:54:42Z</time>
      </trkpt>
      <trkpt lat="47.40739" lon="-2.16283">
        <ele>56.3</ele>
        <time>2011-11-13T10:54:44Z</time>
      </trkpt>
      <trkpt lat="47.40742" lon="-2.16288">
        <ele>56</ele>
        <time>2011-11-13T10:54:46Z</time>
      </trkpt>
      <trkpt lat="47.40748" lon="-2.16293">
        <ele>61.3</ele>
        <time>2011-11-13T10:54:48Z</time>
      </trkpt>
      <trkpt lat="47.40752" lon="-2.163">
        <ele>61.6</ele>
        <time>2011-11-13T10:54:49Z</time>
      </trkpt>
      <trkpt lat="47.40756" lon="-2.16308">
        <ele>62.1</ele>
        <time>2011-11-13T10:54:51Z</time>
      </trkpt>
      <trkpt lat="47.40761" lon="-2.16315">
        <ele>63.6</ele>
        <time>2011-11-13T10:54:53Z</time>
      </trkpt>
      <trkpt lat="47.40764" lon="-2.16323">
        <ele>63.1</ele>
        <time>2011-11-13T10:54:55Z</time>
      </trkpt>
      <trkpt lat="47.40772" lon="-2.16327">
        <ele>62</ele>
        <time>2011-11-13T10:54:57Z</time>
      </trkpt>
      <trkpt lat="47.40778" lon="-2.16325">
        <ele>62.3</ele>
        <time>2011-11-13T10:54:59Z</time>
      </trkpt>
      <trkpt lat="47.40783" lon="-2.1632">
        <ele>62.3</ele>
        <time>2011-11-13T10:55:02Z</time>
      </trkpt>
      <trkpt lat="47.40789" lon="-2.16321">
        <ele>62.1</ele>
        <time>2011-11-13T10:55:06Z</time>
      </trkpt>
      <trkpt lat="47.40798" lon="-2.16316">
        <ele>57.9</ele>
        <time>2011-11-13T10:55:08Z</time>
      </trkpt>
      <trkpt lat="47.408" lon="-2.16322">
        <ele>58.5</ele>
        <time>2011-11-13T10:55:10Z</time>
      </trkpt>
      <trkpt lat="47.40808" lon="-2.1633">
        <ele>60.3</ele>
        <time>2011-11-13T10:55:12Z</time>
      </trkpt>
      <trkpt lat="47.40814" lon="-2.16336">
        <ele>60.4</ele>
        <time>2011-11-13T10:55:14Z</time>
      </trkpt>
      <trkpt lat="47.40818" lon="-2.16342">
        <ele>60.3</ele>
        <time>2011-11-13T10:55:15Z</time>
      </trkpt>
      <trkpt lat="47.40818" lon="-2.1635">
        <ele>58.6</ele>
        <time>2011-11-13T10:55:16Z</time>
      </trkpt>
      <trkpt lat="47.40826" lon="-2.16357">
        <ele>58.9</ele>
        <time>2011-11-13T10:55:18Z</time>
      </trkpt>
      <trkpt lat="47.40828" lon="-2.16368">
        <ele>61.3</ele>
        <time>2011-11-13T10:55:20Z</time>
      </trkpt>
      <trkpt lat="47.40833" lon="-2.1637">
        <ele>58.1</ele>
        <time>2011-11-13T10:55:22Z</time>
      </trkpt>
      <trkpt lat="47.40836" lon="-2.16384">
        <ele>56.9</ele>
        <time>2011-11-13T10:55:24Z</time>
      </trkpt>
      <trkpt lat="47.4084" lon="-2.16389">
        <ele>56.6</ele>
        <time>2011-11-13T10:55:26Z</time>
      </trkpt>
      <trkpt lat="47.4084" lon="-2.16398">
        <ele>56.2</ele>
        <time>2011-11-13T10:55:28Z</time>
      </trkpt>
      <trkpt lat="47.4084" lon="-2.16405">
        <ele>56.3</ele>
        <time>2011-11-13T10:55:32Z</time>
      </trkpt>
      <trkpt lat="47.40839" lon="-2.16414">
        <ele>57.2</ele>
        <time>2011-11-13T10:55:34Z</time>
      </trkpt>
      <trkpt lat="47.40834" lon="-2.16419">
        <ele>56</ele>
        <time>2011-11-13T10:55:36Z</time>
      </trkpt>
      <trkpt lat="47.40827" lon="-2.16424">
        <ele>57.2</ele>
        <time>2011-11-13T10:55:39Z</time>
      </trkpt>
      <trkpt lat="47.4082" lon="-2.16427">
        <ele>58.4</ele>
        <time>2011-11-13T10:55:40Z</time>
      </trkpt>
      <trkpt lat="47.40815" lon="-2.1643">
        <ele>59.2</ele>
        <time>2011-11-13T10:55:41Z</time>
      </trkpt>
      <trkpt lat="47.4081" lon="-2.16433">
        <ele>60.3</ele>
        <time>2011-11-13T10:55:43Z</time>
      </trkpt>
      <trkpt lat="47.408" lon="-2.16434">
        <ele>58</ele>
        <time>2011-11-13T10:55:45Z</time>
      </trkpt>
      <trkpt lat="47.40794" lon="-2.16437">
        <ele>57</ele>
        <time>2011-11-13T10:55:47Z</time>
      </trkpt>
      <trkpt lat="47.40789" lon="-2.16444">
        <ele>57</ele>
        <time>2011-11-13T10:55:49Z</time>
      </trkpt>
      <trkpt lat="47.40784" lon="-2.16449">
        <ele>56.8</ele>
        <time>2011-11-13T10:55:51Z</time>
      </trkpt>
      <trkpt lat="47.40774" lon="-2.16459">
        <ele>54.6</ele>
        <time>2011-11-13T10:55:54Z</time>
      </trkpt>
      <trkpt lat="47.40767" lon="-2.16467">
        <ele>53.5</ele>
        <time>2011-11-13T10:55:55Z</time>
      </trkpt>
      <trkpt lat="47.40757" lon="-2.16475">
        <ele>51.2</ele>
        <time>2011-11-13T10:55:57Z</time>
      </trkpt>
      <trkpt lat="47.40752" lon="-2.16486">
        <ele>50.9</ele>
        <time>2011-11-13T10:55:59Z</time>
      </trkpt>
      <trkpt lat="47.40754" lon="-2.16494">
        <ele>51.7</ele>
        <time>2011-11-13T10:56:01Z</time>
      </trkpt>
      <trkpt lat="47.40758" lon="-2.16502">
        <ele>51.9</ele>
        <time>2011-11-13T10:56:03Z</time>
      </trkpt>
      <trkpt lat="47.40762" lon="-2.16509">
        <ele>53.3</ele>
        <time>2011-11-13T10:56:05Z</time>
      </trkpt>
      <trkpt lat="47.40769" lon="-2.16517">
        <ele>52.8</ele>
        <time>2011-11-13T10:56:07Z</time>
      </trkpt>
      <trkpt lat="47.40773" lon="-2.16516">
        <ele>52.2</ele>
        <time>2011-11-13T10:56:08Z</time>
      </trkpt>
      <trkpt lat="47.40781" lon="-2.16515">
        <ele>52.1</ele>
        <time>2011-11-13T10:56:10Z</time>
      </trkpt>
      <trkpt lat="47.40786" lon="-2.16516">
        <ele>54</ele>
        <time>2011-11-13T10:56:12Z</time>
      </trkpt>
      <trkpt lat="47.40795" lon="-2.16511">
        <ele>55.1</ele>
        <time>2011-11-13T10:56:14Z</time>
      </trkpt>
      <trkpt lat="47.40804" lon="-2.16509">
        <ele>56</ele>
        <time>2011-11-13T10:56:17Z</time>
      </trkpt>
      <trkpt lat="47.40813" lon="-2.16505">
        <ele>54.6</ele>
        <time>2011-11-13T10:56:18Z</time>
      </trkpt>
      <trkpt lat="47.40817" lon="-2.16502">
        <ele>54.7</ele>
        <time>2011-11-13T10:56:19Z</time>
      </trkpt>
      <trkpt lat="47.40823" lon="-2.16502">
        <ele>55.2</ele>
        <time>2011-11-13T10:56:21Z</time>
      </trkpt>
      <trkpt lat="47.40828" lon="-2.16499">
        <ele>55.8</ele>
        <time>2011-11-13T10:56:22Z</time>
      </trkpt>
      <trkpt lat="47.40837" lon="-2.16502">
        <ele>54.4</ele>
        <time>2011-11-13T10:56:24Z</time>
      </trkpt>
      <trkpt lat="47.40839" lon="-2.16511">
        <ele>54</ele>
        <time>2011-11-13T10:56:26Z</time>
      </trkpt>
      <trkpt lat="47.40845" lon="-2.16507">
        <ele>55</ele>
        <time>2011-11-13T10:56:29Z</time>
      </trkpt>
      <trkpt lat="47.40851" lon="-2.16503">
        <ele>54.8</ele>
        <time>2011-11-13T10:56:31Z</time>
      </trkpt>
      <trkpt lat="47.40858" lon="-2.16497">
        <ele>54.8</ele>
        <time>2011-11-13T10:56:33Z</time>
      </trkpt>
      <trkpt lat="47.40865" lon="-2.16496">
        <ele>54.7</ele>
        <time>2011-11-13T10:56:35Z</time>
      </trkpt>
      <trkpt lat="47.4087" lon="-2.16495">
        <ele>55.2</ele>
        <time>2011-11-13T10:56:36Z</time>
      </trkpt>
      <trkpt lat="47.40876" lon="-2.16492">
        <ele>54.9</ele>
        <time>2011-11-13T10:56:38Z</time>
      </trkpt>
      <trkpt lat="47.40884" lon="-2.1649">
        <ele>54.3</ele>
        <time>2011-11-13T10:56:40Z</time>
      </trkpt>
      <trkpt lat="47.40888" lon="-2.1648">
        <ele>54.5</ele>
        <time>2011-11-13T10:56:41Z</time>
      </trkpt>
      <trkpt lat="47.40892" lon="-2.16469">
        <ele>54.5</ele>
        <time>2011-11-13T10:56:45Z</time>
      </trkpt>
      <trkpt lat="47.40884" lon="-2.16476">
        <ele>57.3</ele>
        <time>2011-11-13T10:56:46Z</time>
      </trkpt>
      <trkpt lat="47.40889" lon="-2.16468">
        <ele>55</ele>
        <time>2011-11-13T10:56:47Z</time>
      </trkpt>
      <trkpt lat="47.40894" lon="-2.16464">
        <ele>55.9</ele>
        <time>2011-11-13T10:56:49Z</time>
      </trkpt>
      <trkpt lat="47.40899" lon="-2.16463">
        <ele>56.7</ele>
        <time>2011-11-13T10:56:51Z</time>
      </trkpt>
      <trkpt lat="47.40905" lon="-2.16465">
        <ele>57.5</ele>
        <time>2011-11-13T10:56:54Z</time>
      </trkpt>
      <trkpt lat="47.40911" lon="-2.16459">
        <ele>59</ele>
        <time>2011-11-13T10:56:56Z</time>
      </trkpt>
      <trkpt lat="47.40919" lon="-2.16458">
        <ele>59.9</ele>
        <time>2011-11-13T10:56:58Z</time>
      </trkpt>
      <trkpt lat="47.40925" lon="-2.16453">
        <ele>59.4</ele>
        <time>2011-11-13T10:56:59Z</time>
      </trkpt>
      <trkpt lat="47.4093" lon="-2.16454">
        <ele>59.6</ele>
        <time>2011-11-13T10:57:01Z</time>
      </trkpt>
      <trkpt lat="47.40936" lon="-2.16466">
        <ele>60.1</ele>
        <time>2011-11-13T10:57:04Z</time>
      </trkpt>
      <trkpt lat="47.4094" lon="-2.16473">
        <ele>59.8</ele>
        <time>2011-11-13T10:57:05Z</time>
      </trkpt>
      <trkpt lat="47.40943" lon="-2.1648">
        <ele>59.5</ele>
        <time>2011-11-13T10:57:06Z</time>
      </trkpt>
      <trkpt lat="47.40943" lon="-2.16489">
        <ele>60.5</ele>
        <time>2011-11-13T10:57:09Z</time>
      </trkpt>
      <trkpt lat="47.40943" lon="-2.16497">
        <ele>61.6</ele>
        <time>2011-11-13T10:57:10Z</time>
      </trkpt>
      <trkpt lat="47.40945" lon="-2.16507">
        <ele>65.1</ele>
        <time>2011-11-13T10:57:12Z</time>
      </trkpt>
      <trkpt lat="47.40947" lon="-2.16515">
        <ele>65</ele>
        <time>2011-11-13T10:57:15Z</time>
      </trkpt>
      <trkpt lat="47.40947" lon="-2.16522">
        <ele>64.6</ele>
        <time>2011-11-13T10:57:16Z</time>
      </trkpt>
      <trkpt lat="47.40951" lon="-2.16528">
        <ele>65.3</ele>
        <time>2011-11-13T10:57:18Z</time>
      </trkpt>
      <trkpt lat="47.40956" lon="-2.16538">
        <ele>67.7</ele>
        <time>2011-11-13T10:57:20Z</time>
      </trkpt>
      <trkpt lat="47.4096" lon="-2.16547">
        <ele>69.8</ele>
        <time>2011-11-13T10:57:22Z</time>
      </trkpt>
      <trkpt lat="47.4096" lon="-2.16557">
        <ele>70.5</ele>
        <time>2011-11-13T10:57:24Z</time>
      </trkpt>
      <trkpt lat="47.40966" lon="-2.16565">
        <ele>68.9</ele>
        <time>2011-11-13T10:57:26Z</time>
      </trkpt>
      <trkpt lat="47.4097" lon="-2.16571">
        <ele>65.4</ele>
        <time>2011-11-13T10:57:28Z</time>
      </trkpt>
      <trkpt lat="47.40972" lon="-2.16579">
        <ele>62.8</ele>
        <time>2011-11-13T10:57:31Z</time>
      </trkpt>
      <trkpt lat="47.40968" lon="-2.16573">
        <ele>57.6</ele>
        <time>2011-11-13T10:57:34Z</time>
      </trkpt>
      <trkpt lat="47.40973" lon="-2.16569">
        <ele>58.7</ele>
        <time>2011-11-13T10:57:38Z</time>
      </trkpt>
      <trkpt lat="47.40978" lon="-2.16566">
        <ele>60.6</ele>
        <time>2011-11-13T10:57:41Z</time>
      </trkpt>
      <trkpt lat="47.40984" lon="-2.16562">
        <ele>61.1</ele>
        <time>2011-11-13T10:57:43Z</time>
      </trkpt>
      <trkpt lat="47.40989" lon="-2.1656">
        <ele>61.6</ele>
        <time>2011-11-13T10:57:45Z</time>
      </trkpt>
      <trkpt lat="47.40994" lon="-2.16561">
        <ele>63.6</ele>
        <time>2011-11-13T10:57:47Z</time>
      </trkpt>
      <trkpt lat="47.41" lon="-2.16558">
        <ele>64.5</ele>
        <time>2011-11-13T10:57:50Z</time>
      </trkpt>
      <trkpt lat="47.41006" lon="-2.16556">
        <ele>64.6</ele>
        <time>2011-11-13T10:57:51Z</time>
      </trkpt>
      <trkpt lat="47.4101" lon="-2.16554">
        <ele>65.1</ele>
        <time>2011-11-13T10:57:52Z</time>
      </trkpt>
      <trkpt lat="47.41017" lon="-2.16555">
        <ele>66.9</ele>
        <time>2011-11-13T10:57:53Z</time>
      </trkpt>
      <trkpt lat="47.41022" lon="-2.16553">
        <ele>66.3</ele>
        <time>2011-11-13T10:57:54Z</time>
      </trkpt>
      <trkpt lat="47.41027" lon="-2.1655">
        <ele>66.3</ele>
        <time>2011-11-13T10:57:55Z</time>
      </trkpt>
      <trkpt lat="47.41029" lon="-2.16557">
        <ele>66.8</ele>
        <time>2011-11-13T10:57:56Z</time>
      </trkpt>
      <trkpt lat="47.41036" lon="-2.16557">
        <ele>68.6</ele>
        <time>2011-11-13T10:57:58Z</time>
      </trkpt>
      <trkpt lat="47.41041" lon="-2.16558">
        <ele>70.5</ele>
        <time>2011-11-13T10:57:59Z</time>
      </trkpt>
      <trkpt lat="47.4105" lon="-2.16561">
        <ele>71.5</ele>
        <time>2011-11-13T10:58:01Z</time>
      </trkpt>
      <trkpt lat="47.41055" lon="-2.16565">
        <ele>73.3</ele>
        <time>2011-11-13T10:58:03Z</time>
      </trkpt>
      <trkpt lat="47.4106" lon="-2.16567">
        <ele>69.9</ele>
        <time>2011-11-13T10:58:05Z</time>
      </trkpt>
      <trkpt lat="47.41064" lon="-2.16571">
        <ele>70.3</ele>
        <time>2011-11-13T10:58:08Z</time>
      </trkpt>
      <trkpt lat="47.41072" lon="-2.1657">
        <ele>67.6</ele>
        <time>2011-11-13T10:58:10Z</time>
      </trkpt>
      <trkpt lat="47.41076" lon="-2.16569">
        <ele>67</ele>
        <time>2011-11-13T10:58:11Z</time>
      </trkpt>
      <trkpt lat="47.4108" lon="-2.16572">
        <ele>67.8</ele>
        <time>2011-11-13T10:58:13Z</time>
      </trkpt>
      <trkpt lat="47.41089" lon="-2.16575">
        <ele>62.2</ele>
        <time>2011-11-13T10:58:15Z</time>
      </trkpt>
      <trkpt lat="47.4109" lon="-2.16566">
        <ele>64.2</ele>
        <time>2011-11-13T10:58:19Z</time>
      </trkpt>
      <trkpt lat="47.4109" lon="-2.16559">
        <ele>62.4</ele>
        <time>2011-11-13T10:58:23Z</time>
      </trkpt>
      <trkpt lat="47.41099" lon="-2.16546">
        <ele>61.5</ele>
        <time>2011-11-13T10:58:27Z</time>
      </trkpt>
      <trkpt lat="47.41106" lon="-2.16539">
        <ele>61.5</ele>
        <time>2011-11-13T10:58:31Z</time>
      </trkpt>
      <trkpt lat="47.41109" lon="-2.16533">
        <ele>60.2</ele>
        <time>2011-11-13T10:58:32Z</time>
      </trkpt>
      <trkpt lat="47.41114" lon="-2.16526">
        <ele>58.4</ele>
        <time>2011-11-13T10:58:33Z</time>
      </trkpt>
      <trkpt lat="47.41118" lon="-2.16521">
        <ele>56.8</ele>
        <time>2011-11-13T10:58:34Z</time>
      </trkpt>
      <trkpt lat="47.41122" lon="-2.16516">
        <ele>57.1</ele>
        <time>2011-11-13T10:58:40Z</time>
      </trkpt>
      <trkpt lat="47.41124" lon="-2.16508">
        <ele>59.5</ele>
        <time>2011-11-13T10:58:42Z</time>
      </trkpt>
      <trkpt lat="47.41124" lon="-2.165">
        <ele>62.9</ele>
        <time>2011-11-13T10:58:45Z</time>
      </trkpt>
      <trkpt lat="47.41121" lon="-2.16495">
        <ele>63.8</ele>
        <time>2011-11-13T10:58:48Z</time>
      </trkpt>
      <trkpt lat="47.41116" lon="-2.16488">
        <ele>64.7</ele>
        <time>2011-11-13T10:58:51Z</time>
      </trkpt>
      <trkpt lat="47.41109" lon="-2.16486">
        <ele>65.4</ele>
        <time>2011-11-13T10:58:53Z</time>
      </trkpt>
      <trkpt lat="47.41101" lon="-2.16475">
        <ele>65.1</ele>
        <time>2011-11-13T10:58:57Z</time>
      </trkpt>
      <trkpt lat="47.41099" lon="-2.16464">
        <ele>64</ele>
        <time>2011-11-13T10:58:59Z</time>
      </trkpt>
      <trkpt lat="47.41099" lon="-2.16456">
        <ele>62.3</ele>
        <time>2011-11-13T10:59:01Z</time>
      </trkpt>
      <trkpt lat="47.411" lon="-2.16449">
        <ele>62</ele>
        <time>2011-11-13T10:59:04Z</time>
      </trkpt>
      <trkpt lat="47.41094" lon="-2.16445">
        <ele>62.4</ele>
        <time>2011-11-13T10:59:07Z</time>
      </trkpt>
      <trkpt lat="47.41086" lon="-2.16449">
        <ele>61.6</ele>
        <time>2011-11-13T10:59:08Z</time>
      </trkpt>
      <trkpt lat="47.41081" lon="-2.16445">
        <ele>61.6</ele>
        <time>2011-11-13T10:59:12Z</time>
      </trkpt>
      <trkpt lat="47.41083" lon="-2.16439">
        <ele>62.3</ele>
        <time>2011-11-13T10:59:15Z</time>
      </trkpt>
      <trkpt lat="47.41078" lon="-2.16437">
        <ele>63.9</ele>
        <time>2011-11-13T10:59:17Z</time>
      </trkpt>
      <trkpt lat="47.41077" lon="-2.1643">
        <ele>62.8</ele>
        <time>2011-11-13T10:59:19Z</time>
      </trkpt>
      <trkpt lat="47.41065" lon="-2.1643">
        <ele>60.4</ele>
        <time>2011-11-13T10:59:22Z</time>
      </trkpt>
      <trkpt lat="47.4106" lon="-2.16437">
        <ele>59</ele>
        <time>2011-11-13T10:59:29Z</time>
      </trkpt>
      <trkpt lat="47.41056" lon="-2.16434">
        <ele>62.1</ele>
        <time>2011-11-13T10:59:32Z</time>
      </trkpt>
      <trkpt lat="47.41052" lon="-2.16428">
        <ele>60.5</ele>
        <time>2011-11-13T10:59:36Z</time>
      </trkpt>
      <trkpt lat="47.41047" lon="-2.16429">
        <ele>60.3</ele>
        <time>2011-11-13T10:59:37Z</time>
      </trkpt>
      <trkpt lat="47.41042" lon="-2.1642">
        <ele>59.8</ele>
        <time>2011-11-13T10:59:41Z</time>
      </trkpt>
      <trkpt lat="47.41043" lon="-2.16413">
        <ele>60.7</ele>
        <time>2011-11-13T10:59:44Z</time>
      </trkpt>
      <trkpt lat="47.4104" lon="-2.16405">
        <ele>59.8</ele>
        <time>2011-11-13T10:59:46Z</time>
      </trkpt>
      <trkpt lat="47.41034" lon="-2.16399">
        <ele>60</ele>
        <time>2011-11-13T10:59:50Z</time>
      </trkpt>
      <trkpt lat="47.4103" lon="-2.16393">
        <ele>63</ele>
        <time>2011-11-13T10:59:52Z</time>
      </trkpt>
      <trkpt lat="47.41024" lon="-2.16389">
        <ele>62.7</ele>
        <time>2011-11-13T10:59:54Z</time>
      </trkpt>
      <trkpt lat="47.41025" lon="-2.16371">
        <ele>58.7</ele>
        <time>2011-11-13T10:59:56Z</time>
      </trkpt>
      <trkpt lat="47.4103" lon="-2.16368">
        <ele>58.3</ele>
        <time>2011-11-13T10:59:58Z</time>
      </trkpt>
      <trkpt lat="47.41037" lon="-2.16372">
        <ele>58.2</ele>
        <time>2011-11-13T11:00:00Z</time>
      </trkpt>
      <trkpt lat="47.41043" lon="-2.16371">
        <ele>57.8</ele>
        <time>2011-11-13T11:00:01Z</time>
      </trkpt>
      <trkpt lat="47.41048" lon="-2.1637">
        <ele>56.6</ele>
        <time>2011-11-13T11:00:03Z</time>
      </trkpt>
      <trkpt lat="47.41052" lon="-2.16369">
        <ele>55.9</ele>
        <time>2011-11-13T11:00:04Z</time>
      </trkpt>
      <trkpt lat="47.41057" lon="-2.16372">
        <ele>56.5</ele>
        <time>2011-11-13T11:00:06Z</time>
      </trkpt>
      <trkpt lat="47.41063" lon="-2.16372">
        <ele>57.2</ele>
        <time>2011-11-13T11:00:09Z</time>
      </trkpt>
      <trkpt lat="47.41069" lon="-2.16374">
        <ele>58.7</ele>
        <time>2011-11-13T11:00:13Z</time>
      </trkpt>
      <trkpt lat="47.41075" lon="-2.16375">
        <ele>58.3</ele>
        <time>2011-11-13T11:00:16Z</time>
      </trkpt>
      <trkpt lat="47.41078" lon="-2.16382">
        <ele>60.1</ele>
        <time>2011-11-13T11:00:18Z</time>
      </trkpt>
      <trkpt lat="47.41079" lon="-2.1639">
        <ele>59.5</ele>
        <time>2011-11-13T11:00:20Z</time>
      </trkpt>
      <trkpt lat="47.41086" lon="-2.16398">
        <ele>60.5</ele>
        <time>2011-11-13T11:00:22Z</time>
      </trkpt>
      <trkpt lat="47.41091" lon="-2.16403">
        <ele>58.6</ele>
        <time>2011-11-13T11:00:24Z</time>
      </trkpt>
      <trkpt lat="47.41092" lon="-2.1641">
        <ele>59</ele>
        <time>2011-11-13T11:00:25Z</time>
      </trkpt>
      <trkpt lat="47.41096" lon="-2.16418">
        <ele>61.7</ele>
        <time>2011-11-13T11:00:28Z</time>
      </trkpt>
      <trkpt lat="47.41103" lon="-2.16423">
        <ele>61.9</ele>
        <time>2011-11-13T11:00:31Z</time>
      </trkpt>
      <trkpt lat="47.41103" lon="-2.16433">
        <ele>64.2</ele>
        <time>2011-11-13T11:00:33Z</time>
      </trkpt>
      <trkpt lat="47.41107" lon="-2.16437">
        <ele>63</ele>
        <time>2011-11-13T11:00:34Z</time>
      </trkpt>
      <trkpt lat="47.41114" lon="-2.16442">
        <ele>63.2</ele>
        <time>2011-11-13T11:00:36Z</time>
      </trkpt>
      <trkpt lat="47.41118" lon="-2.16448">
        <ele>64</ele>
        <time>2011-11-13T11:00:37Z</time>
      </trkpt>
      <trkpt lat="47.41123" lon="-2.1645">
        <ele>64.3</ele>
        <time>2011-11-13T11:00:38Z</time>
      </trkpt>
      <trkpt lat="47.41128" lon="-2.16457">
        <ele>64.8</ele>
        <time>2011-11-13T11:00:40Z</time>
      </trkpt>
      <trkpt lat="47.41133" lon="-2.16459">
        <ele>65.6</ele>
        <time>2011-11-13T11:00:41Z</time>
      </trkpt>
      <trkpt lat="47.41137" lon="-2.16466">
        <ele>65.9</ele>
        <time>2011-11-13T11:00:43Z</time>
      </trkpt>
      <trkpt lat="47.41139" lon="-2.16474">
        <ele>65.2</ele>
        <time>2011-11-13T11:00:44Z</time>
      </trkpt>
      <trkpt lat="47.41141" lon="-2.16481">
        <ele>59.9</ele>
        <time>2011-11-13T11:00:48Z</time>
      </trkpt>
      <trkpt lat="47.41146" lon="-2.16476">
        <ele>57.4</ele>
        <time>2011-11-13T11:00:54Z</time>
      </trkpt>
      <trkpt lat="47.4114" lon="-2.16471">
        <ele>59.8</ele>
        <time>2011-11-13T11:00:57Z</time>
      </trkpt>
      <trkpt lat="47.41142" lon="-2.16464">
        <ele>60.6</ele>
        <time>2011-11-13T11:00:58Z</time>
      </trkpt>
      <trkpt lat="47.41137" lon="-2.1646">
        <ele>61.7</ele>
        <time>2011-11-13T11:01:01Z</time>
      </trkpt>
      <trkpt lat="47.41133" lon="-2.16453">
        <ele>62.1</ele>
        <time>2011-11-13T11:01:04Z</time>
      </trkpt>
      <trkpt lat="47.41131" lon="-2.16445">
        <ele>63.9</ele>
        <time>2011-11-13T11:01:09Z</time>
      </trkpt>
      <trkpt lat="47.41126" lon="-2.16443">
        <ele>64.4</ele>
        <time>2011-11-13T11:01:11Z</time>
      </trkpt>
      <trkpt lat="47.41123" lon="-2.16436">
        <ele>63.6</ele>
        <time>2011-11-13T11:01:13Z</time>
      </trkpt>
      <trkpt lat="47.41114" lon="-2.16427">
        <ele>63.7</ele>
        <time>2011-11-13T11:01:16Z</time>
      </trkpt>
      <trkpt lat="47.41108" lon="-2.16416">
        <ele>61.2</ele>
        <time>2011-11-13T11:01:19Z</time>
      </trkpt>
      <trkpt lat="47.41102" lon="-2.16412">
        <ele>60.5</ele>
        <time>2011-11-13T11:01:21Z</time>
      </trkpt>
      <trkpt lat="47.41108" lon="-2.1641">
        <ele>60.5</ele>
        <time>2011-11-13T11:01:23Z</time>
      </trkpt>
      <trkpt lat="47.41113" lon="-2.16413">
        <ele>62.8</ele>
        <time>2011-11-13T11:01:25Z</time>
      </trkpt>
      <trkpt lat="47.41118" lon="-2.16415">
        <ele>64.2</ele>
        <time>2011-11-13T11:01:27Z</time>
      </trkpt>
      <trkpt lat="47.41125" lon="-2.16416">
        <ele>65.6</ele>
        <time>2011-11-13T11:01:29Z</time>
      </trkpt>
      <trkpt lat="47.41129" lon="-2.16418">
        <ele>65.7</ele>
        <time>2011-11-13T11:01:30Z</time>
      </trkpt>
      <trkpt lat="47.41136" lon="-2.16419">
        <ele>65.5</ele>
        <time>2011-11-13T11:01:32Z</time>
      </trkpt>
      <trkpt lat="47.41143" lon="-2.16419">
        <ele>66.8</ele>
        <time>2011-11-13T11:01:35Z</time>
      </trkpt>
      <trkpt lat="47.41148" lon="-2.16422">
        <ele>68.1</ele>
        <time>2011-11-13T11:01:36Z</time>
      </trkpt>
      <trkpt lat="47.41153" lon="-2.16435">
        <ele>71.1</ele>
        <time>2011-11-13T11:01:40Z</time>
      </trkpt>
      <trkpt lat="47.41152" lon="-2.16442">
        <ele>73.3</ele>
        <time>2011-11-13T11:01:43Z</time>
      </trkpt>
      <trkpt lat="47.41154" lon="-2.16452">
        <ele>73.6</ele>
        <time>2011-11-13T11:01:45Z</time>
      </trkpt>
      <trkpt lat="47.41159" lon="-2.16454">
        <ele>76.2</ele>
        <time>2011-11-13T11:01:47Z</time>
      </trkpt>
      <trkpt lat="47.4116" lon="-2.16461">
        <ele>74.8</ele>
        <time>2011-11-13T11:01:50Z</time>
      </trkpt>
      <trkpt lat="47.41161" lon="-2.16474">
        <ele>67.8</ele>
        <time>2011-11-13T11:01:52Z</time>
      </trkpt>
      <trkpt lat="47.41165" lon="-2.16471">
        <ele>67.8</ele>
        <time>2011-11-13T11:02:04Z</time>
      </trkpt>
      <trkpt lat="47.4117" lon="-2.16468">
        <ele>69.3</ele>
        <time>2011-11-13T11:02:09Z</time>
      </trkpt>
      <trkpt lat="47.41177" lon="-2.16466">
        <ele>68.4</ele>
        <time>2011-11-13T11:02:12Z</time>
      </trkpt>
      <trkpt lat="47.41183" lon="-2.16471">
        <ele>68.5</ele>
        <time>2011-11-13T11:02:15Z</time>
      </trkpt>
      <trkpt lat="47.41185" lon="-2.16479">
        <ele>68.9</ele>
        <time>2011-11-13T11:02:16Z</time>
      </trkpt>
      <trkpt lat="47.4119" lon="-2.16481">
        <ele>70.1</ele>
        <time>2011-11-13T11:02:19Z</time>
      </trkpt>
      <trkpt lat="47.41196" lon="-2.16483">
        <ele>70.6</ele>
        <time>2011-11-13T11:02:20Z</time>
      </trkpt>
      <trkpt lat="47.412" lon="-2.16492">
        <ele>71.7</ele>
        <time>2011-11-13T11:02:22Z</time>
      </trkpt>
      <trkpt lat="47.41204" lon="-2.16501">
        <ele>71.3</ele>
        <time>2011-11-13T11:02:24Z</time>
      </trkpt>
      <trkpt lat="47.4121" lon="-2.16506">
        <ele>71.5</ele>
        <time>2011-11-13T11:02:26Z</time>
      </trkpt>
      <trkpt lat="47.41213" lon="-2.16512">
        <ele>71.4</ele>
        <time>2011-11-13T11:02:27Z</time>
      </trkpt>
      <trkpt lat="47.41218" lon="-2.16521">
        <ele>71.7</ele>
        <time>2011-11-13T11:02:29Z</time>
      </trkpt>
      <trkpt lat="47.41223" lon="-2.16529">
        <ele>71.4</ele>
        <time>2011-11-13T11:02:31Z</time>
      </trkpt>
      <trkpt lat="47.41229" lon="-2.16534">
        <ele>70.9</ele>
        <time>2011-11-13T11:02:32Z</time>
      </trkpt>
      <trkpt lat="47.41231" lon="-2.16543">
        <ele>69.3</ele>
        <time>2011-11-13T11:02:34Z</time>
      </trkpt>
      <trkpt lat="47.41234" lon="-2.16551">
        <ele>64.3</ele>
        <time>2011-11-13T11:02:39Z</time>
      </trkpt>
      <trkpt lat="47.41237" lon="-2.1656">
        <ele>60.7</ele>
        <time>2011-11-13T11:02:41Z</time>
      </trkpt>
      <trkpt lat="47.4124" lon="-2.16569">
        <ele>62.7</ele>
        <time>2011-11-13T11:02:43Z</time>
      </trkpt>
      <trkpt lat="47.41242" lon="-2.16578">
        <ele>62.7</ele>
        <time>2011-11-13T11:02:46Z</time>
      </trkpt>
      <trkpt lat="47.41248" lon="-2.16591">
        <ele>63.2</ele>
        <time>2011-11-13T11:02:48Z</time>
      </trkpt>
      <trkpt lat="47.41251" lon="-2.16603">
        <ele>64.1</ele>
        <time>2011-11-13T11:02:50Z</time>
      </trkpt>
      <trkpt lat="47.41255" lon="-2.16608">
        <ele>63.6</ele>
        <time>2011-11-13T11:02:51Z</time>
      </trkpt>
      <trkpt lat="47.41255" lon="-2.16618">
        <ele>61.9</ele>
        <time>2011-11-13T11:02:52Z</time>
      </trkpt>
      <trkpt lat="47.41258" lon="-2.16624">
        <ele>59.9</ele>
        <time>2011-11-13T11:02:53Z</time>
      </trkpt>
      <trkpt lat="47.41262" lon="-2.16631">
        <ele>60.5</ele>
        <time>2011-11-13T11:02:56Z</time>
      </trkpt>
      <trkpt lat="47.41265" lon="-2.16638">
        <ele>55.8</ele>
        <time>2011-11-13T11:02:59Z</time>
      </trkpt>
      <trkpt lat="47.4127" lon="-2.16635">
        <ele>52.5</ele>
        <time>2011-11-13T11:03:04Z</time>
      </trkpt>
      <trkpt lat="47.41274" lon="-2.16624">
        <ele>53.6</ele>
        <time>2011-11-13T11:03:06Z</time>
      </trkpt>
      <trkpt lat="47.41273" lon="-2.16616">
        <ele>52.2</ele>
        <time>2011-11-13T11:03:09Z</time>
      </trkpt>
      <trkpt lat="47.41278" lon="-2.16612">
        <ele>57.1</ele>
        <time>2011-11-13T11:03:13Z</time>
      </trkpt>
      <trkpt lat="47.4128" lon="-2.16606">
        <ele>56.7</ele>
        <time>2011-11-13T11:03:15Z</time>
      </trkpt>
      <trkpt lat="47.41276" lon="-2.1661">
        <ele>57.9</ele>
        <time>2011-11-13T11:03:19Z</time>
      </trkpt>
      <trkpt lat="47.4128" lon="-2.16607">
        <ele>53.8</ele>
        <time>2011-11-13T11:03:23Z</time>
      </trkpt>
      <trkpt lat="47.41286" lon="-2.16608">
        <ele>56.2</ele>
        <time>2011-11-13T11:03:26Z</time>
      </trkpt>
      <trkpt lat="47.41292" lon="-2.16611">
        <ele>55.3</ele>
        <time>2011-11-13T11:03:28Z</time>
      </trkpt>
      <trkpt lat="47.41297" lon="-2.16617">
        <ele>55.2</ele>
        <time>2011-11-13T11:03:30Z</time>
      </trkpt>
      <trkpt lat="47.41303" lon="-2.16615">
        <ele>55.8</ele>
        <time>2011-11-13T11:03:31Z</time>
      </trkpt>
      <trkpt lat="47.41311" lon="-2.16614">
        <ele>55.5</ele>
        <time>2011-11-13T11:03:33Z</time>
      </trkpt>
      <trkpt lat="47.41318" lon="-2.1662">
        <ele>54.9</ele>
        <time>2011-11-13T11:03:35Z</time>
      </trkpt>
      <trkpt lat="47.41326" lon="-2.16625">
        <ele>55.6</ele>
        <time>2011-11-13T11:03:37Z</time>
      </trkpt>
      <trkpt lat="47.41331" lon="-2.16634">
        <ele>54.1</ele>
        <time>2011-11-13T11:03:40Z</time>
      </trkpt>
      <trkpt lat="47.41333" lon="-2.16643">
        <ele>51.7</ele>
        <time>2011-11-13T11:03:42Z</time>
      </trkpt>
      <trkpt lat="47.41339" lon="-2.16642">
        <ele>50.6</ele>
        <time>2011-11-13T11:03:44Z</time>
      </trkpt>
      <trkpt lat="47.41341" lon="-2.16651">
        <ele>49.8</ele>
        <time>2011-11-13T11:03:46Z</time>
      </trkpt>
      <trkpt lat="47.41344" lon="-2.16658">
        <ele>53.7</ele>
        <time>2011-11-13T11:03:54Z</time>
      </trkpt>
      <trkpt lat="47.41344" lon="-2.16666">
        <ele>48.9</ele>
        <time>2011-11-13T11:03:57Z</time>
      </trkpt>
      <trkpt lat="47.41346" lon="-2.1666">
        <ele>44.9</ele>
        <time>2011-11-13T11:04:07Z</time>
      </trkpt>
      <trkpt lat="47.41337" lon="-2.16655">
        <ele>44.1</ele>
        <time>2011-11-13T11:06:20Z</time>
      </trkpt>
      <trkpt lat="47.41328" lon="-2.16654">
        <ele>44.3</ele>
        <time>2011-11-13T11:06:21Z</time>
      </trkpt>
      <trkpt lat="47.41322" lon="-2.16646">
        <ele>46</ele>
        <time>2011-11-13T11:06:23Z</time>
      </trkpt>
      <trkpt lat="47.41314" lon="-2.16639">
        <ele>49.5</ele>
        <time>2011-11-13T11:06:25Z</time>
      </trkpt>
      <trkpt lat="47.41307" lon="-2.16637">
        <ele>49.7</ele>
        <time>2011-11-13T11:06:27Z</time>
      </trkpt>
      <trkpt lat="47.41302" lon="-2.1664">
        <ele>49.7</ele>
        <time>2011-11-13T11:06:29Z</time>
      </trkpt>
      <trkpt lat="47.41296" lon="-2.16644">
        <ele>51.5</ele>
        <time>2011-11-13T11:06:31Z</time>
      </trkpt>
      <trkpt lat="47.41291" lon="-2.16646">
        <ele>52.6</ele>
        <time>2011-11-13T11:06:33Z</time>
      </trkpt>
      <trkpt lat="47.41286" lon="-2.16641">
        <ele>53.5</ele>
        <time>2011-11-13T11:06:36Z</time>
      </trkpt>
      <trkpt lat="47.41282" lon="-2.16644">
        <ele>56.9</ele>
        <time>2011-11-13T11:06:39Z</time>
      </trkpt>
      <trkpt lat="47.41275" lon="-2.16648">
        <ele>56.4</ele>
        <time>2011-11-13T11:06:41Z</time>
      </trkpt>
      <trkpt lat="47.4127" lon="-2.16655">
        <ele>57.1</ele>
        <time>2011-11-13T11:06:45Z</time>
      </trkpt>
      <trkpt lat="47.41266" lon="-2.16665">
        <ele>58</ele>
        <time>2011-11-13T11:06:48Z</time>
      </trkpt>
      <trkpt lat="47.41264" lon="-2.16671">
        <ele>58.4</ele>
        <time>2011-11-13T11:06:50Z</time>
      </trkpt>
      <trkpt lat="47.41261" lon="-2.16676">
        <ele>59</ele>
        <time>2011-11-13T11:06:51Z</time>
      </trkpt>
      <trkpt lat="47.41259" lon="-2.16685">
        <ele>60</ele>
        <time>2011-11-13T11:06:53Z</time>
      </trkpt>
      <trkpt lat="47.41256" lon="-2.16693">
        <ele>59</ele>
        <time>2011-11-13T11:06:54Z</time>
      </trkpt>
      <trkpt lat="47.41252" lon="-2.16704">
        <ele>59.6</ele>
        <time>2011-11-13T11:06:56Z</time>
      </trkpt>
      <trkpt lat="47.41249" lon="-2.16713">
        <ele>60.2</ele>
        <time>2011-11-13T11:06:57Z</time>
      </trkpt>
      <trkpt lat="47.41248" lon="-2.16726">
        <ele>61.2</ele>
        <time>2011-11-13T11:06:59Z</time>
      </trkpt>
      <trkpt lat="47.41251" lon="-2.16738">
        <ele>57.7</ele>
        <time>2011-11-13T11:07:02Z</time>
      </trkpt>
      <trkpt lat="47.4125" lon="-2.16747">
        <ele>56.9</ele>
        <time>2011-11-13T11:07:04Z</time>
      </trkpt>
      <trkpt lat="47.41247" lon="-2.16752">
        <ele>56.8</ele>
        <time>2011-11-13T11:07:05Z</time>
      </trkpt>
      <trkpt lat="47.41242" lon="-2.16756">
        <ele>55.7</ele>
        <time>2011-11-13T11:07:06Z</time>
      </trkpt>
      <trkpt lat="47.41237" lon="-2.1676">
        <ele>56.1</ele>
        <time>2011-11-13T11:07:07Z</time>
      </trkpt>
      <trkpt lat="47.41231" lon="-2.16768">
        <ele>55.6</ele>
        <time>2011-11-13T11:07:09Z</time>
      </trkpt>
      <trkpt lat="47.41228" lon="-2.16774">
        <ele>54.7</ele>
        <time>2011-11-13T11:07:10Z</time>
      </trkpt>
      <trkpt lat="47.41224" lon="-2.16779">
        <ele>54.1</ele>
        <time>2011-11-13T11:07:11Z</time>
      </trkpt>
      <trkpt lat="47.41219" lon="-2.16782">
        <ele>54.5</ele>
        <time>2011-11-13T11:07:12Z</time>
      </trkpt>
      <trkpt lat="47.41214" lon="-2.16787">
        <ele>54.6</ele>
        <time>2011-11-13T11:07:13Z</time>
      </trkpt>
      <trkpt lat="47.41208" lon="-2.1679">
        <ele>54.2</ele>
        <time>2011-11-13T11:07:14Z</time>
      </trkpt>
      <trkpt lat="47.41205" lon="-2.16797">
        <ele>54.7</ele>
        <time>2011-11-13T11:07:15Z</time>
      </trkpt>
      <trkpt lat="47.412" lon="-2.16801">
        <ele>54.9</ele>
        <time>2011-11-13T11:07:16Z</time>
      </trkpt>
      <trkpt lat="47.4119" lon="-2.16812">
        <ele>55.9</ele>
        <time>2011-11-13T11:07:18Z</time>
      </trkpt>
      <trkpt lat="47.41184" lon="-2.16813">
        <ele>57</ele>
        <time>2011-11-13T11:07:20Z</time>
      </trkpt>
      <trkpt lat="47.41176" lon="-2.16824">
        <ele>57.3</ele>
        <time>2011-11-13T11:07:22Z</time>
      </trkpt>
      <trkpt lat="47.41172" lon="-2.16826">
        <ele>57.3</ele>
        <time>2011-11-13T11:07:23Z</time>
      </trkpt>
      <trkpt lat="47.41164" lon="-2.16831">
        <ele>58.2</ele>
        <time>2011-11-13T11:07:25Z</time>
      </trkpt>
      <trkpt lat="47.41158" lon="-2.16841">
        <ele>59</ele>
        <time>2011-11-13T11:07:26Z</time>
      </trkpt>
      <trkpt lat="47.41154" lon="-2.16847">
        <ele>58.9</ele>
        <time>2011-11-13T11:07:27Z</time>
      </trkpt>
      <trkpt lat="47.4115" lon="-2.16855">
        <ele>58.3</ele>
        <time>2011-11-13T11:07:29Z</time>
      </trkpt>
      <trkpt lat="47.41148" lon="-2.16861">
        <ele>59.1</ele>
        <time>2011-11-13T11:07:30Z</time>
      </trkpt>
      <trkpt lat="47.4115" lon="-2.16874">
        <ele>61.3</ele>
        <time>2011-11-13T11:07:32Z</time>
      </trkpt>
      <trkpt lat="47.41153" lon="-2.16882">
        <ele>57.5</ele>
        <time>2011-11-13T11:07:34Z</time>
      </trkpt>
      <trkpt lat="47.41152" lon="-2.16889">
        <ele>58.5</ele>
        <time>2011-11-13T11:07:35Z</time>
      </trkpt>
      <trkpt lat="47.41154" lon="-2.16896">
        <ele>58.9</ele>
        <time>2011-11-13T11:07:36Z</time>
      </trkpt>
      <trkpt lat="47.41159" lon="-2.16906">
        <ele>57.1</ele>
        <time>2011-11-13T11:07:38Z</time>
      </trkpt>
      <trkpt lat="47.41165" lon="-2.16916">
        <ele>56.5</ele>
        <time>2011-11-13T11:07:40Z</time>
      </trkpt>
      <trkpt lat="47.41167" lon="-2.16924">
        <ele>55.3</ele>
        <time>2011-11-13T11:07:41Z</time>
      </trkpt>
      <trkpt lat="47.41166" lon="-2.16931">
        <ele>54.1</ele>
        <time>2011-11-13T11:07:42Z</time>
      </trkpt>
      <trkpt lat="47.41169" lon="-2.16939">
        <ele>55.2</ele>
        <time>2011-11-13T11:07:43Z</time>
      </trkpt>
      <trkpt lat="47.41171" lon="-2.16946">
        <ele>54.9</ele>
        <time>2011-11-13T11:07:44Z</time>
      </trkpt>
      <trkpt lat="47.41176" lon="-2.1695">
        <ele>54.8</ele>
        <time>2011-11-13T11:07:45Z</time>
      </trkpt>
      <trkpt lat="47.4118" lon="-2.16954">
        <ele>56.2</ele>
        <time>2011-11-13T11:07:46Z</time>
      </trkpt>
      <trkpt lat="47.41182" lon="-2.16968">
        <ele>57</ele>
        <time>2011-11-13T11:07:48Z</time>
      </trkpt>
      <trkpt lat="47.41183" lon="-2.16975">
        <ele>56.1</ele>
        <time>2011-11-13T11:07:49Z</time>
      </trkpt>
      <trkpt lat="47.41183" lon="-2.16989">
        <ele>57.9</ele>
        <time>2011-11-13T11:07:51Z</time>
      </trkpt>
      <trkpt lat="47.41185" lon="-2.16996">
        <ele>57.8</ele>
        <time>2011-11-13T11:07:52Z</time>
      </trkpt>
      <trkpt lat="47.41189" lon="-2.17001">
        <ele>56.5</ele>
        <time>2011-11-13T11:07:53Z</time>
      </trkpt>
      <trkpt lat="47.41192" lon="-2.17007">
        <ele>55.5</ele>
        <time>2011-11-13T11:07:54Z</time>
      </trkpt>
      <trkpt lat="47.41194" lon="-2.17014">
        <ele>55.4</ele>
        <time>2011-11-13T11:07:55Z</time>
      </trkpt>
      <trkpt lat="47.41195" lon="-2.17023">
        <ele>56.2</ele>
        <time>2011-11-13T11:07:56Z</time>
      </trkpt>
      <trkpt lat="47.412" lon="-2.17025">
        <ele>56.3</ele>
        <time>2011-11-13T11:07:57Z</time>
      </trkpt>
      <trkpt lat="47.41201" lon="-2.17033">
        <ele>56.2</ele>
        <time>2011-11-13T11:07:58Z</time>
      </trkpt>
      <trkpt lat="47.41205" lon="-2.17041">
        <ele>54.2</ele>
        <time>2011-11-13T11:08:00Z</time>
      </trkpt>
      <trkpt lat="47.41207" lon="-2.17047">
        <ele>54.7</ele>
        <time>2011-11-13T11:08:01Z</time>
      </trkpt>
      <trkpt lat="47.4121" lon="-2.17056">
        <ele>56.3</ele>
        <time>2011-11-13T11:08:03Z</time>
      </trkpt>
      <trkpt lat="47.41214" lon="-2.17067">
        <ele>57.6</ele>
        <time>2011-11-13T11:08:05Z</time>
      </trkpt>
      <trkpt lat="47.41218" lon="-2.17073">
        <ele>57.6</ele>
        <time>2011-11-13T11:08:06Z</time>
      </trkpt>
      <trkpt lat="47.41223" lon="-2.17083">
        <ele>58.7</ele>
        <time>2011-11-13T11:08:08Z</time>
      </trkpt>
      <trkpt lat="47.41224" lon="-2.17089">
        <ele>58.4</ele>
        <time>2011-11-13T11:08:09Z</time>
      </trkpt>
      <trkpt lat="47.41228" lon="-2.17096">
        <ele>59</ele>
        <time>2011-11-13T11:08:10Z</time>
      </trkpt>
      <trkpt lat="47.41229" lon="-2.17102">
        <ele>58.7</ele>
        <time>2011-11-13T11:08:11Z</time>
      </trkpt>
      <trkpt lat="47.41234" lon="-2.17105">
        <ele>58.7</ele>
        <time>2011-11-13T11:08:12Z</time>
      </trkpt>
      <trkpt lat="47.41233" lon="-2.17118">
        <ele>60</ele>
        <time>2011-11-13T11:08:14Z</time>
      </trkpt>
      <trkpt lat="47.41236" lon="-2.17128">
        <ele>63</ele>
        <time>2011-11-13T11:08:16Z</time>
      </trkpt>
      <trkpt lat="47.41238" lon="-2.17133">
        <ele>62.9</ele>
        <time>2011-11-13T11:08:17Z</time>
      </trkpt>
      <trkpt lat="47.41237" lon="-2.17142">
        <ele>62.1</ele>
        <time>2011-11-13T11:08:18Z</time>
      </trkpt>
      <trkpt lat="47.41239" lon="-2.1715">
        <ele>61.3</ele>
        <time>2011-11-13T11:08:20Z</time>
      </trkpt>
      <trkpt lat="47.4124" lon="-2.17161">
        <ele>60.8</ele>
        <time>2011-11-13T11:08:22Z</time>
      </trkpt>
      <trkpt lat="47.41243" lon="-2.17166">
        <ele>61.2</ele>
        <time>2011-11-13T11:08:23Z</time>
      </trkpt>
      <trkpt lat="47.41244" lon="-2.17173">
        <ele>60.7</ele>
        <time>2011-11-13T11:08:24Z</time>
      </trkpt>
      <trkpt lat="47.41244" lon="-2.1718">
        <ele>60.4</ele>
        <time>2011-11-13T11:08:25Z</time>
      </trkpt>
      <trkpt lat="47.41252" lon="-2.17189">
        <ele>58.4</ele>
        <time>2011-11-13T11:08:27Z</time>
      </trkpt>
      <trkpt lat="47.4126" lon="-2.17194">
        <ele>57.1</ele>
        <time>2011-11-13T11:08:29Z</time>
      </trkpt>
      <trkpt lat="47.41264" lon="-2.17194">
        <ele>56.8</ele>
        <time>2011-11-13T11:08:31Z</time>
      </trkpt>
      <trkpt lat="47.41268" lon="-2.17188">
        <ele>57.7</ele>
        <time>2011-11-13T11:08:32Z</time>
      </trkpt>
      <trkpt lat="47.41272" lon="-2.1718">
        <ele>58.4</ele>
        <time>2011-11-13T11:08:34Z</time>
      </trkpt>
      <trkpt lat="47.41272" lon="-2.17173">
        <ele>56.9</ele>
        <time>2011-11-13T11:08:37Z</time>
      </trkpt>
      <trkpt lat="47.41277" lon="-2.17172">
        <ele>59.1</ele>
        <time>2011-11-13T11:08:42Z</time>
      </trkpt>
      <trkpt lat="47.41272" lon="-2.17175">
        <ele>58.6</ele>
        <time>2011-11-13T11:08:44Z</time>
      </trkpt>
      <trkpt lat="47.41266" lon="-2.17183">
        <ele>58</ele>
        <time>2011-11-13T11:08:46Z</time>
      </trkpt>
      <trkpt lat="47.41261" lon="-2.1719">
        <ele>57.2</ele>
        <time>2011-11-13T11:08:48Z</time>
      </trkpt>
      <trkpt lat="47.41254" lon="-2.17194">
        <ele>56.7</ele>
        <time>2011-11-13T11:08:51Z</time>
      </trkpt>
      <trkpt lat="47.41249" lon="-2.17193">
        <ele>56.1</ele>
        <time>2011-11-13T11:08:53Z</time>
      </trkpt>
      <trkpt lat="47.41242" lon="-2.17185">
        <ele>57.2</ele>
        <time>2011-11-13T11:08:55Z</time>
      </trkpt>
      <trkpt lat="47.41242" lon="-2.17178">
        <ele>57.5</ele>
        <time>2011-11-13T11:08:56Z</time>
      </trkpt>
      <trkpt lat="47.41237" lon="-2.17173">
        <ele>55.3</ele>
        <time>2011-11-13T11:08:58Z</time>
      </trkpt>
      <trkpt lat="47.41237" lon="-2.17166">
        <ele>54.5</ele>
        <time>2011-11-13T11:08:59Z</time>
      </trkpt>
      <trkpt lat="47.41232" lon="-2.17158">
        <ele>55.2</ele>
        <time>2011-11-13T11:09:01Z</time>
      </trkpt>
      <trkpt lat="47.4123" lon="-2.17148">
        <ele>55.3</ele>
        <time>2011-11-13T11:09:03Z</time>
      </trkpt>
      <trkpt lat="47.41229" lon="-2.17154">
        <ele>56.6</ele>
        <time>2011-11-13T11:09:04Z</time>
      </trkpt>
      <trkpt lat="47.41222" lon="-2.17158">
        <ele>56.9</ele>
        <time>2011-11-13T11:09:06Z</time>
      </trkpt>
      <trkpt lat="47.41212" lon="-2.17163">
        <ele>56.4</ele>
        <time>2011-11-13T11:09:08Z</time>
      </trkpt>
      <trkpt lat="47.41205" lon="-2.17172">
        <ele>56.8</ele>
        <time>2011-11-13T11:09:10Z</time>
      </trkpt>
      <trkpt lat="47.412" lon="-2.17179">
        <ele>59</ele>
        <time>2011-11-13T11:09:12Z</time>
      </trkpt>
      <trkpt lat="47.41197" lon="-2.17183">
        <ele>59.6</ele>
        <time>2011-11-13T11:09:13Z</time>
      </trkpt>
      <trkpt lat="47.41193" lon="-2.17193">
        <ele>58.9</ele>
        <time>2011-11-13T11:09:15Z</time>
      </trkpt>
      <trkpt lat="47.4119" lon="-2.17207">
        <ele>59.2</ele>
        <time>2011-11-13T11:09:17Z</time>
      </trkpt>
      <trkpt lat="47.41187" lon="-2.17218">
        <ele>58.7</ele>
        <time>2011-11-13T11:09:19Z</time>
      </trkpt>
      <trkpt lat="47.41182" lon="-2.17221">
        <ele>60.2</ele>
        <time>2011-11-13T11:09:20Z</time>
      </trkpt>
      <trkpt lat="47.41177" lon="-2.17224">
        <ele>61.7</ele>
        <time>2011-11-13T11:09:21Z</time>
      </trkpt>
      <trkpt lat="47.41172" lon="-2.17227">
        <ele>59.8</ele>
        <time>2011-11-13T11:09:23Z</time>
      </trkpt>
      <trkpt lat="47.41166" lon="-2.17235">
        <ele>61.2</ele>
        <time>2011-11-13T11:09:25Z</time>
      </trkpt>
      <trkpt lat="47.41164" lon="-2.17243">
        <ele>63.8</ele>
        <time>2011-11-13T11:09:28Z</time>
      </trkpt>
      <trkpt lat="47.41161" lon="-2.17249">
        <ele>64.7</ele>
        <time>2011-11-13T11:09:30Z</time>
      </trkpt>
      <trkpt lat="47.41156" lon="-2.17258">
        <ele>62.6</ele>
        <time>2011-11-13T11:09:32Z</time>
      </trkpt>
      <trkpt lat="47.41151" lon="-2.17257">
        <ele>64.4</ele>
        <time>2011-11-13T11:09:35Z</time>
      </trkpt>
      <trkpt lat="47.41155" lon="-2.17263">
        <ele>61.8</ele>
        <time>2011-11-13T11:09:43Z</time>
      </trkpt>
      <trkpt lat="47.4116" lon="-2.17265">
        <ele>61.9</ele>
        <time>2011-11-13T11:09:50Z</time>
      </trkpt>
      <trkpt lat="47.41155" lon="-2.17258">
        <ele>60.4</ele>
        <time>2011-11-13T11:09:54Z</time>
      </trkpt>
      <trkpt lat="47.41152" lon="-2.17264">
        <ele>54</ele>
        <time>2011-11-13T11:09:57Z</time>
      </trkpt>
      <trkpt lat="47.41153" lon="-2.17256">
        <ele>56.3</ele>
        <time>2011-11-13T11:10:17Z</time>
      </trkpt>
      <trkpt lat="47.41152" lon="-2.17263">
        <ele>58.2</ele>
        <time>2011-11-13T11:10:21Z</time>
      </trkpt>
      <trkpt lat="47.41158" lon="-2.17264">
        <ele>58</ele>
        <time>2011-11-13T11:10:24Z</time>
      </trkpt>
      <trkpt lat="47.41162" lon="-2.1727">
        <ele>53.5</ele>
        <time>2011-11-13T11:10:26Z</time>
      </trkpt>
      <trkpt lat="47.41168" lon="-2.17265">
        <ele>52.1</ele>
        <time>2011-11-13T11:10:29Z</time>
      </trkpt>
      <trkpt lat="47.41169" lon="-2.17272">
        <ele>53.6</ele>
        <time>2011-11-13T11:10:32Z</time>
      </trkpt>
      <trkpt lat="47.41167" lon="-2.17279">
        <ele>51.5</ele>
        <time>2011-11-13T11:10:34Z</time>
      </trkpt>
      <trkpt lat="47.41167" lon="-2.17286">
        <ele>50.9</ele>
        <time>2011-11-13T11:10:40Z</time>
      </trkpt>
      <trkpt lat="47.41172" lon="-2.17289">
        <ele>53.6</ele>
        <time>2011-11-13T11:11:26Z</time>
      </trkpt>
    </trkseg>
  </trk>
</gpx>